<?xml version="1.0" encoding="UTF-8" standalone="no" ?>
<gpx xmlns="http://www.topografix.com/GPX/1/1" xmlns:xsi="http://www.w3.org/2001/XMLSchema-instance" xsi:schemaLocation="http://www.topografix.com/GPX/1/1 http://www.topografix.com/GPX/1/1/gpx.xsd" version="1.1" creator="VisuGPX - https://www.visugpx.com">
  <metadata>
    <name>2017-07-28 Bike ride-Amberieux-Rance O 37</name>
    <desc><![CDATA[2017-07-28 Bike ride-Amberieux-Rance O 37]]></desc>
  </metadata>
  <wpt lat="45.92465" lon="4.73711">
    <ele>174</ele>
    <name><![CDATA[2017-07-28 10:42 (Start)]]></name>
  </wpt>
  <wpt lat="45.92456" lon="4.73708">
    <ele>174</ele>
    <name><![CDATA[2017-07-28 10:42 (End)]]></name>
    <desc><![CDATA[Created by Google My Tracks on Android  Name: 2017-07-28 10:42 Activity type: biking Description: - Total distance: 36.81 km (22.9 mi) Total time: 1:56:41 Moving time: 1:49:07 Average speed: 18.93 km/h (11.8 mi/h) Average moving speed: 20.24 km/h (12.6 mi/h) Max speed: 46.94 km/h (29.2 mi/h) Average pace: 3:10 min/km (5:06 min/mi) Average moving pace: 2:58 min/km (4:46 min/mi) Fastest pace: 1:17 min/km (2:03 min/mi) Max elevation: 302 m (991 ft) Min elevation: 164 m (537 ft) Elevation gain: 581 m (1905 ft) Max grade: 24 % Min grade: -23 % Recorded: 28/07/2017 10:42]]></desc>
  </wpt>
  <trk>
    <name><![CDATA[2017-07-28 10:42]]></name>
    <trkseg>
      <trkpt lat="45.92465" lon="4.73711">
        <ele>174</ele>
        <time>2017-07-28T08:42:51.816Z</time>
      </trkpt>
      <trkpt lat="45.92465" lon="4.73701">
        <ele>174</ele>
        <time>2017-07-28T08:43:56Z</time>
      </trkpt>
      <trkpt lat="45.92465" lon="4.73696">
        <ele>174</ele>
        <time>2017-07-28T08:43:57Z</time>
      </trkpt>
      <trkpt lat="45.92467" lon="4.73688">
        <ele>174</ele>
        <time>2017-07-28T08:43:59Z</time>
      </trkpt>
      <trkpt lat="45.92468" lon="4.73683">
        <ele>174</ele>
        <time>2017-07-28T08:44:00Z</time>
      </trkpt>
      <trkpt lat="45.92471" lon="4.73672">
        <ele>174</ele>
        <time>2017-07-28T08:44:02Z</time>
      </trkpt>
      <trkpt lat="45.92472" lon="4.73666">
        <ele>174</ele>
        <time>2017-07-28T08:44:03Z</time>
      </trkpt>
      <trkpt lat="45.92474" lon="4.73654">
        <ele>174</ele>
        <time>2017-07-28T08:44:05Z</time>
      </trkpt>
      <trkpt lat="45.92475" lon="4.73649">
        <ele>174</ele>
        <time>2017-07-28T08:44:06Z</time>
      </trkpt>
      <trkpt lat="45.92479" lon="4.7364">
        <ele>174</ele>
        <time>2017-07-28T08:44:08Z</time>
      </trkpt>
      <trkpt lat="45.92484" lon="4.73638">
        <ele>174</ele>
        <time>2017-07-28T08:44:09Z</time>
      </trkpt>
      <trkpt lat="45.92492" lon="4.7364">
        <ele>174</ele>
        <time>2017-07-28T08:44:11Z</time>
      </trkpt>
      <trkpt lat="45.92496" lon="4.7364">
        <ele>174</ele>
        <time>2017-07-28T08:44:12Z</time>
      </trkpt>
      <trkpt lat="45.92505" lon="4.73639">
        <ele>174</ele>
        <time>2017-07-28T08:44:14Z</time>
      </trkpt>
      <trkpt lat="45.92509" lon="4.73639">
        <ele>174</ele>
        <time>2017-07-28T08:44:15Z</time>
      </trkpt>
      <trkpt lat="45.92514" lon="4.73639">
        <ele>174</ele>
        <time>2017-07-28T08:44:16Z</time>
      </trkpt>
      <trkpt lat="45.92518" lon="4.73638">
        <ele>173</ele>
        <time>2017-07-28T08:44:17Z</time>
      </trkpt>
      <trkpt lat="45.92524" lon="4.73638">
        <ele>173</ele>
        <time>2017-07-28T08:44:18Z</time>
      </trkpt>
      <trkpt lat="45.92528" lon="4.73638">
        <ele>173</ele>
        <time>2017-07-28T08:44:19Z</time>
      </trkpt>
      <trkpt lat="45.92534" lon="4.73637">
        <ele>173</ele>
        <time>2017-07-28T08:44:20Z</time>
      </trkpt>
      <trkpt lat="45.92539" lon="4.73637">
        <ele>173</ele>
        <time>2017-07-28T08:44:21Z</time>
      </trkpt>
      <trkpt lat="45.92544" lon="4.73635">
        <ele>173</ele>
        <time>2017-07-28T08:44:22Z</time>
      </trkpt>
      <trkpt lat="45.92549" lon="4.73634">
        <ele>173</ele>
        <time>2017-07-28T08:44:23Z</time>
      </trkpt>
      <trkpt lat="45.92555" lon="4.73632">
        <ele>173</ele>
        <time>2017-07-28T08:44:24Z</time>
      </trkpt>
      <trkpt lat="45.9256" lon="4.7363">
        <ele>173</ele>
        <time>2017-07-28T08:44:25Z</time>
      </trkpt>
      <trkpt lat="45.92566" lon="4.73629">
        <ele>173</ele>
        <time>2017-07-28T08:44:26Z</time>
      </trkpt>
      <trkpt lat="45.92571" lon="4.73628">
        <ele>173</ele>
        <time>2017-07-28T08:44:27Z</time>
      </trkpt>
      <trkpt lat="45.92575" lon="4.73627">
        <ele>173</ele>
        <time>2017-07-28T08:44:28Z</time>
      </trkpt>
      <trkpt lat="45.9258" lon="4.73625">
        <ele>173</ele>
        <time>2017-07-28T08:44:29Z</time>
      </trkpt>
      <trkpt lat="45.92585" lon="4.73624">
        <ele>172</ele>
        <time>2017-07-28T08:44:30Z</time>
      </trkpt>
      <trkpt lat="45.9259" lon="4.73621">
        <ele>173</ele>
        <time>2017-07-28T08:44:31Z</time>
      </trkpt>
      <trkpt lat="45.92595" lon="4.7362">
        <ele>173</ele>
        <time>2017-07-28T08:44:32Z</time>
      </trkpt>
      <trkpt lat="45.926" lon="4.73619">
        <ele>173</ele>
        <time>2017-07-28T08:44:33Z</time>
      </trkpt>
      <trkpt lat="45.92606" lon="4.7362">
        <ele>173</ele>
        <time>2017-07-28T08:44:34Z</time>
      </trkpt>
      <trkpt lat="45.92611" lon="4.73622">
        <ele>173</ele>
        <time>2017-07-28T08:44:35Z</time>
      </trkpt>
      <trkpt lat="45.92616" lon="4.73626">
        <ele>173</ele>
        <time>2017-07-28T08:44:36Z</time>
      </trkpt>
      <trkpt lat="45.92621" lon="4.73631">
        <ele>173</ele>
        <time>2017-07-28T08:44:37Z</time>
      </trkpt>
      <trkpt lat="45.92625" lon="4.73637">
        <ele>173</ele>
        <time>2017-07-28T08:44:38Z</time>
      </trkpt>
      <trkpt lat="45.92629" lon="4.73644">
        <ele>173</ele>
        <time>2017-07-28T08:44:39Z</time>
      </trkpt>
      <trkpt lat="45.92632" lon="4.73652">
        <ele>173</ele>
        <time>2017-07-28T08:44:40Z</time>
      </trkpt>
      <trkpt lat="45.92635" lon="4.7366">
        <ele>173</ele>
        <time>2017-07-28T08:44:41Z</time>
      </trkpt>
      <trkpt lat="45.92638" lon="4.73667">
        <ele>173</ele>
        <time>2017-07-28T08:44:42Z</time>
      </trkpt>
      <trkpt lat="45.92642" lon="4.73674">
        <ele>173</ele>
        <time>2017-07-28T08:44:43Z</time>
      </trkpt>
      <trkpt lat="45.92646" lon="4.7368">
        <ele>173</ele>
        <time>2017-07-28T08:44:44Z</time>
      </trkpt>
      <trkpt lat="45.92651" lon="4.73686">
        <ele>173</ele>
        <time>2017-07-28T08:44:45Z</time>
      </trkpt>
      <trkpt lat="45.92655" lon="4.73691">
        <ele>173</ele>
        <time>2017-07-28T08:44:46Z</time>
      </trkpt>
      <trkpt lat="45.9266" lon="4.73696">
        <ele>173</ele>
        <time>2017-07-28T08:44:47Z</time>
      </trkpt>
      <trkpt lat="45.92665" lon="4.737">
        <ele>173</ele>
        <time>2017-07-28T08:44:48Z</time>
      </trkpt>
      <trkpt lat="45.9267" lon="4.73703">
        <ele>174</ele>
        <time>2017-07-28T08:44:49Z</time>
      </trkpt>
      <trkpt lat="45.92675" lon="4.73706">
        <ele>174</ele>
        <time>2017-07-28T08:44:50Z</time>
      </trkpt>
      <trkpt lat="45.9268" lon="4.73708">
        <ele>173</ele>
        <time>2017-07-28T08:44:51Z</time>
      </trkpt>
      <trkpt lat="45.92686" lon="4.73709">
        <ele>173</ele>
        <time>2017-07-28T08:44:52Z</time>
      </trkpt>
      <trkpt lat="45.92692" lon="4.73711">
        <ele>173</ele>
        <time>2017-07-28T08:44:53Z</time>
      </trkpt>
      <trkpt lat="45.92697" lon="4.73713">
        <ele>173</ele>
        <time>2017-07-28T08:44:54Z</time>
      </trkpt>
      <trkpt lat="45.92703" lon="4.73714">
        <ele>173</ele>
        <time>2017-07-28T08:44:55Z</time>
      </trkpt>
      <trkpt lat="45.9271" lon="4.73715">
        <ele>173</ele>
        <time>2017-07-28T08:44:56Z</time>
      </trkpt>
      <trkpt lat="45.92716" lon="4.73716">
        <ele>173</ele>
        <time>2017-07-28T08:44:57Z</time>
      </trkpt>
      <trkpt lat="45.92722" lon="4.73718">
        <ele>173</ele>
        <time>2017-07-28T08:44:58Z</time>
      </trkpt>
      <trkpt lat="45.92728" lon="4.73719">
        <ele>173</ele>
        <time>2017-07-28T08:44:59Z</time>
      </trkpt>
      <trkpt lat="45.92734" lon="4.7372">
        <ele>173</ele>
        <time>2017-07-28T08:45:00Z</time>
      </trkpt>
      <trkpt lat="45.92739" lon="4.73721">
        <ele>173</ele>
        <time>2017-07-28T08:45:01Z</time>
      </trkpt>
      <trkpt lat="45.92744" lon="4.73722">
        <ele>173</ele>
        <time>2017-07-28T08:45:02Z</time>
      </trkpt>
      <trkpt lat="45.92749" lon="4.73723">
        <ele>173</ele>
        <time>2017-07-28T08:45:03Z</time>
      </trkpt>
      <trkpt lat="45.92754" lon="4.73724">
        <ele>172</ele>
        <time>2017-07-28T08:45:04Z</time>
      </trkpt>
      <trkpt lat="45.92759" lon="4.73725">
        <ele>172</ele>
        <time>2017-07-28T08:45:05Z</time>
      </trkpt>
      <trkpt lat="45.92767" lon="4.73728">
        <ele>172</ele>
        <time>2017-07-28T08:45:07Z</time>
      </trkpt>
      <trkpt lat="45.92771" lon="4.73729">
        <ele>172</ele>
        <time>2017-07-28T08:45:08Z</time>
      </trkpt>
      <trkpt lat="45.92777" lon="4.73734">
        <ele>172</ele>
        <time>2017-07-28T08:45:10Z</time>
      </trkpt>
      <trkpt lat="45.9278" lon="4.73737">
        <ele>172</ele>
        <time>2017-07-28T08:45:11Z</time>
      </trkpt>
      <trkpt lat="45.92784" lon="4.73746">
        <ele>172</ele>
        <time>2017-07-28T08:45:13Z</time>
      </trkpt>
      <trkpt lat="45.92787" lon="4.73751">
        <ele>173</ele>
        <time>2017-07-28T08:45:14Z</time>
      </trkpt>
      <trkpt lat="45.92791" lon="4.73755">
        <ele>173</ele>
        <time>2017-07-28T08:45:15Z</time>
      </trkpt>
      <trkpt lat="45.92795" lon="4.73758">
        <ele>173</ele>
        <time>2017-07-28T08:45:16Z</time>
      </trkpt>
      <trkpt lat="45.928" lon="4.73761">
        <ele>173</ele>
        <time>2017-07-28T08:45:17Z</time>
      </trkpt>
      <trkpt lat="45.92805" lon="4.73764">
        <ele>173</ele>
        <time>2017-07-28T08:45:18Z</time>
      </trkpt>
      <trkpt lat="45.92811" lon="4.73768">
        <ele>173</ele>
        <time>2017-07-28T08:45:19Z</time>
      </trkpt>
      <trkpt lat="45.92815" lon="4.73772">
        <ele>173</ele>
        <time>2017-07-28T08:45:20Z</time>
      </trkpt>
      <trkpt lat="45.92819" lon="4.73776">
        <ele>173</ele>
        <time>2017-07-28T08:45:21Z</time>
      </trkpt>
      <trkpt lat="45.92824" lon="4.7378">
        <ele>173</ele>
        <time>2017-07-28T08:45:22Z</time>
      </trkpt>
      <trkpt lat="45.92829" lon="4.73784">
        <ele>173</ele>
        <time>2017-07-28T08:45:23Z</time>
      </trkpt>
      <trkpt lat="45.92835" lon="4.73788">
        <ele>173</ele>
        <time>2017-07-28T08:45:24Z</time>
      </trkpt>
      <trkpt lat="45.9284" lon="4.73793">
        <ele>173</ele>
        <time>2017-07-28T08:45:25Z</time>
      </trkpt>
      <trkpt lat="45.92846" lon="4.73797">
        <ele>173</ele>
        <time>2017-07-28T08:45:26Z</time>
      </trkpt>
      <trkpt lat="45.92852" lon="4.73802">
        <ele>173</ele>
        <time>2017-07-28T08:45:27Z</time>
      </trkpt>
      <trkpt lat="45.92856" lon="4.73807">
        <ele>173</ele>
        <time>2017-07-28T08:45:28Z</time>
      </trkpt>
      <trkpt lat="45.92859" lon="4.73814">
        <ele>173</ele>
        <time>2017-07-28T08:45:29Z</time>
      </trkpt>
      <trkpt lat="45.92862" lon="4.73821">
        <ele>173</ele>
        <time>2017-07-28T08:45:30Z</time>
      </trkpt>
      <trkpt lat="45.92863" lon="4.73829">
        <ele>173</ele>
        <time>2017-07-28T08:45:31Z</time>
      </trkpt>
      <trkpt lat="45.92866" lon="4.73836">
        <ele>173</ele>
        <time>2017-07-28T08:45:32Z</time>
      </trkpt>
      <trkpt lat="45.92867" lon="4.73844">
        <ele>173</ele>
        <time>2017-07-28T08:45:33Z</time>
      </trkpt>
      <trkpt lat="45.92869" lon="4.73851">
        <ele>173</ele>
        <time>2017-07-28T08:45:34Z</time>
      </trkpt>
      <trkpt lat="45.92871" lon="4.73858">
        <ele>173</ele>
        <time>2017-07-28T08:45:35Z</time>
      </trkpt>
      <trkpt lat="45.92873" lon="4.73866">
        <ele>173</ele>
        <time>2017-07-28T08:45:36Z</time>
      </trkpt>
      <trkpt lat="45.92875" lon="4.73873">
        <ele>173</ele>
        <time>2017-07-28T08:45:37Z</time>
      </trkpt>
      <trkpt lat="45.92877" lon="4.7388">
        <ele>173</ele>
        <time>2017-07-28T08:45:38Z</time>
      </trkpt>
      <trkpt lat="45.92878" lon="4.73888">
        <ele>173</ele>
        <time>2017-07-28T08:45:39Z</time>
      </trkpt>
      <trkpt lat="45.92879" lon="4.73897">
        <ele>173</ele>
        <time>2017-07-28T08:45:40Z</time>
      </trkpt>
      <trkpt lat="45.9288" lon="4.73905">
        <ele>173</ele>
        <time>2017-07-28T08:45:41Z</time>
      </trkpt>
      <trkpt lat="45.92879" lon="4.73914">
        <ele>173</ele>
        <time>2017-07-28T08:45:42Z</time>
      </trkpt>
      <trkpt lat="45.9288" lon="4.73923">
        <ele>172</ele>
        <time>2017-07-28T08:45:43Z</time>
      </trkpt>
      <trkpt lat="45.92881" lon="4.73932">
        <ele>172</ele>
        <time>2017-07-28T08:45:44Z</time>
      </trkpt>
      <trkpt lat="45.92882" lon="4.73941">
        <ele>172</ele>
        <time>2017-07-28T08:45:45Z</time>
      </trkpt>
      <trkpt lat="45.92882" lon="4.73949">
        <ele>172</ele>
        <time>2017-07-28T08:45:46Z</time>
      </trkpt>
      <trkpt lat="45.92882" lon="4.73956">
        <ele>172</ele>
        <time>2017-07-28T08:45:47Z</time>
      </trkpt>
      <trkpt lat="45.92882" lon="4.73963">
        <ele>172</ele>
        <time>2017-07-28T08:45:48Z</time>
      </trkpt>
      <trkpt lat="45.92881" lon="4.73969">
        <ele>172</ele>
        <time>2017-07-28T08:45:49Z</time>
      </trkpt>
      <trkpt lat="45.9288" lon="4.73976">
        <ele>172</ele>
        <time>2017-07-28T08:45:50Z</time>
      </trkpt>
      <trkpt lat="45.92879" lon="4.73983">
        <ele>172</ele>
        <time>2017-07-28T08:45:51Z</time>
      </trkpt>
      <trkpt lat="45.92876" lon="4.73989">
        <ele>172</ele>
        <time>2017-07-28T08:45:52Z</time>
      </trkpt>
      <trkpt lat="45.92874" lon="4.73996">
        <ele>173</ele>
        <time>2017-07-28T08:45:53Z</time>
      </trkpt>
      <trkpt lat="45.92872" lon="4.74003">
        <ele>172</ele>
        <time>2017-07-28T08:45:54Z</time>
      </trkpt>
      <trkpt lat="45.92871" lon="4.7401">
        <ele>172</ele>
        <time>2017-07-28T08:45:55Z</time>
      </trkpt>
      <trkpt lat="45.9287" lon="4.74019">
        <ele>172</ele>
        <time>2017-07-28T08:45:56Z</time>
      </trkpt>
      <trkpt lat="45.92869" lon="4.74027">
        <ele>172</ele>
        <time>2017-07-28T08:45:57Z</time>
      </trkpt>
      <trkpt lat="45.92867" lon="4.74035">
        <ele>172</ele>
        <time>2017-07-28T08:45:58Z</time>
      </trkpt>
      <trkpt lat="45.92864" lon="4.74042">
        <ele>172</ele>
        <time>2017-07-28T08:45:59Z</time>
      </trkpt>
      <trkpt lat="45.9286" lon="4.74048">
        <ele>172</ele>
        <time>2017-07-28T08:46:00Z</time>
      </trkpt>
      <trkpt lat="45.92856" lon="4.74054">
        <ele>172</ele>
        <time>2017-07-28T08:46:01Z</time>
      </trkpt>
      <trkpt lat="45.92852" lon="4.74059">
        <ele>172</ele>
        <time>2017-07-28T08:46:02Z</time>
      </trkpt>
      <trkpt lat="45.92848" lon="4.74065">
        <ele>172</ele>
        <time>2017-07-28T08:46:03Z</time>
      </trkpt>
      <trkpt lat="45.92842" lon="4.74069">
        <ele>172</ele>
        <time>2017-07-28T08:46:04Z</time>
      </trkpt>
      <trkpt lat="45.92838" lon="4.74075">
        <ele>171</ele>
        <time>2017-07-28T08:46:05Z</time>
      </trkpt>
      <trkpt lat="45.92833" lon="4.74082">
        <ele>171</ele>
        <time>2017-07-28T08:46:06Z</time>
      </trkpt>
      <trkpt lat="45.92828" lon="4.74088">
        <ele>171</ele>
        <time>2017-07-28T08:46:07Z</time>
      </trkpt>
      <trkpt lat="45.92823" lon="4.74094">
        <ele>171</ele>
        <time>2017-07-28T08:46:08Z</time>
      </trkpt>
      <trkpt lat="45.92818" lon="4.74101">
        <ele>171</ele>
        <time>2017-07-28T08:46:09Z</time>
      </trkpt>
      <trkpt lat="45.92812" lon="4.74107">
        <ele>172</ele>
        <time>2017-07-28T08:46:10Z</time>
      </trkpt>
      <trkpt lat="45.92807" lon="4.74114">
        <ele>172</ele>
        <time>2017-07-28T08:46:11Z</time>
      </trkpt>
      <trkpt lat="45.92801" lon="4.7412">
        <ele>172</ele>
        <time>2017-07-28T08:46:12Z</time>
      </trkpt>
      <trkpt lat="45.92796" lon="4.74127">
        <ele>172</ele>
        <time>2017-07-28T08:46:13Z</time>
      </trkpt>
      <trkpt lat="45.9279" lon="4.74133">
        <ele>172</ele>
        <time>2017-07-28T08:46:14Z</time>
      </trkpt>
      <trkpt lat="45.92785" lon="4.74138">
        <ele>172</ele>
        <time>2017-07-28T08:46:15Z</time>
      </trkpt>
      <trkpt lat="45.9278" lon="4.74143">
        <ele>172</ele>
        <time>2017-07-28T08:46:16Z</time>
      </trkpt>
      <trkpt lat="45.92775" lon="4.74148">
        <ele>172</ele>
        <time>2017-07-28T08:46:17Z</time>
      </trkpt>
      <trkpt lat="45.9277" lon="4.74153">
        <ele>172</ele>
        <time>2017-07-28T08:46:18Z</time>
      </trkpt>
      <trkpt lat="45.92765" lon="4.74158">
        <ele>172</ele>
        <time>2017-07-28T08:46:19Z</time>
      </trkpt>
      <trkpt lat="45.9276" lon="4.74162">
        <ele>172</ele>
        <time>2017-07-28T08:46:20Z</time>
      </trkpt>
      <trkpt lat="45.92756" lon="4.74167">
        <ele>172</ele>
        <time>2017-07-28T08:46:21Z</time>
      </trkpt>
      <trkpt lat="45.92751" lon="4.74172">
        <ele>172</ele>
        <time>2017-07-28T08:46:22Z</time>
      </trkpt>
      <trkpt lat="45.92747" lon="4.74177">
        <ele>172</ele>
        <time>2017-07-28T08:46:23Z</time>
      </trkpt>
      <trkpt lat="45.92743" lon="4.74182">
        <ele>172</ele>
        <time>2017-07-28T08:46:24Z</time>
      </trkpt>
      <trkpt lat="45.92739" lon="4.74187">
        <ele>172</ele>
        <time>2017-07-28T08:46:25Z</time>
      </trkpt>
      <trkpt lat="45.92735" lon="4.74193">
        <ele>171</ele>
        <time>2017-07-28T08:46:26Z</time>
      </trkpt>
      <trkpt lat="45.92731" lon="4.74198">
        <ele>171</ele>
        <time>2017-07-28T08:46:27Z</time>
      </trkpt>
      <trkpt lat="45.92727" lon="4.74204">
        <ele>171</ele>
        <time>2017-07-28T08:46:28Z</time>
      </trkpt>
      <trkpt lat="45.92722" lon="4.7421">
        <ele>171</ele>
        <time>2017-07-28T08:46:29Z</time>
      </trkpt>
      <trkpt lat="45.92718" lon="4.74216">
        <ele>171</ele>
        <time>2017-07-28T08:46:30Z</time>
      </trkpt>
      <trkpt lat="45.92714" lon="4.74222">
        <ele>171</ele>
        <time>2017-07-28T08:46:31Z</time>
      </trkpt>
      <trkpt lat="45.92709" lon="4.74229">
        <ele>171</ele>
        <time>2017-07-28T08:46:32Z</time>
      </trkpt>
      <trkpt lat="45.92705" lon="4.74235">
        <ele>171</ele>
        <time>2017-07-28T08:46:33Z</time>
      </trkpt>
      <trkpt lat="45.92701" lon="4.74242">
        <ele>171</ele>
        <time>2017-07-28T08:46:34Z</time>
      </trkpt>
      <trkpt lat="45.92696" lon="4.7425">
        <ele>171</ele>
        <time>2017-07-28T08:46:35Z</time>
      </trkpt>
      <trkpt lat="45.92692" lon="4.74257">
        <ele>171</ele>
        <time>2017-07-28T08:46:36Z</time>
      </trkpt>
      <trkpt lat="45.92688" lon="4.74265">
        <ele>171</ele>
        <time>2017-07-28T08:46:37Z</time>
      </trkpt>
      <trkpt lat="45.92683" lon="4.74272">
        <ele>171</ele>
        <time>2017-07-28T08:46:38Z</time>
      </trkpt>
      <trkpt lat="45.92679" lon="4.74279">
        <ele>171</ele>
        <time>2017-07-28T08:46:39Z</time>
      </trkpt>
      <trkpt lat="45.92675" lon="4.74287">
        <ele>171</ele>
        <time>2017-07-28T08:46:40Z</time>
      </trkpt>
      <trkpt lat="45.92671" lon="4.74294">
        <ele>171</ele>
        <time>2017-07-28T08:46:41Z</time>
      </trkpt>
      <trkpt lat="45.92667" lon="4.74301">
        <ele>171</ele>
        <time>2017-07-28T08:46:42Z</time>
      </trkpt>
      <trkpt lat="45.92663" lon="4.74308">
        <ele>171</ele>
        <time>2017-07-28T08:46:43Z</time>
      </trkpt>
      <trkpt lat="45.9266" lon="4.74315">
        <ele>171</ele>
        <time>2017-07-28T08:46:44Z</time>
      </trkpt>
      <trkpt lat="45.92656" lon="4.74323">
        <ele>171</ele>
        <time>2017-07-28T08:46:45Z</time>
      </trkpt>
      <trkpt lat="45.92652" lon="4.7433">
        <ele>171</ele>
        <time>2017-07-28T08:46:46Z</time>
      </trkpt>
      <trkpt lat="45.92648" lon="4.74337">
        <ele>171</ele>
        <time>2017-07-28T08:46:47Z</time>
      </trkpt>
      <trkpt lat="45.92644" lon="4.74344">
        <ele>171</ele>
        <time>2017-07-28T08:46:48Z</time>
      </trkpt>
      <trkpt lat="45.9264" lon="4.74351">
        <ele>171</ele>
        <time>2017-07-28T08:46:49Z</time>
      </trkpt>
      <trkpt lat="45.92636" lon="4.74358">
        <ele>171</ele>
        <time>2017-07-28T08:46:50Z</time>
      </trkpt>
      <trkpt lat="45.92632" lon="4.74365">
        <ele>171</ele>
        <time>2017-07-28T08:46:51Z</time>
      </trkpt>
      <trkpt lat="45.92628" lon="4.74373">
        <ele>171</ele>
        <time>2017-07-28T08:46:52Z</time>
      </trkpt>
      <trkpt lat="45.92624" lon="4.74381">
        <ele>170</ele>
        <time>2017-07-28T08:46:53Z</time>
      </trkpt>
      <trkpt lat="45.9262" lon="4.74389">
        <ele>170</ele>
        <time>2017-07-28T08:46:54Z</time>
      </trkpt>
      <trkpt lat="45.92615" lon="4.74397">
        <ele>170</ele>
        <time>2017-07-28T08:46:55Z</time>
      </trkpt>
      <trkpt lat="45.92611" lon="4.74406">
        <ele>170</ele>
        <time>2017-07-28T08:46:56Z</time>
      </trkpt>
      <trkpt lat="45.92606" lon="4.74414">
        <ele>170</ele>
        <time>2017-07-28T08:46:57Z</time>
      </trkpt>
      <trkpt lat="45.92602" lon="4.74422">
        <ele>170</ele>
        <time>2017-07-28T08:46:58Z</time>
      </trkpt>
      <trkpt lat="45.92598" lon="4.74429">
        <ele>170</ele>
        <time>2017-07-28T08:46:59Z</time>
      </trkpt>
      <trkpt lat="45.92594" lon="4.74437">
        <ele>170</ele>
        <time>2017-07-28T08:47:00Z</time>
      </trkpt>
      <trkpt lat="45.92589" lon="4.74445">
        <ele>170</ele>
        <time>2017-07-28T08:47:01Z</time>
      </trkpt>
      <trkpt lat="45.92585" lon="4.74452">
        <ele>170</ele>
        <time>2017-07-28T08:47:02Z</time>
      </trkpt>
      <trkpt lat="45.92581" lon="4.7446">
        <ele>170</ele>
        <time>2017-07-28T08:47:03Z</time>
      </trkpt>
      <trkpt lat="45.92577" lon="4.74467">
        <ele>170</ele>
        <time>2017-07-28T08:47:04Z</time>
      </trkpt>
      <trkpt lat="45.92573" lon="4.74474">
        <ele>170</ele>
        <time>2017-07-28T08:47:05Z</time>
      </trkpt>
      <trkpt lat="45.92568" lon="4.74482">
        <ele>170</ele>
        <time>2017-07-28T08:47:06Z</time>
      </trkpt>
      <trkpt lat="45.92565" lon="4.74489">
        <ele>170</ele>
        <time>2017-07-28T08:47:07Z</time>
      </trkpt>
      <trkpt lat="45.92561" lon="4.74497">
        <ele>170</ele>
        <time>2017-07-28T08:47:08Z</time>
      </trkpt>
      <trkpt lat="45.92557" lon="4.74504">
        <ele>170</ele>
        <time>2017-07-28T08:47:09Z</time>
      </trkpt>
      <trkpt lat="45.92553" lon="4.74511">
        <ele>170</ele>
        <time>2017-07-28T08:47:10Z</time>
      </trkpt>
      <trkpt lat="45.92549" lon="4.74519">
        <ele>170</ele>
        <time>2017-07-28T08:47:11Z</time>
      </trkpt>
      <trkpt lat="45.92545" lon="4.74526">
        <ele>170</ele>
        <time>2017-07-28T08:47:12Z</time>
      </trkpt>
      <trkpt lat="45.9254" lon="4.74534">
        <ele>171</ele>
        <time>2017-07-28T08:47:13Z</time>
      </trkpt>
      <trkpt lat="45.92536" lon="4.74541">
        <ele>171</ele>
        <time>2017-07-28T08:47:14Z</time>
      </trkpt>
      <trkpt lat="45.92531" lon="4.74549">
        <ele>171</ele>
        <time>2017-07-28T08:47:15Z</time>
      </trkpt>
      <trkpt lat="45.92527" lon="4.74557">
        <ele>171</ele>
        <time>2017-07-28T08:47:16Z</time>
      </trkpt>
      <trkpt lat="45.92522" lon="4.74564">
        <ele>171</ele>
        <time>2017-07-28T08:47:17Z</time>
      </trkpt>
      <trkpt lat="45.92516" lon="4.74571">
        <ele>171</ele>
        <time>2017-07-28T08:47:18Z</time>
      </trkpt>
      <trkpt lat="45.92511" lon="4.74578">
        <ele>171</ele>
        <time>2017-07-28T08:47:19Z</time>
      </trkpt>
      <trkpt lat="45.92505" lon="4.74584">
        <ele>171</ele>
        <time>2017-07-28T08:47:20Z</time>
      </trkpt>
      <trkpt lat="45.925" lon="4.7459">
        <ele>171</ele>
        <time>2017-07-28T08:47:21Z</time>
      </trkpt>
      <trkpt lat="45.92495" lon="4.74596">
        <ele>171</ele>
        <time>2017-07-28T08:47:22Z</time>
      </trkpt>
      <trkpt lat="45.92489" lon="4.74602">
        <ele>171</ele>
        <time>2017-07-28T08:47:23Z</time>
      </trkpt>
      <trkpt lat="45.92485" lon="4.74608">
        <ele>171</ele>
        <time>2017-07-28T08:47:24Z</time>
      </trkpt>
      <trkpt lat="45.9248" lon="4.74614">
        <ele>171</ele>
        <time>2017-07-28T08:47:25Z</time>
      </trkpt>
      <trkpt lat="45.92476" lon="4.7462">
        <ele>171</ele>
        <time>2017-07-28T08:47:26Z</time>
      </trkpt>
      <trkpt lat="45.92472" lon="4.74626">
        <ele>171</ele>
        <time>2017-07-28T08:47:27Z</time>
      </trkpt>
      <trkpt lat="45.92468" lon="4.74633">
        <ele>171</ele>
        <time>2017-07-28T08:47:28Z</time>
      </trkpt>
      <trkpt lat="45.92463" lon="4.7464">
        <ele>171</ele>
        <time>2017-07-28T08:47:29Z</time>
      </trkpt>
      <trkpt lat="45.92459" lon="4.74647">
        <ele>171</ele>
        <time>2017-07-28T08:47:30Z</time>
      </trkpt>
      <trkpt lat="45.92455" lon="4.74653">
        <ele>171</ele>
        <time>2017-07-28T08:47:31Z</time>
      </trkpt>
      <trkpt lat="45.9245" lon="4.74661">
        <ele>171</ele>
        <time>2017-07-28T08:47:32Z</time>
      </trkpt>
      <trkpt lat="45.92447" lon="4.74669">
        <ele>171</ele>
        <time>2017-07-28T08:47:33Z</time>
      </trkpt>
      <trkpt lat="45.92442" lon="4.74678">
        <ele>171</ele>
        <time>2017-07-28T08:47:34Z</time>
      </trkpt>
      <trkpt lat="45.92438" lon="4.74686">
        <ele>171</ele>
        <time>2017-07-28T08:47:35Z</time>
      </trkpt>
      <trkpt lat="45.92435" lon="4.74694">
        <ele>171</ele>
        <time>2017-07-28T08:47:36Z</time>
      </trkpt>
      <trkpt lat="45.92431" lon="4.74702">
        <ele>171</ele>
        <time>2017-07-28T08:47:37Z</time>
      </trkpt>
      <trkpt lat="45.92427" lon="4.74711">
        <ele>171</ele>
        <time>2017-07-28T08:47:38Z</time>
      </trkpt>
      <trkpt lat="45.92424" lon="4.74719">
        <ele>171</ele>
        <time>2017-07-28T08:47:39Z</time>
      </trkpt>
      <trkpt lat="45.92422" lon="4.74727">
        <ele>171</ele>
        <time>2017-07-28T08:47:40Z</time>
      </trkpt>
      <trkpt lat="45.92419" lon="4.74736">
        <ele>171</ele>
        <time>2017-07-28T08:47:41Z</time>
      </trkpt>
      <trkpt lat="45.92416" lon="4.74745">
        <ele>172</ele>
        <time>2017-07-28T08:47:42Z</time>
      </trkpt>
      <trkpt lat="45.92413" lon="4.74754">
        <ele>172</ele>
        <time>2017-07-28T08:47:43Z</time>
      </trkpt>
      <trkpt lat="45.92411" lon="4.74764">
        <ele>172</ele>
        <time>2017-07-28T08:47:44Z</time>
      </trkpt>
      <trkpt lat="45.92408" lon="4.74773">
        <ele>171</ele>
        <time>2017-07-28T08:47:45Z</time>
      </trkpt>
      <trkpt lat="45.92406" lon="4.74783">
        <ele>171</ele>
        <time>2017-07-28T08:47:46Z</time>
      </trkpt>
      <trkpt lat="45.92405" lon="4.74794">
        <ele>171</ele>
        <time>2017-07-28T08:47:47Z</time>
      </trkpt>
      <trkpt lat="45.92403" lon="4.74804">
        <ele>171</ele>
        <time>2017-07-28T08:47:48Z</time>
      </trkpt>
      <trkpt lat="45.92401" lon="4.74814">
        <ele>171</ele>
        <time>2017-07-28T08:47:49Z</time>
      </trkpt>
      <trkpt lat="45.92399" lon="4.74824">
        <ele>171</ele>
        <time>2017-07-28T08:47:50Z</time>
      </trkpt>
      <trkpt lat="45.92396" lon="4.74834">
        <ele>171</ele>
        <time>2017-07-28T08:47:51Z</time>
      </trkpt>
      <trkpt lat="45.92394" lon="4.74843">
        <ele>171</ele>
        <time>2017-07-28T08:47:52Z</time>
      </trkpt>
      <trkpt lat="45.92391" lon="4.74853">
        <ele>171</ele>
        <time>2017-07-28T08:47:53Z</time>
      </trkpt>
      <trkpt lat="45.92388" lon="4.74862">
        <ele>171</ele>
        <time>2017-07-28T08:47:54Z</time>
      </trkpt>
      <trkpt lat="45.92385" lon="4.7487">
        <ele>171</ele>
        <time>2017-07-28T08:47:55Z</time>
      </trkpt>
      <trkpt lat="45.92382" lon="4.74879">
        <ele>171</ele>
        <time>2017-07-28T08:47:56Z</time>
      </trkpt>
      <trkpt lat="45.92378" lon="4.74888">
        <ele>171</ele>
        <time>2017-07-28T08:47:57Z</time>
      </trkpt>
      <trkpt lat="45.92375" lon="4.74896">
        <ele>171</ele>
        <time>2017-07-28T08:47:58Z</time>
      </trkpt>
      <trkpt lat="45.92372" lon="4.74905">
        <ele>171</ele>
        <time>2017-07-28T08:47:59Z</time>
      </trkpt>
      <trkpt lat="45.92369" lon="4.74914">
        <ele>171</ele>
        <time>2017-07-28T08:48:00Z</time>
      </trkpt>
      <trkpt lat="45.92365" lon="4.74923">
        <ele>170</ele>
        <time>2017-07-28T08:48:01Z</time>
      </trkpt>
      <trkpt lat="45.92362" lon="4.74932">
        <ele>170</ele>
        <time>2017-07-28T08:48:02Z</time>
      </trkpt>
      <trkpt lat="45.92359" lon="4.74941">
        <ele>170</ele>
        <time>2017-07-28T08:48:03Z</time>
      </trkpt>
      <trkpt lat="45.92355" lon="4.7495">
        <ele>170</ele>
        <time>2017-07-28T08:48:04Z</time>
      </trkpt>
      <trkpt lat="45.92351" lon="4.7496">
        <ele>170</ele>
        <time>2017-07-28T08:48:05Z</time>
      </trkpt>
      <trkpt lat="45.92348" lon="4.74969">
        <ele>170</ele>
        <time>2017-07-28T08:48:06Z</time>
      </trkpt>
      <trkpt lat="45.92345" lon="4.74978">
        <ele>170</ele>
        <time>2017-07-28T08:48:07Z</time>
      </trkpt>
      <trkpt lat="45.92341" lon="4.74987">
        <ele>170</ele>
        <time>2017-07-28T08:48:08Z</time>
      </trkpt>
      <trkpt lat="45.92338" lon="4.74996">
        <ele>170</ele>
        <time>2017-07-28T08:48:09Z</time>
      </trkpt>
      <trkpt lat="45.92334" lon="4.75005">
        <ele>170</ele>
        <time>2017-07-28T08:48:10Z</time>
      </trkpt>
      <trkpt lat="45.9233" lon="4.75013">
        <ele>171</ele>
        <time>2017-07-28T08:48:11Z</time>
      </trkpt>
      <trkpt lat="45.92327" lon="4.75021">
        <ele>171</ele>
        <time>2017-07-28T08:48:12Z</time>
      </trkpt>
      <trkpt lat="45.92321" lon="4.75029">
        <ele>171</ele>
        <time>2017-07-28T08:48:13Z</time>
      </trkpt>
      <trkpt lat="45.92317" lon="4.75036">
        <ele>171</ele>
        <time>2017-07-28T08:48:14Z</time>
      </trkpt>
      <trkpt lat="45.92312" lon="4.75044">
        <ele>172</ele>
        <time>2017-07-28T08:48:15Z</time>
      </trkpt>
      <trkpt lat="45.92308" lon="4.7505">
        <ele>172</ele>
        <time>2017-07-28T08:48:16Z</time>
      </trkpt>
      <trkpt lat="45.92303" lon="4.75057">
        <ele>172</ele>
        <time>2017-07-28T08:48:17Z</time>
      </trkpt>
      <trkpt lat="45.92298" lon="4.75062">
        <ele>172</ele>
        <time>2017-07-28T08:48:18Z</time>
      </trkpt>
      <trkpt lat="45.92293" lon="4.75068">
        <ele>172</ele>
        <time>2017-07-28T08:48:19Z</time>
      </trkpt>
      <trkpt lat="45.92288" lon="4.75074">
        <ele>172</ele>
        <time>2017-07-28T08:48:20Z</time>
      </trkpt>
      <trkpt lat="45.92283" lon="4.7508">
        <ele>172</ele>
        <time>2017-07-28T08:48:21Z</time>
      </trkpt>
      <trkpt lat="45.92278" lon="4.75085">
        <ele>173</ele>
        <time>2017-07-28T08:48:22Z</time>
      </trkpt>
      <trkpt lat="45.92272" lon="4.75091">
        <ele>173</ele>
        <time>2017-07-28T08:48:23Z</time>
      </trkpt>
      <trkpt lat="45.92267" lon="4.75097">
        <ele>173</ele>
        <time>2017-07-28T08:48:24Z</time>
      </trkpt>
      <trkpt lat="45.92261" lon="4.75103">
        <ele>173</ele>
        <time>2017-07-28T08:48:25Z</time>
      </trkpt>
      <trkpt lat="45.92256" lon="4.75109">
        <ele>174</ele>
        <time>2017-07-28T08:48:26Z</time>
      </trkpt>
      <trkpt lat="45.92251" lon="4.75115">
        <ele>174</ele>
        <time>2017-07-28T08:48:27Z</time>
      </trkpt>
      <trkpt lat="45.92246" lon="4.75121">
        <ele>174</ele>
        <time>2017-07-28T08:48:28Z</time>
      </trkpt>
      <trkpt lat="45.92241" lon="4.75127">
        <ele>174</ele>
        <time>2017-07-28T08:48:29Z</time>
      </trkpt>
      <trkpt lat="45.92236" lon="4.75134">
        <ele>174</ele>
        <time>2017-07-28T08:48:30Z</time>
      </trkpt>
      <trkpt lat="45.92232" lon="4.75141">
        <ele>174</ele>
        <time>2017-07-28T08:48:31Z</time>
      </trkpt>
      <trkpt lat="45.92228" lon="4.75147">
        <ele>174</ele>
        <time>2017-07-28T08:48:32Z</time>
      </trkpt>
      <trkpt lat="45.92225" lon="4.75154">
        <ele>174</ele>
        <time>2017-07-28T08:48:33Z</time>
      </trkpt>
      <trkpt lat="45.92222" lon="4.75162">
        <ele>174</ele>
        <time>2017-07-28T08:48:34Z</time>
      </trkpt>
      <trkpt lat="45.92219" lon="4.75169">
        <ele>175</ele>
        <time>2017-07-28T08:48:35Z</time>
      </trkpt>
      <trkpt lat="45.92216" lon="4.75176">
        <ele>175</ele>
        <time>2017-07-28T08:48:36Z</time>
      </trkpt>
      <trkpt lat="45.92214" lon="4.75183">
        <ele>175</ele>
        <time>2017-07-28T08:48:37Z</time>
      </trkpt>
      <trkpt lat="45.92212" lon="4.7519">
        <ele>175</ele>
        <time>2017-07-28T08:48:38Z</time>
      </trkpt>
      <trkpt lat="45.92211" lon="4.75198">
        <ele>175</ele>
        <time>2017-07-28T08:48:39Z</time>
      </trkpt>
      <trkpt lat="45.9221" lon="4.75205">
        <ele>175</ele>
        <time>2017-07-28T08:48:40Z</time>
      </trkpt>
      <trkpt lat="45.92209" lon="4.75212">
        <ele>175</ele>
        <time>2017-07-28T08:48:41Z</time>
      </trkpt>
      <trkpt lat="45.92208" lon="4.7522">
        <ele>175</ele>
        <time>2017-07-28T08:48:42Z</time>
      </trkpt>
      <trkpt lat="45.92208" lon="4.75228">
        <ele>175</ele>
        <time>2017-07-28T08:48:43Z</time>
      </trkpt>
      <trkpt lat="45.92207" lon="4.75236">
        <ele>175</ele>
        <time>2017-07-28T08:48:44Z</time>
      </trkpt>
      <trkpt lat="45.92207" lon="4.75244">
        <ele>175</ele>
        <time>2017-07-28T08:48:45Z</time>
      </trkpt>
      <trkpt lat="45.92206" lon="4.75252">
        <ele>175</ele>
        <time>2017-07-28T08:48:46Z</time>
      </trkpt>
      <trkpt lat="45.92206" lon="4.7526">
        <ele>175</ele>
        <time>2017-07-28T08:48:47Z</time>
      </trkpt>
      <trkpt lat="45.92205" lon="4.75268">
        <ele>176</ele>
        <time>2017-07-28T08:48:48Z</time>
      </trkpt>
      <trkpt lat="45.92206" lon="4.75276">
        <ele>176</ele>
        <time>2017-07-28T08:48:49Z</time>
      </trkpt>
      <trkpt lat="45.92205" lon="4.75284">
        <ele>176</ele>
        <time>2017-07-28T08:48:50Z</time>
      </trkpt>
      <trkpt lat="45.92205" lon="4.75293">
        <ele>176</ele>
        <time>2017-07-28T08:48:51Z</time>
      </trkpt>
      <trkpt lat="45.92205" lon="4.75302">
        <ele>176</ele>
        <time>2017-07-28T08:48:52Z</time>
      </trkpt>
      <trkpt lat="45.92205" lon="4.7531">
        <ele>176</ele>
        <time>2017-07-28T08:48:53Z</time>
      </trkpt>
      <trkpt lat="45.92203" lon="4.75318">
        <ele>176</ele>
        <time>2017-07-28T08:48:54Z</time>
      </trkpt>
      <trkpt lat="45.92202" lon="4.75325">
        <ele>176</ele>
        <time>2017-07-28T08:48:55Z</time>
      </trkpt>
      <trkpt lat="45.92201" lon="4.75333">
        <ele>176</ele>
        <time>2017-07-28T08:48:56Z</time>
      </trkpt>
      <trkpt lat="45.922" lon="4.7534">
        <ele>177</ele>
        <time>2017-07-28T08:48:57Z</time>
      </trkpt>
      <trkpt lat="45.92198" lon="4.75347">
        <ele>177</ele>
        <time>2017-07-28T08:48:58Z</time>
      </trkpt>
      <trkpt lat="45.92197" lon="4.75354">
        <ele>177</ele>
        <time>2017-07-28T08:48:59Z</time>
      </trkpt>
      <trkpt lat="45.92195" lon="4.7536">
        <ele>177</ele>
        <time>2017-07-28T08:49:00Z</time>
      </trkpt>
      <trkpt lat="45.92193" lon="4.75367">
        <ele>177</ele>
        <time>2017-07-28T08:49:01Z</time>
      </trkpt>
      <trkpt lat="45.9219" lon="4.75373">
        <ele>177</ele>
        <time>2017-07-28T08:49:02Z</time>
      </trkpt>
      <trkpt lat="45.92188" lon="4.75379">
        <ele>177</ele>
        <time>2017-07-28T08:49:03Z</time>
      </trkpt>
      <trkpt lat="45.92185" lon="4.75387">
        <ele>177</ele>
        <time>2017-07-28T08:49:04Z</time>
      </trkpt>
      <trkpt lat="45.92182" lon="4.75395">
        <ele>177</ele>
        <time>2017-07-28T08:49:05Z</time>
      </trkpt>
      <trkpt lat="45.92179" lon="4.75402">
        <ele>177</ele>
        <time>2017-07-28T08:49:06Z</time>
      </trkpt>
      <trkpt lat="45.92176" lon="4.7541">
        <ele>177</ele>
        <time>2017-07-28T08:49:07Z</time>
      </trkpt>
      <trkpt lat="45.92174" lon="4.75418">
        <ele>177</ele>
        <time>2017-07-28T08:49:08Z</time>
      </trkpt>
      <trkpt lat="45.92171" lon="4.75425">
        <ele>177</ele>
        <time>2017-07-28T08:49:09Z</time>
      </trkpt>
      <trkpt lat="45.9217" lon="4.75434">
        <ele>177</ele>
        <time>2017-07-28T08:49:10Z</time>
      </trkpt>
      <trkpt lat="45.92168" lon="4.75442">
        <ele>177</ele>
        <time>2017-07-28T08:49:11Z</time>
      </trkpt>
      <trkpt lat="45.92165" lon="4.75449">
        <ele>176</ele>
        <time>2017-07-28T08:49:12Z</time>
      </trkpt>
      <trkpt lat="45.92162" lon="4.75457">
        <ele>176</ele>
        <time>2017-07-28T08:49:13Z</time>
      </trkpt>
      <trkpt lat="45.9216" lon="4.75464">
        <ele>176</ele>
        <time>2017-07-28T08:49:14Z</time>
      </trkpt>
      <trkpt lat="45.92157" lon="4.75471">
        <ele>176</ele>
        <time>2017-07-28T08:49:15Z</time>
      </trkpt>
      <trkpt lat="45.9215" lon="4.75479">
        <ele>176</ele>
        <time>2017-07-28T08:49:16Z</time>
      </trkpt>
      <trkpt lat="45.92145" lon="4.75486">
        <ele>176</ele>
        <time>2017-07-28T08:49:17Z</time>
      </trkpt>
      <trkpt lat="45.92142" lon="4.75493">
        <ele>176</ele>
        <time>2017-07-28T08:49:18Z</time>
      </trkpt>
      <trkpt lat="45.92138" lon="4.75499">
        <ele>175</ele>
        <time>2017-07-28T08:49:19Z</time>
      </trkpt>
      <trkpt lat="45.92135" lon="4.75506">
        <ele>174</ele>
        <time>2017-07-28T08:49:20Z</time>
      </trkpt>
      <trkpt lat="45.92132" lon="4.75513">
        <ele>174</ele>
        <time>2017-07-28T08:49:21Z</time>
      </trkpt>
      <trkpt lat="45.92129" lon="4.75519">
        <ele>174</ele>
        <time>2017-07-28T08:49:22Z</time>
      </trkpt>
      <trkpt lat="45.92125" lon="4.75526">
        <ele>174</ele>
        <time>2017-07-28T08:49:23Z</time>
      </trkpt>
      <trkpt lat="45.92121" lon="4.75533">
        <ele>174</ele>
        <time>2017-07-28T08:49:24Z</time>
      </trkpt>
      <trkpt lat="45.92118" lon="4.7554">
        <ele>174</ele>
        <time>2017-07-28T08:49:25Z</time>
      </trkpt>
      <trkpt lat="45.92116" lon="4.75546">
        <ele>174</ele>
        <time>2017-07-28T08:49:26Z</time>
      </trkpt>
      <trkpt lat="45.92113" lon="4.75552">
        <ele>174</ele>
        <time>2017-07-28T08:49:27Z</time>
      </trkpt>
      <trkpt lat="45.9211" lon="4.75558">
        <ele>174</ele>
        <time>2017-07-28T08:49:28Z</time>
      </trkpt>
      <trkpt lat="45.92107" lon="4.75565">
        <ele>174</ele>
        <time>2017-07-28T08:49:29Z</time>
      </trkpt>
      <trkpt lat="45.92105" lon="4.75572">
        <ele>174</ele>
        <time>2017-07-28T08:49:30Z</time>
      </trkpt>
      <trkpt lat="45.92105" lon="4.7558">
        <ele>174</ele>
        <time>2017-07-28T08:49:31Z</time>
      </trkpt>
      <trkpt lat="45.92109" lon="4.75587">
        <ele>174</ele>
        <time>2017-07-28T08:49:32Z</time>
      </trkpt>
      <trkpt lat="45.92113" lon="4.75593">
        <ele>174</ele>
        <time>2017-07-28T08:49:33Z</time>
      </trkpt>
      <trkpt lat="45.92118" lon="4.75598">
        <ele>174</ele>
        <time>2017-07-28T08:49:34Z</time>
      </trkpt>
      <trkpt lat="45.92123" lon="4.75602">
        <ele>174</ele>
        <time>2017-07-28T08:49:35Z</time>
      </trkpt>
      <trkpt lat="45.92128" lon="4.75607">
        <ele>174</ele>
        <time>2017-07-28T08:49:36Z</time>
      </trkpt>
      <trkpt lat="45.92133" lon="4.75612">
        <ele>174</ele>
        <time>2017-07-28T08:49:37Z</time>
      </trkpt>
      <trkpt lat="45.92139" lon="4.75617">
        <ele>174</ele>
        <time>2017-07-28T08:49:38Z</time>
      </trkpt>
      <trkpt lat="45.92144" lon="4.75622">
        <ele>174</ele>
        <time>2017-07-28T08:49:39Z</time>
      </trkpt>
      <trkpt lat="45.92149" lon="4.75627">
        <ele>174</ele>
        <time>2017-07-28T08:49:40Z</time>
      </trkpt>
      <trkpt lat="45.92155" lon="4.75633">
        <ele>174</ele>
        <time>2017-07-28T08:49:41Z</time>
      </trkpt>
      <trkpt lat="45.92161" lon="4.75639">
        <ele>174</ele>
        <time>2017-07-28T08:49:42Z</time>
      </trkpt>
      <trkpt lat="45.92166" lon="4.75645">
        <ele>174</ele>
        <time>2017-07-28T08:49:43Z</time>
      </trkpt>
      <trkpt lat="45.92171" lon="4.7565">
        <ele>174</ele>
        <time>2017-07-28T08:49:44Z</time>
      </trkpt>
      <trkpt lat="45.92176" lon="4.75656">
        <ele>174</ele>
        <time>2017-07-28T08:49:45Z</time>
      </trkpt>
      <trkpt lat="45.92181" lon="4.75661">
        <ele>174</ele>
        <time>2017-07-28T08:49:46Z</time>
      </trkpt>
      <trkpt lat="45.92187" lon="4.75666">
        <ele>174</ele>
        <time>2017-07-28T08:49:47Z</time>
      </trkpt>
      <trkpt lat="45.92192" lon="4.75671">
        <ele>174</ele>
        <time>2017-07-28T08:49:48Z</time>
      </trkpt>
      <trkpt lat="45.92198" lon="4.75677">
        <ele>174</ele>
        <time>2017-07-28T08:49:49Z</time>
      </trkpt>
      <trkpt lat="45.92204" lon="4.75683">
        <ele>174</ele>
        <time>2017-07-28T08:49:50Z</time>
      </trkpt>
      <trkpt lat="45.9221" lon="4.75689">
        <ele>174</ele>
        <time>2017-07-28T08:49:51Z</time>
      </trkpt>
      <trkpt lat="45.92215" lon="4.75695">
        <ele>174</ele>
        <time>2017-07-28T08:49:52Z</time>
      </trkpt>
      <trkpt lat="45.9222" lon="4.757">
        <ele>174</ele>
        <time>2017-07-28T08:49:53Z</time>
      </trkpt>
      <trkpt lat="45.92224" lon="4.75706">
        <ele>174</ele>
        <time>2017-07-28T08:49:54Z</time>
      </trkpt>
      <trkpt lat="45.92229" lon="4.75712">
        <ele>174</ele>
        <time>2017-07-28T08:49:55Z</time>
      </trkpt>
      <trkpt lat="45.92232" lon="4.75718">
        <ele>174</ele>
        <time>2017-07-28T08:49:56Z</time>
      </trkpt>
      <trkpt lat="45.92235" lon="4.75724">
        <ele>174</ele>
        <time>2017-07-28T08:49:57Z</time>
      </trkpt>
      <trkpt lat="45.92238" lon="4.7573">
        <ele>174</ele>
        <time>2017-07-28T08:49:58Z</time>
      </trkpt>
      <trkpt lat="45.9224" lon="4.75737">
        <ele>174</ele>
        <time>2017-07-28T08:49:59Z</time>
      </trkpt>
      <trkpt lat="45.92242" lon="4.75744">
        <ele>174</ele>
        <time>2017-07-28T08:50:00Z</time>
      </trkpt>
      <trkpt lat="45.92244" lon="4.75751">
        <ele>174</ele>
        <time>2017-07-28T08:50:01Z</time>
      </trkpt>
      <trkpt lat="45.92246" lon="4.75759">
        <ele>174</ele>
        <time>2017-07-28T08:50:02Z</time>
      </trkpt>
      <trkpt lat="45.92248" lon="4.75766">
        <ele>174</ele>
        <time>2017-07-28T08:50:03Z</time>
      </trkpt>
      <trkpt lat="45.92249" lon="4.75774">
        <ele>174</ele>
        <time>2017-07-28T08:50:04Z</time>
      </trkpt>
      <trkpt lat="45.92251" lon="4.75781">
        <ele>174</ele>
        <time>2017-07-28T08:50:05Z</time>
      </trkpt>
      <trkpt lat="45.92252" lon="4.75789">
        <ele>174</ele>
        <time>2017-07-28T08:50:06Z</time>
      </trkpt>
      <trkpt lat="45.92254" lon="4.75797">
        <ele>174</ele>
        <time>2017-07-28T08:50:07Z</time>
      </trkpt>
      <trkpt lat="45.92256" lon="4.75805">
        <ele>174</ele>
        <time>2017-07-28T08:50:08Z</time>
      </trkpt>
      <trkpt lat="45.92259" lon="4.75812">
        <ele>174</ele>
        <time>2017-07-28T08:50:09Z</time>
      </trkpt>
      <trkpt lat="45.92262" lon="4.75819">
        <ele>174</ele>
        <time>2017-07-28T08:50:10Z</time>
      </trkpt>
      <trkpt lat="45.92266" lon="4.75825">
        <ele>174</ele>
        <time>2017-07-28T08:50:11Z</time>
      </trkpt>
      <trkpt lat="45.92271" lon="4.75831">
        <ele>174</ele>
        <time>2017-07-28T08:50:12Z</time>
      </trkpt>
      <trkpt lat="45.92276" lon="4.75836">
        <ele>173</ele>
        <time>2017-07-28T08:50:13Z</time>
      </trkpt>
      <trkpt lat="45.92281" lon="4.7584">
        <ele>173</ele>
        <time>2017-07-28T08:50:14Z</time>
      </trkpt>
      <trkpt lat="45.92287" lon="4.75843">
        <ele>173</ele>
        <time>2017-07-28T08:50:15Z</time>
      </trkpt>
      <trkpt lat="45.92292" lon="4.75846">
        <ele>173</ele>
        <time>2017-07-28T08:50:16Z</time>
      </trkpt>
      <trkpt lat="45.92298" lon="4.75849">
        <ele>173</ele>
        <time>2017-07-28T08:50:17Z</time>
      </trkpt>
      <trkpt lat="45.92303" lon="4.75852">
        <ele>173</ele>
        <time>2017-07-28T08:50:18Z</time>
      </trkpt>
      <trkpt lat="45.92308" lon="4.75855">
        <ele>173</ele>
        <time>2017-07-28T08:50:19Z</time>
      </trkpt>
      <trkpt lat="45.92314" lon="4.75859">
        <ele>173</ele>
        <time>2017-07-28T08:50:20Z</time>
      </trkpt>
      <trkpt lat="45.92319" lon="4.75862">
        <ele>173</ele>
        <time>2017-07-28T08:50:21Z</time>
      </trkpt>
      <trkpt lat="45.92324" lon="4.75865">
        <ele>173</ele>
        <time>2017-07-28T08:50:22Z</time>
      </trkpt>
      <trkpt lat="45.9233" lon="4.75868">
        <ele>173</ele>
        <time>2017-07-28T08:50:23Z</time>
      </trkpt>
      <trkpt lat="45.92335" lon="4.75871">
        <ele>173</ele>
        <time>2017-07-28T08:50:24Z</time>
      </trkpt>
      <trkpt lat="45.92341" lon="4.75875">
        <ele>173</ele>
        <time>2017-07-28T08:50:25Z</time>
      </trkpt>
      <trkpt lat="45.92346" lon="4.75878">
        <ele>173</ele>
        <time>2017-07-28T08:50:26Z</time>
      </trkpt>
      <trkpt lat="45.92352" lon="4.75882">
        <ele>173</ele>
        <time>2017-07-28T08:50:27Z</time>
      </trkpt>
      <trkpt lat="45.92358" lon="4.75886">
        <ele>173</ele>
        <time>2017-07-28T08:50:28Z</time>
      </trkpt>
      <trkpt lat="45.92364" lon="4.7589">
        <ele>173</ele>
        <time>2017-07-28T08:50:29Z</time>
      </trkpt>
      <trkpt lat="45.92369" lon="4.75894">
        <ele>173</ele>
        <time>2017-07-28T08:50:30Z</time>
      </trkpt>
      <trkpt lat="45.92375" lon="4.75898">
        <ele>173</ele>
        <time>2017-07-28T08:50:31Z</time>
      </trkpt>
      <trkpt lat="45.92381" lon="4.75902">
        <ele>173</ele>
        <time>2017-07-28T08:50:32Z</time>
      </trkpt>
      <trkpt lat="45.92387" lon="4.75907">
        <ele>173</ele>
        <time>2017-07-28T08:50:33Z</time>
      </trkpt>
      <trkpt lat="45.92393" lon="4.75911">
        <ele>173</ele>
        <time>2017-07-28T08:50:34Z</time>
      </trkpt>
      <trkpt lat="45.92399" lon="4.75915">
        <ele>172</ele>
        <time>2017-07-28T08:50:35Z</time>
      </trkpt>
      <trkpt lat="45.92405" lon="4.75919">
        <ele>172</ele>
        <time>2017-07-28T08:50:36Z</time>
      </trkpt>
      <trkpt lat="45.92411" lon="4.75923">
        <ele>172</ele>
        <time>2017-07-28T08:50:37Z</time>
      </trkpt>
      <trkpt lat="45.92417" lon="4.75927">
        <ele>172</ele>
        <time>2017-07-28T08:50:38Z</time>
      </trkpt>
      <trkpt lat="45.92423" lon="4.75932">
        <ele>172</ele>
        <time>2017-07-28T08:50:39Z</time>
      </trkpt>
      <trkpt lat="45.92428" lon="4.75936">
        <ele>172</ele>
        <time>2017-07-28T08:50:40Z</time>
      </trkpt>
      <trkpt lat="45.92433" lon="4.7594">
        <ele>172</ele>
        <time>2017-07-28T08:50:41Z</time>
      </trkpt>
      <trkpt lat="45.92438" lon="4.75943">
        <ele>172</ele>
        <time>2017-07-28T08:50:42Z</time>
      </trkpt>
      <trkpt lat="45.92443" lon="4.75948">
        <ele>172</ele>
        <time>2017-07-28T08:50:43Z</time>
      </trkpt>
      <trkpt lat="45.92447" lon="4.75952">
        <ele>172</ele>
        <time>2017-07-28T08:50:44Z</time>
      </trkpt>
      <trkpt lat="45.92451" lon="4.75955">
        <ele>172</ele>
        <time>2017-07-28T08:50:45Z</time>
      </trkpt>
      <trkpt lat="45.92455" lon="4.75958">
        <ele>172</ele>
        <time>2017-07-28T08:50:46Z</time>
      </trkpt>
      <trkpt lat="45.9246" lon="4.75962">
        <ele>172</ele>
        <time>2017-07-28T08:50:47Z</time>
      </trkpt>
      <trkpt lat="45.92464" lon="4.75965">
        <ele>172</ele>
        <time>2017-07-28T08:50:48Z</time>
      </trkpt>
      <trkpt lat="45.92468" lon="4.75969">
        <ele>172</ele>
        <time>2017-07-28T08:50:49Z</time>
      </trkpt>
      <trkpt lat="45.92472" lon="4.75972">
        <ele>172</ele>
        <time>2017-07-28T08:50:50Z</time>
      </trkpt>
      <trkpt lat="45.92476" lon="4.75976">
        <ele>172</ele>
        <time>2017-07-28T08:50:51Z</time>
      </trkpt>
      <trkpt lat="45.9248" lon="4.75979">
        <ele>172</ele>
        <time>2017-07-28T08:50:52Z</time>
      </trkpt>
      <trkpt lat="45.92485" lon="4.75983">
        <ele>172</ele>
        <time>2017-07-28T08:50:53Z</time>
      </trkpt>
      <trkpt lat="45.92489" lon="4.75986">
        <ele>172</ele>
        <time>2017-07-28T08:50:54Z</time>
      </trkpt>
      <trkpt lat="45.92493" lon="4.75989">
        <ele>172</ele>
        <time>2017-07-28T08:50:55Z</time>
      </trkpt>
      <trkpt lat="45.92497" lon="4.75992">
        <ele>172</ele>
        <time>2017-07-28T08:50:56Z</time>
      </trkpt>
      <trkpt lat="45.92504" lon="4.75997">
        <ele>172</ele>
        <time>2017-07-28T08:50:58Z</time>
      </trkpt>
      <trkpt lat="45.92507" lon="4.76">
        <ele>172</ele>
        <time>2017-07-28T08:50:59Z</time>
      </trkpt>
      <trkpt lat="45.92514" lon="4.76005">
        <ele>172</ele>
        <time>2017-07-28T08:51:01Z</time>
      </trkpt>
      <trkpt lat="45.92518" lon="4.76007">
        <ele>172</ele>
        <time>2017-07-28T08:51:02Z</time>
      </trkpt>
      <trkpt lat="45.92522" lon="4.7601">
        <ele>172</ele>
        <time>2017-07-28T08:51:03Z</time>
      </trkpt>
      <trkpt lat="45.92526" lon="4.76013">
        <ele>172</ele>
        <time>2017-07-28T08:51:04Z</time>
      </trkpt>
      <trkpt lat="45.92534" lon="4.76018">
        <ele>172</ele>
        <time>2017-07-28T08:51:06Z</time>
      </trkpt>
      <trkpt lat="45.92538" lon="4.76021">
        <ele>172</ele>
        <time>2017-07-28T08:51:07Z</time>
      </trkpt>
      <trkpt lat="45.92545" lon="4.76026">
        <ele>172</ele>
        <time>2017-07-28T08:51:09Z</time>
      </trkpt>
      <trkpt lat="45.92549" lon="4.76029">
        <ele>172</ele>
        <time>2017-07-28T08:51:10Z</time>
      </trkpt>
      <trkpt lat="45.92556" lon="4.76034">
        <ele>172</ele>
        <time>2017-07-28T08:51:12Z</time>
      </trkpt>
      <trkpt lat="45.9256" lon="4.76036">
        <ele>172</ele>
        <time>2017-07-28T08:51:13Z</time>
      </trkpt>
      <trkpt lat="45.92564" lon="4.76039">
        <ele>172</ele>
        <time>2017-07-28T08:51:14Z</time>
      </trkpt>
      <trkpt lat="45.92568" lon="4.76042">
        <ele>171</ele>
        <time>2017-07-28T08:51:15Z</time>
      </trkpt>
      <trkpt lat="45.92573" lon="4.76046">
        <ele>171</ele>
        <time>2017-07-28T08:51:16Z</time>
      </trkpt>
      <trkpt lat="45.92578" lon="4.7605">
        <ele>171</ele>
        <time>2017-07-28T08:51:17Z</time>
      </trkpt>
      <trkpt lat="45.92582" lon="4.76053">
        <ele>171</ele>
        <time>2017-07-28T08:51:18Z</time>
      </trkpt>
      <trkpt lat="45.92588" lon="4.76057">
        <ele>171</ele>
        <time>2017-07-28T08:51:19Z</time>
      </trkpt>
      <trkpt lat="45.92593" lon="4.76061">
        <ele>171</ele>
        <time>2017-07-28T08:51:20Z</time>
      </trkpt>
      <trkpt lat="45.92598" lon="4.76064">
        <ele>171</ele>
        <time>2017-07-28T08:51:21Z</time>
      </trkpt>
      <trkpt lat="45.92603" lon="4.76068">
        <ele>171</ele>
        <time>2017-07-28T08:51:22Z</time>
      </trkpt>
      <trkpt lat="45.92608" lon="4.76071">
        <ele>171</ele>
        <time>2017-07-28T08:51:23Z</time>
      </trkpt>
      <trkpt lat="45.92614" lon="4.76075">
        <ele>171</ele>
        <time>2017-07-28T08:51:24Z</time>
      </trkpt>
      <trkpt lat="45.92619" lon="4.76079">
        <ele>171</ele>
        <time>2017-07-28T08:51:25Z</time>
      </trkpt>
      <trkpt lat="45.92625" lon="4.76083">
        <ele>171</ele>
        <time>2017-07-28T08:51:26Z</time>
      </trkpt>
      <trkpt lat="45.92631" lon="4.76087">
        <ele>170</ele>
        <time>2017-07-28T08:51:27Z</time>
      </trkpt>
      <trkpt lat="45.92637" lon="4.76091">
        <ele>170</ele>
        <time>2017-07-28T08:51:28Z</time>
      </trkpt>
      <trkpt lat="45.92643" lon="4.76095">
        <ele>170</ele>
        <time>2017-07-28T08:51:29Z</time>
      </trkpt>
      <trkpt lat="45.92649" lon="4.76098">
        <ele>170</ele>
        <time>2017-07-28T08:51:30Z</time>
      </trkpt>
      <trkpt lat="45.92656" lon="4.76102">
        <ele>170</ele>
        <time>2017-07-28T08:51:31Z</time>
      </trkpt>
      <trkpt lat="45.92662" lon="4.76107">
        <ele>170</ele>
        <time>2017-07-28T08:51:32Z</time>
      </trkpt>
      <trkpt lat="45.92669" lon="4.76111">
        <ele>169</ele>
        <time>2017-07-28T08:51:33Z</time>
      </trkpt>
      <trkpt lat="45.92676" lon="4.76116">
        <ele>169</ele>
        <time>2017-07-28T08:51:34Z</time>
      </trkpt>
      <trkpt lat="45.92683" lon="4.7612">
        <ele>169</ele>
        <time>2017-07-28T08:51:35Z</time>
      </trkpt>
      <trkpt lat="45.9269" lon="4.76124">
        <ele>169</ele>
        <time>2017-07-28T08:51:36Z</time>
      </trkpt>
      <trkpt lat="45.92697" lon="4.76129">
        <ele>169</ele>
        <time>2017-07-28T08:51:37Z</time>
      </trkpt>
      <trkpt lat="45.92703" lon="4.76134">
        <ele>169</ele>
        <time>2017-07-28T08:51:38Z</time>
      </trkpt>
      <trkpt lat="45.9271" lon="4.76138">
        <ele>168</ele>
        <time>2017-07-28T08:51:39Z</time>
      </trkpt>
      <trkpt lat="45.92718" lon="4.76143">
        <ele>168</ele>
        <time>2017-07-28T08:51:40Z</time>
      </trkpt>
      <trkpt lat="45.92725" lon="4.76148">
        <ele>168</ele>
        <time>2017-07-28T08:51:41Z</time>
      </trkpt>
      <trkpt lat="45.92731" lon="4.76153">
        <ele>168</ele>
        <time>2017-07-28T08:51:42Z</time>
      </trkpt>
      <trkpt lat="45.92737" lon="4.76158">
        <ele>168</ele>
        <time>2017-07-28T08:51:43Z</time>
      </trkpt>
      <trkpt lat="45.92743" lon="4.76163">
        <ele>167</ele>
        <time>2017-07-28T08:51:44Z</time>
      </trkpt>
      <trkpt lat="45.92749" lon="4.76168">
        <ele>167</ele>
        <time>2017-07-28T08:51:45Z</time>
      </trkpt>
      <trkpt lat="45.92754" lon="4.76172">
        <ele>167</ele>
        <time>2017-07-28T08:51:46Z</time>
      </trkpt>
      <trkpt lat="45.9276" lon="4.76176">
        <ele>167</ele>
        <time>2017-07-28T08:51:47Z</time>
      </trkpt>
      <trkpt lat="45.92765" lon="4.76181">
        <ele>167</ele>
        <time>2017-07-28T08:51:48Z</time>
      </trkpt>
      <trkpt lat="45.92769" lon="4.76186">
        <ele>167</ele>
        <time>2017-07-28T08:51:49Z</time>
      </trkpt>
      <trkpt lat="45.92775" lon="4.7619">
        <ele>168</ele>
        <time>2017-07-28T08:51:50Z</time>
      </trkpt>
      <trkpt lat="45.9278" lon="4.76194">
        <ele>168</ele>
        <time>2017-07-28T08:51:51Z</time>
      </trkpt>
      <trkpt lat="45.92785" lon="4.76198">
        <ele>168</ele>
        <time>2017-07-28T08:51:52Z</time>
      </trkpt>
      <trkpt lat="45.92789" lon="4.76202">
        <ele>168</ele>
        <time>2017-07-28T08:51:53Z</time>
      </trkpt>
      <trkpt lat="45.92794" lon="4.76206">
        <ele>168</ele>
        <time>2017-07-28T08:51:54Z</time>
      </trkpt>
      <trkpt lat="45.92798" lon="4.7621">
        <ele>168</ele>
        <time>2017-07-28T08:51:55Z</time>
      </trkpt>
      <trkpt lat="45.92802" lon="4.76214">
        <ele>168</ele>
        <time>2017-07-28T08:51:56Z</time>
      </trkpt>
      <trkpt lat="45.92806" lon="4.76219">
        <ele>168</ele>
        <time>2017-07-28T08:51:57Z</time>
      </trkpt>
      <trkpt lat="45.92809" lon="4.76223">
        <ele>168</ele>
        <time>2017-07-28T08:51:58Z</time>
      </trkpt>
      <trkpt lat="45.92813" lon="4.76228">
        <ele>168</ele>
        <time>2017-07-28T08:51:59Z</time>
      </trkpt>
      <trkpt lat="45.92818" lon="4.76233">
        <ele>168</ele>
        <time>2017-07-28T08:52:00Z</time>
      </trkpt>
      <trkpt lat="45.92822" lon="4.76238">
        <ele>168</ele>
        <time>2017-07-28T08:52:01Z</time>
      </trkpt>
      <trkpt lat="45.92827" lon="4.76242">
        <ele>169</ele>
        <time>2017-07-28T08:52:02Z</time>
      </trkpt>
      <trkpt lat="45.92832" lon="4.76248">
        <ele>169</ele>
        <time>2017-07-28T08:52:03Z</time>
      </trkpt>
      <trkpt lat="45.92836" lon="4.76253">
        <ele>169</ele>
        <time>2017-07-28T08:52:04Z</time>
      </trkpt>
      <trkpt lat="45.92842" lon="4.76258">
        <ele>169</ele>
        <time>2017-07-28T08:52:05Z</time>
      </trkpt>
      <trkpt lat="45.92846" lon="4.76263">
        <ele>169</ele>
        <time>2017-07-28T08:52:06Z</time>
      </trkpt>
      <trkpt lat="45.92851" lon="4.76267">
        <ele>169</ele>
        <time>2017-07-28T08:52:07Z</time>
      </trkpt>
      <trkpt lat="45.92855" lon="4.76272">
        <ele>169</ele>
        <time>2017-07-28T08:52:08Z</time>
      </trkpt>
      <trkpt lat="45.9286" lon="4.76276">
        <ele>169</ele>
        <time>2017-07-28T08:52:09Z</time>
      </trkpt>
      <trkpt lat="45.92864" lon="4.76281">
        <ele>169</ele>
        <time>2017-07-28T08:52:10Z</time>
      </trkpt>
      <trkpt lat="45.92868" lon="4.76286">
        <ele>169</ele>
        <time>2017-07-28T08:52:11Z</time>
      </trkpt>
      <trkpt lat="45.92873" lon="4.76291">
        <ele>169</ele>
        <time>2017-07-28T08:52:12Z</time>
      </trkpt>
      <trkpt lat="45.92879" lon="4.76297">
        <ele>169</ele>
        <time>2017-07-28T08:52:13Z</time>
      </trkpt>
      <trkpt lat="45.92884" lon="4.76302">
        <ele>169</ele>
        <time>2017-07-28T08:52:14Z</time>
      </trkpt>
      <trkpt lat="45.92889" lon="4.76308">
        <ele>169</ele>
        <time>2017-07-28T08:52:15Z</time>
      </trkpt>
      <trkpt lat="45.92895" lon="4.76314">
        <ele>169</ele>
        <time>2017-07-28T08:52:16Z</time>
      </trkpt>
      <trkpt lat="45.929" lon="4.76319">
        <ele>169</ele>
        <time>2017-07-28T08:52:17Z</time>
      </trkpt>
      <trkpt lat="45.92905" lon="4.76324">
        <ele>169</ele>
        <time>2017-07-28T08:52:18Z</time>
      </trkpt>
      <trkpt lat="45.9291" lon="4.76329">
        <ele>169</ele>
        <time>2017-07-28T08:52:19Z</time>
      </trkpt>
      <trkpt lat="45.92914" lon="4.76334">
        <ele>169</ele>
        <time>2017-07-28T08:52:20Z</time>
      </trkpt>
      <trkpt lat="45.9292" lon="4.76338">
        <ele>169</ele>
        <time>2017-07-28T08:52:21Z</time>
      </trkpt>
      <trkpt lat="45.92925" lon="4.76343">
        <ele>169</ele>
        <time>2017-07-28T08:52:22Z</time>
      </trkpt>
      <trkpt lat="45.9293" lon="4.76347">
        <ele>169</ele>
        <time>2017-07-28T08:52:23Z</time>
      </trkpt>
      <trkpt lat="45.92934" lon="4.76351">
        <ele>169</ele>
        <time>2017-07-28T08:52:24Z</time>
      </trkpt>
      <trkpt lat="45.92939" lon="4.76356">
        <ele>169</ele>
        <time>2017-07-28T08:52:25Z</time>
      </trkpt>
      <trkpt lat="45.92944" lon="4.7636">
        <ele>169</ele>
        <time>2017-07-28T08:52:26Z</time>
      </trkpt>
      <trkpt lat="45.92949" lon="4.76365">
        <ele>169</ele>
        <time>2017-07-28T08:52:27Z</time>
      </trkpt>
      <trkpt lat="45.92954" lon="4.7637">
        <ele>169</ele>
        <time>2017-07-28T08:52:28Z</time>
      </trkpt>
      <trkpt lat="45.92959" lon="4.76375">
        <ele>169</ele>
        <time>2017-07-28T08:52:29Z</time>
      </trkpt>
      <trkpt lat="45.92964" lon="4.76379">
        <ele>169</ele>
        <time>2017-07-28T08:52:30Z</time>
      </trkpt>
      <trkpt lat="45.92969" lon="4.76384">
        <ele>169</ele>
        <time>2017-07-28T08:52:31Z</time>
      </trkpt>
      <trkpt lat="45.92974" lon="4.76389">
        <ele>169</ele>
        <time>2017-07-28T08:52:32Z</time>
      </trkpt>
      <trkpt lat="45.9298" lon="4.76394">
        <ele>169</ele>
        <time>2017-07-28T08:52:33Z</time>
      </trkpt>
      <trkpt lat="45.92985" lon="4.76399">
        <ele>169</ele>
        <time>2017-07-28T08:52:34Z</time>
      </trkpt>
      <trkpt lat="45.9299" lon="4.76404">
        <ele>169</ele>
        <time>2017-07-28T08:52:35Z</time>
      </trkpt>
      <trkpt lat="45.92996" lon="4.76409">
        <ele>169</ele>
        <time>2017-07-28T08:52:36Z</time>
      </trkpt>
      <trkpt lat="45.93" lon="4.76413">
        <ele>169</ele>
        <time>2017-07-28T08:52:37Z</time>
      </trkpt>
      <trkpt lat="45.93005" lon="4.76418">
        <ele>169</ele>
        <time>2017-07-28T08:52:38Z</time>
      </trkpt>
      <trkpt lat="45.9301" lon="4.76422">
        <ele>169</ele>
        <time>2017-07-28T08:52:39Z</time>
      </trkpt>
      <trkpt lat="45.93015" lon="4.76427">
        <ele>169</ele>
        <time>2017-07-28T08:52:40Z</time>
      </trkpt>
      <trkpt lat="45.9302" lon="4.76431">
        <ele>169</ele>
        <time>2017-07-28T08:52:41Z</time>
      </trkpt>
      <trkpt lat="45.93024" lon="4.76436">
        <ele>169</ele>
        <time>2017-07-28T08:52:42Z</time>
      </trkpt>
      <trkpt lat="45.93029" lon="4.7644">
        <ele>169</ele>
        <time>2017-07-28T08:52:43Z</time>
      </trkpt>
      <trkpt lat="45.93034" lon="4.76445">
        <ele>169</ele>
        <time>2017-07-28T08:52:44Z</time>
      </trkpt>
      <trkpt lat="45.93039" lon="4.76449">
        <ele>169</ele>
        <time>2017-07-28T08:52:45Z</time>
      </trkpt>
      <trkpt lat="45.93044" lon="4.76453">
        <ele>169</ele>
        <time>2017-07-28T08:52:46Z</time>
      </trkpt>
      <trkpt lat="45.93049" lon="4.76459">
        <ele>169</ele>
        <time>2017-07-28T08:52:47Z</time>
      </trkpt>
      <trkpt lat="45.93054" lon="4.76464">
        <ele>169</ele>
        <time>2017-07-28T08:52:48Z</time>
      </trkpt>
      <trkpt lat="45.93058" lon="4.7647">
        <ele>169</ele>
        <time>2017-07-28T08:52:49Z</time>
      </trkpt>
      <trkpt lat="45.93063" lon="4.76475">
        <ele>169</ele>
        <time>2017-07-28T08:52:50Z</time>
      </trkpt>
      <trkpt lat="45.93068" lon="4.7648">
        <ele>169</ele>
        <time>2017-07-28T08:52:51Z</time>
      </trkpt>
      <trkpt lat="45.93073" lon="4.76486">
        <ele>169</ele>
        <time>2017-07-28T08:52:52Z</time>
      </trkpt>
      <trkpt lat="45.93078" lon="4.76491">
        <ele>170</ele>
        <time>2017-07-28T08:52:53Z</time>
      </trkpt>
      <trkpt lat="45.93083" lon="4.76496">
        <ele>170</ele>
        <time>2017-07-28T08:52:54Z</time>
      </trkpt>
      <trkpt lat="45.93088" lon="4.76501">
        <ele>170</ele>
        <time>2017-07-28T08:52:55Z</time>
      </trkpt>
      <trkpt lat="45.93092" lon="4.76505">
        <ele>170</ele>
        <time>2017-07-28T08:52:56Z</time>
      </trkpt>
      <trkpt lat="45.93097" lon="4.7651">
        <ele>170</ele>
        <time>2017-07-28T08:52:57Z</time>
      </trkpt>
      <trkpt lat="45.93101" lon="4.76514">
        <ele>170</ele>
        <time>2017-07-28T08:52:58Z</time>
      </trkpt>
      <trkpt lat="45.93105" lon="4.76517">
        <ele>170</ele>
        <time>2017-07-28T08:52:59Z</time>
      </trkpt>
      <trkpt lat="45.93109" lon="4.76522">
        <ele>170</ele>
        <time>2017-07-28T08:53:00Z</time>
      </trkpt>
      <trkpt lat="45.93113" lon="4.76526">
        <ele>170</ele>
        <time>2017-07-28T08:53:01Z</time>
      </trkpt>
      <trkpt lat="45.93117" lon="4.7653">
        <ele>170</ele>
        <time>2017-07-28T08:53:02Z</time>
      </trkpt>
      <trkpt lat="45.93122" lon="4.76533">
        <ele>170</ele>
        <time>2017-07-28T08:53:03Z</time>
      </trkpt>
      <trkpt lat="45.93127" lon="4.76536">
        <ele>170</ele>
        <time>2017-07-28T08:53:04Z</time>
      </trkpt>
      <trkpt lat="45.93131" lon="4.76541">
        <ele>170</ele>
        <time>2017-07-28T08:53:05Z</time>
      </trkpt>
      <trkpt lat="45.93136" lon="4.76546">
        <ele>170</ele>
        <time>2017-07-28T08:53:06Z</time>
      </trkpt>
      <trkpt lat="45.93141" lon="4.76551">
        <ele>170</ele>
        <time>2017-07-28T08:53:07Z</time>
      </trkpt>
      <trkpt lat="45.93146" lon="4.76556">
        <ele>170</ele>
        <time>2017-07-28T08:53:08Z</time>
      </trkpt>
      <trkpt lat="45.9315" lon="4.76562">
        <ele>170</ele>
        <time>2017-07-28T08:53:09Z</time>
      </trkpt>
      <trkpt lat="45.93154" lon="4.76566">
        <ele>170</ele>
        <time>2017-07-28T08:53:10Z</time>
      </trkpt>
      <trkpt lat="45.93157" lon="4.76571">
        <ele>170</ele>
        <time>2017-07-28T08:53:11Z</time>
      </trkpt>
      <trkpt lat="45.93161" lon="4.76575">
        <ele>171</ele>
        <time>2017-07-28T08:53:12Z</time>
      </trkpt>
      <trkpt lat="45.93165" lon="4.76579">
        <ele>171</ele>
        <time>2017-07-28T08:53:13Z</time>
      </trkpt>
      <trkpt lat="45.93169" lon="4.76583">
        <ele>171</ele>
        <time>2017-07-28T08:53:14Z</time>
      </trkpt>
      <trkpt lat="45.93174" lon="4.76587">
        <ele>171</ele>
        <time>2017-07-28T08:53:15Z</time>
      </trkpt>
      <trkpt lat="45.93178" lon="4.76591">
        <ele>171</ele>
        <time>2017-07-28T08:53:16Z</time>
      </trkpt>
      <trkpt lat="45.93183" lon="4.76596">
        <ele>171</ele>
        <time>2017-07-28T08:53:17Z</time>
      </trkpt>
      <trkpt lat="45.93188" lon="4.76601">
        <ele>171</ele>
        <time>2017-07-28T08:53:18Z</time>
      </trkpt>
      <trkpt lat="45.93193" lon="4.76606">
        <ele>170</ele>
        <time>2017-07-28T08:53:19Z</time>
      </trkpt>
      <trkpt lat="45.93198" lon="4.76611">
        <ele>170</ele>
        <time>2017-07-28T08:53:20Z</time>
      </trkpt>
      <trkpt lat="45.93204" lon="4.76616">
        <ele>170</ele>
        <time>2017-07-28T08:53:21Z</time>
      </trkpt>
      <trkpt lat="45.93209" lon="4.7662">
        <ele>170</ele>
        <time>2017-07-28T08:53:22Z</time>
      </trkpt>
      <trkpt lat="45.93214" lon="4.76625">
        <ele>170</ele>
        <time>2017-07-28T08:53:23Z</time>
      </trkpt>
      <trkpt lat="45.93219" lon="4.7663">
        <ele>170</ele>
        <time>2017-07-28T08:53:24Z</time>
      </trkpt>
      <trkpt lat="45.93225" lon="4.76635">
        <ele>171</ele>
        <time>2017-07-28T08:53:25Z</time>
      </trkpt>
      <trkpt lat="45.9323" lon="4.76641">
        <ele>171</ele>
        <time>2017-07-28T08:53:26Z</time>
      </trkpt>
      <trkpt lat="45.93234" lon="4.76647">
        <ele>171</ele>
        <time>2017-07-28T08:53:27Z</time>
      </trkpt>
      <trkpt lat="45.93239" lon="4.76652">
        <ele>171</ele>
        <time>2017-07-28T08:53:28Z</time>
      </trkpt>
      <trkpt lat="45.93245" lon="4.76656">
        <ele>171</ele>
        <time>2017-07-28T08:53:29Z</time>
      </trkpt>
      <trkpt lat="45.9325" lon="4.7666">
        <ele>172</ele>
        <time>2017-07-28T08:53:30Z</time>
      </trkpt>
      <trkpt lat="45.93255" lon="4.76665">
        <ele>172</ele>
        <time>2017-07-28T08:53:31Z</time>
      </trkpt>
      <trkpt lat="45.93259" lon="4.7667">
        <ele>172</ele>
        <time>2017-07-28T08:53:32Z</time>
      </trkpt>
      <trkpt lat="45.93264" lon="4.76675">
        <ele>172</ele>
        <time>2017-07-28T08:53:33Z</time>
      </trkpt>
      <trkpt lat="45.93269" lon="4.76679">
        <ele>172</ele>
        <time>2017-07-28T08:53:34Z</time>
      </trkpt>
      <trkpt lat="45.93273" lon="4.76684">
        <ele>172</ele>
        <time>2017-07-28T08:53:35Z</time>
      </trkpt>
      <trkpt lat="45.93278" lon="4.76689">
        <ele>172</ele>
        <time>2017-07-28T08:53:36Z</time>
      </trkpt>
      <trkpt lat="45.93283" lon="4.76694">
        <ele>172</ele>
        <time>2017-07-28T08:53:37Z</time>
      </trkpt>
      <trkpt lat="45.93288" lon="4.76698">
        <ele>172</ele>
        <time>2017-07-28T08:53:38Z</time>
      </trkpt>
      <trkpt lat="45.93293" lon="4.76703">
        <ele>172</ele>
        <time>2017-07-28T08:53:39Z</time>
      </trkpt>
      <trkpt lat="45.93298" lon="4.76708">
        <ele>172</ele>
        <time>2017-07-28T08:53:40Z</time>
      </trkpt>
      <trkpt lat="45.93303" lon="4.76713">
        <ele>172</ele>
        <time>2017-07-28T08:53:41Z</time>
      </trkpt>
      <trkpt lat="45.93308" lon="4.76717">
        <ele>172</ele>
        <time>2017-07-28T08:53:42Z</time>
      </trkpt>
      <trkpt lat="45.93312" lon="4.76722">
        <ele>172</ele>
        <time>2017-07-28T08:53:43Z</time>
      </trkpt>
      <trkpt lat="45.93316" lon="4.76726">
        <ele>172</ele>
        <time>2017-07-28T08:53:44Z</time>
      </trkpt>
      <trkpt lat="45.93321" lon="4.7673">
        <ele>172</ele>
        <time>2017-07-28T08:53:45Z</time>
      </trkpt>
      <trkpt lat="45.93325" lon="4.76734">
        <ele>172</ele>
        <time>2017-07-28T08:53:46Z</time>
      </trkpt>
      <trkpt lat="45.93329" lon="4.76738">
        <ele>172</ele>
        <time>2017-07-28T08:53:47Z</time>
      </trkpt>
      <trkpt lat="45.93333" lon="4.76742">
        <ele>173</ele>
        <time>2017-07-28T08:53:48Z</time>
      </trkpt>
      <trkpt lat="45.93339" lon="4.76746">
        <ele>173</ele>
        <time>2017-07-28T08:53:49Z</time>
      </trkpt>
      <trkpt lat="45.93344" lon="4.76751">
        <ele>173</ele>
        <time>2017-07-28T08:53:50Z</time>
      </trkpt>
      <trkpt lat="45.93349" lon="4.76756">
        <ele>172</ele>
        <time>2017-07-28T08:53:51Z</time>
      </trkpt>
      <trkpt lat="45.93354" lon="4.76761">
        <ele>172</ele>
        <time>2017-07-28T08:53:52Z</time>
      </trkpt>
      <trkpt lat="45.93359" lon="4.76766">
        <ele>172</ele>
        <time>2017-07-28T08:53:53Z</time>
      </trkpt>
      <trkpt lat="45.93364" lon="4.76772">
        <ele>172</ele>
        <time>2017-07-28T08:53:54Z</time>
      </trkpt>
      <trkpt lat="45.93369" lon="4.76777">
        <ele>172</ele>
        <time>2017-07-28T08:53:55Z</time>
      </trkpt>
      <trkpt lat="45.93374" lon="4.76782">
        <ele>172</ele>
        <time>2017-07-28T08:53:56Z</time>
      </trkpt>
      <trkpt lat="45.93379" lon="4.76787">
        <ele>172</ele>
        <time>2017-07-28T08:53:57Z</time>
      </trkpt>
      <trkpt lat="45.93384" lon="4.76792">
        <ele>172</ele>
        <time>2017-07-28T08:53:58Z</time>
      </trkpt>
      <trkpt lat="45.93388" lon="4.76798">
        <ele>172</ele>
        <time>2017-07-28T08:53:59Z</time>
      </trkpt>
      <trkpt lat="45.93393" lon="4.76803">
        <ele>172</ele>
        <time>2017-07-28T08:54:00Z</time>
      </trkpt>
      <trkpt lat="45.93397" lon="4.76809">
        <ele>172</ele>
        <time>2017-07-28T08:54:01Z</time>
      </trkpt>
      <trkpt lat="45.93401" lon="4.76816">
        <ele>172</ele>
        <time>2017-07-28T08:54:02Z</time>
      </trkpt>
      <trkpt lat="45.93405" lon="4.76822">
        <ele>172</ele>
        <time>2017-07-28T08:54:03Z</time>
      </trkpt>
      <trkpt lat="45.93409" lon="4.76828">
        <ele>172</ele>
        <time>2017-07-28T08:54:04Z</time>
      </trkpt>
      <trkpt lat="45.93412" lon="4.76834">
        <ele>172</ele>
        <time>2017-07-28T08:54:05Z</time>
      </trkpt>
      <trkpt lat="45.93415" lon="4.7684">
        <ele>172</ele>
        <time>2017-07-28T08:54:06Z</time>
      </trkpt>
      <trkpt lat="45.93418" lon="4.76846">
        <ele>171</ele>
        <time>2017-07-28T08:54:07Z</time>
      </trkpt>
      <trkpt lat="45.93421" lon="4.76853">
        <ele>171</ele>
        <time>2017-07-28T08:54:08Z</time>
      </trkpt>
      <trkpt lat="45.93424" lon="4.76859">
        <ele>171</ele>
        <time>2017-07-28T08:54:09Z</time>
      </trkpt>
      <trkpt lat="45.93427" lon="4.76866">
        <ele>171</ele>
        <time>2017-07-28T08:54:10Z</time>
      </trkpt>
      <trkpt lat="45.9343" lon="4.76873">
        <ele>171</ele>
        <time>2017-07-28T08:54:11Z</time>
      </trkpt>
      <trkpt lat="45.93433" lon="4.7688">
        <ele>171</ele>
        <time>2017-07-28T08:54:12Z</time>
      </trkpt>
      <trkpt lat="45.93435" lon="4.76888">
        <ele>171</ele>
        <time>2017-07-28T08:54:13Z</time>
      </trkpt>
      <trkpt lat="45.93438" lon="4.76895">
        <ele>170</ele>
        <time>2017-07-28T08:54:14Z</time>
      </trkpt>
      <trkpt lat="45.9344" lon="4.76903">
        <ele>170</ele>
        <time>2017-07-28T08:54:15Z</time>
      </trkpt>
      <trkpt lat="45.93442" lon="4.76912">
        <ele>170</ele>
        <time>2017-07-28T08:54:16Z</time>
      </trkpt>
      <trkpt lat="45.93444" lon="4.7692">
        <ele>170</ele>
        <time>2017-07-28T08:54:17Z</time>
      </trkpt>
      <trkpt lat="45.93445" lon="4.76928">
        <ele>170</ele>
        <time>2017-07-28T08:54:18Z</time>
      </trkpt>
      <trkpt lat="45.93446" lon="4.76935">
        <ele>170</ele>
        <time>2017-07-28T08:54:19Z</time>
      </trkpt>
      <trkpt lat="45.93447" lon="4.76943">
        <ele>170</ele>
        <time>2017-07-28T08:54:20Z</time>
      </trkpt>
      <trkpt lat="45.93448" lon="4.7695">
        <ele>170</ele>
        <time>2017-07-28T08:54:21Z</time>
      </trkpt>
      <trkpt lat="45.93449" lon="4.76957">
        <ele>170</ele>
        <time>2017-07-28T08:54:22Z</time>
      </trkpt>
      <trkpt lat="45.9345" lon="4.76965">
        <ele>170</ele>
        <time>2017-07-28T08:54:23Z</time>
      </trkpt>
      <trkpt lat="45.93451" lon="4.76973">
        <ele>170</ele>
        <time>2017-07-28T08:54:24Z</time>
      </trkpt>
      <trkpt lat="45.93452" lon="4.7698">
        <ele>170</ele>
        <time>2017-07-28T08:54:25Z</time>
      </trkpt>
      <trkpt lat="45.93454" lon="4.76988">
        <ele>170</ele>
        <time>2017-07-28T08:54:26Z</time>
      </trkpt>
      <trkpt lat="45.93454" lon="4.76996">
        <ele>170</ele>
        <time>2017-07-28T08:54:27Z</time>
      </trkpt>
      <trkpt lat="45.93455" lon="4.77004">
        <ele>170</ele>
        <time>2017-07-28T08:54:28Z</time>
      </trkpt>
      <trkpt lat="45.93457" lon="4.77012">
        <ele>170</ele>
        <time>2017-07-28T08:54:29Z</time>
      </trkpt>
      <trkpt lat="45.93459" lon="4.77021">
        <ele>170</ele>
        <time>2017-07-28T08:54:30Z</time>
      </trkpt>
      <trkpt lat="45.9346" lon="4.77029">
        <ele>170</ele>
        <time>2017-07-28T08:54:31Z</time>
      </trkpt>
      <trkpt lat="45.93462" lon="4.77037">
        <ele>170</ele>
        <time>2017-07-28T08:54:32Z</time>
      </trkpt>
      <trkpt lat="45.93463" lon="4.77046">
        <ele>170</ele>
        <time>2017-07-28T08:54:33Z</time>
      </trkpt>
      <trkpt lat="45.93465" lon="4.77053">
        <ele>170</ele>
        <time>2017-07-28T08:54:34Z</time>
      </trkpt>
      <trkpt lat="45.93466" lon="4.77061">
        <ele>170</ele>
        <time>2017-07-28T08:54:35Z</time>
      </trkpt>
      <trkpt lat="45.93467" lon="4.77068">
        <ele>170</ele>
        <time>2017-07-28T08:54:36Z</time>
      </trkpt>
      <trkpt lat="45.93468" lon="4.77075">
        <ele>170</ele>
        <time>2017-07-28T08:54:37Z</time>
      </trkpt>
      <trkpt lat="45.93469" lon="4.77082">
        <ele>170</ele>
        <time>2017-07-28T08:54:38Z</time>
      </trkpt>
      <trkpt lat="45.93471" lon="4.77089">
        <ele>169</ele>
        <time>2017-07-28T08:54:39Z</time>
      </trkpt>
      <trkpt lat="45.93472" lon="4.77097">
        <ele>169</ele>
        <time>2017-07-28T08:54:40Z</time>
      </trkpt>
      <trkpt lat="45.93473" lon="4.77104">
        <ele>169</ele>
        <time>2017-07-28T08:54:41Z</time>
      </trkpt>
      <trkpt lat="45.93475" lon="4.77112">
        <ele>169</ele>
        <time>2017-07-28T08:54:42Z</time>
      </trkpt>
      <trkpt lat="45.93476" lon="4.77121">
        <ele>169</ele>
        <time>2017-07-28T08:54:43Z</time>
      </trkpt>
      <trkpt lat="45.93478" lon="4.77129">
        <ele>169</ele>
        <time>2017-07-28T08:54:44Z</time>
      </trkpt>
      <trkpt lat="45.93479" lon="4.77137">
        <ele>169</ele>
        <time>2017-07-28T08:54:45Z</time>
      </trkpt>
      <trkpt lat="45.93481" lon="4.77145">
        <ele>169</ele>
        <time>2017-07-28T08:54:46Z</time>
      </trkpt>
      <trkpt lat="45.93482" lon="4.77153">
        <ele>169</ele>
        <time>2017-07-28T08:54:47Z</time>
      </trkpt>
      <trkpt lat="45.93484" lon="4.77161">
        <ele>169</ele>
        <time>2017-07-28T08:54:48Z</time>
      </trkpt>
      <trkpt lat="45.93486" lon="4.77168">
        <ele>169</ele>
        <time>2017-07-28T08:54:49Z</time>
      </trkpt>
      <trkpt lat="45.93487" lon="4.77175">
        <ele>169</ele>
        <time>2017-07-28T08:54:50Z</time>
      </trkpt>
      <trkpt lat="45.93488" lon="4.77182">
        <ele>169</ele>
        <time>2017-07-28T08:54:51Z</time>
      </trkpt>
      <trkpt lat="45.9349" lon="4.77189">
        <ele>169</ele>
        <time>2017-07-28T08:54:52Z</time>
      </trkpt>
      <trkpt lat="45.93491" lon="4.77195">
        <ele>169</ele>
        <time>2017-07-28T08:54:53Z</time>
      </trkpt>
      <trkpt lat="45.93493" lon="4.77202">
        <ele>169</ele>
        <time>2017-07-28T08:54:54Z</time>
      </trkpt>
      <trkpt lat="45.93495" lon="4.77209">
        <ele>169</ele>
        <time>2017-07-28T08:54:55Z</time>
      </trkpt>
      <trkpt lat="45.93496" lon="4.77216">
        <ele>169</ele>
        <time>2017-07-28T08:54:56Z</time>
      </trkpt>
      <trkpt lat="45.93498" lon="4.77223">
        <ele>169</ele>
        <time>2017-07-28T08:54:57Z</time>
      </trkpt>
      <trkpt lat="45.935" lon="4.7723">
        <ele>170</ele>
        <time>2017-07-28T08:54:58Z</time>
      </trkpt>
      <trkpt lat="45.93501" lon="4.77238">
        <ele>169</ele>
        <time>2017-07-28T08:54:59Z</time>
      </trkpt>
      <trkpt lat="45.93503" lon="4.77246">
        <ele>170</ele>
        <time>2017-07-28T08:55:00Z</time>
      </trkpt>
      <trkpt lat="45.93505" lon="4.77254">
        <ele>170</ele>
        <time>2017-07-28T08:55:01Z</time>
      </trkpt>
      <trkpt lat="45.93507" lon="4.77261">
        <ele>170</ele>
        <time>2017-07-28T08:55:02Z</time>
      </trkpt>
      <trkpt lat="45.93509" lon="4.77268">
        <ele>170</ele>
        <time>2017-07-28T08:55:03Z</time>
      </trkpt>
      <trkpt lat="45.93511" lon="4.77276">
        <ele>170</ele>
        <time>2017-07-28T08:55:04Z</time>
      </trkpt>
      <trkpt lat="45.93512" lon="4.77282">
        <ele>170</ele>
        <time>2017-07-28T08:55:05Z</time>
      </trkpt>
      <trkpt lat="45.93514" lon="4.77289">
        <ele>170</ele>
        <time>2017-07-28T08:55:06Z</time>
      </trkpt>
      <trkpt lat="45.93516" lon="4.77295">
        <ele>170</ele>
        <time>2017-07-28T08:55:07Z</time>
      </trkpt>
      <trkpt lat="45.93518" lon="4.77302">
        <ele>170</ele>
        <time>2017-07-28T08:55:08Z</time>
      </trkpt>
      <trkpt lat="45.9352" lon="4.77309">
        <ele>170</ele>
        <time>2017-07-28T08:55:09Z</time>
      </trkpt>
      <trkpt lat="45.93522" lon="4.77316">
        <ele>170</ele>
        <time>2017-07-28T08:55:10Z</time>
      </trkpt>
      <trkpt lat="45.93523" lon="4.77324">
        <ele>170</ele>
        <time>2017-07-28T08:55:11Z</time>
      </trkpt>
      <trkpt lat="45.93525" lon="4.77331">
        <ele>170</ele>
        <time>2017-07-28T08:55:12Z</time>
      </trkpt>
      <trkpt lat="45.93526" lon="4.77339">
        <ele>170</ele>
        <time>2017-07-28T08:55:13Z</time>
      </trkpt>
      <trkpt lat="45.93528" lon="4.77348">
        <ele>170</ele>
        <time>2017-07-28T08:55:14Z</time>
      </trkpt>
      <trkpt lat="45.9353" lon="4.77356">
        <ele>170</ele>
        <time>2017-07-28T08:55:15Z</time>
      </trkpt>
      <trkpt lat="45.93532" lon="4.77364">
        <ele>170</ele>
        <time>2017-07-28T08:55:16Z</time>
      </trkpt>
      <trkpt lat="45.93533" lon="4.77372">
        <ele>170</ele>
        <time>2017-07-28T08:55:17Z</time>
      </trkpt>
      <trkpt lat="45.93535" lon="4.77379">
        <ele>170</ele>
        <time>2017-07-28T08:55:18Z</time>
      </trkpt>
      <trkpt lat="45.93536" lon="4.77386">
        <ele>170</ele>
        <time>2017-07-28T08:55:19Z</time>
      </trkpt>
      <trkpt lat="45.93537" lon="4.77393">
        <ele>170</ele>
        <time>2017-07-28T08:55:20Z</time>
      </trkpt>
      <trkpt lat="45.93539" lon="4.77401">
        <ele>170</ele>
        <time>2017-07-28T08:55:21Z</time>
      </trkpt>
      <trkpt lat="45.93541" lon="4.77408">
        <ele>170</ele>
        <time>2017-07-28T08:55:22Z</time>
      </trkpt>
      <trkpt lat="45.93543" lon="4.77416">
        <ele>170</ele>
        <time>2017-07-28T08:55:23Z</time>
      </trkpt>
      <trkpt lat="45.93544" lon="4.77423">
        <ele>170</ele>
        <time>2017-07-28T08:55:24Z</time>
      </trkpt>
      <trkpt lat="45.93546" lon="4.77431">
        <ele>169</ele>
        <time>2017-07-28T08:55:25Z</time>
      </trkpt>
      <trkpt lat="45.93548" lon="4.77438">
        <ele>169</ele>
        <time>2017-07-28T08:55:26Z</time>
      </trkpt>
      <trkpt lat="45.9355" lon="4.77446">
        <ele>169</ele>
        <time>2017-07-28T08:55:27Z</time>
      </trkpt>
      <trkpt lat="45.93552" lon="4.77455">
        <ele>169</ele>
        <time>2017-07-28T08:55:28Z</time>
      </trkpt>
      <trkpt lat="45.93554" lon="4.77463">
        <ele>169</ele>
        <time>2017-07-28T08:55:29Z</time>
      </trkpt>
      <trkpt lat="45.93555" lon="4.77472">
        <ele>169</ele>
        <time>2017-07-28T08:55:30Z</time>
      </trkpt>
      <trkpt lat="45.93557" lon="4.7748">
        <ele>169</ele>
        <time>2017-07-28T08:55:31Z</time>
      </trkpt>
      <trkpt lat="45.93559" lon="4.77488">
        <ele>169</ele>
        <time>2017-07-28T08:55:32Z</time>
      </trkpt>
      <trkpt lat="45.93561" lon="4.77496">
        <ele>169</ele>
        <time>2017-07-28T08:55:33Z</time>
      </trkpt>
      <trkpt lat="45.93563" lon="4.77504">
        <ele>169</ele>
        <time>2017-07-28T08:55:34Z</time>
      </trkpt>
      <trkpt lat="45.93564" lon="4.77512">
        <ele>169</ele>
        <time>2017-07-28T08:55:35Z</time>
      </trkpt>
      <trkpt lat="45.93565" lon="4.77519">
        <ele>169</ele>
        <time>2017-07-28T08:55:36Z</time>
      </trkpt>
      <trkpt lat="45.93566" lon="4.77527">
        <ele>169</ele>
        <time>2017-07-28T08:55:37Z</time>
      </trkpt>
      <trkpt lat="45.93567" lon="4.77534">
        <ele>169</ele>
        <time>2017-07-28T08:55:38Z</time>
      </trkpt>
      <trkpt lat="45.93569" lon="4.77541">
        <ele>169</ele>
        <time>2017-07-28T08:55:39Z</time>
      </trkpt>
      <trkpt lat="45.93571" lon="4.77547">
        <ele>169</ele>
        <time>2017-07-28T08:55:40Z</time>
      </trkpt>
      <trkpt lat="45.93573" lon="4.77554">
        <ele>169</ele>
        <time>2017-07-28T08:55:41Z</time>
      </trkpt>
      <trkpt lat="45.93575" lon="4.77561">
        <ele>169</ele>
        <time>2017-07-28T08:55:42Z</time>
      </trkpt>
      <trkpt lat="45.93577" lon="4.77568">
        <ele>170</ele>
        <time>2017-07-28T08:55:43Z</time>
      </trkpt>
      <trkpt lat="45.93579" lon="4.77575">
        <ele>170</ele>
        <time>2017-07-28T08:55:44Z</time>
      </trkpt>
      <trkpt lat="45.93581" lon="4.77582">
        <ele>170</ele>
        <time>2017-07-28T08:55:45Z</time>
      </trkpt>
      <trkpt lat="45.93584" lon="4.7759">
        <ele>170</ele>
        <time>2017-07-28T08:55:46Z</time>
      </trkpt>
      <trkpt lat="45.93586" lon="4.77597">
        <ele>170</ele>
        <time>2017-07-28T08:55:47Z</time>
      </trkpt>
      <trkpt lat="45.93589" lon="4.77605">
        <ele>170</ele>
        <time>2017-07-28T08:55:48Z</time>
      </trkpt>
      <trkpt lat="45.93591" lon="4.77612">
        <ele>170</ele>
        <time>2017-07-28T08:55:49Z</time>
      </trkpt>
      <trkpt lat="45.93594" lon="4.7762">
        <ele>170</ele>
        <time>2017-07-28T08:55:50Z</time>
      </trkpt>
      <trkpt lat="45.93597" lon="4.77628">
        <ele>169</ele>
        <time>2017-07-28T08:55:51Z</time>
      </trkpt>
      <trkpt lat="45.936" lon="4.77636">
        <ele>169</ele>
        <time>2017-07-28T08:55:52Z</time>
      </trkpt>
      <trkpt lat="45.93603" lon="4.77644">
        <ele>169</ele>
        <time>2017-07-28T08:55:53Z</time>
      </trkpt>
      <trkpt lat="45.93606" lon="4.7765">
        <ele>169</ele>
        <time>2017-07-28T08:55:54Z</time>
      </trkpt>
      <trkpt lat="45.93608" lon="4.77657">
        <ele>169</ele>
        <time>2017-07-28T08:55:55Z</time>
      </trkpt>
      <trkpt lat="45.93611" lon="4.77662">
        <ele>169</ele>
        <time>2017-07-28T08:55:56Z</time>
      </trkpt>
      <trkpt lat="45.93613" lon="4.77668">
        <ele>169</ele>
        <time>2017-07-28T08:55:57Z</time>
      </trkpt>
      <trkpt lat="45.93616" lon="4.77674">
        <ele>169</ele>
        <time>2017-07-28T08:55:58Z</time>
      </trkpt>
      <trkpt lat="45.93619" lon="4.77679">
        <ele>169</ele>
        <time>2017-07-28T08:55:59Z</time>
      </trkpt>
      <trkpt lat="45.93621" lon="4.77685">
        <ele>169</ele>
        <time>2017-07-28T08:56:00Z</time>
      </trkpt>
      <trkpt lat="45.93624" lon="4.7769">
        <ele>169</ele>
        <time>2017-07-28T08:56:01Z</time>
      </trkpt>
      <trkpt lat="45.93627" lon="4.77696">
        <ele>169</ele>
        <time>2017-07-28T08:56:02Z</time>
      </trkpt>
      <trkpt lat="45.9363" lon="4.77702">
        <ele>169</ele>
        <time>2017-07-28T08:56:03Z</time>
      </trkpt>
      <trkpt lat="45.93633" lon="4.77707">
        <ele>170</ele>
        <time>2017-07-28T08:56:04Z</time>
      </trkpt>
      <trkpt lat="45.93636" lon="4.77712">
        <ele>170</ele>
        <time>2017-07-28T08:56:05Z</time>
      </trkpt>
      <trkpt lat="45.93639" lon="4.77718">
        <ele>170</ele>
        <time>2017-07-28T08:56:06Z</time>
      </trkpt>
      <trkpt lat="45.93642" lon="4.77723">
        <ele>170</ele>
        <time>2017-07-28T08:56:07Z</time>
      </trkpt>
      <trkpt lat="45.93644" lon="4.77728">
        <ele>170</ele>
        <time>2017-07-28T08:56:08Z</time>
      </trkpt>
      <trkpt lat="45.93647" lon="4.77733">
        <ele>170</ele>
        <time>2017-07-28T08:56:09Z</time>
      </trkpt>
      <trkpt lat="45.93653" lon="4.77742">
        <ele>170</ele>
        <time>2017-07-28T08:56:11Z</time>
      </trkpt>
      <trkpt lat="45.93656" lon="4.77746">
        <ele>170</ele>
        <time>2017-07-28T08:56:12Z</time>
      </trkpt>
      <trkpt lat="45.93661" lon="4.77755">
        <ele>171</ele>
        <time>2017-07-28T08:56:14Z</time>
      </trkpt>
      <trkpt lat="45.93664" lon="4.77759">
        <ele>171</ele>
        <time>2017-07-28T08:56:15Z</time>
      </trkpt>
      <trkpt lat="45.9367" lon="4.77767">
        <ele>170</ele>
        <time>2017-07-28T08:56:17Z</time>
      </trkpt>
      <trkpt lat="45.93673" lon="4.77771">
        <ele>170</ele>
        <time>2017-07-28T08:56:18Z</time>
      </trkpt>
      <trkpt lat="45.93678" lon="4.7778">
        <ele>170</ele>
        <time>2017-07-28T08:56:20Z</time>
      </trkpt>
      <trkpt lat="45.9368" lon="4.77784">
        <ele>170</ele>
        <time>2017-07-28T08:56:21Z</time>
      </trkpt>
      <trkpt lat="45.93686" lon="4.77792">
        <ele>170</ele>
        <time>2017-07-28T08:56:23Z</time>
      </trkpt>
      <trkpt lat="45.93689" lon="4.77796">
        <ele>169</ele>
        <time>2017-07-28T08:56:24Z</time>
      </trkpt>
      <trkpt lat="45.93695" lon="4.77804">
        <ele>169</ele>
        <time>2017-07-28T08:56:26Z</time>
      </trkpt>
      <trkpt lat="45.93698" lon="4.77808">
        <ele>169</ele>
        <time>2017-07-28T08:56:27Z</time>
      </trkpt>
      <trkpt lat="45.93704" lon="4.77816">
        <ele>169</ele>
        <time>2017-07-28T08:56:29Z</time>
      </trkpt>
      <trkpt lat="45.93707" lon="4.7782">
        <ele>169</ele>
        <time>2017-07-28T08:56:30Z</time>
      </trkpt>
      <trkpt lat="45.93713" lon="4.77828">
        <ele>169</ele>
        <time>2017-07-28T08:56:32Z</time>
      </trkpt>
      <trkpt lat="45.93716" lon="4.77832">
        <ele>169</ele>
        <time>2017-07-28T08:56:33Z</time>
      </trkpt>
      <trkpt lat="45.93722" lon="4.7784">
        <ele>167</ele>
        <time>2017-07-28T08:56:35Z</time>
      </trkpt>
      <trkpt lat="45.93725" lon="4.77843">
        <ele>167</ele>
        <time>2017-07-28T08:56:36Z</time>
      </trkpt>
      <trkpt lat="45.9373" lon="4.77851">
        <ele>167</ele>
        <time>2017-07-28T08:56:38Z</time>
      </trkpt>
      <trkpt lat="45.93733" lon="4.77854">
        <ele>167</ele>
        <time>2017-07-28T08:56:39Z</time>
      </trkpt>
      <trkpt lat="45.93739" lon="4.77862">
        <ele>167</ele>
        <time>2017-07-28T08:56:41Z</time>
      </trkpt>
      <trkpt lat="45.93742" lon="4.77866">
        <ele>167</ele>
        <time>2017-07-28T08:56:42Z</time>
      </trkpt>
      <trkpt lat="45.93748" lon="4.77873">
        <ele>167</ele>
        <time>2017-07-28T08:56:44Z</time>
      </trkpt>
      <trkpt lat="45.93751" lon="4.77877">
        <ele>166</ele>
        <time>2017-07-28T08:56:45Z</time>
      </trkpt>
      <trkpt lat="45.93756" lon="4.77884">
        <ele>166</ele>
        <time>2017-07-28T08:56:47Z</time>
      </trkpt>
      <trkpt lat="45.93758" lon="4.77887">
        <ele>166</ele>
        <time>2017-07-28T08:56:48Z</time>
      </trkpt>
      <trkpt lat="45.93764" lon="4.77894">
        <ele>166</ele>
        <time>2017-07-28T08:56:50Z</time>
      </trkpt>
      <trkpt lat="45.93766" lon="4.77898">
        <ele>166</ele>
        <time>2017-07-28T08:56:51Z</time>
      </trkpt>
      <trkpt lat="45.93772" lon="4.77906">
        <ele>166</ele>
        <time>2017-07-28T08:56:53Z</time>
      </trkpt>
      <trkpt lat="45.93775" lon="4.77909">
        <ele>166</ele>
        <time>2017-07-28T08:56:54Z</time>
      </trkpt>
      <trkpt lat="45.93781" lon="4.77918">
        <ele>168</ele>
        <time>2017-07-28T08:56:56Z</time>
      </trkpt>
      <trkpt lat="45.93783" lon="4.77922">
        <ele>168</ele>
        <time>2017-07-28T08:56:57Z</time>
      </trkpt>
      <trkpt lat="45.93789" lon="4.77929">
        <ele>168</ele>
        <time>2017-07-28T08:56:59Z</time>
      </trkpt>
      <trkpt lat="45.93792" lon="4.77933">
        <ele>168</ele>
        <time>2017-07-28T08:57:00Z</time>
      </trkpt>
      <trkpt lat="45.93799" lon="4.77941">
        <ele>169</ele>
        <time>2017-07-28T08:57:02Z</time>
      </trkpt>
      <trkpt lat="45.93802" lon="4.77945">
        <ele>169</ele>
        <time>2017-07-28T08:57:03Z</time>
      </trkpt>
      <trkpt lat="45.93805" lon="4.77949">
        <ele>169</ele>
        <time>2017-07-28T08:57:04Z</time>
      </trkpt>
      <trkpt lat="45.93809" lon="4.77954">
        <ele>170</ele>
        <time>2017-07-28T08:57:05Z</time>
      </trkpt>
      <trkpt lat="45.93812" lon="4.77958">
        <ele>170</ele>
        <time>2017-07-28T08:57:06Z</time>
      </trkpt>
      <trkpt lat="45.93816" lon="4.77962">
        <ele>170</ele>
        <time>2017-07-28T08:57:07Z</time>
      </trkpt>
      <trkpt lat="45.9382" lon="4.77967">
        <ele>171</ele>
        <time>2017-07-28T08:57:08Z</time>
      </trkpt>
      <trkpt lat="45.93824" lon="4.77972">
        <ele>172</ele>
        <time>2017-07-28T08:57:09Z</time>
      </trkpt>
      <trkpt lat="45.93828" lon="4.77976">
        <ele>173</ele>
        <time>2017-07-28T08:57:10Z</time>
      </trkpt>
      <trkpt lat="45.93831" lon="4.77981">
        <ele>174</ele>
        <time>2017-07-28T08:57:11Z</time>
      </trkpt>
      <trkpt lat="45.93835" lon="4.77987">
        <ele>178</ele>
        <time>2017-07-28T08:57:12Z</time>
      </trkpt>
      <trkpt lat="45.93838" lon="4.77993">
        <ele>179</ele>
        <time>2017-07-28T08:57:13Z</time>
      </trkpt>
      <trkpt lat="45.93841" lon="4.77999">
        <ele>179</ele>
        <time>2017-07-28T08:57:14Z</time>
      </trkpt>
      <trkpt lat="45.93842" lon="4.78007">
        <ele>181</ele>
        <time>2017-07-28T08:57:15Z</time>
      </trkpt>
      <trkpt lat="45.93843" lon="4.78014">
        <ele>181</ele>
        <time>2017-07-28T08:57:16Z</time>
      </trkpt>
      <trkpt lat="45.93845" lon="4.78022">
        <ele>182</ele>
        <time>2017-07-28T08:57:17Z</time>
      </trkpt>
      <trkpt lat="45.93846" lon="4.78029">
        <ele>182</ele>
        <time>2017-07-28T08:57:18Z</time>
      </trkpt>
      <trkpt lat="45.93848" lon="4.78035">
        <ele>182</ele>
        <time>2017-07-28T08:57:19Z</time>
      </trkpt>
      <trkpt lat="45.93849" lon="4.78047">
        <ele>183</ele>
        <time>2017-07-28T08:57:21Z</time>
      </trkpt>
      <trkpt lat="45.93849" lon="4.78052">
        <ele>183</ele>
        <time>2017-07-28T08:57:22Z</time>
      </trkpt>
      <trkpt lat="45.93846" lon="4.78064">
        <ele>182</ele>
        <time>2017-07-28T08:57:24Z</time>
      </trkpt>
      <trkpt lat="45.93844" lon="4.7807">
        <ele>182</ele>
        <time>2017-07-28T08:57:25Z</time>
      </trkpt>
      <trkpt lat="45.93844" lon="4.78077">
        <ele>182</ele>
        <time>2017-07-28T08:57:26Z</time>
      </trkpt>
      <trkpt lat="45.93842" lon="4.78085">
        <ele>182</ele>
        <time>2017-07-28T08:57:27Z</time>
      </trkpt>
      <trkpt lat="45.9384" lon="4.78092">
        <ele>182</ele>
        <time>2017-07-28T08:57:28Z</time>
      </trkpt>
      <trkpt lat="45.93839" lon="4.78099">
        <ele>183</ele>
        <time>2017-07-28T08:57:29Z</time>
      </trkpt>
      <trkpt lat="45.93837" lon="4.78106">
        <ele>183</ele>
        <time>2017-07-28T08:57:30Z</time>
      </trkpt>
      <trkpt lat="45.93836" lon="4.78112">
        <ele>184</ele>
        <time>2017-07-28T08:57:31Z</time>
      </trkpt>
      <trkpt lat="45.93834" lon="4.78118">
        <ele>184</ele>
        <time>2017-07-28T08:57:32Z</time>
      </trkpt>
      <trkpt lat="45.93832" lon="4.78124">
        <ele>180</ele>
        <time>2017-07-28T08:57:33Z</time>
      </trkpt>
      <trkpt lat="45.93827" lon="4.78135">
        <ele>180</ele>
        <time>2017-07-28T08:57:35Z</time>
      </trkpt>
      <trkpt lat="45.93827" lon="4.7814">
        <ele>180</ele>
        <time>2017-07-28T08:57:36Z</time>
      </trkpt>
      <trkpt lat="45.93824" lon="4.78152">
        <ele>180</ele>
        <time>2017-07-28T08:57:38Z</time>
      </trkpt>
      <trkpt lat="45.93823" lon="4.78158">
        <ele>181</ele>
        <time>2017-07-28T08:57:39Z</time>
      </trkpt>
      <trkpt lat="45.93822" lon="4.78164">
        <ele>181</ele>
        <time>2017-07-28T08:57:40Z</time>
      </trkpt>
      <trkpt lat="45.9382" lon="4.78171">
        <ele>182</ele>
        <time>2017-07-28T08:57:41Z</time>
      </trkpt>
      <trkpt lat="45.93818" lon="4.78177">
        <ele>182</ele>
        <time>2017-07-28T08:57:42Z</time>
      </trkpt>
      <trkpt lat="45.93816" lon="4.78182">
        <ele>182</ele>
        <time>2017-07-28T08:57:43Z</time>
      </trkpt>
      <trkpt lat="45.93813" lon="4.78192">
        <ele>182</ele>
        <time>2017-07-28T08:57:45Z</time>
      </trkpt>
      <trkpt lat="45.93812" lon="4.78197">
        <ele>182</ele>
        <time>2017-07-28T08:57:46Z</time>
      </trkpt>
      <trkpt lat="45.9381" lon="4.78207">
        <ele>182</ele>
        <time>2017-07-28T08:57:48Z</time>
      </trkpt>
      <trkpt lat="45.93809" lon="4.78213">
        <ele>182</ele>
        <time>2017-07-28T08:57:49Z</time>
      </trkpt>
      <trkpt lat="45.93805" lon="4.78223">
        <ele>182</ele>
        <time>2017-07-28T08:57:51Z</time>
      </trkpt>
      <trkpt lat="45.93803" lon="4.78228">
        <ele>182</ele>
        <time>2017-07-28T08:57:52Z</time>
      </trkpt>
      <trkpt lat="45.93798" lon="4.78239">
        <ele>182</ele>
        <time>2017-07-28T08:57:54Z</time>
      </trkpt>
      <trkpt lat="45.93797" lon="4.78245">
        <ele>182</ele>
        <time>2017-07-28T08:57:55Z</time>
      </trkpt>
      <trkpt lat="45.93794" lon="4.78251">
        <ele>183</ele>
        <time>2017-07-28T08:57:56Z</time>
      </trkpt>
      <trkpt lat="45.93792" lon="4.78257">
        <ele>183</ele>
        <time>2017-07-28T08:57:57Z</time>
      </trkpt>
      <trkpt lat="45.93788" lon="4.78268">
        <ele>183</ele>
        <time>2017-07-28T08:57:59Z</time>
      </trkpt>
      <trkpt lat="45.93786" lon="4.78274">
        <ele>183</ele>
        <time>2017-07-28T08:58:00Z</time>
      </trkpt>
      <trkpt lat="45.93784" lon="4.78281">
        <ele>183</ele>
        <time>2017-07-28T08:58:01Z</time>
      </trkpt>
      <trkpt lat="45.93781" lon="4.78287">
        <ele>183</ele>
        <time>2017-07-28T08:58:02Z</time>
      </trkpt>
      <trkpt lat="45.9378" lon="4.78294">
        <ele>183</ele>
        <time>2017-07-28T08:58:03Z</time>
      </trkpt>
      <trkpt lat="45.93777" lon="4.78301">
        <ele>183</ele>
        <time>2017-07-28T08:58:04Z</time>
      </trkpt>
      <trkpt lat="45.93775" lon="4.78309">
        <ele>183</ele>
        <time>2017-07-28T08:58:05Z</time>
      </trkpt>
      <trkpt lat="45.93773" lon="4.78316">
        <ele>183</ele>
        <time>2017-07-28T08:58:06Z</time>
      </trkpt>
      <trkpt lat="45.9377" lon="4.78323">
        <ele>183</ele>
        <time>2017-07-28T08:58:07Z</time>
      </trkpt>
      <trkpt lat="45.93769" lon="4.78331">
        <ele>183</ele>
        <time>2017-07-28T08:58:08Z</time>
      </trkpt>
      <trkpt lat="45.93767" lon="4.78338">
        <ele>183</ele>
        <time>2017-07-28T08:58:09Z</time>
      </trkpt>
      <trkpt lat="45.93765" lon="4.78345">
        <ele>183</ele>
        <time>2017-07-28T08:58:10Z</time>
      </trkpt>
      <trkpt lat="45.93763" lon="4.78352">
        <ele>183</ele>
        <time>2017-07-28T08:58:11Z</time>
      </trkpt>
      <trkpt lat="45.93762" lon="4.78359">
        <ele>183</ele>
        <time>2017-07-28T08:58:12Z</time>
      </trkpt>
      <trkpt lat="45.93761" lon="4.78367">
        <ele>183</ele>
        <time>2017-07-28T08:58:13Z</time>
      </trkpt>
      <trkpt lat="45.93759" lon="4.78374">
        <ele>183</ele>
        <time>2017-07-28T08:58:14Z</time>
      </trkpt>
      <trkpt lat="45.93758" lon="4.7838">
        <ele>183</ele>
        <time>2017-07-28T08:58:15Z</time>
      </trkpt>
      <trkpt lat="45.93757" lon="4.78387">
        <ele>183</ele>
        <time>2017-07-28T08:58:16Z</time>
      </trkpt>
      <trkpt lat="45.93756" lon="4.78394">
        <ele>183</ele>
        <time>2017-07-28T08:58:17Z</time>
      </trkpt>
      <trkpt lat="45.93756" lon="4.78402">
        <ele>182</ele>
        <time>2017-07-28T08:58:18Z</time>
      </trkpt>
      <trkpt lat="45.93753" lon="4.78408">
        <ele>182</ele>
        <time>2017-07-28T08:58:19Z</time>
      </trkpt>
      <trkpt lat="45.9375" lon="4.78416">
        <ele>181</ele>
        <time>2017-07-28T08:58:20Z</time>
      </trkpt>
      <trkpt lat="45.93748" lon="4.78424">
        <ele>181</ele>
        <time>2017-07-28T08:58:21Z</time>
      </trkpt>
      <trkpt lat="45.93746" lon="4.78432">
        <ele>180</ele>
        <time>2017-07-28T08:58:22Z</time>
      </trkpt>
      <trkpt lat="45.93745" lon="4.7844">
        <ele>180</ele>
        <time>2017-07-28T08:58:23Z</time>
      </trkpt>
      <trkpt lat="45.93743" lon="4.78448">
        <ele>180</ele>
        <time>2017-07-28T08:58:24Z</time>
      </trkpt>
      <trkpt lat="45.9374" lon="4.78456">
        <ele>180</ele>
        <time>2017-07-28T08:58:25Z</time>
      </trkpt>
      <trkpt lat="45.93738" lon="4.78464">
        <ele>180</ele>
        <time>2017-07-28T08:58:26Z</time>
      </trkpt>
      <trkpt lat="45.93736" lon="4.78472">
        <ele>180</ele>
        <time>2017-07-28T08:58:27Z</time>
      </trkpt>
      <trkpt lat="45.93732" lon="4.78481">
        <ele>180</ele>
        <time>2017-07-28T08:58:28Z</time>
      </trkpt>
      <trkpt lat="45.93729" lon="4.78489">
        <ele>180</ele>
        <time>2017-07-28T08:58:29Z</time>
      </trkpt>
      <trkpt lat="45.93723" lon="4.78498">
        <ele>180</ele>
        <time>2017-07-28T08:58:30Z</time>
      </trkpt>
      <trkpt lat="45.9372" lon="4.78507">
        <ele>179</ele>
        <time>2017-07-28T08:58:31Z</time>
      </trkpt>
      <trkpt lat="45.93717" lon="4.78517">
        <ele>178</ele>
        <time>2017-07-28T08:58:32Z</time>
      </trkpt>
      <trkpt lat="45.93715" lon="4.78527">
        <ele>178</ele>
        <time>2017-07-28T08:58:33Z</time>
      </trkpt>
      <trkpt lat="45.93712" lon="4.78536">
        <ele>178</ele>
        <time>2017-07-28T08:58:34Z</time>
      </trkpt>
      <trkpt lat="45.9371" lon="4.78546">
        <ele>178</ele>
        <time>2017-07-28T08:58:35Z</time>
      </trkpt>
      <trkpt lat="45.93708" lon="4.78555">
        <ele>178</ele>
        <time>2017-07-28T08:58:36Z</time>
      </trkpt>
      <trkpt lat="45.93706" lon="4.78564">
        <ele>177</ele>
        <time>2017-07-28T08:58:37Z</time>
      </trkpt>
      <trkpt lat="45.93703" lon="4.78573">
        <ele>177</ele>
        <time>2017-07-28T08:58:38Z</time>
      </trkpt>
      <trkpt lat="45.93701" lon="4.78581">
        <ele>177</ele>
        <time>2017-07-28T08:58:39Z</time>
      </trkpt>
      <trkpt lat="45.937" lon="4.78587">
        <ele>176</ele>
        <time>2017-07-28T08:58:40Z</time>
      </trkpt>
      <trkpt lat="45.93698" lon="4.78596">
        <ele>176</ele>
        <time>2017-07-28T08:58:42Z</time>
      </trkpt>
      <trkpt lat="45.93696" lon="4.786">
        <ele>176</ele>
        <time>2017-07-28T08:58:43Z</time>
      </trkpt>
      <trkpt lat="45.93694" lon="4.78611">
        <ele>176</ele>
        <time>2017-07-28T08:58:45Z</time>
      </trkpt>
      <trkpt lat="45.93695" lon="4.78617">
        <ele>176</ele>
        <time>2017-07-28T08:58:46Z</time>
      </trkpt>
      <trkpt lat="45.93698" lon="4.78624">
        <ele>176</ele>
        <time>2017-07-28T08:58:47Z</time>
      </trkpt>
      <trkpt lat="45.93702" lon="4.78627">
        <ele>176</ele>
        <time>2017-07-28T08:58:48Z</time>
      </trkpt>
      <trkpt lat="45.93706" lon="4.78627">
        <ele>176</ele>
        <time>2017-07-28T08:58:49Z</time>
      </trkpt>
      <trkpt lat="45.93712" lon="4.78627">
        <ele>176</ele>
        <time>2017-07-28T08:58:50Z</time>
      </trkpt>
      <trkpt lat="45.93716" lon="4.78626">
        <ele>176</ele>
        <time>2017-07-28T08:58:51Z</time>
      </trkpt>
      <trkpt lat="45.93721" lon="4.78625">
        <ele>177</ele>
        <time>2017-07-28T08:58:52Z</time>
      </trkpt>
      <trkpt lat="45.9373" lon="4.78623">
        <ele>177</ele>
        <time>2017-07-28T08:58:54Z</time>
      </trkpt>
      <trkpt lat="45.93735" lon="4.78622">
        <ele>177</ele>
        <time>2017-07-28T08:58:55Z</time>
      </trkpt>
      <trkpt lat="45.93743" lon="4.78621">
        <ele>177</ele>
        <time>2017-07-28T08:58:57Z</time>
      </trkpt>
      <trkpt lat="45.93748" lon="4.78621">
        <ele>177</ele>
        <time>2017-07-28T08:58:58Z</time>
      </trkpt>
      <trkpt lat="45.93756" lon="4.78619">
        <ele>181</ele>
        <time>2017-07-28T08:59:00Z</time>
      </trkpt>
      <trkpt lat="45.9376" lon="4.78618">
        <ele>181</ele>
        <time>2017-07-28T08:59:01Z</time>
      </trkpt>
      <trkpt lat="45.93768" lon="4.78616">
        <ele>181</ele>
        <time>2017-07-28T08:59:03Z</time>
      </trkpt>
      <trkpt lat="45.93772" lon="4.78615">
        <ele>181</ele>
        <time>2017-07-28T08:59:04Z</time>
      </trkpt>
      <trkpt lat="45.93779" lon="4.78613">
        <ele>181</ele>
        <time>2017-07-28T08:59:06Z</time>
      </trkpt>
      <trkpt lat="45.93783" lon="4.78613">
        <ele>182</ele>
        <time>2017-07-28T08:59:07Z</time>
      </trkpt>
      <trkpt lat="45.93789" lon="4.78612">
        <ele>182</ele>
        <time>2017-07-28T08:59:09Z</time>
      </trkpt>
      <trkpt lat="45.93792" lon="4.78611">
        <ele>182</ele>
        <time>2017-07-28T08:59:10Z</time>
      </trkpt>
      <trkpt lat="45.93799" lon="4.7861">
        <ele>182</ele>
        <time>2017-07-28T08:59:12Z</time>
      </trkpt>
      <trkpt lat="45.93803" lon="4.78609">
        <ele>183</ele>
        <time>2017-07-28T08:59:13Z</time>
      </trkpt>
      <trkpt lat="45.9381" lon="4.78607">
        <ele>183</ele>
        <time>2017-07-28T08:59:15Z</time>
      </trkpt>
      <trkpt lat="45.93814" lon="4.78606">
        <ele>183</ele>
        <time>2017-07-28T08:59:16Z</time>
      </trkpt>
      <trkpt lat="45.9382" lon="4.78605">
        <ele>184</ele>
        <time>2017-07-28T08:59:18Z</time>
      </trkpt>
      <trkpt lat="45.93823" lon="4.78603">
        <ele>184</ele>
        <time>2017-07-28T08:59:19Z</time>
      </trkpt>
      <trkpt lat="45.93832" lon="4.78601">
        <ele>184</ele>
        <time>2017-07-28T08:59:22Z</time>
      </trkpt>
      <trkpt lat="45.93835" lon="4.786">
        <ele>187</ele>
        <time>2017-07-28T08:59:23Z</time>
      </trkpt>
      <trkpt lat="45.93843" lon="4.78598">
        <ele>188</ele>
        <time>2017-07-28T08:59:26Z</time>
      </trkpt>
      <trkpt lat="45.93846" lon="4.78597">
        <ele>188</ele>
        <time>2017-07-28T08:59:27Z</time>
      </trkpt>
      <trkpt lat="45.93855" lon="4.78596">
        <ele>188</ele>
        <time>2017-07-28T08:59:31Z</time>
      </trkpt>
      <trkpt lat="45.93856" lon="4.78595">
        <ele>188</ele>
        <time>2017-07-28T08:59:32Z</time>
      </trkpt>
      <trkpt lat="45.93864" lon="4.78597">
        <ele>188</ele>
        <time>2017-07-28T08:59:36Z</time>
      </trkpt>
      <trkpt lat="45.93867" lon="4.78597">
        <ele>188</ele>
        <time>2017-07-28T08:59:37Z</time>
      </trkpt>
      <trkpt lat="45.93874" lon="4.78594">
        <ele>189</ele>
        <time>2017-07-28T08:59:40Z</time>
      </trkpt>
      <trkpt lat="45.93876" lon="4.78593">
        <ele>189</ele>
        <time>2017-07-28T08:59:41Z</time>
      </trkpt>
      <trkpt lat="45.93884" lon="4.7859">
        <ele>189</ele>
        <time>2017-07-28T08:59:44Z</time>
      </trkpt>
      <trkpt lat="45.93886" lon="4.78589">
        <ele>190</ele>
        <time>2017-07-28T08:59:45Z</time>
      </trkpt>
      <trkpt lat="45.93894" lon="4.78587">
        <ele>190</ele>
        <time>2017-07-28T08:59:48Z</time>
      </trkpt>
      <trkpt lat="45.93896" lon="4.78586">
        <ele>190</ele>
        <time>2017-07-28T08:59:49Z</time>
      </trkpt>
      <trkpt lat="45.93903" lon="4.78583">
        <ele>192</ele>
        <time>2017-07-28T08:59:53Z</time>
      </trkpt>
      <trkpt lat="45.93906" lon="4.78582">
        <ele>192</ele>
        <time>2017-07-28T08:59:54Z</time>
      </trkpt>
      <trkpt lat="45.93914" lon="4.78578">
        <ele>193</ele>
        <time>2017-07-28T08:59:58Z</time>
      </trkpt>
      <trkpt lat="45.93915" lon="4.78576">
        <ele>193</ele>
        <time>2017-07-28T08:59:59Z</time>
      </trkpt>
      <trkpt lat="45.93922" lon="4.78572">
        <ele>195</ele>
        <time>2017-07-28T09:00:02Z</time>
      </trkpt>
      <trkpt lat="45.93925" lon="4.78571">
        <ele>195</ele>
        <time>2017-07-28T09:00:03Z</time>
      </trkpt>
      <trkpt lat="45.93927" lon="4.78584">
        <ele>194</ele>
        <time>2017-07-28T09:00:09Z</time>
      </trkpt>
      <trkpt lat="45.93926" lon="4.78587">
        <ele>194</ele>
        <time>2017-07-28T09:00:10Z</time>
      </trkpt>
      <trkpt lat="45.93928" lon="4.78598">
        <ele>195</ele>
        <time>2017-07-28T09:00:13Z</time>
      </trkpt>
      <trkpt lat="45.93929" lon="4.78603">
        <ele>195</ele>
        <time>2017-07-28T09:00:14Z</time>
      </trkpt>
      <trkpt lat="45.9393" lon="4.78612">
        <ele>195</ele>
        <time>2017-07-28T09:00:16Z</time>
      </trkpt>
      <trkpt lat="45.9393" lon="4.78617">
        <ele>195</ele>
        <time>2017-07-28T09:00:17Z</time>
      </trkpt>
      <trkpt lat="45.9393" lon="4.78627">
        <ele>195</ele>
        <time>2017-07-28T09:00:19Z</time>
      </trkpt>
      <trkpt lat="45.9393" lon="4.78632">
        <ele>195</ele>
        <time>2017-07-28T09:00:20Z</time>
      </trkpt>
      <trkpt lat="45.93931" lon="4.78641">
        <ele>195</ele>
        <time>2017-07-28T09:00:22Z</time>
      </trkpt>
      <trkpt lat="45.9393" lon="4.78645">
        <ele>194</ele>
        <time>2017-07-28T09:00:23Z</time>
      </trkpt>
      <trkpt lat="45.93931" lon="4.78654">
        <ele>194</ele>
        <time>2017-07-28T09:00:25Z</time>
      </trkpt>
      <trkpt lat="45.93931" lon="4.78659">
        <ele>193</ele>
        <time>2017-07-28T09:00:26Z</time>
      </trkpt>
      <trkpt lat="45.93931" lon="4.7867">
        <ele>192</ele>
        <time>2017-07-28T09:00:28Z</time>
      </trkpt>
      <trkpt lat="45.93931" lon="4.78675">
        <ele>193</ele>
        <time>2017-07-28T09:00:29Z</time>
      </trkpt>
      <trkpt lat="45.93931" lon="4.78686">
        <ele>193</ele>
        <time>2017-07-28T09:00:31Z</time>
      </trkpt>
      <trkpt lat="45.93931" lon="4.7869">
        <ele>193</ele>
        <time>2017-07-28T09:00:32Z</time>
      </trkpt>
      <trkpt lat="45.93929" lon="4.78701">
        <ele>194</ele>
        <time>2017-07-28T09:00:34Z</time>
      </trkpt>
      <trkpt lat="45.93929" lon="4.78706">
        <ele>194</ele>
        <time>2017-07-28T09:00:35Z</time>
      </trkpt>
      <trkpt lat="45.9393" lon="4.78713">
        <ele>194</ele>
        <time>2017-07-28T09:00:36Z</time>
      </trkpt>
      <trkpt lat="45.93931" lon="4.78719">
        <ele>194</ele>
        <time>2017-07-28T09:00:37Z</time>
      </trkpt>
      <trkpt lat="45.93932" lon="4.78732">
        <ele>193</ele>
        <time>2017-07-28T09:00:39Z</time>
      </trkpt>
      <trkpt lat="45.93933" lon="4.78738">
        <ele>193</ele>
        <time>2017-07-28T09:00:40Z</time>
      </trkpt>
      <trkpt lat="45.93932" lon="4.78746">
        <ele>193</ele>
        <time>2017-07-28T09:00:41Z</time>
      </trkpt>
      <trkpt lat="45.93932" lon="4.78753">
        <ele>192</ele>
        <time>2017-07-28T09:00:42Z</time>
      </trkpt>
      <trkpt lat="45.93931" lon="4.78765">
        <ele>193</ele>
        <time>2017-07-28T09:00:44Z</time>
      </trkpt>
      <trkpt lat="45.9393" lon="4.78771">
        <ele>193</ele>
        <time>2017-07-28T09:00:45Z</time>
      </trkpt>
      <trkpt lat="45.93929" lon="4.78783">
        <ele>193</ele>
        <time>2017-07-28T09:00:47Z</time>
      </trkpt>
      <trkpt lat="45.93929" lon="4.78788">
        <ele>194</ele>
        <time>2017-07-28T09:00:48Z</time>
      </trkpt>
      <trkpt lat="45.93928" lon="4.78799">
        <ele>194</ele>
        <time>2017-07-28T09:00:50Z</time>
      </trkpt>
      <trkpt lat="45.93928" lon="4.78805">
        <ele>193</ele>
        <time>2017-07-28T09:00:51Z</time>
      </trkpt>
      <trkpt lat="45.93931" lon="4.78815">
        <ele>193</ele>
        <time>2017-07-28T09:00:53Z</time>
      </trkpt>
      <trkpt lat="45.93933" lon="4.78822">
        <ele>193</ele>
        <time>2017-07-28T09:00:54Z</time>
      </trkpt>
      <trkpt lat="45.93934" lon="4.78832">
        <ele>193</ele>
        <time>2017-07-28T09:00:56Z</time>
      </trkpt>
      <trkpt lat="45.93934" lon="4.78837">
        <ele>193</ele>
        <time>2017-07-28T09:00:57Z</time>
      </trkpt>
      <trkpt lat="45.93934" lon="4.78848">
        <ele>193</ele>
        <time>2017-07-28T09:00:59Z</time>
      </trkpt>
      <trkpt lat="45.93934" lon="4.78853">
        <ele>193</ele>
        <time>2017-07-28T09:01:00Z</time>
      </trkpt>
      <trkpt lat="45.93935" lon="4.7886">
        <ele>193</ele>
        <time>2017-07-28T09:01:01Z</time>
      </trkpt>
      <trkpt lat="45.93935" lon="4.78866">
        <ele>193</ele>
        <time>2017-07-28T09:01:02Z</time>
      </trkpt>
      <trkpt lat="45.93935" lon="4.78873">
        <ele>193</ele>
        <time>2017-07-28T09:01:03Z</time>
      </trkpt>
      <trkpt lat="45.93936" lon="4.7888">
        <ele>193</ele>
        <time>2017-07-28T09:01:04Z</time>
      </trkpt>
      <trkpt lat="45.93936" lon="4.78892">
        <ele>193</ele>
        <time>2017-07-28T09:01:06Z</time>
      </trkpt>
      <trkpt lat="45.93935" lon="4.78898">
        <ele>193</ele>
        <time>2017-07-28T09:01:07Z</time>
      </trkpt>
      <trkpt lat="45.93935" lon="4.78909">
        <ele>193</ele>
        <time>2017-07-28T09:01:09Z</time>
      </trkpt>
      <trkpt lat="45.93935" lon="4.78914">
        <ele>192</ele>
        <time>2017-07-28T09:01:10Z</time>
      </trkpt>
      <trkpt lat="45.93934" lon="4.78926">
        <ele>193</ele>
        <time>2017-07-28T09:01:12Z</time>
      </trkpt>
      <trkpt lat="45.93934" lon="4.78931">
        <ele>193</ele>
        <time>2017-07-28T09:01:13Z</time>
      </trkpt>
      <trkpt lat="45.93933" lon="4.78942">
        <ele>193</ele>
        <time>2017-07-28T09:01:15Z</time>
      </trkpt>
      <trkpt lat="45.93934" lon="4.78948">
        <ele>193</ele>
        <time>2017-07-28T09:01:16Z</time>
      </trkpt>
      <trkpt lat="45.93935" lon="4.78955">
        <ele>193</ele>
        <time>2017-07-28T09:01:17Z</time>
      </trkpt>
      <trkpt lat="45.93935" lon="4.78962">
        <ele>194</ele>
        <time>2017-07-28T09:01:18Z</time>
      </trkpt>
      <trkpt lat="45.93936" lon="4.78969">
        <ele>193</ele>
        <time>2017-07-28T09:01:19Z</time>
      </trkpt>
      <trkpt lat="45.93936" lon="4.78975">
        <ele>193</ele>
        <time>2017-07-28T09:01:20Z</time>
      </trkpt>
      <trkpt lat="45.93937" lon="4.78988">
        <ele>193</ele>
        <time>2017-07-28T09:01:22Z</time>
      </trkpt>
      <trkpt lat="45.93938" lon="4.78993">
        <ele>193</ele>
        <time>2017-07-28T09:01:23Z</time>
      </trkpt>
      <trkpt lat="45.93938" lon="4.79004">
        <ele>194</ele>
        <time>2017-07-28T09:01:25Z</time>
      </trkpt>
      <trkpt lat="45.93938" lon="4.79009">
        <ele>194</ele>
        <time>2017-07-28T09:01:26Z</time>
      </trkpt>
      <trkpt lat="45.93938" lon="4.7902">
        <ele>194</ele>
        <time>2017-07-28T09:01:28Z</time>
      </trkpt>
      <trkpt lat="45.93938" lon="4.79025">
        <ele>195</ele>
        <time>2017-07-28T09:01:29Z</time>
      </trkpt>
      <trkpt lat="45.93938" lon="4.79036">
        <ele>195</ele>
        <time>2017-07-28T09:01:31Z</time>
      </trkpt>
      <trkpt lat="45.93938" lon="4.79042">
        <ele>195</ele>
        <time>2017-07-28T09:01:32Z</time>
      </trkpt>
      <trkpt lat="45.93939" lon="4.79048">
        <ele>195</ele>
        <time>2017-07-28T09:01:33Z</time>
      </trkpt>
      <trkpt lat="45.9394" lon="4.79055">
        <ele>195</ele>
        <time>2017-07-28T09:01:34Z</time>
      </trkpt>
      <trkpt lat="45.93941" lon="4.79062">
        <ele>195</ele>
        <time>2017-07-28T09:01:35Z</time>
      </trkpt>
      <trkpt lat="45.93941" lon="4.7907">
        <ele>195</ele>
        <time>2017-07-28T09:01:36Z</time>
      </trkpt>
      <trkpt lat="45.93941" lon="4.79082">
        <ele>195</ele>
        <time>2017-07-28T09:01:38Z</time>
      </trkpt>
      <trkpt lat="45.9394" lon="4.79087">
        <ele>195</ele>
        <time>2017-07-28T09:01:39Z</time>
      </trkpt>
      <trkpt lat="45.9394" lon="4.79092">
        <ele>195</ele>
        <time>2017-07-28T09:01:40Z</time>
      </trkpt>
      <trkpt lat="45.93941" lon="4.791">
        <ele>196</ele>
        <time>2017-07-28T09:01:41Z</time>
      </trkpt>
      <trkpt lat="45.9394" lon="4.79107">
        <ele>196</ele>
        <time>2017-07-28T09:01:42Z</time>
      </trkpt>
      <trkpt lat="45.9394" lon="4.79113">
        <ele>196</ele>
        <time>2017-07-28T09:01:43Z</time>
      </trkpt>
      <trkpt lat="45.93941" lon="4.79121">
        <ele>196</ele>
        <time>2017-07-28T09:01:44Z</time>
      </trkpt>
      <trkpt lat="45.93944" lon="4.79127">
        <ele>196</ele>
        <time>2017-07-28T09:01:45Z</time>
      </trkpt>
      <trkpt lat="45.93943" lon="4.79139">
        <ele>196</ele>
        <time>2017-07-28T09:01:47Z</time>
      </trkpt>
      <trkpt lat="45.93943" lon="4.79145">
        <ele>196</ele>
        <time>2017-07-28T09:01:48Z</time>
      </trkpt>
      <trkpt lat="45.93944" lon="4.79155">
        <ele>196</ele>
        <time>2017-07-28T09:01:50Z</time>
      </trkpt>
      <trkpt lat="45.93944" lon="4.79159">
        <ele>196</ele>
        <time>2017-07-28T09:01:51Z</time>
      </trkpt>
      <trkpt lat="45.93944" lon="4.79168">
        <ele>196</ele>
        <time>2017-07-28T09:01:53Z</time>
      </trkpt>
      <trkpt lat="45.93945" lon="4.79173">
        <ele>196</ele>
        <time>2017-07-28T09:01:54Z</time>
      </trkpt>
      <trkpt lat="45.93946" lon="4.79184">
        <ele>196</ele>
        <time>2017-07-28T09:01:56Z</time>
      </trkpt>
      <trkpt lat="45.93946" lon="4.79189">
        <ele>197</ele>
        <time>2017-07-28T09:01:57Z</time>
      </trkpt>
      <trkpt lat="45.93946" lon="4.79201">
        <ele>197</ele>
        <time>2017-07-28T09:01:59Z</time>
      </trkpt>
      <trkpt lat="45.93945" lon="4.79207">
        <ele>197</ele>
        <time>2017-07-28T09:02:00Z</time>
      </trkpt>
      <trkpt lat="45.93944" lon="4.79218">
        <ele>197</ele>
        <time>2017-07-28T09:02:02Z</time>
      </trkpt>
      <trkpt lat="45.93945" lon="4.79224">
        <ele>196</ele>
        <time>2017-07-28T09:02:03Z</time>
      </trkpt>
      <trkpt lat="45.93946" lon="4.79236">
        <ele>196</ele>
        <time>2017-07-28T09:02:05Z</time>
      </trkpt>
      <trkpt lat="45.93946" lon="4.79242">
        <ele>196</ele>
        <time>2017-07-28T09:02:06Z</time>
      </trkpt>
      <trkpt lat="45.93947" lon="4.79252">
        <ele>197</ele>
        <time>2017-07-28T09:02:08Z</time>
      </trkpt>
      <trkpt lat="45.93948" lon="4.79258">
        <ele>197</ele>
        <time>2017-07-28T09:02:09Z</time>
      </trkpt>
      <trkpt lat="45.93948" lon="4.79269">
        <ele>198</ele>
        <time>2017-07-28T09:02:11Z</time>
      </trkpt>
      <trkpt lat="45.93949" lon="4.79275">
        <ele>198</ele>
        <time>2017-07-28T09:02:12Z</time>
      </trkpt>
      <trkpt lat="45.93949" lon="4.79288">
        <ele>198</ele>
        <time>2017-07-28T09:02:14Z</time>
      </trkpt>
      <trkpt lat="45.93949" lon="4.79294">
        <ele>198</ele>
        <time>2017-07-28T09:02:15Z</time>
      </trkpt>
      <trkpt lat="45.9395" lon="4.79307">
        <ele>198</ele>
        <time>2017-07-28T09:02:17Z</time>
      </trkpt>
      <trkpt lat="45.93949" lon="4.79312">
        <ele>198</ele>
        <time>2017-07-28T09:02:18Z</time>
      </trkpt>
      <trkpt lat="45.93949" lon="4.79321">
        <ele>198</ele>
        <time>2017-07-28T09:02:20Z</time>
      </trkpt>
      <trkpt lat="45.93948" lon="4.79326">
        <ele>198</ele>
        <time>2017-07-28T09:02:21Z</time>
      </trkpt>
      <trkpt lat="45.93948" lon="4.79337">
        <ele>200</ele>
        <time>2017-07-28T09:02:23Z</time>
      </trkpt>
      <trkpt lat="45.93948" lon="4.79342">
        <ele>200</ele>
        <time>2017-07-28T09:02:24Z</time>
      </trkpt>
      <trkpt lat="45.93947" lon="4.79352">
        <ele>200</ele>
        <time>2017-07-28T09:02:26Z</time>
      </trkpt>
      <trkpt lat="45.93946" lon="4.79357">
        <ele>200</ele>
        <time>2017-07-28T09:02:27Z</time>
      </trkpt>
      <trkpt lat="45.93944" lon="4.79369">
        <ele>200</ele>
        <time>2017-07-28T09:02:29Z</time>
      </trkpt>
      <trkpt lat="45.93945" lon="4.79375">
        <ele>200</ele>
        <time>2017-07-28T09:02:30Z</time>
      </trkpt>
      <trkpt lat="45.93946" lon="4.79386">
        <ele>200</ele>
        <time>2017-07-28T09:02:32Z</time>
      </trkpt>
      <trkpt lat="45.93947" lon="4.79391">
        <ele>201</ele>
        <time>2017-07-28T09:02:33Z</time>
      </trkpt>
      <trkpt lat="45.93949" lon="4.79402">
        <ele>201</ele>
        <time>2017-07-28T09:02:35Z</time>
      </trkpt>
      <trkpt lat="45.93948" lon="4.79407">
        <ele>201</ele>
        <time>2017-07-28T09:02:36Z</time>
      </trkpt>
      <trkpt lat="45.93948" lon="4.79418">
        <ele>202</ele>
        <time>2017-07-28T09:02:38Z</time>
      </trkpt>
      <trkpt lat="45.93947" lon="4.79423">
        <ele>201</ele>
        <time>2017-07-28T09:02:39Z</time>
      </trkpt>
      <trkpt lat="45.93947" lon="4.79434">
        <ele>202</ele>
        <time>2017-07-28T09:02:41Z</time>
      </trkpt>
      <trkpt lat="45.93946" lon="4.7944">
        <ele>202</ele>
        <time>2017-07-28T09:02:42Z</time>
      </trkpt>
      <trkpt lat="45.93946" lon="4.79446">
        <ele>202</ele>
        <time>2017-07-28T09:02:43Z</time>
      </trkpt>
      <trkpt lat="45.93946" lon="4.79453">
        <ele>202</ele>
        <time>2017-07-28T09:02:44Z</time>
      </trkpt>
      <trkpt lat="45.93947" lon="4.79465">
        <ele>202</ele>
        <time>2017-07-28T09:02:46Z</time>
      </trkpt>
      <trkpt lat="45.93947" lon="4.79471">
        <ele>202</ele>
        <time>2017-07-28T09:02:47Z</time>
      </trkpt>
      <trkpt lat="45.93949" lon="4.79483">
        <ele>202</ele>
        <time>2017-07-28T09:02:49Z</time>
      </trkpt>
      <trkpt lat="45.93949" lon="4.79489">
        <ele>202</ele>
        <time>2017-07-28T09:02:50Z</time>
      </trkpt>
      <trkpt lat="45.93951" lon="4.79502">
        <ele>203</ele>
        <time>2017-07-28T09:02:52Z</time>
      </trkpt>
      <trkpt lat="45.93951" lon="4.79508">
        <ele>204</ele>
        <time>2017-07-28T09:02:53Z</time>
      </trkpt>
      <trkpt lat="45.93952" lon="4.7952">
        <ele>204</ele>
        <time>2017-07-28T09:02:55Z</time>
      </trkpt>
      <trkpt lat="45.93953" lon="4.79526">
        <ele>204</ele>
        <time>2017-07-28T09:02:56Z</time>
      </trkpt>
      <trkpt lat="45.93954" lon="4.79536">
        <ele>205</ele>
        <time>2017-07-28T09:02:58Z</time>
      </trkpt>
      <trkpt lat="45.93954" lon="4.79542">
        <ele>205</ele>
        <time>2017-07-28T09:02:59Z</time>
      </trkpt>
      <trkpt lat="45.93955" lon="4.79552">
        <ele>205</ele>
        <time>2017-07-28T09:03:01Z</time>
      </trkpt>
      <trkpt lat="45.93956" lon="4.79558">
        <ele>205</ele>
        <time>2017-07-28T09:03:02Z</time>
      </trkpt>
      <trkpt lat="45.93958" lon="4.7957">
        <ele>205</ele>
        <time>2017-07-28T09:03:04Z</time>
      </trkpt>
      <trkpt lat="45.93958" lon="4.79576">
        <ele>206</ele>
        <time>2017-07-28T09:03:05Z</time>
      </trkpt>
      <trkpt lat="45.93959" lon="4.79588">
        <ele>207</ele>
        <time>2017-07-28T09:03:07Z</time>
      </trkpt>
      <trkpt lat="45.93959" lon="4.79593">
        <ele>207</ele>
        <time>2017-07-28T09:03:08Z</time>
      </trkpt>
      <trkpt lat="45.93961" lon="4.79603">
        <ele>207</ele>
        <time>2017-07-28T09:03:10Z</time>
      </trkpt>
      <trkpt lat="45.93962" lon="4.79608">
        <ele>207</ele>
        <time>2017-07-28T09:03:11Z</time>
      </trkpt>
      <trkpt lat="45.93963" lon="4.79616">
        <ele>207</ele>
        <time>2017-07-28T09:03:13Z</time>
      </trkpt>
      <trkpt lat="45.93963" lon="4.79622">
        <ele>207</ele>
        <time>2017-07-28T09:03:14Z</time>
      </trkpt>
      <trkpt lat="45.93965" lon="4.79632">
        <ele>207</ele>
        <time>2017-07-28T09:03:16Z</time>
      </trkpt>
      <trkpt lat="45.93966" lon="4.79638">
        <ele>207</ele>
        <time>2017-07-28T09:03:17Z</time>
      </trkpt>
      <trkpt lat="45.93966" lon="4.79648">
        <ele>207</ele>
        <time>2017-07-28T09:03:19Z</time>
      </trkpt>
      <trkpt lat="45.93966" lon="4.79653">
        <ele>207</ele>
        <time>2017-07-28T09:03:20Z</time>
      </trkpt>
      <trkpt lat="45.93966" lon="4.79662">
        <ele>208</ele>
        <time>2017-07-28T09:03:22Z</time>
      </trkpt>
      <trkpt lat="45.93967" lon="4.79667">
        <ele>208</ele>
        <time>2017-07-28T09:03:23Z</time>
      </trkpt>
      <trkpt lat="45.93967" lon="4.79677">
        <ele>207</ele>
        <time>2017-07-28T09:03:25Z</time>
      </trkpt>
      <trkpt lat="45.93967" lon="4.79682">
        <ele>207</ele>
        <time>2017-07-28T09:03:26Z</time>
      </trkpt>
      <trkpt lat="45.93966" lon="4.79694">
        <ele>207</ele>
        <time>2017-07-28T09:03:28Z</time>
      </trkpt>
      <trkpt lat="45.93967" lon="4.797">
        <ele>207</ele>
        <time>2017-07-28T09:03:29Z</time>
      </trkpt>
      <trkpt lat="45.93967" lon="4.7971">
        <ele>207</ele>
        <time>2017-07-28T09:03:31Z</time>
      </trkpt>
      <trkpt lat="45.93967" lon="4.79715">
        <ele>207</ele>
        <time>2017-07-28T09:03:32Z</time>
      </trkpt>
      <trkpt lat="45.93968" lon="4.79725">
        <ele>207</ele>
        <time>2017-07-28T09:03:34Z</time>
      </trkpt>
      <trkpt lat="45.93969" lon="4.79731">
        <ele>207</ele>
        <time>2017-07-28T09:03:35Z</time>
      </trkpt>
      <trkpt lat="45.9397" lon="4.79742">
        <ele>207</ele>
        <time>2017-07-28T09:03:37Z</time>
      </trkpt>
      <trkpt lat="45.9397" lon="4.79749">
        <ele>207</ele>
        <time>2017-07-28T09:03:38Z</time>
      </trkpt>
      <trkpt lat="45.93971" lon="4.79761">
        <ele>206</ele>
        <time>2017-07-28T09:03:40Z</time>
      </trkpt>
      <trkpt lat="45.93973" lon="4.79767">
        <ele>206</ele>
        <time>2017-07-28T09:03:41Z</time>
      </trkpt>
      <trkpt lat="45.93973" lon="4.79779">
        <ele>206</ele>
        <time>2017-07-28T09:03:43Z</time>
      </trkpt>
      <trkpt lat="45.93972" lon="4.79785">
        <ele>206</ele>
        <time>2017-07-28T09:03:44Z</time>
      </trkpt>
      <trkpt lat="45.9397" lon="4.79792">
        <ele>206</ele>
        <time>2017-07-28T09:03:45Z</time>
      </trkpt>
      <trkpt lat="45.93969" lon="4.79798">
        <ele>206</ele>
        <time>2017-07-28T09:03:46Z</time>
      </trkpt>
      <trkpt lat="45.93967" lon="4.79809">
        <ele>206</ele>
        <time>2017-07-28T09:03:48Z</time>
      </trkpt>
      <trkpt lat="45.93966" lon="4.79815">
        <ele>206</ele>
        <time>2017-07-28T09:03:49Z</time>
      </trkpt>
      <trkpt lat="45.93965" lon="4.79821">
        <ele>206</ele>
        <time>2017-07-28T09:03:50Z</time>
      </trkpt>
      <trkpt lat="45.93964" lon="4.79828">
        <ele>206</ele>
        <time>2017-07-28T09:03:51Z</time>
      </trkpt>
      <trkpt lat="45.93963" lon="4.79834">
        <ele>206</ele>
        <time>2017-07-28T09:03:52Z</time>
      </trkpt>
      <trkpt lat="45.93961" lon="4.79841">
        <ele>206</ele>
        <time>2017-07-28T09:03:53Z</time>
      </trkpt>
      <trkpt lat="45.9396" lon="4.79848">
        <ele>206</ele>
        <time>2017-07-28T09:03:54Z</time>
      </trkpt>
      <trkpt lat="45.93959" lon="4.79854">
        <ele>206</ele>
        <time>2017-07-28T09:03:55Z</time>
      </trkpt>
      <trkpt lat="45.93957" lon="4.79861">
        <ele>206</ele>
        <time>2017-07-28T09:03:56Z</time>
      </trkpt>
      <trkpt lat="45.93956" lon="4.79867">
        <ele>206</ele>
        <time>2017-07-28T09:03:57Z</time>
      </trkpt>
      <trkpt lat="45.93954" lon="4.79879">
        <ele>206</ele>
        <time>2017-07-28T09:03:59Z</time>
      </trkpt>
      <trkpt lat="45.93954" lon="4.79884">
        <ele>205</ele>
        <time>2017-07-28T09:04:00Z</time>
      </trkpt>
      <trkpt lat="45.93953" lon="4.79895">
        <ele>205</ele>
        <time>2017-07-28T09:04:02Z</time>
      </trkpt>
      <trkpt lat="45.93952" lon="4.799">
        <ele>205</ele>
        <time>2017-07-28T09:04:03Z</time>
      </trkpt>
      <trkpt lat="45.9395" lon="4.79911">
        <ele>205</ele>
        <time>2017-07-28T09:04:05Z</time>
      </trkpt>
      <trkpt lat="45.93949" lon="4.79917">
        <ele>205</ele>
        <time>2017-07-28T09:04:06Z</time>
      </trkpt>
      <trkpt lat="45.93946" lon="4.79929">
        <ele>205</ele>
        <time>2017-07-28T09:04:08Z</time>
      </trkpt>
      <trkpt lat="45.93945" lon="4.79935">
        <ele>205</ele>
        <time>2017-07-28T09:04:09Z</time>
      </trkpt>
      <trkpt lat="45.93945" lon="4.79942">
        <ele>205</ele>
        <time>2017-07-28T09:04:10Z</time>
      </trkpt>
      <trkpt lat="45.93945" lon="4.79949">
        <ele>205</ele>
        <time>2017-07-28T09:04:11Z</time>
      </trkpt>
      <trkpt lat="45.93944" lon="4.79956">
        <ele>205</ele>
        <time>2017-07-28T09:04:12Z</time>
      </trkpt>
      <trkpt lat="45.93943" lon="4.79963">
        <ele>205</ele>
        <time>2017-07-28T09:04:13Z</time>
      </trkpt>
      <trkpt lat="45.93942" lon="4.7997">
        <ele>205</ele>
        <time>2017-07-28T09:04:14Z</time>
      </trkpt>
      <trkpt lat="45.93941" lon="4.79977">
        <ele>205</ele>
        <time>2017-07-28T09:04:15Z</time>
      </trkpt>
      <trkpt lat="45.93939" lon="4.79983">
        <ele>204</ele>
        <time>2017-07-28T09:04:16Z</time>
      </trkpt>
      <trkpt lat="45.93938" lon="4.7999">
        <ele>204</ele>
        <time>2017-07-28T09:04:17Z</time>
      </trkpt>
      <trkpt lat="45.93936" lon="4.80002">
        <ele>205</ele>
        <time>2017-07-28T09:04:19Z</time>
      </trkpt>
      <trkpt lat="45.93935" lon="4.80008">
        <ele>205</ele>
        <time>2017-07-28T09:04:20Z</time>
      </trkpt>
      <trkpt lat="45.93934" lon="4.8002">
        <ele>206</ele>
        <time>2017-07-28T09:04:22Z</time>
      </trkpt>
      <trkpt lat="45.93933" lon="4.80026">
        <ele>206</ele>
        <time>2017-07-28T09:04:23Z</time>
      </trkpt>
      <trkpt lat="45.93933" lon="4.80032">
        <ele>206</ele>
        <time>2017-07-28T09:04:24Z</time>
      </trkpt>
      <trkpt lat="45.93932" lon="4.80039">
        <ele>207</ele>
        <time>2017-07-28T09:04:25Z</time>
      </trkpt>
      <trkpt lat="45.93932" lon="4.80045">
        <ele>207</ele>
        <time>2017-07-28T09:04:26Z</time>
      </trkpt>
      <trkpt lat="45.93932" lon="4.80052">
        <ele>207</ele>
        <time>2017-07-28T09:04:27Z</time>
      </trkpt>
      <trkpt lat="45.93932" lon="4.80059">
        <ele>207</ele>
        <time>2017-07-28T09:04:28Z</time>
      </trkpt>
      <trkpt lat="45.93932" lon="4.80066">
        <ele>207</ele>
        <time>2017-07-28T09:04:29Z</time>
      </trkpt>
      <trkpt lat="45.93932" lon="4.80073">
        <ele>207</ele>
        <time>2017-07-28T09:04:30Z</time>
      </trkpt>
      <trkpt lat="45.93932" lon="4.8008">
        <ele>207</ele>
        <time>2017-07-28T09:04:31Z</time>
      </trkpt>
      <trkpt lat="45.93932" lon="4.80088">
        <ele>207</ele>
        <time>2017-07-28T09:04:32Z</time>
      </trkpt>
      <trkpt lat="45.93933" lon="4.80094">
        <ele>208</ele>
        <time>2017-07-28T09:04:33Z</time>
      </trkpt>
      <trkpt lat="45.93934" lon="4.80101">
        <ele>208</ele>
        <time>2017-07-28T09:04:34Z</time>
      </trkpt>
      <trkpt lat="45.93935" lon="4.80108">
        <ele>208</ele>
        <time>2017-07-28T09:04:35Z</time>
      </trkpt>
      <trkpt lat="45.93935" lon="4.80115">
        <ele>208</ele>
        <time>2017-07-28T09:04:36Z</time>
      </trkpt>
      <trkpt lat="45.93936" lon="4.80121">
        <ele>208</ele>
        <time>2017-07-28T09:04:37Z</time>
      </trkpt>
      <trkpt lat="45.93938" lon="4.80127">
        <ele>208</ele>
        <time>2017-07-28T09:04:38Z</time>
      </trkpt>
      <trkpt lat="45.93938" lon="4.80134">
        <ele>208</ele>
        <time>2017-07-28T09:04:39Z</time>
      </trkpt>
      <trkpt lat="45.9394" lon="4.80146">
        <ele>208</ele>
        <time>2017-07-28T09:04:41Z</time>
      </trkpt>
      <trkpt lat="45.93941" lon="4.80152">
        <ele>208</ele>
        <time>2017-07-28T09:04:42Z</time>
      </trkpt>
      <trkpt lat="45.93943" lon="4.80164">
        <ele>208</ele>
        <time>2017-07-28T09:04:44Z</time>
      </trkpt>
      <trkpt lat="45.93945" lon="4.8017">
        <ele>206</ele>
        <time>2017-07-28T09:04:45Z</time>
      </trkpt>
      <trkpt lat="45.93946" lon="4.80176">
        <ele>206</ele>
        <time>2017-07-28T09:04:46Z</time>
      </trkpt>
      <trkpt lat="45.93946" lon="4.80184">
        <ele>205</ele>
        <time>2017-07-28T09:04:47Z</time>
      </trkpt>
      <trkpt lat="45.93948" lon="4.80191">
        <ele>205</ele>
        <time>2017-07-28T09:04:48Z</time>
      </trkpt>
      <trkpt lat="45.93949" lon="4.80198">
        <ele>205</ele>
        <time>2017-07-28T09:04:49Z</time>
      </trkpt>
      <trkpt lat="45.93951" lon="4.80206">
        <ele>205</ele>
        <time>2017-07-28T09:04:50Z</time>
      </trkpt>
      <trkpt lat="45.93953" lon="4.80214">
        <ele>205</ele>
        <time>2017-07-28T09:04:51Z</time>
      </trkpt>
      <trkpt lat="45.93955" lon="4.80222">
        <ele>205</ele>
        <time>2017-07-28T09:04:52Z</time>
      </trkpt>
      <trkpt lat="45.93956" lon="4.80229">
        <ele>204</ele>
        <time>2017-07-28T09:04:53Z</time>
      </trkpt>
      <trkpt lat="45.93958" lon="4.80236">
        <ele>204</ele>
        <time>2017-07-28T09:04:54Z</time>
      </trkpt>
      <trkpt lat="45.9396" lon="4.80243">
        <ele>204</ele>
        <time>2017-07-28T09:04:55Z</time>
      </trkpt>
      <trkpt lat="45.93962" lon="4.80249">
        <ele>204</ele>
        <time>2017-07-28T09:04:56Z</time>
      </trkpt>
      <trkpt lat="45.93965" lon="4.80255">
        <ele>202</ele>
        <time>2017-07-28T09:04:57Z</time>
      </trkpt>
      <trkpt lat="45.93968" lon="4.80266">
        <ele>202</ele>
        <time>2017-07-28T09:04:59Z</time>
      </trkpt>
      <trkpt lat="45.9397" lon="4.80272">
        <ele>202</ele>
        <time>2017-07-28T09:05:00Z</time>
      </trkpt>
      <trkpt lat="45.93973" lon="4.80283">
        <ele>202</ele>
        <time>2017-07-28T09:05:02Z</time>
      </trkpt>
      <trkpt lat="45.93975" lon="4.80289">
        <ele>203</ele>
        <time>2017-07-28T09:05:03Z</time>
      </trkpt>
      <trkpt lat="45.93979" lon="4.803">
        <ele>203</ele>
        <time>2017-07-28T09:05:05Z</time>
      </trkpt>
      <trkpt lat="45.9398" lon="4.80306">
        <ele>203</ele>
        <time>2017-07-28T09:05:06Z</time>
      </trkpt>
      <trkpt lat="45.93983" lon="4.80317">
        <ele>203</ele>
        <time>2017-07-28T09:05:08Z</time>
      </trkpt>
      <trkpt lat="45.93985" lon="4.80322">
        <ele>204</ele>
        <time>2017-07-28T09:05:09Z</time>
      </trkpt>
      <trkpt lat="45.93988" lon="4.80332">
        <ele>204</ele>
        <time>2017-07-28T09:05:11Z</time>
      </trkpt>
      <trkpt lat="45.93989" lon="4.80337">
        <ele>206</ele>
        <time>2017-07-28T09:05:12Z</time>
      </trkpt>
      <trkpt lat="45.93991" lon="4.80346">
        <ele>206</ele>
        <time>2017-07-28T09:05:14Z</time>
      </trkpt>
      <trkpt lat="45.93992" lon="4.80351">
        <ele>206</ele>
        <time>2017-07-28T09:05:15Z</time>
      </trkpt>
      <trkpt lat="45.93995" lon="4.80359">
        <ele>207</ele>
        <time>2017-07-28T09:05:17Z</time>
      </trkpt>
      <trkpt lat="45.93996" lon="4.80363">
        <ele>207</ele>
        <time>2017-07-28T09:05:18Z</time>
      </trkpt>
      <trkpt lat="45.93998" lon="4.80371">
        <ele>207</ele>
        <time>2017-07-28T09:05:20Z</time>
      </trkpt>
      <trkpt lat="45.93999" lon="4.80375">
        <ele>208</ele>
        <time>2017-07-28T09:05:21Z</time>
      </trkpt>
      <trkpt lat="45.94002" lon="4.80383">
        <ele>216</ele>
        <time>2017-07-28T09:05:23Z</time>
      </trkpt>
      <trkpt lat="45.94003" lon="4.80387">
        <ele>217</ele>
        <time>2017-07-28T09:05:24Z</time>
      </trkpt>
      <trkpt lat="45.94006" lon="4.80399">
        <ele>217</ele>
        <time>2017-07-28T09:05:27Z</time>
      </trkpt>
      <trkpt lat="45.94007" lon="4.80403">
        <ele>217</ele>
        <time>2017-07-28T09:05:28Z</time>
      </trkpt>
      <trkpt lat="45.9401" lon="4.80411">
        <ele>217</ele>
        <time>2017-07-28T09:05:30Z</time>
      </trkpt>
      <trkpt lat="45.94012" lon="4.80415">
        <ele>217</ele>
        <time>2017-07-28T09:05:31Z</time>
      </trkpt>
      <trkpt lat="45.94014" lon="4.80427">
        <ele>221</ele>
        <time>2017-07-28T09:05:34Z</time>
      </trkpt>
      <trkpt lat="45.94015" lon="4.80431">
        <ele>221</ele>
        <time>2017-07-28T09:05:35Z</time>
      </trkpt>
      <trkpt lat="45.94016" lon="4.80439">
        <ele>222</ele>
        <time>2017-07-28T09:05:37Z</time>
      </trkpt>
      <trkpt lat="45.94016" lon="4.80444">
        <ele>222</ele>
        <time>2017-07-28T09:05:38Z</time>
      </trkpt>
      <trkpt lat="45.94016" lon="4.80453">
        <ele>223</ele>
        <time>2017-07-28T09:05:40Z</time>
      </trkpt>
      <trkpt lat="45.94016" lon="4.80457">
        <ele>223</ele>
        <time>2017-07-28T09:05:41Z</time>
      </trkpt>
      <trkpt lat="45.94016" lon="4.80467">
        <ele>223</ele>
        <time>2017-07-28T09:05:43Z</time>
      </trkpt>
      <trkpt lat="45.94015" lon="4.80471">
        <ele>223</ele>
        <time>2017-07-28T09:05:44Z</time>
      </trkpt>
      <trkpt lat="45.94015" lon="4.80483">
        <ele>222</ele>
        <time>2017-07-28T09:05:47Z</time>
      </trkpt>
      <trkpt lat="45.94015" lon="4.80486">
        <ele>222</ele>
        <time>2017-07-28T09:05:48Z</time>
      </trkpt>
      <trkpt lat="45.94016" lon="4.80498">
        <ele>222</ele>
        <time>2017-07-28T09:05:51Z</time>
      </trkpt>
      <trkpt lat="45.94016" lon="4.80501">
        <ele>222</ele>
        <time>2017-07-28T09:05:52Z</time>
      </trkpt>
      <trkpt lat="45.94014" lon="4.80514">
        <ele>223</ele>
        <time>2017-07-28T09:05:55Z</time>
      </trkpt>
      <trkpt lat="45.94013" lon="4.80518">
        <ele>223</ele>
        <time>2017-07-28T09:05:56Z</time>
      </trkpt>
      <trkpt lat="45.94012" lon="4.8053">
        <ele>224</ele>
        <time>2017-07-28T09:05:59Z</time>
      </trkpt>
      <trkpt lat="45.94012" lon="4.80534">
        <ele>224</ele>
        <time>2017-07-28T09:06:00Z</time>
      </trkpt>
      <trkpt lat="45.94012" lon="4.80546">
        <ele>224</ele>
        <time>2017-07-28T09:06:03Z</time>
      </trkpt>
      <trkpt lat="45.94013" lon="4.8055">
        <ele>224</ele>
        <time>2017-07-28T09:06:04Z</time>
      </trkpt>
      <trkpt lat="45.94011" lon="4.80559">
        <ele>223</ele>
        <time>2017-07-28T09:06:06Z</time>
      </trkpt>
      <trkpt lat="45.94011" lon="4.80563">
        <ele>223</ele>
        <time>2017-07-28T09:06:07Z</time>
      </trkpt>
      <trkpt lat="45.9401" lon="4.80575">
        <ele>221</ele>
        <time>2017-07-28T09:06:10Z</time>
      </trkpt>
      <trkpt lat="45.9401" lon="4.80578">
        <ele>221</ele>
        <time>2017-07-28T09:06:11Z</time>
      </trkpt>
      <trkpt lat="45.9401" lon="4.80589">
        <ele>221</ele>
        <time>2017-07-28T09:06:14Z</time>
      </trkpt>
      <trkpt lat="45.9401" lon="4.80593">
        <ele>221</ele>
        <time>2017-07-28T09:06:15Z</time>
      </trkpt>
      <trkpt lat="45.9401" lon="4.80603">
        <ele>222</ele>
        <time>2017-07-28T09:06:18Z</time>
      </trkpt>
      <trkpt lat="45.9401" lon="4.80607">
        <ele>223</ele>
        <time>2017-07-28T09:06:19Z</time>
      </trkpt>
      <trkpt lat="45.94009" lon="4.80616">
        <ele>223</ele>
        <time>2017-07-28T09:06:21Z</time>
      </trkpt>
      <trkpt lat="45.9401" lon="4.8062">
        <ele>223</ele>
        <time>2017-07-28T09:06:22Z</time>
      </trkpt>
      <trkpt lat="45.9401" lon="4.8063">
        <ele>223</ele>
        <time>2017-07-28T09:06:25Z</time>
      </trkpt>
      <trkpt lat="45.94011" lon="4.80633">
        <ele>223</ele>
        <time>2017-07-28T09:06:26Z</time>
      </trkpt>
      <trkpt lat="45.94013" lon="4.80645">
        <ele>223</ele>
        <time>2017-07-28T09:06:29Z</time>
      </trkpt>
      <trkpt lat="45.94014" lon="4.8065">
        <ele>222</ele>
        <time>2017-07-28T09:06:30Z</time>
      </trkpt>
      <trkpt lat="45.94016" lon="4.8066">
        <ele>221</ele>
        <time>2017-07-28T09:06:32Z</time>
      </trkpt>
      <trkpt lat="45.94016" lon="4.80665">
        <ele>221</ele>
        <time>2017-07-28T09:06:33Z</time>
      </trkpt>
      <trkpt lat="45.94017" lon="4.80675">
        <ele>222</ele>
        <time>2017-07-28T09:06:35Z</time>
      </trkpt>
      <trkpt lat="45.94017" lon="4.8068">
        <ele>222</ele>
        <time>2017-07-28T09:06:36Z</time>
      </trkpt>
      <trkpt lat="45.94018" lon="4.80692">
        <ele>223</ele>
        <time>2017-07-28T09:06:39Z</time>
      </trkpt>
      <trkpt lat="45.94019" lon="4.80695">
        <ele>224</ele>
        <time>2017-07-28T09:06:40Z</time>
      </trkpt>
      <trkpt lat="45.9402" lon="4.80708">
        <ele>224</ele>
        <time>2017-07-28T09:06:43Z</time>
      </trkpt>
      <trkpt lat="45.9402" lon="4.80712">
        <ele>224</ele>
        <time>2017-07-28T09:06:44Z</time>
      </trkpt>
      <trkpt lat="45.94021" lon="4.80724">
        <ele>224</ele>
        <time>2017-07-28T09:06:47Z</time>
      </trkpt>
      <trkpt lat="45.94022" lon="4.80727">
        <ele>224</ele>
        <time>2017-07-28T09:06:48Z</time>
      </trkpt>
      <trkpt lat="45.94023" lon="4.80735">
        <ele>224</ele>
        <time>2017-07-28T09:06:49Z</time>
      </trkpt>
      <trkpt lat="45.94024" lon="4.80741">
        <ele>224</ele>
        <time>2017-07-28T09:06:50Z</time>
      </trkpt>
      <trkpt lat="45.94023" lon="4.8075">
        <ele>224</ele>
        <time>2017-07-28T09:06:51Z</time>
      </trkpt>
      <trkpt lat="45.94026" lon="4.80754">
        <ele>225</ele>
        <time>2017-07-28T09:06:52Z</time>
      </trkpt>
      <trkpt lat="45.94028" lon="4.80765">
        <ele>226</ele>
        <time>2017-07-28T09:06:54Z</time>
      </trkpt>
      <trkpt lat="45.94028" lon="4.80769">
        <ele>226</ele>
        <time>2017-07-28T09:06:55Z</time>
      </trkpt>
      <trkpt lat="45.9403" lon="4.8078">
        <ele>226</ele>
        <time>2017-07-28T09:06:58Z</time>
      </trkpt>
      <trkpt lat="45.94031" lon="4.80784">
        <ele>227</ele>
        <time>2017-07-28T09:06:59Z</time>
      </trkpt>
      <trkpt lat="45.94034" lon="4.80795">
        <ele>227</ele>
        <time>2017-07-28T09:07:02Z</time>
      </trkpt>
      <trkpt lat="45.94035" lon="4.80799">
        <ele>227</ele>
        <time>2017-07-28T09:07:03Z</time>
      </trkpt>
      <trkpt lat="45.94036" lon="4.80809">
        <ele>227</ele>
        <time>2017-07-28T09:07:06Z</time>
      </trkpt>
      <trkpt lat="45.94037" lon="4.80812">
        <ele>227</ele>
        <time>2017-07-28T09:07:07Z</time>
      </trkpt>
      <trkpt lat="45.94039" lon="4.80822">
        <ele>228</ele>
        <time>2017-07-28T09:07:10Z</time>
      </trkpt>
      <trkpt lat="45.9404" lon="4.80825">
        <ele>228</ele>
        <time>2017-07-28T09:07:11Z</time>
      </trkpt>
      <trkpt lat="45.94041" lon="4.80835">
        <ele>228</ele>
        <time>2017-07-28T09:07:14Z</time>
      </trkpt>
      <trkpt lat="45.94042" lon="4.80838">
        <ele>228</ele>
        <time>2017-07-28T09:07:15Z</time>
      </trkpt>
      <trkpt lat="45.94044" lon="4.80849">
        <ele>229</ele>
        <time>2017-07-28T09:07:18Z</time>
      </trkpt>
      <trkpt lat="45.94045" lon="4.80854">
        <ele>229</ele>
        <time>2017-07-28T09:07:19Z</time>
      </trkpt>
      <trkpt lat="45.94045" lon="4.80867">
        <ele>229</ele>
        <time>2017-07-28T09:07:22Z</time>
      </trkpt>
      <trkpt lat="45.94046" lon="4.80871">
        <ele>229</ele>
        <time>2017-07-28T09:07:23Z</time>
      </trkpt>
      <trkpt lat="45.94049" lon="4.80882">
        <ele>229</ele>
        <time>2017-07-28T09:07:26Z</time>
      </trkpt>
      <trkpt lat="45.94049" lon="4.80885">
        <ele>230</ele>
        <time>2017-07-28T09:07:27Z</time>
      </trkpt>
      <trkpt lat="45.94051" lon="4.80896">
        <ele>230</ele>
        <time>2017-07-28T09:07:30Z</time>
      </trkpt>
      <trkpt lat="45.94051" lon="4.809">
        <ele>230</ele>
        <time>2017-07-28T09:07:31Z</time>
      </trkpt>
      <trkpt lat="45.94054" lon="4.8091">
        <ele>231</ele>
        <time>2017-07-28T09:07:34Z</time>
      </trkpt>
      <trkpt lat="45.94054" lon="4.80914">
        <ele>231</ele>
        <time>2017-07-28T09:07:35Z</time>
      </trkpt>
      <trkpt lat="45.94056" lon="4.80924">
        <ele>232</ele>
        <time>2017-07-28T09:07:38Z</time>
      </trkpt>
      <trkpt lat="45.94057" lon="4.80928">
        <ele>232</ele>
        <time>2017-07-28T09:07:39Z</time>
      </trkpt>
      <trkpt lat="45.94059" lon="4.8094">
        <ele>232</ele>
        <time>2017-07-28T09:07:42Z</time>
      </trkpt>
      <trkpt lat="45.94059" lon="4.80944">
        <ele>232</ele>
        <time>2017-07-28T09:07:43Z</time>
      </trkpt>
      <trkpt lat="45.94061" lon="4.80956">
        <ele>232</ele>
        <time>2017-07-28T09:07:46Z</time>
      </trkpt>
      <trkpt lat="45.94061" lon="4.80959">
        <ele>232</ele>
        <time>2017-07-28T09:07:47Z</time>
      </trkpt>
      <trkpt lat="45.94063" lon="4.80969">
        <ele>232</ele>
        <time>2017-07-28T09:07:50Z</time>
      </trkpt>
      <trkpt lat="45.94064" lon="4.80973">
        <ele>232</ele>
        <time>2017-07-28T09:07:51Z</time>
      </trkpt>
      <trkpt lat="45.94067" lon="4.80981">
        <ele>233</ele>
        <time>2017-07-28T09:07:54Z</time>
      </trkpt>
      <trkpt lat="45.94068" lon="4.80985">
        <ele>234</ele>
        <time>2017-07-28T09:07:55Z</time>
      </trkpt>
      <trkpt lat="45.9407" lon="4.80994">
        <ele>235</ele>
        <time>2017-07-28T09:07:58Z</time>
      </trkpt>
      <trkpt lat="45.94071" lon="4.80998">
        <ele>236</ele>
        <time>2017-07-28T09:07:59Z</time>
      </trkpt>
      <trkpt lat="45.94072" lon="4.81009">
        <ele>236</ele>
        <time>2017-07-28T09:08:02Z</time>
      </trkpt>
      <trkpt lat="45.94073" lon="4.81013">
        <ele>235</ele>
        <time>2017-07-28T09:08:03Z</time>
      </trkpt>
      <trkpt lat="45.94075" lon="4.81021">
        <ele>234</ele>
        <time>2017-07-28T09:08:05Z</time>
      </trkpt>
      <trkpt lat="45.94075" lon="4.81026">
        <ele>234</ele>
        <time>2017-07-28T09:08:06Z</time>
      </trkpt>
      <trkpt lat="45.94078" lon="4.81037">
        <ele>234</ele>
        <time>2017-07-28T09:08:09Z</time>
      </trkpt>
      <trkpt lat="45.94079" lon="4.81041">
        <ele>233</ele>
        <time>2017-07-28T09:08:10Z</time>
      </trkpt>
      <trkpt lat="45.94082" lon="4.81052">
        <ele>233</ele>
        <time>2017-07-28T09:08:13Z</time>
      </trkpt>
      <trkpt lat="45.94083" lon="4.81055">
        <ele>234</ele>
        <time>2017-07-28T09:08:14Z</time>
      </trkpt>
      <trkpt lat="45.94085" lon="4.81065">
        <ele>242</ele>
        <time>2017-07-28T09:08:17Z</time>
      </trkpt>
      <trkpt lat="45.94086" lon="4.81068">
        <ele>241</ele>
        <time>2017-07-28T09:08:18Z</time>
      </trkpt>
      <trkpt lat="45.94091" lon="4.81077">
        <ele>240</ele>
        <time>2017-07-28T09:08:21Z</time>
      </trkpt>
      <trkpt lat="45.94093" lon="4.8108">
        <ele>240</ele>
        <time>2017-07-28T09:08:22Z</time>
      </trkpt>
      <trkpt lat="45.94097" lon="4.8109">
        <ele>240</ele>
        <time>2017-07-28T09:08:25Z</time>
      </trkpt>
      <trkpt lat="45.94099" lon="4.81093">
        <ele>240</ele>
        <time>2017-07-28T09:08:26Z</time>
      </trkpt>
      <trkpt lat="45.94105" lon="4.81101">
        <ele>241</ele>
        <time>2017-07-28T09:08:29Z</time>
      </trkpt>
      <trkpt lat="45.94107" lon="4.81104">
        <ele>242</ele>
        <time>2017-07-28T09:08:30Z</time>
      </trkpt>
      <trkpt lat="45.94111" lon="4.81113">
        <ele>242</ele>
        <time>2017-07-28T09:08:33Z</time>
      </trkpt>
      <trkpt lat="45.94113" lon="4.81117">
        <ele>242</ele>
        <time>2017-07-28T09:08:34Z</time>
      </trkpt>
      <trkpt lat="45.94118" lon="4.81127">
        <ele>243</ele>
        <time>2017-07-28T09:08:37Z</time>
      </trkpt>
      <trkpt lat="45.94119" lon="4.8113">
        <ele>243</ele>
        <time>2017-07-28T09:08:38Z</time>
      </trkpt>
      <trkpt lat="45.94122" lon="4.8114">
        <ele>243</ele>
        <time>2017-07-28T09:08:41Z</time>
      </trkpt>
      <trkpt lat="45.94124" lon="4.81144">
        <ele>243</ele>
        <time>2017-07-28T09:08:42Z</time>
      </trkpt>
      <trkpt lat="45.94128" lon="4.81154">
        <ele>243</ele>
        <time>2017-07-28T09:08:45Z</time>
      </trkpt>
      <trkpt lat="45.94129" lon="4.81157">
        <ele>243</ele>
        <time>2017-07-28T09:08:46Z</time>
      </trkpt>
      <trkpt lat="45.94134" lon="4.81165">
        <ele>244</ele>
        <time>2017-07-28T09:08:49Z</time>
      </trkpt>
      <trkpt lat="45.94135" lon="4.81168">
        <ele>243</ele>
        <time>2017-07-28T09:08:50Z</time>
      </trkpt>
      <trkpt lat="45.94138" lon="4.81177">
        <ele>244</ele>
        <time>2017-07-28T09:08:53Z</time>
      </trkpt>
      <trkpt lat="45.9414" lon="4.81181">
        <ele>244</ele>
        <time>2017-07-28T09:08:54Z</time>
      </trkpt>
      <trkpt lat="45.94141" lon="4.8119">
        <ele>244</ele>
        <time>2017-07-28T09:08:56Z</time>
      </trkpt>
      <trkpt lat="45.94142" lon="4.81195">
        <ele>244</ele>
        <time>2017-07-28T09:08:57Z</time>
      </trkpt>
      <trkpt lat="45.94145" lon="4.81204">
        <ele>244</ele>
        <time>2017-07-28T09:08:59Z</time>
      </trkpt>
      <trkpt lat="45.94146" lon="4.81207">
        <ele>244</ele>
        <time>2017-07-28T09:09:00Z</time>
      </trkpt>
      <trkpt lat="45.94149" lon="4.81218">
        <ele>244</ele>
        <time>2017-07-28T09:09:03Z</time>
      </trkpt>
      <trkpt lat="45.9415" lon="4.81222">
        <ele>245</ele>
        <time>2017-07-28T09:09:04Z</time>
      </trkpt>
      <trkpt lat="45.94153" lon="4.81233">
        <ele>246</ele>
        <time>2017-07-28T09:09:07Z</time>
      </trkpt>
      <trkpt lat="45.94154" lon="4.81237">
        <ele>246</ele>
        <time>2017-07-28T09:09:08Z</time>
      </trkpt>
      <trkpt lat="45.94157" lon="4.81247">
        <ele>247</ele>
        <time>2017-07-28T09:09:11Z</time>
      </trkpt>
      <trkpt lat="45.94157" lon="4.81251">
        <ele>248</ele>
        <time>2017-07-28T09:09:12Z</time>
      </trkpt>
      <trkpt lat="45.94158" lon="4.81261">
        <ele>248</ele>
        <time>2017-07-28T09:09:15Z</time>
      </trkpt>
      <trkpt lat="45.94158" lon="4.81265">
        <ele>248</ele>
        <time>2017-07-28T09:09:16Z</time>
      </trkpt>
      <trkpt lat="45.94158" lon="4.81277">
        <ele>247</ele>
        <time>2017-07-28T09:09:19Z</time>
      </trkpt>
      <trkpt lat="45.94158" lon="4.81281">
        <ele>247</ele>
        <time>2017-07-28T09:09:20Z</time>
      </trkpt>
      <trkpt lat="45.94158" lon="4.81293">
        <ele>247</ele>
        <time>2017-07-28T09:09:24Z</time>
      </trkpt>
      <trkpt lat="45.94158" lon="4.81295">
        <ele>247</ele>
        <time>2017-07-28T09:09:25Z</time>
      </trkpt>
      <trkpt lat="45.94159" lon="4.81308">
        <ele>248</ele>
        <time>2017-07-28T09:09:29Z</time>
      </trkpt>
      <trkpt lat="45.94158" lon="4.81312">
        <ele>248</ele>
        <time>2017-07-28T09:09:30Z</time>
      </trkpt>
      <trkpt lat="45.94156" lon="4.81322">
        <ele>249</ele>
        <time>2017-07-28T09:09:33Z</time>
      </trkpt>
      <trkpt lat="45.94154" lon="4.81326">
        <ele>249</ele>
        <time>2017-07-28T09:09:34Z</time>
      </trkpt>
      <trkpt lat="45.94155" lon="4.81337">
        <ele>251</ele>
        <time>2017-07-28T09:09:37Z</time>
      </trkpt>
      <trkpt lat="45.94154" lon="4.81341">
        <ele>251</ele>
        <time>2017-07-28T09:09:38Z</time>
      </trkpt>
      <trkpt lat="45.94153" lon="4.81351">
        <ele>250</ele>
        <time>2017-07-28T09:09:41Z</time>
      </trkpt>
      <trkpt lat="45.94152" lon="4.81355">
        <ele>250</ele>
        <time>2017-07-28T09:09:42Z</time>
      </trkpt>
      <trkpt lat="45.9415" lon="4.81366">
        <ele>250</ele>
        <time>2017-07-28T09:09:45Z</time>
      </trkpt>
      <trkpt lat="45.9415" lon="4.8137">
        <ele>250</ele>
        <time>2017-07-28T09:09:46Z</time>
      </trkpt>
      <trkpt lat="45.94147" lon="4.81381">
        <ele>250</ele>
        <time>2017-07-28T09:09:49Z</time>
      </trkpt>
      <trkpt lat="45.94146" lon="4.81384">
        <ele>251</ele>
        <time>2017-07-28T09:09:50Z</time>
      </trkpt>
      <trkpt lat="45.94145" lon="4.81395">
        <ele>251</ele>
        <time>2017-07-28T09:09:53Z</time>
      </trkpt>
      <trkpt lat="45.94144" lon="4.81399">
        <ele>251</ele>
        <time>2017-07-28T09:09:54Z</time>
      </trkpt>
      <trkpt lat="45.94143" lon="4.81406">
        <ele>251</ele>
        <time>2017-07-28T09:09:56Z</time>
      </trkpt>
      <trkpt lat="45.94142" lon="4.81411">
        <ele>251</ele>
        <time>2017-07-28T09:09:57Z</time>
      </trkpt>
      <trkpt lat="45.9414" lon="4.81422">
        <ele>255</ele>
        <time>2017-07-28T09:10:00Z</time>
      </trkpt>
      <trkpt lat="45.94139" lon="4.81424">
        <ele>255</ele>
        <time>2017-07-28T09:10:01Z</time>
      </trkpt>
      <trkpt lat="45.94139" lon="4.81437">
        <ele>256</ele>
        <time>2017-07-28T09:10:05Z</time>
      </trkpt>
      <trkpt lat="45.94139" lon="4.8144">
        <ele>256</ele>
        <time>2017-07-28T09:10:06Z</time>
      </trkpt>
      <trkpt lat="45.94138" lon="4.81452">
        <ele>256</ele>
        <time>2017-07-28T09:10:10Z</time>
      </trkpt>
      <trkpt lat="45.94138" lon="4.81456">
        <ele>256</ele>
        <time>2017-07-28T09:10:11Z</time>
      </trkpt>
      <trkpt lat="45.94137" lon="4.81466">
        <ele>257</ele>
        <time>2017-07-28T09:10:14Z</time>
      </trkpt>
      <trkpt lat="45.94136" lon="4.81469">
        <ele>257</ele>
        <time>2017-07-28T09:10:15Z</time>
      </trkpt>
      <trkpt lat="45.94138" lon="4.81481">
        <ele>258</ele>
        <time>2017-07-28T09:10:19Z</time>
      </trkpt>
      <trkpt lat="45.94137" lon="4.81484">
        <ele>258</ele>
        <time>2017-07-28T09:10:20Z</time>
      </trkpt>
      <trkpt lat="45.94136" lon="4.81495">
        <ele>258</ele>
        <time>2017-07-28T09:10:23Z</time>
      </trkpt>
      <trkpt lat="45.94136" lon="4.81499">
        <ele>258</ele>
        <time>2017-07-28T09:10:24Z</time>
      </trkpt>
      <trkpt lat="45.94136" lon="4.81509">
        <ele>263</ele>
        <time>2017-07-28T09:10:27Z</time>
      </trkpt>
      <trkpt lat="45.94135" lon="4.81516">
        <ele>263</ele>
        <time>2017-07-28T09:10:28Z</time>
      </trkpt>
      <trkpt lat="45.94134" lon="4.81528">
        <ele>263</ele>
        <time>2017-07-28T09:10:30Z</time>
      </trkpt>
      <trkpt lat="45.94134" lon="4.81535">
        <ele>263</ele>
        <time>2017-07-28T09:10:31Z</time>
      </trkpt>
      <trkpt lat="45.94135" lon="4.81545">
        <ele>264</ele>
        <time>2017-07-28T09:10:33Z</time>
      </trkpt>
      <trkpt lat="45.94136" lon="4.8155">
        <ele>264</ele>
        <time>2017-07-28T09:10:34Z</time>
      </trkpt>
      <trkpt lat="45.94136" lon="4.8156">
        <ele>264</ele>
        <time>2017-07-28T09:10:36Z</time>
      </trkpt>
      <trkpt lat="45.94137" lon="4.81564">
        <ele>264</ele>
        <time>2017-07-28T09:10:37Z</time>
      </trkpt>
      <trkpt lat="45.94138" lon="4.81573">
        <ele>265</ele>
        <time>2017-07-28T09:10:39Z</time>
      </trkpt>
      <trkpt lat="45.94138" lon="4.81578">
        <ele>265</ele>
        <time>2017-07-28T09:10:40Z</time>
      </trkpt>
      <trkpt lat="45.94138" lon="4.81587">
        <ele>267</ele>
        <time>2017-07-28T09:10:42Z</time>
      </trkpt>
      <trkpt lat="45.94138" lon="4.81592">
        <ele>267</ele>
        <time>2017-07-28T09:10:43Z</time>
      </trkpt>
      <trkpt lat="45.94139" lon="4.81601">
        <ele>267</ele>
        <time>2017-07-28T09:10:45Z</time>
      </trkpt>
      <trkpt lat="45.94139" lon="4.81606">
        <ele>267</ele>
        <time>2017-07-28T09:10:46Z</time>
      </trkpt>
      <trkpt lat="45.94139" lon="4.81614">
        <ele>267</ele>
        <time>2017-07-28T09:10:48Z</time>
      </trkpt>
      <trkpt lat="45.9414" lon="4.81619">
        <ele>268</ele>
        <time>2017-07-28T09:10:49Z</time>
      </trkpt>
      <trkpt lat="45.94141" lon="4.81631">
        <ele>268</ele>
        <time>2017-07-28T09:10:52Z</time>
      </trkpt>
      <trkpt lat="45.94141" lon="4.81634">
        <ele>268</ele>
        <time>2017-07-28T09:10:53Z</time>
      </trkpt>
      <trkpt lat="45.94143" lon="4.81646">
        <ele>268</ele>
        <time>2017-07-28T09:10:56Z</time>
      </trkpt>
      <trkpt lat="45.94144" lon="4.81651">
        <ele>268</ele>
        <time>2017-07-28T09:10:57Z</time>
      </trkpt>
      <trkpt lat="45.94145" lon="4.81663">
        <ele>268</ele>
        <time>2017-07-28T09:11:00Z</time>
      </trkpt>
      <trkpt lat="45.94146" lon="4.81667">
        <ele>268</ele>
        <time>2017-07-28T09:11:01Z</time>
      </trkpt>
      <trkpt lat="45.94148" lon="4.81676">
        <ele>268</ele>
        <time>2017-07-28T09:11:03Z</time>
      </trkpt>
      <trkpt lat="45.94149" lon="4.81681">
        <ele>268</ele>
        <time>2017-07-28T09:11:04Z</time>
      </trkpt>
      <trkpt lat="45.94151" lon="4.8169">
        <ele>268</ele>
        <time>2017-07-28T09:11:06Z</time>
      </trkpt>
      <trkpt lat="45.94152" lon="4.81695">
        <ele>268</ele>
        <time>2017-07-28T09:11:07Z</time>
      </trkpt>
      <trkpt lat="45.94152" lon="4.81706">
        <ele>268</ele>
        <time>2017-07-28T09:11:09Z</time>
      </trkpt>
      <trkpt lat="45.94152" lon="4.8171">
        <ele>268</ele>
        <time>2017-07-28T09:11:10Z</time>
      </trkpt>
      <trkpt lat="45.94152" lon="4.8172">
        <ele>268</ele>
        <time>2017-07-28T09:11:12Z</time>
      </trkpt>
      <trkpt lat="45.94155" lon="4.81724">
        <ele>268</ele>
        <time>2017-07-28T09:11:13Z</time>
      </trkpt>
      <trkpt lat="45.94159" lon="4.8173">
        <ele>268</ele>
        <time>2017-07-28T09:11:14Z</time>
      </trkpt>
      <trkpt lat="45.94166" lon="4.81734">
        <ele>268</ele>
        <time>2017-07-28T09:11:15Z</time>
      </trkpt>
      <trkpt lat="45.9417" lon="4.81738">
        <ele>267</ele>
        <time>2017-07-28T09:11:16Z</time>
      </trkpt>
      <trkpt lat="45.94175" lon="4.81741">
        <ele>267</ele>
        <time>2017-07-28T09:11:17Z</time>
      </trkpt>
      <trkpt lat="45.94178" lon="4.81751">
        <ele>267</ele>
        <time>2017-07-28T09:11:19Z</time>
      </trkpt>
      <trkpt lat="45.9418" lon="4.81756">
        <ele>267</ele>
        <time>2017-07-28T09:11:20Z</time>
      </trkpt>
      <trkpt lat="45.94183" lon="4.81766">
        <ele>267</ele>
        <time>2017-07-28T09:11:22Z</time>
      </trkpt>
      <trkpt lat="45.94183" lon="4.8177">
        <ele>266</ele>
        <time>2017-07-28T09:11:23Z</time>
      </trkpt>
      <trkpt lat="45.94185" lon="4.81778">
        <ele>266</ele>
        <time>2017-07-28T09:11:25Z</time>
      </trkpt>
      <trkpt lat="45.94185" lon="4.81787">
        <ele>266</ele>
        <time>2017-07-28T09:11:26Z</time>
      </trkpt>
      <trkpt lat="45.94187" lon="4.81795">
        <ele>266</ele>
        <time>2017-07-28T09:11:28Z</time>
      </trkpt>
      <trkpt lat="45.94188" lon="4.818">
        <ele>266</ele>
        <time>2017-07-28T09:11:29Z</time>
      </trkpt>
      <trkpt lat="45.9419" lon="4.8181">
        <ele>266</ele>
        <time>2017-07-28T09:11:31Z</time>
      </trkpt>
      <trkpt lat="45.94192" lon="4.81817">
        <ele>266</ele>
        <time>2017-07-28T09:11:32Z</time>
      </trkpt>
      <trkpt lat="45.94193" lon="4.81824">
        <ele>266</ele>
        <time>2017-07-28T09:11:33Z</time>
      </trkpt>
      <trkpt lat="45.94195" lon="4.81831">
        <ele>266</ele>
        <time>2017-07-28T09:11:34Z</time>
      </trkpt>
      <trkpt lat="45.94196" lon="4.81843">
        <ele>266</ele>
        <time>2017-07-28T09:11:36Z</time>
      </trkpt>
      <trkpt lat="45.94197" lon="4.81848">
        <ele>266</ele>
        <time>2017-07-28T09:11:37Z</time>
      </trkpt>
      <trkpt lat="45.942" lon="4.81859">
        <ele>266</ele>
        <time>2017-07-28T09:11:39Z</time>
      </trkpt>
      <trkpt lat="45.94202" lon="4.81865">
        <ele>266</ele>
        <time>2017-07-28T09:11:40Z</time>
      </trkpt>
      <trkpt lat="45.94205" lon="4.81877">
        <ele>265</ele>
        <time>2017-07-28T09:11:42Z</time>
      </trkpt>
      <trkpt lat="45.94206" lon="4.81882">
        <ele>265</ele>
        <time>2017-07-28T09:11:43Z</time>
      </trkpt>
      <trkpt lat="45.94208" lon="4.81893">
        <ele>265</ele>
        <time>2017-07-28T09:11:45Z</time>
      </trkpt>
      <trkpt lat="45.9421" lon="4.81899">
        <ele>265</ele>
        <time>2017-07-28T09:11:46Z</time>
      </trkpt>
      <trkpt lat="45.94213" lon="4.81909">
        <ele>265</ele>
        <time>2017-07-28T09:11:48Z</time>
      </trkpt>
      <trkpt lat="45.94214" lon="4.81914">
        <ele>265</ele>
        <time>2017-07-28T09:11:49Z</time>
      </trkpt>
      <trkpt lat="45.94217" lon="4.81924">
        <ele>264</ele>
        <time>2017-07-28T09:11:51Z</time>
      </trkpt>
      <trkpt lat="45.94218" lon="4.81929">
        <ele>264</ele>
        <time>2017-07-28T09:11:52Z</time>
      </trkpt>
      <trkpt lat="45.9422" lon="4.81939">
        <ele>264</ele>
        <time>2017-07-28T09:11:54Z</time>
      </trkpt>
      <trkpt lat="45.94222" lon="4.81944">
        <ele>264</ele>
        <time>2017-07-28T09:11:55Z</time>
      </trkpt>
      <trkpt lat="45.94224" lon="4.81953">
        <ele>264</ele>
        <time>2017-07-28T09:11:57Z</time>
      </trkpt>
      <trkpt lat="45.94225" lon="4.81959">
        <ele>264</ele>
        <time>2017-07-28T09:11:58Z</time>
      </trkpt>
      <trkpt lat="45.94227" lon="4.8197">
        <ele>264</ele>
        <time>2017-07-28T09:12:00Z</time>
      </trkpt>
      <trkpt lat="45.94228" lon="4.81976">
        <ele>264</ele>
        <time>2017-07-28T09:12:01Z</time>
      </trkpt>
      <trkpt lat="45.94231" lon="4.81988">
        <ele>263</ele>
        <time>2017-07-28T09:12:03Z</time>
      </trkpt>
      <trkpt lat="45.94232" lon="4.81994">
        <ele>263</ele>
        <time>2017-07-28T09:12:04Z</time>
      </trkpt>
      <trkpt lat="45.94234" lon="4.82006">
        <ele>263</ele>
        <time>2017-07-28T09:12:06Z</time>
      </trkpt>
      <trkpt lat="45.94235" lon="4.82012">
        <ele>263</ele>
        <time>2017-07-28T09:12:07Z</time>
      </trkpt>
      <trkpt lat="45.94237" lon="4.82023">
        <ele>263</ele>
        <time>2017-07-28T09:12:09Z</time>
      </trkpt>
      <trkpt lat="45.94238" lon="4.82028">
        <ele>263</ele>
        <time>2017-07-28T09:12:10Z</time>
      </trkpt>
      <trkpt lat="45.9424" lon="4.82038">
        <ele>263</ele>
        <time>2017-07-28T09:12:12Z</time>
      </trkpt>
      <trkpt lat="45.9424" lon="4.82043">
        <ele>263</ele>
        <time>2017-07-28T09:12:13Z</time>
      </trkpt>
      <trkpt lat="45.94243" lon="4.82054">
        <ele>263</ele>
        <time>2017-07-28T09:12:15Z</time>
      </trkpt>
      <trkpt lat="45.94244" lon="4.8206">
        <ele>263</ele>
        <time>2017-07-28T09:12:16Z</time>
      </trkpt>
      <trkpt lat="45.94245" lon="4.82066">
        <ele>263</ele>
        <time>2017-07-28T09:12:17Z</time>
      </trkpt>
      <trkpt lat="45.94247" lon="4.82072">
        <ele>263</ele>
        <time>2017-07-28T09:12:18Z</time>
      </trkpt>
      <trkpt lat="45.94248" lon="4.82079">
        <ele>262</ele>
        <time>2017-07-28T09:12:19Z</time>
      </trkpt>
      <trkpt lat="45.9425" lon="4.82086">
        <ele>262</ele>
        <time>2017-07-28T09:12:20Z</time>
      </trkpt>
      <trkpt lat="45.94251" lon="4.82094">
        <ele>262</ele>
        <time>2017-07-28T09:12:21Z</time>
      </trkpt>
      <trkpt lat="45.94253" lon="4.82102">
        <ele>262</ele>
        <time>2017-07-28T09:12:22Z</time>
      </trkpt>
      <trkpt lat="45.94255" lon="4.8211">
        <ele>263</ele>
        <time>2017-07-28T09:12:23Z</time>
      </trkpt>
      <trkpt lat="45.94257" lon="4.82118">
        <ele>263</ele>
        <time>2017-07-28T09:12:24Z</time>
      </trkpt>
      <trkpt lat="45.94258" lon="4.82126">
        <ele>263</ele>
        <time>2017-07-28T09:12:25Z</time>
      </trkpt>
      <trkpt lat="45.9426" lon="4.82133">
        <ele>263</ele>
        <time>2017-07-28T09:12:26Z</time>
      </trkpt>
      <trkpt lat="45.94262" lon="4.82141">
        <ele>263</ele>
        <time>2017-07-28T09:12:27Z</time>
      </trkpt>
      <trkpt lat="45.94264" lon="4.82148">
        <ele>263</ele>
        <time>2017-07-28T09:12:28Z</time>
      </trkpt>
      <trkpt lat="45.94265" lon="4.82155">
        <ele>263</ele>
        <time>2017-07-28T09:12:29Z</time>
      </trkpt>
      <trkpt lat="45.94267" lon="4.82163">
        <ele>263</ele>
        <time>2017-07-28T09:12:30Z</time>
      </trkpt>
      <trkpt lat="45.94268" lon="4.8217">
        <ele>263</ele>
        <time>2017-07-28T09:12:31Z</time>
      </trkpt>
      <trkpt lat="45.94269" lon="4.82177">
        <ele>264</ele>
        <time>2017-07-28T09:12:32Z</time>
      </trkpt>
      <trkpt lat="45.9427" lon="4.82184">
        <ele>264</ele>
        <time>2017-07-28T09:12:33Z</time>
      </trkpt>
      <trkpt lat="45.94272" lon="4.82191">
        <ele>264</ele>
        <time>2017-07-28T09:12:34Z</time>
      </trkpt>
      <trkpt lat="45.94273" lon="4.82198">
        <ele>264</ele>
        <time>2017-07-28T09:12:35Z</time>
      </trkpt>
      <trkpt lat="45.94275" lon="4.82205">
        <ele>264</ele>
        <time>2017-07-28T09:12:36Z</time>
      </trkpt>
      <trkpt lat="45.94276" lon="4.82211">
        <ele>264</ele>
        <time>2017-07-28T09:12:37Z</time>
      </trkpt>
      <trkpt lat="45.94276" lon="4.82218">
        <ele>264</ele>
        <time>2017-07-28T09:12:38Z</time>
      </trkpt>
      <trkpt lat="45.94277" lon="4.8223">
        <ele>264</ele>
        <time>2017-07-28T09:12:40Z</time>
      </trkpt>
      <trkpt lat="45.94278" lon="4.82237">
        <ele>264</ele>
        <time>2017-07-28T09:12:41Z</time>
      </trkpt>
      <trkpt lat="45.94278" lon="4.82244">
        <ele>264</ele>
        <time>2017-07-28T09:12:42Z</time>
      </trkpt>
      <trkpt lat="45.94279" lon="4.82251">
        <ele>265</ele>
        <time>2017-07-28T09:12:43Z</time>
      </trkpt>
      <trkpt lat="45.9428" lon="4.82259">
        <ele>265</ele>
        <time>2017-07-28T09:12:44Z</time>
      </trkpt>
      <trkpt lat="45.9428" lon="4.82267">
        <ele>265</ele>
        <time>2017-07-28T09:12:45Z</time>
      </trkpt>
      <trkpt lat="45.9428" lon="4.82275">
        <ele>265</ele>
        <time>2017-07-28T09:12:46Z</time>
      </trkpt>
      <trkpt lat="45.9428" lon="4.82284">
        <ele>265</ele>
        <time>2017-07-28T09:12:47Z</time>
      </trkpt>
      <trkpt lat="45.9428" lon="4.82292">
        <ele>265</ele>
        <time>2017-07-28T09:12:48Z</time>
      </trkpt>
      <trkpt lat="45.94281" lon="4.823">
        <ele>265</ele>
        <time>2017-07-28T09:12:49Z</time>
      </trkpt>
      <trkpt lat="45.94281" lon="4.82307">
        <ele>265</ele>
        <time>2017-07-28T09:12:50Z</time>
      </trkpt>
      <trkpt lat="45.94281" lon="4.82315">
        <ele>265</ele>
        <time>2017-07-28T09:12:51Z</time>
      </trkpt>
      <trkpt lat="45.94281" lon="4.82322">
        <ele>265</ele>
        <time>2017-07-28T09:12:52Z</time>
      </trkpt>
      <trkpt lat="45.94282" lon="4.82328">
        <ele>265</ele>
        <time>2017-07-28T09:12:53Z</time>
      </trkpt>
      <trkpt lat="45.94282" lon="4.82341">
        <ele>264</ele>
        <time>2017-07-28T09:12:55Z</time>
      </trkpt>
      <trkpt lat="45.94283" lon="4.82347">
        <ele>264</ele>
        <time>2017-07-28T09:12:56Z</time>
      </trkpt>
      <trkpt lat="45.94283" lon="4.82354">
        <ele>264</ele>
        <time>2017-07-28T09:12:57Z</time>
      </trkpt>
      <trkpt lat="45.94283" lon="4.82361">
        <ele>264</ele>
        <time>2017-07-28T09:12:58Z</time>
      </trkpt>
      <trkpt lat="45.94283" lon="4.82368">
        <ele>264</ele>
        <time>2017-07-28T09:12:59Z</time>
      </trkpt>
      <trkpt lat="45.94284" lon="4.82376">
        <ele>264</ele>
        <time>2017-07-28T09:13:00Z</time>
      </trkpt>
      <trkpt lat="45.94284" lon="4.82384">
        <ele>264</ele>
        <time>2017-07-28T09:13:01Z</time>
      </trkpt>
      <trkpt lat="45.94284" lon="4.82392">
        <ele>264</ele>
        <time>2017-07-28T09:13:02Z</time>
      </trkpt>
      <trkpt lat="45.94285" lon="4.824">
        <ele>264</ele>
        <time>2017-07-28T09:13:03Z</time>
      </trkpt>
      <trkpt lat="45.94286" lon="4.82408">
        <ele>264</ele>
        <time>2017-07-28T09:13:04Z</time>
      </trkpt>
      <trkpt lat="45.94286" lon="4.82415">
        <ele>264</ele>
        <time>2017-07-28T09:13:05Z</time>
      </trkpt>
      <trkpt lat="45.94286" lon="4.82422">
        <ele>264</ele>
        <time>2017-07-28T09:13:06Z</time>
      </trkpt>
      <trkpt lat="45.94287" lon="4.82434">
        <ele>264</ele>
        <time>2017-07-28T09:13:08Z</time>
      </trkpt>
      <trkpt lat="45.94287" lon="4.8244">
        <ele>264</ele>
        <time>2017-07-28T09:13:09Z</time>
      </trkpt>
      <trkpt lat="45.94288" lon="4.82452">
        <ele>264</ele>
        <time>2017-07-28T09:13:11Z</time>
      </trkpt>
      <trkpt lat="45.94289" lon="4.82459">
        <ele>264</ele>
        <time>2017-07-28T09:13:12Z</time>
      </trkpt>
      <trkpt lat="45.94289" lon="4.82466">
        <ele>264</ele>
        <time>2017-07-28T09:13:13Z</time>
      </trkpt>
      <trkpt lat="45.94289" lon="4.82473">
        <ele>264</ele>
        <time>2017-07-28T09:13:14Z</time>
      </trkpt>
      <trkpt lat="45.94289" lon="4.82481">
        <ele>264</ele>
        <time>2017-07-28T09:13:15Z</time>
      </trkpt>
      <trkpt lat="45.94289" lon="4.82489">
        <ele>264</ele>
        <time>2017-07-28T09:13:16Z</time>
      </trkpt>
      <trkpt lat="45.94289" lon="4.82497">
        <ele>264</ele>
        <time>2017-07-28T09:13:17Z</time>
      </trkpt>
      <trkpt lat="45.94289" lon="4.82505">
        <ele>264</ele>
        <time>2017-07-28T09:13:18Z</time>
      </trkpt>
      <trkpt lat="45.94289" lon="4.82513">
        <ele>264</ele>
        <time>2017-07-28T09:13:19Z</time>
      </trkpt>
      <trkpt lat="45.94289" lon="4.82521">
        <ele>264</ele>
        <time>2017-07-28T09:13:20Z</time>
      </trkpt>
      <trkpt lat="45.94289" lon="4.82528">
        <ele>264</ele>
        <time>2017-07-28T09:13:21Z</time>
      </trkpt>
      <trkpt lat="45.94289" lon="4.82536">
        <ele>264</ele>
        <time>2017-07-28T09:13:22Z</time>
      </trkpt>
      <trkpt lat="45.94289" lon="4.82543">
        <ele>264</ele>
        <time>2017-07-28T09:13:23Z</time>
      </trkpt>
      <trkpt lat="45.94288" lon="4.8255">
        <ele>264</ele>
        <time>2017-07-28T09:13:24Z</time>
      </trkpt>
      <trkpt lat="45.94288" lon="4.82562">
        <ele>264</ele>
        <time>2017-07-28T09:13:26Z</time>
      </trkpt>
      <trkpt lat="45.94288" lon="4.82569">
        <ele>265</ele>
        <time>2017-07-28T09:13:27Z</time>
      </trkpt>
      <trkpt lat="45.94288" lon="4.82582">
        <ele>265</ele>
        <time>2017-07-28T09:13:29Z</time>
      </trkpt>
      <trkpt lat="45.94288" lon="4.82588">
        <ele>265</ele>
        <time>2017-07-28T09:13:30Z</time>
      </trkpt>
      <trkpt lat="45.94288" lon="4.82595">
        <ele>265</ele>
        <time>2017-07-28T09:13:31Z</time>
      </trkpt>
      <trkpt lat="45.94288" lon="4.82601">
        <ele>265</ele>
        <time>2017-07-28T09:13:32Z</time>
      </trkpt>
      <trkpt lat="45.94287" lon="4.82608">
        <ele>265</ele>
        <time>2017-07-28T09:13:33Z</time>
      </trkpt>
      <trkpt lat="45.94287" lon="4.82615">
        <ele>265</ele>
        <time>2017-07-28T09:13:34Z</time>
      </trkpt>
      <trkpt lat="45.94287" lon="4.82623">
        <ele>265</ele>
        <time>2017-07-28T09:13:35Z</time>
      </trkpt>
      <trkpt lat="45.94287" lon="4.82631">
        <ele>265</ele>
        <time>2017-07-28T09:13:36Z</time>
      </trkpt>
      <trkpt lat="45.94287" lon="4.82639">
        <ele>265</ele>
        <time>2017-07-28T09:13:37Z</time>
      </trkpt>
      <trkpt lat="45.94287" lon="4.82646">
        <ele>265</ele>
        <time>2017-07-28T09:13:38Z</time>
      </trkpt>
      <trkpt lat="45.94287" lon="4.82653">
        <ele>265</ele>
        <time>2017-07-28T09:13:39Z</time>
      </trkpt>
      <trkpt lat="45.94287" lon="4.8266">
        <ele>265</ele>
        <time>2017-07-28T09:13:40Z</time>
      </trkpt>
      <trkpt lat="45.94287" lon="4.82667">
        <ele>265</ele>
        <time>2017-07-28T09:13:41Z</time>
      </trkpt>
      <trkpt lat="45.94286" lon="4.82674">
        <ele>265</ele>
        <time>2017-07-28T09:13:42Z</time>
      </trkpt>
      <trkpt lat="45.94286" lon="4.82681">
        <ele>265</ele>
        <time>2017-07-28T09:13:43Z</time>
      </trkpt>
      <trkpt lat="45.94286" lon="4.82687">
        <ele>265</ele>
        <time>2017-07-28T09:13:44Z</time>
      </trkpt>
      <trkpt lat="45.94286" lon="4.82694">
        <ele>265</ele>
        <time>2017-07-28T09:13:45Z</time>
      </trkpt>
      <trkpt lat="45.94286" lon="4.82701">
        <ele>265</ele>
        <time>2017-07-28T09:13:46Z</time>
      </trkpt>
      <trkpt lat="45.94286" lon="4.82707">
        <ele>265</ele>
        <time>2017-07-28T09:13:47Z</time>
      </trkpt>
      <trkpt lat="45.94286" lon="4.82714">
        <ele>265</ele>
        <time>2017-07-28T09:13:48Z</time>
      </trkpt>
      <trkpt lat="45.94286" lon="4.82721">
        <ele>265</ele>
        <time>2017-07-28T09:13:49Z</time>
      </trkpt>
      <trkpt lat="45.94286" lon="4.82729">
        <ele>265</ele>
        <time>2017-07-28T09:13:50Z</time>
      </trkpt>
      <trkpt lat="45.94285" lon="4.82735">
        <ele>265</ele>
        <time>2017-07-28T09:13:51Z</time>
      </trkpt>
      <trkpt lat="45.94285" lon="4.82742">
        <ele>265</ele>
        <time>2017-07-28T09:13:52Z</time>
      </trkpt>
      <trkpt lat="45.94284" lon="4.82749">
        <ele>265</ele>
        <time>2017-07-28T09:13:53Z</time>
      </trkpt>
      <trkpt lat="45.94284" lon="4.82756">
        <ele>265</ele>
        <time>2017-07-28T09:13:54Z</time>
      </trkpt>
      <trkpt lat="45.94285" lon="4.82768">
        <ele>265</ele>
        <time>2017-07-28T09:13:56Z</time>
      </trkpt>
      <trkpt lat="45.94285" lon="4.82774">
        <ele>265</ele>
        <time>2017-07-28T09:13:57Z</time>
      </trkpt>
      <trkpt lat="45.94286" lon="4.82786">
        <ele>265</ele>
        <time>2017-07-28T09:13:59Z</time>
      </trkpt>
      <trkpt lat="45.94285" lon="4.82792">
        <ele>265</ele>
        <time>2017-07-28T09:14:00Z</time>
      </trkpt>
      <trkpt lat="45.94285" lon="4.828">
        <ele>265</ele>
        <time>2017-07-28T09:14:01Z</time>
      </trkpt>
      <trkpt lat="45.94284" lon="4.82807">
        <ele>265</ele>
        <time>2017-07-28T09:14:02Z</time>
      </trkpt>
      <trkpt lat="45.94284" lon="4.82815">
        <ele>265</ele>
        <time>2017-07-28T09:14:03Z</time>
      </trkpt>
      <trkpt lat="45.94284" lon="4.82824">
        <ele>265</ele>
        <time>2017-07-28T09:14:04Z</time>
      </trkpt>
      <trkpt lat="45.94284" lon="4.82832">
        <ele>265</ele>
        <time>2017-07-28T09:14:05Z</time>
      </trkpt>
      <trkpt lat="45.94284" lon="4.8284">
        <ele>265</ele>
        <time>2017-07-28T09:14:06Z</time>
      </trkpt>
      <trkpt lat="45.94284" lon="4.82848">
        <ele>265</ele>
        <time>2017-07-28T09:14:07Z</time>
      </trkpt>
      <trkpt lat="45.94284" lon="4.82855">
        <ele>265</ele>
        <time>2017-07-28T09:14:08Z</time>
      </trkpt>
      <trkpt lat="45.94283" lon="4.82863">
        <ele>265</ele>
        <time>2017-07-28T09:14:09Z</time>
      </trkpt>
      <trkpt lat="45.94283" lon="4.8287">
        <ele>265</ele>
        <time>2017-07-28T09:14:10Z</time>
      </trkpt>
      <trkpt lat="45.94283" lon="4.82877">
        <ele>265</ele>
        <time>2017-07-28T09:14:11Z</time>
      </trkpt>
      <trkpt lat="45.94283" lon="4.82884">
        <ele>265</ele>
        <time>2017-07-28T09:14:12Z</time>
      </trkpt>
      <trkpt lat="45.94282" lon="4.8289">
        <ele>265</ele>
        <time>2017-07-28T09:14:13Z</time>
      </trkpt>
      <trkpt lat="45.94281" lon="4.82897">
        <ele>265</ele>
        <time>2017-07-28T09:14:14Z</time>
      </trkpt>
      <trkpt lat="45.94281" lon="4.82904">
        <ele>265</ele>
        <time>2017-07-28T09:14:15Z</time>
      </trkpt>
      <trkpt lat="45.94279" lon="4.82911">
        <ele>265</ele>
        <time>2017-07-28T09:14:16Z</time>
      </trkpt>
      <trkpt lat="45.94278" lon="4.82919">
        <ele>265</ele>
        <time>2017-07-28T09:14:17Z</time>
      </trkpt>
      <trkpt lat="45.94276" lon="4.82926">
        <ele>265</ele>
        <time>2017-07-28T09:14:18Z</time>
      </trkpt>
      <trkpt lat="45.94275" lon="4.82934">
        <ele>265</ele>
        <time>2017-07-28T09:14:19Z</time>
      </trkpt>
      <trkpt lat="45.94273" lon="4.82941">
        <ele>265</ele>
        <time>2017-07-28T09:14:20Z</time>
      </trkpt>
      <trkpt lat="45.9427" lon="4.82948">
        <ele>265</ele>
        <time>2017-07-28T09:14:21Z</time>
      </trkpt>
      <trkpt lat="45.94269" lon="4.82955">
        <ele>265</ele>
        <time>2017-07-28T09:14:22Z</time>
      </trkpt>
      <trkpt lat="45.94267" lon="4.82962">
        <ele>265</ele>
        <time>2017-07-28T09:14:23Z</time>
      </trkpt>
      <trkpt lat="45.94265" lon="4.82968">
        <ele>265</ele>
        <time>2017-07-28T09:14:24Z</time>
      </trkpt>
      <trkpt lat="45.94262" lon="4.82974">
        <ele>265</ele>
        <time>2017-07-28T09:14:25Z</time>
      </trkpt>
      <trkpt lat="45.94259" lon="4.82979">
        <ele>266</ele>
        <time>2017-07-28T09:14:26Z</time>
      </trkpt>
      <trkpt lat="45.94255" lon="4.82985">
        <ele>266</ele>
        <time>2017-07-28T09:14:27Z</time>
      </trkpt>
      <trkpt lat="45.94252" lon="4.8299">
        <ele>266</ele>
        <time>2017-07-28T09:14:28Z</time>
      </trkpt>
      <trkpt lat="45.94249" lon="4.82996">
        <ele>266</ele>
        <time>2017-07-28T09:14:29Z</time>
      </trkpt>
      <trkpt lat="45.94245" lon="4.83002">
        <ele>266</ele>
        <time>2017-07-28T09:14:30Z</time>
      </trkpt>
      <trkpt lat="45.94241" lon="4.83008">
        <ele>266</ele>
        <time>2017-07-28T09:14:31Z</time>
      </trkpt>
      <trkpt lat="45.94237" lon="4.83014">
        <ele>266</ele>
        <time>2017-07-28T09:14:32Z</time>
      </trkpt>
      <trkpt lat="45.94234" lon="4.8302">
        <ele>266</ele>
        <time>2017-07-28T09:14:33Z</time>
      </trkpt>
      <trkpt lat="45.9423" lon="4.83025">
        <ele>266</ele>
        <time>2017-07-28T09:14:34Z</time>
      </trkpt>
      <trkpt lat="45.94227" lon="4.8303">
        <ele>266</ele>
        <time>2017-07-28T09:14:35Z</time>
      </trkpt>
      <trkpt lat="45.94223" lon="4.83035">
        <ele>266</ele>
        <time>2017-07-28T09:14:36Z</time>
      </trkpt>
      <trkpt lat="45.9422" lon="4.8304">
        <ele>266</ele>
        <time>2017-07-28T09:14:37Z</time>
      </trkpt>
      <trkpt lat="45.94217" lon="4.83046">
        <ele>266</ele>
        <time>2017-07-28T09:14:38Z</time>
      </trkpt>
      <trkpt lat="45.94213" lon="4.83051">
        <ele>266</ele>
        <time>2017-07-28T09:14:39Z</time>
      </trkpt>
      <trkpt lat="45.94209" lon="4.83057">
        <ele>266</ele>
        <time>2017-07-28T09:14:40Z</time>
      </trkpt>
      <trkpt lat="45.94205" lon="4.83063">
        <ele>265</ele>
        <time>2017-07-28T09:14:41Z</time>
      </trkpt>
      <trkpt lat="45.94201" lon="4.83069">
        <ele>265</ele>
        <time>2017-07-28T09:14:42Z</time>
      </trkpt>
      <trkpt lat="45.94197" lon="4.83075">
        <ele>265</ele>
        <time>2017-07-28T09:14:43Z</time>
      </trkpt>
      <trkpt lat="45.94193" lon="4.83081">
        <ele>265</ele>
        <time>2017-07-28T09:14:44Z</time>
      </trkpt>
      <trkpt lat="45.94189" lon="4.83086">
        <ele>265</ele>
        <time>2017-07-28T09:14:45Z</time>
      </trkpt>
      <trkpt lat="45.94185" lon="4.83092">
        <ele>265</ele>
        <time>2017-07-28T09:14:46Z</time>
      </trkpt>
      <trkpt lat="45.94182" lon="4.83097">
        <ele>265</ele>
        <time>2017-07-28T09:14:47Z</time>
      </trkpt>
      <trkpt lat="45.94178" lon="4.83103">
        <ele>265</ele>
        <time>2017-07-28T09:14:48Z</time>
      </trkpt>
      <trkpt lat="45.94175" lon="4.83108">
        <ele>265</ele>
        <time>2017-07-28T09:14:49Z</time>
      </trkpt>
      <trkpt lat="45.94171" lon="4.83113">
        <ele>265</ele>
        <time>2017-07-28T09:14:50Z</time>
      </trkpt>
      <trkpt lat="45.94168" lon="4.83118">
        <ele>265</ele>
        <time>2017-07-28T09:14:51Z</time>
      </trkpt>
      <trkpt lat="45.94165" lon="4.83123">
        <ele>265</ele>
        <time>2017-07-28T09:14:52Z</time>
      </trkpt>
      <trkpt lat="45.94162" lon="4.83129">
        <ele>265</ele>
        <time>2017-07-28T09:14:53Z</time>
      </trkpt>
      <trkpt lat="45.94158" lon="4.83134">
        <ele>265</ele>
        <time>2017-07-28T09:14:54Z</time>
      </trkpt>
      <trkpt lat="45.94155" lon="4.8314">
        <ele>265</ele>
        <time>2017-07-28T09:14:55Z</time>
      </trkpt>
      <trkpt lat="45.9415" lon="4.83146">
        <ele>265</ele>
        <time>2017-07-28T09:14:56Z</time>
      </trkpt>
      <trkpt lat="45.94146" lon="4.83152">
        <ele>265</ele>
        <time>2017-07-28T09:14:57Z</time>
      </trkpt>
      <trkpt lat="45.94142" lon="4.83157">
        <ele>265</ele>
        <time>2017-07-28T09:14:58Z</time>
      </trkpt>
      <trkpt lat="45.94138" lon="4.83162">
        <ele>266</ele>
        <time>2017-07-28T09:14:59Z</time>
      </trkpt>
      <trkpt lat="45.94135" lon="4.83168">
        <ele>266</ele>
        <time>2017-07-28T09:15:00Z</time>
      </trkpt>
      <trkpt lat="45.94131" lon="4.83174">
        <ele>266</ele>
        <time>2017-07-28T09:15:01Z</time>
      </trkpt>
      <trkpt lat="45.94128" lon="4.8318">
        <ele>266</ele>
        <time>2017-07-28T09:15:02Z</time>
      </trkpt>
      <trkpt lat="45.94125" lon="4.83185">
        <ele>266</ele>
        <time>2017-07-28T09:15:03Z</time>
      </trkpt>
      <trkpt lat="45.94121" lon="4.8319">
        <ele>266</ele>
        <time>2017-07-28T09:15:04Z</time>
      </trkpt>
      <trkpt lat="45.94118" lon="4.83196">
        <ele>266</ele>
        <time>2017-07-28T09:15:05Z</time>
      </trkpt>
      <trkpt lat="45.94114" lon="4.83201">
        <ele>266</ele>
        <time>2017-07-28T09:15:06Z</time>
      </trkpt>
      <trkpt lat="45.9411" lon="4.83206">
        <ele>266</ele>
        <time>2017-07-28T09:15:07Z</time>
      </trkpt>
      <trkpt lat="45.94106" lon="4.83212">
        <ele>266</ele>
        <time>2017-07-28T09:15:08Z</time>
      </trkpt>
      <trkpt lat="45.94102" lon="4.83217">
        <ele>266</ele>
        <time>2017-07-28T09:15:09Z</time>
      </trkpt>
      <trkpt lat="45.94097" lon="4.83224">
        <ele>266</ele>
        <time>2017-07-28T09:15:10Z</time>
      </trkpt>
      <trkpt lat="45.94093" lon="4.8323">
        <ele>266</ele>
        <time>2017-07-28T09:15:11Z</time>
      </trkpt>
      <trkpt lat="45.94089" lon="4.83236">
        <ele>266</ele>
        <time>2017-07-28T09:15:12Z</time>
      </trkpt>
      <trkpt lat="45.94085" lon="4.83242">
        <ele>266</ele>
        <time>2017-07-28T09:15:13Z</time>
      </trkpt>
      <trkpt lat="45.94081" lon="4.83248">
        <ele>266</ele>
        <time>2017-07-28T09:15:14Z</time>
      </trkpt>
      <trkpt lat="45.94077" lon="4.83254">
        <ele>266</ele>
        <time>2017-07-28T09:15:15Z</time>
      </trkpt>
      <trkpt lat="45.94074" lon="4.8326">
        <ele>266</ele>
        <time>2017-07-28T09:15:16Z</time>
      </trkpt>
      <trkpt lat="45.9407" lon="4.83266">
        <ele>266</ele>
        <time>2017-07-28T09:15:17Z</time>
      </trkpt>
      <trkpt lat="45.94066" lon="4.83271">
        <ele>266</ele>
        <time>2017-07-28T09:15:18Z</time>
      </trkpt>
      <trkpt lat="45.94062" lon="4.83277">
        <ele>266</ele>
        <time>2017-07-28T09:15:19Z</time>
      </trkpt>
      <trkpt lat="45.94058" lon="4.83283">
        <ele>266</ele>
        <time>2017-07-28T09:15:20Z</time>
      </trkpt>
      <trkpt lat="45.94054" lon="4.83288">
        <ele>266</ele>
        <time>2017-07-28T09:15:21Z</time>
      </trkpt>
      <trkpt lat="45.94051" lon="4.83294">
        <ele>266</ele>
        <time>2017-07-28T09:15:22Z</time>
      </trkpt>
      <trkpt lat="45.94046" lon="4.833">
        <ele>266</ele>
        <time>2017-07-28T09:15:23Z</time>
      </trkpt>
      <trkpt lat="45.94042" lon="4.83306">
        <ele>266</ele>
        <time>2017-07-28T09:15:24Z</time>
      </trkpt>
      <trkpt lat="45.94038" lon="4.83313">
        <ele>266</ele>
        <time>2017-07-28T09:15:25Z</time>
      </trkpt>
      <trkpt lat="45.94034" lon="4.8332">
        <ele>266</ele>
        <time>2017-07-28T09:15:26Z</time>
      </trkpt>
      <trkpt lat="45.9403" lon="4.83326">
        <ele>266</ele>
        <time>2017-07-28T09:15:27Z</time>
      </trkpt>
      <trkpt lat="45.94025" lon="4.83331">
        <ele>266</ele>
        <time>2017-07-28T09:15:28Z</time>
      </trkpt>
      <trkpt lat="45.94021" lon="4.83337">
        <ele>266</ele>
        <time>2017-07-28T09:15:29Z</time>
      </trkpt>
      <trkpt lat="45.94017" lon="4.83343">
        <ele>266</ele>
        <time>2017-07-28T09:15:30Z</time>
      </trkpt>
      <trkpt lat="45.94013" lon="4.83349">
        <ele>266</ele>
        <time>2017-07-28T09:15:31Z</time>
      </trkpt>
      <trkpt lat="45.94009" lon="4.83356">
        <ele>266</ele>
        <time>2017-07-28T09:15:32Z</time>
      </trkpt>
      <trkpt lat="45.94006" lon="4.83362">
        <ele>266</ele>
        <time>2017-07-28T09:15:33Z</time>
      </trkpt>
      <trkpt lat="45.94003" lon="4.83368">
        <ele>266</ele>
        <time>2017-07-28T09:15:34Z</time>
      </trkpt>
      <trkpt lat="45.93999" lon="4.83373">
        <ele>266</ele>
        <time>2017-07-28T09:15:35Z</time>
      </trkpt>
      <trkpt lat="45.93996" lon="4.8338">
        <ele>266</ele>
        <time>2017-07-28T09:15:36Z</time>
      </trkpt>
      <trkpt lat="45.93992" lon="4.83386">
        <ele>266</ele>
        <time>2017-07-28T09:15:37Z</time>
      </trkpt>
      <trkpt lat="45.93988" lon="4.83391">
        <ele>266</ele>
        <time>2017-07-28T09:15:38Z</time>
      </trkpt>
      <trkpt lat="45.93984" lon="4.83397">
        <ele>266</ele>
        <time>2017-07-28T09:15:39Z</time>
      </trkpt>
      <trkpt lat="45.9398" lon="4.83404">
        <ele>266</ele>
        <time>2017-07-28T09:15:40Z</time>
      </trkpt>
      <trkpt lat="45.93976" lon="4.8341">
        <ele>266</ele>
        <time>2017-07-28T09:15:41Z</time>
      </trkpt>
      <trkpt lat="45.93971" lon="4.83417">
        <ele>265</ele>
        <time>2017-07-28T09:15:42Z</time>
      </trkpt>
      <trkpt lat="45.93967" lon="4.83424">
        <ele>265</ele>
        <time>2017-07-28T09:15:43Z</time>
      </trkpt>
      <trkpt lat="45.93962" lon="4.83431">
        <ele>265</ele>
        <time>2017-07-28T09:15:44Z</time>
      </trkpt>
      <trkpt lat="45.93958" lon="4.83438">
        <ele>265</ele>
        <time>2017-07-28T09:15:45Z</time>
      </trkpt>
      <trkpt lat="45.93954" lon="4.83444">
        <ele>265</ele>
        <time>2017-07-28T09:15:46Z</time>
      </trkpt>
      <trkpt lat="45.9395" lon="4.8345">
        <ele>265</ele>
        <time>2017-07-28T09:15:47Z</time>
      </trkpt>
      <trkpt lat="45.93945" lon="4.83456">
        <ele>265</ele>
        <time>2017-07-28T09:15:48Z</time>
      </trkpt>
      <trkpt lat="45.93941" lon="4.83462">
        <ele>265</ele>
        <time>2017-07-28T09:15:49Z</time>
      </trkpt>
      <trkpt lat="45.93937" lon="4.83468">
        <ele>265</ele>
        <time>2017-07-28T09:15:50Z</time>
      </trkpt>
      <trkpt lat="45.93933" lon="4.83474">
        <ele>265</ele>
        <time>2017-07-28T09:15:51Z</time>
      </trkpt>
      <trkpt lat="45.93929" lon="4.83479">
        <ele>265</ele>
        <time>2017-07-28T09:15:52Z</time>
      </trkpt>
      <trkpt lat="45.93925" lon="4.83485">
        <ele>265</ele>
        <time>2017-07-28T09:15:53Z</time>
      </trkpt>
      <trkpt lat="45.93921" lon="4.8349">
        <ele>265</ele>
        <time>2017-07-28T09:15:54Z</time>
      </trkpt>
      <trkpt lat="45.93917" lon="4.83495">
        <ele>265</ele>
        <time>2017-07-28T09:15:55Z</time>
      </trkpt>
      <trkpt lat="45.93913" lon="4.83501">
        <ele>265</ele>
        <time>2017-07-28T09:15:56Z</time>
      </trkpt>
      <trkpt lat="45.93909" lon="4.83507">
        <ele>265</ele>
        <time>2017-07-28T09:15:57Z</time>
      </trkpt>
      <trkpt lat="45.93905" lon="4.83513">
        <ele>265</ele>
        <time>2017-07-28T09:15:58Z</time>
      </trkpt>
      <trkpt lat="45.93901" lon="4.83518">
        <ele>265</ele>
        <time>2017-07-28T09:15:59Z</time>
      </trkpt>
      <trkpt lat="45.93897" lon="4.83523">
        <ele>265</ele>
        <time>2017-07-28T09:16:00Z</time>
      </trkpt>
      <trkpt lat="45.93893" lon="4.83529">
        <ele>265</ele>
        <time>2017-07-28T09:16:01Z</time>
      </trkpt>
      <trkpt lat="45.9389" lon="4.83534">
        <ele>265</ele>
        <time>2017-07-28T09:16:02Z</time>
      </trkpt>
      <trkpt lat="45.93887" lon="4.8354">
        <ele>265</ele>
        <time>2017-07-28T09:16:03Z</time>
      </trkpt>
      <trkpt lat="45.93884" lon="4.83545">
        <ele>265</ele>
        <time>2017-07-28T09:16:04Z</time>
      </trkpt>
      <trkpt lat="45.9388" lon="4.8355">
        <ele>265</ele>
        <time>2017-07-28T09:16:05Z</time>
      </trkpt>
      <trkpt lat="45.93877" lon="4.83555">
        <ele>265</ele>
        <time>2017-07-28T09:16:06Z</time>
      </trkpt>
      <trkpt lat="45.93874" lon="4.8356">
        <ele>265</ele>
        <time>2017-07-28T09:16:07Z</time>
      </trkpt>
      <trkpt lat="45.93871" lon="4.83566">
        <ele>265</ele>
        <time>2017-07-28T09:16:08Z</time>
      </trkpt>
      <trkpt lat="45.93869" lon="4.83571">
        <ele>265</ele>
        <time>2017-07-28T09:16:09Z</time>
      </trkpt>
      <trkpt lat="45.93866" lon="4.83577">
        <ele>265</ele>
        <time>2017-07-28T09:16:10Z</time>
      </trkpt>
      <trkpt lat="45.93863" lon="4.83582">
        <ele>266</ele>
        <time>2017-07-28T09:16:11Z</time>
      </trkpt>
      <trkpt lat="45.9386" lon="4.83588">
        <ele>265</ele>
        <time>2017-07-28T09:16:12Z</time>
      </trkpt>
      <trkpt lat="45.93856" lon="4.83594">
        <ele>265</ele>
        <time>2017-07-28T09:16:13Z</time>
      </trkpt>
      <trkpt lat="45.93853" lon="4.83601">
        <ele>265</ele>
        <time>2017-07-28T09:16:14Z</time>
      </trkpt>
      <trkpt lat="45.9385" lon="4.83608">
        <ele>265</ele>
        <time>2017-07-28T09:16:15Z</time>
      </trkpt>
      <trkpt lat="45.93846" lon="4.83615">
        <ele>265</ele>
        <time>2017-07-28T09:16:16Z</time>
      </trkpt>
      <trkpt lat="45.93843" lon="4.83622">
        <ele>265</ele>
        <time>2017-07-28T09:16:17Z</time>
      </trkpt>
      <trkpt lat="45.9384" lon="4.83628">
        <ele>265</ele>
        <time>2017-07-28T09:16:18Z</time>
      </trkpt>
      <trkpt lat="45.93837" lon="4.83634">
        <ele>265</ele>
        <time>2017-07-28T09:16:19Z</time>
      </trkpt>
      <trkpt lat="45.93835" lon="4.83641">
        <ele>265</ele>
        <time>2017-07-28T09:16:20Z</time>
      </trkpt>
      <trkpt lat="45.93832" lon="4.83647">
        <ele>265</ele>
        <time>2017-07-28T09:16:21Z</time>
      </trkpt>
      <trkpt lat="45.9383" lon="4.83653">
        <ele>265</ele>
        <time>2017-07-28T09:16:22Z</time>
      </trkpt>
      <trkpt lat="45.93828" lon="4.83658">
        <ele>265</ele>
        <time>2017-07-28T09:16:23Z</time>
      </trkpt>
      <trkpt lat="45.93826" lon="4.83664">
        <ele>265</ele>
        <time>2017-07-28T09:16:24Z</time>
      </trkpt>
      <trkpt lat="45.93823" lon="4.8367">
        <ele>265</ele>
        <time>2017-07-28T09:16:25Z</time>
      </trkpt>
      <trkpt lat="45.93821" lon="4.83677">
        <ele>265</ele>
        <time>2017-07-28T09:16:26Z</time>
      </trkpt>
      <trkpt lat="45.93818" lon="4.83684">
        <ele>265</ele>
        <time>2017-07-28T09:16:27Z</time>
      </trkpt>
      <trkpt lat="45.93816" lon="4.83691">
        <ele>266</ele>
        <time>2017-07-28T09:16:28Z</time>
      </trkpt>
      <trkpt lat="45.93814" lon="4.837">
        <ele>266</ele>
        <time>2017-07-28T09:16:29Z</time>
      </trkpt>
      <trkpt lat="45.93811" lon="4.83708">
        <ele>266</ele>
        <time>2017-07-28T09:16:30Z</time>
      </trkpt>
      <trkpt lat="45.93809" lon="4.83717">
        <ele>266</ele>
        <time>2017-07-28T09:16:31Z</time>
      </trkpt>
      <trkpt lat="45.93807" lon="4.83725">
        <ele>266</ele>
        <time>2017-07-28T09:16:32Z</time>
      </trkpt>
      <trkpt lat="45.93804" lon="4.83734">
        <ele>266</ele>
        <time>2017-07-28T09:16:33Z</time>
      </trkpt>
      <trkpt lat="45.93802" lon="4.83742">
        <ele>266</ele>
        <time>2017-07-28T09:16:34Z</time>
      </trkpt>
      <trkpt lat="45.93799" lon="4.8375">
        <ele>266</ele>
        <time>2017-07-28T09:16:35Z</time>
      </trkpt>
      <trkpt lat="45.93797" lon="4.83758">
        <ele>266</ele>
        <time>2017-07-28T09:16:36Z</time>
      </trkpt>
      <trkpt lat="45.93794" lon="4.83766">
        <ele>266</ele>
        <time>2017-07-28T09:16:37Z</time>
      </trkpt>
      <trkpt lat="45.93792" lon="4.83774">
        <ele>266</ele>
        <time>2017-07-28T09:16:38Z</time>
      </trkpt>
      <trkpt lat="45.9379" lon="4.83781">
        <ele>266</ele>
        <time>2017-07-28T09:16:39Z</time>
      </trkpt>
      <trkpt lat="45.93788" lon="4.83789">
        <ele>266</ele>
        <time>2017-07-28T09:16:40Z</time>
      </trkpt>
      <trkpt lat="45.93786" lon="4.83796">
        <ele>266</ele>
        <time>2017-07-28T09:16:41Z</time>
      </trkpt>
      <trkpt lat="45.93784" lon="4.83803">
        <ele>266</ele>
        <time>2017-07-28T09:16:42Z</time>
      </trkpt>
      <trkpt lat="45.93782" lon="4.8381">
        <ele>266</ele>
        <time>2017-07-28T09:16:43Z</time>
      </trkpt>
      <trkpt lat="45.9378" lon="4.83817">
        <ele>266</ele>
        <time>2017-07-28T09:16:44Z</time>
      </trkpt>
      <trkpt lat="45.93779" lon="4.83824">
        <ele>266</ele>
        <time>2017-07-28T09:16:45Z</time>
      </trkpt>
      <trkpt lat="45.93777" lon="4.83832">
        <ele>266</ele>
        <time>2017-07-28T09:16:46Z</time>
      </trkpt>
      <trkpt lat="45.93775" lon="4.8384">
        <ele>266</ele>
        <time>2017-07-28T09:16:47Z</time>
      </trkpt>
      <trkpt lat="45.93773" lon="4.83848">
        <ele>266</ele>
        <time>2017-07-28T09:16:48Z</time>
      </trkpt>
      <trkpt lat="45.93771" lon="4.83856">
        <ele>266</ele>
        <time>2017-07-28T09:16:49Z</time>
      </trkpt>
      <trkpt lat="45.93769" lon="4.83863">
        <ele>266</ele>
        <time>2017-07-28T09:16:50Z</time>
      </trkpt>
      <trkpt lat="45.93768" lon="4.83871">
        <ele>266</ele>
        <time>2017-07-28T09:16:51Z</time>
      </trkpt>
      <trkpt lat="45.93767" lon="4.83878">
        <ele>266</ele>
        <time>2017-07-28T09:16:52Z</time>
      </trkpt>
      <trkpt lat="45.93765" lon="4.83885">
        <ele>266</ele>
        <time>2017-07-28T09:16:53Z</time>
      </trkpt>
      <trkpt lat="45.93763" lon="4.83892">
        <ele>266</ele>
        <time>2017-07-28T09:16:54Z</time>
      </trkpt>
      <trkpt lat="45.93762" lon="4.83898">
        <ele>266</ele>
        <time>2017-07-28T09:16:55Z</time>
      </trkpt>
      <trkpt lat="45.9376" lon="4.83905">
        <ele>266</ele>
        <time>2017-07-28T09:16:56Z</time>
      </trkpt>
      <trkpt lat="45.93758" lon="4.83911">
        <ele>266</ele>
        <time>2017-07-28T09:16:57Z</time>
      </trkpt>
      <trkpt lat="45.93756" lon="4.83919">
        <ele>266</ele>
        <time>2017-07-28T09:16:58Z</time>
      </trkpt>
      <trkpt lat="45.93755" lon="4.83927">
        <ele>267</ele>
        <time>2017-07-28T09:16:59Z</time>
      </trkpt>
      <trkpt lat="45.93754" lon="4.83935">
        <ele>267</ele>
        <time>2017-07-28T09:17:00Z</time>
      </trkpt>
      <trkpt lat="45.93753" lon="4.83944">
        <ele>267</ele>
        <time>2017-07-28T09:17:01Z</time>
      </trkpt>
      <trkpt lat="45.93752" lon="4.83953">
        <ele>268</ele>
        <time>2017-07-28T09:17:02Z</time>
      </trkpt>
      <trkpt lat="45.93752" lon="4.83961">
        <ele>268</ele>
        <time>2017-07-28T09:17:03Z</time>
      </trkpt>
      <trkpt lat="45.9375" lon="4.8397">
        <ele>268</ele>
        <time>2017-07-28T09:17:04Z</time>
      </trkpt>
      <trkpt lat="45.93749" lon="4.83979">
        <ele>268</ele>
        <time>2017-07-28T09:17:05Z</time>
      </trkpt>
      <trkpt lat="45.93748" lon="4.83988">
        <ele>268</ele>
        <time>2017-07-28T09:17:06Z</time>
      </trkpt>
      <trkpt lat="45.93747" lon="4.83995">
        <ele>269</ele>
        <time>2017-07-28T09:17:07Z</time>
      </trkpt>
      <trkpt lat="45.93746" lon="4.84003">
        <ele>269</ele>
        <time>2017-07-28T09:17:08Z</time>
      </trkpt>
      <trkpt lat="45.93745" lon="4.84011">
        <ele>269</ele>
        <time>2017-07-28T09:17:09Z</time>
      </trkpt>
      <trkpt lat="45.93744" lon="4.84019">
        <ele>269</ele>
        <time>2017-07-28T09:17:10Z</time>
      </trkpt>
      <trkpt lat="45.93743" lon="4.84027">
        <ele>269</ele>
        <time>2017-07-28T09:17:11Z</time>
      </trkpt>
      <trkpt lat="45.93742" lon="4.84035">
        <ele>269</ele>
        <time>2017-07-28T09:17:12Z</time>
      </trkpt>
      <trkpt lat="45.93742" lon="4.84044">
        <ele>270</ele>
        <time>2017-07-28T09:17:13Z</time>
      </trkpt>
      <trkpt lat="45.93741" lon="4.84052">
        <ele>270</ele>
        <time>2017-07-28T09:17:14Z</time>
      </trkpt>
      <trkpt lat="45.9374" lon="4.84061">
        <ele>270</ele>
        <time>2017-07-28T09:17:15Z</time>
      </trkpt>
      <trkpt lat="45.93739" lon="4.8407">
        <ele>270</ele>
        <time>2017-07-28T09:17:16Z</time>
      </trkpt>
      <trkpt lat="45.93739" lon="4.84079">
        <ele>270</ele>
        <time>2017-07-28T09:17:17Z</time>
      </trkpt>
      <trkpt lat="45.93738" lon="4.84087">
        <ele>270</ele>
        <time>2017-07-28T09:17:18Z</time>
      </trkpt>
      <trkpt lat="45.93737" lon="4.84095">
        <ele>270</ele>
        <time>2017-07-28T09:17:19Z</time>
      </trkpt>
      <trkpt lat="45.93737" lon="4.84103">
        <ele>270</ele>
        <time>2017-07-28T09:17:20Z</time>
      </trkpt>
      <trkpt lat="45.93736" lon="4.84111">
        <ele>270</ele>
        <time>2017-07-28T09:17:21Z</time>
      </trkpt>
      <trkpt lat="45.93736" lon="4.84119">
        <ele>270</ele>
        <time>2017-07-28T09:17:22Z</time>
      </trkpt>
      <trkpt lat="45.93736" lon="4.84127">
        <ele>270</ele>
        <time>2017-07-28T09:17:23Z</time>
      </trkpt>
      <trkpt lat="45.93735" lon="4.84136">
        <ele>270</ele>
        <time>2017-07-28T09:17:24Z</time>
      </trkpt>
      <trkpt lat="45.93735" lon="4.84144">
        <ele>270</ele>
        <time>2017-07-28T09:17:25Z</time>
      </trkpt>
      <trkpt lat="45.93735" lon="4.84152">
        <ele>270</ele>
        <time>2017-07-28T09:17:26Z</time>
      </trkpt>
      <trkpt lat="45.93735" lon="4.84162">
        <ele>270</ele>
        <time>2017-07-28T09:17:27Z</time>
      </trkpt>
      <trkpt lat="45.93735" lon="4.84171">
        <ele>270</ele>
        <time>2017-07-28T09:17:28Z</time>
      </trkpt>
      <trkpt lat="45.93735" lon="4.84182">
        <ele>270</ele>
        <time>2017-07-28T09:17:29Z</time>
      </trkpt>
      <trkpt lat="45.93736" lon="4.84192">
        <ele>270</ele>
        <time>2017-07-28T09:17:30Z</time>
      </trkpt>
      <trkpt lat="45.93736" lon="4.84201">
        <ele>270</ele>
        <time>2017-07-28T09:17:31Z</time>
      </trkpt>
      <trkpt lat="45.93737" lon="4.84211">
        <ele>270</ele>
        <time>2017-07-28T09:17:32Z</time>
      </trkpt>
      <trkpt lat="45.93738" lon="4.8422">
        <ele>270</ele>
        <time>2017-07-28T09:17:33Z</time>
      </trkpt>
      <trkpt lat="45.93739" lon="4.84229">
        <ele>269</ele>
        <time>2017-07-28T09:17:34Z</time>
      </trkpt>
      <trkpt lat="45.93741" lon="4.84238">
        <ele>269</ele>
        <time>2017-07-28T09:17:35Z</time>
      </trkpt>
      <trkpt lat="45.93742" lon="4.84248">
        <ele>269</ele>
        <time>2017-07-28T09:17:36Z</time>
      </trkpt>
      <trkpt lat="45.93743" lon="4.84257">
        <ele>269</ele>
        <time>2017-07-28T09:17:37Z</time>
      </trkpt>
      <trkpt lat="45.93745" lon="4.84266">
        <ele>269</ele>
        <time>2017-07-28T09:17:38Z</time>
      </trkpt>
      <trkpt lat="45.93747" lon="4.84275">
        <ele>269</ele>
        <time>2017-07-28T09:17:39Z</time>
      </trkpt>
      <trkpt lat="45.93748" lon="4.84284">
        <ele>269</ele>
        <time>2017-07-28T09:17:40Z</time>
      </trkpt>
      <trkpt lat="45.9375" lon="4.84293">
        <ele>269</ele>
        <time>2017-07-28T09:17:41Z</time>
      </trkpt>
      <trkpt lat="45.93752" lon="4.84302">
        <ele>268</ele>
        <time>2017-07-28T09:17:42Z</time>
      </trkpt>
      <trkpt lat="45.93753" lon="4.84311">
        <ele>268</ele>
        <time>2017-07-28T09:17:43Z</time>
      </trkpt>
      <trkpt lat="45.93755" lon="4.8432">
        <ele>269</ele>
        <time>2017-07-28T09:17:44Z</time>
      </trkpt>
      <trkpt lat="45.93757" lon="4.8433">
        <ele>269</ele>
        <time>2017-07-28T09:17:45Z</time>
      </trkpt>
      <trkpt lat="45.93759" lon="4.84339">
        <ele>269</ele>
        <time>2017-07-28T09:17:46Z</time>
      </trkpt>
      <trkpt lat="45.93761" lon="4.84348">
        <ele>269</ele>
        <time>2017-07-28T09:17:47Z</time>
      </trkpt>
      <trkpt lat="45.93762" lon="4.84357">
        <ele>269</ele>
        <time>2017-07-28T09:17:48Z</time>
      </trkpt>
      <trkpt lat="45.93764" lon="4.84365">
        <ele>268</ele>
        <time>2017-07-28T09:17:49Z</time>
      </trkpt>
      <trkpt lat="45.93766" lon="4.84374">
        <ele>268</ele>
        <time>2017-07-28T09:17:50Z</time>
      </trkpt>
      <trkpt lat="45.93768" lon="4.84382">
        <ele>268</ele>
        <time>2017-07-28T09:17:51Z</time>
      </trkpt>
      <trkpt lat="45.93769" lon="4.8439">
        <ele>268</ele>
        <time>2017-07-28T09:17:52Z</time>
      </trkpt>
      <trkpt lat="45.93771" lon="4.84397">
        <ele>269</ele>
        <time>2017-07-28T09:17:53Z</time>
      </trkpt>
      <trkpt lat="45.93772" lon="4.84405">
        <ele>269</ele>
        <time>2017-07-28T09:17:54Z</time>
      </trkpt>
      <trkpt lat="45.93773" lon="4.84412">
        <ele>269</ele>
        <time>2017-07-28T09:17:55Z</time>
      </trkpt>
      <trkpt lat="45.93774" lon="4.84419">
        <ele>269</ele>
        <time>2017-07-28T09:17:56Z</time>
      </trkpt>
      <trkpt lat="45.93776" lon="4.84427">
        <ele>269</ele>
        <time>2017-07-28T09:17:57Z</time>
      </trkpt>
      <trkpt lat="45.93778" lon="4.84434">
        <ele>269</ele>
        <time>2017-07-28T09:17:58Z</time>
      </trkpt>
      <trkpt lat="45.9378" lon="4.84441">
        <ele>269</ele>
        <time>2017-07-28T09:17:59Z</time>
      </trkpt>
      <trkpt lat="45.93781" lon="4.84449">
        <ele>269</ele>
        <time>2017-07-28T09:18:00Z</time>
      </trkpt>
      <trkpt lat="45.93783" lon="4.84458">
        <ele>269</ele>
        <time>2017-07-28T09:18:01Z</time>
      </trkpt>
      <trkpt lat="45.93784" lon="4.84466">
        <ele>269</ele>
        <time>2017-07-28T09:18:02Z</time>
      </trkpt>
      <trkpt lat="45.93786" lon="4.84475">
        <ele>269</ele>
        <time>2017-07-28T09:18:03Z</time>
      </trkpt>
      <trkpt lat="45.93787" lon="4.84483">
        <ele>269</ele>
        <time>2017-07-28T09:18:04Z</time>
      </trkpt>
      <trkpt lat="45.93789" lon="4.84492">
        <ele>269</ele>
        <time>2017-07-28T09:18:05Z</time>
      </trkpt>
      <trkpt lat="45.9379" lon="4.845">
        <ele>270</ele>
        <time>2017-07-28T09:18:06Z</time>
      </trkpt>
      <trkpt lat="45.93792" lon="4.84508">
        <ele>270</ele>
        <time>2017-07-28T09:18:07Z</time>
      </trkpt>
      <trkpt lat="45.93793" lon="4.84515">
        <ele>270</ele>
        <time>2017-07-28T09:18:08Z</time>
      </trkpt>
      <trkpt lat="45.93795" lon="4.84522">
        <ele>270</ele>
        <time>2017-07-28T09:18:09Z</time>
      </trkpt>
      <trkpt lat="45.93796" lon="4.84529">
        <ele>270</ele>
        <time>2017-07-28T09:18:10Z</time>
      </trkpt>
      <trkpt lat="45.93797" lon="4.84536">
        <ele>270</ele>
        <time>2017-07-28T09:18:11Z</time>
      </trkpt>
      <trkpt lat="45.93798" lon="4.84543">
        <ele>270</ele>
        <time>2017-07-28T09:18:12Z</time>
      </trkpt>
      <trkpt lat="45.938" lon="4.8455">
        <ele>270</ele>
        <time>2017-07-28T09:18:13Z</time>
      </trkpt>
      <trkpt lat="45.93801" lon="4.84557">
        <ele>270</ele>
        <time>2017-07-28T09:18:14Z</time>
      </trkpt>
      <trkpt lat="45.93802" lon="4.84565">
        <ele>270</ele>
        <time>2017-07-28T09:18:15Z</time>
      </trkpt>
      <trkpt lat="45.93803" lon="4.84573">
        <ele>270</ele>
        <time>2017-07-28T09:18:16Z</time>
      </trkpt>
      <trkpt lat="45.93805" lon="4.8458">
        <ele>270</ele>
        <time>2017-07-28T09:18:17Z</time>
      </trkpt>
      <trkpt lat="45.93806" lon="4.84588">
        <ele>271</ele>
        <time>2017-07-28T09:18:18Z</time>
      </trkpt>
      <trkpt lat="45.93807" lon="4.84596">
        <ele>271</ele>
        <time>2017-07-28T09:18:19Z</time>
      </trkpt>
      <trkpt lat="45.93808" lon="4.84604">
        <ele>271</ele>
        <time>2017-07-28T09:18:20Z</time>
      </trkpt>
      <trkpt lat="45.93809" lon="4.84612">
        <ele>271</ele>
        <time>2017-07-28T09:18:21Z</time>
      </trkpt>
      <trkpt lat="45.9381" lon="4.8462">
        <ele>271</ele>
        <time>2017-07-28T09:18:22Z</time>
      </trkpt>
      <trkpt lat="45.93811" lon="4.84627">
        <ele>271</ele>
        <time>2017-07-28T09:18:23Z</time>
      </trkpt>
      <trkpt lat="45.93812" lon="4.84634">
        <ele>271</ele>
        <time>2017-07-28T09:18:24Z</time>
      </trkpt>
      <trkpt lat="45.93813" lon="4.84641">
        <ele>271</ele>
        <time>2017-07-28T09:18:25Z</time>
      </trkpt>
      <trkpt lat="45.93815" lon="4.84647">
        <ele>271</ele>
        <time>2017-07-28T09:18:26Z</time>
      </trkpt>
      <trkpt lat="45.93816" lon="4.84654">
        <ele>271</ele>
        <time>2017-07-28T09:18:27Z</time>
      </trkpt>
      <trkpt lat="45.93817" lon="4.84661">
        <ele>271</ele>
        <time>2017-07-28T09:18:28Z</time>
      </trkpt>
      <trkpt lat="45.93818" lon="4.84669">
        <ele>271</ele>
        <time>2017-07-28T09:18:29Z</time>
      </trkpt>
      <trkpt lat="45.93819" lon="4.84677">
        <ele>271</ele>
        <time>2017-07-28T09:18:30Z</time>
      </trkpt>
      <trkpt lat="45.93821" lon="4.84684">
        <ele>271</ele>
        <time>2017-07-28T09:18:31Z</time>
      </trkpt>
      <trkpt lat="45.93822" lon="4.84693">
        <ele>271</ele>
        <time>2017-07-28T09:18:32Z</time>
      </trkpt>
      <trkpt lat="45.93824" lon="4.84701">
        <ele>271</ele>
        <time>2017-07-28T09:18:33Z</time>
      </trkpt>
      <trkpt lat="45.93826" lon="4.84709">
        <ele>271</ele>
        <time>2017-07-28T09:18:34Z</time>
      </trkpt>
      <trkpt lat="45.93827" lon="4.84717">
        <ele>271</ele>
        <time>2017-07-28T09:18:35Z</time>
      </trkpt>
      <trkpt lat="45.93828" lon="4.84724">
        <ele>271</ele>
        <time>2017-07-28T09:18:36Z</time>
      </trkpt>
      <trkpt lat="45.9383" lon="4.84731">
        <ele>271</ele>
        <time>2017-07-28T09:18:37Z</time>
      </trkpt>
      <trkpt lat="45.93831" lon="4.84737">
        <ele>271</ele>
        <time>2017-07-28T09:18:38Z</time>
      </trkpt>
      <trkpt lat="45.93833" lon="4.84749">
        <ele>271</ele>
        <time>2017-07-28T09:18:40Z</time>
      </trkpt>
      <trkpt lat="45.93834" lon="4.84756">
        <ele>271</ele>
        <time>2017-07-28T09:18:41Z</time>
      </trkpt>
      <trkpt lat="45.93835" lon="4.84762">
        <ele>271</ele>
        <time>2017-07-28T09:18:42Z</time>
      </trkpt>
      <trkpt lat="45.93836" lon="4.84768">
        <ele>271</ele>
        <time>2017-07-28T09:18:43Z</time>
      </trkpt>
      <trkpt lat="45.93838" lon="4.84781">
        <ele>270</ele>
        <time>2017-07-28T09:18:45Z</time>
      </trkpt>
      <trkpt lat="45.9384" lon="4.84786">
        <ele>270</ele>
        <time>2017-07-28T09:18:46Z</time>
      </trkpt>
      <trkpt lat="45.93841" lon="4.84797">
        <ele>270</ele>
        <time>2017-07-28T09:18:48Z</time>
      </trkpt>
      <trkpt lat="45.93842" lon="4.84803">
        <ele>270</ele>
        <time>2017-07-28T09:18:49Z</time>
      </trkpt>
      <trkpt lat="45.93842" lon="4.8481">
        <ele>270</ele>
        <time>2017-07-28T09:18:50Z</time>
      </trkpt>
      <trkpt lat="45.93843" lon="4.84816">
        <ele>270</ele>
        <time>2017-07-28T09:18:51Z</time>
      </trkpt>
      <trkpt lat="45.93844" lon="4.84823">
        <ele>271</ele>
        <time>2017-07-28T09:18:52Z</time>
      </trkpt>
      <trkpt lat="45.93845" lon="4.8483">
        <ele>271</ele>
        <time>2017-07-28T09:18:53Z</time>
      </trkpt>
      <trkpt lat="45.93846" lon="4.84837">
        <ele>271</ele>
        <time>2017-07-28T09:18:54Z</time>
      </trkpt>
      <trkpt lat="45.93846" lon="4.84844">
        <ele>271</ele>
        <time>2017-07-28T09:18:55Z</time>
      </trkpt>
      <trkpt lat="45.93848" lon="4.84857">
        <ele>271</ele>
        <time>2017-07-28T09:18:57Z</time>
      </trkpt>
      <trkpt lat="45.93848" lon="4.84863">
        <ele>270</ele>
        <time>2017-07-28T09:18:58Z</time>
      </trkpt>
      <trkpt lat="45.93849" lon="4.84874">
        <ele>270</ele>
        <time>2017-07-28T09:19:00Z</time>
      </trkpt>
      <trkpt lat="45.93849" lon="4.8488">
        <ele>270</ele>
        <time>2017-07-28T09:19:01Z</time>
      </trkpt>
      <trkpt lat="45.93849" lon="4.84891">
        <ele>271</ele>
        <time>2017-07-28T09:19:03Z</time>
      </trkpt>
      <trkpt lat="45.93849" lon="4.84897">
        <ele>271</ele>
        <time>2017-07-28T09:19:04Z</time>
      </trkpt>
      <trkpt lat="45.93849" lon="4.84904">
        <ele>271</ele>
        <time>2017-07-28T09:19:05Z</time>
      </trkpt>
      <trkpt lat="45.9385" lon="4.84911">
        <ele>271</ele>
        <time>2017-07-28T09:19:06Z</time>
      </trkpt>
      <trkpt lat="45.93851" lon="4.84918">
        <ele>271</ele>
        <time>2017-07-28T09:19:07Z</time>
      </trkpt>
      <trkpt lat="45.93851" lon="4.84925">
        <ele>271</ele>
        <time>2017-07-28T09:19:08Z</time>
      </trkpt>
      <trkpt lat="45.93851" lon="4.84931">
        <ele>271</ele>
        <time>2017-07-28T09:19:09Z</time>
      </trkpt>
      <trkpt lat="45.93851" lon="4.84938">
        <ele>271</ele>
        <time>2017-07-28T09:19:10Z</time>
      </trkpt>
      <trkpt lat="45.93852" lon="4.8495">
        <ele>272</ele>
        <time>2017-07-28T09:19:12Z</time>
      </trkpt>
      <trkpt lat="45.93852" lon="4.84956">
        <ele>272</ele>
        <time>2017-07-28T09:19:13Z</time>
      </trkpt>
      <trkpt lat="45.93853" lon="4.84967">
        <ele>272</ele>
        <time>2017-07-28T09:19:15Z</time>
      </trkpt>
      <trkpt lat="45.93853" lon="4.84973">
        <ele>272</ele>
        <time>2017-07-28T09:19:16Z</time>
      </trkpt>
      <trkpt lat="45.93854" lon="4.84985">
        <ele>272</ele>
        <time>2017-07-28T09:19:18Z</time>
      </trkpt>
      <trkpt lat="45.93854" lon="4.84992">
        <ele>272</ele>
        <time>2017-07-28T09:19:19Z</time>
      </trkpt>
      <trkpt lat="45.93855" lon="4.84999">
        <ele>272</ele>
        <time>2017-07-28T09:19:20Z</time>
      </trkpt>
      <trkpt lat="45.93855" lon="4.85006">
        <ele>273</ele>
        <time>2017-07-28T09:19:21Z</time>
      </trkpt>
      <trkpt lat="45.93856" lon="4.85013">
        <ele>273</ele>
        <time>2017-07-28T09:19:22Z</time>
      </trkpt>
      <trkpt lat="45.93856" lon="4.8502">
        <ele>273</ele>
        <time>2017-07-28T09:19:23Z</time>
      </trkpt>
      <trkpt lat="45.93857" lon="4.85028">
        <ele>273</ele>
        <time>2017-07-28T09:19:24Z</time>
      </trkpt>
      <trkpt lat="45.93857" lon="4.85034">
        <ele>273</ele>
        <time>2017-07-28T09:19:25Z</time>
      </trkpt>
      <trkpt lat="45.93858" lon="4.85047">
        <ele>273</ele>
        <time>2017-07-28T09:19:27Z</time>
      </trkpt>
      <trkpt lat="45.93858" lon="4.85053">
        <ele>273</ele>
        <time>2017-07-28T09:19:28Z</time>
      </trkpt>
      <trkpt lat="45.93859" lon="4.85065">
        <ele>273</ele>
        <time>2017-07-28T09:19:30Z</time>
      </trkpt>
      <trkpt lat="45.9386" lon="4.85071">
        <ele>273</ele>
        <time>2017-07-28T09:19:31Z</time>
      </trkpt>
      <trkpt lat="45.93861" lon="4.85083">
        <ele>273</ele>
        <time>2017-07-28T09:19:33Z</time>
      </trkpt>
      <trkpt lat="45.93861" lon="4.85089">
        <ele>274</ele>
        <time>2017-07-28T09:19:34Z</time>
      </trkpt>
      <trkpt lat="45.93861" lon="4.85096">
        <ele>274</ele>
        <time>2017-07-28T09:19:35Z</time>
      </trkpt>
      <trkpt lat="45.93862" lon="4.85103">
        <ele>274</ele>
        <time>2017-07-28T09:19:36Z</time>
      </trkpt>
      <trkpt lat="45.93863" lon="4.8511">
        <ele>274</ele>
        <time>2017-07-28T09:19:37Z</time>
      </trkpt>
      <trkpt lat="45.93863" lon="4.85116">
        <ele>274</ele>
        <time>2017-07-28T09:19:38Z</time>
      </trkpt>
      <trkpt lat="45.93863" lon="4.85123">
        <ele>274</ele>
        <time>2017-07-28T09:19:39Z</time>
      </trkpt>
      <trkpt lat="45.93863" lon="4.85131">
        <ele>274</ele>
        <time>2017-07-28T09:19:40Z</time>
      </trkpt>
      <trkpt lat="45.93864" lon="4.85138">
        <ele>275</ele>
        <time>2017-07-28T09:19:41Z</time>
      </trkpt>
      <trkpt lat="45.93864" lon="4.85146">
        <ele>275</ele>
        <time>2017-07-28T09:19:42Z</time>
      </trkpt>
      <trkpt lat="45.93865" lon="4.85152">
        <ele>275</ele>
        <time>2017-07-28T09:19:43Z</time>
      </trkpt>
      <trkpt lat="45.93866" lon="4.8516">
        <ele>275</ele>
        <time>2017-07-28T09:19:44Z</time>
      </trkpt>
      <trkpt lat="45.93866" lon="4.85167">
        <ele>276</ele>
        <time>2017-07-28T09:19:45Z</time>
      </trkpt>
      <trkpt lat="45.93866" lon="4.85175">
        <ele>276</ele>
        <time>2017-07-28T09:19:46Z</time>
      </trkpt>
      <trkpt lat="45.93867" lon="4.85182">
        <ele>276</ele>
        <time>2017-07-28T09:19:47Z</time>
      </trkpt>
      <trkpt lat="45.93867" lon="4.85189">
        <ele>276</ele>
        <time>2017-07-28T09:19:48Z</time>
      </trkpt>
      <trkpt lat="45.93867" lon="4.85196">
        <ele>276</ele>
        <time>2017-07-28T09:19:49Z</time>
      </trkpt>
      <trkpt lat="45.93868" lon="4.85203">
        <ele>276</ele>
        <time>2017-07-28T09:19:50Z</time>
      </trkpt>
      <trkpt lat="45.93868" lon="4.8521">
        <ele>276</ele>
        <time>2017-07-28T09:19:51Z</time>
      </trkpt>
      <trkpt lat="45.93869" lon="4.85217">
        <ele>276</ele>
        <time>2017-07-28T09:19:52Z</time>
      </trkpt>
      <trkpt lat="45.93869" lon="4.85224">
        <ele>276</ele>
        <time>2017-07-28T09:19:53Z</time>
      </trkpt>
      <trkpt lat="45.93869" lon="4.85231">
        <ele>276</ele>
        <time>2017-07-28T09:19:54Z</time>
      </trkpt>
      <trkpt lat="45.93869" lon="4.85238">
        <ele>276</ele>
        <time>2017-07-28T09:19:55Z</time>
      </trkpt>
      <trkpt lat="45.9387" lon="4.85244">
        <ele>276</ele>
        <time>2017-07-28T09:19:56Z</time>
      </trkpt>
      <trkpt lat="45.9387" lon="4.85257">
        <ele>278</ele>
        <time>2017-07-28T09:19:58Z</time>
      </trkpt>
      <trkpt lat="45.9387" lon="4.85263">
        <ele>278</ele>
        <time>2017-07-28T09:19:59Z</time>
      </trkpt>
      <trkpt lat="45.93869" lon="4.85269">
        <ele>278</ele>
        <time>2017-07-28T09:20:00Z</time>
      </trkpt>
      <trkpt lat="45.93869" lon="4.85276">
        <ele>278</ele>
        <time>2017-07-28T09:20:01Z</time>
      </trkpt>
      <trkpt lat="45.93868" lon="4.85282">
        <ele>278</ele>
        <time>2017-07-28T09:20:02Z</time>
      </trkpt>
      <trkpt lat="45.93867" lon="4.85289">
        <ele>278</ele>
        <time>2017-07-28T09:20:03Z</time>
      </trkpt>
      <trkpt lat="45.93867" lon="4.85296">
        <ele>278</ele>
        <time>2017-07-28T09:20:04Z</time>
      </trkpt>
      <trkpt lat="45.93866" lon="4.85303">
        <ele>279</ele>
        <time>2017-07-28T09:20:05Z</time>
      </trkpt>
      <trkpt lat="45.93865" lon="4.85309">
        <ele>279</ele>
        <time>2017-07-28T09:20:06Z</time>
      </trkpt>
      <trkpt lat="45.93863" lon="4.85316">
        <ele>279</ele>
        <time>2017-07-28T09:20:07Z</time>
      </trkpt>
      <trkpt lat="45.93862" lon="4.85323">
        <ele>279</ele>
        <time>2017-07-28T09:20:08Z</time>
      </trkpt>
      <trkpt lat="45.9386" lon="4.85329">
        <ele>279</ele>
        <time>2017-07-28T09:20:09Z</time>
      </trkpt>
      <trkpt lat="45.93858" lon="4.85336">
        <ele>281</ele>
        <time>2017-07-28T09:20:10Z</time>
      </trkpt>
      <trkpt lat="45.93857" lon="4.85343">
        <ele>281</ele>
        <time>2017-07-28T09:20:11Z</time>
      </trkpt>
      <trkpt lat="45.93855" lon="4.8535">
        <ele>281</ele>
        <time>2017-07-28T09:20:12Z</time>
      </trkpt>
      <trkpt lat="45.93853" lon="4.85356">
        <ele>281</ele>
        <time>2017-07-28T09:20:13Z</time>
      </trkpt>
      <trkpt lat="45.93851" lon="4.85362">
        <ele>281</ele>
        <time>2017-07-28T09:20:14Z</time>
      </trkpt>
      <trkpt lat="45.93849" lon="4.85369">
        <ele>281</ele>
        <time>2017-07-28T09:20:15Z</time>
      </trkpt>
      <trkpt lat="45.93847" lon="4.85375">
        <ele>281</ele>
        <time>2017-07-28T09:20:16Z</time>
      </trkpt>
      <trkpt lat="45.93846" lon="4.85381">
        <ele>281</ele>
        <time>2017-07-28T09:20:17Z</time>
      </trkpt>
      <trkpt lat="45.93842" lon="4.85392">
        <ele>281</ele>
        <time>2017-07-28T09:20:19Z</time>
      </trkpt>
      <trkpt lat="45.93841" lon="4.85398">
        <ele>281</ele>
        <time>2017-07-28T09:20:20Z</time>
      </trkpt>
      <trkpt lat="45.93838" lon="4.85409">
        <ele>282</ele>
        <time>2017-07-28T09:20:22Z</time>
      </trkpt>
      <trkpt lat="45.93837" lon="4.85415">
        <ele>282</ele>
        <time>2017-07-28T09:20:23Z</time>
      </trkpt>
      <trkpt lat="45.93834" lon="4.85426">
        <ele>282</ele>
        <time>2017-07-28T09:20:25Z</time>
      </trkpt>
      <trkpt lat="45.93833" lon="4.85431">
        <ele>282</ele>
        <time>2017-07-28T09:20:26Z</time>
      </trkpt>
      <trkpt lat="45.93832" lon="4.85441">
        <ele>282</ele>
        <time>2017-07-28T09:20:28Z</time>
      </trkpt>
      <trkpt lat="45.93831" lon="4.85446">
        <ele>282</ele>
        <time>2017-07-28T09:20:29Z</time>
      </trkpt>
      <trkpt lat="45.93828" lon="4.85456">
        <ele>282</ele>
        <time>2017-07-28T09:20:31Z</time>
      </trkpt>
      <trkpt lat="45.93827" lon="4.85462">
        <ele>282</ele>
        <time>2017-07-28T09:20:32Z</time>
      </trkpt>
      <trkpt lat="45.93825" lon="4.85474">
        <ele>282</ele>
        <time>2017-07-28T09:20:34Z</time>
      </trkpt>
      <trkpt lat="45.93824" lon="4.85481">
        <ele>282</ele>
        <time>2017-07-28T09:20:35Z</time>
      </trkpt>
      <trkpt lat="45.93823" lon="4.85493">
        <ele>282</ele>
        <time>2017-07-28T09:20:37Z</time>
      </trkpt>
      <trkpt lat="45.93822" lon="4.855">
        <ele>282</ele>
        <time>2017-07-28T09:20:38Z</time>
      </trkpt>
      <trkpt lat="45.93821" lon="4.85506">
        <ele>282</ele>
        <time>2017-07-28T09:20:39Z</time>
      </trkpt>
      <trkpt lat="45.9382" lon="4.85512">
        <ele>282</ele>
        <time>2017-07-28T09:20:40Z</time>
      </trkpt>
      <trkpt lat="45.93819" lon="4.85519">
        <ele>282</ele>
        <time>2017-07-28T09:20:41Z</time>
      </trkpt>
      <trkpt lat="45.93819" lon="4.85526">
        <ele>282</ele>
        <time>2017-07-28T09:20:42Z</time>
      </trkpt>
      <trkpt lat="45.93817" lon="4.85539">
        <ele>282</ele>
        <time>2017-07-28T09:20:44Z</time>
      </trkpt>
      <trkpt lat="45.93816" lon="4.85545">
        <ele>282</ele>
        <time>2017-07-28T09:20:45Z</time>
      </trkpt>
      <trkpt lat="45.93815" lon="4.85552">
        <ele>282</ele>
        <time>2017-07-28T09:20:46Z</time>
      </trkpt>
      <trkpt lat="45.93814" lon="4.8556">
        <ele>282</ele>
        <time>2017-07-28T09:20:47Z</time>
      </trkpt>
      <trkpt lat="45.93813" lon="4.85567">
        <ele>283</ele>
        <time>2017-07-28T09:20:48Z</time>
      </trkpt>
      <trkpt lat="45.93813" lon="4.85575">
        <ele>283</ele>
        <time>2017-07-28T09:20:49Z</time>
      </trkpt>
      <trkpt lat="45.93812" lon="4.85582">
        <ele>283</ele>
        <time>2017-07-28T09:20:50Z</time>
      </trkpt>
      <trkpt lat="45.93811" lon="4.85589">
        <ele>283</ele>
        <time>2017-07-28T09:20:51Z</time>
      </trkpt>
      <trkpt lat="45.93811" lon="4.85596">
        <ele>283</ele>
        <time>2017-07-28T09:20:52Z</time>
      </trkpt>
      <trkpt lat="45.9381" lon="4.85603">
        <ele>283</ele>
        <time>2017-07-28T09:20:53Z</time>
      </trkpt>
      <trkpt lat="45.9381" lon="4.85609">
        <ele>283</ele>
        <time>2017-07-28T09:20:54Z</time>
      </trkpt>
      <trkpt lat="45.9381" lon="4.85616">
        <ele>283</ele>
        <time>2017-07-28T09:20:55Z</time>
      </trkpt>
      <trkpt lat="45.9381" lon="4.85629">
        <ele>283</ele>
        <time>2017-07-28T09:20:57Z</time>
      </trkpt>
      <trkpt lat="45.93811" lon="4.85635">
        <ele>283</ele>
        <time>2017-07-28T09:20:58Z</time>
      </trkpt>
      <trkpt lat="45.93812" lon="4.85641">
        <ele>283</ele>
        <time>2017-07-28T09:20:59Z</time>
      </trkpt>
      <trkpt lat="45.93812" lon="4.85648">
        <ele>283</ele>
        <time>2017-07-28T09:21:00Z</time>
      </trkpt>
      <trkpt lat="45.93813" lon="4.85655">
        <ele>283</ele>
        <time>2017-07-28T09:21:01Z</time>
      </trkpt>
      <trkpt lat="45.93813" lon="4.85661">
        <ele>283</ele>
        <time>2017-07-28T09:21:02Z</time>
      </trkpt>
      <trkpt lat="45.93814" lon="4.85668">
        <ele>283</ele>
        <time>2017-07-28T09:21:03Z</time>
      </trkpt>
      <trkpt lat="45.93814" lon="4.85675">
        <ele>283</ele>
        <time>2017-07-28T09:21:04Z</time>
      </trkpt>
      <trkpt lat="45.93816" lon="4.85687">
        <ele>283</ele>
        <time>2017-07-28T09:21:06Z</time>
      </trkpt>
      <trkpt lat="45.93817" lon="4.85693">
        <ele>283</ele>
        <time>2017-07-28T09:21:07Z</time>
      </trkpt>
      <trkpt lat="45.93819" lon="4.85704">
        <ele>283</ele>
        <time>2017-07-28T09:21:09Z</time>
      </trkpt>
      <trkpt lat="45.9382" lon="4.8571">
        <ele>283</ele>
        <time>2017-07-28T09:21:10Z</time>
      </trkpt>
      <trkpt lat="45.93822" lon="4.85723">
        <ele>283</ele>
        <time>2017-07-28T09:21:12Z</time>
      </trkpt>
      <trkpt lat="45.93823" lon="4.85729">
        <ele>283</ele>
        <time>2017-07-28T09:21:13Z</time>
      </trkpt>
      <trkpt lat="45.93824" lon="4.85736">
        <ele>283</ele>
        <time>2017-07-28T09:21:14Z</time>
      </trkpt>
      <trkpt lat="45.93825" lon="4.85743">
        <ele>283</ele>
        <time>2017-07-28T09:21:15Z</time>
      </trkpt>
      <trkpt lat="45.93826" lon="4.8575">
        <ele>283</ele>
        <time>2017-07-28T09:21:16Z</time>
      </trkpt>
      <trkpt lat="45.93827" lon="4.85757">
        <ele>283</ele>
        <time>2017-07-28T09:21:17Z</time>
      </trkpt>
      <trkpt lat="45.93829" lon="4.85764">
        <ele>283</ele>
        <time>2017-07-28T09:21:18Z</time>
      </trkpt>
      <trkpt lat="45.9383" lon="4.8577">
        <ele>283</ele>
        <time>2017-07-28T09:21:19Z</time>
      </trkpt>
      <trkpt lat="45.93831" lon="4.85777">
        <ele>283</ele>
        <time>2017-07-28T09:21:20Z</time>
      </trkpt>
      <trkpt lat="45.93832" lon="4.85783">
        <ele>283</ele>
        <time>2017-07-28T09:21:21Z</time>
      </trkpt>
      <trkpt lat="45.93833" lon="4.8579">
        <ele>283</ele>
        <time>2017-07-28T09:21:22Z</time>
      </trkpt>
      <trkpt lat="45.93834" lon="4.85796">
        <ele>284</ele>
        <time>2017-07-28T09:21:23Z</time>
      </trkpt>
      <trkpt lat="45.93835" lon="4.85802">
        <ele>284</ele>
        <time>2017-07-28T09:21:24Z</time>
      </trkpt>
      <trkpt lat="45.93836" lon="4.85808">
        <ele>284</ele>
        <time>2017-07-28T09:21:25Z</time>
      </trkpt>
      <trkpt lat="45.93837" lon="4.85815">
        <ele>284</ele>
        <time>2017-07-28T09:21:26Z</time>
      </trkpt>
      <trkpt lat="45.93838" lon="4.85821">
        <ele>283</ele>
        <time>2017-07-28T09:21:27Z</time>
      </trkpt>
      <trkpt lat="45.93839" lon="4.85828">
        <ele>283</ele>
        <time>2017-07-28T09:21:28Z</time>
      </trkpt>
      <trkpt lat="45.9384" lon="4.85836">
        <ele>283</ele>
        <time>2017-07-28T09:21:29Z</time>
      </trkpt>
      <trkpt lat="45.93841" lon="4.85843">
        <ele>284</ele>
        <time>2017-07-28T09:21:30Z</time>
      </trkpt>
      <trkpt lat="45.93842" lon="4.85851">
        <ele>284</ele>
        <time>2017-07-28T09:21:31Z</time>
      </trkpt>
      <trkpt lat="45.93843" lon="4.85858">
        <ele>284</ele>
        <time>2017-07-28T09:21:32Z</time>
      </trkpt>
      <trkpt lat="45.93844" lon="4.85865">
        <ele>284</ele>
        <time>2017-07-28T09:21:33Z</time>
      </trkpt>
      <trkpt lat="45.93845" lon="4.85872">
        <ele>284</ele>
        <time>2017-07-28T09:21:34Z</time>
      </trkpt>
      <trkpt lat="45.93846" lon="4.85878">
        <ele>284</ele>
        <time>2017-07-28T09:21:35Z</time>
      </trkpt>
      <trkpt lat="45.93849" lon="4.85889">
        <ele>284</ele>
        <time>2017-07-28T09:21:37Z</time>
      </trkpt>
      <trkpt lat="45.9385" lon="4.85896">
        <ele>284</ele>
        <time>2017-07-28T09:21:38Z</time>
      </trkpt>
      <trkpt lat="45.93851" lon="4.85902">
        <ele>284</ele>
        <time>2017-07-28T09:21:39Z</time>
      </trkpt>
      <trkpt lat="45.93852" lon="4.85909">
        <ele>285</ele>
        <time>2017-07-28T09:21:40Z</time>
      </trkpt>
      <trkpt lat="45.93852" lon="4.85915">
        <ele>285</ele>
        <time>2017-07-28T09:21:41Z</time>
      </trkpt>
      <trkpt lat="45.93853" lon="4.85922">
        <ele>285</ele>
        <time>2017-07-28T09:21:42Z</time>
      </trkpt>
      <trkpt lat="45.93854" lon="4.85929">
        <ele>285</ele>
        <time>2017-07-28T09:21:43Z</time>
      </trkpt>
      <trkpt lat="45.93855" lon="4.85936">
        <ele>285</ele>
        <time>2017-07-28T09:21:44Z</time>
      </trkpt>
      <trkpt lat="45.93856" lon="4.85942">
        <ele>284</ele>
        <time>2017-07-28T09:21:45Z</time>
      </trkpt>
      <trkpt lat="45.93856" lon="4.85949">
        <ele>284</ele>
        <time>2017-07-28T09:21:46Z</time>
      </trkpt>
      <trkpt lat="45.93856" lon="4.85957">
        <ele>284</ele>
        <time>2017-07-28T09:21:47Z</time>
      </trkpt>
      <trkpt lat="45.93857" lon="4.85964">
        <ele>284</ele>
        <time>2017-07-28T09:21:48Z</time>
      </trkpt>
      <trkpt lat="45.93857" lon="4.85972">
        <ele>284</ele>
        <time>2017-07-28T09:21:49Z</time>
      </trkpt>
      <trkpt lat="45.93857" lon="4.8598">
        <ele>284</ele>
        <time>2017-07-28T09:21:50Z</time>
      </trkpt>
      <trkpt lat="45.93857" lon="4.85987">
        <ele>284</ele>
        <time>2017-07-28T09:21:51Z</time>
      </trkpt>
      <trkpt lat="45.93858" lon="4.85995">
        <ele>284</ele>
        <time>2017-07-28T09:21:52Z</time>
      </trkpt>
      <trkpt lat="45.93858" lon="4.86002">
        <ele>284</ele>
        <time>2017-07-28T09:21:53Z</time>
      </trkpt>
      <trkpt lat="45.93858" lon="4.86009">
        <ele>284</ele>
        <time>2017-07-28T09:21:54Z</time>
      </trkpt>
      <trkpt lat="45.93858" lon="4.86016">
        <ele>284</ele>
        <time>2017-07-28T09:21:55Z</time>
      </trkpt>
      <trkpt lat="45.93859" lon="4.86023">
        <ele>284</ele>
        <time>2017-07-28T09:21:56Z</time>
      </trkpt>
      <trkpt lat="45.9386" lon="4.86035">
        <ele>284</ele>
        <time>2017-07-28T09:21:58Z</time>
      </trkpt>
      <trkpt lat="45.9386" lon="4.86042">
        <ele>284</ele>
        <time>2017-07-28T09:21:59Z</time>
      </trkpt>
      <trkpt lat="45.93861" lon="4.86048">
        <ele>284</ele>
        <time>2017-07-28T09:22:00Z</time>
      </trkpt>
      <trkpt lat="45.93862" lon="4.86055">
        <ele>285</ele>
        <time>2017-07-28T09:22:01Z</time>
      </trkpt>
      <trkpt lat="45.93862" lon="4.86062">
        <ele>285</ele>
        <time>2017-07-28T09:22:02Z</time>
      </trkpt>
      <trkpt lat="45.93863" lon="4.86069">
        <ele>285</ele>
        <time>2017-07-28T09:22:03Z</time>
      </trkpt>
      <trkpt lat="45.93863" lon="4.86076">
        <ele>285</ele>
        <time>2017-07-28T09:22:04Z</time>
      </trkpt>
      <trkpt lat="45.93864" lon="4.86083">
        <ele>285</ele>
        <time>2017-07-28T09:22:05Z</time>
      </trkpt>
      <trkpt lat="45.93863" lon="4.8609">
        <ele>286</ele>
        <time>2017-07-28T09:22:06Z</time>
      </trkpt>
      <trkpt lat="45.93863" lon="4.86097">
        <ele>286</ele>
        <time>2017-07-28T09:22:07Z</time>
      </trkpt>
      <trkpt lat="45.93864" lon="4.86104">
        <ele>286</ele>
        <time>2017-07-28T09:22:08Z</time>
      </trkpt>
      <trkpt lat="45.93864" lon="4.86111">
        <ele>286</ele>
        <time>2017-07-28T09:22:09Z</time>
      </trkpt>
      <trkpt lat="45.93864" lon="4.86123">
        <ele>286</ele>
        <time>2017-07-28T09:22:11Z</time>
      </trkpt>
      <trkpt lat="45.93865" lon="4.86129">
        <ele>286</ele>
        <time>2017-07-28T09:22:12Z</time>
      </trkpt>
      <trkpt lat="45.93865" lon="4.86141">
        <ele>286</ele>
        <time>2017-07-28T09:22:14Z</time>
      </trkpt>
      <trkpt lat="45.93866" lon="4.86148">
        <ele>286</ele>
        <time>2017-07-28T09:22:15Z</time>
      </trkpt>
      <trkpt lat="45.93867" lon="4.86155">
        <ele>286</ele>
        <time>2017-07-28T09:22:16Z</time>
      </trkpt>
      <trkpt lat="45.93867" lon="4.86163">
        <ele>286</ele>
        <time>2017-07-28T09:22:17Z</time>
      </trkpt>
      <trkpt lat="45.93868" lon="4.86171">
        <ele>287</ele>
        <time>2017-07-28T09:22:18Z</time>
      </trkpt>
      <trkpt lat="45.93868" lon="4.86179">
        <ele>287</ele>
        <time>2017-07-28T09:22:19Z</time>
      </trkpt>
      <trkpt lat="45.93869" lon="4.86188">
        <ele>287</ele>
        <time>2017-07-28T09:22:20Z</time>
      </trkpt>
      <trkpt lat="45.9387" lon="4.86195">
        <ele>287</ele>
        <time>2017-07-28T09:22:21Z</time>
      </trkpt>
      <trkpt lat="45.9387" lon="4.86202">
        <ele>288</ele>
        <time>2017-07-28T09:22:22Z</time>
      </trkpt>
      <trkpt lat="45.9387" lon="4.86209">
        <ele>288</ele>
        <time>2017-07-28T09:22:23Z</time>
      </trkpt>
      <trkpt lat="45.9387" lon="4.86216">
        <ele>288</ele>
        <time>2017-07-28T09:22:24Z</time>
      </trkpt>
      <trkpt lat="45.93871" lon="4.86223">
        <ele>288</ele>
        <time>2017-07-28T09:22:25Z</time>
      </trkpt>
      <trkpt lat="45.93871" lon="4.86229">
        <ele>288</ele>
        <time>2017-07-28T09:22:26Z</time>
      </trkpt>
      <trkpt lat="45.93871" lon="4.86236">
        <ele>288</ele>
        <time>2017-07-28T09:22:27Z</time>
      </trkpt>
      <trkpt lat="45.93871" lon="4.86243">
        <ele>288</ele>
        <time>2017-07-28T09:22:28Z</time>
      </trkpt>
      <trkpt lat="45.9387" lon="4.8625">
        <ele>288</ele>
        <time>2017-07-28T09:22:29Z</time>
      </trkpt>
      <trkpt lat="45.93869" lon="4.86258">
        <ele>288</ele>
        <time>2017-07-28T09:22:30Z</time>
      </trkpt>
      <trkpt lat="45.93869" lon="4.86265">
        <ele>288</ele>
        <time>2017-07-28T09:22:31Z</time>
      </trkpt>
      <trkpt lat="45.93868" lon="4.86272">
        <ele>288</ele>
        <time>2017-07-28T09:22:32Z</time>
      </trkpt>
      <trkpt lat="45.93867" lon="4.86279">
        <ele>288</ele>
        <time>2017-07-28T09:22:33Z</time>
      </trkpt>
      <trkpt lat="45.93866" lon="4.86286">
        <ele>288</ele>
        <time>2017-07-28T09:22:34Z</time>
      </trkpt>
      <trkpt lat="45.93865" lon="4.86292">
        <ele>288</ele>
        <time>2017-07-28T09:22:35Z</time>
      </trkpt>
      <trkpt lat="45.93864" lon="4.86304">
        <ele>288</ele>
        <time>2017-07-28T09:22:37Z</time>
      </trkpt>
      <trkpt lat="45.93863" lon="4.8631">
        <ele>288</ele>
        <time>2017-07-28T09:22:38Z</time>
      </trkpt>
      <trkpt lat="45.93862" lon="4.86317">
        <ele>288</ele>
        <time>2017-07-28T09:22:39Z</time>
      </trkpt>
      <trkpt lat="45.93861" lon="4.86323">
        <ele>288</ele>
        <time>2017-07-28T09:22:40Z</time>
      </trkpt>
      <trkpt lat="45.9386" lon="4.8633">
        <ele>288</ele>
        <time>2017-07-28T09:22:41Z</time>
      </trkpt>
      <trkpt lat="45.93859" lon="4.86337">
        <ele>288</ele>
        <time>2017-07-28T09:22:42Z</time>
      </trkpt>
      <trkpt lat="45.93858" lon="4.86344">
        <ele>288</ele>
        <time>2017-07-28T09:22:43Z</time>
      </trkpt>
      <trkpt lat="45.93857" lon="4.8635">
        <ele>288</ele>
        <time>2017-07-28T09:22:44Z</time>
      </trkpt>
      <trkpt lat="45.93856" lon="4.86357">
        <ele>288</ele>
        <time>2017-07-28T09:22:45Z</time>
      </trkpt>
      <trkpt lat="45.93855" lon="4.86363">
        <ele>288</ele>
        <time>2017-07-28T09:22:46Z</time>
      </trkpt>
      <trkpt lat="45.93854" lon="4.8637">
        <ele>288</ele>
        <time>2017-07-28T09:22:47Z</time>
      </trkpt>
      <trkpt lat="45.93854" lon="4.86376">
        <ele>288</ele>
        <time>2017-07-28T09:22:48Z</time>
      </trkpt>
      <trkpt lat="45.93853" lon="4.86383">
        <ele>288</ele>
        <time>2017-07-28T09:22:49Z</time>
      </trkpt>
      <trkpt lat="45.93852" lon="4.86389">
        <ele>288</ele>
        <time>2017-07-28T09:22:50Z</time>
      </trkpt>
      <trkpt lat="45.93851" lon="4.86395">
        <ele>288</ele>
        <time>2017-07-28T09:22:51Z</time>
      </trkpt>
      <trkpt lat="45.93851" lon="4.86402">
        <ele>288</ele>
        <time>2017-07-28T09:22:52Z</time>
      </trkpt>
      <trkpt lat="45.9385" lon="4.86408">
        <ele>288</ele>
        <time>2017-07-28T09:22:53Z</time>
      </trkpt>
      <trkpt lat="45.93848" lon="4.86414">
        <ele>288</ele>
        <time>2017-07-28T09:22:54Z</time>
      </trkpt>
      <trkpt lat="45.93847" lon="4.86421">
        <ele>288</ele>
        <time>2017-07-28T09:22:55Z</time>
      </trkpt>
      <trkpt lat="45.93847" lon="4.86427">
        <ele>288</ele>
        <time>2017-07-28T09:22:56Z</time>
      </trkpt>
      <trkpt lat="45.93846" lon="4.86434">
        <ele>288</ele>
        <time>2017-07-28T09:22:57Z</time>
      </trkpt>
      <trkpt lat="45.93845" lon="4.86441">
        <ele>288</ele>
        <time>2017-07-28T09:22:58Z</time>
      </trkpt>
      <trkpt lat="45.93844" lon="4.86449">
        <ele>288</ele>
        <time>2017-07-28T09:22:59Z</time>
      </trkpt>
      <trkpt lat="45.93843" lon="4.86457">
        <ele>288</ele>
        <time>2017-07-28T09:23:00Z</time>
      </trkpt>
      <trkpt lat="45.93841" lon="4.86465">
        <ele>288</ele>
        <time>2017-07-28T09:23:01Z</time>
      </trkpt>
      <trkpt lat="45.9384" lon="4.86473">
        <ele>288</ele>
        <time>2017-07-28T09:23:02Z</time>
      </trkpt>
      <trkpt lat="45.93839" lon="4.86481">
        <ele>288</ele>
        <time>2017-07-28T09:23:03Z</time>
      </trkpt>
      <trkpt lat="45.93837" lon="4.8649">
        <ele>288</ele>
        <time>2017-07-28T09:23:04Z</time>
      </trkpt>
      <trkpt lat="45.93836" lon="4.86498">
        <ele>288</ele>
        <time>2017-07-28T09:23:05Z</time>
      </trkpt>
      <trkpt lat="45.93835" lon="4.86506">
        <ele>288</ele>
        <time>2017-07-28T09:23:06Z</time>
      </trkpt>
      <trkpt lat="45.93833" lon="4.86513">
        <ele>289</ele>
        <time>2017-07-28T09:23:07Z</time>
      </trkpt>
      <trkpt lat="45.93833" lon="4.86521">
        <ele>289</ele>
        <time>2017-07-28T09:23:08Z</time>
      </trkpt>
      <trkpt lat="45.93832" lon="4.86527">
        <ele>290</ele>
        <time>2017-07-28T09:23:09Z</time>
      </trkpt>
      <trkpt lat="45.93831" lon="4.86534">
        <ele>290</ele>
        <time>2017-07-28T09:23:10Z</time>
      </trkpt>
      <trkpt lat="45.93829" lon="4.8654">
        <ele>290</ele>
        <time>2017-07-28T09:23:11Z</time>
      </trkpt>
      <trkpt lat="45.93828" lon="4.86547">
        <ele>290</ele>
        <time>2017-07-28T09:23:12Z</time>
      </trkpt>
      <trkpt lat="45.93828" lon="4.86554">
        <ele>290</ele>
        <time>2017-07-28T09:23:13Z</time>
      </trkpt>
      <trkpt lat="45.93827" lon="4.86561">
        <ele>289</ele>
        <time>2017-07-28T09:23:14Z</time>
      </trkpt>
      <trkpt lat="45.93826" lon="4.86568">
        <ele>289</ele>
        <time>2017-07-28T09:23:15Z</time>
      </trkpt>
      <trkpt lat="45.93825" lon="4.86576">
        <ele>289</ele>
        <time>2017-07-28T09:23:16Z</time>
      </trkpt>
      <trkpt lat="45.93824" lon="4.86583">
        <ele>289</ele>
        <time>2017-07-28T09:23:17Z</time>
      </trkpt>
      <trkpt lat="45.93823" lon="4.86591">
        <ele>288</ele>
        <time>2017-07-28T09:23:18Z</time>
      </trkpt>
      <trkpt lat="45.93822" lon="4.86599">
        <ele>288</ele>
        <time>2017-07-28T09:23:19Z</time>
      </trkpt>
      <trkpt lat="45.93821" lon="4.86607">
        <ele>288</ele>
        <time>2017-07-28T09:23:20Z</time>
      </trkpt>
      <trkpt lat="45.9382" lon="4.86614">
        <ele>288</ele>
        <time>2017-07-28T09:23:21Z</time>
      </trkpt>
      <trkpt lat="45.93819" lon="4.86622">
        <ele>288</ele>
        <time>2017-07-28T09:23:22Z</time>
      </trkpt>
      <trkpt lat="45.93818" lon="4.8663">
        <ele>288</ele>
        <time>2017-07-28T09:23:23Z</time>
      </trkpt>
      <trkpt lat="45.93817" lon="4.86637">
        <ele>288</ele>
        <time>2017-07-28T09:23:24Z</time>
      </trkpt>
      <trkpt lat="45.93816" lon="4.86644">
        <ele>288</ele>
        <time>2017-07-28T09:23:25Z</time>
      </trkpt>
      <trkpt lat="45.93815" lon="4.8665">
        <ele>288</ele>
        <time>2017-07-28T09:23:26Z</time>
      </trkpt>
      <trkpt lat="45.93813" lon="4.86662">
        <ele>288</ele>
        <time>2017-07-28T09:23:28Z</time>
      </trkpt>
      <trkpt lat="45.93812" lon="4.86669">
        <ele>287</ele>
        <time>2017-07-28T09:23:29Z</time>
      </trkpt>
      <trkpt lat="45.93811" lon="4.86676">
        <ele>287</ele>
        <time>2017-07-28T09:23:30Z</time>
      </trkpt>
      <trkpt lat="45.9381" lon="4.86683">
        <ele>287</ele>
        <time>2017-07-28T09:23:31Z</time>
      </trkpt>
      <trkpt lat="45.93809" lon="4.8669">
        <ele>287</ele>
        <time>2017-07-28T09:23:32Z</time>
      </trkpt>
      <trkpt lat="45.93808" lon="4.86697">
        <ele>287</ele>
        <time>2017-07-28T09:23:33Z</time>
      </trkpt>
      <trkpt lat="45.93807" lon="4.86703">
        <ele>287</ele>
        <time>2017-07-28T09:23:34Z</time>
      </trkpt>
      <trkpt lat="45.93806" lon="4.8671">
        <ele>287</ele>
        <time>2017-07-28T09:23:35Z</time>
      </trkpt>
      <trkpt lat="45.93805" lon="4.86717">
        <ele>287</ele>
        <time>2017-07-28T09:23:36Z</time>
      </trkpt>
      <trkpt lat="45.93804" lon="4.86723">
        <ele>287</ele>
        <time>2017-07-28T09:23:37Z</time>
      </trkpt>
      <trkpt lat="45.93802" lon="4.86735">
        <ele>287</ele>
        <time>2017-07-28T09:23:39Z</time>
      </trkpt>
      <trkpt lat="45.93801" lon="4.86742">
        <ele>286</ele>
        <time>2017-07-28T09:23:40Z</time>
      </trkpt>
      <trkpt lat="45.938" lon="4.86749">
        <ele>286</ele>
        <time>2017-07-28T09:23:41Z</time>
      </trkpt>
      <trkpt lat="45.93799" lon="4.86756">
        <ele>286</ele>
        <time>2017-07-28T09:23:42Z</time>
      </trkpt>
      <trkpt lat="45.93798" lon="4.86764">
        <ele>286</ele>
        <time>2017-07-28T09:23:43Z</time>
      </trkpt>
      <trkpt lat="45.93797" lon="4.86771">
        <ele>286</ele>
        <time>2017-07-28T09:23:44Z</time>
      </trkpt>
      <trkpt lat="45.93796" lon="4.86778">
        <ele>286</ele>
        <time>2017-07-28T09:23:45Z</time>
      </trkpt>
      <trkpt lat="45.93795" lon="4.86784">
        <ele>286</ele>
        <time>2017-07-28T09:23:46Z</time>
      </trkpt>
      <trkpt lat="45.93793" lon="4.86797">
        <ele>286</ele>
        <time>2017-07-28T09:23:48Z</time>
      </trkpt>
      <trkpt lat="45.93792" lon="4.86803">
        <ele>286</ele>
        <time>2017-07-28T09:23:49Z</time>
      </trkpt>
      <trkpt lat="45.9379" lon="4.86816">
        <ele>286</ele>
        <time>2017-07-28T09:23:51Z</time>
      </trkpt>
      <trkpt lat="45.93789" lon="4.86822">
        <ele>286</ele>
        <time>2017-07-28T09:23:52Z</time>
      </trkpt>
      <trkpt lat="45.93787" lon="4.86834">
        <ele>286</ele>
        <time>2017-07-28T09:23:54Z</time>
      </trkpt>
      <trkpt lat="45.93787" lon="4.86841">
        <ele>286</ele>
        <time>2017-07-28T09:23:55Z</time>
      </trkpt>
      <trkpt lat="45.93785" lon="4.86853">
        <ele>286</ele>
        <time>2017-07-28T09:23:57Z</time>
      </trkpt>
      <trkpt lat="45.93784" lon="4.86859">
        <ele>286</ele>
        <time>2017-07-28T09:23:58Z</time>
      </trkpt>
      <trkpt lat="45.93783" lon="4.86872">
        <ele>286</ele>
        <time>2017-07-28T09:24:00Z</time>
      </trkpt>
      <trkpt lat="45.93782" lon="4.86879">
        <ele>286</ele>
        <time>2017-07-28T09:24:01Z</time>
      </trkpt>
      <trkpt lat="45.9378" lon="4.86886">
        <ele>286</ele>
        <time>2017-07-28T09:24:02Z</time>
      </trkpt>
      <trkpt lat="45.93779" lon="4.86893">
        <ele>286</ele>
        <time>2017-07-28T09:24:03Z</time>
      </trkpt>
      <trkpt lat="45.93778" lon="4.86901">
        <ele>286</ele>
        <time>2017-07-28T09:24:04Z</time>
      </trkpt>
      <trkpt lat="45.93777" lon="4.86909">
        <ele>285</ele>
        <time>2017-07-28T09:24:05Z</time>
      </trkpt>
      <trkpt lat="45.93776" lon="4.86917">
        <ele>285</ele>
        <time>2017-07-28T09:24:06Z</time>
      </trkpt>
      <trkpt lat="45.93775" lon="4.86925">
        <ele>285</ele>
        <time>2017-07-28T09:24:07Z</time>
      </trkpt>
      <trkpt lat="45.93774" lon="4.86934">
        <ele>285</ele>
        <time>2017-07-28T09:24:08Z</time>
      </trkpt>
      <trkpt lat="45.93773" lon="4.86942">
        <ele>285</ele>
        <time>2017-07-28T09:24:09Z</time>
      </trkpt>
      <trkpt lat="45.93771" lon="4.8695">
        <ele>285</ele>
        <time>2017-07-28T09:24:10Z</time>
      </trkpt>
      <trkpt lat="45.9377" lon="4.86958">
        <ele>285</ele>
        <time>2017-07-28T09:24:11Z</time>
      </trkpt>
      <trkpt lat="45.93769" lon="4.86966">
        <ele>285</ele>
        <time>2017-07-28T09:24:12Z</time>
      </trkpt>
      <trkpt lat="45.93767" lon="4.86974">
        <ele>285</ele>
        <time>2017-07-28T09:24:13Z</time>
      </trkpt>
      <trkpt lat="45.93766" lon="4.86983">
        <ele>285</ele>
        <time>2017-07-28T09:24:14Z</time>
      </trkpt>
      <trkpt lat="45.93765" lon="4.86993">
        <ele>285</ele>
        <time>2017-07-28T09:24:15Z</time>
      </trkpt>
      <trkpt lat="45.93764" lon="4.87003">
        <ele>284</ele>
        <time>2017-07-28T09:24:16Z</time>
      </trkpt>
      <trkpt lat="45.93763" lon="4.87013">
        <ele>284</ele>
        <time>2017-07-28T09:24:17Z</time>
      </trkpt>
      <trkpt lat="45.93762" lon="4.87023">
        <ele>284</ele>
        <time>2017-07-28T09:24:18Z</time>
      </trkpt>
      <trkpt lat="45.93761" lon="4.87033">
        <ele>284</ele>
        <time>2017-07-28T09:24:19Z</time>
      </trkpt>
      <trkpt lat="45.93759" lon="4.87043">
        <ele>284</ele>
        <time>2017-07-28T09:24:20Z</time>
      </trkpt>
      <trkpt lat="45.93757" lon="4.87054">
        <ele>284</ele>
        <time>2017-07-28T09:24:21Z</time>
      </trkpt>
      <trkpt lat="45.93756" lon="4.87065">
        <ele>284</ele>
        <time>2017-07-28T09:24:22Z</time>
      </trkpt>
      <trkpt lat="45.93754" lon="4.87077">
        <ele>284</ele>
        <time>2017-07-28T09:24:23Z</time>
      </trkpt>
      <trkpt lat="45.93752" lon="4.87088">
        <ele>284</ele>
        <time>2017-07-28T09:24:24Z</time>
      </trkpt>
      <trkpt lat="45.93751" lon="4.871">
        <ele>284</ele>
        <time>2017-07-28T09:24:25Z</time>
      </trkpt>
      <trkpt lat="45.9375" lon="4.87111">
        <ele>285</ele>
        <time>2017-07-28T09:24:26Z</time>
      </trkpt>
      <trkpt lat="45.93748" lon="4.87123">
        <ele>285</ele>
        <time>2017-07-28T09:24:27Z</time>
      </trkpt>
      <trkpt lat="45.93747" lon="4.87135">
        <ele>285</ele>
        <time>2017-07-28T09:24:28Z</time>
      </trkpt>
      <trkpt lat="45.93745" lon="4.87146">
        <ele>285</ele>
        <time>2017-07-28T09:24:29Z</time>
      </trkpt>
      <trkpt lat="45.93743" lon="4.87157">
        <ele>285</ele>
        <time>2017-07-28T09:24:30Z</time>
      </trkpt>
      <trkpt lat="45.93741" lon="4.87168">
        <ele>285</ele>
        <time>2017-07-28T09:24:31Z</time>
      </trkpt>
      <trkpt lat="45.93739" lon="4.87179">
        <ele>285</ele>
        <time>2017-07-28T09:24:32Z</time>
      </trkpt>
      <trkpt lat="45.93738" lon="4.8719">
        <ele>285</ele>
        <time>2017-07-28T09:24:33Z</time>
      </trkpt>
      <trkpt lat="45.93736" lon="4.872">
        <ele>285</ele>
        <time>2017-07-28T09:24:34Z</time>
      </trkpt>
      <trkpt lat="45.93734" lon="4.8721">
        <ele>285</ele>
        <time>2017-07-28T09:24:35Z</time>
      </trkpt>
      <trkpt lat="45.93733" lon="4.8722">
        <ele>285</ele>
        <time>2017-07-28T09:24:36Z</time>
      </trkpt>
      <trkpt lat="45.93732" lon="4.8723">
        <ele>285</ele>
        <time>2017-07-28T09:24:37Z</time>
      </trkpt>
      <trkpt lat="45.93731" lon="4.8724">
        <ele>285</ele>
        <time>2017-07-28T09:24:38Z</time>
      </trkpt>
      <trkpt lat="45.93729" lon="4.87249">
        <ele>285</ele>
        <time>2017-07-28T09:24:39Z</time>
      </trkpt>
      <trkpt lat="45.93728" lon="4.87259">
        <ele>285</ele>
        <time>2017-07-28T09:24:40Z</time>
      </trkpt>
      <trkpt lat="45.93726" lon="4.87267">
        <ele>285</ele>
        <time>2017-07-28T09:24:41Z</time>
      </trkpt>
      <trkpt lat="45.93725" lon="4.87276">
        <ele>285</ele>
        <time>2017-07-28T09:24:42Z</time>
      </trkpt>
      <trkpt lat="45.93723" lon="4.87285">
        <ele>285</ele>
        <time>2017-07-28T09:24:43Z</time>
      </trkpt>
      <trkpt lat="45.93721" lon="4.87294">
        <ele>285</ele>
        <time>2017-07-28T09:24:44Z</time>
      </trkpt>
      <trkpt lat="45.93719" lon="4.87302">
        <ele>285</ele>
        <time>2017-07-28T09:24:45Z</time>
      </trkpt>
      <trkpt lat="45.93717" lon="4.87309">
        <ele>285</ele>
        <time>2017-07-28T09:24:46Z</time>
      </trkpt>
      <trkpt lat="45.93716" lon="4.87317">
        <ele>285</ele>
        <time>2017-07-28T09:24:47Z</time>
      </trkpt>
      <trkpt lat="45.93714" lon="4.87324">
        <ele>285</ele>
        <time>2017-07-28T09:24:48Z</time>
      </trkpt>
      <trkpt lat="45.93712" lon="4.87332">
        <ele>285</ele>
        <time>2017-07-28T09:24:49Z</time>
      </trkpt>
      <trkpt lat="45.9371" lon="4.87339">
        <ele>284</ele>
        <time>2017-07-28T09:24:50Z</time>
      </trkpt>
      <trkpt lat="45.93708" lon="4.87346">
        <ele>284</ele>
        <time>2017-07-28T09:24:51Z</time>
      </trkpt>
      <trkpt lat="45.93706" lon="4.87354">
        <ele>284</ele>
        <time>2017-07-28T09:24:52Z</time>
      </trkpt>
      <trkpt lat="45.93704" lon="4.87362">
        <ele>284</ele>
        <time>2017-07-28T09:24:53Z</time>
      </trkpt>
      <trkpt lat="45.93702" lon="4.8737">
        <ele>284</ele>
        <time>2017-07-28T09:24:54Z</time>
      </trkpt>
      <trkpt lat="45.93699" lon="4.87378">
        <ele>284</ele>
        <time>2017-07-28T09:24:55Z</time>
      </trkpt>
      <trkpt lat="45.93696" lon="4.87385">
        <ele>284</ele>
        <time>2017-07-28T09:24:56Z</time>
      </trkpt>
      <trkpt lat="45.93693" lon="4.87392">
        <ele>284</ele>
        <time>2017-07-28T09:24:57Z</time>
      </trkpt>
      <trkpt lat="45.93691" lon="4.874">
        <ele>284</ele>
        <time>2017-07-28T09:24:58Z</time>
      </trkpt>
      <trkpt lat="45.93688" lon="4.87407">
        <ele>284</ele>
        <time>2017-07-28T09:24:59Z</time>
      </trkpt>
      <trkpt lat="45.93685" lon="4.87413">
        <ele>284</ele>
        <time>2017-07-28T09:25:00Z</time>
      </trkpt>
      <trkpt lat="45.93683" lon="4.8742">
        <ele>284</ele>
        <time>2017-07-28T09:25:01Z</time>
      </trkpt>
      <trkpt lat="45.9368" lon="4.87426">
        <ele>284</ele>
        <time>2017-07-28T09:25:02Z</time>
      </trkpt>
      <trkpt lat="45.93677" lon="4.87432">
        <ele>284</ele>
        <time>2017-07-28T09:25:03Z</time>
      </trkpt>
      <trkpt lat="45.93674" lon="4.87437">
        <ele>284</ele>
        <time>2017-07-28T09:25:04Z</time>
      </trkpt>
      <trkpt lat="45.93671" lon="4.87443">
        <ele>284</ele>
        <time>2017-07-28T09:25:05Z</time>
      </trkpt>
      <trkpt lat="45.93668" lon="4.87448">
        <ele>284</ele>
        <time>2017-07-28T09:25:06Z</time>
      </trkpt>
      <trkpt lat="45.93665" lon="4.87454">
        <ele>285</ele>
        <time>2017-07-28T09:25:07Z</time>
      </trkpt>
      <trkpt lat="45.93661" lon="4.8746">
        <ele>285</ele>
        <time>2017-07-28T09:25:08Z</time>
      </trkpt>
      <trkpt lat="45.93658" lon="4.87467">
        <ele>285</ele>
        <time>2017-07-28T09:25:09Z</time>
      </trkpt>
      <trkpt lat="45.93655" lon="4.87473">
        <ele>285</ele>
        <time>2017-07-28T09:25:10Z</time>
      </trkpt>
      <trkpt lat="45.93651" lon="4.8748">
        <ele>285</ele>
        <time>2017-07-28T09:25:11Z</time>
      </trkpt>
      <trkpt lat="45.93648" lon="4.87487">
        <ele>285</ele>
        <time>2017-07-28T09:25:12Z</time>
      </trkpt>
      <trkpt lat="45.93644" lon="4.87493">
        <ele>285</ele>
        <time>2017-07-28T09:25:13Z</time>
      </trkpt>
      <trkpt lat="45.93641" lon="4.87499">
        <ele>285</ele>
        <time>2017-07-28T09:25:14Z</time>
      </trkpt>
      <trkpt lat="45.93638" lon="4.87505">
        <ele>285</ele>
        <time>2017-07-28T09:25:15Z</time>
      </trkpt>
      <trkpt lat="45.93636" lon="4.87511">
        <ele>285</ele>
        <time>2017-07-28T09:25:16Z</time>
      </trkpt>
      <trkpt lat="45.93632" lon="4.87516">
        <ele>285</ele>
        <time>2017-07-28T09:25:17Z</time>
      </trkpt>
      <trkpt lat="45.93629" lon="4.87521">
        <ele>285</ele>
        <time>2017-07-28T09:25:18Z</time>
      </trkpt>
      <trkpt lat="45.93626" lon="4.87527">
        <ele>285</ele>
        <time>2017-07-28T09:25:19Z</time>
      </trkpt>
      <trkpt lat="45.93623" lon="4.87532">
        <ele>286</ele>
        <time>2017-07-28T09:25:20Z</time>
      </trkpt>
      <trkpt lat="45.9362" lon="4.87537">
        <ele>286</ele>
        <time>2017-07-28T09:25:21Z</time>
      </trkpt>
      <trkpt lat="45.93617" lon="4.87542">
        <ele>286</ele>
        <time>2017-07-28T09:25:22Z</time>
      </trkpt>
      <trkpt lat="45.93614" lon="4.87547">
        <ele>286</ele>
        <time>2017-07-28T09:25:23Z</time>
      </trkpt>
      <trkpt lat="45.93611" lon="4.87553">
        <ele>286</ele>
        <time>2017-07-28T09:25:24Z</time>
      </trkpt>
      <trkpt lat="45.93608" lon="4.87558">
        <ele>286</ele>
        <time>2017-07-28T09:25:25Z</time>
      </trkpt>
      <trkpt lat="45.93605" lon="4.87564">
        <ele>286</ele>
        <time>2017-07-28T09:25:26Z</time>
      </trkpt>
      <trkpt lat="45.93601" lon="4.8757">
        <ele>286</ele>
        <time>2017-07-28T09:25:27Z</time>
      </trkpt>
      <trkpt lat="45.93598" lon="4.87576">
        <ele>286</ele>
        <time>2017-07-28T09:25:28Z</time>
      </trkpt>
      <trkpt lat="45.93594" lon="4.87583">
        <ele>286</ele>
        <time>2017-07-28T09:25:29Z</time>
      </trkpt>
      <trkpt lat="45.93591" lon="4.87589">
        <ele>286</ele>
        <time>2017-07-28T09:25:30Z</time>
      </trkpt>
      <trkpt lat="45.93587" lon="4.87595">
        <ele>285</ele>
        <time>2017-07-28T09:25:31Z</time>
      </trkpt>
      <trkpt lat="45.93584" lon="4.87601">
        <ele>285</ele>
        <time>2017-07-28T09:25:32Z</time>
      </trkpt>
      <trkpt lat="45.93582" lon="4.87607">
        <ele>286</ele>
        <time>2017-07-28T09:25:33Z</time>
      </trkpt>
      <trkpt lat="45.93579" lon="4.87613">
        <ele>286</ele>
        <time>2017-07-28T09:25:34Z</time>
      </trkpt>
      <trkpt lat="45.93577" lon="4.87619">
        <ele>285</ele>
        <time>2017-07-28T09:25:35Z</time>
      </trkpt>
      <trkpt lat="45.93575" lon="4.87625">
        <ele>285</ele>
        <time>2017-07-28T09:25:36Z</time>
      </trkpt>
      <trkpt lat="45.93573" lon="4.87632">
        <ele>285</ele>
        <time>2017-07-28T09:25:37Z</time>
      </trkpt>
      <trkpt lat="45.93571" lon="4.87638">
        <ele>285</ele>
        <time>2017-07-28T09:25:38Z</time>
      </trkpt>
      <trkpt lat="45.93568" lon="4.87645">
        <ele>285</ele>
        <time>2017-07-28T09:25:39Z</time>
      </trkpt>
      <trkpt lat="45.93566" lon="4.87653">
        <ele>285</ele>
        <time>2017-07-28T09:25:40Z</time>
      </trkpt>
      <trkpt lat="45.93564" lon="4.8766">
        <ele>285</ele>
        <time>2017-07-28T09:25:41Z</time>
      </trkpt>
      <trkpt lat="45.93562" lon="4.87666">
        <ele>285</ele>
        <time>2017-07-28T09:25:42Z</time>
      </trkpt>
      <trkpt lat="45.93561" lon="4.87673">
        <ele>284</ele>
        <time>2017-07-28T09:25:43Z</time>
      </trkpt>
      <trkpt lat="45.93559" lon="4.87679">
        <ele>284</ele>
        <time>2017-07-28T09:25:44Z</time>
      </trkpt>
      <trkpt lat="45.93558" lon="4.87686">
        <ele>284</ele>
        <time>2017-07-28T09:25:45Z</time>
      </trkpt>
      <trkpt lat="45.93556" lon="4.87692">
        <ele>284</ele>
        <time>2017-07-28T09:25:46Z</time>
      </trkpt>
      <trkpt lat="45.93555" lon="4.87698">
        <ele>284</ele>
        <time>2017-07-28T09:25:47Z</time>
      </trkpt>
      <trkpt lat="45.93553" lon="4.87705">
        <ele>284</ele>
        <time>2017-07-28T09:25:48Z</time>
      </trkpt>
      <trkpt lat="45.93552" lon="4.87711">
        <ele>284</ele>
        <time>2017-07-28T09:25:49Z</time>
      </trkpt>
      <trkpt lat="45.9355" lon="4.87717">
        <ele>284</ele>
        <time>2017-07-28T09:25:50Z</time>
      </trkpt>
      <trkpt lat="45.93548" lon="4.87724">
        <ele>284</ele>
        <time>2017-07-28T09:25:51Z</time>
      </trkpt>
      <trkpt lat="45.93546" lon="4.87731">
        <ele>284</ele>
        <time>2017-07-28T09:25:52Z</time>
      </trkpt>
      <trkpt lat="45.93544" lon="4.87738">
        <ele>284</ele>
        <time>2017-07-28T09:25:53Z</time>
      </trkpt>
      <trkpt lat="45.93542" lon="4.87746">
        <ele>285</ele>
        <time>2017-07-28T09:25:54Z</time>
      </trkpt>
      <trkpt lat="45.9354" lon="4.87753">
        <ele>284</ele>
        <time>2017-07-28T09:25:55Z</time>
      </trkpt>
      <trkpt lat="45.93539" lon="4.8776">
        <ele>284</ele>
        <time>2017-07-28T09:25:56Z</time>
      </trkpt>
      <trkpt lat="45.93537" lon="4.87767">
        <ele>284</ele>
        <time>2017-07-28T09:25:57Z</time>
      </trkpt>
      <trkpt lat="45.93535" lon="4.87773">
        <ele>284</ele>
        <time>2017-07-28T09:25:58Z</time>
      </trkpt>
      <trkpt lat="45.93533" lon="4.87779">
        <ele>284</ele>
        <time>2017-07-28T09:25:59Z</time>
      </trkpt>
      <trkpt lat="45.93532" lon="4.87785">
        <ele>284</ele>
        <time>2017-07-28T09:26:00Z</time>
      </trkpt>
      <trkpt lat="45.9353" lon="4.87792">
        <ele>284</ele>
        <time>2017-07-28T09:26:01Z</time>
      </trkpt>
      <trkpt lat="45.93529" lon="4.87798">
        <ele>284</ele>
        <time>2017-07-28T09:26:02Z</time>
      </trkpt>
      <trkpt lat="45.93527" lon="4.87806">
        <ele>284</ele>
        <time>2017-07-28T09:26:03Z</time>
      </trkpt>
      <trkpt lat="45.93526" lon="4.87813">
        <ele>284</ele>
        <time>2017-07-28T09:26:04Z</time>
      </trkpt>
      <trkpt lat="45.93525" lon="4.8782">
        <ele>284</ele>
        <time>2017-07-28T09:26:05Z</time>
      </trkpt>
      <trkpt lat="45.93524" lon="4.87828">
        <ele>284</ele>
        <time>2017-07-28T09:26:06Z</time>
      </trkpt>
      <trkpt lat="45.93523" lon="4.87836">
        <ele>283</ele>
        <time>2017-07-28T09:26:07Z</time>
      </trkpt>
      <trkpt lat="45.93522" lon="4.87843">
        <ele>283</ele>
        <time>2017-07-28T09:26:08Z</time>
      </trkpt>
      <trkpt lat="45.93521" lon="4.87851">
        <ele>283</ele>
        <time>2017-07-28T09:26:09Z</time>
      </trkpt>
      <trkpt lat="45.9352" lon="4.87858">
        <ele>283</ele>
        <time>2017-07-28T09:26:10Z</time>
      </trkpt>
      <trkpt lat="45.9352" lon="4.87865">
        <ele>283</ele>
        <time>2017-07-28T09:26:11Z</time>
      </trkpt>
      <trkpt lat="45.93519" lon="4.87872">
        <ele>283</ele>
        <time>2017-07-28T09:26:12Z</time>
      </trkpt>
      <trkpt lat="45.93518" lon="4.87879">
        <ele>283</ele>
        <time>2017-07-28T09:26:13Z</time>
      </trkpt>
      <trkpt lat="45.93517" lon="4.87886">
        <ele>283</ele>
        <time>2017-07-28T09:26:14Z</time>
      </trkpt>
      <trkpt lat="45.93516" lon="4.87893">
        <ele>283</ele>
        <time>2017-07-28T09:26:15Z</time>
      </trkpt>
      <trkpt lat="45.93516" lon="4.879">
        <ele>283</ele>
        <time>2017-07-28T09:26:16Z</time>
      </trkpt>
      <trkpt lat="45.93516" lon="4.87907">
        <ele>283</ele>
        <time>2017-07-28T09:26:17Z</time>
      </trkpt>
      <trkpt lat="45.93515" lon="4.87914">
        <ele>284</ele>
        <time>2017-07-28T09:26:18Z</time>
      </trkpt>
      <trkpt lat="45.93514" lon="4.87921">
        <ele>284</ele>
        <time>2017-07-28T09:26:19Z</time>
      </trkpt>
      <trkpt lat="45.93513" lon="4.87929">
        <ele>284</ele>
        <time>2017-07-28T09:26:20Z</time>
      </trkpt>
      <trkpt lat="45.93513" lon="4.87936">
        <ele>284</ele>
        <time>2017-07-28T09:26:21Z</time>
      </trkpt>
      <trkpt lat="45.93512" lon="4.87943">
        <ele>284</ele>
        <time>2017-07-28T09:26:22Z</time>
      </trkpt>
      <trkpt lat="45.93511" lon="4.8795">
        <ele>284</ele>
        <time>2017-07-28T09:26:23Z</time>
      </trkpt>
      <trkpt lat="45.9351" lon="4.87957">
        <ele>284</ele>
        <time>2017-07-28T09:26:24Z</time>
      </trkpt>
      <trkpt lat="45.93509" lon="4.87964">
        <ele>284</ele>
        <time>2017-07-28T09:26:25Z</time>
      </trkpt>
      <trkpt lat="45.93508" lon="4.87976">
        <ele>285</ele>
        <time>2017-07-28T09:26:27Z</time>
      </trkpt>
      <trkpt lat="45.93507" lon="4.87982">
        <ele>285</ele>
        <time>2017-07-28T09:26:28Z</time>
      </trkpt>
      <trkpt lat="45.93507" lon="4.87989">
        <ele>285</ele>
        <time>2017-07-28T09:26:29Z</time>
      </trkpt>
      <trkpt lat="45.93506" lon="4.87995">
        <ele>285</ele>
        <time>2017-07-28T09:26:30Z</time>
      </trkpt>
      <trkpt lat="45.93505" lon="4.88003">
        <ele>286</ele>
        <time>2017-07-28T09:26:31Z</time>
      </trkpt>
      <trkpt lat="45.93504" lon="4.8801">
        <ele>286</ele>
        <time>2017-07-28T09:26:32Z</time>
      </trkpt>
      <trkpt lat="45.93504" lon="4.88018">
        <ele>286</ele>
        <time>2017-07-28T09:26:33Z</time>
      </trkpt>
      <trkpt lat="45.93503" lon="4.88026">
        <ele>286</ele>
        <time>2017-07-28T09:26:34Z</time>
      </trkpt>
      <trkpt lat="45.93502" lon="4.88033">
        <ele>286</ele>
        <time>2017-07-28T09:26:35Z</time>
      </trkpt>
      <trkpt lat="45.93502" lon="4.88041">
        <ele>286</ele>
        <time>2017-07-28T09:26:36Z</time>
      </trkpt>
      <trkpt lat="45.93501" lon="4.88047">
        <ele>286</ele>
        <time>2017-07-28T09:26:37Z</time>
      </trkpt>
      <trkpt lat="45.935" lon="4.88054">
        <ele>287</ele>
        <time>2017-07-28T09:26:38Z</time>
      </trkpt>
      <trkpt lat="45.93499" lon="4.8806">
        <ele>287</ele>
        <time>2017-07-28T09:26:39Z</time>
      </trkpt>
      <trkpt lat="45.93498" lon="4.88067">
        <ele>287</ele>
        <time>2017-07-28T09:26:40Z</time>
      </trkpt>
      <trkpt lat="45.93497" lon="4.88074">
        <ele>287</ele>
        <time>2017-07-28T09:26:41Z</time>
      </trkpt>
      <trkpt lat="45.93497" lon="4.88081">
        <ele>287</ele>
        <time>2017-07-28T09:26:42Z</time>
      </trkpt>
      <trkpt lat="45.93496" lon="4.88087">
        <ele>287</ele>
        <time>2017-07-28T09:26:43Z</time>
      </trkpt>
      <trkpt lat="45.93494" lon="4.88094">
        <ele>287</ele>
        <time>2017-07-28T09:26:44Z</time>
      </trkpt>
      <trkpt lat="45.93492" lon="4.88102">
        <ele>288</ele>
        <time>2017-07-28T09:26:45Z</time>
      </trkpt>
      <trkpt lat="45.93491" lon="4.88109">
        <ele>288</ele>
        <time>2017-07-28T09:26:46Z</time>
      </trkpt>
      <trkpt lat="45.93489" lon="4.88115">
        <ele>288</ele>
        <time>2017-07-28T09:26:47Z</time>
      </trkpt>
      <trkpt lat="45.93487" lon="4.88122">
        <ele>288</ele>
        <time>2017-07-28T09:26:48Z</time>
      </trkpt>
      <trkpt lat="45.93485" lon="4.88129">
        <ele>288</ele>
        <time>2017-07-28T09:26:49Z</time>
      </trkpt>
      <trkpt lat="45.93484" lon="4.88137">
        <ele>288</ele>
        <time>2017-07-28T09:26:50Z</time>
      </trkpt>
      <trkpt lat="45.93482" lon="4.88144">
        <ele>288</ele>
        <time>2017-07-28T09:26:51Z</time>
      </trkpt>
      <trkpt lat="45.93481" lon="4.88151">
        <ele>288</ele>
        <time>2017-07-28T09:26:52Z</time>
      </trkpt>
      <trkpt lat="45.93481" lon="4.88158">
        <ele>288</ele>
        <time>2017-07-28T09:26:53Z</time>
      </trkpt>
      <trkpt lat="45.93481" lon="4.88165">
        <ele>288</ele>
        <time>2017-07-28T09:26:54Z</time>
      </trkpt>
      <trkpt lat="45.93481" lon="4.88172">
        <ele>288</ele>
        <time>2017-07-28T09:26:55Z</time>
      </trkpt>
      <trkpt lat="45.9348" lon="4.88179">
        <ele>288</ele>
        <time>2017-07-28T09:26:56Z</time>
      </trkpt>
      <trkpt lat="45.9348" lon="4.88186">
        <ele>289</ele>
        <time>2017-07-28T09:26:57Z</time>
      </trkpt>
      <trkpt lat="45.93478" lon="4.88192">
        <ele>289</ele>
        <time>2017-07-28T09:26:58Z</time>
      </trkpt>
      <trkpt lat="45.93476" lon="4.88199">
        <ele>289</ele>
        <time>2017-07-28T09:26:59Z</time>
      </trkpt>
      <trkpt lat="45.93474" lon="4.88205">
        <ele>289</ele>
        <time>2017-07-28T09:27:00Z</time>
      </trkpt>
      <trkpt lat="45.93472" lon="4.88212">
        <ele>289</ele>
        <time>2017-07-28T09:27:01Z</time>
      </trkpt>
      <trkpt lat="45.93471" lon="4.88219">
        <ele>289</ele>
        <time>2017-07-28T09:27:02Z</time>
      </trkpt>
      <trkpt lat="45.93473" lon="4.8823">
        <ele>289</ele>
        <time>2017-07-28T09:27:04Z</time>
      </trkpt>
      <trkpt lat="45.93475" lon="4.88234">
        <ele>289</ele>
        <time>2017-07-28T09:27:05Z</time>
      </trkpt>
      <trkpt lat="45.93483" lon="4.88241">
        <ele>289</ele>
        <time>2017-07-28T09:27:07Z</time>
      </trkpt>
      <trkpt lat="45.93487" lon="4.88242">
        <ele>289</ele>
        <time>2017-07-28T09:27:08Z</time>
      </trkpt>
      <trkpt lat="45.93492" lon="4.88241">
        <ele>289</ele>
        <time>2017-07-28T09:27:09Z</time>
      </trkpt>
      <trkpt lat="45.93497" lon="4.8824">
        <ele>289</ele>
        <time>2017-07-28T09:27:10Z</time>
      </trkpt>
      <trkpt lat="45.93502" lon="4.88237">
        <ele>288</ele>
        <time>2017-07-28T09:27:11Z</time>
      </trkpt>
      <trkpt lat="45.93506" lon="4.88234">
        <ele>288</ele>
        <time>2017-07-28T09:27:12Z</time>
      </trkpt>
      <trkpt lat="45.9351" lon="4.88231">
        <ele>288</ele>
        <time>2017-07-28T09:27:13Z</time>
      </trkpt>
      <trkpt lat="45.93515" lon="4.88228">
        <ele>288</ele>
        <time>2017-07-28T09:27:14Z</time>
      </trkpt>
      <trkpt lat="45.93519" lon="4.88226">
        <ele>288</ele>
        <time>2017-07-28T09:27:15Z</time>
      </trkpt>
      <trkpt lat="45.93524" lon="4.88224">
        <ele>288</ele>
        <time>2017-07-28T09:27:16Z</time>
      </trkpt>
      <trkpt lat="45.93529" lon="4.88222">
        <ele>288</ele>
        <time>2017-07-28T09:27:17Z</time>
      </trkpt>
      <trkpt lat="45.93535" lon="4.8822">
        <ele>287</ele>
        <time>2017-07-28T09:27:18Z</time>
      </trkpt>
      <trkpt lat="45.9354" lon="4.88219">
        <ele>287</ele>
        <time>2017-07-28T09:27:19Z</time>
      </trkpt>
      <trkpt lat="45.93546" lon="4.88218">
        <ele>287</ele>
        <time>2017-07-28T09:27:20Z</time>
      </trkpt>
      <trkpt lat="45.93551" lon="4.88217">
        <ele>287</ele>
        <time>2017-07-28T09:27:21Z</time>
      </trkpt>
      <trkpt lat="45.93557" lon="4.88216">
        <ele>287</ele>
        <time>2017-07-28T09:27:22Z</time>
      </trkpt>
      <trkpt lat="45.93563" lon="4.88216">
        <ele>287</ele>
        <time>2017-07-28T09:27:23Z</time>
      </trkpt>
      <trkpt lat="45.93568" lon="4.88215">
        <ele>287</ele>
        <time>2017-07-28T09:27:24Z</time>
      </trkpt>
      <trkpt lat="45.93574" lon="4.88216">
        <ele>287</ele>
        <time>2017-07-28T09:27:25Z</time>
      </trkpt>
      <trkpt lat="45.93579" lon="4.88216">
        <ele>287</ele>
        <time>2017-07-28T09:27:26Z</time>
      </trkpt>
      <trkpt lat="45.93584" lon="4.88217">
        <ele>286</ele>
        <time>2017-07-28T09:27:27Z</time>
      </trkpt>
      <trkpt lat="45.9359" lon="4.88218">
        <ele>286</ele>
        <time>2017-07-28T09:27:28Z</time>
      </trkpt>
      <trkpt lat="45.93595" lon="4.88218">
        <ele>286</ele>
        <time>2017-07-28T09:27:29Z</time>
      </trkpt>
      <trkpt lat="45.93601" lon="4.88217">
        <ele>285</ele>
        <time>2017-07-28T09:27:30Z</time>
      </trkpt>
      <trkpt lat="45.93606" lon="4.88217">
        <ele>285</ele>
        <time>2017-07-28T09:27:31Z</time>
      </trkpt>
      <trkpt lat="45.93612" lon="4.88217">
        <ele>285</ele>
        <time>2017-07-28T09:27:32Z</time>
      </trkpt>
      <trkpt lat="45.93617" lon="4.88217">
        <ele>285</ele>
        <time>2017-07-28T09:27:33Z</time>
      </trkpt>
      <trkpt lat="45.93623" lon="4.88218">
        <ele>285</ele>
        <time>2017-07-28T09:27:34Z</time>
      </trkpt>
      <trkpt lat="45.93628" lon="4.88218">
        <ele>285</ele>
        <time>2017-07-28T09:27:35Z</time>
      </trkpt>
      <trkpt lat="45.93634" lon="4.88218">
        <ele>285</ele>
        <time>2017-07-28T09:27:36Z</time>
      </trkpt>
      <trkpt lat="45.93641" lon="4.88217">
        <ele>285</ele>
        <time>2017-07-28T09:27:37Z</time>
      </trkpt>
      <trkpt lat="45.93647" lon="4.88217">
        <ele>285</ele>
        <time>2017-07-28T09:27:38Z</time>
      </trkpt>
      <trkpt lat="45.93654" lon="4.88217">
        <ele>285</ele>
        <time>2017-07-28T09:27:39Z</time>
      </trkpt>
      <trkpt lat="45.9366" lon="4.88217">
        <ele>285</ele>
        <time>2017-07-28T09:27:40Z</time>
      </trkpt>
      <trkpt lat="45.93666" lon="4.88217">
        <ele>285</ele>
        <time>2017-07-28T09:27:41Z</time>
      </trkpt>
      <trkpt lat="45.93672" lon="4.88217">
        <ele>285</ele>
        <time>2017-07-28T09:27:42Z</time>
      </trkpt>
      <trkpt lat="45.93678" lon="4.88217">
        <ele>285</ele>
        <time>2017-07-28T09:27:43Z</time>
      </trkpt>
      <trkpt lat="45.93683" lon="4.88217">
        <ele>285</ele>
        <time>2017-07-28T09:27:44Z</time>
      </trkpt>
      <trkpt lat="45.93689" lon="4.88217">
        <ele>285</ele>
        <time>2017-07-28T09:27:45Z</time>
      </trkpt>
      <trkpt lat="45.93695" lon="4.88217">
        <ele>285</ele>
        <time>2017-07-28T09:27:46Z</time>
      </trkpt>
      <trkpt lat="45.937" lon="4.88216">
        <ele>285</ele>
        <time>2017-07-28T09:27:47Z</time>
      </trkpt>
      <trkpt lat="45.93706" lon="4.88216">
        <ele>285</ele>
        <time>2017-07-28T09:27:48Z</time>
      </trkpt>
      <trkpt lat="45.93711" lon="4.88216">
        <ele>285</ele>
        <time>2017-07-28T09:27:49Z</time>
      </trkpt>
      <trkpt lat="45.93717" lon="4.88216">
        <ele>285</ele>
        <time>2017-07-28T09:27:50Z</time>
      </trkpt>
      <trkpt lat="45.93723" lon="4.88216">
        <ele>286</ele>
        <time>2017-07-28T09:27:51Z</time>
      </trkpt>
      <trkpt lat="45.93729" lon="4.88216">
        <ele>286</ele>
        <time>2017-07-28T09:27:52Z</time>
      </trkpt>
      <trkpt lat="45.93735" lon="4.88215">
        <ele>286</ele>
        <time>2017-07-28T09:27:53Z</time>
      </trkpt>
      <trkpt lat="45.93742" lon="4.88215">
        <ele>286</ele>
        <time>2017-07-28T09:27:54Z</time>
      </trkpt>
      <trkpt lat="45.93748" lon="4.88215">
        <ele>286</ele>
        <time>2017-07-28T09:27:55Z</time>
      </trkpt>
      <trkpt lat="45.93754" lon="4.88215">
        <ele>287</ele>
        <time>2017-07-28T09:27:56Z</time>
      </trkpt>
      <trkpt lat="45.9376" lon="4.88216">
        <ele>287</ele>
        <time>2017-07-28T09:27:57Z</time>
      </trkpt>
      <trkpt lat="45.93766" lon="4.88216">
        <ele>287</ele>
        <time>2017-07-28T09:27:58Z</time>
      </trkpt>
      <trkpt lat="45.93771" lon="4.88216">
        <ele>287</ele>
        <time>2017-07-28T09:27:59Z</time>
      </trkpt>
      <trkpt lat="45.93777" lon="4.88216">
        <ele>287</ele>
        <time>2017-07-28T09:28:00Z</time>
      </trkpt>
      <trkpt lat="45.93782" lon="4.88216">
        <ele>287</ele>
        <time>2017-07-28T09:28:01Z</time>
      </trkpt>
      <trkpt lat="45.93788" lon="4.88216">
        <ele>287</ele>
        <time>2017-07-28T09:28:02Z</time>
      </trkpt>
      <trkpt lat="45.93793" lon="4.88216">
        <ele>288</ele>
        <time>2017-07-28T09:28:03Z</time>
      </trkpt>
      <trkpt lat="45.93798" lon="4.88217">
        <ele>288</ele>
        <time>2017-07-28T09:28:04Z</time>
      </trkpt>
      <trkpt lat="45.93803" lon="4.88217">
        <ele>288</ele>
        <time>2017-07-28T09:28:05Z</time>
      </trkpt>
      <trkpt lat="45.93809" lon="4.88217">
        <ele>288</ele>
        <time>2017-07-28T09:28:06Z</time>
      </trkpt>
      <trkpt lat="45.93814" lon="4.88216">
        <ele>288</ele>
        <time>2017-07-28T09:28:07Z</time>
      </trkpt>
      <trkpt lat="45.93819" lon="4.88216">
        <ele>288</ele>
        <time>2017-07-28T09:28:08Z</time>
      </trkpt>
      <trkpt lat="45.93825" lon="4.88216">
        <ele>288</ele>
        <time>2017-07-28T09:28:09Z</time>
      </trkpt>
      <trkpt lat="45.9383" lon="4.88217">
        <ele>288</ele>
        <time>2017-07-28T09:28:10Z</time>
      </trkpt>
      <trkpt lat="45.93836" lon="4.88217">
        <ele>289</ele>
        <time>2017-07-28T09:28:11Z</time>
      </trkpt>
      <trkpt lat="45.93842" lon="4.88217">
        <ele>289</ele>
        <time>2017-07-28T09:28:12Z</time>
      </trkpt>
      <trkpt lat="45.93848" lon="4.88218">
        <ele>289</ele>
        <time>2017-07-28T09:28:13Z</time>
      </trkpt>
      <trkpt lat="45.93853" lon="4.88218">
        <ele>289</ele>
        <time>2017-07-28T09:28:14Z</time>
      </trkpt>
      <trkpt lat="45.93859" lon="4.88217">
        <ele>289</ele>
        <time>2017-07-28T09:28:15Z</time>
      </trkpt>
      <trkpt lat="45.93864" lon="4.88217">
        <ele>289</ele>
        <time>2017-07-28T09:28:16Z</time>
      </trkpt>
      <trkpt lat="45.93869" lon="4.88218">
        <ele>289</ele>
        <time>2017-07-28T09:28:17Z</time>
      </trkpt>
      <trkpt lat="45.93874" lon="4.88217">
        <ele>289</ele>
        <time>2017-07-28T09:28:18Z</time>
      </trkpt>
      <trkpt lat="45.9388" lon="4.88218">
        <ele>289</ele>
        <time>2017-07-28T09:28:19Z</time>
      </trkpt>
      <trkpt lat="45.93885" lon="4.88218">
        <ele>289</ele>
        <time>2017-07-28T09:28:20Z</time>
      </trkpt>
      <trkpt lat="45.9389" lon="4.88217">
        <ele>289</ele>
        <time>2017-07-28T09:28:21Z</time>
      </trkpt>
      <trkpt lat="45.93895" lon="4.88216">
        <ele>289</ele>
        <time>2017-07-28T09:28:22Z</time>
      </trkpt>
      <trkpt lat="45.939" lon="4.88216">
        <ele>289</ele>
        <time>2017-07-28T09:28:23Z</time>
      </trkpt>
      <trkpt lat="45.93905" lon="4.88216">
        <ele>289</ele>
        <time>2017-07-28T09:28:24Z</time>
      </trkpt>
      <trkpt lat="45.9391" lon="4.88216">
        <ele>289</ele>
        <time>2017-07-28T09:28:25Z</time>
      </trkpt>
      <trkpt lat="45.93916" lon="4.88216">
        <ele>289</ele>
        <time>2017-07-28T09:28:26Z</time>
      </trkpt>
      <trkpt lat="45.93923" lon="4.88216">
        <ele>287</ele>
        <time>2017-07-28T09:28:27Z</time>
      </trkpt>
      <trkpt lat="45.93929" lon="4.88216">
        <ele>287</ele>
        <time>2017-07-28T09:28:28Z</time>
      </trkpt>
      <trkpt lat="45.93935" lon="4.88215">
        <ele>287</ele>
        <time>2017-07-28T09:28:29Z</time>
      </trkpt>
      <trkpt lat="45.93942" lon="4.88214">
        <ele>287</ele>
        <time>2017-07-28T09:28:30Z</time>
      </trkpt>
      <trkpt lat="45.93948" lon="4.88214">
        <ele>287</ele>
        <time>2017-07-28T09:28:31Z</time>
      </trkpt>
      <trkpt lat="45.93953" lon="4.88215">
        <ele>286</ele>
        <time>2017-07-28T09:28:32Z</time>
      </trkpt>
      <trkpt lat="45.93959" lon="4.88215">
        <ele>286</ele>
        <time>2017-07-28T09:28:33Z</time>
      </trkpt>
      <trkpt lat="45.93966" lon="4.88215">
        <ele>286</ele>
        <time>2017-07-28T09:28:34Z</time>
      </trkpt>
      <trkpt lat="45.93973" lon="4.88216">
        <ele>286</ele>
        <time>2017-07-28T09:28:35Z</time>
      </trkpt>
      <trkpt lat="45.9398" lon="4.88217">
        <ele>286</ele>
        <time>2017-07-28T09:28:36Z</time>
      </trkpt>
      <trkpt lat="45.93986" lon="4.88218">
        <ele>286</ele>
        <time>2017-07-28T09:28:37Z</time>
      </trkpt>
      <trkpt lat="45.93992" lon="4.88219">
        <ele>286</ele>
        <time>2017-07-28T09:28:38Z</time>
      </trkpt>
      <trkpt lat="45.93998" lon="4.8822">
        <ele>286</ele>
        <time>2017-07-28T09:28:39Z</time>
      </trkpt>
      <trkpt lat="45.94004" lon="4.88221">
        <ele>284</ele>
        <time>2017-07-28T09:28:40Z</time>
      </trkpt>
      <trkpt lat="45.94009" lon="4.88222">
        <ele>284</ele>
        <time>2017-07-28T09:28:41Z</time>
      </trkpt>
      <trkpt lat="45.94015" lon="4.88223">
        <ele>284</ele>
        <time>2017-07-28T09:28:42Z</time>
      </trkpt>
      <trkpt lat="45.9402" lon="4.88224">
        <ele>284</ele>
        <time>2017-07-28T09:28:43Z</time>
      </trkpt>
      <trkpt lat="45.94025" lon="4.88225">
        <ele>283</ele>
        <time>2017-07-28T09:28:44Z</time>
      </trkpt>
      <trkpt lat="45.9403" lon="4.88225">
        <ele>283</ele>
        <time>2017-07-28T09:28:45Z</time>
      </trkpt>
      <trkpt lat="45.94036" lon="4.88226">
        <ele>283</ele>
        <time>2017-07-28T09:28:46Z</time>
      </trkpt>
      <trkpt lat="45.94042" lon="4.88227">
        <ele>283</ele>
        <time>2017-07-28T09:28:47Z</time>
      </trkpt>
      <trkpt lat="45.94048" lon="4.88227">
        <ele>283</ele>
        <time>2017-07-28T09:28:48Z</time>
      </trkpt>
      <trkpt lat="45.94055" lon="4.88229">
        <ele>283</ele>
        <time>2017-07-28T09:28:49Z</time>
      </trkpt>
      <trkpt lat="45.94062" lon="4.88229">
        <ele>282</ele>
        <time>2017-07-28T09:28:50Z</time>
      </trkpt>
      <trkpt lat="45.94068" lon="4.8823">
        <ele>282</ele>
        <time>2017-07-28T09:28:51Z</time>
      </trkpt>
      <trkpt lat="45.94073" lon="4.88231">
        <ele>282</ele>
        <time>2017-07-28T09:28:52Z</time>
      </trkpt>
      <trkpt lat="45.94078" lon="4.88232">
        <ele>282</ele>
        <time>2017-07-28T09:28:53Z</time>
      </trkpt>
      <trkpt lat="45.94084" lon="4.88232">
        <ele>281</ele>
        <time>2017-07-28T09:28:54Z</time>
      </trkpt>
      <trkpt lat="45.94089" lon="4.88233">
        <ele>281</ele>
        <time>2017-07-28T09:28:55Z</time>
      </trkpt>
      <trkpt lat="45.94094" lon="4.88233">
        <ele>281</ele>
        <time>2017-07-28T09:28:56Z</time>
      </trkpt>
      <trkpt lat="45.941" lon="4.88234">
        <ele>281</ele>
        <time>2017-07-28T09:28:57Z</time>
      </trkpt>
      <trkpt lat="45.94105" lon="4.88234">
        <ele>280</ele>
        <time>2017-07-28T09:28:58Z</time>
      </trkpt>
      <trkpt lat="45.9411" lon="4.88235">
        <ele>280</ele>
        <time>2017-07-28T09:28:59Z</time>
      </trkpt>
      <trkpt lat="45.94115" lon="4.88235">
        <ele>280</ele>
        <time>2017-07-28T09:29:00Z</time>
      </trkpt>
      <trkpt lat="45.94121" lon="4.88236">
        <ele>280</ele>
        <time>2017-07-28T09:29:01Z</time>
      </trkpt>
      <trkpt lat="45.94126" lon="4.88237">
        <ele>280</ele>
        <time>2017-07-28T09:29:02Z</time>
      </trkpt>
      <trkpt lat="45.94132" lon="4.88237">
        <ele>280</ele>
        <time>2017-07-28T09:29:03Z</time>
      </trkpt>
      <trkpt lat="45.94138" lon="4.88237">
        <ele>280</ele>
        <time>2017-07-28T09:29:04Z</time>
      </trkpt>
      <trkpt lat="45.94144" lon="4.88238">
        <ele>280</ele>
        <time>2017-07-28T09:29:05Z</time>
      </trkpt>
      <trkpt lat="45.94151" lon="4.88239">
        <ele>279</ele>
        <time>2017-07-28T09:29:06Z</time>
      </trkpt>
      <trkpt lat="45.94157" lon="4.88241">
        <ele>279</ele>
        <time>2017-07-28T09:29:07Z</time>
      </trkpt>
      <trkpt lat="45.94163" lon="4.88242">
        <ele>279</ele>
        <time>2017-07-28T09:29:08Z</time>
      </trkpt>
      <trkpt lat="45.94168" lon="4.88243">
        <ele>279</ele>
        <time>2017-07-28T09:29:09Z</time>
      </trkpt>
      <trkpt lat="45.94174" lon="4.88244">
        <ele>279</ele>
        <time>2017-07-28T09:29:10Z</time>
      </trkpt>
      <trkpt lat="45.9418" lon="4.88245">
        <ele>279</ele>
        <time>2017-07-28T09:29:11Z</time>
      </trkpt>
      <trkpt lat="45.94185" lon="4.88245">
        <ele>278</ele>
        <time>2017-07-28T09:29:12Z</time>
      </trkpt>
      <trkpt lat="45.94191" lon="4.88245">
        <ele>278</ele>
        <time>2017-07-28T09:29:13Z</time>
      </trkpt>
      <trkpt lat="45.94196" lon="4.88246">
        <ele>278</ele>
        <time>2017-07-28T09:29:14Z</time>
      </trkpt>
      <trkpt lat="45.94201" lon="4.88247">
        <ele>278</ele>
        <time>2017-07-28T09:29:15Z</time>
      </trkpt>
      <trkpt lat="45.94207" lon="4.88248">
        <ele>278</ele>
        <time>2017-07-28T09:29:16Z</time>
      </trkpt>
      <trkpt lat="45.94212" lon="4.88249">
        <ele>278</ele>
        <time>2017-07-28T09:29:17Z</time>
      </trkpt>
      <trkpt lat="45.94217" lon="4.8825">
        <ele>278</ele>
        <time>2017-07-28T09:29:18Z</time>
      </trkpt>
      <trkpt lat="45.94223" lon="4.88251">
        <ele>279</ele>
        <time>2017-07-28T09:29:19Z</time>
      </trkpt>
      <trkpt lat="45.94228" lon="4.88253">
        <ele>279</ele>
        <time>2017-07-28T09:29:20Z</time>
      </trkpt>
      <trkpt lat="45.94233" lon="4.88254">
        <ele>279</ele>
        <time>2017-07-28T09:29:21Z</time>
      </trkpt>
      <trkpt lat="45.94238" lon="4.88255">
        <ele>278</ele>
        <time>2017-07-28T09:29:22Z</time>
      </trkpt>
      <trkpt lat="45.94243" lon="4.88255">
        <ele>278</ele>
        <time>2017-07-28T09:29:23Z</time>
      </trkpt>
      <trkpt lat="45.94249" lon="4.88256">
        <ele>278</ele>
        <time>2017-07-28T09:29:24Z</time>
      </trkpt>
      <trkpt lat="45.94254" lon="4.88257">
        <ele>278</ele>
        <time>2017-07-28T09:29:25Z</time>
      </trkpt>
      <trkpt lat="45.94259" lon="4.88257">
        <ele>278</ele>
        <time>2017-07-28T09:29:26Z</time>
      </trkpt>
      <trkpt lat="45.94265" lon="4.88258">
        <ele>278</ele>
        <time>2017-07-28T09:29:27Z</time>
      </trkpt>
      <trkpt lat="45.9427" lon="4.88259">
        <ele>278</ele>
        <time>2017-07-28T09:29:28Z</time>
      </trkpt>
      <trkpt lat="45.94276" lon="4.88259">
        <ele>278</ele>
        <time>2017-07-28T09:29:29Z</time>
      </trkpt>
      <trkpt lat="45.94282" lon="4.8826">
        <ele>277</ele>
        <time>2017-07-28T09:29:30Z</time>
      </trkpt>
      <trkpt lat="45.94288" lon="4.88261">
        <ele>277</ele>
        <time>2017-07-28T09:29:31Z</time>
      </trkpt>
      <trkpt lat="45.94294" lon="4.88262">
        <ele>277</ele>
        <time>2017-07-28T09:29:32Z</time>
      </trkpt>
      <trkpt lat="45.943" lon="4.88263">
        <ele>277</ele>
        <time>2017-07-28T09:29:33Z</time>
      </trkpt>
      <trkpt lat="45.94306" lon="4.88263">
        <ele>277</ele>
        <time>2017-07-28T09:29:34Z</time>
      </trkpt>
      <trkpt lat="45.94311" lon="4.88264">
        <ele>277</ele>
        <time>2017-07-28T09:29:35Z</time>
      </trkpt>
      <trkpt lat="45.94316" lon="4.88265">
        <ele>277</ele>
        <time>2017-07-28T09:29:36Z</time>
      </trkpt>
      <trkpt lat="45.94321" lon="4.88266">
        <ele>277</ele>
        <time>2017-07-28T09:29:37Z</time>
      </trkpt>
      <trkpt lat="45.94326" lon="4.88267">
        <ele>277</ele>
        <time>2017-07-28T09:29:38Z</time>
      </trkpt>
      <trkpt lat="45.9433" lon="4.88267">
        <ele>277</ele>
        <time>2017-07-28T09:29:39Z</time>
      </trkpt>
      <trkpt lat="45.94335" lon="4.88268">
        <ele>276</ele>
        <time>2017-07-28T09:29:40Z</time>
      </trkpt>
      <trkpt lat="45.9434" lon="4.88269">
        <ele>276</ele>
        <time>2017-07-28T09:29:41Z</time>
      </trkpt>
      <trkpt lat="45.94344" lon="4.88269">
        <ele>276</ele>
        <time>2017-07-28T09:29:42Z</time>
      </trkpt>
      <trkpt lat="45.94349" lon="4.8827">
        <ele>276</ele>
        <time>2017-07-28T09:29:43Z</time>
      </trkpt>
      <trkpt lat="45.94354" lon="4.88271">
        <ele>276</ele>
        <time>2017-07-28T09:29:44Z</time>
      </trkpt>
      <trkpt lat="45.9436" lon="4.88271">
        <ele>276</ele>
        <time>2017-07-28T09:29:45Z</time>
      </trkpt>
      <trkpt lat="45.94365" lon="4.88272">
        <ele>276</ele>
        <time>2017-07-28T09:29:46Z</time>
      </trkpt>
      <trkpt lat="45.94371" lon="4.88273">
        <ele>276</ele>
        <time>2017-07-28T09:29:47Z</time>
      </trkpt>
      <trkpt lat="45.94377" lon="4.88274">
        <ele>276</ele>
        <time>2017-07-28T09:29:48Z</time>
      </trkpt>
      <trkpt lat="45.94383" lon="4.88275">
        <ele>276</ele>
        <time>2017-07-28T09:29:49Z</time>
      </trkpt>
      <trkpt lat="45.94389" lon="4.88276">
        <ele>276</ele>
        <time>2017-07-28T09:29:50Z</time>
      </trkpt>
      <trkpt lat="45.94395" lon="4.88276">
        <ele>276</ele>
        <time>2017-07-28T09:29:51Z</time>
      </trkpt>
      <trkpt lat="45.944" lon="4.88277">
        <ele>276</ele>
        <time>2017-07-28T09:29:52Z</time>
      </trkpt>
      <trkpt lat="45.94406" lon="4.88278">
        <ele>276</ele>
        <time>2017-07-28T09:29:53Z</time>
      </trkpt>
      <trkpt lat="45.94411" lon="4.88279">
        <ele>276</ele>
        <time>2017-07-28T09:29:54Z</time>
      </trkpt>
      <trkpt lat="45.94416" lon="4.8828">
        <ele>276</ele>
        <time>2017-07-28T09:29:55Z</time>
      </trkpt>
      <trkpt lat="45.94421" lon="4.8828">
        <ele>276</ele>
        <time>2017-07-28T09:29:56Z</time>
      </trkpt>
      <trkpt lat="45.94426" lon="4.88281">
        <ele>276</ele>
        <time>2017-07-28T09:29:57Z</time>
      </trkpt>
      <trkpt lat="45.94431" lon="4.88281">
        <ele>276</ele>
        <time>2017-07-28T09:29:58Z</time>
      </trkpt>
      <trkpt lat="45.94436" lon="4.88282">
        <ele>276</ele>
        <time>2017-07-28T09:29:59Z</time>
      </trkpt>
      <trkpt lat="45.94441" lon="4.88283">
        <ele>276</ele>
        <time>2017-07-28T09:30:00Z</time>
      </trkpt>
      <trkpt lat="45.94446" lon="4.88284">
        <ele>276</ele>
        <time>2017-07-28T09:30:01Z</time>
      </trkpt>
      <trkpt lat="45.94451" lon="4.88285">
        <ele>276</ele>
        <time>2017-07-28T09:30:02Z</time>
      </trkpt>
      <trkpt lat="45.94457" lon="4.88285">
        <ele>276</ele>
        <time>2017-07-28T09:30:03Z</time>
      </trkpt>
      <trkpt lat="45.94462" lon="4.88286">
        <ele>276</ele>
        <time>2017-07-28T09:30:04Z</time>
      </trkpt>
      <trkpt lat="45.94468" lon="4.88287">
        <ele>276</ele>
        <time>2017-07-28T09:30:05Z</time>
      </trkpt>
      <trkpt lat="45.94474" lon="4.88288">
        <ele>276</ele>
        <time>2017-07-28T09:30:06Z</time>
      </trkpt>
      <trkpt lat="45.94479" lon="4.88289">
        <ele>276</ele>
        <time>2017-07-28T09:30:07Z</time>
      </trkpt>
      <trkpt lat="45.94485" lon="4.8829">
        <ele>276</ele>
        <time>2017-07-28T09:30:08Z</time>
      </trkpt>
      <trkpt lat="45.9449" lon="4.88291">
        <ele>276</ele>
        <time>2017-07-28T09:30:09Z</time>
      </trkpt>
      <trkpt lat="45.94495" lon="4.88291">
        <ele>276</ele>
        <time>2017-07-28T09:30:10Z</time>
      </trkpt>
      <trkpt lat="45.945" lon="4.88292">
        <ele>275</ele>
        <time>2017-07-28T09:30:11Z</time>
      </trkpt>
      <trkpt lat="45.94505" lon="4.88292">
        <ele>275</ele>
        <time>2017-07-28T09:30:12Z</time>
      </trkpt>
      <trkpt lat="45.9451" lon="4.88293">
        <ele>275</ele>
        <time>2017-07-28T09:30:13Z</time>
      </trkpt>
      <trkpt lat="45.94515" lon="4.88293">
        <ele>275</ele>
        <time>2017-07-28T09:30:14Z</time>
      </trkpt>
      <trkpt lat="45.9452" lon="4.88294">
        <ele>275</ele>
        <time>2017-07-28T09:30:15Z</time>
      </trkpt>
      <trkpt lat="45.94525" lon="4.88295">
        <ele>275</ele>
        <time>2017-07-28T09:30:16Z</time>
      </trkpt>
      <trkpt lat="45.9453" lon="4.88295">
        <ele>275</ele>
        <time>2017-07-28T09:30:17Z</time>
      </trkpt>
      <trkpt lat="45.94535" lon="4.88296">
        <ele>275</ele>
        <time>2017-07-28T09:30:18Z</time>
      </trkpt>
      <trkpt lat="45.94541" lon="4.88297">
        <ele>275</ele>
        <time>2017-07-28T09:30:19Z</time>
      </trkpt>
      <trkpt lat="45.94546" lon="4.88297">
        <ele>275</ele>
        <time>2017-07-28T09:30:20Z</time>
      </trkpt>
      <trkpt lat="45.94551" lon="4.88298">
        <ele>275</ele>
        <time>2017-07-28T09:30:21Z</time>
      </trkpt>
      <trkpt lat="45.94556" lon="4.88298">
        <ele>275</ele>
        <time>2017-07-28T09:30:22Z</time>
      </trkpt>
      <trkpt lat="45.94562" lon="4.88299">
        <ele>275</ele>
        <time>2017-07-28T09:30:23Z</time>
      </trkpt>
      <trkpt lat="45.94568" lon="4.88301">
        <ele>275</ele>
        <time>2017-07-28T09:30:24Z</time>
      </trkpt>
      <trkpt lat="45.94573" lon="4.88302">
        <ele>275</ele>
        <time>2017-07-28T09:30:25Z</time>
      </trkpt>
      <trkpt lat="45.94577" lon="4.88303">
        <ele>275</ele>
        <time>2017-07-28T09:30:26Z</time>
      </trkpt>
      <trkpt lat="45.94582" lon="4.88303">
        <ele>275</ele>
        <time>2017-07-28T09:30:27Z</time>
      </trkpt>
      <trkpt lat="45.94587" lon="4.88304">
        <ele>275</ele>
        <time>2017-07-28T09:30:28Z</time>
      </trkpt>
      <trkpt lat="45.94591" lon="4.88305">
        <ele>275</ele>
        <time>2017-07-28T09:30:29Z</time>
      </trkpt>
      <trkpt lat="45.94596" lon="4.88305">
        <ele>275</ele>
        <time>2017-07-28T09:30:30Z</time>
      </trkpt>
      <trkpt lat="45.94601" lon="4.88306">
        <ele>275</ele>
        <time>2017-07-28T09:30:31Z</time>
      </trkpt>
      <trkpt lat="45.94607" lon="4.88307">
        <ele>275</ele>
        <time>2017-07-28T09:30:32Z</time>
      </trkpt>
      <trkpt lat="45.94612" lon="4.88308">
        <ele>275</ele>
        <time>2017-07-28T09:30:33Z</time>
      </trkpt>
      <trkpt lat="45.94618" lon="4.88309">
        <ele>275</ele>
        <time>2017-07-28T09:30:34Z</time>
      </trkpt>
      <trkpt lat="45.94624" lon="4.8831">
        <ele>275</ele>
        <time>2017-07-28T09:30:35Z</time>
      </trkpt>
      <trkpt lat="45.9463" lon="4.8831">
        <ele>276</ele>
        <time>2017-07-28T09:30:36Z</time>
      </trkpt>
      <trkpt lat="45.94635" lon="4.88311">
        <ele>276</ele>
        <time>2017-07-28T09:30:37Z</time>
      </trkpt>
      <trkpt lat="45.9464" lon="4.88312">
        <ele>276</ele>
        <time>2017-07-28T09:30:38Z</time>
      </trkpt>
      <trkpt lat="45.94645" lon="4.88313">
        <ele>276</ele>
        <time>2017-07-28T09:30:39Z</time>
      </trkpt>
      <trkpt lat="45.94649" lon="4.88314">
        <ele>276</ele>
        <time>2017-07-28T09:30:40Z</time>
      </trkpt>
      <trkpt lat="45.94658" lon="4.88315">
        <ele>276</ele>
        <time>2017-07-28T09:30:42Z</time>
      </trkpt>
      <trkpt lat="45.94663" lon="4.88315">
        <ele>276</ele>
        <time>2017-07-28T09:30:43Z</time>
      </trkpt>
      <trkpt lat="45.94668" lon="4.88316">
        <ele>276</ele>
        <time>2017-07-28T09:30:44Z</time>
      </trkpt>
      <trkpt lat="45.94673" lon="4.88317">
        <ele>276</ele>
        <time>2017-07-28T09:30:45Z</time>
      </trkpt>
      <trkpt lat="45.94678" lon="4.88318">
        <ele>276</ele>
        <time>2017-07-28T09:30:46Z</time>
      </trkpt>
      <trkpt lat="45.94683" lon="4.88318">
        <ele>276</ele>
        <time>2017-07-28T09:30:47Z</time>
      </trkpt>
      <trkpt lat="45.94688" lon="4.88319">
        <ele>276</ele>
        <time>2017-07-28T09:30:48Z</time>
      </trkpt>
      <trkpt lat="45.94694" lon="4.8832">
        <ele>276</ele>
        <time>2017-07-28T09:30:49Z</time>
      </trkpt>
      <trkpt lat="45.94699" lon="4.88321">
        <ele>276</ele>
        <time>2017-07-28T09:30:50Z</time>
      </trkpt>
      <trkpt lat="45.94704" lon="4.88321">
        <ele>276</ele>
        <time>2017-07-28T09:30:51Z</time>
      </trkpt>
      <trkpt lat="45.94708" lon="4.88321">
        <ele>276</ele>
        <time>2017-07-28T09:30:52Z</time>
      </trkpt>
      <trkpt lat="45.94713" lon="4.88323">
        <ele>276</ele>
        <time>2017-07-28T09:30:53Z</time>
      </trkpt>
      <trkpt lat="45.9472" lon="4.88325">
        <ele>276</ele>
        <time>2017-07-28T09:30:55Z</time>
      </trkpt>
      <trkpt lat="45.94723" lon="4.88325">
        <ele>276</ele>
        <time>2017-07-28T09:30:56Z</time>
      </trkpt>
      <trkpt lat="45.94729" lon="4.88327">
        <ele>277</ele>
        <time>2017-07-28T09:30:58Z</time>
      </trkpt>
      <trkpt lat="45.94733" lon="4.88327">
        <ele>277</ele>
        <time>2017-07-28T09:30:59Z</time>
      </trkpt>
      <trkpt lat="45.94741" lon="4.88328">
        <ele>277</ele>
        <time>2017-07-28T09:31:01Z</time>
      </trkpt>
      <trkpt lat="45.94747" lon="4.88329">
        <ele>277</ele>
        <time>2017-07-28T09:31:02Z</time>
      </trkpt>
      <trkpt lat="45.94751" lon="4.88329">
        <ele>277</ele>
        <time>2017-07-28T09:31:03Z</time>
      </trkpt>
      <trkpt lat="45.94757" lon="4.88329">
        <ele>277</ele>
        <time>2017-07-28T09:31:04Z</time>
      </trkpt>
      <trkpt lat="45.94762" lon="4.8833">
        <ele>277</ele>
        <time>2017-07-28T09:31:05Z</time>
      </trkpt>
      <trkpt lat="45.94766" lon="4.88331">
        <ele>277</ele>
        <time>2017-07-28T09:31:06Z</time>
      </trkpt>
      <trkpt lat="45.94771" lon="4.88332">
        <ele>277</ele>
        <time>2017-07-28T09:31:07Z</time>
      </trkpt>
      <trkpt lat="45.94776" lon="4.88333">
        <ele>277</ele>
        <time>2017-07-28T09:31:08Z</time>
      </trkpt>
      <trkpt lat="45.94782" lon="4.88333">
        <ele>278</ele>
        <time>2017-07-28T09:31:09Z</time>
      </trkpt>
      <trkpt lat="45.94786" lon="4.88334">
        <ele>278</ele>
        <time>2017-07-28T09:31:10Z</time>
      </trkpt>
      <trkpt lat="45.94794" lon="4.88335">
        <ele>278</ele>
        <time>2017-07-28T09:31:12Z</time>
      </trkpt>
      <trkpt lat="45.94798" lon="4.88335">
        <ele>278</ele>
        <time>2017-07-28T09:31:13Z</time>
      </trkpt>
      <trkpt lat="45.94806" lon="4.88336">
        <ele>278</ele>
        <time>2017-07-28T09:31:15Z</time>
      </trkpt>
      <trkpt lat="45.9481" lon="4.88337">
        <ele>278</ele>
        <time>2017-07-28T09:31:16Z</time>
      </trkpt>
      <trkpt lat="45.94815" lon="4.88338">
        <ele>278</ele>
        <time>2017-07-28T09:31:17Z</time>
      </trkpt>
      <trkpt lat="45.94821" lon="4.88337">
        <ele>278</ele>
        <time>2017-07-28T09:31:18Z</time>
      </trkpt>
      <trkpt lat="45.94826" lon="4.88337">
        <ele>279</ele>
        <time>2017-07-28T09:31:19Z</time>
      </trkpt>
      <trkpt lat="45.94831" lon="4.88337">
        <ele>279</ele>
        <time>2017-07-28T09:31:20Z</time>
      </trkpt>
      <trkpt lat="45.94836" lon="4.88336">
        <ele>279</ele>
        <time>2017-07-28T09:31:21Z</time>
      </trkpt>
      <trkpt lat="45.9484" lon="4.88335">
        <ele>279</ele>
        <time>2017-07-28T09:31:22Z</time>
      </trkpt>
      <trkpt lat="45.94849" lon="4.88334">
        <ele>280</ele>
        <time>2017-07-28T09:31:24Z</time>
      </trkpt>
      <trkpt lat="45.94853" lon="4.88333">
        <ele>280</ele>
        <time>2017-07-28T09:31:25Z</time>
      </trkpt>
      <trkpt lat="45.94858" lon="4.88332">
        <ele>280</ele>
        <time>2017-07-28T09:31:26Z</time>
      </trkpt>
      <trkpt lat="45.94863" lon="4.8833">
        <ele>280</ele>
        <time>2017-07-28T09:31:27Z</time>
      </trkpt>
      <trkpt lat="45.94867" lon="4.88329">
        <ele>280</ele>
        <time>2017-07-28T09:31:28Z</time>
      </trkpt>
      <trkpt lat="45.94872" lon="4.88329">
        <ele>280</ele>
        <time>2017-07-28T09:31:29Z</time>
      </trkpt>
      <trkpt lat="45.94877" lon="4.88328">
        <ele>280</ele>
        <time>2017-07-28T09:31:30Z</time>
      </trkpt>
      <trkpt lat="45.94881" lon="4.88327">
        <ele>281</ele>
        <time>2017-07-28T09:31:31Z</time>
      </trkpt>
      <trkpt lat="45.94886" lon="4.88326">
        <ele>281</ele>
        <time>2017-07-28T09:31:32Z</time>
      </trkpt>
      <trkpt lat="45.94891" lon="4.88325">
        <ele>281</ele>
        <time>2017-07-28T09:31:33Z</time>
      </trkpt>
      <trkpt lat="45.94896" lon="4.88324">
        <ele>281</ele>
        <time>2017-07-28T09:31:34Z</time>
      </trkpt>
      <trkpt lat="45.949" lon="4.88322">
        <ele>281</ele>
        <time>2017-07-28T09:31:35Z</time>
      </trkpt>
      <trkpt lat="45.94904" lon="4.88321">
        <ele>281</ele>
        <time>2017-07-28T09:31:36Z</time>
      </trkpt>
      <trkpt lat="45.94909" lon="4.88319">
        <ele>281</ele>
        <time>2017-07-28T09:31:37Z</time>
      </trkpt>
      <trkpt lat="45.94913" lon="4.88316">
        <ele>281</ele>
        <time>2017-07-28T09:31:38Z</time>
      </trkpt>
      <trkpt lat="45.94917" lon="4.88314">
        <ele>283</ele>
        <time>2017-07-28T09:31:39Z</time>
      </trkpt>
      <trkpt lat="45.94925" lon="4.88308">
        <ele>283</ele>
        <time>2017-07-28T09:31:41Z</time>
      </trkpt>
      <trkpt lat="45.94929" lon="4.88307">
        <ele>283</ele>
        <time>2017-07-28T09:31:42Z</time>
      </trkpt>
      <trkpt lat="45.94936" lon="4.88303">
        <ele>283</ele>
        <time>2017-07-28T09:31:44Z</time>
      </trkpt>
      <trkpt lat="45.9494" lon="4.88302">
        <ele>283</ele>
        <time>2017-07-28T09:31:45Z</time>
      </trkpt>
      <trkpt lat="45.94947" lon="4.88299">
        <ele>283</ele>
        <time>2017-07-28T09:31:47Z</time>
      </trkpt>
      <trkpt lat="45.94951" lon="4.88297">
        <ele>283</ele>
        <time>2017-07-28T09:31:48Z</time>
      </trkpt>
      <trkpt lat="45.94959" lon="4.88295">
        <ele>283</ele>
        <time>2017-07-28T09:31:50Z</time>
      </trkpt>
      <trkpt lat="45.94963" lon="4.88293">
        <ele>283</ele>
        <time>2017-07-28T09:31:51Z</time>
      </trkpt>
      <trkpt lat="45.94971" lon="4.8829">
        <ele>283</ele>
        <time>2017-07-28T09:31:53Z</time>
      </trkpt>
      <trkpt lat="45.94974" lon="4.88288">
        <ele>283</ele>
        <time>2017-07-28T09:31:54Z</time>
      </trkpt>
      <trkpt lat="45.94981" lon="4.88284">
        <ele>283</ele>
        <time>2017-07-28T09:31:56Z</time>
      </trkpt>
      <trkpt lat="45.94985" lon="4.88283">
        <ele>283</ele>
        <time>2017-07-28T09:31:57Z</time>
      </trkpt>
      <trkpt lat="45.94992" lon="4.8828">
        <ele>283</ele>
        <time>2017-07-28T09:31:59Z</time>
      </trkpt>
      <trkpt lat="45.94996" lon="4.88278">
        <ele>283</ele>
        <time>2017-07-28T09:32:00Z</time>
      </trkpt>
      <trkpt lat="45.95004" lon="4.88274">
        <ele>285</ele>
        <time>2017-07-28T09:32:02Z</time>
      </trkpt>
      <trkpt lat="45.95008" lon="4.88272">
        <ele>285</ele>
        <time>2017-07-28T09:32:03Z</time>
      </trkpt>
      <trkpt lat="45.95016" lon="4.8827">
        <ele>285</ele>
        <time>2017-07-28T09:32:05Z</time>
      </trkpt>
      <trkpt lat="45.95019" lon="4.88269">
        <ele>285</ele>
        <time>2017-07-28T09:32:06Z</time>
      </trkpt>
      <trkpt lat="45.95026" lon="4.88265">
        <ele>285</ele>
        <time>2017-07-28T09:32:08Z</time>
      </trkpt>
      <trkpt lat="45.95029" lon="4.88264">
        <ele>285</ele>
        <time>2017-07-28T09:32:09Z</time>
      </trkpt>
      <trkpt lat="45.95037" lon="4.8826">
        <ele>285</ele>
        <time>2017-07-28T09:32:11Z</time>
      </trkpt>
      <trkpt lat="45.9504" lon="4.88258">
        <ele>285</ele>
        <time>2017-07-28T09:32:12Z</time>
      </trkpt>
      <trkpt lat="45.95048" lon="4.88256">
        <ele>286</ele>
        <time>2017-07-28T09:32:14Z</time>
      </trkpt>
      <trkpt lat="45.95052" lon="4.88255">
        <ele>286</ele>
        <time>2017-07-28T09:32:15Z</time>
      </trkpt>
      <trkpt lat="45.95058" lon="4.88252">
        <ele>286</ele>
        <time>2017-07-28T09:32:17Z</time>
      </trkpt>
      <trkpt lat="45.95062" lon="4.88251">
        <ele>286</ele>
        <time>2017-07-28T09:32:18Z</time>
      </trkpt>
      <trkpt lat="45.9507" lon="4.88249">
        <ele>286</ele>
        <time>2017-07-28T09:32:20Z</time>
      </trkpt>
      <trkpt lat="45.95074" lon="4.88248">
        <ele>286</ele>
        <time>2017-07-28T09:32:21Z</time>
      </trkpt>
      <trkpt lat="45.95081" lon="4.88245">
        <ele>287</ele>
        <time>2017-07-28T09:32:23Z</time>
      </trkpt>
      <trkpt lat="45.95085" lon="4.88244">
        <ele>287</ele>
        <time>2017-07-28T09:32:24Z</time>
      </trkpt>
      <trkpt lat="45.95092" lon="4.88242">
        <ele>287</ele>
        <time>2017-07-28T09:32:26Z</time>
      </trkpt>
      <trkpt lat="45.95096" lon="4.88241">
        <ele>287</ele>
        <time>2017-07-28T09:32:27Z</time>
      </trkpt>
      <trkpt lat="45.95104" lon="4.88238">
        <ele>287</ele>
        <time>2017-07-28T09:32:30Z</time>
      </trkpt>
      <trkpt lat="45.95107" lon="4.88237">
        <ele>287</ele>
        <time>2017-07-28T09:32:31Z</time>
      </trkpt>
      <trkpt lat="45.95113" lon="4.88234">
        <ele>287</ele>
        <time>2017-07-28T09:32:33Z</time>
      </trkpt>
      <trkpt lat="45.95116" lon="4.88232">
        <ele>287</ele>
        <time>2017-07-28T09:32:34Z</time>
      </trkpt>
      <trkpt lat="45.95122" lon="4.88227">
        <ele>287</ele>
        <time>2017-07-28T09:32:36Z</time>
      </trkpt>
      <trkpt lat="45.95124" lon="4.88223">
        <ele>287</ele>
        <time>2017-07-28T09:32:37Z</time>
      </trkpt>
      <trkpt lat="45.95126" lon="4.88213">
        <ele>287</ele>
        <time>2017-07-28T09:32:39Z</time>
      </trkpt>
      <trkpt lat="45.95128" lon="4.88208">
        <ele>287</ele>
        <time>2017-07-28T09:32:40Z</time>
      </trkpt>
      <trkpt lat="45.95132" lon="4.88197">
        <ele>287</ele>
        <time>2017-07-28T09:32:42Z</time>
      </trkpt>
      <trkpt lat="45.95134" lon="4.88191">
        <ele>286</ele>
        <time>2017-07-28T09:32:43Z</time>
      </trkpt>
      <trkpt lat="45.95137" lon="4.88186">
        <ele>286</ele>
        <time>2017-07-28T09:32:44Z</time>
      </trkpt>
      <trkpt lat="45.95141" lon="4.88181">
        <ele>286</ele>
        <time>2017-07-28T09:32:45Z</time>
      </trkpt>
      <trkpt lat="45.95145" lon="4.88177">
        <ele>286</ele>
        <time>2017-07-28T09:32:46Z</time>
      </trkpt>
      <trkpt lat="45.9515" lon="4.88174">
        <ele>286</ele>
        <time>2017-07-28T09:32:47Z</time>
      </trkpt>
      <trkpt lat="45.95156" lon="4.88173">
        <ele>286</ele>
        <time>2017-07-28T09:32:48Z</time>
      </trkpt>
      <trkpt lat="45.95162" lon="4.88171">
        <ele>285</ele>
        <time>2017-07-28T09:32:49Z</time>
      </trkpt>
      <trkpt lat="45.95169" lon="4.88169">
        <ele>285</ele>
        <time>2017-07-28T09:32:50Z</time>
      </trkpt>
      <trkpt lat="45.95175" lon="4.88168">
        <ele>285</ele>
        <time>2017-07-28T09:32:51Z</time>
      </trkpt>
      <trkpt lat="45.95181" lon="4.88167">
        <ele>285</ele>
        <time>2017-07-28T09:32:52Z</time>
      </trkpt>
      <trkpt lat="45.95186" lon="4.88167">
        <ele>283</ele>
        <time>2017-07-28T09:32:53Z</time>
      </trkpt>
      <trkpt lat="45.95192" lon="4.88166">
        <ele>283</ele>
        <time>2017-07-28T09:32:54Z</time>
      </trkpt>
      <trkpt lat="45.95198" lon="4.88166">
        <ele>283</ele>
        <time>2017-07-28T09:32:55Z</time>
      </trkpt>
      <trkpt lat="45.95205" lon="4.88166">
        <ele>282</ele>
        <time>2017-07-28T09:32:56Z</time>
      </trkpt>
      <trkpt lat="45.95211" lon="4.88166">
        <ele>282</ele>
        <time>2017-07-28T09:32:57Z</time>
      </trkpt>
      <trkpt lat="45.95218" lon="4.88165">
        <ele>282</ele>
        <time>2017-07-28T09:32:58Z</time>
      </trkpt>
      <trkpt lat="45.95224" lon="4.88166">
        <ele>282</ele>
        <time>2017-07-28T09:32:59Z</time>
      </trkpt>
      <trkpt lat="45.9523" lon="4.88166">
        <ele>282</ele>
        <time>2017-07-28T09:33:00Z</time>
      </trkpt>
      <trkpt lat="45.95237" lon="4.88166">
        <ele>281</ele>
        <time>2017-07-28T09:33:01Z</time>
      </trkpt>
      <trkpt lat="45.95244" lon="4.88165">
        <ele>281</ele>
        <time>2017-07-28T09:33:02Z</time>
      </trkpt>
      <trkpt lat="45.95251" lon="4.88165">
        <ele>281</ele>
        <time>2017-07-28T09:33:03Z</time>
      </trkpt>
      <trkpt lat="45.95258" lon="4.88164">
        <ele>280</ele>
        <time>2017-07-28T09:33:04Z</time>
      </trkpt>
      <trkpt lat="45.95265" lon="4.88164">
        <ele>280</ele>
        <time>2017-07-28T09:33:05Z</time>
      </trkpt>
      <trkpt lat="45.95272" lon="4.88165">
        <ele>279</ele>
        <time>2017-07-28T09:33:06Z</time>
      </trkpt>
      <trkpt lat="45.95279" lon="4.88165">
        <ele>279</ele>
        <time>2017-07-28T09:33:07Z</time>
      </trkpt>
      <trkpt lat="45.95286" lon="4.88167">
        <ele>281</ele>
        <time>2017-07-28T09:33:08Z</time>
      </trkpt>
      <trkpt lat="45.95293" lon="4.88168">
        <ele>281</ele>
        <time>2017-07-28T09:33:09Z</time>
      </trkpt>
      <trkpt lat="45.95301" lon="4.88169">
        <ele>281</ele>
        <time>2017-07-28T09:33:10Z</time>
      </trkpt>
      <trkpt lat="45.95308" lon="4.8817">
        <ele>280</ele>
        <time>2017-07-28T09:33:11Z</time>
      </trkpt>
      <trkpt lat="45.95316" lon="4.88172">
        <ele>280</ele>
        <time>2017-07-28T09:33:12Z</time>
      </trkpt>
      <trkpt lat="45.95323" lon="4.88172">
        <ele>279</ele>
        <time>2017-07-28T09:33:13Z</time>
      </trkpt>
      <trkpt lat="45.95331" lon="4.88173">
        <ele>279</ele>
        <time>2017-07-28T09:33:14Z</time>
      </trkpt>
      <trkpt lat="45.95339" lon="4.88172">
        <ele>278</ele>
        <time>2017-07-28T09:33:15Z</time>
      </trkpt>
      <trkpt lat="45.95347" lon="4.88171">
        <ele>278</ele>
        <time>2017-07-28T09:33:16Z</time>
      </trkpt>
      <trkpt lat="45.95355" lon="4.8817">
        <ele>278</ele>
        <time>2017-07-28T09:33:17Z</time>
      </trkpt>
      <trkpt lat="45.95363" lon="4.88168">
        <ele>278</ele>
        <time>2017-07-28T09:33:18Z</time>
      </trkpt>
      <trkpt lat="45.9537" lon="4.88166">
        <ele>276</ele>
        <time>2017-07-28T09:33:19Z</time>
      </trkpt>
      <trkpt lat="45.95377" lon="4.88164">
        <ele>276</ele>
        <time>2017-07-28T09:33:20Z</time>
      </trkpt>
      <trkpt lat="45.95384" lon="4.88161">
        <ele>276</ele>
        <time>2017-07-28T09:33:21Z</time>
      </trkpt>
      <trkpt lat="45.95391" lon="4.88159">
        <ele>276</ele>
        <time>2017-07-28T09:33:22Z</time>
      </trkpt>
      <trkpt lat="45.95397" lon="4.88156">
        <ele>276</ele>
        <time>2017-07-28T09:33:23Z</time>
      </trkpt>
      <trkpt lat="45.95402" lon="4.88154">
        <ele>276</ele>
        <time>2017-07-28T09:33:24Z</time>
      </trkpt>
      <trkpt lat="45.95407" lon="4.88152">
        <ele>276</ele>
        <time>2017-07-28T09:33:25Z</time>
      </trkpt>
      <trkpt lat="45.95413" lon="4.8815">
        <ele>276</ele>
        <time>2017-07-28T09:33:26Z</time>
      </trkpt>
      <trkpt lat="45.95418" lon="4.88147">
        <ele>276</ele>
        <time>2017-07-28T09:33:27Z</time>
      </trkpt>
      <trkpt lat="45.95423" lon="4.88143">
        <ele>276</ele>
        <time>2017-07-28T09:33:28Z</time>
      </trkpt>
      <trkpt lat="45.95427" lon="4.88142">
        <ele>276</ele>
        <time>2017-07-28T09:33:29Z</time>
      </trkpt>
      <trkpt lat="45.95431" lon="4.8814">
        <ele>276</ele>
        <time>2017-07-28T09:33:30Z</time>
      </trkpt>
      <trkpt lat="45.95436" lon="4.88138">
        <ele>276</ele>
        <time>2017-07-28T09:33:31Z</time>
      </trkpt>
      <trkpt lat="45.9544" lon="4.88135">
        <ele>275</ele>
        <time>2017-07-28T09:33:32Z</time>
      </trkpt>
      <trkpt lat="45.95445" lon="4.88133">
        <ele>275</ele>
        <time>2017-07-28T09:33:33Z</time>
      </trkpt>
      <trkpt lat="45.95449" lon="4.88131">
        <ele>275</ele>
        <time>2017-07-28T09:33:34Z</time>
      </trkpt>
      <trkpt lat="45.95455" lon="4.88128">
        <ele>275</ele>
        <time>2017-07-28T09:33:35Z</time>
      </trkpt>
      <trkpt lat="45.9546" lon="4.88126">
        <ele>276</ele>
        <time>2017-07-28T09:33:36Z</time>
      </trkpt>
      <trkpt lat="45.95466" lon="4.88124">
        <ele>276</ele>
        <time>2017-07-28T09:33:37Z</time>
      </trkpt>
      <trkpt lat="45.95471" lon="4.88122">
        <ele>276</ele>
        <time>2017-07-28T09:33:38Z</time>
      </trkpt>
      <trkpt lat="45.95476" lon="4.88121">
        <ele>276</ele>
        <time>2017-07-28T09:33:39Z</time>
      </trkpt>
      <trkpt lat="45.95481" lon="4.88119">
        <ele>276</ele>
        <time>2017-07-28T09:33:40Z</time>
      </trkpt>
      <trkpt lat="45.95486" lon="4.88118">
        <ele>276</ele>
        <time>2017-07-28T09:33:41Z</time>
      </trkpt>
      <trkpt lat="45.95491" lon="4.88115">
        <ele>276</ele>
        <time>2017-07-28T09:33:42Z</time>
      </trkpt>
      <trkpt lat="45.95496" lon="4.88113">
        <ele>276</ele>
        <time>2017-07-28T09:33:43Z</time>
      </trkpt>
      <trkpt lat="45.95501" lon="4.8811">
        <ele>276</ele>
        <time>2017-07-28T09:33:44Z</time>
      </trkpt>
      <trkpt lat="45.95506" lon="4.88108">
        <ele>276</ele>
        <time>2017-07-28T09:33:45Z</time>
      </trkpt>
      <trkpt lat="45.95511" lon="4.88106">
        <ele>276</ele>
        <time>2017-07-28T09:33:46Z</time>
      </trkpt>
      <trkpt lat="45.95516" lon="4.88104">
        <ele>276</ele>
        <time>2017-07-28T09:33:47Z</time>
      </trkpt>
      <trkpt lat="45.95521" lon="4.88102">
        <ele>276</ele>
        <time>2017-07-28T09:33:48Z</time>
      </trkpt>
      <trkpt lat="45.95526" lon="4.881">
        <ele>277</ele>
        <time>2017-07-28T09:33:49Z</time>
      </trkpt>
      <trkpt lat="45.9553" lon="4.88097">
        <ele>277</ele>
        <time>2017-07-28T09:33:50Z</time>
      </trkpt>
      <trkpt lat="45.95535" lon="4.88095">
        <ele>277</ele>
        <time>2017-07-28T09:33:51Z</time>
      </trkpt>
      <trkpt lat="45.9554" lon="4.88093">
        <ele>277</ele>
        <time>2017-07-28T09:33:52Z</time>
      </trkpt>
      <trkpt lat="45.95545" lon="4.88091">
        <ele>277</ele>
        <time>2017-07-28T09:33:53Z</time>
      </trkpt>
      <trkpt lat="45.9555" lon="4.88089">
        <ele>277</ele>
        <time>2017-07-28T09:33:54Z</time>
      </trkpt>
      <trkpt lat="45.95555" lon="4.88086">
        <ele>277</ele>
        <time>2017-07-28T09:33:55Z</time>
      </trkpt>
      <trkpt lat="45.9556" lon="4.88083">
        <ele>276</ele>
        <time>2017-07-28T09:33:56Z</time>
      </trkpt>
      <trkpt lat="45.95566" lon="4.88081">
        <ele>276</ele>
        <time>2017-07-28T09:33:57Z</time>
      </trkpt>
      <trkpt lat="45.95571" lon="4.88078">
        <ele>276</ele>
        <time>2017-07-28T09:33:58Z</time>
      </trkpt>
      <trkpt lat="45.95576" lon="4.88074">
        <ele>277</ele>
        <time>2017-07-28T09:33:59Z</time>
      </trkpt>
      <trkpt lat="45.9558" lon="4.88071">
        <ele>277</ele>
        <time>2017-07-28T09:34:00Z</time>
      </trkpt>
      <trkpt lat="45.95585" lon="4.88068">
        <ele>278</ele>
        <time>2017-07-28T09:34:01Z</time>
      </trkpt>
      <trkpt lat="45.95593" lon="4.88063">
        <ele>278</ele>
        <time>2017-07-28T09:34:03Z</time>
      </trkpt>
      <trkpt lat="45.95597" lon="4.8806">
        <ele>278</ele>
        <time>2017-07-28T09:34:04Z</time>
      </trkpt>
      <trkpt lat="45.956" lon="4.88056">
        <ele>278</ele>
        <time>2017-07-28T09:34:05Z</time>
      </trkpt>
      <trkpt lat="45.95604" lon="4.88053">
        <ele>278</ele>
        <time>2017-07-28T09:34:06Z</time>
      </trkpt>
      <trkpt lat="45.95608" lon="4.8805">
        <ele>278</ele>
        <time>2017-07-28T09:34:07Z</time>
      </trkpt>
      <trkpt lat="45.95612" lon="4.88046">
        <ele>278</ele>
        <time>2017-07-28T09:34:08Z</time>
      </trkpt>
      <trkpt lat="45.95616" lon="4.88042">
        <ele>278</ele>
        <time>2017-07-28T09:34:09Z</time>
      </trkpt>
      <trkpt lat="45.9562" lon="4.88039">
        <ele>278</ele>
        <time>2017-07-28T09:34:10Z</time>
      </trkpt>
      <trkpt lat="45.95624" lon="4.88035">
        <ele>278</ele>
        <time>2017-07-28T09:34:11Z</time>
      </trkpt>
      <trkpt lat="45.95628" lon="4.88031">
        <ele>279</ele>
        <time>2017-07-28T09:34:12Z</time>
      </trkpt>
      <trkpt lat="45.95632" lon="4.88027">
        <ele>279</ele>
        <time>2017-07-28T09:34:13Z</time>
      </trkpt>
      <trkpt lat="45.95636" lon="4.88024">
        <ele>279</ele>
        <time>2017-07-28T09:34:14Z</time>
      </trkpt>
      <trkpt lat="45.9564" lon="4.88021">
        <ele>279</ele>
        <time>2017-07-28T09:34:15Z</time>
      </trkpt>
      <trkpt lat="45.95644" lon="4.88017">
        <ele>279</ele>
        <time>2017-07-28T09:34:16Z</time>
      </trkpt>
      <trkpt lat="45.95647" lon="4.88013">
        <ele>279</ele>
        <time>2017-07-28T09:34:17Z</time>
      </trkpt>
      <trkpt lat="45.95651" lon="4.8801">
        <ele>280</ele>
        <time>2017-07-28T09:34:18Z</time>
      </trkpt>
      <trkpt lat="45.95656" lon="4.88006">
        <ele>280</ele>
        <time>2017-07-28T09:34:19Z</time>
      </trkpt>
      <trkpt lat="45.95659" lon="4.88002">
        <ele>280</ele>
        <time>2017-07-28T09:34:20Z</time>
      </trkpt>
      <trkpt lat="45.95663" lon="4.87998">
        <ele>281</ele>
        <time>2017-07-28T09:34:21Z</time>
      </trkpt>
      <trkpt lat="45.95668" lon="4.87994">
        <ele>281</ele>
        <time>2017-07-28T09:34:22Z</time>
      </trkpt>
      <trkpt lat="45.95672" lon="4.8799">
        <ele>282</ele>
        <time>2017-07-28T09:34:23Z</time>
      </trkpt>
      <trkpt lat="45.95676" lon="4.87986">
        <ele>282</ele>
        <time>2017-07-28T09:34:24Z</time>
      </trkpt>
      <trkpt lat="45.9568" lon="4.87982">
        <ele>282</ele>
        <time>2017-07-28T09:34:25Z</time>
      </trkpt>
      <trkpt lat="45.95684" lon="4.87978">
        <ele>282</ele>
        <time>2017-07-28T09:34:26Z</time>
      </trkpt>
      <trkpt lat="45.95692" lon="4.87971">
        <ele>282</ele>
        <time>2017-07-28T09:34:28Z</time>
      </trkpt>
      <trkpt lat="45.95695" lon="4.87968">
        <ele>282</ele>
        <time>2017-07-28T09:34:29Z</time>
      </trkpt>
      <trkpt lat="45.95701" lon="4.87963">
        <ele>283</ele>
        <time>2017-07-28T09:34:31Z</time>
      </trkpt>
      <trkpt lat="45.95703" lon="4.8796">
        <ele>283</ele>
        <time>2017-07-28T09:34:32Z</time>
      </trkpt>
      <trkpt lat="45.9571" lon="4.87954">
        <ele>283</ele>
        <time>2017-07-28T09:34:34Z</time>
      </trkpt>
      <trkpt lat="45.95714" lon="4.8795">
        <ele>283</ele>
        <time>2017-07-28T09:34:35Z</time>
      </trkpt>
      <trkpt lat="45.95718" lon="4.87947">
        <ele>283</ele>
        <time>2017-07-28T09:34:36Z</time>
      </trkpt>
      <trkpt lat="45.95722" lon="4.87943">
        <ele>283</ele>
        <time>2017-07-28T09:34:37Z</time>
      </trkpt>
      <trkpt lat="45.95726" lon="4.8794">
        <ele>283</ele>
        <time>2017-07-28T09:34:38Z</time>
      </trkpt>
      <trkpt lat="45.9573" lon="4.87936">
        <ele>283</ele>
        <time>2017-07-28T09:34:39Z</time>
      </trkpt>
      <trkpt lat="45.95735" lon="4.87933">
        <ele>284</ele>
        <time>2017-07-28T09:34:40Z</time>
      </trkpt>
      <trkpt lat="45.95739" lon="4.8793">
        <ele>284</ele>
        <time>2017-07-28T09:34:41Z</time>
      </trkpt>
      <trkpt lat="45.95747" lon="4.87924">
        <ele>284</ele>
        <time>2017-07-28T09:34:43Z</time>
      </trkpt>
      <trkpt lat="45.95751" lon="4.87921">
        <ele>285</ele>
        <time>2017-07-28T09:34:44Z</time>
      </trkpt>
      <trkpt lat="45.95757" lon="4.87916">
        <ele>285</ele>
        <time>2017-07-28T09:34:46Z</time>
      </trkpt>
      <trkpt lat="45.95761" lon="4.87913">
        <ele>285</ele>
        <time>2017-07-28T09:34:47Z</time>
      </trkpt>
      <trkpt lat="45.95768" lon="4.87909">
        <ele>286</ele>
        <time>2017-07-28T09:34:49Z</time>
      </trkpt>
      <trkpt lat="45.95772" lon="4.87906">
        <ele>286</ele>
        <time>2017-07-28T09:34:50Z</time>
      </trkpt>
      <trkpt lat="45.9578" lon="4.87902">
        <ele>286</ele>
        <time>2017-07-28T09:34:52Z</time>
      </trkpt>
      <trkpt lat="45.95783" lon="4.87899">
        <ele>286</ele>
        <time>2017-07-28T09:34:53Z</time>
      </trkpt>
      <trkpt lat="45.9579" lon="4.87895">
        <ele>286</ele>
        <time>2017-07-28T09:34:55Z</time>
      </trkpt>
      <trkpt lat="45.95794" lon="4.87892">
        <ele>286</ele>
        <time>2017-07-28T09:34:56Z</time>
      </trkpt>
      <trkpt lat="45.95801" lon="4.87888">
        <ele>287</ele>
        <time>2017-07-28T09:34:58Z</time>
      </trkpt>
      <trkpt lat="45.95804" lon="4.87887">
        <ele>287</ele>
        <time>2017-07-28T09:34:59Z</time>
      </trkpt>
      <trkpt lat="45.9581" lon="4.87883">
        <ele>287</ele>
        <time>2017-07-28T09:35:01Z</time>
      </trkpt>
      <trkpt lat="45.95813" lon="4.8788">
        <ele>287</ele>
        <time>2017-07-28T09:35:02Z</time>
      </trkpt>
      <trkpt lat="45.9582" lon="4.87877">
        <ele>287</ele>
        <time>2017-07-28T09:35:04Z</time>
      </trkpt>
      <trkpt lat="45.95824" lon="4.87877">
        <ele>287</ele>
        <time>2017-07-28T09:35:05Z</time>
      </trkpt>
      <trkpt lat="45.95832" lon="4.87876">
        <ele>287</ele>
        <time>2017-07-28T09:35:08Z</time>
      </trkpt>
      <trkpt lat="45.95834" lon="4.87875">
        <ele>289</ele>
        <time>2017-07-28T09:35:09Z</time>
      </trkpt>
      <trkpt lat="45.95841" lon="4.87872">
        <ele>289</ele>
        <time>2017-07-28T09:35:13Z</time>
      </trkpt>
      <trkpt lat="45.95844" lon="4.8787">
        <ele>289</ele>
        <time>2017-07-28T09:35:14Z</time>
      </trkpt>
      <trkpt lat="45.95848" lon="4.87863">
        <ele>289</ele>
        <time>2017-07-28T09:35:16Z</time>
      </trkpt>
      <trkpt lat="45.95851" lon="4.87859">
        <ele>289</ele>
        <time>2017-07-28T09:35:17Z</time>
      </trkpt>
      <trkpt lat="45.95856" lon="4.87853">
        <ele>289</ele>
        <time>2017-07-28T09:35:19Z</time>
      </trkpt>
      <trkpt lat="45.95858" lon="4.87851">
        <ele>289</ele>
        <time>2017-07-28T09:35:20Z</time>
      </trkpt>
      <trkpt lat="45.95863" lon="4.87846">
        <ele>289</ele>
        <time>2017-07-28T09:35:22Z</time>
      </trkpt>
      <trkpt lat="45.95866" lon="4.87843">
        <ele>289</ele>
        <time>2017-07-28T09:35:23Z</time>
      </trkpt>
      <trkpt lat="45.95871" lon="4.87837">
        <ele>289</ele>
        <time>2017-07-28T09:35:25Z</time>
      </trkpt>
      <trkpt lat="45.95875" lon="4.87834">
        <ele>289</ele>
        <time>2017-07-28T09:35:26Z</time>
      </trkpt>
      <trkpt lat="45.95881" lon="4.87827">
        <ele>288</ele>
        <time>2017-07-28T09:35:28Z</time>
      </trkpt>
      <trkpt lat="45.95885" lon="4.87824">
        <ele>288</ele>
        <time>2017-07-28T09:35:29Z</time>
      </trkpt>
      <trkpt lat="45.95891" lon="4.87818">
        <ele>288</ele>
        <time>2017-07-28T09:35:31Z</time>
      </trkpt>
      <trkpt lat="45.95893" lon="4.87815">
        <ele>288</ele>
        <time>2017-07-28T09:35:32Z</time>
      </trkpt>
      <trkpt lat="45.95898" lon="4.87808">
        <ele>288</ele>
        <time>2017-07-28T09:35:34Z</time>
      </trkpt>
      <trkpt lat="45.95901" lon="4.87804">
        <ele>288</ele>
        <time>2017-07-28T09:35:35Z</time>
      </trkpt>
      <trkpt lat="45.95906" lon="4.87797">
        <ele>288</ele>
        <time>2017-07-28T09:35:37Z</time>
      </trkpt>
      <trkpt lat="45.95909" lon="4.87794">
        <ele>288</ele>
        <time>2017-07-28T09:35:38Z</time>
      </trkpt>
      <trkpt lat="45.95914" lon="4.87786">
        <ele>288</ele>
        <time>2017-07-28T09:35:40Z</time>
      </trkpt>
      <trkpt lat="45.95916" lon="4.87782">
        <ele>288</ele>
        <time>2017-07-28T09:35:41Z</time>
      </trkpt>
      <trkpt lat="45.95921" lon="4.87773">
        <ele>289</ele>
        <time>2017-07-28T09:35:43Z</time>
      </trkpt>
      <trkpt lat="45.95923" lon="4.87769">
        <ele>289</ele>
        <time>2017-07-28T09:35:44Z</time>
      </trkpt>
      <trkpt lat="45.95929" lon="4.87759">
        <ele>288</ele>
        <time>2017-07-28T09:35:46Z</time>
      </trkpt>
      <trkpt lat="45.95932" lon="4.87754">
        <ele>288</ele>
        <time>2017-07-28T09:35:47Z</time>
      </trkpt>
      <trkpt lat="45.95938" lon="4.87745">
        <ele>288</ele>
        <time>2017-07-28T09:35:49Z</time>
      </trkpt>
      <trkpt lat="45.95941" lon="4.87741">
        <ele>288</ele>
        <time>2017-07-28T09:35:50Z</time>
      </trkpt>
      <trkpt lat="45.95946" lon="4.87733">
        <ele>289</ele>
        <time>2017-07-28T09:35:52Z</time>
      </trkpt>
      <trkpt lat="45.95948" lon="4.8773">
        <ele>289</ele>
        <time>2017-07-28T09:35:53Z</time>
      </trkpt>
      <trkpt lat="45.95953" lon="4.87723">
        <ele>289</ele>
        <time>2017-07-28T09:35:55Z</time>
      </trkpt>
      <trkpt lat="45.95956" lon="4.8772">
        <ele>289</ele>
        <time>2017-07-28T09:35:56Z</time>
      </trkpt>
      <trkpt lat="45.95962" lon="4.87711">
        <ele>289</ele>
        <time>2017-07-28T09:35:58Z</time>
      </trkpt>
      <trkpt lat="45.95965" lon="4.87706">
        <ele>289</ele>
        <time>2017-07-28T09:35:59Z</time>
      </trkpt>
      <trkpt lat="45.95972" lon="4.87698">
        <ele>289</ele>
        <time>2017-07-28T09:36:01Z</time>
      </trkpt>
      <trkpt lat="45.95975" lon="4.87694">
        <ele>289</ele>
        <time>2017-07-28T09:36:02Z</time>
      </trkpt>
      <trkpt lat="45.95981" lon="4.87687">
        <ele>289</ele>
        <time>2017-07-28T09:36:04Z</time>
      </trkpt>
      <trkpt lat="45.95983" lon="4.87684">
        <ele>289</ele>
        <time>2017-07-28T09:36:05Z</time>
      </trkpt>
      <trkpt lat="45.95989" lon="4.87677">
        <ele>289</ele>
        <time>2017-07-28T09:36:07Z</time>
      </trkpt>
      <trkpt lat="45.95992" lon="4.87673">
        <ele>290</ele>
        <time>2017-07-28T09:36:08Z</time>
      </trkpt>
      <trkpt lat="45.95998" lon="4.87666">
        <ele>290</ele>
        <time>2017-07-28T09:36:10Z</time>
      </trkpt>
      <trkpt lat="45.96001" lon="4.87663">
        <ele>290</ele>
        <time>2017-07-28T09:36:11Z</time>
      </trkpt>
      <trkpt lat="45.96007" lon="4.87656">
        <ele>289</ele>
        <time>2017-07-28T09:36:13Z</time>
      </trkpt>
      <trkpt lat="45.9601" lon="4.87653">
        <ele>289</ele>
        <time>2017-07-28T09:36:14Z</time>
      </trkpt>
      <trkpt lat="45.96017" lon="4.87645">
        <ele>289</ele>
        <time>2017-07-28T09:36:16Z</time>
      </trkpt>
      <trkpt lat="45.96021" lon="4.87641">
        <ele>289</ele>
        <time>2017-07-28T09:36:17Z</time>
      </trkpt>
      <trkpt lat="45.96027" lon="4.87633">
        <ele>289</ele>
        <time>2017-07-28T09:36:19Z</time>
      </trkpt>
      <trkpt lat="45.96031" lon="4.87629">
        <ele>289</ele>
        <time>2017-07-28T09:36:20Z</time>
      </trkpt>
      <trkpt lat="45.96037" lon="4.87622">
        <ele>289</ele>
        <time>2017-07-28T09:36:22Z</time>
      </trkpt>
      <trkpt lat="45.96041" lon="4.87618">
        <ele>289</ele>
        <time>2017-07-28T09:36:23Z</time>
      </trkpt>
      <trkpt lat="45.96045" lon="4.87614">
        <ele>289</ele>
        <time>2017-07-28T09:36:24Z</time>
      </trkpt>
      <trkpt lat="45.96048" lon="4.8761">
        <ele>289</ele>
        <time>2017-07-28T09:36:25Z</time>
      </trkpt>
      <trkpt lat="45.96052" lon="4.87605">
        <ele>289</ele>
        <time>2017-07-28T09:36:26Z</time>
      </trkpt>
      <trkpt lat="45.96056" lon="4.876">
        <ele>289</ele>
        <time>2017-07-28T09:36:27Z</time>
      </trkpt>
      <trkpt lat="45.9606" lon="4.87596">
        <ele>288</ele>
        <time>2017-07-28T09:36:28Z</time>
      </trkpt>
      <trkpt lat="45.96064" lon="4.87592">
        <ele>288</ele>
        <time>2017-07-28T09:36:29Z</time>
      </trkpt>
      <trkpt lat="45.96068" lon="4.87588">
        <ele>288</ele>
        <time>2017-07-28T09:36:30Z</time>
      </trkpt>
      <trkpt lat="45.96072" lon="4.87584">
        <ele>288</ele>
        <time>2017-07-28T09:36:31Z</time>
      </trkpt>
      <trkpt lat="45.96076" lon="4.8758">
        <ele>288</ele>
        <time>2017-07-28T09:36:32Z</time>
      </trkpt>
      <trkpt lat="45.9608" lon="4.87575">
        <ele>288</ele>
        <time>2017-07-28T09:36:33Z</time>
      </trkpt>
      <trkpt lat="45.96084" lon="4.87571">
        <ele>287</ele>
        <time>2017-07-28T09:36:34Z</time>
      </trkpt>
      <trkpt lat="45.96087" lon="4.87566">
        <ele>287</ele>
        <time>2017-07-28T09:36:35Z</time>
      </trkpt>
      <trkpt lat="45.9609" lon="4.87562">
        <ele>287</ele>
        <time>2017-07-28T09:36:36Z</time>
      </trkpt>
      <trkpt lat="45.96094" lon="4.87557">
        <ele>287</ele>
        <time>2017-07-28T09:36:37Z</time>
      </trkpt>
      <trkpt lat="45.96097" lon="4.87553">
        <ele>287</ele>
        <time>2017-07-28T09:36:38Z</time>
      </trkpt>
      <trkpt lat="45.96101" lon="4.87549">
        <ele>287</ele>
        <time>2017-07-28T09:36:39Z</time>
      </trkpt>
      <trkpt lat="45.96104" lon="4.87545">
        <ele>287</ele>
        <time>2017-07-28T09:36:40Z</time>
      </trkpt>
      <trkpt lat="45.96108" lon="4.8754">
        <ele>287</ele>
        <time>2017-07-28T09:36:41Z</time>
      </trkpt>
      <trkpt lat="45.96111" lon="4.87535">
        <ele>287</ele>
        <time>2017-07-28T09:36:42Z</time>
      </trkpt>
      <trkpt lat="45.96115" lon="4.8753">
        <ele>287</ele>
        <time>2017-07-28T09:36:43Z</time>
      </trkpt>
      <trkpt lat="45.96119" lon="4.87525">
        <ele>286</ele>
        <time>2017-07-28T09:36:44Z</time>
      </trkpt>
      <trkpt lat="45.96123" lon="4.8752">
        <ele>286</ele>
        <time>2017-07-28T09:36:45Z</time>
      </trkpt>
      <trkpt lat="45.96128" lon="4.87515">
        <ele>286</ele>
        <time>2017-07-28T09:36:46Z</time>
      </trkpt>
      <trkpt lat="45.96132" lon="4.8751">
        <ele>286</ele>
        <time>2017-07-28T09:36:47Z</time>
      </trkpt>
      <trkpt lat="45.96137" lon="4.87505">
        <ele>286</ele>
        <time>2017-07-28T09:36:48Z</time>
      </trkpt>
      <trkpt lat="45.96142" lon="4.875">
        <ele>286</ele>
        <time>2017-07-28T09:36:49Z</time>
      </trkpt>
      <trkpt lat="45.96146" lon="4.87495">
        <ele>285</ele>
        <time>2017-07-28T09:36:50Z</time>
      </trkpt>
      <trkpt lat="45.9615" lon="4.8749">
        <ele>285</ele>
        <time>2017-07-28T09:36:51Z</time>
      </trkpt>
      <trkpt lat="45.96155" lon="4.87485">
        <ele>285</ele>
        <time>2017-07-28T09:36:52Z</time>
      </trkpt>
      <trkpt lat="45.96159" lon="4.8748">
        <ele>285</ele>
        <time>2017-07-28T09:36:53Z</time>
      </trkpt>
      <trkpt lat="45.96163" lon="4.87475">
        <ele>285</ele>
        <time>2017-07-28T09:36:54Z</time>
      </trkpt>
      <trkpt lat="45.96167" lon="4.8747">
        <ele>284</ele>
        <time>2017-07-28T09:36:55Z</time>
      </trkpt>
      <trkpt lat="45.96172" lon="4.87466">
        <ele>284</ele>
        <time>2017-07-28T09:36:56Z</time>
      </trkpt>
      <trkpt lat="45.96176" lon="4.87462">
        <ele>284</ele>
        <time>2017-07-28T09:36:57Z</time>
      </trkpt>
      <trkpt lat="45.9618" lon="4.87456">
        <ele>284</ele>
        <time>2017-07-28T09:36:58Z</time>
      </trkpt>
      <trkpt lat="45.96184" lon="4.87451">
        <ele>284</ele>
        <time>2017-07-28T09:36:59Z</time>
      </trkpt>
      <trkpt lat="45.96188" lon="4.87447">
        <ele>284</ele>
        <time>2017-07-28T09:37:00Z</time>
      </trkpt>
      <trkpt lat="45.96193" lon="4.87442">
        <ele>284</ele>
        <time>2017-07-28T09:37:01Z</time>
      </trkpt>
      <trkpt lat="45.96197" lon="4.87438">
        <ele>284</ele>
        <time>2017-07-28T09:37:02Z</time>
      </trkpt>
      <trkpt lat="45.96201" lon="4.87433">
        <ele>284</ele>
        <time>2017-07-28T09:37:03Z</time>
      </trkpt>
      <trkpt lat="45.96205" lon="4.87429">
        <ele>284</ele>
        <time>2017-07-28T09:37:04Z</time>
      </trkpt>
      <trkpt lat="45.96208" lon="4.87424">
        <ele>284</ele>
        <time>2017-07-28T09:37:05Z</time>
      </trkpt>
      <trkpt lat="45.96212" lon="4.8742">
        <ele>284</ele>
        <time>2017-07-28T09:37:06Z</time>
      </trkpt>
      <trkpt lat="45.96216" lon="4.87415">
        <ele>283</ele>
        <time>2017-07-28T09:37:07Z</time>
      </trkpt>
      <trkpt lat="45.96219" lon="4.87411">
        <ele>283</ele>
        <time>2017-07-28T09:37:08Z</time>
      </trkpt>
      <trkpt lat="45.96223" lon="4.87407">
        <ele>283</ele>
        <time>2017-07-28T09:37:09Z</time>
      </trkpt>
      <trkpt lat="45.96227" lon="4.87403">
        <ele>283</ele>
        <time>2017-07-28T09:37:10Z</time>
      </trkpt>
      <trkpt lat="45.96231" lon="4.87398">
        <ele>283</ele>
        <time>2017-07-28T09:37:11Z</time>
      </trkpt>
      <trkpt lat="45.96235" lon="4.87393">
        <ele>283</ele>
        <time>2017-07-28T09:37:12Z</time>
      </trkpt>
      <trkpt lat="45.9624" lon="4.87388">
        <ele>283</ele>
        <time>2017-07-28T09:37:13Z</time>
      </trkpt>
      <trkpt lat="45.96244" lon="4.87383">
        <ele>283</ele>
        <time>2017-07-28T09:37:14Z</time>
      </trkpt>
      <trkpt lat="45.96248" lon="4.87378">
        <ele>283</ele>
        <time>2017-07-28T09:37:15Z</time>
      </trkpt>
      <trkpt lat="45.96252" lon="4.87373">
        <ele>283</ele>
        <time>2017-07-28T09:37:16Z</time>
      </trkpt>
      <trkpt lat="45.96257" lon="4.87368">
        <ele>283</ele>
        <time>2017-07-28T09:37:17Z</time>
      </trkpt>
      <trkpt lat="45.9626" lon="4.87363">
        <ele>283</ele>
        <time>2017-07-28T09:37:18Z</time>
      </trkpt>
      <trkpt lat="45.96264" lon="4.87358">
        <ele>283</ele>
        <time>2017-07-28T09:37:19Z</time>
      </trkpt>
      <trkpt lat="45.96268" lon="4.87353">
        <ele>283</ele>
        <time>2017-07-28T09:37:20Z</time>
      </trkpt>
      <trkpt lat="45.96272" lon="4.87349">
        <ele>283</ele>
        <time>2017-07-28T09:37:21Z</time>
      </trkpt>
      <trkpt lat="45.96275" lon="4.87344">
        <ele>283</ele>
        <time>2017-07-28T09:37:22Z</time>
      </trkpt>
      <trkpt lat="45.96279" lon="4.87339">
        <ele>284</ele>
        <time>2017-07-28T09:37:23Z</time>
      </trkpt>
      <trkpt lat="45.96282" lon="4.87335">
        <ele>284</ele>
        <time>2017-07-28T09:37:24Z</time>
      </trkpt>
      <trkpt lat="45.96286" lon="4.8733">
        <ele>283</ele>
        <time>2017-07-28T09:37:25Z</time>
      </trkpt>
      <trkpt lat="45.9629" lon="4.87326">
        <ele>283</ele>
        <time>2017-07-28T09:37:26Z</time>
      </trkpt>
      <trkpt lat="45.96294" lon="4.87322">
        <ele>283</ele>
        <time>2017-07-28T09:37:27Z</time>
      </trkpt>
      <trkpt lat="45.96298" lon="4.87316">
        <ele>283</ele>
        <time>2017-07-28T09:37:28Z</time>
      </trkpt>
      <trkpt lat="45.96301" lon="4.87311">
        <ele>283</ele>
        <time>2017-07-28T09:37:29Z</time>
      </trkpt>
      <trkpt lat="45.96305" lon="4.87306">
        <ele>283</ele>
        <time>2017-07-28T09:37:30Z</time>
      </trkpt>
      <trkpt lat="45.96309" lon="4.87301">
        <ele>283</ele>
        <time>2017-07-28T09:37:31Z</time>
      </trkpt>
      <trkpt lat="45.96313" lon="4.87297">
        <ele>283</ele>
        <time>2017-07-28T09:37:32Z</time>
      </trkpt>
      <trkpt lat="45.96317" lon="4.87292">
        <ele>283</ele>
        <time>2017-07-28T09:37:33Z</time>
      </trkpt>
      <trkpt lat="45.96321" lon="4.87287">
        <ele>283</ele>
        <time>2017-07-28T09:37:34Z</time>
      </trkpt>
      <trkpt lat="45.96324" lon="4.87283">
        <ele>283</ele>
        <time>2017-07-28T09:37:35Z</time>
      </trkpt>
      <trkpt lat="45.96331" lon="4.87275">
        <ele>283</ele>
        <time>2017-07-28T09:37:37Z</time>
      </trkpt>
      <trkpt lat="45.96334" lon="4.87271">
        <ele>283</ele>
        <time>2017-07-28T09:37:38Z</time>
      </trkpt>
      <trkpt lat="45.96338" lon="4.87265">
        <ele>283</ele>
        <time>2017-07-28T09:37:39Z</time>
      </trkpt>
      <trkpt lat="45.96342" lon="4.8726">
        <ele>283</ele>
        <time>2017-07-28T09:37:40Z</time>
      </trkpt>
      <trkpt lat="45.96345" lon="4.87254">
        <ele>283</ele>
        <time>2017-07-28T09:37:41Z</time>
      </trkpt>
      <trkpt lat="45.96349" lon="4.87249">
        <ele>283</ele>
        <time>2017-07-28T09:37:42Z</time>
      </trkpt>
      <trkpt lat="45.96353" lon="4.87243">
        <ele>282</ele>
        <time>2017-07-28T09:37:43Z</time>
      </trkpt>
      <trkpt lat="45.96357" lon="4.87238">
        <ele>282</ele>
        <time>2017-07-28T09:37:44Z</time>
      </trkpt>
      <trkpt lat="45.96361" lon="4.87233">
        <ele>282</ele>
        <time>2017-07-28T09:37:45Z</time>
      </trkpt>
      <trkpt lat="45.96364" lon="4.87227">
        <ele>282</ele>
        <time>2017-07-28T09:37:46Z</time>
      </trkpt>
      <trkpt lat="45.96368" lon="4.87223">
        <ele>282</ele>
        <time>2017-07-28T09:37:47Z</time>
      </trkpt>
      <trkpt lat="45.96372" lon="4.87218">
        <ele>282</ele>
        <time>2017-07-28T09:37:48Z</time>
      </trkpt>
      <trkpt lat="45.96375" lon="4.87214">
        <ele>282</ele>
        <time>2017-07-28T09:37:49Z</time>
      </trkpt>
      <trkpt lat="45.96379" lon="4.87209">
        <ele>282</ele>
        <time>2017-07-28T09:37:50Z</time>
      </trkpt>
      <trkpt lat="45.96383" lon="4.87204">
        <ele>282</ele>
        <time>2017-07-28T09:37:51Z</time>
      </trkpt>
      <trkpt lat="45.96386" lon="4.872">
        <ele>282</ele>
        <time>2017-07-28T09:37:52Z</time>
      </trkpt>
      <trkpt lat="45.9639" lon="4.87196">
        <ele>282</ele>
        <time>2017-07-28T09:37:53Z</time>
      </trkpt>
      <trkpt lat="45.96394" lon="4.87191">
        <ele>282</ele>
        <time>2017-07-28T09:37:54Z</time>
      </trkpt>
      <trkpt lat="45.96397" lon="4.87188">
        <ele>282</ele>
        <time>2017-07-28T09:37:55Z</time>
      </trkpt>
      <trkpt lat="45.96401" lon="4.87183">
        <ele>282</ele>
        <time>2017-07-28T09:37:56Z</time>
      </trkpt>
      <trkpt lat="45.96405" lon="4.87178">
        <ele>281</ele>
        <time>2017-07-28T09:37:57Z</time>
      </trkpt>
      <trkpt lat="45.96408" lon="4.87173">
        <ele>281</ele>
        <time>2017-07-28T09:37:58Z</time>
      </trkpt>
      <trkpt lat="45.96412" lon="4.87168">
        <ele>281</ele>
        <time>2017-07-28T09:37:59Z</time>
      </trkpt>
      <trkpt lat="45.96415" lon="4.87163">
        <ele>281</ele>
        <time>2017-07-28T09:38:00Z</time>
      </trkpt>
      <trkpt lat="45.96419" lon="4.87158">
        <ele>281</ele>
        <time>2017-07-28T09:38:01Z</time>
      </trkpt>
      <trkpt lat="45.96423" lon="4.87153">
        <ele>281</ele>
        <time>2017-07-28T09:38:02Z</time>
      </trkpt>
      <trkpt lat="45.96427" lon="4.87148">
        <ele>281</ele>
        <time>2017-07-28T09:38:03Z</time>
      </trkpt>
      <trkpt lat="45.96431" lon="4.87142">
        <ele>281</ele>
        <time>2017-07-28T09:38:04Z</time>
      </trkpt>
      <trkpt lat="45.96435" lon="4.87137">
        <ele>281</ele>
        <time>2017-07-28T09:38:05Z</time>
      </trkpt>
      <trkpt lat="45.96439" lon="4.87131">
        <ele>281</ele>
        <time>2017-07-28T09:38:06Z</time>
      </trkpt>
      <trkpt lat="45.96442" lon="4.87126">
        <ele>281</ele>
        <time>2017-07-28T09:38:07Z</time>
      </trkpt>
      <trkpt lat="45.96446" lon="4.87122">
        <ele>281</ele>
        <time>2017-07-28T09:38:08Z</time>
      </trkpt>
      <trkpt lat="45.96452" lon="4.87114">
        <ele>281</ele>
        <time>2017-07-28T09:38:10Z</time>
      </trkpt>
      <trkpt lat="45.96455" lon="4.8711">
        <ele>281</ele>
        <time>2017-07-28T09:38:11Z</time>
      </trkpt>
      <trkpt lat="45.9646" lon="4.87103">
        <ele>282</ele>
        <time>2017-07-28T09:38:13Z</time>
      </trkpt>
      <trkpt lat="45.96464" lon="4.87099">
        <ele>282</ele>
        <time>2017-07-28T09:38:14Z</time>
      </trkpt>
      <trkpt lat="45.96467" lon="4.87095">
        <ele>282</ele>
        <time>2017-07-28T09:38:15Z</time>
      </trkpt>
      <trkpt lat="45.96471" lon="4.87091">
        <ele>282</ele>
        <time>2017-07-28T09:38:16Z</time>
      </trkpt>
      <trkpt lat="45.96475" lon="4.87086">
        <ele>282</ele>
        <time>2017-07-28T09:38:17Z</time>
      </trkpt>
      <trkpt lat="45.96478" lon="4.87082">
        <ele>282</ele>
        <time>2017-07-28T09:38:18Z</time>
      </trkpt>
      <trkpt lat="45.96482" lon="4.87077">
        <ele>282</ele>
        <time>2017-07-28T09:38:19Z</time>
      </trkpt>
      <trkpt lat="45.96486" lon="4.87072">
        <ele>282</ele>
        <time>2017-07-28T09:38:20Z</time>
      </trkpt>
      <trkpt lat="45.9649" lon="4.87067">
        <ele>282</ele>
        <time>2017-07-28T09:38:21Z</time>
      </trkpt>
      <trkpt lat="45.96493" lon="4.87062">
        <ele>282</ele>
        <time>2017-07-28T09:38:22Z</time>
      </trkpt>
      <trkpt lat="45.96498" lon="4.87052">
        <ele>281</ele>
        <time>2017-07-28T09:38:24Z</time>
      </trkpt>
      <trkpt lat="45.96501" lon="4.87048">
        <ele>282</ele>
        <time>2017-07-28T09:38:25Z</time>
      </trkpt>
      <trkpt lat="45.96508" lon="4.87044">
        <ele>282</ele>
        <time>2017-07-28T09:38:27Z</time>
      </trkpt>
      <trkpt lat="45.96511" lon="4.87046">
        <ele>283</ele>
        <time>2017-07-28T09:38:28Z</time>
      </trkpt>
      <trkpt lat="45.96515" lon="4.87052">
        <ele>283</ele>
        <time>2017-07-28T09:38:30Z</time>
      </trkpt>
      <trkpt lat="45.96517" lon="4.87056">
        <ele>283</ele>
        <time>2017-07-28T09:38:31Z</time>
      </trkpt>
      <trkpt lat="45.96524" lon="4.87064">
        <ele>283</ele>
        <time>2017-07-28T09:38:34Z</time>
      </trkpt>
      <trkpt lat="45.96527" lon="4.87064">
        <ele>283</ele>
        <time>2017-07-28T09:38:35Z</time>
      </trkpt>
      <trkpt lat="45.96535" lon="4.8706">
        <ele>283</ele>
        <time>2017-07-28T09:38:39Z</time>
      </trkpt>
      <trkpt lat="45.96537" lon="4.87058">
        <ele>283</ele>
        <time>2017-07-28T09:38:40Z</time>
      </trkpt>
      <trkpt lat="45.96542" lon="4.87068">
        <ele>283</ele>
        <time>2017-07-28T09:38:45Z</time>
      </trkpt>
      <trkpt lat="45.96544" lon="4.8707">
        <ele>283</ele>
        <time>2017-07-28T09:38:46Z</time>
      </trkpt>
      <trkpt lat="45.96552" lon="4.8707">
        <ele>283</ele>
        <time>2017-07-28T09:38:50Z</time>
      </trkpt>
      <trkpt lat="45.96555" lon="4.87071">
        <ele>283</ele>
        <time>2017-07-28T09:38:51Z</time>
      </trkpt>
      <trkpt lat="45.96561" lon="4.87063">
        <ele>283</ele>
        <time>2017-07-28T09:38:56Z</time>
      </trkpt>
      <trkpt lat="45.96561" lon="4.87059">
        <ele>283</ele>
        <time>2017-07-28T09:38:57Z</time>
      </trkpt>
      <trkpt lat="45.96561" lon="4.87049">
        <ele>283</ele>
        <time>2017-07-28T09:39:00Z</time>
      </trkpt>
      <trkpt lat="45.9656" lon="4.87046">
        <ele>283</ele>
        <time>2017-07-28T09:39:01Z</time>
      </trkpt>
      <trkpt lat="45.96558" lon="4.87035">
        <ele>283</ele>
        <time>2017-07-28T09:39:04Z</time>
      </trkpt>
      <trkpt lat="45.96557" lon="4.87031">
        <ele>283</ele>
        <time>2017-07-28T09:39:05Z</time>
      </trkpt>
      <trkpt lat="45.9655" lon="4.87024">
        <ele>283</ele>
        <time>2017-07-28T09:39:09Z</time>
      </trkpt>
      <trkpt lat="45.96548" lon="4.87024">
        <ele>283</ele>
        <time>2017-07-28T09:39:10Z</time>
      </trkpt>
      <trkpt lat="45.96547" lon="4.87024">
        <ele>283</ele>
        <time>2017-07-28T09:39:11Z</time>
      </trkpt>
      <trkpt lat="45.96545" lon="4.87022">
        <ele>283</ele>
        <time>2017-07-28T09:45:33Z</time>
      </trkpt>
      <trkpt lat="45.96545" lon="4.87027">
        <ele>283</ele>
        <time>2017-07-28T09:45:34Z</time>
      </trkpt>
      <trkpt lat="45.96545" lon="4.87014">
        <ele>283</ele>
        <time>2017-07-28T09:45:40Z</time>
      </trkpt>
      <trkpt lat="45.96547" lon="4.8701">
        <ele>283</ele>
        <time>2017-07-28T09:45:41Z</time>
      </trkpt>
      <trkpt lat="45.96545" lon="4.86999">
        <ele>283</ele>
        <time>2017-07-28T09:45:44Z</time>
      </trkpt>
      <trkpt lat="45.96545" lon="4.86995">
        <ele>283</ele>
        <time>2017-07-28T09:45:45Z</time>
      </trkpt>
      <trkpt lat="45.96549" lon="4.86987">
        <ele>283</ele>
        <time>2017-07-28T09:45:48Z</time>
      </trkpt>
      <trkpt lat="45.96551" lon="4.86984">
        <ele>283</ele>
        <time>2017-07-28T09:45:49Z</time>
      </trkpt>
      <trkpt lat="45.96555" lon="4.86976">
        <ele>283</ele>
        <time>2017-07-28T09:45:51Z</time>
      </trkpt>
      <trkpt lat="45.96557" lon="4.86971">
        <ele>283</ele>
        <time>2017-07-28T09:45:52Z</time>
      </trkpt>
      <trkpt lat="45.96562" lon="4.86963">
        <ele>283</ele>
        <time>2017-07-28T09:45:54Z</time>
      </trkpt>
      <trkpt lat="45.96564" lon="4.86958">
        <ele>284</ele>
        <time>2017-07-28T09:45:55Z</time>
      </trkpt>
      <trkpt lat="45.9657" lon="4.86949">
        <ele>284</ele>
        <time>2017-07-28T09:45:57Z</time>
      </trkpt>
      <trkpt lat="45.96573" lon="4.86944">
        <ele>284</ele>
        <time>2017-07-28T09:45:58Z</time>
      </trkpt>
      <trkpt lat="45.96576" lon="4.86939">
        <ele>284</ele>
        <time>2017-07-28T09:45:59Z</time>
      </trkpt>
      <trkpt lat="45.96579" lon="4.86934">
        <ele>284</ele>
        <time>2017-07-28T09:46:00Z</time>
      </trkpt>
      <trkpt lat="45.96582" lon="4.86929">
        <ele>284</ele>
        <time>2017-07-28T09:46:01Z</time>
      </trkpt>
      <trkpt lat="45.96585" lon="4.86924">
        <ele>285</ele>
        <time>2017-07-28T09:46:02Z</time>
      </trkpt>
      <trkpt lat="45.96591" lon="4.86916">
        <ele>286</ele>
        <time>2017-07-28T09:46:04Z</time>
      </trkpt>
      <trkpt lat="45.96593" lon="4.86912">
        <ele>286</ele>
        <time>2017-07-28T09:46:05Z</time>
      </trkpt>
      <trkpt lat="45.96599" lon="4.86903">
        <ele>286</ele>
        <time>2017-07-28T09:46:07Z</time>
      </trkpt>
      <trkpt lat="45.96601" lon="4.869">
        <ele>286</ele>
        <time>2017-07-28T09:46:08Z</time>
      </trkpt>
      <trkpt lat="45.96606" lon="4.86894">
        <ele>287</ele>
        <time>2017-07-28T09:46:10Z</time>
      </trkpt>
      <trkpt lat="45.96609" lon="4.8689">
        <ele>287</ele>
        <time>2017-07-28T09:46:11Z</time>
      </trkpt>
      <trkpt lat="45.96614" lon="4.86882">
        <ele>287</ele>
        <time>2017-07-28T09:46:13Z</time>
      </trkpt>
      <trkpt lat="45.96617" lon="4.86879">
        <ele>287</ele>
        <time>2017-07-28T09:46:14Z</time>
      </trkpt>
      <trkpt lat="45.96621" lon="4.86871">
        <ele>287</ele>
        <time>2017-07-28T09:46:16Z</time>
      </trkpt>
      <trkpt lat="45.96624" lon="4.86867">
        <ele>287</ele>
        <time>2017-07-28T09:46:17Z</time>
      </trkpt>
      <trkpt lat="45.96629" lon="4.86858">
        <ele>287</ele>
        <time>2017-07-28T09:46:19Z</time>
      </trkpt>
      <trkpt lat="45.96631" lon="4.86854">
        <ele>287</ele>
        <time>2017-07-28T09:46:20Z</time>
      </trkpt>
      <trkpt lat="45.96637" lon="4.86844">
        <ele>287</ele>
        <time>2017-07-28T09:46:22Z</time>
      </trkpt>
      <trkpt lat="45.96639" lon="4.8684">
        <ele>287</ele>
        <time>2017-07-28T09:46:23Z</time>
      </trkpt>
      <trkpt lat="45.96645" lon="4.8683">
        <ele>288</ele>
        <time>2017-07-28T09:46:25Z</time>
      </trkpt>
      <trkpt lat="45.96648" lon="4.86825">
        <ele>288</ele>
        <time>2017-07-28T09:46:26Z</time>
      </trkpt>
      <trkpt lat="45.96654" lon="4.86816">
        <ele>288</ele>
        <time>2017-07-28T09:46:28Z</time>
      </trkpt>
      <trkpt lat="45.96656" lon="4.86812">
        <ele>288</ele>
        <time>2017-07-28T09:46:29Z</time>
      </trkpt>
      <trkpt lat="45.96661" lon="4.86803">
        <ele>288</ele>
        <time>2017-07-28T09:46:31Z</time>
      </trkpt>
      <trkpt lat="45.96663" lon="4.86799">
        <ele>288</ele>
        <time>2017-07-28T09:46:32Z</time>
      </trkpt>
      <trkpt lat="45.96668" lon="4.86791">
        <ele>289</ele>
        <time>2017-07-28T09:46:34Z</time>
      </trkpt>
      <trkpt lat="45.96671" lon="4.86786">
        <ele>289</ele>
        <time>2017-07-28T09:46:35Z</time>
      </trkpt>
      <trkpt lat="45.96674" lon="4.86781">
        <ele>289</ele>
        <time>2017-07-28T09:46:36Z</time>
      </trkpt>
      <trkpt lat="45.96677" lon="4.86776">
        <ele>289</ele>
        <time>2017-07-28T09:46:37Z</time>
      </trkpt>
      <trkpt lat="45.96683" lon="4.86766">
        <ele>289</ele>
        <time>2017-07-28T09:46:39Z</time>
      </trkpt>
      <trkpt lat="45.96685" lon="4.86762">
        <ele>289</ele>
        <time>2017-07-28T09:46:40Z</time>
      </trkpt>
      <trkpt lat="45.96691" lon="4.86752">
        <ele>289</ele>
        <time>2017-07-28T09:46:42Z</time>
      </trkpt>
      <trkpt lat="45.96694" lon="4.86748">
        <ele>289</ele>
        <time>2017-07-28T09:46:43Z</time>
      </trkpt>
      <trkpt lat="45.96699" lon="4.86739">
        <ele>289</ele>
        <time>2017-07-28T09:46:45Z</time>
      </trkpt>
      <trkpt lat="45.96702" lon="4.86734">
        <ele>289</ele>
        <time>2017-07-28T09:46:46Z</time>
      </trkpt>
      <trkpt lat="45.96706" lon="4.86725">
        <ele>289</ele>
        <time>2017-07-28T09:46:48Z</time>
      </trkpt>
      <trkpt lat="45.96709" lon="4.8672">
        <ele>289</ele>
        <time>2017-07-28T09:46:49Z</time>
      </trkpt>
      <trkpt lat="45.96715" lon="4.86711">
        <ele>289</ele>
        <time>2017-07-28T09:46:51Z</time>
      </trkpt>
      <trkpt lat="45.96717" lon="4.86707">
        <ele>289</ele>
        <time>2017-07-28T09:46:52Z</time>
      </trkpt>
      <trkpt lat="45.96722" lon="4.86699">
        <ele>289</ele>
        <time>2017-07-28T09:46:54Z</time>
      </trkpt>
      <trkpt lat="45.96724" lon="4.86696">
        <ele>289</ele>
        <time>2017-07-28T09:46:55Z</time>
      </trkpt>
      <trkpt lat="45.96729" lon="4.86689">
        <ele>289</ele>
        <time>2017-07-28T09:46:57Z</time>
      </trkpt>
      <trkpt lat="45.96731" lon="4.86685">
        <ele>289</ele>
        <time>2017-07-28T09:46:58Z</time>
      </trkpt>
      <trkpt lat="45.96736" lon="4.86677">
        <ele>290</ele>
        <time>2017-07-28T09:47:00Z</time>
      </trkpt>
      <trkpt lat="45.96738" lon="4.86673">
        <ele>290</ele>
        <time>2017-07-28T09:47:01Z</time>
      </trkpt>
      <trkpt lat="45.96744" lon="4.86665">
        <ele>290</ele>
        <time>2017-07-28T09:47:03Z</time>
      </trkpt>
      <trkpt lat="45.96747" lon="4.8666">
        <ele>290</ele>
        <time>2017-07-28T09:47:04Z</time>
      </trkpt>
      <trkpt lat="45.96752" lon="4.86652">
        <ele>290</ele>
        <time>2017-07-28T09:47:06Z</time>
      </trkpt>
      <trkpt lat="45.96755" lon="4.86648">
        <ele>290</ele>
        <time>2017-07-28T09:47:07Z</time>
      </trkpt>
      <trkpt lat="45.96759" lon="4.8664">
        <ele>290</ele>
        <time>2017-07-28T09:47:09Z</time>
      </trkpt>
      <trkpt lat="45.96761" lon="4.86636">
        <ele>289</ele>
        <time>2017-07-28T09:47:10Z</time>
      </trkpt>
      <trkpt lat="45.96765" lon="4.86627">
        <ele>289</ele>
        <time>2017-07-28T09:47:12Z</time>
      </trkpt>
      <trkpt lat="45.96768" lon="4.86622">
        <ele>289</ele>
        <time>2017-07-28T09:47:13Z</time>
      </trkpt>
      <trkpt lat="45.96773" lon="4.86614">
        <ele>289</ele>
        <time>2017-07-28T09:47:15Z</time>
      </trkpt>
      <trkpt lat="45.96775" lon="4.86609">
        <ele>289</ele>
        <time>2017-07-28T09:47:16Z</time>
      </trkpt>
      <trkpt lat="45.96778" lon="4.86604">
        <ele>289</ele>
        <time>2017-07-28T09:47:17Z</time>
      </trkpt>
      <trkpt lat="45.96782" lon="4.866">
        <ele>289</ele>
        <time>2017-07-28T09:47:18Z</time>
      </trkpt>
      <trkpt lat="45.96785" lon="4.86595">
        <ele>289</ele>
        <time>2017-07-28T09:47:19Z</time>
      </trkpt>
      <trkpt lat="45.96788" lon="4.8659">
        <ele>289</ele>
        <time>2017-07-28T09:47:20Z</time>
      </trkpt>
      <trkpt lat="45.96792" lon="4.86585">
        <ele>289</ele>
        <time>2017-07-28T09:47:21Z</time>
      </trkpt>
      <trkpt lat="45.96795" lon="4.8658">
        <ele>290</ele>
        <time>2017-07-28T09:47:22Z</time>
      </trkpt>
      <trkpt lat="45.96801" lon="4.8657">
        <ele>290</ele>
        <time>2017-07-28T09:47:24Z</time>
      </trkpt>
      <trkpt lat="45.96803" lon="4.86565">
        <ele>290</ele>
        <time>2017-07-28T09:47:25Z</time>
      </trkpt>
      <trkpt lat="45.96809" lon="4.86556">
        <ele>290</ele>
        <time>2017-07-28T09:47:27Z</time>
      </trkpt>
      <trkpt lat="45.96812" lon="4.86552">
        <ele>290</ele>
        <time>2017-07-28T09:47:28Z</time>
      </trkpt>
      <trkpt lat="45.96815" lon="4.86547">
        <ele>290</ele>
        <time>2017-07-28T09:47:29Z</time>
      </trkpt>
      <trkpt lat="45.96817" lon="4.86542">
        <ele>290</ele>
        <time>2017-07-28T09:47:30Z</time>
      </trkpt>
      <trkpt lat="45.9682" lon="4.86537">
        <ele>290</ele>
        <time>2017-07-28T09:47:31Z</time>
      </trkpt>
      <trkpt lat="45.96823" lon="4.86531">
        <ele>289</ele>
        <time>2017-07-28T09:47:32Z</time>
      </trkpt>
      <trkpt lat="45.96826" lon="4.86526">
        <ele>289</ele>
        <time>2017-07-28T09:47:33Z</time>
      </trkpt>
      <trkpt lat="45.96829" lon="4.8652">
        <ele>289</ele>
        <time>2017-07-28T09:47:34Z</time>
      </trkpt>
      <trkpt lat="45.96832" lon="4.86515">
        <ele>289</ele>
        <time>2017-07-28T09:47:35Z</time>
      </trkpt>
      <trkpt lat="45.96835" lon="4.86509">
        <ele>289</ele>
        <time>2017-07-28T09:47:36Z</time>
      </trkpt>
      <trkpt lat="45.96838" lon="4.86504">
        <ele>289</ele>
        <time>2017-07-28T09:47:37Z</time>
      </trkpt>
      <trkpt lat="45.9684" lon="4.86499">
        <ele>289</ele>
        <time>2017-07-28T09:47:38Z</time>
      </trkpt>
      <trkpt lat="45.96845" lon="4.86488">
        <ele>289</ele>
        <time>2017-07-28T09:47:40Z</time>
      </trkpt>
      <trkpt lat="45.96847" lon="4.86482">
        <ele>289</ele>
        <time>2017-07-28T09:47:41Z</time>
      </trkpt>
      <trkpt lat="45.96849" lon="4.86473">
        <ele>289</ele>
        <time>2017-07-28T09:47:43Z</time>
      </trkpt>
      <trkpt lat="45.9685" lon="4.86468">
        <ele>289</ele>
        <time>2017-07-28T09:47:44Z</time>
      </trkpt>
      <trkpt lat="45.96852" lon="4.86459">
        <ele>289</ele>
        <time>2017-07-28T09:47:46Z</time>
      </trkpt>
      <trkpt lat="45.96854" lon="4.86453">
        <ele>289</ele>
        <time>2017-07-28T09:47:47Z</time>
      </trkpt>
      <trkpt lat="45.96856" lon="4.86444">
        <ele>289</ele>
        <time>2017-07-28T09:47:49Z</time>
      </trkpt>
      <trkpt lat="45.96856" lon="4.86438">
        <ele>290</ele>
        <time>2017-07-28T09:47:50Z</time>
      </trkpt>
      <trkpt lat="45.96858" lon="4.86426">
        <ele>290</ele>
        <time>2017-07-28T09:47:52Z</time>
      </trkpt>
      <trkpt lat="45.96859" lon="4.8642">
        <ele>290</ele>
        <time>2017-07-28T09:47:53Z</time>
      </trkpt>
      <trkpt lat="45.9686" lon="4.86413">
        <ele>290</ele>
        <time>2017-07-28T09:47:54Z</time>
      </trkpt>
      <trkpt lat="45.96862" lon="4.86406">
        <ele>290</ele>
        <time>2017-07-28T09:47:55Z</time>
      </trkpt>
      <trkpt lat="45.96863" lon="4.86399">
        <ele>290</ele>
        <time>2017-07-28T09:47:56Z</time>
      </trkpt>
      <trkpt lat="45.96864" lon="4.86392">
        <ele>290</ele>
        <time>2017-07-28T09:47:57Z</time>
      </trkpt>
      <trkpt lat="45.96866" lon="4.8638">
        <ele>290</ele>
        <time>2017-07-28T09:47:59Z</time>
      </trkpt>
      <trkpt lat="45.96867" lon="4.86374">
        <ele>290</ele>
        <time>2017-07-28T09:48:00Z</time>
      </trkpt>
      <trkpt lat="45.96868" lon="4.86362">
        <ele>290</ele>
        <time>2017-07-28T09:48:02Z</time>
      </trkpt>
      <trkpt lat="45.96869" lon="4.86356">
        <ele>290</ele>
        <time>2017-07-28T09:48:03Z</time>
      </trkpt>
      <trkpt lat="45.96871" lon="4.86344">
        <ele>290</ele>
        <time>2017-07-28T09:48:05Z</time>
      </trkpt>
      <trkpt lat="45.96872" lon="4.86338">
        <ele>290</ele>
        <time>2017-07-28T09:48:06Z</time>
      </trkpt>
      <trkpt lat="45.96873" lon="4.86327">
        <ele>289</ele>
        <time>2017-07-28T09:48:08Z</time>
      </trkpt>
      <trkpt lat="45.96874" lon="4.86321">
        <ele>289</ele>
        <time>2017-07-28T09:48:09Z</time>
      </trkpt>
      <trkpt lat="45.96876" lon="4.8631">
        <ele>289</ele>
        <time>2017-07-28T09:48:11Z</time>
      </trkpt>
      <trkpt lat="45.96876" lon="4.86305">
        <ele>289</ele>
        <time>2017-07-28T09:48:12Z</time>
      </trkpt>
      <trkpt lat="45.96878" lon="4.86295">
        <ele>289</ele>
        <time>2017-07-28T09:48:14Z</time>
      </trkpt>
      <trkpt lat="45.96879" lon="4.8629">
        <ele>289</ele>
        <time>2017-07-28T09:48:15Z</time>
      </trkpt>
      <trkpt lat="45.9688" lon="4.8628">
        <ele>289</ele>
        <time>2017-07-28T09:48:17Z</time>
      </trkpt>
      <trkpt lat="45.96881" lon="4.86276">
        <ele>289</ele>
        <time>2017-07-28T09:48:18Z</time>
      </trkpt>
      <trkpt lat="45.96882" lon="4.86267">
        <ele>288</ele>
        <time>2017-07-28T09:48:20Z</time>
      </trkpt>
      <trkpt lat="45.96883" lon="4.86263">
        <ele>288</ele>
        <time>2017-07-28T09:48:21Z</time>
      </trkpt>
      <trkpt lat="45.96884" lon="4.86251">
        <ele>288</ele>
        <time>2017-07-28T09:48:24Z</time>
      </trkpt>
      <trkpt lat="45.96885" lon="4.86247">
        <ele>288</ele>
        <time>2017-07-28T09:48:25Z</time>
      </trkpt>
      <trkpt lat="45.96887" lon="4.86236">
        <ele>288</ele>
        <time>2017-07-28T09:48:28Z</time>
      </trkpt>
      <trkpt lat="45.96887" lon="4.86233">
        <ele>288</ele>
        <time>2017-07-28T09:48:29Z</time>
      </trkpt>
      <trkpt lat="45.96887" lon="4.86232">
        <ele>288</ele>
        <time>2017-07-28T09:48:30Z</time>
      </trkpt>
      <trkpt lat="45.96887" lon="4.86231">
        <ele>288</ele>
        <time>2017-07-28T09:49:00Z</time>
      </trkpt>
      <trkpt lat="45.96888" lon="4.86231">
        <ele>288</ele>
        <time>2017-07-28T09:49:01Z</time>
      </trkpt>
      <trkpt lat="45.96889" lon="4.8622">
        <ele>289</ele>
        <time>2017-07-28T09:49:05Z</time>
      </trkpt>
      <trkpt lat="45.96889" lon="4.86215">
        <ele>289</ele>
        <time>2017-07-28T09:49:06Z</time>
      </trkpt>
      <trkpt lat="45.96891" lon="4.86203">
        <ele>289</ele>
        <time>2017-07-28T09:49:08Z</time>
      </trkpt>
      <trkpt lat="45.96892" lon="4.86196">
        <ele>289</ele>
        <time>2017-07-28T09:49:09Z</time>
      </trkpt>
      <trkpt lat="45.96892" lon="4.86189">
        <ele>289</ele>
        <time>2017-07-28T09:49:10Z</time>
      </trkpt>
      <trkpt lat="45.96893" lon="4.86182">
        <ele>289</ele>
        <time>2017-07-28T09:49:11Z</time>
      </trkpt>
      <trkpt lat="45.96895" lon="4.86174">
        <ele>288</ele>
        <time>2017-07-28T09:49:12Z</time>
      </trkpt>
      <trkpt lat="45.96896" lon="4.86167">
        <ele>288</ele>
        <time>2017-07-28T09:49:13Z</time>
      </trkpt>
      <trkpt lat="45.96896" lon="4.8616">
        <ele>289</ele>
        <time>2017-07-28T09:49:14Z</time>
      </trkpt>
      <trkpt lat="45.96897" lon="4.86152">
        <ele>289</ele>
        <time>2017-07-28T09:49:15Z</time>
      </trkpt>
      <trkpt lat="45.96898" lon="4.86144">
        <ele>289</ele>
        <time>2017-07-28T09:49:16Z</time>
      </trkpt>
      <trkpt lat="45.96899" lon="4.86136">
        <ele>289</ele>
        <time>2017-07-28T09:49:17Z</time>
      </trkpt>
      <trkpt lat="45.96901" lon="4.86128">
        <ele>289</ele>
        <time>2017-07-28T09:49:18Z</time>
      </trkpt>
      <trkpt lat="45.96902" lon="4.8612">
        <ele>289</ele>
        <time>2017-07-28T09:49:19Z</time>
      </trkpt>
      <trkpt lat="45.96903" lon="4.86111">
        <ele>289</ele>
        <time>2017-07-28T09:49:20Z</time>
      </trkpt>
      <trkpt lat="45.96905" lon="4.86102">
        <ele>288</ele>
        <time>2017-07-28T09:49:21Z</time>
      </trkpt>
      <trkpt lat="45.96906" lon="4.86092">
        <ele>288</ele>
        <time>2017-07-28T09:49:22Z</time>
      </trkpt>
      <trkpt lat="45.96907" lon="4.86083">
        <ele>288</ele>
        <time>2017-07-28T09:49:23Z</time>
      </trkpt>
      <trkpt lat="45.96908" lon="4.86073">
        <ele>288</ele>
        <time>2017-07-28T09:49:24Z</time>
      </trkpt>
      <trkpt lat="45.96908" lon="4.86063">
        <ele>288</ele>
        <time>2017-07-28T09:49:25Z</time>
      </trkpt>
      <trkpt lat="45.96908" lon="4.86053">
        <ele>289</ele>
        <time>2017-07-28T09:49:26Z</time>
      </trkpt>
      <trkpt lat="45.96909" lon="4.86043">
        <ele>289</ele>
        <time>2017-07-28T09:49:27Z</time>
      </trkpt>
      <trkpt lat="45.9691" lon="4.86034">
        <ele>289</ele>
        <time>2017-07-28T09:49:28Z</time>
      </trkpt>
      <trkpt lat="45.96911" lon="4.86025">
        <ele>289</ele>
        <time>2017-07-28T09:49:29Z</time>
      </trkpt>
      <trkpt lat="45.96912" lon="4.86016">
        <ele>289</ele>
        <time>2017-07-28T09:49:30Z</time>
      </trkpt>
      <trkpt lat="45.96914" lon="4.86007">
        <ele>288</ele>
        <time>2017-07-28T09:49:31Z</time>
      </trkpt>
      <trkpt lat="45.96915" lon="4.85998">
        <ele>288</ele>
        <time>2017-07-28T09:49:32Z</time>
      </trkpt>
      <trkpt lat="45.96917" lon="4.85989">
        <ele>288</ele>
        <time>2017-07-28T09:49:33Z</time>
      </trkpt>
      <trkpt lat="45.96918" lon="4.8598">
        <ele>287</ele>
        <time>2017-07-28T09:49:34Z</time>
      </trkpt>
      <trkpt lat="45.96921" lon="4.85972">
        <ele>287</ele>
        <time>2017-07-28T09:49:35Z</time>
      </trkpt>
      <trkpt lat="45.96923" lon="4.85964">
        <ele>287</ele>
        <time>2017-07-28T09:49:36Z</time>
      </trkpt>
      <trkpt lat="45.96925" lon="4.85955">
        <ele>287</ele>
        <time>2017-07-28T09:49:37Z</time>
      </trkpt>
      <trkpt lat="45.96928" lon="4.85947">
        <ele>286</ele>
        <time>2017-07-28T09:49:38Z</time>
      </trkpt>
      <trkpt lat="45.9693" lon="4.85938">
        <ele>286</ele>
        <time>2017-07-28T09:49:39Z</time>
      </trkpt>
      <trkpt lat="45.96933" lon="4.8593">
        <ele>286</ele>
        <time>2017-07-28T09:49:40Z</time>
      </trkpt>
      <trkpt lat="45.96935" lon="4.85922">
        <ele>286</ele>
        <time>2017-07-28T09:49:41Z</time>
      </trkpt>
      <trkpt lat="45.96938" lon="4.85914">
        <ele>286</ele>
        <time>2017-07-28T09:49:42Z</time>
      </trkpt>
      <trkpt lat="45.96941" lon="4.85905">
        <ele>285</ele>
        <time>2017-07-28T09:49:43Z</time>
      </trkpt>
      <trkpt lat="45.96943" lon="4.85896">
        <ele>285</ele>
        <time>2017-07-28T09:49:44Z</time>
      </trkpt>
      <trkpt lat="45.96945" lon="4.85887">
        <ele>285</ele>
        <time>2017-07-28T09:49:45Z</time>
      </trkpt>
      <trkpt lat="45.96948" lon="4.85879">
        <ele>285</ele>
        <time>2017-07-28T09:49:46Z</time>
      </trkpt>
      <trkpt lat="45.9695" lon="4.8587">
        <ele>285</ele>
        <time>2017-07-28T09:49:47Z</time>
      </trkpt>
      <trkpt lat="45.96953" lon="4.85862">
        <ele>285</ele>
        <time>2017-07-28T09:49:48Z</time>
      </trkpt>
      <trkpt lat="45.96955" lon="4.85854">
        <ele>285</ele>
        <time>2017-07-28T09:49:49Z</time>
      </trkpt>
      <trkpt lat="45.96957" lon="4.85846">
        <ele>285</ele>
        <time>2017-07-28T09:49:50Z</time>
      </trkpt>
      <trkpt lat="45.96959" lon="4.85838">
        <ele>285</ele>
        <time>2017-07-28T09:49:51Z</time>
      </trkpt>
      <trkpt lat="45.96961" lon="4.8583">
        <ele>285</ele>
        <time>2017-07-28T09:49:52Z</time>
      </trkpt>
      <trkpt lat="45.96963" lon="4.85822">
        <ele>285</ele>
        <time>2017-07-28T09:49:53Z</time>
      </trkpt>
      <trkpt lat="45.96964" lon="4.85814">
        <ele>285</ele>
        <time>2017-07-28T09:49:54Z</time>
      </trkpt>
      <trkpt lat="45.96966" lon="4.85807">
        <ele>285</ele>
        <time>2017-07-28T09:49:55Z</time>
      </trkpt>
      <trkpt lat="45.96968" lon="4.85799">
        <ele>285</ele>
        <time>2017-07-28T09:49:56Z</time>
      </trkpt>
      <trkpt lat="45.9697" lon="4.85792">
        <ele>285</ele>
        <time>2017-07-28T09:49:57Z</time>
      </trkpt>
      <trkpt lat="45.96972" lon="4.85784">
        <ele>285</ele>
        <time>2017-07-28T09:49:58Z</time>
      </trkpt>
      <trkpt lat="45.96975" lon="4.85775">
        <ele>285</ele>
        <time>2017-07-28T09:49:59Z</time>
      </trkpt>
      <trkpt lat="45.96977" lon="4.85767">
        <ele>285</ele>
        <time>2017-07-28T09:50:00Z</time>
      </trkpt>
      <trkpt lat="45.96979" lon="4.85759">
        <ele>285</ele>
        <time>2017-07-28T09:50:01Z</time>
      </trkpt>
      <trkpt lat="45.96981" lon="4.85751">
        <ele>285</ele>
        <time>2017-07-28T09:50:02Z</time>
      </trkpt>
      <trkpt lat="45.96982" lon="4.85744">
        <ele>285</ele>
        <time>2017-07-28T09:50:03Z</time>
      </trkpt>
      <trkpt lat="45.96984" lon="4.85737">
        <ele>285</ele>
        <time>2017-07-28T09:50:04Z</time>
      </trkpt>
      <trkpt lat="45.96986" lon="4.85731">
        <ele>285</ele>
        <time>2017-07-28T09:50:05Z</time>
      </trkpt>
      <trkpt lat="45.96988" lon="4.85724">
        <ele>285</ele>
        <time>2017-07-28T09:50:06Z</time>
      </trkpt>
      <trkpt lat="45.9699" lon="4.85717">
        <ele>285</ele>
        <time>2017-07-28T09:50:07Z</time>
      </trkpt>
      <trkpt lat="45.96992" lon="4.8571">
        <ele>285</ele>
        <time>2017-07-28T09:50:08Z</time>
      </trkpt>
      <trkpt lat="45.96994" lon="4.85703">
        <ele>285</ele>
        <time>2017-07-28T09:50:09Z</time>
      </trkpt>
      <trkpt lat="45.96995" lon="4.85696">
        <ele>285</ele>
        <time>2017-07-28T09:50:10Z</time>
      </trkpt>
      <trkpt lat="45.96997" lon="4.85688">
        <ele>285</ele>
        <time>2017-07-28T09:50:11Z</time>
      </trkpt>
      <trkpt lat="45.96999" lon="4.8568">
        <ele>286</ele>
        <time>2017-07-28T09:50:12Z</time>
      </trkpt>
      <trkpt lat="45.97002" lon="4.85672">
        <ele>286</ele>
        <time>2017-07-28T09:50:13Z</time>
      </trkpt>
      <trkpt lat="45.97004" lon="4.85664">
        <ele>285</ele>
        <time>2017-07-28T09:50:14Z</time>
      </trkpt>
      <trkpt lat="45.97006" lon="4.85655">
        <ele>285</ele>
        <time>2017-07-28T09:50:15Z</time>
      </trkpt>
      <trkpt lat="45.97008" lon="4.85647">
        <ele>284</ele>
        <time>2017-07-28T09:50:16Z</time>
      </trkpt>
      <trkpt lat="45.9701" lon="4.85639">
        <ele>284</ele>
        <time>2017-07-28T09:50:17Z</time>
      </trkpt>
      <trkpt lat="45.97013" lon="4.85631">
        <ele>284</ele>
        <time>2017-07-28T09:50:18Z</time>
      </trkpt>
      <trkpt lat="45.97015" lon="4.85622">
        <ele>284</ele>
        <time>2017-07-28T09:50:19Z</time>
      </trkpt>
      <trkpt lat="45.97017" lon="4.85613">
        <ele>284</ele>
        <time>2017-07-28T09:50:20Z</time>
      </trkpt>
      <trkpt lat="45.9702" lon="4.85604">
        <ele>284</ele>
        <time>2017-07-28T09:50:21Z</time>
      </trkpt>
      <trkpt lat="45.97022" lon="4.85594">
        <ele>284</ele>
        <time>2017-07-28T09:50:22Z</time>
      </trkpt>
      <trkpt lat="45.97025" lon="4.85584">
        <ele>284</ele>
        <time>2017-07-28T09:50:23Z</time>
      </trkpt>
      <trkpt lat="45.97028" lon="4.85575">
        <ele>283</ele>
        <time>2017-07-28T09:50:24Z</time>
      </trkpt>
      <trkpt lat="45.97031" lon="4.85565">
        <ele>283</ele>
        <time>2017-07-28T09:50:25Z</time>
      </trkpt>
      <trkpt lat="45.97034" lon="4.85555">
        <ele>283</ele>
        <time>2017-07-28T09:50:26Z</time>
      </trkpt>
      <trkpt lat="45.97036" lon="4.85546">
        <ele>282</ele>
        <time>2017-07-28T09:50:27Z</time>
      </trkpt>
      <trkpt lat="45.97039" lon="4.85537">
        <ele>282</ele>
        <time>2017-07-28T09:50:28Z</time>
      </trkpt>
      <trkpt lat="45.97042" lon="4.85527">
        <ele>282</ele>
        <time>2017-07-28T09:50:29Z</time>
      </trkpt>
      <trkpt lat="45.97044" lon="4.85518">
        <ele>282</ele>
        <time>2017-07-28T09:50:30Z</time>
      </trkpt>
      <trkpt lat="45.97047" lon="4.85509">
        <ele>282</ele>
        <time>2017-07-28T09:50:31Z</time>
      </trkpt>
      <trkpt lat="45.9705" lon="4.85501">
        <ele>282</ele>
        <time>2017-07-28T09:50:32Z</time>
      </trkpt>
      <trkpt lat="45.97053" lon="4.85493">
        <ele>281</ele>
        <time>2017-07-28T09:50:33Z</time>
      </trkpt>
      <trkpt lat="45.97055" lon="4.85484">
        <ele>281</ele>
        <time>2017-07-28T09:50:34Z</time>
      </trkpt>
      <trkpt lat="45.97058" lon="4.85476">
        <ele>281</ele>
        <time>2017-07-28T09:50:35Z</time>
      </trkpt>
      <trkpt lat="45.97061" lon="4.85468">
        <ele>281</ele>
        <time>2017-07-28T09:50:36Z</time>
      </trkpt>
      <trkpt lat="45.97064" lon="4.8546">
        <ele>281</ele>
        <time>2017-07-28T09:50:37Z</time>
      </trkpt>
      <trkpt lat="45.97067" lon="4.85452">
        <ele>281</ele>
        <time>2017-07-28T09:50:38Z</time>
      </trkpt>
      <trkpt lat="45.9707" lon="4.85443">
        <ele>281</ele>
        <time>2017-07-28T09:50:39Z</time>
      </trkpt>
      <trkpt lat="45.97072" lon="4.85435">
        <ele>281</ele>
        <time>2017-07-28T09:50:40Z</time>
      </trkpt>
      <trkpt lat="45.97075" lon="4.85426">
        <ele>281</ele>
        <time>2017-07-28T09:50:41Z</time>
      </trkpt>
      <trkpt lat="45.97077" lon="4.85418">
        <ele>280</ele>
        <time>2017-07-28T09:50:42Z</time>
      </trkpt>
      <trkpt lat="45.9708" lon="4.8541">
        <ele>280</ele>
        <time>2017-07-28T09:50:43Z</time>
      </trkpt>
      <trkpt lat="45.97082" lon="4.85402">
        <ele>281</ele>
        <time>2017-07-28T09:50:44Z</time>
      </trkpt>
      <trkpt lat="45.97084" lon="4.85395">
        <ele>280</ele>
        <time>2017-07-28T09:50:45Z</time>
      </trkpt>
      <trkpt lat="45.97087" lon="4.85387">
        <ele>280</ele>
        <time>2017-07-28T09:50:46Z</time>
      </trkpt>
      <trkpt lat="45.97089" lon="4.8538">
        <ele>280</ele>
        <time>2017-07-28T09:50:47Z</time>
      </trkpt>
      <trkpt lat="45.97091" lon="4.85373">
        <ele>280</ele>
        <time>2017-07-28T09:50:48Z</time>
      </trkpt>
      <trkpt lat="45.97094" lon="4.85366">
        <ele>280</ele>
        <time>2017-07-28T09:50:49Z</time>
      </trkpt>
      <trkpt lat="45.97096" lon="4.85358">
        <ele>280</ele>
        <time>2017-07-28T09:50:50Z</time>
      </trkpt>
      <trkpt lat="45.97098" lon="4.85351">
        <ele>280</ele>
        <time>2017-07-28T09:50:51Z</time>
      </trkpt>
      <trkpt lat="45.97101" lon="4.85343">
        <ele>280</ele>
        <time>2017-07-28T09:50:52Z</time>
      </trkpt>
      <trkpt lat="45.97104" lon="4.85335">
        <ele>280</ele>
        <time>2017-07-28T09:50:53Z</time>
      </trkpt>
      <trkpt lat="45.97107" lon="4.85327">
        <ele>280</ele>
        <time>2017-07-28T09:50:54Z</time>
      </trkpt>
      <trkpt lat="45.9711" lon="4.85318">
        <ele>280</ele>
        <time>2017-07-28T09:50:55Z</time>
      </trkpt>
      <trkpt lat="45.97113" lon="4.8531">
        <ele>280</ele>
        <time>2017-07-28T09:50:56Z</time>
      </trkpt>
      <trkpt lat="45.97117" lon="4.85303">
        <ele>280</ele>
        <time>2017-07-28T09:50:57Z</time>
      </trkpt>
      <trkpt lat="45.9712" lon="4.85295">
        <ele>280</ele>
        <time>2017-07-28T09:50:58Z</time>
      </trkpt>
      <trkpt lat="45.97124" lon="4.85288">
        <ele>280</ele>
        <time>2017-07-28T09:50:59Z</time>
      </trkpt>
      <trkpt lat="45.97127" lon="4.85282">
        <ele>279</ele>
        <time>2017-07-28T09:51:00Z</time>
      </trkpt>
      <trkpt lat="45.9713" lon="4.85275">
        <ele>279</ele>
        <time>2017-07-28T09:51:01Z</time>
      </trkpt>
      <trkpt lat="45.97133" lon="4.85269">
        <ele>279</ele>
        <time>2017-07-28T09:51:02Z</time>
      </trkpt>
      <trkpt lat="45.97136" lon="4.85263">
        <ele>279</ele>
        <time>2017-07-28T09:51:03Z</time>
      </trkpt>
      <trkpt lat="45.97139" lon="4.85256">
        <ele>279</ele>
        <time>2017-07-28T09:51:04Z</time>
      </trkpt>
      <trkpt lat="45.97142" lon="4.8525">
        <ele>279</ele>
        <time>2017-07-28T09:51:05Z</time>
      </trkpt>
      <trkpt lat="45.97145" lon="4.85245">
        <ele>279</ele>
        <time>2017-07-28T09:51:06Z</time>
      </trkpt>
      <trkpt lat="45.97149" lon="4.85239">
        <ele>279</ele>
        <time>2017-07-28T09:51:07Z</time>
      </trkpt>
      <trkpt lat="45.97152" lon="4.85233">
        <ele>279</ele>
        <time>2017-07-28T09:51:08Z</time>
      </trkpt>
      <trkpt lat="45.97155" lon="4.85227">
        <ele>279</ele>
        <time>2017-07-28T09:51:09Z</time>
      </trkpt>
      <trkpt lat="45.97158" lon="4.8522">
        <ele>279</ele>
        <time>2017-07-28T09:51:10Z</time>
      </trkpt>
      <trkpt lat="45.97162" lon="4.85213">
        <ele>279</ele>
        <time>2017-07-28T09:51:11Z</time>
      </trkpt>
      <trkpt lat="45.97165" lon="4.85206">
        <ele>279</ele>
        <time>2017-07-28T09:51:12Z</time>
      </trkpt>
      <trkpt lat="45.97168" lon="4.85198">
        <ele>278</ele>
        <time>2017-07-28T09:51:13Z</time>
      </trkpt>
      <trkpt lat="45.97172" lon="4.85191">
        <ele>278</ele>
        <time>2017-07-28T09:51:14Z</time>
      </trkpt>
      <trkpt lat="45.97176" lon="4.85183">
        <ele>278</ele>
        <time>2017-07-28T09:51:15Z</time>
      </trkpt>
      <trkpt lat="45.9718" lon="4.85175">
        <ele>278</ele>
        <time>2017-07-28T09:51:16Z</time>
      </trkpt>
      <trkpt lat="45.97184" lon="4.85167">
        <ele>278</ele>
        <time>2017-07-28T09:51:17Z</time>
      </trkpt>
      <trkpt lat="45.97188" lon="4.85159">
        <ele>278</ele>
        <time>2017-07-28T09:51:18Z</time>
      </trkpt>
      <trkpt lat="45.97191" lon="4.85151">
        <ele>278</ele>
        <time>2017-07-28T09:51:19Z</time>
      </trkpt>
      <trkpt lat="45.97194" lon="4.85144">
        <ele>278</ele>
        <time>2017-07-28T09:51:20Z</time>
      </trkpt>
      <trkpt lat="45.97198" lon="4.85137">
        <ele>278</ele>
        <time>2017-07-28T09:51:21Z</time>
      </trkpt>
      <trkpt lat="45.97201" lon="4.8513">
        <ele>278</ele>
        <time>2017-07-28T09:51:22Z</time>
      </trkpt>
      <trkpt lat="45.97204" lon="4.85123">
        <ele>278</ele>
        <time>2017-07-28T09:51:23Z</time>
      </trkpt>
      <trkpt lat="45.97207" lon="4.85117">
        <ele>278</ele>
        <time>2017-07-28T09:51:24Z</time>
      </trkpt>
      <trkpt lat="45.9721" lon="4.8511">
        <ele>278</ele>
        <time>2017-07-28T09:51:25Z</time>
      </trkpt>
      <trkpt lat="45.97213" lon="4.85103">
        <ele>278</ele>
        <time>2017-07-28T09:51:26Z</time>
      </trkpt>
      <trkpt lat="45.97216" lon="4.85096">
        <ele>278</ele>
        <time>2017-07-28T09:51:27Z</time>
      </trkpt>
      <trkpt lat="45.97219" lon="4.85089">
        <ele>278</ele>
        <time>2017-07-28T09:51:28Z</time>
      </trkpt>
      <trkpt lat="45.97222" lon="4.85082">
        <ele>278</ele>
        <time>2017-07-28T09:51:29Z</time>
      </trkpt>
      <trkpt lat="45.97226" lon="4.85074">
        <ele>278</ele>
        <time>2017-07-28T09:51:30Z</time>
      </trkpt>
      <trkpt lat="45.97229" lon="4.85068">
        <ele>278</ele>
        <time>2017-07-28T09:51:31Z</time>
      </trkpt>
      <trkpt lat="45.97232" lon="4.85061">
        <ele>279</ele>
        <time>2017-07-28T09:51:32Z</time>
      </trkpt>
      <trkpt lat="45.97235" lon="4.85055">
        <ele>279</ele>
        <time>2017-07-28T09:51:33Z</time>
      </trkpt>
      <trkpt lat="45.97238" lon="4.85049">
        <ele>279</ele>
        <time>2017-07-28T09:51:34Z</time>
      </trkpt>
      <trkpt lat="45.9724" lon="4.85044">
        <ele>279</ele>
        <time>2017-07-28T09:51:35Z</time>
      </trkpt>
      <trkpt lat="45.97243" lon="4.85038">
        <ele>279</ele>
        <time>2017-07-28T09:51:36Z</time>
      </trkpt>
      <trkpt lat="45.97246" lon="4.85031">
        <ele>279</ele>
        <time>2017-07-28T09:51:37Z</time>
      </trkpt>
      <trkpt lat="45.97249" lon="4.85024">
        <ele>279</ele>
        <time>2017-07-28T09:51:38Z</time>
      </trkpt>
      <trkpt lat="45.97252" lon="4.85018">
        <ele>279</ele>
        <time>2017-07-28T09:51:39Z</time>
      </trkpt>
      <trkpt lat="45.97256" lon="4.85011">
        <ele>279</ele>
        <time>2017-07-28T09:51:40Z</time>
      </trkpt>
      <trkpt lat="45.9726" lon="4.85003">
        <ele>279</ele>
        <time>2017-07-28T09:51:41Z</time>
      </trkpt>
      <trkpt lat="45.97263" lon="4.84996">
        <ele>279</ele>
        <time>2017-07-28T09:51:42Z</time>
      </trkpt>
      <trkpt lat="45.97266" lon="4.84988">
        <ele>279</ele>
        <time>2017-07-28T09:51:43Z</time>
      </trkpt>
      <trkpt lat="45.9727" lon="4.84982">
        <ele>279</ele>
        <time>2017-07-28T09:51:44Z</time>
      </trkpt>
      <trkpt lat="45.97273" lon="4.84975">
        <ele>278</ele>
        <time>2017-07-28T09:51:45Z</time>
      </trkpt>
      <trkpt lat="45.97276" lon="4.84968">
        <ele>278</ele>
        <time>2017-07-28T09:51:46Z</time>
      </trkpt>
      <trkpt lat="45.97279" lon="4.84962">
        <ele>278</ele>
        <time>2017-07-28T09:51:47Z</time>
      </trkpt>
      <trkpt lat="45.97282" lon="4.84955">
        <ele>278</ele>
        <time>2017-07-28T09:51:48Z</time>
      </trkpt>
      <trkpt lat="45.97285" lon="4.84948">
        <ele>278</ele>
        <time>2017-07-28T09:51:49Z</time>
      </trkpt>
      <trkpt lat="45.97288" lon="4.84941">
        <ele>278</ele>
        <time>2017-07-28T09:51:50Z</time>
      </trkpt>
      <trkpt lat="45.97292" lon="4.84934">
        <ele>278</ele>
        <time>2017-07-28T09:51:51Z</time>
      </trkpt>
      <trkpt lat="45.97296" lon="4.84927">
        <ele>278</ele>
        <time>2017-07-28T09:51:52Z</time>
      </trkpt>
      <trkpt lat="45.973" lon="4.84921">
        <ele>278</ele>
        <time>2017-07-28T09:51:53Z</time>
      </trkpt>
      <trkpt lat="45.97303" lon="4.84916">
        <ele>278</ele>
        <time>2017-07-28T09:51:54Z</time>
      </trkpt>
      <trkpt lat="45.97307" lon="4.84911">
        <ele>278</ele>
        <time>2017-07-28T09:51:55Z</time>
      </trkpt>
      <trkpt lat="45.9731" lon="4.84906">
        <ele>278</ele>
        <time>2017-07-28T09:51:56Z</time>
      </trkpt>
      <trkpt lat="45.97314" lon="4.84901">
        <ele>278</ele>
        <time>2017-07-28T09:51:57Z</time>
      </trkpt>
      <trkpt lat="45.97317" lon="4.84895">
        <ele>278</ele>
        <time>2017-07-28T09:51:58Z</time>
      </trkpt>
      <trkpt lat="45.9732" lon="4.8489">
        <ele>278</ele>
        <time>2017-07-28T09:51:59Z</time>
      </trkpt>
      <trkpt lat="45.97323" lon="4.84885">
        <ele>278</ele>
        <time>2017-07-28T09:52:00Z</time>
      </trkpt>
      <trkpt lat="45.97326" lon="4.84879">
        <ele>278</ele>
        <time>2017-07-28T09:52:01Z</time>
      </trkpt>
      <trkpt lat="45.97329" lon="4.84874">
        <ele>278</ele>
        <time>2017-07-28T09:52:02Z</time>
      </trkpt>
      <trkpt lat="45.97332" lon="4.84868">
        <ele>278</ele>
        <time>2017-07-28T09:52:03Z</time>
      </trkpt>
      <trkpt lat="45.97335" lon="4.84862">
        <ele>277</ele>
        <time>2017-07-28T09:52:04Z</time>
      </trkpt>
      <trkpt lat="45.97338" lon="4.84855">
        <ele>277</ele>
        <time>2017-07-28T09:52:05Z</time>
      </trkpt>
      <trkpt lat="45.97342" lon="4.84849">
        <ele>277</ele>
        <time>2017-07-28T09:52:06Z</time>
      </trkpt>
      <trkpt lat="45.97345" lon="4.84842">
        <ele>277</ele>
        <time>2017-07-28T09:52:07Z</time>
      </trkpt>
      <trkpt lat="45.97348" lon="4.84834">
        <ele>277</ele>
        <time>2017-07-28T09:52:08Z</time>
      </trkpt>
      <trkpt lat="45.97351" lon="4.84827">
        <ele>278</ele>
        <time>2017-07-28T09:52:09Z</time>
      </trkpt>
      <trkpt lat="45.97354" lon="4.8482">
        <ele>278</ele>
        <time>2017-07-28T09:52:10Z</time>
      </trkpt>
      <trkpt lat="45.97357" lon="4.84813">
        <ele>278</ele>
        <time>2017-07-28T09:52:11Z</time>
      </trkpt>
      <trkpt lat="45.97361" lon="4.84802">
        <ele>278</ele>
        <time>2017-07-28T09:52:13Z</time>
      </trkpt>
      <trkpt lat="45.97363" lon="4.84797">
        <ele>278</ele>
        <time>2017-07-28T09:52:14Z</time>
      </trkpt>
      <trkpt lat="45.97364" lon="4.8479">
        <ele>278</ele>
        <time>2017-07-28T09:52:15Z</time>
      </trkpt>
      <trkpt lat="45.97367" lon="4.84784">
        <ele>278</ele>
        <time>2017-07-28T09:52:16Z</time>
      </trkpt>
      <trkpt lat="45.9737" lon="4.84778">
        <ele>278</ele>
        <time>2017-07-28T09:52:17Z</time>
      </trkpt>
      <trkpt lat="45.97372" lon="4.84772">
        <ele>278</ele>
        <time>2017-07-28T09:52:18Z</time>
      </trkpt>
      <trkpt lat="45.97375" lon="4.84765">
        <ele>278</ele>
        <time>2017-07-28T09:52:19Z</time>
      </trkpt>
      <trkpt lat="45.97377" lon="4.84758">
        <ele>278</ele>
        <time>2017-07-28T09:52:20Z</time>
      </trkpt>
      <trkpt lat="45.9738" lon="4.84751">
        <ele>278</ele>
        <time>2017-07-28T09:52:21Z</time>
      </trkpt>
      <trkpt lat="45.97384" lon="4.84745">
        <ele>278</ele>
        <time>2017-07-28T09:52:22Z</time>
      </trkpt>
      <trkpt lat="45.97387" lon="4.84739">
        <ele>278</ele>
        <time>2017-07-28T09:52:23Z</time>
      </trkpt>
      <trkpt lat="45.97391" lon="4.84734">
        <ele>278</ele>
        <time>2017-07-28T09:52:24Z</time>
      </trkpt>
      <trkpt lat="45.97395" lon="4.84729">
        <ele>278</ele>
        <time>2017-07-28T09:52:25Z</time>
      </trkpt>
      <trkpt lat="45.97399" lon="4.84725">
        <ele>278</ele>
        <time>2017-07-28T09:52:26Z</time>
      </trkpt>
      <trkpt lat="45.97404" lon="4.84722">
        <ele>278</ele>
        <time>2017-07-28T09:52:27Z</time>
      </trkpt>
      <trkpt lat="45.97409" lon="4.84719">
        <ele>278</ele>
        <time>2017-07-28T09:52:28Z</time>
      </trkpt>
      <trkpt lat="45.97414" lon="4.84716">
        <ele>278</ele>
        <time>2017-07-28T09:52:29Z</time>
      </trkpt>
      <trkpt lat="45.97419" lon="4.84713">
        <ele>276</ele>
        <time>2017-07-28T09:52:30Z</time>
      </trkpt>
      <trkpt lat="45.97423" lon="4.8471">
        <ele>276</ele>
        <time>2017-07-28T09:52:31Z</time>
      </trkpt>
      <trkpt lat="45.97427" lon="4.84707">
        <ele>276</ele>
        <time>2017-07-28T09:52:32Z</time>
      </trkpt>
      <trkpt lat="45.97432" lon="4.84704">
        <ele>276</ele>
        <time>2017-07-28T09:52:33Z</time>
      </trkpt>
      <trkpt lat="45.97436" lon="4.84701">
        <ele>276</ele>
        <time>2017-07-28T09:52:34Z</time>
      </trkpt>
      <trkpt lat="45.97441" lon="4.84697">
        <ele>276</ele>
        <time>2017-07-28T09:52:35Z</time>
      </trkpt>
      <trkpt lat="45.97446" lon="4.84694">
        <ele>276</ele>
        <time>2017-07-28T09:52:36Z</time>
      </trkpt>
      <trkpt lat="45.9745" lon="4.8469">
        <ele>276</ele>
        <time>2017-07-28T09:52:37Z</time>
      </trkpt>
      <trkpt lat="45.97455" lon="4.84686">
        <ele>276</ele>
        <time>2017-07-28T09:52:38Z</time>
      </trkpt>
      <trkpt lat="45.9746" lon="4.84683">
        <ele>276</ele>
        <time>2017-07-28T09:52:39Z</time>
      </trkpt>
      <trkpt lat="45.97464" lon="4.84679">
        <ele>276</ele>
        <time>2017-07-28T09:52:40Z</time>
      </trkpt>
      <trkpt lat="45.97469" lon="4.84676">
        <ele>276</ele>
        <time>2017-07-28T09:52:41Z</time>
      </trkpt>
      <trkpt lat="45.97473" lon="4.84673">
        <ele>276</ele>
        <time>2017-07-28T09:52:42Z</time>
      </trkpt>
      <trkpt lat="45.97481" lon="4.84667">
        <ele>276</ele>
        <time>2017-07-28T09:52:44Z</time>
      </trkpt>
      <trkpt lat="45.97485" lon="4.84665">
        <ele>275</ele>
        <time>2017-07-28T09:52:45Z</time>
      </trkpt>
      <trkpt lat="45.97489" lon="4.84662">
        <ele>275</ele>
        <time>2017-07-28T09:52:46Z</time>
      </trkpt>
      <trkpt lat="45.97494" lon="4.84659">
        <ele>275</ele>
        <time>2017-07-28T09:52:47Z</time>
      </trkpt>
      <trkpt lat="45.97499" lon="4.84657">
        <ele>275</ele>
        <time>2017-07-28T09:52:48Z</time>
      </trkpt>
      <trkpt lat="45.97504" lon="4.84653">
        <ele>275</ele>
        <time>2017-07-28T09:52:49Z</time>
      </trkpt>
      <trkpt lat="45.97509" lon="4.84649">
        <ele>275</ele>
        <time>2017-07-28T09:52:50Z</time>
      </trkpt>
      <trkpt lat="45.97515" lon="4.84645">
        <ele>275</ele>
        <time>2017-07-28T09:52:51Z</time>
      </trkpt>
      <trkpt lat="45.9752" lon="4.84641">
        <ele>275</ele>
        <time>2017-07-28T09:52:52Z</time>
      </trkpt>
      <trkpt lat="45.97526" lon="4.84637">
        <ele>275</ele>
        <time>2017-07-28T09:52:53Z</time>
      </trkpt>
      <trkpt lat="45.97531" lon="4.84633">
        <ele>275</ele>
        <time>2017-07-28T09:52:54Z</time>
      </trkpt>
      <trkpt lat="45.97535" lon="4.84629">
        <ele>275</ele>
        <time>2017-07-28T09:52:55Z</time>
      </trkpt>
      <trkpt lat="45.9754" lon="4.84625">
        <ele>275</ele>
        <time>2017-07-28T09:52:56Z</time>
      </trkpt>
      <trkpt lat="45.97545" lon="4.84621">
        <ele>274</ele>
        <time>2017-07-28T09:52:57Z</time>
      </trkpt>
      <trkpt lat="45.97549" lon="4.84617">
        <ele>274</ele>
        <time>2017-07-28T09:52:58Z</time>
      </trkpt>
      <trkpt lat="45.97553" lon="4.84614">
        <ele>274</ele>
        <time>2017-07-28T09:52:59Z</time>
      </trkpt>
      <trkpt lat="45.97557" lon="4.84609">
        <ele>274</ele>
        <time>2017-07-28T09:53:00Z</time>
      </trkpt>
      <trkpt lat="45.97561" lon="4.84606">
        <ele>274</ele>
        <time>2017-07-28T09:53:01Z</time>
      </trkpt>
      <trkpt lat="45.97565" lon="4.84602">
        <ele>274</ele>
        <time>2017-07-28T09:53:02Z</time>
      </trkpt>
      <trkpt lat="45.97569" lon="4.84597">
        <ele>274</ele>
        <time>2017-07-28T09:53:03Z</time>
      </trkpt>
      <trkpt lat="45.97573" lon="4.84593">
        <ele>274</ele>
        <time>2017-07-28T09:53:04Z</time>
      </trkpt>
      <trkpt lat="45.97577" lon="4.84588">
        <ele>274</ele>
        <time>2017-07-28T09:53:05Z</time>
      </trkpt>
      <trkpt lat="45.97581" lon="4.84583">
        <ele>274</ele>
        <time>2017-07-28T09:53:06Z</time>
      </trkpt>
      <trkpt lat="45.97586" lon="4.84579">
        <ele>274</ele>
        <time>2017-07-28T09:53:07Z</time>
      </trkpt>
      <trkpt lat="45.9759" lon="4.84574">
        <ele>274</ele>
        <time>2017-07-28T09:53:08Z</time>
      </trkpt>
      <trkpt lat="45.97594" lon="4.84568">
        <ele>274</ele>
        <time>2017-07-28T09:53:09Z</time>
      </trkpt>
      <trkpt lat="45.97598" lon="4.84563">
        <ele>275</ele>
        <time>2017-07-28T09:53:10Z</time>
      </trkpt>
      <trkpt lat="45.97602" lon="4.84558">
        <ele>275</ele>
        <time>2017-07-28T09:53:11Z</time>
      </trkpt>
      <trkpt lat="45.97606" lon="4.84553">
        <ele>275</ele>
        <time>2017-07-28T09:53:12Z</time>
      </trkpt>
      <trkpt lat="45.9761" lon="4.84548">
        <ele>275</ele>
        <time>2017-07-28T09:53:13Z</time>
      </trkpt>
      <trkpt lat="45.97614" lon="4.84543">
        <ele>275</ele>
        <time>2017-07-28T09:53:14Z</time>
      </trkpt>
      <trkpt lat="45.97617" lon="4.84539">
        <ele>275</ele>
        <time>2017-07-28T09:53:15Z</time>
      </trkpt>
      <trkpt lat="45.97621" lon="4.84534">
        <ele>275</ele>
        <time>2017-07-28T09:53:16Z</time>
      </trkpt>
      <trkpt lat="45.97624" lon="4.8453">
        <ele>275</ele>
        <time>2017-07-28T09:53:17Z</time>
      </trkpt>
      <trkpt lat="45.97628" lon="4.84525">
        <ele>275</ele>
        <time>2017-07-28T09:53:18Z</time>
      </trkpt>
      <trkpt lat="45.97632" lon="4.8452">
        <ele>275</ele>
        <time>2017-07-28T09:53:19Z</time>
      </trkpt>
      <trkpt lat="45.97635" lon="4.84515">
        <ele>275</ele>
        <time>2017-07-28T09:53:20Z</time>
      </trkpt>
      <trkpt lat="45.97639" lon="4.8451">
        <ele>275</ele>
        <time>2017-07-28T09:53:21Z</time>
      </trkpt>
      <trkpt lat="45.97643" lon="4.84505">
        <ele>275</ele>
        <time>2017-07-28T09:53:22Z</time>
      </trkpt>
      <trkpt lat="45.97647" lon="4.84501">
        <ele>275</ele>
        <time>2017-07-28T09:53:23Z</time>
      </trkpt>
      <trkpt lat="45.97652" lon="4.84496">
        <ele>275</ele>
        <time>2017-07-28T09:53:24Z</time>
      </trkpt>
      <trkpt lat="45.97656" lon="4.84492">
        <ele>275</ele>
        <time>2017-07-28T09:53:25Z</time>
      </trkpt>
      <trkpt lat="45.97661" lon="4.84488">
        <ele>275</ele>
        <time>2017-07-28T09:53:26Z</time>
      </trkpt>
      <trkpt lat="45.97666" lon="4.84484">
        <ele>275</ele>
        <time>2017-07-28T09:53:27Z</time>
      </trkpt>
      <trkpt lat="45.9767" lon="4.8448">
        <ele>276</ele>
        <time>2017-07-28T09:53:28Z</time>
      </trkpt>
      <trkpt lat="45.97675" lon="4.84476">
        <ele>276</ele>
        <time>2017-07-28T09:53:29Z</time>
      </trkpt>
      <trkpt lat="45.97679" lon="4.84473">
        <ele>276</ele>
        <time>2017-07-28T09:53:30Z</time>
      </trkpt>
      <trkpt lat="45.97684" lon="4.8447">
        <ele>277</ele>
        <time>2017-07-28T09:53:31Z</time>
      </trkpt>
      <trkpt lat="45.97688" lon="4.84467">
        <ele>277</ele>
        <time>2017-07-28T09:53:32Z</time>
      </trkpt>
      <trkpt lat="45.97692" lon="4.84465">
        <ele>277</ele>
        <time>2017-07-28T09:53:33Z</time>
      </trkpt>
      <trkpt lat="45.97697" lon="4.84462">
        <ele>277</ele>
        <time>2017-07-28T09:53:34Z</time>
      </trkpt>
      <trkpt lat="45.97702" lon="4.8446">
        <ele>277</ele>
        <time>2017-07-28T09:53:35Z</time>
      </trkpt>
      <trkpt lat="45.97706" lon="4.84457">
        <ele>277</ele>
        <time>2017-07-28T09:53:36Z</time>
      </trkpt>
      <trkpt lat="45.97711" lon="4.84455">
        <ele>277</ele>
        <time>2017-07-28T09:53:37Z</time>
      </trkpt>
      <trkpt lat="45.97715" lon="4.84453">
        <ele>277</ele>
        <time>2017-07-28T09:53:38Z</time>
      </trkpt>
      <trkpt lat="45.9772" lon="4.8445">
        <ele>277</ele>
        <time>2017-07-28T09:53:39Z</time>
      </trkpt>
      <trkpt lat="45.97725" lon="4.84448">
        <ele>277</ele>
        <time>2017-07-28T09:53:40Z</time>
      </trkpt>
      <trkpt lat="45.9773" lon="4.84447">
        <ele>277</ele>
        <time>2017-07-28T09:53:41Z</time>
      </trkpt>
      <trkpt lat="45.97735" lon="4.84445">
        <ele>277</ele>
        <time>2017-07-28T09:53:42Z</time>
      </trkpt>
      <trkpt lat="45.9774" lon="4.84443">
        <ele>277</ele>
        <time>2017-07-28T09:53:43Z</time>
      </trkpt>
      <trkpt lat="45.97745" lon="4.84441">
        <ele>277</ele>
        <time>2017-07-28T09:53:44Z</time>
      </trkpt>
      <trkpt lat="45.97749" lon="4.84439">
        <ele>277</ele>
        <time>2017-07-28T09:53:45Z</time>
      </trkpt>
      <trkpt lat="45.97754" lon="4.84437">
        <ele>277</ele>
        <time>2017-07-28T09:53:46Z</time>
      </trkpt>
      <trkpt lat="45.97759" lon="4.84436">
        <ele>277</ele>
        <time>2017-07-28T09:53:47Z</time>
      </trkpt>
      <trkpt lat="45.97763" lon="4.84434">
        <ele>277</ele>
        <time>2017-07-28T09:53:48Z</time>
      </trkpt>
      <trkpt lat="45.97768" lon="4.84432">
        <ele>277</ele>
        <time>2017-07-28T09:53:49Z</time>
      </trkpt>
      <trkpt lat="45.97772" lon="4.84431">
        <ele>277</ele>
        <time>2017-07-28T09:53:50Z</time>
      </trkpt>
      <trkpt lat="45.97777" lon="4.84428">
        <ele>277</ele>
        <time>2017-07-28T09:53:51Z</time>
      </trkpt>
      <trkpt lat="45.97782" lon="4.84427">
        <ele>277</ele>
        <time>2017-07-28T09:53:52Z</time>
      </trkpt>
      <trkpt lat="45.97787" lon="4.84425">
        <ele>277</ele>
        <time>2017-07-28T09:53:53Z</time>
      </trkpt>
      <trkpt lat="45.97792" lon="4.84422">
        <ele>277</ele>
        <time>2017-07-28T09:53:54Z</time>
      </trkpt>
      <trkpt lat="45.97797" lon="4.8442">
        <ele>277</ele>
        <time>2017-07-28T09:53:55Z</time>
      </trkpt>
      <trkpt lat="45.97802" lon="4.84418">
        <ele>277</ele>
        <time>2017-07-28T09:53:56Z</time>
      </trkpt>
      <trkpt lat="45.97806" lon="4.84416">
        <ele>277</ele>
        <time>2017-07-28T09:53:57Z</time>
      </trkpt>
      <trkpt lat="45.97814" lon="4.84411">
        <ele>276</ele>
        <time>2017-07-28T09:53:59Z</time>
      </trkpt>
      <trkpt lat="45.97818" lon="4.84408">
        <ele>276</ele>
        <time>2017-07-28T09:54:00Z</time>
      </trkpt>
      <trkpt lat="45.97826" lon="4.84403">
        <ele>276</ele>
        <time>2017-07-28T09:54:02Z</time>
      </trkpt>
      <trkpt lat="45.9783" lon="4.844">
        <ele>276</ele>
        <time>2017-07-28T09:54:03Z</time>
      </trkpt>
      <trkpt lat="45.97835" lon="4.84396">
        <ele>276</ele>
        <time>2017-07-28T09:54:04Z</time>
      </trkpt>
      <trkpt lat="45.97839" lon="4.84392">
        <ele>276</ele>
        <time>2017-07-28T09:54:05Z</time>
      </trkpt>
      <trkpt lat="45.97844" lon="4.84388">
        <ele>276</ele>
        <time>2017-07-28T09:54:06Z</time>
      </trkpt>
      <trkpt lat="45.97849" lon="4.84383">
        <ele>276</ele>
        <time>2017-07-28T09:54:07Z</time>
      </trkpt>
      <trkpt lat="45.97853" lon="4.84378">
        <ele>276</ele>
        <time>2017-07-28T09:54:08Z</time>
      </trkpt>
      <trkpt lat="45.97857" lon="4.84373">
        <ele>276</ele>
        <time>2017-07-28T09:54:09Z</time>
      </trkpt>
      <trkpt lat="45.97861" lon="4.84368">
        <ele>276</ele>
        <time>2017-07-28T09:54:10Z</time>
      </trkpt>
      <trkpt lat="45.97865" lon="4.84362">
        <ele>276</ele>
        <time>2017-07-28T09:54:11Z</time>
      </trkpt>
      <trkpt lat="45.97868" lon="4.84357">
        <ele>276</ele>
        <time>2017-07-28T09:54:12Z</time>
      </trkpt>
      <trkpt lat="45.97871" lon="4.84352">
        <ele>276</ele>
        <time>2017-07-28T09:54:13Z</time>
      </trkpt>
      <trkpt lat="45.97874" lon="4.84346">
        <ele>276</ele>
        <time>2017-07-28T09:54:14Z</time>
      </trkpt>
      <trkpt lat="45.97877" lon="4.84341">
        <ele>275</ele>
        <time>2017-07-28T09:54:15Z</time>
      </trkpt>
      <trkpt lat="45.97884" lon="4.84332">
        <ele>275</ele>
        <time>2017-07-28T09:54:17Z</time>
      </trkpt>
      <trkpt lat="45.97887" lon="4.84327">
        <ele>275</ele>
        <time>2017-07-28T09:54:18Z</time>
      </trkpt>
      <trkpt lat="45.9789" lon="4.84321">
        <ele>275</ele>
        <time>2017-07-28T09:54:19Z</time>
      </trkpt>
      <trkpt lat="45.97893" lon="4.84316">
        <ele>275</ele>
        <time>2017-07-28T09:54:20Z</time>
      </trkpt>
      <trkpt lat="45.97897" lon="4.84311">
        <ele>275</ele>
        <time>2017-07-28T09:54:21Z</time>
      </trkpt>
      <trkpt lat="45.979" lon="4.84306">
        <ele>275</ele>
        <time>2017-07-28T09:54:22Z</time>
      </trkpt>
      <trkpt lat="45.97904" lon="4.84301">
        <ele>275</ele>
        <time>2017-07-28T09:54:23Z</time>
      </trkpt>
      <trkpt lat="45.97908" lon="4.84296">
        <ele>275</ele>
        <time>2017-07-28T09:54:24Z</time>
      </trkpt>
      <trkpt lat="45.97911" lon="4.84291">
        <ele>275</ele>
        <time>2017-07-28T09:54:25Z</time>
      </trkpt>
      <trkpt lat="45.97915" lon="4.84286">
        <ele>275</ele>
        <time>2017-07-28T09:54:26Z</time>
      </trkpt>
      <trkpt lat="45.97918" lon="4.84282">
        <ele>275</ele>
        <time>2017-07-28T09:54:27Z</time>
      </trkpt>
      <trkpt lat="45.97922" lon="4.84277">
        <ele>275</ele>
        <time>2017-07-28T09:54:28Z</time>
      </trkpt>
      <trkpt lat="45.97928" lon="4.8427">
        <ele>275</ele>
        <time>2017-07-28T09:54:30Z</time>
      </trkpt>
      <trkpt lat="45.97932" lon="4.84266">
        <ele>275</ele>
        <time>2017-07-28T09:54:31Z</time>
      </trkpt>
      <trkpt lat="45.97935" lon="4.84262">
        <ele>275</ele>
        <time>2017-07-28T09:54:32Z</time>
      </trkpt>
      <trkpt lat="45.97939" lon="4.84259">
        <ele>275</ele>
        <time>2017-07-28T09:54:33Z</time>
      </trkpt>
      <trkpt lat="45.97947" lon="4.84252">
        <ele>275</ele>
        <time>2017-07-28T09:54:35Z</time>
      </trkpt>
      <trkpt lat="45.9795" lon="4.84248">
        <ele>275</ele>
        <time>2017-07-28T09:54:36Z</time>
      </trkpt>
      <trkpt lat="45.97957" lon="4.84241">
        <ele>275</ele>
        <time>2017-07-28T09:54:38Z</time>
      </trkpt>
      <trkpt lat="45.97961" lon="4.84238">
        <ele>274</ele>
        <time>2017-07-28T09:54:39Z</time>
      </trkpt>
      <trkpt lat="45.97965" lon="4.84234">
        <ele>274</ele>
        <time>2017-07-28T09:54:40Z</time>
      </trkpt>
      <trkpt lat="45.97969" lon="4.8423">
        <ele>274</ele>
        <time>2017-07-28T09:54:41Z</time>
      </trkpt>
      <trkpt lat="45.97973" lon="4.84226">
        <ele>274</ele>
        <time>2017-07-28T09:54:42Z</time>
      </trkpt>
      <trkpt lat="45.97978" lon="4.84223">
        <ele>274</ele>
        <time>2017-07-28T09:54:43Z</time>
      </trkpt>
      <trkpt lat="45.97981" lon="4.84219">
        <ele>274</ele>
        <time>2017-07-28T09:54:44Z</time>
      </trkpt>
      <trkpt lat="45.97985" lon="4.84215">
        <ele>274</ele>
        <time>2017-07-28T09:54:45Z</time>
      </trkpt>
      <trkpt lat="45.97988" lon="4.84211">
        <ele>274</ele>
        <time>2017-07-28T09:54:46Z</time>
      </trkpt>
      <trkpt lat="45.97992" lon="4.84207">
        <ele>274</ele>
        <time>2017-07-28T09:54:47Z</time>
      </trkpt>
      <trkpt lat="45.97999" lon="4.842">
        <ele>274</ele>
        <time>2017-07-28T09:54:49Z</time>
      </trkpt>
      <trkpt lat="45.98002" lon="4.84197">
        <ele>274</ele>
        <time>2017-07-28T09:54:50Z</time>
      </trkpt>
      <trkpt lat="45.9801" lon="4.8419">
        <ele>274</ele>
        <time>2017-07-28T09:54:52Z</time>
      </trkpt>
      <trkpt lat="45.98013" lon="4.84186">
        <ele>274</ele>
        <time>2017-07-28T09:54:53Z</time>
      </trkpt>
      <trkpt lat="45.98017" lon="4.84182">
        <ele>274</ele>
        <time>2017-07-28T09:54:54Z</time>
      </trkpt>
      <trkpt lat="45.98021" lon="4.84178">
        <ele>274</ele>
        <time>2017-07-28T09:54:55Z</time>
      </trkpt>
      <trkpt lat="45.98025" lon="4.84174">
        <ele>274</ele>
        <time>2017-07-28T09:54:56Z</time>
      </trkpt>
      <trkpt lat="45.98029" lon="4.84171">
        <ele>274</ele>
        <time>2017-07-28T09:54:57Z</time>
      </trkpt>
      <trkpt lat="45.98033" lon="4.84167">
        <ele>273</ele>
        <time>2017-07-28T09:54:58Z</time>
      </trkpt>
      <trkpt lat="45.98037" lon="4.84163">
        <ele>273</ele>
        <time>2017-07-28T09:54:59Z</time>
      </trkpt>
      <trkpt lat="45.98041" lon="4.8416">
        <ele>273</ele>
        <time>2017-07-28T09:55:00Z</time>
      </trkpt>
      <trkpt lat="45.98046" lon="4.84156">
        <ele>273</ele>
        <time>2017-07-28T09:55:01Z</time>
      </trkpt>
      <trkpt lat="45.9805" lon="4.84153">
        <ele>273</ele>
        <time>2017-07-28T09:55:02Z</time>
      </trkpt>
      <trkpt lat="45.98055" lon="4.84148">
        <ele>273</ele>
        <time>2017-07-28T09:55:03Z</time>
      </trkpt>
      <trkpt lat="45.98059" lon="4.84144">
        <ele>273</ele>
        <time>2017-07-28T09:55:04Z</time>
      </trkpt>
      <trkpt lat="45.98064" lon="4.84141">
        <ele>273</ele>
        <time>2017-07-28T09:55:05Z</time>
      </trkpt>
      <trkpt lat="45.98068" lon="4.84137">
        <ele>273</ele>
        <time>2017-07-28T09:55:06Z</time>
      </trkpt>
      <trkpt lat="45.98072" lon="4.84133">
        <ele>273</ele>
        <time>2017-07-28T09:55:07Z</time>
      </trkpt>
      <trkpt lat="45.98076" lon="4.84129">
        <ele>273</ele>
        <time>2017-07-28T09:55:08Z</time>
      </trkpt>
      <trkpt lat="45.9808" lon="4.84126">
        <ele>273</ele>
        <time>2017-07-28T09:55:09Z</time>
      </trkpt>
      <trkpt lat="45.98084" lon="4.84122">
        <ele>273</ele>
        <time>2017-07-28T09:55:10Z</time>
      </trkpt>
      <trkpt lat="45.98088" lon="4.84119">
        <ele>273</ele>
        <time>2017-07-28T09:55:11Z</time>
      </trkpt>
      <trkpt lat="45.98092" lon="4.84116">
        <ele>273</ele>
        <time>2017-07-28T09:55:12Z</time>
      </trkpt>
      <trkpt lat="45.98096" lon="4.84112">
        <ele>273</ele>
        <time>2017-07-28T09:55:13Z</time>
      </trkpt>
      <trkpt lat="45.981" lon="4.84108">
        <ele>273</ele>
        <time>2017-07-28T09:55:14Z</time>
      </trkpt>
      <trkpt lat="45.98104" lon="4.84105">
        <ele>273</ele>
        <time>2017-07-28T09:55:15Z</time>
      </trkpt>
      <trkpt lat="45.98108" lon="4.841">
        <ele>273</ele>
        <time>2017-07-28T09:55:16Z</time>
      </trkpt>
      <trkpt lat="45.98112" lon="4.84097">
        <ele>273</ele>
        <time>2017-07-28T09:55:17Z</time>
      </trkpt>
      <trkpt lat="45.98116" lon="4.84093">
        <ele>273</ele>
        <time>2017-07-28T09:55:18Z</time>
      </trkpt>
      <trkpt lat="45.9812" lon="4.8409">
        <ele>273</ele>
        <time>2017-07-28T09:55:19Z</time>
      </trkpt>
      <trkpt lat="45.98124" lon="4.84086">
        <ele>273</ele>
        <time>2017-07-28T09:55:20Z</time>
      </trkpt>
      <trkpt lat="45.98128" lon="4.84081">
        <ele>273</ele>
        <time>2017-07-28T09:55:21Z</time>
      </trkpt>
      <trkpt lat="45.98132" lon="4.84077">
        <ele>273</ele>
        <time>2017-07-28T09:55:22Z</time>
      </trkpt>
      <trkpt lat="45.98136" lon="4.84072">
        <ele>273</ele>
        <time>2017-07-28T09:55:23Z</time>
      </trkpt>
      <trkpt lat="45.9814" lon="4.84067">
        <ele>273</ele>
        <time>2017-07-28T09:55:24Z</time>
      </trkpt>
      <trkpt lat="45.98144" lon="4.84062">
        <ele>273</ele>
        <time>2017-07-28T09:55:25Z</time>
      </trkpt>
      <trkpt lat="45.98148" lon="4.84056">
        <ele>273</ele>
        <time>2017-07-28T09:55:26Z</time>
      </trkpt>
      <trkpt lat="45.98152" lon="4.8405">
        <ele>273</ele>
        <time>2017-07-28T09:55:27Z</time>
      </trkpt>
      <trkpt lat="45.98156" lon="4.84044">
        <ele>273</ele>
        <time>2017-07-28T09:55:28Z</time>
      </trkpt>
      <trkpt lat="45.9816" lon="4.84038">
        <ele>273</ele>
        <time>2017-07-28T09:55:29Z</time>
      </trkpt>
      <trkpt lat="45.98164" lon="4.84032">
        <ele>273</ele>
        <time>2017-07-28T09:55:30Z</time>
      </trkpt>
      <trkpt lat="45.98168" lon="4.84025">
        <ele>273</ele>
        <time>2017-07-28T09:55:31Z</time>
      </trkpt>
      <trkpt lat="45.98171" lon="4.84018">
        <ele>273</ele>
        <time>2017-07-28T09:55:32Z</time>
      </trkpt>
      <trkpt lat="45.98175" lon="4.84011">
        <ele>273</ele>
        <time>2017-07-28T09:55:33Z</time>
      </trkpt>
      <trkpt lat="45.98178" lon="4.84004">
        <ele>273</ele>
        <time>2017-07-28T09:55:34Z</time>
      </trkpt>
      <trkpt lat="45.98181" lon="4.83996">
        <ele>273</ele>
        <time>2017-07-28T09:55:35Z</time>
      </trkpt>
      <trkpt lat="45.98184" lon="4.83989">
        <ele>273</ele>
        <time>2017-07-28T09:55:36Z</time>
      </trkpt>
      <trkpt lat="45.98186" lon="4.83982">
        <ele>273</ele>
        <time>2017-07-28T09:55:37Z</time>
      </trkpt>
      <trkpt lat="45.98189" lon="4.83976">
        <ele>273</ele>
        <time>2017-07-28T09:55:38Z</time>
      </trkpt>
      <trkpt lat="45.98191" lon="4.8397">
        <ele>273</ele>
        <time>2017-07-28T09:55:39Z</time>
      </trkpt>
      <trkpt lat="45.98194" lon="4.83963">
        <ele>273</ele>
        <time>2017-07-28T09:55:40Z</time>
      </trkpt>
      <trkpt lat="45.98196" lon="4.83957">
        <ele>273</ele>
        <time>2017-07-28T09:55:41Z</time>
      </trkpt>
      <trkpt lat="45.98198" lon="4.83951">
        <ele>273</ele>
        <time>2017-07-28T09:55:42Z</time>
      </trkpt>
      <trkpt lat="45.982" lon="4.83944">
        <ele>273</ele>
        <time>2017-07-28T09:55:43Z</time>
      </trkpt>
      <trkpt lat="45.98203" lon="4.83937">
        <ele>273</ele>
        <time>2017-07-28T09:55:44Z</time>
      </trkpt>
      <trkpt lat="45.98205" lon="4.83931">
        <ele>273</ele>
        <time>2017-07-28T09:55:45Z</time>
      </trkpt>
      <trkpt lat="45.98207" lon="4.83925">
        <ele>273</ele>
        <time>2017-07-28T09:55:46Z</time>
      </trkpt>
      <trkpt lat="45.98209" lon="4.83919">
        <ele>273</ele>
        <time>2017-07-28T09:55:47Z</time>
      </trkpt>
      <trkpt lat="45.98212" lon="4.83909">
        <ele>273</ele>
        <time>2017-07-28T09:55:49Z</time>
      </trkpt>
      <trkpt lat="45.98214" lon="4.83903">
        <ele>273</ele>
        <time>2017-07-28T09:55:50Z</time>
      </trkpt>
      <trkpt lat="45.98217" lon="4.83891">
        <ele>273</ele>
        <time>2017-07-28T09:55:52Z</time>
      </trkpt>
      <trkpt lat="45.98219" lon="4.83885">
        <ele>272</ele>
        <time>2017-07-28T09:55:53Z</time>
      </trkpt>
      <trkpt lat="45.98221" lon="4.83879">
        <ele>272</ele>
        <time>2017-07-28T09:55:54Z</time>
      </trkpt>
      <trkpt lat="45.98223" lon="4.83873">
        <ele>272</ele>
        <time>2017-07-28T09:55:55Z</time>
      </trkpt>
      <trkpt lat="45.98226" lon="4.83867">
        <ele>272</ele>
        <time>2017-07-28T09:55:56Z</time>
      </trkpt>
      <trkpt lat="45.98228" lon="4.8386">
        <ele>272</ele>
        <time>2017-07-28T09:55:57Z</time>
      </trkpt>
      <trkpt lat="45.9823" lon="4.83854">
        <ele>272</ele>
        <time>2017-07-28T09:55:58Z</time>
      </trkpt>
      <trkpt lat="45.98233" lon="4.83847">
        <ele>272</ele>
        <time>2017-07-28T09:55:59Z</time>
      </trkpt>
      <trkpt lat="45.98236" lon="4.8384">
        <ele>272</ele>
        <time>2017-07-28T09:56:00Z</time>
      </trkpt>
      <trkpt lat="45.98238" lon="4.83832">
        <ele>272</ele>
        <time>2017-07-28T09:56:01Z</time>
      </trkpt>
      <trkpt lat="45.9824" lon="4.83825">
        <ele>272</ele>
        <time>2017-07-28T09:56:02Z</time>
      </trkpt>
      <trkpt lat="45.98243" lon="4.83818">
        <ele>272</ele>
        <time>2017-07-28T09:56:03Z</time>
      </trkpt>
      <trkpt lat="45.98246" lon="4.83811">
        <ele>272</ele>
        <time>2017-07-28T09:56:04Z</time>
      </trkpt>
      <trkpt lat="45.98249" lon="4.83803">
        <ele>272</ele>
        <time>2017-07-28T09:56:05Z</time>
      </trkpt>
      <trkpt lat="45.98251" lon="4.83796">
        <ele>272</ele>
        <time>2017-07-28T09:56:06Z</time>
      </trkpt>
      <trkpt lat="45.98253" lon="4.83788">
        <ele>272</ele>
        <time>2017-07-28T09:56:07Z</time>
      </trkpt>
      <trkpt lat="45.98256" lon="4.83781">
        <ele>272</ele>
        <time>2017-07-28T09:56:08Z</time>
      </trkpt>
      <trkpt lat="45.98258" lon="4.83775">
        <ele>272</ele>
        <time>2017-07-28T09:56:09Z</time>
      </trkpt>
      <trkpt lat="45.98261" lon="4.83768">
        <ele>272</ele>
        <time>2017-07-28T09:56:10Z</time>
      </trkpt>
      <trkpt lat="45.98263" lon="4.83761">
        <ele>272</ele>
        <time>2017-07-28T09:56:11Z</time>
      </trkpt>
      <trkpt lat="45.98265" lon="4.83755">
        <ele>272</ele>
        <time>2017-07-28T09:56:12Z</time>
      </trkpt>
      <trkpt lat="45.98267" lon="4.83749">
        <ele>272</ele>
        <time>2017-07-28T09:56:13Z</time>
      </trkpt>
      <trkpt lat="45.9827" lon="4.83743">
        <ele>272</ele>
        <time>2017-07-28T09:56:14Z</time>
      </trkpt>
      <trkpt lat="45.98272" lon="4.83736">
        <ele>272</ele>
        <time>2017-07-28T09:56:15Z</time>
      </trkpt>
      <trkpt lat="45.98274" lon="4.83729">
        <ele>272</ele>
        <time>2017-07-28T09:56:16Z</time>
      </trkpt>
      <trkpt lat="45.98277" lon="4.83722">
        <ele>272</ele>
        <time>2017-07-28T09:56:17Z</time>
      </trkpt>
      <trkpt lat="45.98279" lon="4.83715">
        <ele>272</ele>
        <time>2017-07-28T09:56:18Z</time>
      </trkpt>
      <trkpt lat="45.98281" lon="4.83709">
        <ele>272</ele>
        <time>2017-07-28T09:56:19Z</time>
      </trkpt>
      <trkpt lat="45.98283" lon="4.83702">
        <ele>272</ele>
        <time>2017-07-28T09:56:20Z</time>
      </trkpt>
      <trkpt lat="45.98286" lon="4.83695">
        <ele>272</ele>
        <time>2017-07-28T09:56:21Z</time>
      </trkpt>
      <trkpt lat="45.98288" lon="4.8369">
        <ele>272</ele>
        <time>2017-07-28T09:56:22Z</time>
      </trkpt>
      <trkpt lat="45.9829" lon="4.83684">
        <ele>272</ele>
        <time>2017-07-28T09:56:23Z</time>
      </trkpt>
      <trkpt lat="45.98293" lon="4.83678">
        <ele>272</ele>
        <time>2017-07-28T09:56:24Z</time>
      </trkpt>
      <trkpt lat="45.98295" lon="4.83672">
        <ele>272</ele>
        <time>2017-07-28T09:56:25Z</time>
      </trkpt>
      <trkpt lat="45.98297" lon="4.83666">
        <ele>271</ele>
        <time>2017-07-28T09:56:26Z</time>
      </trkpt>
      <trkpt lat="45.983" lon="4.8366">
        <ele>271</ele>
        <time>2017-07-28T09:56:27Z</time>
      </trkpt>
      <trkpt lat="45.98302" lon="4.83653">
        <ele>271</ele>
        <time>2017-07-28T09:56:28Z</time>
      </trkpt>
      <trkpt lat="45.98305" lon="4.83647">
        <ele>271</ele>
        <time>2017-07-28T09:56:29Z</time>
      </trkpt>
      <trkpt lat="45.98308" lon="4.8364">
        <ele>271</ele>
        <time>2017-07-28T09:56:30Z</time>
      </trkpt>
      <trkpt lat="45.98311" lon="4.83634">
        <ele>271</ele>
        <time>2017-07-28T09:56:31Z</time>
      </trkpt>
      <trkpt lat="45.98314" lon="4.83628">
        <ele>271</ele>
        <time>2017-07-28T09:56:32Z</time>
      </trkpt>
      <trkpt lat="45.98318" lon="4.83622">
        <ele>271</ele>
        <time>2017-07-28T09:56:33Z</time>
      </trkpt>
      <trkpt lat="45.98321" lon="4.83615">
        <ele>271</ele>
        <time>2017-07-28T09:56:34Z</time>
      </trkpt>
      <trkpt lat="45.98325" lon="4.83609">
        <ele>271</ele>
        <time>2017-07-28T09:56:35Z</time>
      </trkpt>
      <trkpt lat="45.98329" lon="4.83603">
        <ele>271</ele>
        <time>2017-07-28T09:56:36Z</time>
      </trkpt>
      <trkpt lat="45.98334" lon="4.83597">
        <ele>270</ele>
        <time>2017-07-28T09:56:37Z</time>
      </trkpt>
      <trkpt lat="45.98338" lon="4.8359">
        <ele>270</ele>
        <time>2017-07-28T09:56:38Z</time>
      </trkpt>
      <trkpt lat="45.98343" lon="4.83584">
        <ele>270</ele>
        <time>2017-07-28T09:56:39Z</time>
      </trkpt>
      <trkpt lat="45.98347" lon="4.83578">
        <ele>270</ele>
        <time>2017-07-28T09:56:40Z</time>
      </trkpt>
      <trkpt lat="45.98352" lon="4.83572">
        <ele>269</ele>
        <time>2017-07-28T09:56:41Z</time>
      </trkpt>
      <trkpt lat="45.98356" lon="4.83566">
        <ele>269</ele>
        <time>2017-07-28T09:56:42Z</time>
      </trkpt>
      <trkpt lat="45.9836" lon="4.83561">
        <ele>269</ele>
        <time>2017-07-28T09:56:43Z</time>
      </trkpt>
      <trkpt lat="45.98364" lon="4.83555">
        <ele>269</ele>
        <time>2017-07-28T09:56:44Z</time>
      </trkpt>
      <trkpt lat="45.98368" lon="4.8355">
        <ele>269</ele>
        <time>2017-07-28T09:56:45Z</time>
      </trkpt>
      <trkpt lat="45.98372" lon="4.83544">
        <ele>269</ele>
        <time>2017-07-28T09:56:46Z</time>
      </trkpt>
      <trkpt lat="45.98376" lon="4.83539">
        <ele>269</ele>
        <time>2017-07-28T09:56:47Z</time>
      </trkpt>
      <trkpt lat="45.9838" lon="4.83534">
        <ele>269</ele>
        <time>2017-07-28T09:56:48Z</time>
      </trkpt>
      <trkpt lat="45.98384" lon="4.83529">
        <ele>269</ele>
        <time>2017-07-28T09:56:49Z</time>
      </trkpt>
      <trkpt lat="45.98388" lon="4.83524">
        <ele>269</ele>
        <time>2017-07-28T09:56:50Z</time>
      </trkpt>
      <trkpt lat="45.98392" lon="4.83518">
        <ele>269</ele>
        <time>2017-07-28T09:56:51Z</time>
      </trkpt>
      <trkpt lat="45.98396" lon="4.83513">
        <ele>269</ele>
        <time>2017-07-28T09:56:52Z</time>
      </trkpt>
      <trkpt lat="45.984" lon="4.83507">
        <ele>269</ele>
        <time>2017-07-28T09:56:53Z</time>
      </trkpt>
      <trkpt lat="45.98404" lon="4.83501">
        <ele>268</ele>
        <time>2017-07-28T09:56:54Z</time>
      </trkpt>
      <trkpt lat="45.98409" lon="4.83496">
        <ele>268</ele>
        <time>2017-07-28T09:56:55Z</time>
      </trkpt>
      <trkpt lat="45.98413" lon="4.83489">
        <ele>268</ele>
        <time>2017-07-28T09:56:56Z</time>
      </trkpt>
      <trkpt lat="45.98418" lon="4.83483">
        <ele>268</ele>
        <time>2017-07-28T09:56:57Z</time>
      </trkpt>
      <trkpt lat="45.98422" lon="4.83477">
        <ele>268</ele>
        <time>2017-07-28T09:56:58Z</time>
      </trkpt>
      <trkpt lat="45.98426" lon="4.83472">
        <ele>268</ele>
        <time>2017-07-28T09:56:59Z</time>
      </trkpt>
      <trkpt lat="45.9843" lon="4.83466">
        <ele>268</ele>
        <time>2017-07-28T09:57:00Z</time>
      </trkpt>
      <trkpt lat="45.98433" lon="4.83461">
        <ele>268</ele>
        <time>2017-07-28T09:57:01Z</time>
      </trkpt>
      <trkpt lat="45.98437" lon="4.83457">
        <ele>268</ele>
        <time>2017-07-28T09:57:02Z</time>
      </trkpt>
      <trkpt lat="45.98441" lon="4.83452">
        <ele>268</ele>
        <time>2017-07-28T09:57:03Z</time>
      </trkpt>
      <trkpt lat="45.98444" lon="4.83447">
        <ele>268</ele>
        <time>2017-07-28T09:57:04Z</time>
      </trkpt>
      <trkpt lat="45.98448" lon="4.83441">
        <ele>268</ele>
        <time>2017-07-28T09:57:05Z</time>
      </trkpt>
      <trkpt lat="45.98451" lon="4.83437">
        <ele>268</ele>
        <time>2017-07-28T09:57:06Z</time>
      </trkpt>
      <trkpt lat="45.98455" lon="4.83432">
        <ele>268</ele>
        <time>2017-07-28T09:57:07Z</time>
      </trkpt>
      <trkpt lat="45.98459" lon="4.83427">
        <ele>268</ele>
        <time>2017-07-28T09:57:08Z</time>
      </trkpt>
      <trkpt lat="45.98463" lon="4.83422">
        <ele>269</ele>
        <time>2017-07-28T09:57:09Z</time>
      </trkpt>
      <trkpt lat="45.98466" lon="4.83417">
        <ele>269</ele>
        <time>2017-07-28T09:57:10Z</time>
      </trkpt>
      <trkpt lat="45.9847" lon="4.83411">
        <ele>269</ele>
        <time>2017-07-28T09:57:11Z</time>
      </trkpt>
      <trkpt lat="45.98474" lon="4.83406">
        <ele>269</ele>
        <time>2017-07-28T09:57:12Z</time>
      </trkpt>
      <trkpt lat="45.98477" lon="4.83401">
        <ele>269</ele>
        <time>2017-07-28T09:57:13Z</time>
      </trkpt>
      <trkpt lat="45.98481" lon="4.83396">
        <ele>269</ele>
        <time>2017-07-28T09:57:14Z</time>
      </trkpt>
      <trkpt lat="45.98484" lon="4.83391">
        <ele>269</ele>
        <time>2017-07-28T09:57:15Z</time>
      </trkpt>
      <trkpt lat="45.98487" lon="4.83387">
        <ele>269</ele>
        <time>2017-07-28T09:57:16Z</time>
      </trkpt>
      <trkpt lat="45.98491" lon="4.83382">
        <ele>269</ele>
        <time>2017-07-28T09:57:17Z</time>
      </trkpt>
      <trkpt lat="45.98494" lon="4.83377">
        <ele>269</ele>
        <time>2017-07-28T09:57:18Z</time>
      </trkpt>
      <trkpt lat="45.98498" lon="4.83373">
        <ele>270</ele>
        <time>2017-07-28T09:57:19Z</time>
      </trkpt>
      <trkpt lat="45.98502" lon="4.83367">
        <ele>269</ele>
        <time>2017-07-28T09:57:20Z</time>
      </trkpt>
      <trkpt lat="45.98507" lon="4.83362">
        <ele>269</ele>
        <time>2017-07-28T09:57:21Z</time>
      </trkpt>
      <trkpt lat="45.98511" lon="4.83356">
        <ele>269</ele>
        <time>2017-07-28T09:57:22Z</time>
      </trkpt>
      <trkpt lat="45.98515" lon="4.83351">
        <ele>270</ele>
        <time>2017-07-28T09:57:23Z</time>
      </trkpt>
      <trkpt lat="45.9852" lon="4.83345">
        <ele>270</ele>
        <time>2017-07-28T09:57:24Z</time>
      </trkpt>
      <trkpt lat="45.98524" lon="4.83339">
        <ele>270</ele>
        <time>2017-07-28T09:57:25Z</time>
      </trkpt>
      <trkpt lat="45.98528" lon="4.83333">
        <ele>269</ele>
        <time>2017-07-28T09:57:26Z</time>
      </trkpt>
      <trkpt lat="45.98531" lon="4.83328">
        <ele>269</ele>
        <time>2017-07-28T09:57:27Z</time>
      </trkpt>
      <trkpt lat="45.98535" lon="4.83323">
        <ele>269</ele>
        <time>2017-07-28T09:57:28Z</time>
      </trkpt>
      <trkpt lat="45.98539" lon="4.83319">
        <ele>269</ele>
        <time>2017-07-28T09:57:29Z</time>
      </trkpt>
      <trkpt lat="45.98542" lon="4.83314">
        <ele>269</ele>
        <time>2017-07-28T09:57:30Z</time>
      </trkpt>
      <trkpt lat="45.98546" lon="4.83309">
        <ele>269</ele>
        <time>2017-07-28T09:57:31Z</time>
      </trkpt>
      <trkpt lat="45.98549" lon="4.83304">
        <ele>269</ele>
        <time>2017-07-28T09:57:32Z</time>
      </trkpt>
      <trkpt lat="45.98553" lon="4.83299">
        <ele>269</ele>
        <time>2017-07-28T09:57:33Z</time>
      </trkpt>
      <trkpt lat="45.98557" lon="4.83295">
        <ele>269</ele>
        <time>2017-07-28T09:57:34Z</time>
      </trkpt>
      <trkpt lat="45.98561" lon="4.8329">
        <ele>269</ele>
        <time>2017-07-28T09:57:35Z</time>
      </trkpt>
      <trkpt lat="45.98564" lon="4.83284">
        <ele>269</ele>
        <time>2017-07-28T09:57:36Z</time>
      </trkpt>
      <trkpt lat="45.98568" lon="4.83279">
        <ele>269</ele>
        <time>2017-07-28T09:57:37Z</time>
      </trkpt>
      <trkpt lat="45.98571" lon="4.83274">
        <ele>269</ele>
        <time>2017-07-28T09:57:38Z</time>
      </trkpt>
      <trkpt lat="45.98575" lon="4.83269">
        <ele>269</ele>
        <time>2017-07-28T09:57:39Z</time>
      </trkpt>
      <trkpt lat="45.98579" lon="4.83265">
        <ele>269</ele>
        <time>2017-07-28T09:57:40Z</time>
      </trkpt>
      <trkpt lat="45.98582" lon="4.8326">
        <ele>268</ele>
        <time>2017-07-28T09:57:41Z</time>
      </trkpt>
      <trkpt lat="45.98586" lon="4.83255">
        <ele>268</ele>
        <time>2017-07-28T09:57:42Z</time>
      </trkpt>
      <trkpt lat="45.98589" lon="4.8325">
        <ele>268</ele>
        <time>2017-07-28T09:57:43Z</time>
      </trkpt>
      <trkpt lat="45.98593" lon="4.83245">
        <ele>268</ele>
        <time>2017-07-28T09:57:44Z</time>
      </trkpt>
      <trkpt lat="45.98597" lon="4.8324">
        <ele>268</ele>
        <time>2017-07-28T09:57:45Z</time>
      </trkpt>
      <trkpt lat="45.986" lon="4.83236">
        <ele>268</ele>
        <time>2017-07-28T09:57:46Z</time>
      </trkpt>
      <trkpt lat="45.98604" lon="4.83231">
        <ele>268</ele>
        <time>2017-07-28T09:57:47Z</time>
      </trkpt>
      <trkpt lat="45.98607" lon="4.83226">
        <ele>267</ele>
        <time>2017-07-28T09:57:48Z</time>
      </trkpt>
      <trkpt lat="45.98611" lon="4.83221">
        <ele>267</ele>
        <time>2017-07-28T09:57:49Z</time>
      </trkpt>
      <trkpt lat="45.98614" lon="4.83217">
        <ele>267</ele>
        <time>2017-07-28T09:57:50Z</time>
      </trkpt>
      <trkpt lat="45.98617" lon="4.83212">
        <ele>267</ele>
        <time>2017-07-28T09:57:51Z</time>
      </trkpt>
      <trkpt lat="45.98622" lon="4.83207">
        <ele>267</ele>
        <time>2017-07-28T09:57:52Z</time>
      </trkpt>
      <trkpt lat="45.98625" lon="4.83203">
        <ele>267</ele>
        <time>2017-07-28T09:57:53Z</time>
      </trkpt>
      <trkpt lat="45.98629" lon="4.83198">
        <ele>267</ele>
        <time>2017-07-28T09:57:54Z</time>
      </trkpt>
      <trkpt lat="45.98633" lon="4.83194">
        <ele>267</ele>
        <time>2017-07-28T09:57:55Z</time>
      </trkpt>
      <trkpt lat="45.98637" lon="4.83189">
        <ele>267</ele>
        <time>2017-07-28T09:57:56Z</time>
      </trkpt>
      <trkpt lat="45.98641" lon="4.83185">
        <ele>267</ele>
        <time>2017-07-28T09:57:57Z</time>
      </trkpt>
      <trkpt lat="45.98645" lon="4.8318">
        <ele>267</ele>
        <time>2017-07-28T09:57:58Z</time>
      </trkpt>
      <trkpt lat="45.98649" lon="4.83176">
        <ele>267</ele>
        <time>2017-07-28T09:57:59Z</time>
      </trkpt>
      <trkpt lat="45.98654" lon="4.83172">
        <ele>267</ele>
        <time>2017-07-28T09:58:00Z</time>
      </trkpt>
      <trkpt lat="45.98658" lon="4.83168">
        <ele>266</ele>
        <time>2017-07-28T09:58:01Z</time>
      </trkpt>
      <trkpt lat="45.98663" lon="4.83163">
        <ele>266</ele>
        <time>2017-07-28T09:58:02Z</time>
      </trkpt>
      <trkpt lat="45.98668" lon="4.8316">
        <ele>266</ele>
        <time>2017-07-28T09:58:03Z</time>
      </trkpt>
      <trkpt lat="45.98673" lon="4.83156">
        <ele>266</ele>
        <time>2017-07-28T09:58:04Z</time>
      </trkpt>
      <trkpt lat="45.98678" lon="4.83152">
        <ele>266</ele>
        <time>2017-07-28T09:58:05Z</time>
      </trkpt>
      <trkpt lat="45.98683" lon="4.83148">
        <ele>266</ele>
        <time>2017-07-28T09:58:06Z</time>
      </trkpt>
      <trkpt lat="45.98688" lon="4.83144">
        <ele>266</ele>
        <time>2017-07-28T09:58:07Z</time>
      </trkpt>
      <trkpt lat="45.98693" lon="4.83141">
        <ele>266</ele>
        <time>2017-07-28T09:58:08Z</time>
      </trkpt>
      <trkpt lat="45.98698" lon="4.83138">
        <ele>266</ele>
        <time>2017-07-28T09:58:09Z</time>
      </trkpt>
      <trkpt lat="45.98703" lon="4.83134">
        <ele>266</ele>
        <time>2017-07-28T09:58:10Z</time>
      </trkpt>
      <trkpt lat="45.98707" lon="4.83131">
        <ele>266</ele>
        <time>2017-07-28T09:58:11Z</time>
      </trkpt>
      <trkpt lat="45.98711" lon="4.83127">
        <ele>266</ele>
        <time>2017-07-28T09:58:12Z</time>
      </trkpt>
      <trkpt lat="45.98715" lon="4.83124">
        <ele>266</ele>
        <time>2017-07-28T09:58:13Z</time>
      </trkpt>
      <trkpt lat="45.9872" lon="4.8312">
        <ele>266</ele>
        <time>2017-07-28T09:58:14Z</time>
      </trkpt>
      <trkpt lat="45.98724" lon="4.83116">
        <ele>267</ele>
        <time>2017-07-28T09:58:15Z</time>
      </trkpt>
      <trkpt lat="45.98728" lon="4.83113">
        <ele>267</ele>
        <time>2017-07-28T09:58:16Z</time>
      </trkpt>
      <trkpt lat="45.98733" lon="4.83109">
        <ele>267</ele>
        <time>2017-07-28T09:58:17Z</time>
      </trkpt>
      <trkpt lat="45.98737" lon="4.83105">
        <ele>267</ele>
        <time>2017-07-28T09:58:18Z</time>
      </trkpt>
      <trkpt lat="45.98741" lon="4.83101">
        <ele>267</ele>
        <time>2017-07-28T09:58:19Z</time>
      </trkpt>
      <trkpt lat="45.98746" lon="4.83097">
        <ele>267</ele>
        <time>2017-07-28T09:58:20Z</time>
      </trkpt>
      <trkpt lat="45.9875" lon="4.83093">
        <ele>266</ele>
        <time>2017-07-28T09:58:21Z</time>
      </trkpt>
      <trkpt lat="45.98755" lon="4.83089">
        <ele>266</ele>
        <time>2017-07-28T09:58:22Z</time>
      </trkpt>
      <trkpt lat="45.9876" lon="4.83085">
        <ele>266</ele>
        <time>2017-07-28T09:58:23Z</time>
      </trkpt>
      <trkpt lat="45.98765" lon="4.83081">
        <ele>266</ele>
        <time>2017-07-28T09:58:24Z</time>
      </trkpt>
      <trkpt lat="45.9877" lon="4.83077">
        <ele>266</ele>
        <time>2017-07-28T09:58:25Z</time>
      </trkpt>
      <trkpt lat="45.98775" lon="4.83073">
        <ele>265</ele>
        <time>2017-07-28T09:58:26Z</time>
      </trkpt>
      <trkpt lat="45.9878" lon="4.83068">
        <ele>265</ele>
        <time>2017-07-28T09:58:27Z</time>
      </trkpt>
      <trkpt lat="45.98785" lon="4.83064">
        <ele>265</ele>
        <time>2017-07-28T09:58:28Z</time>
      </trkpt>
      <trkpt lat="45.98791" lon="4.8306">
        <ele>265</ele>
        <time>2017-07-28T09:58:29Z</time>
      </trkpt>
      <trkpt lat="45.98796" lon="4.83055">
        <ele>264</ele>
        <time>2017-07-28T09:58:30Z</time>
      </trkpt>
      <trkpt lat="45.98801" lon="4.83051">
        <ele>264</ele>
        <time>2017-07-28T09:58:31Z</time>
      </trkpt>
      <trkpt lat="45.98806" lon="4.83046">
        <ele>264</ele>
        <time>2017-07-28T09:58:32Z</time>
      </trkpt>
      <trkpt lat="45.98812" lon="4.83042">
        <ele>264</ele>
        <time>2017-07-28T09:58:33Z</time>
      </trkpt>
      <trkpt lat="45.98817" lon="4.83037">
        <ele>264</ele>
        <time>2017-07-28T09:58:34Z</time>
      </trkpt>
      <trkpt lat="45.98823" lon="4.83033">
        <ele>264</ele>
        <time>2017-07-28T09:58:35Z</time>
      </trkpt>
      <trkpt lat="45.98829" lon="4.83028">
        <ele>264</ele>
        <time>2017-07-28T09:58:36Z</time>
      </trkpt>
      <trkpt lat="45.98835" lon="4.83024">
        <ele>261</ele>
        <time>2017-07-28T09:58:37Z</time>
      </trkpt>
      <trkpt lat="45.98842" lon="4.83019">
        <ele>261</ele>
        <time>2017-07-28T09:58:38Z</time>
      </trkpt>
      <trkpt lat="45.98848" lon="4.83014">
        <ele>261</ele>
        <time>2017-07-28T09:58:39Z</time>
      </trkpt>
      <trkpt lat="45.98854" lon="4.83009">
        <ele>261</ele>
        <time>2017-07-28T09:58:40Z</time>
      </trkpt>
      <trkpt lat="45.98861" lon="4.83005">
        <ele>260</ele>
        <time>2017-07-28T09:58:41Z</time>
      </trkpt>
      <trkpt lat="45.98868" lon="4.82999">
        <ele>260</ele>
        <time>2017-07-28T09:58:42Z</time>
      </trkpt>
      <trkpt lat="45.98876" lon="4.82994">
        <ele>260</ele>
        <time>2017-07-28T09:58:43Z</time>
      </trkpt>
      <trkpt lat="45.98883" lon="4.82989">
        <ele>259</ele>
        <time>2017-07-28T09:58:44Z</time>
      </trkpt>
      <trkpt lat="45.98891" lon="4.82983">
        <ele>259</ele>
        <time>2017-07-28T09:58:45Z</time>
      </trkpt>
      <trkpt lat="45.98899" lon="4.82977">
        <ele>259</ele>
        <time>2017-07-28T09:58:46Z</time>
      </trkpt>
      <trkpt lat="45.98907" lon="4.8297">
        <ele>259</ele>
        <time>2017-07-28T09:58:47Z</time>
      </trkpt>
      <trkpt lat="45.98914" lon="4.82961">
        <ele>258</ele>
        <time>2017-07-28T09:58:48Z</time>
      </trkpt>
      <trkpt lat="45.9892" lon="4.8295">
        <ele>255</ele>
        <time>2017-07-28T09:58:49Z</time>
      </trkpt>
      <trkpt lat="45.98926" lon="4.82937">
        <ele>255</ele>
        <time>2017-07-28T09:58:50Z</time>
      </trkpt>
      <trkpt lat="45.98932" lon="4.82924">
        <ele>255</ele>
        <time>2017-07-28T09:58:51Z</time>
      </trkpt>
      <trkpt lat="45.98938" lon="4.8291">
        <ele>254</ele>
        <time>2017-07-28T09:58:52Z</time>
      </trkpt>
      <trkpt lat="45.98944" lon="4.82896">
        <ele>253</ele>
        <time>2017-07-28T09:58:53Z</time>
      </trkpt>
      <trkpt lat="45.9895" lon="4.82881">
        <ele>253</ele>
        <time>2017-07-28T09:58:54Z</time>
      </trkpt>
      <trkpt lat="45.98956" lon="4.82867">
        <ele>252</ele>
        <time>2017-07-28T09:58:55Z</time>
      </trkpt>
      <trkpt lat="45.98963" lon="4.82852">
        <ele>252</ele>
        <time>2017-07-28T09:58:56Z</time>
      </trkpt>
      <trkpt lat="45.98969" lon="4.82837">
        <ele>251</ele>
        <time>2017-07-28T09:58:57Z</time>
      </trkpt>
      <trkpt lat="45.98976" lon="4.82821">
        <ele>249</ele>
        <time>2017-07-28T09:58:58Z</time>
      </trkpt>
      <trkpt lat="45.98982" lon="4.82806">
        <ele>248</ele>
        <time>2017-07-28T09:58:59Z</time>
      </trkpt>
      <trkpt lat="45.98989" lon="4.8279">
        <ele>247</ele>
        <time>2017-07-28T09:59:00Z</time>
      </trkpt>
      <trkpt lat="45.98995" lon="4.82774">
        <ele>246</ele>
        <time>2017-07-28T09:59:01Z</time>
      </trkpt>
      <trkpt lat="45.99001" lon="4.82758">
        <ele>241</ele>
        <time>2017-07-28T09:59:02Z</time>
      </trkpt>
      <trkpt lat="45.99008" lon="4.82742">
        <ele>240</ele>
        <time>2017-07-28T09:59:03Z</time>
      </trkpt>
      <trkpt lat="45.99015" lon="4.82727">
        <ele>239</ele>
        <time>2017-07-28T09:59:04Z</time>
      </trkpt>
      <trkpt lat="45.99022" lon="4.82712">
        <ele>239</ele>
        <time>2017-07-28T09:59:05Z</time>
      </trkpt>
      <trkpt lat="45.99029" lon="4.82696">
        <ele>238</ele>
        <time>2017-07-28T09:59:06Z</time>
      </trkpt>
      <trkpt lat="45.99036" lon="4.82681">
        <ele>238</ele>
        <time>2017-07-28T09:59:07Z</time>
      </trkpt>
      <trkpt lat="45.99042" lon="4.82667">
        <ele>236</ele>
        <time>2017-07-28T09:59:08Z</time>
      </trkpt>
      <trkpt lat="45.99048" lon="4.82653">
        <ele>236</ele>
        <time>2017-07-28T09:59:09Z</time>
      </trkpt>
      <trkpt lat="45.99054" lon="4.8264">
        <ele>236</ele>
        <time>2017-07-28T09:59:10Z</time>
      </trkpt>
      <trkpt lat="45.99059" lon="4.82628">
        <ele>236</ele>
        <time>2017-07-28T09:59:11Z</time>
      </trkpt>
      <trkpt lat="45.99064" lon="4.82617">
        <ele>236</ele>
        <time>2017-07-28T09:59:12Z</time>
      </trkpt>
      <trkpt lat="45.99068" lon="4.82608">
        <ele>236</ele>
        <time>2017-07-28T09:59:13Z</time>
      </trkpt>
      <trkpt lat="45.99072" lon="4.826">
        <ele>235</ele>
        <time>2017-07-28T09:59:14Z</time>
      </trkpt>
      <trkpt lat="45.99075" lon="4.82594">
        <ele>235</ele>
        <time>2017-07-28T09:59:15Z</time>
      </trkpt>
      <trkpt lat="45.99077" lon="4.82583">
        <ele>235</ele>
        <time>2017-07-28T09:59:17Z</time>
      </trkpt>
      <trkpt lat="45.99074" lon="4.82577">
        <ele>235</ele>
        <time>2017-07-28T09:59:18Z</time>
      </trkpt>
      <trkpt lat="45.9907" lon="4.82572">
        <ele>235</ele>
        <time>2017-07-28T09:59:19Z</time>
      </trkpt>
      <trkpt lat="45.99065" lon="4.82569">
        <ele>235</ele>
        <time>2017-07-28T09:59:20Z</time>
      </trkpt>
      <trkpt lat="45.99059" lon="4.82567">
        <ele>235</ele>
        <time>2017-07-28T09:59:21Z</time>
      </trkpt>
      <trkpt lat="45.99054" lon="4.82566">
        <ele>235</ele>
        <time>2017-07-28T09:59:22Z</time>
      </trkpt>
      <trkpt lat="45.99049" lon="4.82564">
        <ele>235</ele>
        <time>2017-07-28T09:59:23Z</time>
      </trkpt>
      <trkpt lat="45.99044" lon="4.82561">
        <ele>235</ele>
        <time>2017-07-28T09:59:24Z</time>
      </trkpt>
      <trkpt lat="45.9904" lon="4.82558">
        <ele>235</ele>
        <time>2017-07-28T09:59:25Z</time>
      </trkpt>
      <trkpt lat="45.99036" lon="4.82555">
        <ele>235</ele>
        <time>2017-07-28T09:59:26Z</time>
      </trkpt>
      <trkpt lat="45.99032" lon="4.82551">
        <ele>235</ele>
        <time>2017-07-28T09:59:27Z</time>
      </trkpt>
      <trkpt lat="45.99028" lon="4.82548">
        <ele>235</ele>
        <time>2017-07-28T09:59:28Z</time>
      </trkpt>
      <trkpt lat="45.99021" lon="4.82539">
        <ele>235</ele>
        <time>2017-07-28T09:59:30Z</time>
      </trkpt>
      <trkpt lat="45.99017" lon="4.82535">
        <ele>235</ele>
        <time>2017-07-28T09:59:31Z</time>
      </trkpt>
      <trkpt lat="45.99014" lon="4.82531">
        <ele>235</ele>
        <time>2017-07-28T09:59:32Z</time>
      </trkpt>
      <trkpt lat="45.9901" lon="4.82526">
        <ele>235</ele>
        <time>2017-07-28T09:59:33Z</time>
      </trkpt>
      <trkpt lat="45.99007" lon="4.8252">
        <ele>235</ele>
        <time>2017-07-28T09:59:34Z</time>
      </trkpt>
      <trkpt lat="45.99004" lon="4.82514">
        <ele>235</ele>
        <time>2017-07-28T09:59:35Z</time>
      </trkpt>
      <trkpt lat="45.99001" lon="4.82508">
        <ele>235</ele>
        <time>2017-07-28T09:59:36Z</time>
      </trkpt>
      <trkpt lat="45.98998" lon="4.82502">
        <ele>235</ele>
        <time>2017-07-28T09:59:37Z</time>
      </trkpt>
      <trkpt lat="45.98995" lon="4.82495">
        <ele>235</ele>
        <time>2017-07-28T09:59:38Z</time>
      </trkpt>
      <trkpt lat="45.98992" lon="4.82489">
        <ele>236</ele>
        <time>2017-07-28T09:59:39Z</time>
      </trkpt>
      <trkpt lat="45.9899" lon="4.82482">
        <ele>236</ele>
        <time>2017-07-28T09:59:40Z</time>
      </trkpt>
      <trkpt lat="45.98988" lon="4.82475">
        <ele>236</ele>
        <time>2017-07-28T09:59:41Z</time>
      </trkpt>
      <trkpt lat="45.98985" lon="4.82468">
        <ele>236</ele>
        <time>2017-07-28T09:59:42Z</time>
      </trkpt>
      <trkpt lat="45.98983" lon="4.8246">
        <ele>236</ele>
        <time>2017-07-28T09:59:43Z</time>
      </trkpt>
      <trkpt lat="45.98981" lon="4.82453">
        <ele>236</ele>
        <time>2017-07-28T09:59:44Z</time>
      </trkpt>
      <trkpt lat="45.98979" lon="4.82446">
        <ele>236</ele>
        <time>2017-07-28T09:59:45Z</time>
      </trkpt>
      <trkpt lat="45.98977" lon="4.82438">
        <ele>236</ele>
        <time>2017-07-28T09:59:46Z</time>
      </trkpt>
      <trkpt lat="45.98975" lon="4.82431">
        <ele>236</ele>
        <time>2017-07-28T09:59:47Z</time>
      </trkpt>
      <trkpt lat="45.98973" lon="4.82423">
        <ele>236</ele>
        <time>2017-07-28T09:59:48Z</time>
      </trkpt>
      <trkpt lat="45.98972" lon="4.82417">
        <ele>236</ele>
        <time>2017-07-28T09:59:49Z</time>
      </trkpt>
      <trkpt lat="45.9897" lon="4.82411">
        <ele>235</ele>
        <time>2017-07-28T09:59:50Z</time>
      </trkpt>
      <trkpt lat="45.98968" lon="4.82405">
        <ele>235</ele>
        <time>2017-07-28T09:59:51Z</time>
      </trkpt>
      <trkpt lat="45.98966" lon="4.82392">
        <ele>235</ele>
        <time>2017-07-28T09:59:53Z</time>
      </trkpt>
      <trkpt lat="45.98964" lon="4.82387">
        <ele>235</ele>
        <time>2017-07-28T09:59:54Z</time>
      </trkpt>
      <trkpt lat="45.98963" lon="4.8238">
        <ele>235</ele>
        <time>2017-07-28T09:59:55Z</time>
      </trkpt>
      <trkpt lat="45.98961" lon="4.82374">
        <ele>235</ele>
        <time>2017-07-28T09:59:56Z</time>
      </trkpt>
      <trkpt lat="45.98959" lon="4.82367">
        <ele>235</ele>
        <time>2017-07-28T09:59:57Z</time>
      </trkpt>
      <trkpt lat="45.98956" lon="4.8236">
        <ele>235</ele>
        <time>2017-07-28T09:59:58Z</time>
      </trkpt>
      <trkpt lat="45.98954" lon="4.82354">
        <ele>235</ele>
        <time>2017-07-28T09:59:59Z</time>
      </trkpt>
      <trkpt lat="45.98951" lon="4.82347">
        <ele>235</ele>
        <time>2017-07-28T10:00:00Z</time>
      </trkpt>
      <trkpt lat="45.98948" lon="4.8234">
        <ele>235</ele>
        <time>2017-07-28T10:00:01Z</time>
      </trkpt>
      <trkpt lat="45.98944" lon="4.82334">
        <ele>235</ele>
        <time>2017-07-28T10:00:02Z</time>
      </trkpt>
      <trkpt lat="45.9894" lon="4.82328">
        <ele>235</ele>
        <time>2017-07-28T10:00:03Z</time>
      </trkpt>
      <trkpt lat="45.98935" lon="4.82322">
        <ele>235</ele>
        <time>2017-07-28T10:00:04Z</time>
      </trkpt>
      <trkpt lat="45.98931" lon="4.82316">
        <ele>235</ele>
        <time>2017-07-28T10:00:05Z</time>
      </trkpt>
      <trkpt lat="45.98927" lon="4.8231">
        <ele>235</ele>
        <time>2017-07-28T10:00:06Z</time>
      </trkpt>
      <trkpt lat="45.98923" lon="4.82305">
        <ele>234</ele>
        <time>2017-07-28T10:00:07Z</time>
      </trkpt>
      <trkpt lat="45.98918" lon="4.82301">
        <ele>234</ele>
        <time>2017-07-28T10:00:08Z</time>
      </trkpt>
      <trkpt lat="45.98914" lon="4.82296">
        <ele>236</ele>
        <time>2017-07-28T10:00:09Z</time>
      </trkpt>
      <trkpt lat="45.9891" lon="4.82292">
        <ele>236</ele>
        <time>2017-07-28T10:00:10Z</time>
      </trkpt>
      <trkpt lat="45.98907" lon="4.82288">
        <ele>236</ele>
        <time>2017-07-28T10:00:11Z</time>
      </trkpt>
      <trkpt lat="45.98903" lon="4.82284">
        <ele>236</ele>
        <time>2017-07-28T10:00:12Z</time>
      </trkpt>
      <trkpt lat="45.98899" lon="4.8228">
        <ele>236</ele>
        <time>2017-07-28T10:00:13Z</time>
      </trkpt>
      <trkpt lat="45.98896" lon="4.82275">
        <ele>236</ele>
        <time>2017-07-28T10:00:14Z</time>
      </trkpt>
      <trkpt lat="45.9889" lon="4.82265">
        <ele>236</ele>
        <time>2017-07-28T10:00:16Z</time>
      </trkpt>
      <trkpt lat="45.98887" lon="4.82259">
        <ele>236</ele>
        <time>2017-07-28T10:00:17Z</time>
      </trkpt>
      <trkpt lat="45.98884" lon="4.82254">
        <ele>236</ele>
        <time>2017-07-28T10:00:18Z</time>
      </trkpt>
      <trkpt lat="45.98882" lon="4.82248">
        <ele>236</ele>
        <time>2017-07-28T10:00:19Z</time>
      </trkpt>
      <trkpt lat="45.98879" lon="4.82242">
        <ele>236</ele>
        <time>2017-07-28T10:00:20Z</time>
      </trkpt>
      <trkpt lat="45.98876" lon="4.82236">
        <ele>236</ele>
        <time>2017-07-28T10:00:21Z</time>
      </trkpt>
      <trkpt lat="45.98874" lon="4.8223">
        <ele>236</ele>
        <time>2017-07-28T10:00:22Z</time>
      </trkpt>
      <trkpt lat="45.98871" lon="4.82224">
        <ele>236</ele>
        <time>2017-07-28T10:00:23Z</time>
      </trkpt>
      <trkpt lat="45.98869" lon="4.82217">
        <ele>236</ele>
        <time>2017-07-28T10:00:24Z</time>
      </trkpt>
      <trkpt lat="45.98867" lon="4.82211">
        <ele>236</ele>
        <time>2017-07-28T10:00:25Z</time>
      </trkpt>
      <trkpt lat="45.98865" lon="4.82205">
        <ele>236</ele>
        <time>2017-07-28T10:00:26Z</time>
      </trkpt>
      <trkpt lat="45.98862" lon="4.82199">
        <ele>236</ele>
        <time>2017-07-28T10:00:27Z</time>
      </trkpt>
      <trkpt lat="45.9886" lon="4.82193">
        <ele>236</ele>
        <time>2017-07-28T10:00:28Z</time>
      </trkpt>
      <trkpt lat="45.98858" lon="4.82187">
        <ele>236</ele>
        <time>2017-07-28T10:00:29Z</time>
      </trkpt>
      <trkpt lat="45.98856" lon="4.82181">
        <ele>236</ele>
        <time>2017-07-28T10:00:30Z</time>
      </trkpt>
      <trkpt lat="45.98854" lon="4.82175">
        <ele>236</ele>
        <time>2017-07-28T10:00:31Z</time>
      </trkpt>
      <trkpt lat="45.98851" lon="4.82168">
        <ele>236</ele>
        <time>2017-07-28T10:00:32Z</time>
      </trkpt>
      <trkpt lat="45.9885" lon="4.82161">
        <ele>236</ele>
        <time>2017-07-28T10:00:33Z</time>
      </trkpt>
      <trkpt lat="45.98848" lon="4.82155">
        <ele>236</ele>
        <time>2017-07-28T10:00:34Z</time>
      </trkpt>
      <trkpt lat="45.98846" lon="4.82147">
        <ele>236</ele>
        <time>2017-07-28T10:00:35Z</time>
      </trkpt>
      <trkpt lat="45.98845" lon="4.8214">
        <ele>236</ele>
        <time>2017-07-28T10:00:36Z</time>
      </trkpt>
      <trkpt lat="45.98843" lon="4.82132">
        <ele>236</ele>
        <time>2017-07-28T10:00:37Z</time>
      </trkpt>
      <trkpt lat="45.98841" lon="4.82124">
        <ele>236</ele>
        <time>2017-07-28T10:00:38Z</time>
      </trkpt>
      <trkpt lat="45.9884" lon="4.82115">
        <ele>235</ele>
        <time>2017-07-28T10:00:39Z</time>
      </trkpt>
      <trkpt lat="45.98838" lon="4.82107">
        <ele>235</ele>
        <time>2017-07-28T10:00:40Z</time>
      </trkpt>
      <trkpt lat="45.98837" lon="4.821">
        <ele>236</ele>
        <time>2017-07-28T10:00:41Z</time>
      </trkpt>
      <trkpt lat="45.98836" lon="4.82093">
        <ele>236</ele>
        <time>2017-07-28T10:00:42Z</time>
      </trkpt>
      <trkpt lat="45.98834" lon="4.82087">
        <ele>236</ele>
        <time>2017-07-28T10:00:43Z</time>
      </trkpt>
      <trkpt lat="45.98833" lon="4.8208">
        <ele>236</ele>
        <time>2017-07-28T10:00:44Z</time>
      </trkpt>
      <trkpt lat="45.98832" lon="4.82074">
        <ele>237</ele>
        <time>2017-07-28T10:00:45Z</time>
      </trkpt>
      <trkpt lat="45.98831" lon="4.82067">
        <ele>237</ele>
        <time>2017-07-28T10:00:46Z</time>
      </trkpt>
      <trkpt lat="45.9883" lon="4.82061">
        <ele>237</ele>
        <time>2017-07-28T10:00:47Z</time>
      </trkpt>
      <trkpt lat="45.98829" lon="4.82054">
        <ele>237</ele>
        <time>2017-07-28T10:00:48Z</time>
      </trkpt>
      <trkpt lat="45.98828" lon="4.82047">
        <ele>238</ele>
        <time>2017-07-28T10:00:49Z</time>
      </trkpt>
      <trkpt lat="45.98827" lon="4.8204">
        <ele>238</ele>
        <time>2017-07-28T10:00:50Z</time>
      </trkpt>
      <trkpt lat="45.98825" lon="4.82033">
        <ele>238</ele>
        <time>2017-07-28T10:00:51Z</time>
      </trkpt>
      <trkpt lat="45.98824" lon="4.82026">
        <ele>238</ele>
        <time>2017-07-28T10:00:52Z</time>
      </trkpt>
      <trkpt lat="45.98823" lon="4.82019">
        <ele>238</ele>
        <time>2017-07-28T10:00:53Z</time>
      </trkpt>
      <trkpt lat="45.98822" lon="4.82011">
        <ele>238</ele>
        <time>2017-07-28T10:00:54Z</time>
      </trkpt>
      <trkpt lat="45.9882" lon="4.82003">
        <ele>238</ele>
        <time>2017-07-28T10:00:55Z</time>
      </trkpt>
      <trkpt lat="45.98819" lon="4.81996">
        <ele>238</ele>
        <time>2017-07-28T10:00:56Z</time>
      </trkpt>
      <trkpt lat="45.98817" lon="4.81988">
        <ele>238</ele>
        <time>2017-07-28T10:00:57Z</time>
      </trkpt>
      <trkpt lat="45.98816" lon="4.81981">
        <ele>239</ele>
        <time>2017-07-28T10:00:58Z</time>
      </trkpt>
      <trkpt lat="45.98815" lon="4.81974">
        <ele>239</ele>
        <time>2017-07-28T10:00:59Z</time>
      </trkpt>
      <trkpt lat="45.98813" lon="4.81968">
        <ele>239</ele>
        <time>2017-07-28T10:01:00Z</time>
      </trkpt>
      <trkpt lat="45.98812" lon="4.81961">
        <ele>239</ele>
        <time>2017-07-28T10:01:01Z</time>
      </trkpt>
      <trkpt lat="45.98811" lon="4.81954">
        <ele>239</ele>
        <time>2017-07-28T10:01:02Z</time>
      </trkpt>
      <trkpt lat="45.9881" lon="4.81947">
        <ele>239</ele>
        <time>2017-07-28T10:01:03Z</time>
      </trkpt>
      <trkpt lat="45.98809" lon="4.81941">
        <ele>239</ele>
        <time>2017-07-28T10:01:04Z</time>
      </trkpt>
      <trkpt lat="45.98808" lon="4.81934">
        <ele>239</ele>
        <time>2017-07-28T10:01:05Z</time>
      </trkpt>
      <trkpt lat="45.98807" lon="4.81926">
        <ele>239</ele>
        <time>2017-07-28T10:01:06Z</time>
      </trkpt>
      <trkpt lat="45.98806" lon="4.81919">
        <ele>239</ele>
        <time>2017-07-28T10:01:07Z</time>
      </trkpt>
      <trkpt lat="45.98804" lon="4.81912">
        <ele>239</ele>
        <time>2017-07-28T10:01:08Z</time>
      </trkpt>
      <trkpt lat="45.98803" lon="4.81904">
        <ele>239</ele>
        <time>2017-07-28T10:01:09Z</time>
      </trkpt>
      <trkpt lat="45.98801" lon="4.81897">
        <ele>239</ele>
        <time>2017-07-28T10:01:10Z</time>
      </trkpt>
      <trkpt lat="45.988" lon="4.8189">
        <ele>239</ele>
        <time>2017-07-28T10:01:11Z</time>
      </trkpt>
      <trkpt lat="45.98798" lon="4.81883">
        <ele>239</ele>
        <time>2017-07-28T10:01:12Z</time>
      </trkpt>
      <trkpt lat="45.98797" lon="4.81878">
        <ele>239</ele>
        <time>2017-07-28T10:01:13Z</time>
      </trkpt>
      <trkpt lat="45.98793" lon="4.81867">
        <ele>239</ele>
        <time>2017-07-28T10:01:15Z</time>
      </trkpt>
      <trkpt lat="45.98791" lon="4.81862">
        <ele>239</ele>
        <time>2017-07-28T10:01:16Z</time>
      </trkpt>
      <trkpt lat="45.98788" lon="4.81856">
        <ele>239</ele>
        <time>2017-07-28T10:01:17Z</time>
      </trkpt>
      <trkpt lat="45.98786" lon="4.81851">
        <ele>239</ele>
        <time>2017-07-28T10:01:18Z</time>
      </trkpt>
      <trkpt lat="45.98783" lon="4.81844">
        <ele>239</ele>
        <time>2017-07-28T10:01:19Z</time>
      </trkpt>
      <trkpt lat="45.9878" lon="4.81838">
        <ele>239</ele>
        <time>2017-07-28T10:01:20Z</time>
      </trkpt>
      <trkpt lat="45.98777" lon="4.81832">
        <ele>240</ele>
        <time>2017-07-28T10:01:21Z</time>
      </trkpt>
      <trkpt lat="45.98773" lon="4.81826">
        <ele>240</ele>
        <time>2017-07-28T10:01:22Z</time>
      </trkpt>
      <trkpt lat="45.98771" lon="4.8182">
        <ele>240</ele>
        <time>2017-07-28T10:01:23Z</time>
      </trkpt>
      <trkpt lat="45.98768" lon="4.81814">
        <ele>240</ele>
        <time>2017-07-28T10:01:24Z</time>
      </trkpt>
      <trkpt lat="45.98765" lon="4.81808">
        <ele>240</ele>
        <time>2017-07-28T10:01:25Z</time>
      </trkpt>
      <trkpt lat="45.98762" lon="4.81803">
        <ele>240</ele>
        <time>2017-07-28T10:01:26Z</time>
      </trkpt>
      <trkpt lat="45.98758" lon="4.81792">
        <ele>240</ele>
        <time>2017-07-28T10:01:28Z</time>
      </trkpt>
      <trkpt lat="45.98755" lon="4.81787">
        <ele>241</ele>
        <time>2017-07-28T10:01:29Z</time>
      </trkpt>
      <trkpt lat="45.9875" lon="4.81777">
        <ele>241</ele>
        <time>2017-07-28T10:01:31Z</time>
      </trkpt>
      <trkpt lat="45.98748" lon="4.81772">
        <ele>240</ele>
        <time>2017-07-28T10:01:32Z</time>
      </trkpt>
      <trkpt lat="45.98745" lon="4.81763">
        <ele>240</ele>
        <time>2017-07-28T10:01:34Z</time>
      </trkpt>
      <trkpt lat="45.98743" lon="4.81758">
        <ele>240</ele>
        <time>2017-07-28T10:01:35Z</time>
      </trkpt>
      <trkpt lat="45.98738" lon="4.81748">
        <ele>240</ele>
        <time>2017-07-28T10:01:37Z</time>
      </trkpt>
      <trkpt lat="45.98735" lon="4.81743">
        <ele>240</ele>
        <time>2017-07-28T10:01:38Z</time>
      </trkpt>
      <trkpt lat="45.98732" lon="4.81738">
        <ele>240</ele>
        <time>2017-07-28T10:01:39Z</time>
      </trkpt>
      <trkpt lat="45.98728" lon="4.81734">
        <ele>239</ele>
        <time>2017-07-28T10:01:40Z</time>
      </trkpt>
      <trkpt lat="45.98724" lon="4.81731">
        <ele>239</ele>
        <time>2017-07-28T10:01:41Z</time>
      </trkpt>
      <trkpt lat="45.98719" lon="4.8173">
        <ele>239</ele>
        <time>2017-07-28T10:01:42Z</time>
      </trkpt>
      <trkpt lat="45.98711" lon="4.81731">
        <ele>239</ele>
        <time>2017-07-28T10:01:44Z</time>
      </trkpt>
      <trkpt lat="45.98707" lon="4.81731">
        <ele>239</ele>
        <time>2017-07-28T10:01:45Z</time>
      </trkpt>
      <trkpt lat="45.987" lon="4.81731">
        <ele>239</ele>
        <time>2017-07-28T10:01:47Z</time>
      </trkpt>
      <trkpt lat="45.98696" lon="4.81733">
        <ele>239</ele>
        <time>2017-07-28T10:01:48Z</time>
      </trkpt>
      <trkpt lat="45.98688" lon="4.81735">
        <ele>238</ele>
        <time>2017-07-28T10:01:50Z</time>
      </trkpt>
      <trkpt lat="45.98684" lon="4.81735">
        <ele>238</ele>
        <time>2017-07-28T10:01:51Z</time>
      </trkpt>
      <trkpt lat="45.98677" lon="4.81736">
        <ele>238</ele>
        <time>2017-07-28T10:01:53Z</time>
      </trkpt>
      <trkpt lat="45.98673" lon="4.81737">
        <ele>238</ele>
        <time>2017-07-28T10:01:54Z</time>
      </trkpt>
      <trkpt lat="45.98668" lon="4.81738">
        <ele>238</ele>
        <time>2017-07-28T10:01:55Z</time>
      </trkpt>
      <trkpt lat="45.98663" lon="4.8174">
        <ele>237</ele>
        <time>2017-07-28T10:01:56Z</time>
      </trkpt>
      <trkpt lat="45.98655" lon="4.81742">
        <ele>237</ele>
        <time>2017-07-28T10:01:58Z</time>
      </trkpt>
      <trkpt lat="45.9865" lon="4.81743">
        <ele>237</ele>
        <time>2017-07-28T10:01:59Z</time>
      </trkpt>
      <trkpt lat="45.98646" lon="4.81744">
        <ele>237</ele>
        <time>2017-07-28T10:02:00Z</time>
      </trkpt>
      <trkpt lat="45.98641" lon="4.81745">
        <ele>237</ele>
        <time>2017-07-28T10:02:01Z</time>
      </trkpt>
      <trkpt lat="45.98637" lon="4.81747">
        <ele>237</ele>
        <time>2017-07-28T10:02:02Z</time>
      </trkpt>
      <trkpt lat="45.98633" lon="4.81749">
        <ele>237</ele>
        <time>2017-07-28T10:02:03Z</time>
      </trkpt>
      <trkpt lat="45.98628" lon="4.81751">
        <ele>238</ele>
        <time>2017-07-28T10:02:04Z</time>
      </trkpt>
      <trkpt lat="45.98623" lon="4.81753">
        <ele>238</ele>
        <time>2017-07-28T10:02:05Z</time>
      </trkpt>
      <trkpt lat="45.98618" lon="4.81754">
        <ele>238</ele>
        <time>2017-07-28T10:02:06Z</time>
      </trkpt>
      <trkpt lat="45.98613" lon="4.81756">
        <ele>238</ele>
        <time>2017-07-28T10:02:07Z</time>
      </trkpt>
      <trkpt lat="45.98607" lon="4.81757">
        <ele>238</ele>
        <time>2017-07-28T10:02:08Z</time>
      </trkpt>
      <trkpt lat="45.98602" lon="4.8176">
        <ele>238</ele>
        <time>2017-07-28T10:02:09Z</time>
      </trkpt>
      <trkpt lat="45.98597" lon="4.81763">
        <ele>238</ele>
        <time>2017-07-28T10:02:10Z</time>
      </trkpt>
      <trkpt lat="45.98591" lon="4.81767">
        <ele>238</ele>
        <time>2017-07-28T10:02:11Z</time>
      </trkpt>
      <trkpt lat="45.98587" lon="4.81771">
        <ele>238</ele>
        <time>2017-07-28T10:02:12Z</time>
      </trkpt>
      <trkpt lat="45.98582" lon="4.81775">
        <ele>237</ele>
        <time>2017-07-28T10:02:13Z</time>
      </trkpt>
      <trkpt lat="45.98579" lon="4.8178">
        <ele>238</ele>
        <time>2017-07-28T10:02:14Z</time>
      </trkpt>
      <trkpt lat="45.98575" lon="4.81786">
        <ele>238</ele>
        <time>2017-07-28T10:02:15Z</time>
      </trkpt>
      <trkpt lat="45.9857" lon="4.81791">
        <ele>238</ele>
        <time>2017-07-28T10:02:16Z</time>
      </trkpt>
      <trkpt lat="45.98566" lon="4.81796">
        <ele>238</ele>
        <time>2017-07-28T10:02:17Z</time>
      </trkpt>
      <trkpt lat="45.98562" lon="4.818">
        <ele>238</ele>
        <time>2017-07-28T10:02:18Z</time>
      </trkpt>
      <trkpt lat="45.98558" lon="4.81803">
        <ele>238</ele>
        <time>2017-07-28T10:02:19Z</time>
      </trkpt>
      <trkpt lat="45.98553" lon="4.81804">
        <ele>238</ele>
        <time>2017-07-28T10:02:20Z</time>
      </trkpt>
      <trkpt lat="45.98548" lon="4.81803">
        <ele>238</ele>
        <time>2017-07-28T10:02:21Z</time>
      </trkpt>
      <trkpt lat="45.98542" lon="4.81803">
        <ele>238</ele>
        <time>2017-07-28T10:02:22Z</time>
      </trkpt>
      <trkpt lat="45.98538" lon="4.818">
        <ele>238</ele>
        <time>2017-07-28T10:02:23Z</time>
      </trkpt>
      <trkpt lat="45.98534" lon="4.81796">
        <ele>238</ele>
        <time>2017-07-28T10:02:24Z</time>
      </trkpt>
      <trkpt lat="45.9853" lon="4.81791">
        <ele>238</ele>
        <time>2017-07-28T10:02:25Z</time>
      </trkpt>
      <trkpt lat="45.98525" lon="4.81786">
        <ele>238</ele>
        <time>2017-07-28T10:02:26Z</time>
      </trkpt>
      <trkpt lat="45.98521" lon="4.81781">
        <ele>238</ele>
        <time>2017-07-28T10:02:27Z</time>
      </trkpt>
      <trkpt lat="45.98518" lon="4.81775">
        <ele>238</ele>
        <time>2017-07-28T10:02:28Z</time>
      </trkpt>
      <trkpt lat="45.98514" lon="4.8177">
        <ele>238</ele>
        <time>2017-07-28T10:02:29Z</time>
      </trkpt>
      <trkpt lat="45.98511" lon="4.81764">
        <ele>237</ele>
        <time>2017-07-28T10:02:30Z</time>
      </trkpt>
      <trkpt lat="45.98507" lon="4.81759">
        <ele>237</ele>
        <time>2017-07-28T10:02:31Z</time>
      </trkpt>
      <trkpt lat="45.98503" lon="4.81755">
        <ele>237</ele>
        <time>2017-07-28T10:02:32Z</time>
      </trkpt>
      <trkpt lat="45.985" lon="4.81751">
        <ele>237</ele>
        <time>2017-07-28T10:02:33Z</time>
      </trkpt>
      <trkpt lat="45.98492" lon="4.81745">
        <ele>238</ele>
        <time>2017-07-28T10:02:35Z</time>
      </trkpt>
      <trkpt lat="45.98489" lon="4.81741">
        <ele>238</ele>
        <time>2017-07-28T10:02:36Z</time>
      </trkpt>
      <trkpt lat="45.98482" lon="4.81733">
        <ele>238</ele>
        <time>2017-07-28T10:02:38Z</time>
      </trkpt>
      <trkpt lat="45.98478" lon="4.8173">
        <ele>238</ele>
        <time>2017-07-28T10:02:39Z</time>
      </trkpt>
      <trkpt lat="45.98471" lon="4.81722">
        <ele>239</ele>
        <time>2017-07-28T10:02:41Z</time>
      </trkpt>
      <trkpt lat="45.98468" lon="4.81718">
        <ele>239</ele>
        <time>2017-07-28T10:02:42Z</time>
      </trkpt>
      <trkpt lat="45.98464" lon="4.81714">
        <ele>239</ele>
        <time>2017-07-28T10:02:43Z</time>
      </trkpt>
      <trkpt lat="45.98461" lon="4.81708">
        <ele>239</ele>
        <time>2017-07-28T10:02:44Z</time>
      </trkpt>
      <trkpt lat="45.98458" lon="4.81703">
        <ele>239</ele>
        <time>2017-07-28T10:02:45Z</time>
      </trkpt>
      <trkpt lat="45.98455" lon="4.81697">
        <ele>239</ele>
        <time>2017-07-28T10:02:46Z</time>
      </trkpt>
      <trkpt lat="45.98452" lon="4.81692">
        <ele>239</ele>
        <time>2017-07-28T10:02:47Z</time>
      </trkpt>
      <trkpt lat="45.98449" lon="4.81686">
        <ele>239</ele>
        <time>2017-07-28T10:02:48Z</time>
      </trkpt>
      <trkpt lat="45.98445" lon="4.81681">
        <ele>239</ele>
        <time>2017-07-28T10:02:49Z</time>
      </trkpt>
      <trkpt lat="45.98441" lon="4.81677">
        <ele>240</ele>
        <time>2017-07-28T10:02:50Z</time>
      </trkpt>
      <trkpt lat="45.98433" lon="4.8167">
        <ele>240</ele>
        <time>2017-07-28T10:02:52Z</time>
      </trkpt>
      <trkpt lat="45.9843" lon="4.81668">
        <ele>240</ele>
        <time>2017-07-28T10:02:53Z</time>
      </trkpt>
      <trkpt lat="45.98425" lon="4.81667">
        <ele>240</ele>
        <time>2017-07-28T10:02:54Z</time>
      </trkpt>
      <trkpt lat="45.98421" lon="4.81665">
        <ele>240</ele>
        <time>2017-07-28T10:02:55Z</time>
      </trkpt>
      <trkpt lat="45.98416" lon="4.81665">
        <ele>241</ele>
        <time>2017-07-28T10:02:56Z</time>
      </trkpt>
      <trkpt lat="45.98411" lon="4.81665">
        <ele>241</ele>
        <time>2017-07-28T10:02:57Z</time>
      </trkpt>
      <trkpt lat="45.98406" lon="4.81666">
        <ele>241</ele>
        <time>2017-07-28T10:02:58Z</time>
      </trkpt>
      <trkpt lat="45.98401" lon="4.81667">
        <ele>242</ele>
        <time>2017-07-28T10:02:59Z</time>
      </trkpt>
      <trkpt lat="45.98396" lon="4.81668">
        <ele>243</ele>
        <time>2017-07-28T10:03:00Z</time>
      </trkpt>
      <trkpt lat="45.98391" lon="4.81669">
        <ele>243</ele>
        <time>2017-07-28T10:03:01Z</time>
      </trkpt>
      <trkpt lat="45.98383" lon="4.81671">
        <ele>243</ele>
        <time>2017-07-28T10:03:03Z</time>
      </trkpt>
      <trkpt lat="45.98378" lon="4.81672">
        <ele>244</ele>
        <time>2017-07-28T10:03:04Z</time>
      </trkpt>
      <trkpt lat="45.9837" lon="4.81673">
        <ele>244</ele>
        <time>2017-07-28T10:03:06Z</time>
      </trkpt>
      <trkpt lat="45.98366" lon="4.81674">
        <ele>244</ele>
        <time>2017-07-28T10:03:07Z</time>
      </trkpt>
      <trkpt lat="45.98358" lon="4.81675">
        <ele>245</ele>
        <time>2017-07-28T10:03:09Z</time>
      </trkpt>
      <trkpt lat="45.98354" lon="4.81675">
        <ele>245</ele>
        <time>2017-07-28T10:03:10Z</time>
      </trkpt>
      <trkpt lat="45.98349" lon="4.81675">
        <ele>245</ele>
        <time>2017-07-28T10:03:11Z</time>
      </trkpt>
      <trkpt lat="45.98345" lon="4.81674">
        <ele>245</ele>
        <time>2017-07-28T10:03:12Z</time>
      </trkpt>
      <trkpt lat="45.9834" lon="4.81673">
        <ele>245</ele>
        <time>2017-07-28T10:03:13Z</time>
      </trkpt>
      <trkpt lat="45.98336" lon="4.81671">
        <ele>246</ele>
        <time>2017-07-28T10:03:14Z</time>
      </trkpt>
      <trkpt lat="45.98328" lon="4.81668">
        <ele>246</ele>
        <time>2017-07-28T10:03:16Z</time>
      </trkpt>
      <trkpt lat="45.98325" lon="4.81666">
        <ele>246</ele>
        <time>2017-07-28T10:03:17Z</time>
      </trkpt>
      <trkpt lat="45.98319" lon="4.8166">
        <ele>246</ele>
        <time>2017-07-28T10:03:19Z</time>
      </trkpt>
      <trkpt lat="45.98315" lon="4.81657">
        <ele>246</ele>
        <time>2017-07-28T10:03:20Z</time>
      </trkpt>
      <trkpt lat="45.98308" lon="4.81651">
        <ele>246</ele>
        <time>2017-07-28T10:03:22Z</time>
      </trkpt>
      <trkpt lat="45.98305" lon="4.81646">
        <ele>246</ele>
        <time>2017-07-28T10:03:23Z</time>
      </trkpt>
      <trkpt lat="45.983" lon="4.81642">
        <ele>247</ele>
        <time>2017-07-28T10:03:24Z</time>
      </trkpt>
      <trkpt lat="45.98297" lon="4.81639">
        <ele>247</ele>
        <time>2017-07-28T10:03:25Z</time>
      </trkpt>
      <trkpt lat="45.9829" lon="4.81631">
        <ele>247</ele>
        <time>2017-07-28T10:03:27Z</time>
      </trkpt>
      <trkpt lat="45.98287" lon="4.81627">
        <ele>247</ele>
        <time>2017-07-28T10:03:28Z</time>
      </trkpt>
      <trkpt lat="45.98281" lon="4.81618">
        <ele>247</ele>
        <time>2017-07-28T10:03:30Z</time>
      </trkpt>
      <trkpt lat="45.98278" lon="4.81613">
        <ele>247</ele>
        <time>2017-07-28T10:03:31Z</time>
      </trkpt>
      <trkpt lat="45.98274" lon="4.81602">
        <ele>247</ele>
        <time>2017-07-28T10:03:33Z</time>
      </trkpt>
      <trkpt lat="45.98272" lon="4.81596">
        <ele>247</ele>
        <time>2017-07-28T10:03:34Z</time>
      </trkpt>
      <trkpt lat="45.9827" lon="4.8159">
        <ele>247</ele>
        <time>2017-07-28T10:03:35Z</time>
      </trkpt>
      <trkpt lat="45.98267" lon="4.81584">
        <ele>247</ele>
        <time>2017-07-28T10:03:36Z</time>
      </trkpt>
      <trkpt lat="45.98265" lon="4.81578">
        <ele>247</ele>
        <time>2017-07-28T10:03:37Z</time>
      </trkpt>
      <trkpt lat="45.98263" lon="4.81572">
        <ele>247</ele>
        <time>2017-07-28T10:03:38Z</time>
      </trkpt>
      <trkpt lat="45.98259" lon="4.81561">
        <ele>247</ele>
        <time>2017-07-28T10:03:40Z</time>
      </trkpt>
      <trkpt lat="45.98258" lon="4.81555">
        <ele>247</ele>
        <time>2017-07-28T10:03:41Z</time>
      </trkpt>
      <trkpt lat="45.98255" lon="4.81544">
        <ele>247</ele>
        <time>2017-07-28T10:03:43Z</time>
      </trkpt>
      <trkpt lat="45.98253" lon="4.81537">
        <ele>247</ele>
        <time>2017-07-28T10:03:44Z</time>
      </trkpt>
      <trkpt lat="45.9825" lon="4.8153">
        <ele>247</ele>
        <time>2017-07-28T10:03:45Z</time>
      </trkpt>
      <trkpt lat="45.98248" lon="4.81523">
        <ele>249</ele>
        <time>2017-07-28T10:03:46Z</time>
      </trkpt>
      <trkpt lat="45.98245" lon="4.81516">
        <ele>249</ele>
        <time>2017-07-28T10:03:47Z</time>
      </trkpt>
      <trkpt lat="45.98243" lon="4.81509">
        <ele>249</ele>
        <time>2017-07-28T10:03:48Z</time>
      </trkpt>
      <trkpt lat="45.9824" lon="4.81503">
        <ele>249</ele>
        <time>2017-07-28T10:03:49Z</time>
      </trkpt>
      <trkpt lat="45.98238" lon="4.81496">
        <ele>249</ele>
        <time>2017-07-28T10:03:50Z</time>
      </trkpt>
      <trkpt lat="45.98235" lon="4.81485">
        <ele>249</ele>
        <time>2017-07-28T10:03:52Z</time>
      </trkpt>
      <trkpt lat="45.98233" lon="4.81479">
        <ele>249</ele>
        <time>2017-07-28T10:03:53Z</time>
      </trkpt>
      <trkpt lat="45.98231" lon="4.81468">
        <ele>249</ele>
        <time>2017-07-28T10:03:55Z</time>
      </trkpt>
      <trkpt lat="45.98228" lon="4.81462">
        <ele>249</ele>
        <time>2017-07-28T10:03:56Z</time>
      </trkpt>
      <trkpt lat="45.98226" lon="4.81455">
        <ele>249</ele>
        <time>2017-07-28T10:03:57Z</time>
      </trkpt>
      <trkpt lat="45.98223" lon="4.81448">
        <ele>249</ele>
        <time>2017-07-28T10:03:58Z</time>
      </trkpt>
      <trkpt lat="45.9822" lon="4.81437">
        <ele>249</ele>
        <time>2017-07-28T10:04:00Z</time>
      </trkpt>
      <trkpt lat="45.98218" lon="4.81431">
        <ele>249</ele>
        <time>2017-07-28T10:04:01Z</time>
      </trkpt>
      <trkpt lat="45.98215" lon="4.8142">
        <ele>249</ele>
        <time>2017-07-28T10:04:03Z</time>
      </trkpt>
      <trkpt lat="45.98213" lon="4.81415">
        <ele>248</ele>
        <time>2017-07-28T10:04:04Z</time>
      </trkpt>
      <trkpt lat="45.98209" lon="4.81405">
        <ele>248</ele>
        <time>2017-07-28T10:04:06Z</time>
      </trkpt>
      <trkpt lat="45.98207" lon="4.814">
        <ele>248</ele>
        <time>2017-07-28T10:04:07Z</time>
      </trkpt>
      <trkpt lat="45.98204" lon="4.8139">
        <ele>248</ele>
        <time>2017-07-28T10:04:09Z</time>
      </trkpt>
      <trkpt lat="45.98202" lon="4.81384">
        <ele>248</ele>
        <time>2017-07-28T10:04:10Z</time>
      </trkpt>
      <trkpt lat="45.982" lon="4.81372">
        <ele>248</ele>
        <time>2017-07-28T10:04:12Z</time>
      </trkpt>
      <trkpt lat="45.98198" lon="4.81366">
        <ele>248</ele>
        <time>2017-07-28T10:04:13Z</time>
      </trkpt>
      <trkpt lat="45.98197" lon="4.8136">
        <ele>248</ele>
        <time>2017-07-28T10:04:14Z</time>
      </trkpt>
      <trkpt lat="45.98195" lon="4.81354">
        <ele>248</ele>
        <time>2017-07-28T10:04:15Z</time>
      </trkpt>
      <trkpt lat="45.98193" lon="4.81346">
        <ele>248</ele>
        <time>2017-07-28T10:04:16Z</time>
      </trkpt>
      <trkpt lat="45.98193" lon="4.81339">
        <ele>248</ele>
        <time>2017-07-28T10:04:17Z</time>
      </trkpt>
      <trkpt lat="45.98192" lon="4.81332">
        <ele>247</ele>
        <time>2017-07-28T10:04:18Z</time>
      </trkpt>
      <trkpt lat="45.9819" lon="4.81325">
        <ele>247</ele>
        <time>2017-07-28T10:04:19Z</time>
      </trkpt>
      <trkpt lat="45.98188" lon="4.81319">
        <ele>247</ele>
        <time>2017-07-28T10:04:20Z</time>
      </trkpt>
      <trkpt lat="45.98186" lon="4.81312">
        <ele>247</ele>
        <time>2017-07-28T10:04:21Z</time>
      </trkpt>
      <trkpt lat="45.98184" lon="4.81306">
        <ele>247</ele>
        <time>2017-07-28T10:04:22Z</time>
      </trkpt>
      <trkpt lat="45.98183" lon="4.81299">
        <ele>247</ele>
        <time>2017-07-28T10:04:23Z</time>
      </trkpt>
      <trkpt lat="45.98182" lon="4.81293">
        <ele>247</ele>
        <time>2017-07-28T10:04:24Z</time>
      </trkpt>
      <trkpt lat="45.9818" lon="4.81286">
        <ele>247</ele>
        <time>2017-07-28T10:04:25Z</time>
      </trkpt>
      <trkpt lat="45.98179" lon="4.8128">
        <ele>247</ele>
        <time>2017-07-28T10:04:26Z</time>
      </trkpt>
      <trkpt lat="45.98177" lon="4.81274">
        <ele>247</ele>
        <time>2017-07-28T10:04:27Z</time>
      </trkpt>
      <trkpt lat="45.98175" lon="4.81268">
        <ele>247</ele>
        <time>2017-07-28T10:04:28Z</time>
      </trkpt>
      <trkpt lat="45.98174" lon="4.81261">
        <ele>247</ele>
        <time>2017-07-28T10:04:29Z</time>
      </trkpt>
      <trkpt lat="45.98172" lon="4.81255">
        <ele>248</ele>
        <time>2017-07-28T10:04:30Z</time>
      </trkpt>
      <trkpt lat="45.98171" lon="4.81249">
        <ele>248</ele>
        <time>2017-07-28T10:04:31Z</time>
      </trkpt>
      <trkpt lat="45.98169" lon="4.81242">
        <ele>247</ele>
        <time>2017-07-28T10:04:32Z</time>
      </trkpt>
      <trkpt lat="45.98168" lon="4.81236">
        <ele>247</ele>
        <time>2017-07-28T10:04:33Z</time>
      </trkpt>
      <trkpt lat="45.98167" lon="4.81229">
        <ele>246</ele>
        <time>2017-07-28T10:04:34Z</time>
      </trkpt>
      <trkpt lat="45.98166" lon="4.81222">
        <ele>247</ele>
        <time>2017-07-28T10:04:35Z</time>
      </trkpt>
      <trkpt lat="45.98167" lon="4.81215">
        <ele>247</ele>
        <time>2017-07-28T10:04:36Z</time>
      </trkpt>
      <trkpt lat="45.98166" lon="4.81208">
        <ele>247</ele>
        <time>2017-07-28T10:04:37Z</time>
      </trkpt>
      <trkpt lat="45.98166" lon="4.81201">
        <ele>246</ele>
        <time>2017-07-28T10:04:38Z</time>
      </trkpt>
      <trkpt lat="45.98166" lon="4.81194">
        <ele>246</ele>
        <time>2017-07-28T10:04:39Z</time>
      </trkpt>
      <trkpt lat="45.98165" lon="4.81187">
        <ele>246</ele>
        <time>2017-07-28T10:04:40Z</time>
      </trkpt>
      <trkpt lat="45.98163" lon="4.81179">
        <ele>246</ele>
        <time>2017-07-28T10:04:41Z</time>
      </trkpt>
      <trkpt lat="45.98161" lon="4.81172">
        <ele>245</ele>
        <time>2017-07-28T10:04:42Z</time>
      </trkpt>
      <trkpt lat="45.98159" lon="4.81164">
        <ele>245</ele>
        <time>2017-07-28T10:04:43Z</time>
      </trkpt>
      <trkpt lat="45.98156" lon="4.81157">
        <ele>245</ele>
        <time>2017-07-28T10:04:44Z</time>
      </trkpt>
      <trkpt lat="45.98153" lon="4.8115">
        <ele>245</ele>
        <time>2017-07-28T10:04:45Z</time>
      </trkpt>
      <trkpt lat="45.9815" lon="4.81143">
        <ele>245</ele>
        <time>2017-07-28T10:04:46Z</time>
      </trkpt>
      <trkpt lat="45.98147" lon="4.81136">
        <ele>245</ele>
        <time>2017-07-28T10:04:47Z</time>
      </trkpt>
      <trkpt lat="45.98144" lon="4.81129">
        <ele>245</ele>
        <time>2017-07-28T10:04:48Z</time>
      </trkpt>
      <trkpt lat="45.98142" lon="4.81122">
        <ele>245</ele>
        <time>2017-07-28T10:04:49Z</time>
      </trkpt>
      <trkpt lat="45.98139" lon="4.81115">
        <ele>245</ele>
        <time>2017-07-28T10:04:50Z</time>
      </trkpt>
      <trkpt lat="45.98136" lon="4.81108">
        <ele>245</ele>
        <time>2017-07-28T10:04:51Z</time>
      </trkpt>
      <trkpt lat="45.98133" lon="4.81101">
        <ele>245</ele>
        <time>2017-07-28T10:04:52Z</time>
      </trkpt>
      <trkpt lat="45.98131" lon="4.81094">
        <ele>245</ele>
        <time>2017-07-28T10:04:53Z</time>
      </trkpt>
      <trkpt lat="45.98128" lon="4.81087">
        <ele>245</ele>
        <time>2017-07-28T10:04:54Z</time>
      </trkpt>
      <trkpt lat="45.98125" lon="4.8108">
        <ele>243</ele>
        <time>2017-07-28T10:04:55Z</time>
      </trkpt>
      <trkpt lat="45.98122" lon="4.81071">
        <ele>243</ele>
        <time>2017-07-28T10:04:56Z</time>
      </trkpt>
      <trkpt lat="45.98119" lon="4.81064">
        <ele>243</ele>
        <time>2017-07-28T10:04:57Z</time>
      </trkpt>
      <trkpt lat="45.98116" lon="4.81057">
        <ele>243</ele>
        <time>2017-07-28T10:04:58Z</time>
      </trkpt>
      <trkpt lat="45.98114" lon="4.8105">
        <ele>243</ele>
        <time>2017-07-28T10:04:59Z</time>
      </trkpt>
      <trkpt lat="45.98111" lon="4.81043">
        <ele>242</ele>
        <time>2017-07-28T10:05:00Z</time>
      </trkpt>
      <trkpt lat="45.98108" lon="4.81037">
        <ele>242</ele>
        <time>2017-07-28T10:05:01Z</time>
      </trkpt>
      <trkpt lat="45.98106" lon="4.81031">
        <ele>242</ele>
        <time>2017-07-28T10:05:02Z</time>
      </trkpt>
      <trkpt lat="45.98104" lon="4.81024">
        <ele>242</ele>
        <time>2017-07-28T10:05:03Z</time>
      </trkpt>
      <trkpt lat="45.98102" lon="4.81018">
        <ele>242</ele>
        <time>2017-07-28T10:05:04Z</time>
      </trkpt>
      <trkpt lat="45.981" lon="4.81012">
        <ele>242</ele>
        <time>2017-07-28T10:05:05Z</time>
      </trkpt>
      <trkpt lat="45.98096" lon="4.81002">
        <ele>242</ele>
        <time>2017-07-28T10:05:07Z</time>
      </trkpt>
      <trkpt lat="45.98095" lon="4.80997">
        <ele>240</ele>
        <time>2017-07-28T10:05:08Z</time>
      </trkpt>
      <trkpt lat="45.98094" lon="4.80989">
        <ele>240</ele>
        <time>2017-07-28T10:05:10Z</time>
      </trkpt>
      <trkpt lat="45.98093" lon="4.80984">
        <ele>240</ele>
        <time>2017-07-28T10:05:11Z</time>
      </trkpt>
      <trkpt lat="45.9809" lon="4.80973">
        <ele>239</ele>
        <time>2017-07-28T10:05:13Z</time>
      </trkpt>
      <trkpt lat="45.98088" lon="4.80967">
        <ele>239</ele>
        <time>2017-07-28T10:05:14Z</time>
      </trkpt>
      <trkpt lat="45.98087" lon="4.8096">
        <ele>239</ele>
        <time>2017-07-28T10:05:15Z</time>
      </trkpt>
      <trkpt lat="45.98085" lon="4.80951">
        <ele>238</ele>
        <time>2017-07-28T10:05:16Z</time>
      </trkpt>
      <trkpt lat="45.98083" lon="4.80942">
        <ele>240</ele>
        <time>2017-07-28T10:05:17Z</time>
      </trkpt>
      <trkpt lat="45.9808" lon="4.80932">
        <ele>240</ele>
        <time>2017-07-28T10:05:18Z</time>
      </trkpt>
      <trkpt lat="45.98078" lon="4.80922">
        <ele>240</ele>
        <time>2017-07-28T10:05:19Z</time>
      </trkpt>
      <trkpt lat="45.98075" lon="4.80911">
        <ele>238</ele>
        <time>2017-07-28T10:05:20Z</time>
      </trkpt>
      <trkpt lat="45.98073" lon="4.809">
        <ele>238</ele>
        <time>2017-07-28T10:05:21Z</time>
      </trkpt>
      <trkpt lat="45.9807" lon="4.80889">
        <ele>238</ele>
        <time>2017-07-28T10:05:22Z</time>
      </trkpt>
      <trkpt lat="45.98067" lon="4.80877">
        <ele>237</ele>
        <time>2017-07-28T10:05:23Z</time>
      </trkpt>
      <trkpt lat="45.98064" lon="4.80865">
        <ele>237</ele>
        <time>2017-07-28T10:05:24Z</time>
      </trkpt>
      <trkpt lat="45.98061" lon="4.80853">
        <ele>236</ele>
        <time>2017-07-28T10:05:25Z</time>
      </trkpt>
      <trkpt lat="45.98058" lon="4.8084">
        <ele>236</ele>
        <time>2017-07-28T10:05:26Z</time>
      </trkpt>
      <trkpt lat="45.98056" lon="4.80827">
        <ele>234</ele>
        <time>2017-07-28T10:05:27Z</time>
      </trkpt>
      <trkpt lat="45.98052" lon="4.80814">
        <ele>234</ele>
        <time>2017-07-28T10:05:28Z</time>
      </trkpt>
      <trkpt lat="45.98049" lon="4.80801">
        <ele>234</ele>
        <time>2017-07-28T10:05:29Z</time>
      </trkpt>
      <trkpt lat="45.98046" lon="4.80789">
        <ele>233</ele>
        <time>2017-07-28T10:05:30Z</time>
      </trkpt>
      <trkpt lat="45.98042" lon="4.80777">
        <ele>233</ele>
        <time>2017-07-28T10:05:31Z</time>
      </trkpt>
      <trkpt lat="45.98039" lon="4.80766">
        <ele>233</ele>
        <time>2017-07-28T10:05:32Z</time>
      </trkpt>
      <trkpt lat="45.98036" lon="4.80755">
        <ele>233</ele>
        <time>2017-07-28T10:05:33Z</time>
      </trkpt>
      <trkpt lat="45.98034" lon="4.80746">
        <ele>231</ele>
        <time>2017-07-28T10:05:34Z</time>
      </trkpt>
      <trkpt lat="45.98032" lon="4.80738">
        <ele>231</ele>
        <time>2017-07-28T10:05:35Z</time>
      </trkpt>
      <trkpt lat="45.98031" lon="4.80731">
        <ele>231</ele>
        <time>2017-07-28T10:05:36Z</time>
      </trkpt>
      <trkpt lat="45.98029" lon="4.80724">
        <ele>231</ele>
        <time>2017-07-28T10:05:37Z</time>
      </trkpt>
      <trkpt lat="45.98028" lon="4.80714">
        <ele>231</ele>
        <time>2017-07-28T10:05:39Z</time>
      </trkpt>
      <trkpt lat="45.98029" lon="4.80708">
        <ele>231</ele>
        <time>2017-07-28T10:05:40Z</time>
      </trkpt>
      <trkpt lat="45.98034" lon="4.80699">
        <ele>230</ele>
        <time>2017-07-28T10:05:42Z</time>
      </trkpt>
      <trkpt lat="45.9804" lon="4.80697">
        <ele>230</ele>
        <time>2017-07-28T10:05:43Z</time>
      </trkpt>
      <trkpt lat="45.98046" lon="4.80696">
        <ele>230</ele>
        <time>2017-07-28T10:05:44Z</time>
      </trkpt>
      <trkpt lat="45.98051" lon="4.80695">
        <ele>230</ele>
        <time>2017-07-28T10:05:45Z</time>
      </trkpt>
      <trkpt lat="45.98057" lon="4.80694">
        <ele>230</ele>
        <time>2017-07-28T10:05:46Z</time>
      </trkpt>
      <trkpt lat="45.98063" lon="4.80694">
        <ele>230</ele>
        <time>2017-07-28T10:05:47Z</time>
      </trkpt>
      <trkpt lat="45.9807" lon="4.80694">
        <ele>230</ele>
        <time>2017-07-28T10:05:48Z</time>
      </trkpt>
      <trkpt lat="45.98076" lon="4.80694">
        <ele>230</ele>
        <time>2017-07-28T10:05:49Z</time>
      </trkpt>
      <trkpt lat="45.98082" lon="4.80694">
        <ele>230</ele>
        <time>2017-07-28T10:05:50Z</time>
      </trkpt>
      <trkpt lat="45.98089" lon="4.80693">
        <ele>228</ele>
        <time>2017-07-28T10:05:51Z</time>
      </trkpt>
      <trkpt lat="45.98096" lon="4.80693">
        <ele>228</ele>
        <time>2017-07-28T10:05:52Z</time>
      </trkpt>
      <trkpt lat="45.98103" lon="4.80693">
        <ele>228</ele>
        <time>2017-07-28T10:05:53Z</time>
      </trkpt>
      <trkpt lat="45.98109" lon="4.80693">
        <ele>228</ele>
        <time>2017-07-28T10:05:54Z</time>
      </trkpt>
      <trkpt lat="45.98116" lon="4.80694">
        <ele>228</ele>
        <time>2017-07-28T10:05:55Z</time>
      </trkpt>
      <trkpt lat="45.98123" lon="4.80694">
        <ele>228</ele>
        <time>2017-07-28T10:05:56Z</time>
      </trkpt>
      <trkpt lat="45.98131" lon="4.80694">
        <ele>228</ele>
        <time>2017-07-28T10:05:57Z</time>
      </trkpt>
      <trkpt lat="45.98138" lon="4.80693">
        <ele>228</ele>
        <time>2017-07-28T10:05:58Z</time>
      </trkpt>
      <trkpt lat="45.98146" lon="4.80693">
        <ele>228</ele>
        <time>2017-07-28T10:05:59Z</time>
      </trkpt>
      <trkpt lat="45.98153" lon="4.80692">
        <ele>228</ele>
        <time>2017-07-28T10:06:00Z</time>
      </trkpt>
      <trkpt lat="45.98161" lon="4.80691">
        <ele>227</ele>
        <time>2017-07-28T10:06:01Z</time>
      </trkpt>
      <trkpt lat="45.98168" lon="4.8069">
        <ele>225</ele>
        <time>2017-07-28T10:06:02Z</time>
      </trkpt>
      <trkpt lat="45.98174" lon="4.80689">
        <ele>225</ele>
        <time>2017-07-28T10:06:03Z</time>
      </trkpt>
      <trkpt lat="45.98181" lon="4.80688">
        <ele>225</ele>
        <time>2017-07-28T10:06:04Z</time>
      </trkpt>
      <trkpt lat="45.98187" lon="4.80686">
        <ele>225</ele>
        <time>2017-07-28T10:06:05Z</time>
      </trkpt>
      <trkpt lat="45.98194" lon="4.80683">
        <ele>225</ele>
        <time>2017-07-28T10:06:06Z</time>
      </trkpt>
      <trkpt lat="45.982" lon="4.8068">
        <ele>225</ele>
        <time>2017-07-28T10:06:07Z</time>
      </trkpt>
      <trkpt lat="45.98206" lon="4.80677">
        <ele>224</ele>
        <time>2017-07-28T10:06:08Z</time>
      </trkpt>
      <trkpt lat="45.98212" lon="4.80673">
        <ele>224</ele>
        <time>2017-07-28T10:06:09Z</time>
      </trkpt>
      <trkpt lat="45.98217" lon="4.80668">
        <ele>224</ele>
        <time>2017-07-28T10:06:10Z</time>
      </trkpt>
      <trkpt lat="45.98222" lon="4.80661">
        <ele>224</ele>
        <time>2017-07-28T10:06:11Z</time>
      </trkpt>
      <trkpt lat="45.98226" lon="4.80654">
        <ele>223</ele>
        <time>2017-07-28T10:06:12Z</time>
      </trkpt>
      <trkpt lat="45.98229" lon="4.80645">
        <ele>224</ele>
        <time>2017-07-28T10:06:13Z</time>
      </trkpt>
      <trkpt lat="45.98233" lon="4.80637">
        <ele>224</ele>
        <time>2017-07-28T10:06:14Z</time>
      </trkpt>
      <trkpt lat="45.98236" lon="4.80628">
        <ele>224</ele>
        <time>2017-07-28T10:06:15Z</time>
      </trkpt>
      <trkpt lat="45.98239" lon="4.80619">
        <ele>224</ele>
        <time>2017-07-28T10:06:16Z</time>
      </trkpt>
      <trkpt lat="45.98242" lon="4.8061">
        <ele>224</ele>
        <time>2017-07-28T10:06:17Z</time>
      </trkpt>
      <trkpt lat="45.98245" lon="4.806">
        <ele>224</ele>
        <time>2017-07-28T10:06:18Z</time>
      </trkpt>
      <trkpt lat="45.98248" lon="4.80591">
        <ele>224</ele>
        <time>2017-07-28T10:06:19Z</time>
      </trkpt>
      <trkpt lat="45.98251" lon="4.80582">
        <ele>224</ele>
        <time>2017-07-28T10:06:20Z</time>
      </trkpt>
      <trkpt lat="45.98254" lon="4.80574">
        <ele>224</ele>
        <time>2017-07-28T10:06:21Z</time>
      </trkpt>
      <trkpt lat="45.98256" lon="4.80565">
        <ele>224</ele>
        <time>2017-07-28T10:06:22Z</time>
      </trkpt>
      <trkpt lat="45.98259" lon="4.80556">
        <ele>224</ele>
        <time>2017-07-28T10:06:23Z</time>
      </trkpt>
      <trkpt lat="45.98261" lon="4.80547">
        <ele>224</ele>
        <time>2017-07-28T10:06:24Z</time>
      </trkpt>
      <trkpt lat="45.98263" lon="4.8054">
        <ele>224</ele>
        <time>2017-07-28T10:06:25Z</time>
      </trkpt>
      <trkpt lat="45.98264" lon="4.80532">
        <ele>224</ele>
        <time>2017-07-28T10:06:26Z</time>
      </trkpt>
      <trkpt lat="45.98266" lon="4.80526">
        <ele>224</ele>
        <time>2017-07-28T10:06:27Z</time>
      </trkpt>
      <trkpt lat="45.98268" lon="4.80518">
        <ele>223</ele>
        <time>2017-07-28T10:06:28Z</time>
      </trkpt>
      <trkpt lat="45.9827" lon="4.80511">
        <ele>223</ele>
        <time>2017-07-28T10:06:29Z</time>
      </trkpt>
      <trkpt lat="45.98273" lon="4.80504">
        <ele>223</ele>
        <time>2017-07-28T10:06:30Z</time>
      </trkpt>
      <trkpt lat="45.98275" lon="4.80497">
        <ele>223</ele>
        <time>2017-07-28T10:06:31Z</time>
      </trkpt>
      <trkpt lat="45.98276" lon="4.8049">
        <ele>223</ele>
        <time>2017-07-28T10:06:32Z</time>
      </trkpt>
      <trkpt lat="45.98277" lon="4.80482">
        <ele>223</ele>
        <time>2017-07-28T10:06:33Z</time>
      </trkpt>
      <trkpt lat="45.98278" lon="4.80474">
        <ele>223</ele>
        <time>2017-07-28T10:06:34Z</time>
      </trkpt>
      <trkpt lat="45.9828" lon="4.80467">
        <ele>223</ele>
        <time>2017-07-28T10:06:35Z</time>
      </trkpt>
      <trkpt lat="45.98282" lon="4.80459">
        <ele>223</ele>
        <time>2017-07-28T10:06:36Z</time>
      </trkpt>
      <trkpt lat="45.98283" lon="4.80452">
        <ele>223</ele>
        <time>2017-07-28T10:06:37Z</time>
      </trkpt>
      <trkpt lat="45.98285" lon="4.80444">
        <ele>223</ele>
        <time>2017-07-28T10:06:38Z</time>
      </trkpt>
      <trkpt lat="45.98286" lon="4.80437">
        <ele>223</ele>
        <time>2017-07-28T10:06:39Z</time>
      </trkpt>
      <trkpt lat="45.98287" lon="4.8043">
        <ele>224</ele>
        <time>2017-07-28T10:06:40Z</time>
      </trkpt>
      <trkpt lat="45.98289" lon="4.80422">
        <ele>224</ele>
        <time>2017-07-28T10:06:41Z</time>
      </trkpt>
      <trkpt lat="45.98291" lon="4.80415">
        <ele>224</ele>
        <time>2017-07-28T10:06:42Z</time>
      </trkpt>
      <trkpt lat="45.98293" lon="4.80408">
        <ele>224</ele>
        <time>2017-07-28T10:06:43Z</time>
      </trkpt>
      <trkpt lat="45.98295" lon="4.80401">
        <ele>224</ele>
        <time>2017-07-28T10:06:44Z</time>
      </trkpt>
      <trkpt lat="45.98296" lon="4.80394">
        <ele>224</ele>
        <time>2017-07-28T10:06:45Z</time>
      </trkpt>
      <trkpt lat="45.98298" lon="4.80388">
        <ele>225</ele>
        <time>2017-07-28T10:06:46Z</time>
      </trkpt>
      <trkpt lat="45.98299" lon="4.80381">
        <ele>225</ele>
        <time>2017-07-28T10:06:47Z</time>
      </trkpt>
      <trkpt lat="45.983" lon="4.80374">
        <ele>225</ele>
        <time>2017-07-28T10:06:48Z</time>
      </trkpt>
      <trkpt lat="45.98302" lon="4.80367">
        <ele>225</ele>
        <time>2017-07-28T10:06:49Z</time>
      </trkpt>
      <trkpt lat="45.98303" lon="4.80359">
        <ele>225</ele>
        <time>2017-07-28T10:06:50Z</time>
      </trkpt>
      <trkpt lat="45.98304" lon="4.80351">
        <ele>225</ele>
        <time>2017-07-28T10:06:51Z</time>
      </trkpt>
      <trkpt lat="45.98306" lon="4.80344">
        <ele>226</ele>
        <time>2017-07-28T10:06:52Z</time>
      </trkpt>
      <trkpt lat="45.98308" lon="4.80336">
        <ele>226</ele>
        <time>2017-07-28T10:06:53Z</time>
      </trkpt>
      <trkpt lat="45.9831" lon="4.80327">
        <ele>227</ele>
        <time>2017-07-28T10:06:54Z</time>
      </trkpt>
      <trkpt lat="45.98311" lon="4.80319">
        <ele>227</ele>
        <time>2017-07-28T10:06:55Z</time>
      </trkpt>
      <trkpt lat="45.98313" lon="4.80311">
        <ele>226</ele>
        <time>2017-07-28T10:06:56Z</time>
      </trkpt>
      <trkpt lat="45.98314" lon="4.80304">
        <ele>226</ele>
        <time>2017-07-28T10:06:57Z</time>
      </trkpt>
      <trkpt lat="45.98315" lon="4.80297">
        <ele>226</ele>
        <time>2017-07-28T10:06:58Z</time>
      </trkpt>
      <trkpt lat="45.98317" lon="4.80291">
        <ele>226</ele>
        <time>2017-07-28T10:06:59Z</time>
      </trkpt>
      <trkpt lat="45.98318" lon="4.80284">
        <ele>226</ele>
        <time>2017-07-28T10:07:00Z</time>
      </trkpt>
      <trkpt lat="45.98319" lon="4.80277">
        <ele>227</ele>
        <time>2017-07-28T10:07:01Z</time>
      </trkpt>
      <trkpt lat="45.98319" lon="4.8027">
        <ele>227</ele>
        <time>2017-07-28T10:07:02Z</time>
      </trkpt>
      <trkpt lat="45.98321" lon="4.80263">
        <ele>227</ele>
        <time>2017-07-28T10:07:03Z</time>
      </trkpt>
      <trkpt lat="45.98323" lon="4.80257">
        <ele>228</ele>
        <time>2017-07-28T10:07:04Z</time>
      </trkpt>
      <trkpt lat="45.98325" lon="4.8025">
        <ele>229</ele>
        <time>2017-07-28T10:07:05Z</time>
      </trkpt>
      <trkpt lat="45.98327" lon="4.80238">
        <ele>228</ele>
        <time>2017-07-28T10:07:07Z</time>
      </trkpt>
      <trkpt lat="45.98328" lon="4.80231">
        <ele>228</ele>
        <time>2017-07-28T10:07:08Z</time>
      </trkpt>
      <trkpt lat="45.98327" lon="4.80218">
        <ele>227</ele>
        <time>2017-07-28T10:07:10Z</time>
      </trkpt>
      <trkpt lat="45.98326" lon="4.80213">
        <ele>227</ele>
        <time>2017-07-28T10:07:11Z</time>
      </trkpt>
      <trkpt lat="45.98323" lon="4.80204">
        <ele>227</ele>
        <time>2017-07-28T10:07:13Z</time>
      </trkpt>
      <trkpt lat="45.98321" lon="4.802">
        <ele>227</ele>
        <time>2017-07-28T10:07:14Z</time>
      </trkpt>
      <trkpt lat="45.98318" lon="4.80191">
        <ele>227</ele>
        <time>2017-07-28T10:07:16Z</time>
      </trkpt>
      <trkpt lat="45.98316" lon="4.80186">
        <ele>227</ele>
        <time>2017-07-28T10:07:17Z</time>
      </trkpt>
      <trkpt lat="45.98312" lon="4.80176">
        <ele>227</ele>
        <time>2017-07-28T10:07:19Z</time>
      </trkpt>
      <trkpt lat="45.9831" lon="4.8017">
        <ele>227</ele>
        <time>2017-07-28T10:07:20Z</time>
      </trkpt>
      <trkpt lat="45.98308" lon="4.80164">
        <ele>228</ele>
        <time>2017-07-28T10:07:21Z</time>
      </trkpt>
      <trkpt lat="45.98306" lon="4.80158">
        <ele>228</ele>
        <time>2017-07-28T10:07:22Z</time>
      </trkpt>
      <trkpt lat="45.98303" lon="4.80151">
        <ele>228</ele>
        <time>2017-07-28T10:07:23Z</time>
      </trkpt>
      <trkpt lat="45.98301" lon="4.80145">
        <ele>228</ele>
        <time>2017-07-28T10:07:24Z</time>
      </trkpt>
      <trkpt lat="45.98299" lon="4.80138">
        <ele>228</ele>
        <time>2017-07-28T10:07:25Z</time>
      </trkpt>
      <trkpt lat="45.98297" lon="4.80131">
        <ele>228</ele>
        <time>2017-07-28T10:07:26Z</time>
      </trkpt>
      <trkpt lat="45.98295" lon="4.80124">
        <ele>228</ele>
        <time>2017-07-28T10:07:27Z</time>
      </trkpt>
      <trkpt lat="45.98293" lon="4.80118">
        <ele>228</ele>
        <time>2017-07-28T10:07:28Z</time>
      </trkpt>
      <trkpt lat="45.98291" lon="4.80112">
        <ele>228</ele>
        <time>2017-07-28T10:07:29Z</time>
      </trkpt>
      <trkpt lat="45.98289" lon="4.80106">
        <ele>228</ele>
        <time>2017-07-28T10:07:30Z</time>
      </trkpt>
      <trkpt lat="45.98287" lon="4.80099">
        <ele>228</ele>
        <time>2017-07-28T10:07:31Z</time>
      </trkpt>
      <trkpt lat="45.98285" lon="4.80094">
        <ele>228</ele>
        <time>2017-07-28T10:07:32Z</time>
      </trkpt>
      <trkpt lat="45.98281" lon="4.80082">
        <ele>229</ele>
        <time>2017-07-28T10:07:34Z</time>
      </trkpt>
      <trkpt lat="45.98279" lon="4.80077">
        <ele>229</ele>
        <time>2017-07-28T10:07:35Z</time>
      </trkpt>
      <trkpt lat="45.98275" lon="4.80066">
        <ele>229</ele>
        <time>2017-07-28T10:07:37Z</time>
      </trkpt>
      <trkpt lat="45.98274" lon="4.80061">
        <ele>229</ele>
        <time>2017-07-28T10:07:38Z</time>
      </trkpt>
      <trkpt lat="45.9827" lon="4.8005">
        <ele>229</ele>
        <time>2017-07-28T10:07:40Z</time>
      </trkpt>
      <trkpt lat="45.98268" lon="4.80044">
        <ele>229</ele>
        <time>2017-07-28T10:07:41Z</time>
      </trkpt>
      <trkpt lat="45.98265" lon="4.80037">
        <ele>228</ele>
        <time>2017-07-28T10:07:42Z</time>
      </trkpt>
      <trkpt lat="45.98262" lon="4.8003">
        <ele>228</ele>
        <time>2017-07-28T10:07:43Z</time>
      </trkpt>
      <trkpt lat="45.9826" lon="4.80023">
        <ele>228</ele>
        <time>2017-07-28T10:07:44Z</time>
      </trkpt>
      <trkpt lat="45.98257" lon="4.80015">
        <ele>228</ele>
        <time>2017-07-28T10:07:45Z</time>
      </trkpt>
      <trkpt lat="45.98254" lon="4.80008">
        <ele>227</ele>
        <time>2017-07-28T10:07:46Z</time>
      </trkpt>
      <trkpt lat="45.98251" lon="4.79999">
        <ele>226</ele>
        <time>2017-07-28T10:07:47Z</time>
      </trkpt>
      <trkpt lat="45.98249" lon="4.79991">
        <ele>226</ele>
        <time>2017-07-28T10:07:48Z</time>
      </trkpt>
      <trkpt lat="45.98246" lon="4.79984">
        <ele>225</ele>
        <time>2017-07-28T10:07:49Z</time>
      </trkpt>
      <trkpt lat="45.98244" lon="4.79976">
        <ele>225</ele>
        <time>2017-07-28T10:07:50Z</time>
      </trkpt>
      <trkpt lat="45.98241" lon="4.79969">
        <ele>225</ele>
        <time>2017-07-28T10:07:51Z</time>
      </trkpt>
      <trkpt lat="45.98238" lon="4.79961">
        <ele>225</ele>
        <time>2017-07-28T10:07:52Z</time>
      </trkpt>
      <trkpt lat="45.98236" lon="4.79954">
        <ele>225</ele>
        <time>2017-07-28T10:07:53Z</time>
      </trkpt>
      <trkpt lat="45.98233" lon="4.79947">
        <ele>225</ele>
        <time>2017-07-28T10:07:54Z</time>
      </trkpt>
      <trkpt lat="45.98231" lon="4.7994">
        <ele>225</ele>
        <time>2017-07-28T10:07:55Z</time>
      </trkpt>
      <trkpt lat="45.98228" lon="4.79933">
        <ele>225</ele>
        <time>2017-07-28T10:07:56Z</time>
      </trkpt>
      <trkpt lat="45.98226" lon="4.79927">
        <ele>225</ele>
        <time>2017-07-28T10:07:57Z</time>
      </trkpt>
      <trkpt lat="45.98224" lon="4.79921">
        <ele>225</ele>
        <time>2017-07-28T10:07:58Z</time>
      </trkpt>
      <trkpt lat="45.98221" lon="4.79914">
        <ele>225</ele>
        <time>2017-07-28T10:07:59Z</time>
      </trkpt>
      <trkpt lat="45.98219" lon="4.79907">
        <ele>225</ele>
        <time>2017-07-28T10:08:00Z</time>
      </trkpt>
      <trkpt lat="45.98217" lon="4.799">
        <ele>225</ele>
        <time>2017-07-28T10:08:01Z</time>
      </trkpt>
      <trkpt lat="45.98214" lon="4.79894">
        <ele>225</ele>
        <time>2017-07-28T10:08:02Z</time>
      </trkpt>
      <trkpt lat="45.98212" lon="4.79887">
        <ele>225</ele>
        <time>2017-07-28T10:08:03Z</time>
      </trkpt>
      <trkpt lat="45.98209" lon="4.79881">
        <ele>225</ele>
        <time>2017-07-28T10:08:04Z</time>
      </trkpt>
      <trkpt lat="45.98207" lon="4.79874">
        <ele>225</ele>
        <time>2017-07-28T10:08:05Z</time>
      </trkpt>
      <trkpt lat="45.98204" lon="4.79867">
        <ele>225</ele>
        <time>2017-07-28T10:08:06Z</time>
      </trkpt>
      <trkpt lat="45.98203" lon="4.7986">
        <ele>225</ele>
        <time>2017-07-28T10:08:07Z</time>
      </trkpt>
      <trkpt lat="45.98201" lon="4.79853">
        <ele>225</ele>
        <time>2017-07-28T10:08:08Z</time>
      </trkpt>
      <trkpt lat="45.98199" lon="4.79846">
        <ele>225</ele>
        <time>2017-07-28T10:08:09Z</time>
      </trkpt>
      <trkpt lat="45.98197" lon="4.7984">
        <ele>225</ele>
        <time>2017-07-28T10:08:10Z</time>
      </trkpt>
      <trkpt lat="45.98194" lon="4.79834">
        <ele>225</ele>
        <time>2017-07-28T10:08:11Z</time>
      </trkpt>
      <trkpt lat="45.98191" lon="4.79823">
        <ele>225</ele>
        <time>2017-07-28T10:08:13Z</time>
      </trkpt>
      <trkpt lat="45.98189" lon="4.79816">
        <ele>225</ele>
        <time>2017-07-28T10:08:14Z</time>
      </trkpt>
      <trkpt lat="45.98188" lon="4.7981">
        <ele>225</ele>
        <time>2017-07-28T10:08:15Z</time>
      </trkpt>
      <trkpt lat="45.98186" lon="4.79803">
        <ele>226</ele>
        <time>2017-07-28T10:08:16Z</time>
      </trkpt>
      <trkpt lat="45.98185" lon="4.79797">
        <ele>226</ele>
        <time>2017-07-28T10:08:17Z</time>
      </trkpt>
      <trkpt lat="45.98183" lon="4.79791">
        <ele>226</ele>
        <time>2017-07-28T10:08:18Z</time>
      </trkpt>
      <trkpt lat="45.98182" lon="4.79781">
        <ele>226</ele>
        <time>2017-07-28T10:08:20Z</time>
      </trkpt>
      <trkpt lat="45.98183" lon="4.79776">
        <ele>226</ele>
        <time>2017-07-28T10:08:21Z</time>
      </trkpt>
      <trkpt lat="45.98186" lon="4.79766">
        <ele>226</ele>
        <time>2017-07-28T10:08:23Z</time>
      </trkpt>
      <trkpt lat="45.98187" lon="4.79761">
        <ele>226</ele>
        <time>2017-07-28T10:08:24Z</time>
      </trkpt>
      <trkpt lat="45.98186" lon="4.79749">
        <ele>227</ele>
        <time>2017-07-28T10:08:26Z</time>
      </trkpt>
      <trkpt lat="45.98184" lon="4.79744">
        <ele>227</ele>
        <time>2017-07-28T10:08:27Z</time>
      </trkpt>
      <trkpt lat="45.98177" lon="4.79739">
        <ele>227</ele>
        <time>2017-07-28T10:08:29Z</time>
      </trkpt>
      <trkpt lat="45.98172" lon="4.79739">
        <ele>227</ele>
        <time>2017-07-28T10:08:30Z</time>
      </trkpt>
      <trkpt lat="45.98167" lon="4.79741">
        <ele>227</ele>
        <time>2017-07-28T10:08:31Z</time>
      </trkpt>
      <trkpt lat="45.98163" lon="4.79744">
        <ele>226</ele>
        <time>2017-07-28T10:08:32Z</time>
      </trkpt>
      <trkpt lat="45.98158" lon="4.79747">
        <ele>226</ele>
        <time>2017-07-28T10:08:33Z</time>
      </trkpt>
      <trkpt lat="45.98153" lon="4.7975">
        <ele>226</ele>
        <time>2017-07-28T10:08:34Z</time>
      </trkpt>
      <trkpt lat="45.98147" lon="4.79752">
        <ele>225</ele>
        <time>2017-07-28T10:08:35Z</time>
      </trkpt>
      <trkpt lat="45.98141" lon="4.79754">
        <ele>225</ele>
        <time>2017-07-28T10:08:36Z</time>
      </trkpt>
      <trkpt lat="45.98135" lon="4.79755">
        <ele>224</ele>
        <time>2017-07-28T10:08:37Z</time>
      </trkpt>
      <trkpt lat="45.98129" lon="4.79757">
        <ele>224</ele>
        <time>2017-07-28T10:08:38Z</time>
      </trkpt>
      <trkpt lat="45.98122" lon="4.79758">
        <ele>224</ele>
        <time>2017-07-28T10:08:39Z</time>
      </trkpt>
      <trkpt lat="45.98115" lon="4.79759">
        <ele>224</ele>
        <time>2017-07-28T10:08:40Z</time>
      </trkpt>
      <trkpt lat="45.98109" lon="4.7976">
        <ele>224</ele>
        <time>2017-07-28T10:08:41Z</time>
      </trkpt>
      <trkpt lat="45.98102" lon="4.79761">
        <ele>223</ele>
        <time>2017-07-28T10:08:42Z</time>
      </trkpt>
      <trkpt lat="45.98095" lon="4.79763">
        <ele>223</ele>
        <time>2017-07-28T10:08:43Z</time>
      </trkpt>
      <trkpt lat="45.98088" lon="4.79764">
        <ele>223</ele>
        <time>2017-07-28T10:08:44Z</time>
      </trkpt>
      <trkpt lat="45.98082" lon="4.79765">
        <ele>223</ele>
        <time>2017-07-28T10:08:45Z</time>
      </trkpt>
      <trkpt lat="45.98075" lon="4.79766">
        <ele>223</ele>
        <time>2017-07-28T10:08:46Z</time>
      </trkpt>
      <trkpt lat="45.98069" lon="4.79767">
        <ele>223</ele>
        <time>2017-07-28T10:08:47Z</time>
      </trkpt>
      <trkpt lat="45.98062" lon="4.79768">
        <ele>223</ele>
        <time>2017-07-28T10:08:48Z</time>
      </trkpt>
      <trkpt lat="45.98055" lon="4.79768">
        <ele>223</ele>
        <time>2017-07-28T10:08:49Z</time>
      </trkpt>
      <trkpt lat="45.98049" lon="4.79769">
        <ele>223</ele>
        <time>2017-07-28T10:08:50Z</time>
      </trkpt>
      <trkpt lat="45.98042" lon="4.79769">
        <ele>223</ele>
        <time>2017-07-28T10:08:51Z</time>
      </trkpt>
      <trkpt lat="45.98036" lon="4.7977">
        <ele>223</ele>
        <time>2017-07-28T10:08:52Z</time>
      </trkpt>
      <trkpt lat="45.9803" lon="4.7977">
        <ele>223</ele>
        <time>2017-07-28T10:08:53Z</time>
      </trkpt>
      <trkpt lat="45.98024" lon="4.79771">
        <ele>223</ele>
        <time>2017-07-28T10:08:54Z</time>
      </trkpt>
      <trkpt lat="45.98018" lon="4.79772">
        <ele>223</ele>
        <time>2017-07-28T10:08:55Z</time>
      </trkpt>
      <trkpt lat="45.98011" lon="4.79772">
        <ele>223</ele>
        <time>2017-07-28T10:08:56Z</time>
      </trkpt>
      <trkpt lat="45.98005" lon="4.79773">
        <ele>223</ele>
        <time>2017-07-28T10:08:57Z</time>
      </trkpt>
      <trkpt lat="45.97998" lon="4.79774">
        <ele>224</ele>
        <time>2017-07-28T10:08:58Z</time>
      </trkpt>
      <trkpt lat="45.97991" lon="4.79776">
        <ele>224</ele>
        <time>2017-07-28T10:08:59Z</time>
      </trkpt>
      <trkpt lat="45.97984" lon="4.79777">
        <ele>224</ele>
        <time>2017-07-28T10:09:00Z</time>
      </trkpt>
      <trkpt lat="45.97977" lon="4.79778">
        <ele>224</ele>
        <time>2017-07-28T10:09:01Z</time>
      </trkpt>
      <trkpt lat="45.9797" lon="4.79779">
        <ele>224</ele>
        <time>2017-07-28T10:09:02Z</time>
      </trkpt>
      <trkpt lat="45.97964" lon="4.7978">
        <ele>224</ele>
        <time>2017-07-28T10:09:03Z</time>
      </trkpt>
      <trkpt lat="45.97957" lon="4.79781">
        <ele>224</ele>
        <time>2017-07-28T10:09:04Z</time>
      </trkpt>
      <trkpt lat="45.9795" lon="4.79781">
        <ele>224</ele>
        <time>2017-07-28T10:09:05Z</time>
      </trkpt>
      <trkpt lat="45.97944" lon="4.79782">
        <ele>224</ele>
        <time>2017-07-28T10:09:06Z</time>
      </trkpt>
      <trkpt lat="45.97938" lon="4.79783">
        <ele>224</ele>
        <time>2017-07-28T10:09:07Z</time>
      </trkpt>
      <trkpt lat="45.97932" lon="4.79784">
        <ele>225</ele>
        <time>2017-07-28T10:09:08Z</time>
      </trkpt>
      <trkpt lat="45.97926" lon="4.79785">
        <ele>225</ele>
        <time>2017-07-28T10:09:09Z</time>
      </trkpt>
      <trkpt lat="45.97919" lon="4.79786">
        <ele>225</ele>
        <time>2017-07-28T10:09:10Z</time>
      </trkpt>
      <trkpt lat="45.97913" lon="4.79786">
        <ele>225</ele>
        <time>2017-07-28T10:09:11Z</time>
      </trkpt>
      <trkpt lat="45.97907" lon="4.79787">
        <ele>225</ele>
        <time>2017-07-28T10:09:12Z</time>
      </trkpt>
      <trkpt lat="45.97901" lon="4.79788">
        <ele>225</ele>
        <time>2017-07-28T10:09:13Z</time>
      </trkpt>
      <trkpt lat="45.97895" lon="4.79789">
        <ele>224</ele>
        <time>2017-07-28T10:09:14Z</time>
      </trkpt>
      <trkpt lat="45.97889" lon="4.7979">
        <ele>224</ele>
        <time>2017-07-28T10:09:15Z</time>
      </trkpt>
      <trkpt lat="45.97882" lon="4.7979">
        <ele>224</ele>
        <time>2017-07-28T10:09:16Z</time>
      </trkpt>
      <trkpt lat="45.97876" lon="4.79791">
        <ele>224</ele>
        <time>2017-07-28T10:09:17Z</time>
      </trkpt>
      <trkpt lat="45.97869" lon="4.79792">
        <ele>224</ele>
        <time>2017-07-28T10:09:18Z</time>
      </trkpt>
      <trkpt lat="45.97862" lon="4.79793">
        <ele>224</ele>
        <time>2017-07-28T10:09:19Z</time>
      </trkpt>
      <trkpt lat="45.97855" lon="4.79795">
        <ele>224</ele>
        <time>2017-07-28T10:09:20Z</time>
      </trkpt>
      <trkpt lat="45.97849" lon="4.79796">
        <ele>224</ele>
        <time>2017-07-28T10:09:21Z</time>
      </trkpt>
      <trkpt lat="45.97842" lon="4.79796">
        <ele>224</ele>
        <time>2017-07-28T10:09:22Z</time>
      </trkpt>
      <trkpt lat="45.97836" lon="4.79797">
        <ele>224</ele>
        <time>2017-07-28T10:09:23Z</time>
      </trkpt>
      <trkpt lat="45.9783" lon="4.79799">
        <ele>223</ele>
        <time>2017-07-28T10:09:24Z</time>
      </trkpt>
      <trkpt lat="45.97824" lon="4.79801">
        <ele>223</ele>
        <time>2017-07-28T10:09:25Z</time>
      </trkpt>
      <trkpt lat="45.97817" lon="4.79802">
        <ele>223</ele>
        <time>2017-07-28T10:09:26Z</time>
      </trkpt>
      <trkpt lat="45.97811" lon="4.79803">
        <ele>223</ele>
        <time>2017-07-28T10:09:27Z</time>
      </trkpt>
      <trkpt lat="45.97805" lon="4.79804">
        <ele>223</ele>
        <time>2017-07-28T10:09:28Z</time>
      </trkpt>
      <trkpt lat="45.97798" lon="4.79806">
        <ele>223</ele>
        <time>2017-07-28T10:09:29Z</time>
      </trkpt>
      <trkpt lat="45.97792" lon="4.79806">
        <ele>223</ele>
        <time>2017-07-28T10:09:30Z</time>
      </trkpt>
      <trkpt lat="45.97785" lon="4.79807">
        <ele>223</ele>
        <time>2017-07-28T10:09:31Z</time>
      </trkpt>
      <trkpt lat="45.97778" lon="4.79807">
        <ele>223</ele>
        <time>2017-07-28T10:09:32Z</time>
      </trkpt>
      <trkpt lat="45.97772" lon="4.79808">
        <ele>223</ele>
        <time>2017-07-28T10:09:33Z</time>
      </trkpt>
      <trkpt lat="45.97765" lon="4.7981">
        <ele>223</ele>
        <time>2017-07-28T10:09:34Z</time>
      </trkpt>
      <trkpt lat="45.97759" lon="4.79811">
        <ele>223</ele>
        <time>2017-07-28T10:09:35Z</time>
      </trkpt>
      <trkpt lat="45.97753" lon="4.79813">
        <ele>223</ele>
        <time>2017-07-28T10:09:36Z</time>
      </trkpt>
      <trkpt lat="45.97748" lon="4.79814">
        <ele>223</ele>
        <time>2017-07-28T10:09:37Z</time>
      </trkpt>
      <trkpt lat="45.97742" lon="4.79815">
        <ele>223</ele>
        <time>2017-07-28T10:09:38Z</time>
      </trkpt>
      <trkpt lat="45.97736" lon="4.79816">
        <ele>223</ele>
        <time>2017-07-28T10:09:39Z</time>
      </trkpt>
      <trkpt lat="45.97731" lon="4.79817">
        <ele>223</ele>
        <time>2017-07-28T10:09:40Z</time>
      </trkpt>
      <trkpt lat="45.97725" lon="4.79818">
        <ele>223</ele>
        <time>2017-07-28T10:09:41Z</time>
      </trkpt>
      <trkpt lat="45.97719" lon="4.79818">
        <ele>223</ele>
        <time>2017-07-28T10:09:42Z</time>
      </trkpt>
      <trkpt lat="45.97714" lon="4.79819">
        <ele>223</ele>
        <time>2017-07-28T10:09:43Z</time>
      </trkpt>
      <trkpt lat="45.97708" lon="4.7982">
        <ele>223</ele>
        <time>2017-07-28T10:09:44Z</time>
      </trkpt>
      <trkpt lat="45.97703" lon="4.79821">
        <ele>223</ele>
        <time>2017-07-28T10:09:45Z</time>
      </trkpt>
      <trkpt lat="45.97697" lon="4.79823">
        <ele>223</ele>
        <time>2017-07-28T10:09:46Z</time>
      </trkpt>
      <trkpt lat="45.97691" lon="4.79824">
        <ele>223</ele>
        <time>2017-07-28T10:09:47Z</time>
      </trkpt>
      <trkpt lat="45.97685" lon="4.79825">
        <ele>223</ele>
        <time>2017-07-28T10:09:48Z</time>
      </trkpt>
      <trkpt lat="45.97679" lon="4.79827">
        <ele>223</ele>
        <time>2017-07-28T10:09:49Z</time>
      </trkpt>
      <trkpt lat="45.97673" lon="4.79829">
        <ele>222</ele>
        <time>2017-07-28T10:09:50Z</time>
      </trkpt>
      <trkpt lat="45.97667" lon="4.79831">
        <ele>222</ele>
        <time>2017-07-28T10:09:51Z</time>
      </trkpt>
      <trkpt lat="45.97661" lon="4.79833">
        <ele>222</ele>
        <time>2017-07-28T10:09:52Z</time>
      </trkpt>
      <trkpt lat="45.97655" lon="4.79835">
        <ele>221</ele>
        <time>2017-07-28T10:09:53Z</time>
      </trkpt>
      <trkpt lat="45.9765" lon="4.79837">
        <ele>221</ele>
        <time>2017-07-28T10:09:54Z</time>
      </trkpt>
      <trkpt lat="45.97644" lon="4.79839">
        <ele>221</ele>
        <time>2017-07-28T10:09:55Z</time>
      </trkpt>
      <trkpt lat="45.97638" lon="4.79841">
        <ele>221</ele>
        <time>2017-07-28T10:09:56Z</time>
      </trkpt>
      <trkpt lat="45.97632" lon="4.79843">
        <ele>221</ele>
        <time>2017-07-28T10:09:57Z</time>
      </trkpt>
      <trkpt lat="45.97627" lon="4.79845">
        <ele>221</ele>
        <time>2017-07-28T10:09:58Z</time>
      </trkpt>
      <trkpt lat="45.97622" lon="4.79847">
        <ele>221</ele>
        <time>2017-07-28T10:09:59Z</time>
      </trkpt>
      <trkpt lat="45.97617" lon="4.79849">
        <ele>221</ele>
        <time>2017-07-28T10:10:00Z</time>
      </trkpt>
      <trkpt lat="45.97611" lon="4.79851">
        <ele>221</ele>
        <time>2017-07-28T10:10:01Z</time>
      </trkpt>
      <trkpt lat="45.97606" lon="4.79854">
        <ele>221</ele>
        <time>2017-07-28T10:10:02Z</time>
      </trkpt>
      <trkpt lat="45.976" lon="4.79856">
        <ele>221</ele>
        <time>2017-07-28T10:10:03Z</time>
      </trkpt>
      <trkpt lat="45.97594" lon="4.79857">
        <ele>221</ele>
        <time>2017-07-28T10:10:04Z</time>
      </trkpt>
      <trkpt lat="45.97589" lon="4.79859">
        <ele>221</ele>
        <time>2017-07-28T10:10:05Z</time>
      </trkpt>
      <trkpt lat="45.97582" lon="4.79861">
        <ele>222</ele>
        <time>2017-07-28T10:10:06Z</time>
      </trkpt>
      <trkpt lat="45.97576" lon="4.79864">
        <ele>222</ele>
        <time>2017-07-28T10:10:07Z</time>
      </trkpt>
      <trkpt lat="45.9757" lon="4.79866">
        <ele>222</ele>
        <time>2017-07-28T10:10:08Z</time>
      </trkpt>
      <trkpt lat="45.97564" lon="4.79869">
        <ele>222</ele>
        <time>2017-07-28T10:10:09Z</time>
      </trkpt>
      <trkpt lat="45.97558" lon="4.79871">
        <ele>222</ele>
        <time>2017-07-28T10:10:10Z</time>
      </trkpt>
      <trkpt lat="45.97552" lon="4.79873">
        <ele>222</ele>
        <time>2017-07-28T10:10:11Z</time>
      </trkpt>
      <trkpt lat="45.97545" lon="4.79874">
        <ele>222</ele>
        <time>2017-07-28T10:10:12Z</time>
      </trkpt>
      <trkpt lat="45.97538" lon="4.79876">
        <ele>222</ele>
        <time>2017-07-28T10:10:13Z</time>
      </trkpt>
      <trkpt lat="45.97531" lon="4.79878">
        <ele>222</ele>
        <time>2017-07-28T10:10:14Z</time>
      </trkpt>
      <trkpt lat="45.97523" lon="4.79879">
        <ele>222</ele>
        <time>2017-07-28T10:10:15Z</time>
      </trkpt>
      <trkpt lat="45.97515" lon="4.7988">
        <ele>222</ele>
        <time>2017-07-28T10:10:16Z</time>
      </trkpt>
      <trkpt lat="45.97507" lon="4.79882">
        <ele>222</ele>
        <time>2017-07-28T10:10:17Z</time>
      </trkpt>
      <trkpt lat="45.97499" lon="4.79883">
        <ele>221</ele>
        <time>2017-07-28T10:10:18Z</time>
      </trkpt>
      <trkpt lat="45.97491" lon="4.79883">
        <ele>221</ele>
        <time>2017-07-28T10:10:19Z</time>
      </trkpt>
      <trkpt lat="45.97482" lon="4.79884">
        <ele>221</ele>
        <time>2017-07-28T10:10:20Z</time>
      </trkpt>
      <trkpt lat="45.97474" lon="4.79886">
        <ele>221</ele>
        <time>2017-07-28T10:10:21Z</time>
      </trkpt>
      <trkpt lat="45.97465" lon="4.79886">
        <ele>221</ele>
        <time>2017-07-28T10:10:22Z</time>
      </trkpt>
      <trkpt lat="45.97456" lon="4.79886">
        <ele>221</ele>
        <time>2017-07-28T10:10:23Z</time>
      </trkpt>
      <trkpt lat="45.97447" lon="4.79885">
        <ele>221</ele>
        <time>2017-07-28T10:10:24Z</time>
      </trkpt>
      <trkpt lat="45.97438" lon="4.79885">
        <ele>220</ele>
        <time>2017-07-28T10:10:25Z</time>
      </trkpt>
      <trkpt lat="45.97429" lon="4.79886">
        <ele>220</ele>
        <time>2017-07-28T10:10:26Z</time>
      </trkpt>
      <trkpt lat="45.9742" lon="4.79886">
        <ele>220</ele>
        <time>2017-07-28T10:10:27Z</time>
      </trkpt>
      <trkpt lat="45.97411" lon="4.79888">
        <ele>218</ele>
        <time>2017-07-28T10:10:28Z</time>
      </trkpt>
      <trkpt lat="45.97402" lon="4.7989">
        <ele>218</ele>
        <time>2017-07-28T10:10:29Z</time>
      </trkpt>
      <trkpt lat="45.97393" lon="4.79891">
        <ele>217</ele>
        <time>2017-07-28T10:10:30Z</time>
      </trkpt>
      <trkpt lat="45.97383" lon="4.79893">
        <ele>217</ele>
        <time>2017-07-28T10:10:31Z</time>
      </trkpt>
      <trkpt lat="45.97374" lon="4.79896">
        <ele>217</ele>
        <time>2017-07-28T10:10:32Z</time>
      </trkpt>
      <trkpt lat="45.97365" lon="4.79898">
        <ele>217</ele>
        <time>2017-07-28T10:10:33Z</time>
      </trkpt>
      <trkpt lat="45.97355" lon="4.799">
        <ele>216</ele>
        <time>2017-07-28T10:10:34Z</time>
      </trkpt>
      <trkpt lat="45.97346" lon="4.79901">
        <ele>216</ele>
        <time>2017-07-28T10:10:35Z</time>
      </trkpt>
      <trkpt lat="45.97336" lon="4.79901">
        <ele>215</ele>
        <time>2017-07-28T10:10:36Z</time>
      </trkpt>
      <trkpt lat="45.97327" lon="4.79903">
        <ele>213</ele>
        <time>2017-07-28T10:10:37Z</time>
      </trkpt>
      <trkpt lat="45.97317" lon="4.79904">
        <ele>214</ele>
        <time>2017-07-28T10:10:38Z</time>
      </trkpt>
      <trkpt lat="45.97308" lon="4.79906">
        <ele>213</ele>
        <time>2017-07-28T10:10:39Z</time>
      </trkpt>
      <trkpt lat="45.97299" lon="4.79907">
        <ele>213</ele>
        <time>2017-07-28T10:10:40Z</time>
      </trkpt>
      <trkpt lat="45.9729" lon="4.79908">
        <ele>213</ele>
        <time>2017-07-28T10:10:41Z</time>
      </trkpt>
      <trkpt lat="45.97281" lon="4.79908">
        <ele>213</ele>
        <time>2017-07-28T10:10:42Z</time>
      </trkpt>
      <trkpt lat="45.97273" lon="4.7991">
        <ele>213</ele>
        <time>2017-07-28T10:10:43Z</time>
      </trkpt>
      <trkpt lat="45.97266" lon="4.79911">
        <ele>213</ele>
        <time>2017-07-28T10:10:44Z</time>
      </trkpt>
      <trkpt lat="45.9726" lon="4.79914">
        <ele>213</ele>
        <time>2017-07-28T10:10:45Z</time>
      </trkpt>
      <trkpt lat="45.97256" lon="4.79912">
        <ele>212</ele>
        <time>2017-07-28T10:10:46Z</time>
      </trkpt>
      <trkpt lat="45.97252" lon="4.79909">
        <ele>212</ele>
        <time>2017-07-28T10:10:47Z</time>
      </trkpt>
      <trkpt lat="45.97249" lon="4.79903">
        <ele>212</ele>
        <time>2017-07-28T10:10:48Z</time>
      </trkpt>
      <trkpt lat="45.97247" lon="4.79896">
        <ele>211</ele>
        <time>2017-07-28T10:10:49Z</time>
      </trkpt>
      <trkpt lat="45.97246" lon="4.79887">
        <ele>211</ele>
        <time>2017-07-28T10:10:50Z</time>
      </trkpt>
      <trkpt lat="45.97244" lon="4.79879">
        <ele>211</ele>
        <time>2017-07-28T10:10:51Z</time>
      </trkpt>
      <trkpt lat="45.97241" lon="4.7987">
        <ele>211</ele>
        <time>2017-07-28T10:10:52Z</time>
      </trkpt>
      <trkpt lat="45.97239" lon="4.7986">
        <ele>211</ele>
        <time>2017-07-28T10:10:53Z</time>
      </trkpt>
      <trkpt lat="45.97236" lon="4.79851">
        <ele>211</ele>
        <time>2017-07-28T10:10:54Z</time>
      </trkpt>
      <trkpt lat="45.97235" lon="4.79841">
        <ele>211</ele>
        <time>2017-07-28T10:10:55Z</time>
      </trkpt>
      <trkpt lat="45.97235" lon="4.79833">
        <ele>211</ele>
        <time>2017-07-28T10:10:56Z</time>
      </trkpt>
      <trkpt lat="45.97235" lon="4.79824">
        <ele>211</ele>
        <time>2017-07-28T10:10:57Z</time>
      </trkpt>
      <trkpt lat="45.97237" lon="4.79814">
        <ele>211</ele>
        <time>2017-07-28T10:10:58Z</time>
      </trkpt>
      <trkpt lat="45.97237" lon="4.79806">
        <ele>210</ele>
        <time>2017-07-28T10:10:59Z</time>
      </trkpt>
      <trkpt lat="45.97238" lon="4.79797">
        <ele>210</ele>
        <time>2017-07-28T10:11:00Z</time>
      </trkpt>
      <trkpt lat="45.97238" lon="4.79789">
        <ele>210</ele>
        <time>2017-07-28T10:11:01Z</time>
      </trkpt>
      <trkpt lat="45.97239" lon="4.7978">
        <ele>210</ele>
        <time>2017-07-28T10:11:02Z</time>
      </trkpt>
      <trkpt lat="45.97239" lon="4.79773">
        <ele>210</ele>
        <time>2017-07-28T10:11:03Z</time>
      </trkpt>
      <trkpt lat="45.9724" lon="4.79765">
        <ele>209</ele>
        <time>2017-07-28T10:11:04Z</time>
      </trkpt>
      <trkpt lat="45.97241" lon="4.79757">
        <ele>209</ele>
        <time>2017-07-28T10:11:05Z</time>
      </trkpt>
      <trkpt lat="45.97242" lon="4.79749">
        <ele>209</ele>
        <time>2017-07-28T10:11:06Z</time>
      </trkpt>
      <trkpt lat="45.97243" lon="4.79741">
        <ele>209</ele>
        <time>2017-07-28T10:11:07Z</time>
      </trkpt>
      <trkpt lat="45.97244" lon="4.79734">
        <ele>209</ele>
        <time>2017-07-28T10:11:08Z</time>
      </trkpt>
      <trkpt lat="45.97245" lon="4.79726">
        <ele>209</ele>
        <time>2017-07-28T10:11:09Z</time>
      </trkpt>
      <trkpt lat="45.97246" lon="4.79719">
        <ele>209</ele>
        <time>2017-07-28T10:11:10Z</time>
      </trkpt>
      <trkpt lat="45.97247" lon="4.79712">
        <ele>209</ele>
        <time>2017-07-28T10:11:11Z</time>
      </trkpt>
      <trkpt lat="45.97248" lon="4.79705">
        <ele>208</ele>
        <time>2017-07-28T10:11:12Z</time>
      </trkpt>
      <trkpt lat="45.97249" lon="4.79698">
        <ele>208</ele>
        <time>2017-07-28T10:11:13Z</time>
      </trkpt>
      <trkpt lat="45.9725" lon="4.7969">
        <ele>208</ele>
        <time>2017-07-28T10:11:14Z</time>
      </trkpt>
      <trkpt lat="45.97251" lon="4.79682">
        <ele>211</ele>
        <time>2017-07-28T10:11:15Z</time>
      </trkpt>
      <trkpt lat="45.97252" lon="4.79674">
        <ele>210</ele>
        <time>2017-07-28T10:11:16Z</time>
      </trkpt>
      <trkpt lat="45.97253" lon="4.79666">
        <ele>209</ele>
        <time>2017-07-28T10:11:17Z</time>
      </trkpt>
      <trkpt lat="45.97254" lon="4.79658">
        <ele>210</ele>
        <time>2017-07-28T10:11:18Z</time>
      </trkpt>
      <trkpt lat="45.97255" lon="4.79649">
        <ele>211</ele>
        <time>2017-07-28T10:11:19Z</time>
      </trkpt>
      <trkpt lat="45.97255" lon="4.79641">
        <ele>212</ele>
        <time>2017-07-28T10:11:20Z</time>
      </trkpt>
      <trkpt lat="45.97256" lon="4.79632">
        <ele>213</ele>
        <time>2017-07-28T10:11:21Z</time>
      </trkpt>
      <trkpt lat="45.97255" lon="4.79623">
        <ele>213</ele>
        <time>2017-07-28T10:11:22Z</time>
      </trkpt>
      <trkpt lat="45.97255" lon="4.79614">
        <ele>213</ele>
        <time>2017-07-28T10:11:23Z</time>
      </trkpt>
      <trkpt lat="45.97255" lon="4.79605">
        <ele>213</ele>
        <time>2017-07-28T10:11:24Z</time>
      </trkpt>
      <trkpt lat="45.97255" lon="4.79596">
        <ele>212</ele>
        <time>2017-07-28T10:11:25Z</time>
      </trkpt>
      <trkpt lat="45.97255" lon="4.79587">
        <ele>211</ele>
        <time>2017-07-28T10:11:26Z</time>
      </trkpt>
      <trkpt lat="45.97255" lon="4.79579">
        <ele>211</ele>
        <time>2017-07-28T10:11:27Z</time>
      </trkpt>
      <trkpt lat="45.97254" lon="4.79571">
        <ele>212</ele>
        <time>2017-07-28T10:11:28Z</time>
      </trkpt>
      <trkpt lat="45.97253" lon="4.79563">
        <ele>213</ele>
        <time>2017-07-28T10:11:29Z</time>
      </trkpt>
      <trkpt lat="45.97252" lon="4.79556">
        <ele>213</ele>
        <time>2017-07-28T10:11:30Z</time>
      </trkpt>
      <trkpt lat="45.97251" lon="4.79548">
        <ele>214</ele>
        <time>2017-07-28T10:11:31Z</time>
      </trkpt>
      <trkpt lat="45.97249" lon="4.7954">
        <ele>210</ele>
        <time>2017-07-28T10:11:32Z</time>
      </trkpt>
      <trkpt lat="45.97248" lon="4.79533">
        <ele>210</ele>
        <time>2017-07-28T10:11:33Z</time>
      </trkpt>
      <trkpt lat="45.97247" lon="4.79524">
        <ele>210</ele>
        <time>2017-07-28T10:11:34Z</time>
      </trkpt>
      <trkpt lat="45.97245" lon="4.79516">
        <ele>210</ele>
        <time>2017-07-28T10:11:35Z</time>
      </trkpt>
      <trkpt lat="45.97243" lon="4.79507">
        <ele>210</ele>
        <time>2017-07-28T10:11:36Z</time>
      </trkpt>
      <trkpt lat="45.97242" lon="4.79498">
        <ele>210</ele>
        <time>2017-07-28T10:11:37Z</time>
      </trkpt>
      <trkpt lat="45.9724" lon="4.79489">
        <ele>210</ele>
        <time>2017-07-28T10:11:38Z</time>
      </trkpt>
      <trkpt lat="45.97238" lon="4.7948">
        <ele>209</ele>
        <time>2017-07-28T10:11:39Z</time>
      </trkpt>
      <trkpt lat="45.97235" lon="4.79472">
        <ele>209</ele>
        <time>2017-07-28T10:11:40Z</time>
      </trkpt>
      <trkpt lat="45.97233" lon="4.79464">
        <ele>209</ele>
        <time>2017-07-28T10:11:41Z</time>
      </trkpt>
      <trkpt lat="45.9723" lon="4.79456">
        <ele>209</ele>
        <time>2017-07-28T10:11:42Z</time>
      </trkpt>
      <trkpt lat="45.97227" lon="4.79447">
        <ele>209</ele>
        <time>2017-07-28T10:11:43Z</time>
      </trkpt>
      <trkpt lat="45.97225" lon="4.79438">
        <ele>209</ele>
        <time>2017-07-28T10:11:44Z</time>
      </trkpt>
      <trkpt lat="45.97222" lon="4.7943">
        <ele>209</ele>
        <time>2017-07-28T10:11:45Z</time>
      </trkpt>
      <trkpt lat="45.97219" lon="4.79422">
        <ele>208</ele>
        <time>2017-07-28T10:11:46Z</time>
      </trkpt>
      <trkpt lat="45.97215" lon="4.79413">
        <ele>208</ele>
        <time>2017-07-28T10:11:47Z</time>
      </trkpt>
      <trkpt lat="45.97212" lon="4.79406">
        <ele>208</ele>
        <time>2017-07-28T10:11:48Z</time>
      </trkpt>
      <trkpt lat="45.97209" lon="4.79399">
        <ele>208</ele>
        <time>2017-07-28T10:11:49Z</time>
      </trkpt>
      <trkpt lat="45.97206" lon="4.79392">
        <ele>208</ele>
        <time>2017-07-28T10:11:50Z</time>
      </trkpt>
      <trkpt lat="45.97203" lon="4.79386">
        <ele>208</ele>
        <time>2017-07-28T10:11:51Z</time>
      </trkpt>
      <trkpt lat="45.972" lon="4.79379">
        <ele>207</ele>
        <time>2017-07-28T10:11:52Z</time>
      </trkpt>
      <trkpt lat="45.97197" lon="4.79372">
        <ele>207</ele>
        <time>2017-07-28T10:11:53Z</time>
      </trkpt>
      <trkpt lat="45.97194" lon="4.79365">
        <ele>207</ele>
        <time>2017-07-28T10:11:54Z</time>
      </trkpt>
      <trkpt lat="45.97191" lon="4.79359">
        <ele>207</ele>
        <time>2017-07-28T10:11:55Z</time>
      </trkpt>
      <trkpt lat="45.97187" lon="4.79354">
        <ele>207</ele>
        <time>2017-07-28T10:11:56Z</time>
      </trkpt>
      <trkpt lat="45.97184" lon="4.79347">
        <ele>207</ele>
        <time>2017-07-28T10:11:57Z</time>
      </trkpt>
      <trkpt lat="45.97181" lon="4.7934">
        <ele>206</ele>
        <time>2017-07-28T10:11:58Z</time>
      </trkpt>
      <trkpt lat="45.97178" lon="4.79332">
        <ele>206</ele>
        <time>2017-07-28T10:11:59Z</time>
      </trkpt>
      <trkpt lat="45.97175" lon="4.79323">
        <ele>206</ele>
        <time>2017-07-28T10:12:00Z</time>
      </trkpt>
      <trkpt lat="45.97171" lon="4.79315">
        <ele>207</ele>
        <time>2017-07-28T10:12:01Z</time>
      </trkpt>
      <trkpt lat="45.97168" lon="4.79306">
        <ele>207</ele>
        <time>2017-07-28T10:12:02Z</time>
      </trkpt>
      <trkpt lat="45.97165" lon="4.79297">
        <ele>204</ele>
        <time>2017-07-28T10:12:03Z</time>
      </trkpt>
      <trkpt lat="45.97162" lon="4.79287">
        <ele>204</ele>
        <time>2017-07-28T10:12:04Z</time>
      </trkpt>
      <trkpt lat="45.97158" lon="4.79279">
        <ele>204</ele>
        <time>2017-07-28T10:12:05Z</time>
      </trkpt>
      <trkpt lat="45.97155" lon="4.7927">
        <ele>204</ele>
        <time>2017-07-28T10:12:06Z</time>
      </trkpt>
      <trkpt lat="45.97152" lon="4.79262">
        <ele>204</ele>
        <time>2017-07-28T10:12:07Z</time>
      </trkpt>
      <trkpt lat="45.97149" lon="4.79254">
        <ele>204</ele>
        <time>2017-07-28T10:12:08Z</time>
      </trkpt>
      <trkpt lat="45.97146" lon="4.79247">
        <ele>205</ele>
        <time>2017-07-28T10:12:09Z</time>
      </trkpt>
      <trkpt lat="45.97144" lon="4.79239">
        <ele>205</ele>
        <time>2017-07-28T10:12:10Z</time>
      </trkpt>
      <trkpt lat="45.97141" lon="4.79231">
        <ele>205</ele>
        <time>2017-07-28T10:12:11Z</time>
      </trkpt>
      <trkpt lat="45.97138" lon="4.79224">
        <ele>205</ele>
        <time>2017-07-28T10:12:12Z</time>
      </trkpt>
      <trkpt lat="45.97135" lon="4.79216">
        <ele>206</ele>
        <time>2017-07-28T10:12:13Z</time>
      </trkpt>
      <trkpt lat="45.97131" lon="4.79209">
        <ele>206</ele>
        <time>2017-07-28T10:12:14Z</time>
      </trkpt>
      <trkpt lat="45.97128" lon="4.79201">
        <ele>206</ele>
        <time>2017-07-28T10:12:15Z</time>
      </trkpt>
      <trkpt lat="45.97125" lon="4.79193">
        <ele>206</ele>
        <time>2017-07-28T10:12:16Z</time>
      </trkpt>
      <trkpt lat="45.97122" lon="4.79186">
        <ele>206</ele>
        <time>2017-07-28T10:12:17Z</time>
      </trkpt>
      <trkpt lat="45.97118" lon="4.79178">
        <ele>206</ele>
        <time>2017-07-28T10:12:18Z</time>
      </trkpt>
      <trkpt lat="45.97114" lon="4.79169">
        <ele>206</ele>
        <time>2017-07-28T10:12:19Z</time>
      </trkpt>
      <trkpt lat="45.9711" lon="4.79161">
        <ele>206</ele>
        <time>2017-07-28T10:12:20Z</time>
      </trkpt>
      <trkpt lat="45.97106" lon="4.79154">
        <ele>206</ele>
        <time>2017-07-28T10:12:21Z</time>
      </trkpt>
      <trkpt lat="45.97102" lon="4.79147">
        <ele>206</ele>
        <time>2017-07-28T10:12:22Z</time>
      </trkpt>
      <trkpt lat="45.97098" lon="4.79141">
        <ele>206</ele>
        <time>2017-07-28T10:12:23Z</time>
      </trkpt>
      <trkpt lat="45.97094" lon="4.79135">
        <ele>206</ele>
        <time>2017-07-28T10:12:24Z</time>
      </trkpt>
      <trkpt lat="45.9709" lon="4.79127">
        <ele>206</ele>
        <time>2017-07-28T10:12:25Z</time>
      </trkpt>
      <trkpt lat="45.97086" lon="4.7912">
        <ele>206</ele>
        <time>2017-07-28T10:12:26Z</time>
      </trkpt>
      <trkpt lat="45.97084" lon="4.79112">
        <ele>206</ele>
        <time>2017-07-28T10:12:27Z</time>
      </trkpt>
      <trkpt lat="45.97081" lon="4.79104">
        <ele>204</ele>
        <time>2017-07-28T10:12:28Z</time>
      </trkpt>
      <trkpt lat="45.9708" lon="4.79097">
        <ele>204</ele>
        <time>2017-07-28T10:12:29Z</time>
      </trkpt>
      <trkpt lat="45.97078" lon="4.7909">
        <ele>204</ele>
        <time>2017-07-28T10:12:30Z</time>
      </trkpt>
      <trkpt lat="45.97075" lon="4.79083">
        <ele>204</ele>
        <time>2017-07-28T10:12:31Z</time>
      </trkpt>
      <trkpt lat="45.97074" lon="4.79077">
        <ele>204</ele>
        <time>2017-07-28T10:12:32Z</time>
      </trkpt>
      <trkpt lat="45.97071" lon="4.7907">
        <ele>204</ele>
        <time>2017-07-28T10:12:33Z</time>
      </trkpt>
      <trkpt lat="45.97069" lon="4.79065">
        <ele>203</ele>
        <time>2017-07-28T10:12:34Z</time>
      </trkpt>
      <trkpt lat="45.97068" lon="4.79058">
        <ele>203</ele>
        <time>2017-07-28T10:12:35Z</time>
      </trkpt>
      <trkpt lat="45.97066" lon="4.79051">
        <ele>203</ele>
        <time>2017-07-28T10:12:36Z</time>
      </trkpt>
      <trkpt lat="45.97064" lon="4.79045">
        <ele>203</ele>
        <time>2017-07-28T10:12:37Z</time>
      </trkpt>
      <trkpt lat="45.97063" lon="4.79037">
        <ele>203</ele>
        <time>2017-07-28T10:12:38Z</time>
      </trkpt>
      <trkpt lat="45.97061" lon="4.79029">
        <ele>203</ele>
        <time>2017-07-28T10:12:39Z</time>
      </trkpt>
      <trkpt lat="45.97059" lon="4.79022">
        <ele>203</ele>
        <time>2017-07-28T10:12:40Z</time>
      </trkpt>
      <trkpt lat="45.97056" lon="4.79014">
        <ele>203</ele>
        <time>2017-07-28T10:12:41Z</time>
      </trkpt>
      <trkpt lat="45.97053" lon="4.79007">
        <ele>203</ele>
        <time>2017-07-28T10:12:42Z</time>
      </trkpt>
      <trkpt lat="45.9705" lon="4.79">
        <ele>205</ele>
        <time>2017-07-28T10:12:43Z</time>
      </trkpt>
      <trkpt lat="45.97048" lon="4.78993">
        <ele>205</ele>
        <time>2017-07-28T10:12:44Z</time>
      </trkpt>
      <trkpt lat="45.97045" lon="4.78987">
        <ele>205</ele>
        <time>2017-07-28T10:12:45Z</time>
      </trkpt>
      <trkpt lat="45.97043" lon="4.78981">
        <ele>205</ele>
        <time>2017-07-28T10:12:46Z</time>
      </trkpt>
      <trkpt lat="45.9704" lon="4.78974">
        <ele>205</ele>
        <time>2017-07-28T10:12:47Z</time>
      </trkpt>
      <trkpt lat="45.97036" lon="4.78968">
        <ele>205</ele>
        <time>2017-07-28T10:12:48Z</time>
      </trkpt>
      <trkpt lat="45.97032" lon="4.78962">
        <ele>205</ele>
        <time>2017-07-28T10:12:49Z</time>
      </trkpt>
      <trkpt lat="45.97029" lon="4.78955">
        <ele>205</ele>
        <time>2017-07-28T10:12:50Z</time>
      </trkpt>
      <trkpt lat="45.97025" lon="4.78949">
        <ele>205</ele>
        <time>2017-07-28T10:12:51Z</time>
      </trkpt>
      <trkpt lat="45.97021" lon="4.78943">
        <ele>205</ele>
        <time>2017-07-28T10:12:52Z</time>
      </trkpt>
      <trkpt lat="45.97018" lon="4.78937">
        <ele>205</ele>
        <time>2017-07-28T10:12:53Z</time>
      </trkpt>
      <trkpt lat="45.97014" lon="4.78931">
        <ele>205</ele>
        <time>2017-07-28T10:12:54Z</time>
      </trkpt>
      <trkpt lat="45.97009" lon="4.78925">
        <ele>204</ele>
        <time>2017-07-28T10:12:55Z</time>
      </trkpt>
      <trkpt lat="45.97005" lon="4.78918">
        <ele>204</ele>
        <time>2017-07-28T10:12:56Z</time>
      </trkpt>
      <trkpt lat="45.97" lon="4.78912">
        <ele>204</ele>
        <time>2017-07-28T10:12:57Z</time>
      </trkpt>
      <trkpt lat="45.96996" lon="4.78906">
        <ele>204</ele>
        <time>2017-07-28T10:12:58Z</time>
      </trkpt>
      <trkpt lat="45.96992" lon="4.78899">
        <ele>203</ele>
        <time>2017-07-28T10:12:59Z</time>
      </trkpt>
      <trkpt lat="45.96987" lon="4.78893">
        <ele>203</ele>
        <time>2017-07-28T10:13:00Z</time>
      </trkpt>
      <trkpt lat="45.96983" lon="4.78887">
        <ele>203</ele>
        <time>2017-07-28T10:13:01Z</time>
      </trkpt>
      <trkpt lat="45.96978" lon="4.78881">
        <ele>203</ele>
        <time>2017-07-28T10:13:02Z</time>
      </trkpt>
      <trkpt lat="45.96973" lon="4.78876">
        <ele>203</ele>
        <time>2017-07-28T10:13:03Z</time>
      </trkpt>
      <trkpt lat="45.96968" lon="4.78869">
        <ele>203</ele>
        <time>2017-07-28T10:13:04Z</time>
      </trkpt>
      <trkpt lat="45.96963" lon="4.78862">
        <ele>203</ele>
        <time>2017-07-28T10:13:05Z</time>
      </trkpt>
      <trkpt lat="45.96958" lon="4.78856">
        <ele>203</ele>
        <time>2017-07-28T10:13:06Z</time>
      </trkpt>
      <trkpt lat="45.96953" lon="4.7885">
        <ele>203</ele>
        <time>2017-07-28T10:13:07Z</time>
      </trkpt>
      <trkpt lat="45.96948" lon="4.78844">
        <ele>202</ele>
        <time>2017-07-28T10:13:08Z</time>
      </trkpt>
      <trkpt lat="45.96942" lon="4.78838">
        <ele>202</ele>
        <time>2017-07-28T10:13:09Z</time>
      </trkpt>
      <trkpt lat="45.96937" lon="4.78832">
        <ele>202</ele>
        <time>2017-07-28T10:13:10Z</time>
      </trkpt>
      <trkpt lat="45.96933" lon="4.78826">
        <ele>202</ele>
        <time>2017-07-28T10:13:11Z</time>
      </trkpt>
      <trkpt lat="45.96929" lon="4.78819">
        <ele>202</ele>
        <time>2017-07-28T10:13:12Z</time>
      </trkpt>
      <trkpt lat="45.96925" lon="4.78813">
        <ele>202</ele>
        <time>2017-07-28T10:13:13Z</time>
      </trkpt>
      <trkpt lat="45.96921" lon="4.78806">
        <ele>203</ele>
        <time>2017-07-28T10:13:14Z</time>
      </trkpt>
      <trkpt lat="45.96918" lon="4.788">
        <ele>203</ele>
        <time>2017-07-28T10:13:15Z</time>
      </trkpt>
      <trkpt lat="45.96914" lon="4.78794">
        <ele>201</ele>
        <time>2017-07-28T10:13:16Z</time>
      </trkpt>
      <trkpt lat="45.96911" lon="4.78787">
        <ele>201</ele>
        <time>2017-07-28T10:13:17Z</time>
      </trkpt>
      <trkpt lat="45.96907" lon="4.7878">
        <ele>201</ele>
        <time>2017-07-28T10:13:18Z</time>
      </trkpt>
      <trkpt lat="45.96904" lon="4.78773">
        <ele>201</ele>
        <time>2017-07-28T10:13:19Z</time>
      </trkpt>
      <trkpt lat="45.969" lon="4.78766">
        <ele>201</ele>
        <time>2017-07-28T10:13:20Z</time>
      </trkpt>
      <trkpt lat="45.96897" lon="4.78759">
        <ele>201</ele>
        <time>2017-07-28T10:13:21Z</time>
      </trkpt>
      <trkpt lat="45.96893" lon="4.78752">
        <ele>201</ele>
        <time>2017-07-28T10:13:22Z</time>
      </trkpt>
      <trkpt lat="45.96889" lon="4.78745">
        <ele>202</ele>
        <time>2017-07-28T10:13:23Z</time>
      </trkpt>
      <trkpt lat="45.96886" lon="4.78738">
        <ele>202</ele>
        <time>2017-07-28T10:13:24Z</time>
      </trkpt>
      <trkpt lat="45.96883" lon="4.78731">
        <ele>202</ele>
        <time>2017-07-28T10:13:25Z</time>
      </trkpt>
      <trkpt lat="45.9688" lon="4.78725">
        <ele>202</ele>
        <time>2017-07-28T10:13:26Z</time>
      </trkpt>
      <trkpt lat="45.96877" lon="4.78718">
        <ele>202</ele>
        <time>2017-07-28T10:13:27Z</time>
      </trkpt>
      <trkpt lat="45.96873" lon="4.78712">
        <ele>202</ele>
        <time>2017-07-28T10:13:28Z</time>
      </trkpt>
      <trkpt lat="45.96869" lon="4.78706">
        <ele>202</ele>
        <time>2017-07-28T10:13:29Z</time>
      </trkpt>
      <trkpt lat="45.96866" lon="4.787">
        <ele>202</ele>
        <time>2017-07-28T10:13:30Z</time>
      </trkpt>
      <trkpt lat="45.96863" lon="4.78693">
        <ele>202</ele>
        <time>2017-07-28T10:13:31Z</time>
      </trkpt>
      <trkpt lat="45.9686" lon="4.78687">
        <ele>202</ele>
        <time>2017-07-28T10:13:32Z</time>
      </trkpt>
      <trkpt lat="45.96857" lon="4.7868">
        <ele>202</ele>
        <time>2017-07-28T10:13:33Z</time>
      </trkpt>
      <trkpt lat="45.96855" lon="4.78673">
        <ele>202</ele>
        <time>2017-07-28T10:13:34Z</time>
      </trkpt>
      <trkpt lat="45.96852" lon="4.78666">
        <ele>202</ele>
        <time>2017-07-28T10:13:35Z</time>
      </trkpt>
      <trkpt lat="45.96848" lon="4.7866">
        <ele>202</ele>
        <time>2017-07-28T10:13:36Z</time>
      </trkpt>
      <trkpt lat="45.96845" lon="4.78653">
        <ele>202</ele>
        <time>2017-07-28T10:13:37Z</time>
      </trkpt>
      <trkpt lat="45.96842" lon="4.78646">
        <ele>203</ele>
        <time>2017-07-28T10:13:38Z</time>
      </trkpt>
      <trkpt lat="45.96839" lon="4.7864">
        <ele>203</ele>
        <time>2017-07-28T10:13:39Z</time>
      </trkpt>
      <trkpt lat="45.96835" lon="4.78633">
        <ele>203</ele>
        <time>2017-07-28T10:13:40Z</time>
      </trkpt>
      <trkpt lat="45.96833" lon="4.78626">
        <ele>201</ele>
        <time>2017-07-28T10:13:41Z</time>
      </trkpt>
      <trkpt lat="45.9683" lon="4.78619">
        <ele>201</ele>
        <time>2017-07-28T10:13:42Z</time>
      </trkpt>
      <trkpt lat="45.96828" lon="4.78612">
        <ele>202</ele>
        <time>2017-07-28T10:13:43Z</time>
      </trkpt>
      <trkpt lat="45.96826" lon="4.78605">
        <ele>202</ele>
        <time>2017-07-28T10:13:44Z</time>
      </trkpt>
      <trkpt lat="45.96824" lon="4.78599">
        <ele>202</ele>
        <time>2017-07-28T10:13:45Z</time>
      </trkpt>
      <trkpt lat="45.96822" lon="4.78594">
        <ele>202</ele>
        <time>2017-07-28T10:13:46Z</time>
      </trkpt>
      <trkpt lat="45.9682" lon="4.78588">
        <ele>202</ele>
        <time>2017-07-28T10:13:47Z</time>
      </trkpt>
      <trkpt lat="45.96817" lon="4.78583">
        <ele>203</ele>
        <time>2017-07-28T10:13:48Z</time>
      </trkpt>
      <trkpt lat="45.96814" lon="4.78577">
        <ele>203</ele>
        <time>2017-07-28T10:13:49Z</time>
      </trkpt>
      <trkpt lat="45.96811" lon="4.78572">
        <ele>203</ele>
        <time>2017-07-28T10:13:50Z</time>
      </trkpt>
      <trkpt lat="45.96807" lon="4.78566">
        <ele>203</ele>
        <time>2017-07-28T10:13:51Z</time>
      </trkpt>
      <trkpt lat="45.96803" lon="4.7856">
        <ele>203</ele>
        <time>2017-07-28T10:13:52Z</time>
      </trkpt>
      <trkpt lat="45.96799" lon="4.78553">
        <ele>203</ele>
        <time>2017-07-28T10:13:53Z</time>
      </trkpt>
      <trkpt lat="45.96795" lon="4.78547">
        <ele>203</ele>
        <time>2017-07-28T10:13:54Z</time>
      </trkpt>
      <trkpt lat="45.96792" lon="4.78541">
        <ele>203</ele>
        <time>2017-07-28T10:13:55Z</time>
      </trkpt>
      <trkpt lat="45.96787" lon="4.78534">
        <ele>203</ele>
        <time>2017-07-28T10:13:56Z</time>
      </trkpt>
      <trkpt lat="45.96783" lon="4.78528">
        <ele>203</ele>
        <time>2017-07-28T10:13:57Z</time>
      </trkpt>
      <trkpt lat="45.96779" lon="4.78521">
        <ele>203</ele>
        <time>2017-07-28T10:13:58Z</time>
      </trkpt>
      <trkpt lat="45.96775" lon="4.78515">
        <ele>203</ele>
        <time>2017-07-28T10:13:59Z</time>
      </trkpt>
      <trkpt lat="45.96771" lon="4.78509">
        <ele>203</ele>
        <time>2017-07-28T10:14:00Z</time>
      </trkpt>
      <trkpt lat="45.96766" lon="4.78503">
        <ele>203</ele>
        <time>2017-07-28T10:14:01Z</time>
      </trkpt>
      <trkpt lat="45.96762" lon="4.78497">
        <ele>204</ele>
        <time>2017-07-28T10:14:02Z</time>
      </trkpt>
      <trkpt lat="45.96758" lon="4.78491">
        <ele>204</ele>
        <time>2017-07-28T10:14:03Z</time>
      </trkpt>
      <trkpt lat="45.96754" lon="4.78486">
        <ele>204</ele>
        <time>2017-07-28T10:14:04Z</time>
      </trkpt>
      <trkpt lat="45.9675" lon="4.78481">
        <ele>205</ele>
        <time>2017-07-28T10:14:05Z</time>
      </trkpt>
      <trkpt lat="45.96746" lon="4.78477">
        <ele>203</ele>
        <time>2017-07-28T10:14:06Z</time>
      </trkpt>
      <trkpt lat="45.96741" lon="4.78472">
        <ele>203</ele>
        <time>2017-07-28T10:14:07Z</time>
      </trkpt>
      <trkpt lat="45.96737" lon="4.78468">
        <ele>203</ele>
        <time>2017-07-28T10:14:08Z</time>
      </trkpt>
      <trkpt lat="45.96732" lon="4.78463">
        <ele>203</ele>
        <time>2017-07-28T10:14:09Z</time>
      </trkpt>
      <trkpt lat="45.96726" lon="4.7846">
        <ele>203</ele>
        <time>2017-07-28T10:14:10Z</time>
      </trkpt>
      <trkpt lat="45.96722" lon="4.78454">
        <ele>203</ele>
        <time>2017-07-28T10:14:11Z</time>
      </trkpt>
      <trkpt lat="45.96717" lon="4.78449">
        <ele>203</ele>
        <time>2017-07-28T10:14:12Z</time>
      </trkpt>
      <trkpt lat="45.96712" lon="4.78444">
        <ele>203</ele>
        <time>2017-07-28T10:14:13Z</time>
      </trkpt>
      <trkpt lat="45.96707" lon="4.78439">
        <ele>203</ele>
        <time>2017-07-28T10:14:14Z</time>
      </trkpt>
      <trkpt lat="45.96702" lon="4.78433">
        <ele>203</ele>
        <time>2017-07-28T10:14:15Z</time>
      </trkpt>
      <trkpt lat="45.96697" lon="4.78427">
        <ele>203</ele>
        <time>2017-07-28T10:14:16Z</time>
      </trkpt>
      <trkpt lat="45.96691" lon="4.78422">
        <ele>202</ele>
        <time>2017-07-28T10:14:17Z</time>
      </trkpt>
      <trkpt lat="45.96686" lon="4.78417">
        <ele>202</ele>
        <time>2017-07-28T10:14:18Z</time>
      </trkpt>
      <trkpt lat="45.96681" lon="4.78411">
        <ele>204</ele>
        <time>2017-07-28T10:14:19Z</time>
      </trkpt>
      <trkpt lat="45.96676" lon="4.78406">
        <ele>203</ele>
        <time>2017-07-28T10:14:20Z</time>
      </trkpt>
      <trkpt lat="45.96671" lon="4.78401">
        <ele>204</ele>
        <time>2017-07-28T10:14:21Z</time>
      </trkpt>
      <trkpt lat="45.96667" lon="4.78395">
        <ele>201</ele>
        <time>2017-07-28T10:14:22Z</time>
      </trkpt>
      <trkpt lat="45.96662" lon="4.7839">
        <ele>201</ele>
        <time>2017-07-28T10:14:23Z</time>
      </trkpt>
      <trkpt lat="45.96657" lon="4.78385">
        <ele>201</ele>
        <time>2017-07-28T10:14:24Z</time>
      </trkpt>
      <trkpt lat="45.96653" lon="4.78381">
        <ele>201</ele>
        <time>2017-07-28T10:14:25Z</time>
      </trkpt>
      <trkpt lat="45.96648" lon="4.78376">
        <ele>201</ele>
        <time>2017-07-28T10:14:26Z</time>
      </trkpt>
      <trkpt lat="45.96643" lon="4.78371">
        <ele>201</ele>
        <time>2017-07-28T10:14:27Z</time>
      </trkpt>
      <trkpt lat="45.96637" lon="4.78367">
        <ele>201</ele>
        <time>2017-07-28T10:14:28Z</time>
      </trkpt>
      <trkpt lat="45.96632" lon="4.78362">
        <ele>201</ele>
        <time>2017-07-28T10:14:29Z</time>
      </trkpt>
      <trkpt lat="45.96626" lon="4.78357">
        <ele>201</ele>
        <time>2017-07-28T10:14:30Z</time>
      </trkpt>
      <trkpt lat="45.96621" lon="4.78353">
        <ele>201</ele>
        <time>2017-07-28T10:14:31Z</time>
      </trkpt>
      <trkpt lat="45.96616" lon="4.78348">
        <ele>201</ele>
        <time>2017-07-28T10:14:32Z</time>
      </trkpt>
      <trkpt lat="45.96611" lon="4.78343">
        <ele>200</ele>
        <time>2017-07-28T10:14:33Z</time>
      </trkpt>
      <trkpt lat="45.96606" lon="4.78338">
        <ele>200</ele>
        <time>2017-07-28T10:14:34Z</time>
      </trkpt>
      <trkpt lat="45.96601" lon="4.78333">
        <ele>202</ele>
        <time>2017-07-28T10:14:35Z</time>
      </trkpt>
      <trkpt lat="45.96595" lon="4.78328">
        <ele>202</ele>
        <time>2017-07-28T10:14:36Z</time>
      </trkpt>
      <trkpt lat="45.9659" lon="4.78323">
        <ele>201</ele>
        <time>2017-07-28T10:14:37Z</time>
      </trkpt>
      <trkpt lat="45.96585" lon="4.78318">
        <ele>202</ele>
        <time>2017-07-28T10:14:38Z</time>
      </trkpt>
      <trkpt lat="45.9658" lon="4.78312">
        <ele>199</ele>
        <time>2017-07-28T10:14:39Z</time>
      </trkpt>
      <trkpt lat="45.96575" lon="4.78306">
        <ele>200</ele>
        <time>2017-07-28T10:14:40Z</time>
      </trkpt>
      <trkpt lat="45.9657" lon="4.78301">
        <ele>200</ele>
        <time>2017-07-28T10:14:41Z</time>
      </trkpt>
      <trkpt lat="45.96565" lon="4.78295">
        <ele>200</ele>
        <time>2017-07-28T10:14:42Z</time>
      </trkpt>
      <trkpt lat="45.9656" lon="4.78289">
        <ele>200</ele>
        <time>2017-07-28T10:14:43Z</time>
      </trkpt>
      <trkpt lat="45.96556" lon="4.78283">
        <ele>200</ele>
        <time>2017-07-28T10:14:44Z</time>
      </trkpt>
      <trkpt lat="45.96551" lon="4.78277">
        <ele>200</ele>
        <time>2017-07-28T10:14:45Z</time>
      </trkpt>
      <trkpt lat="45.96546" lon="4.78271">
        <ele>200</ele>
        <time>2017-07-28T10:14:46Z</time>
      </trkpt>
      <trkpt lat="45.96542" lon="4.78265">
        <ele>200</ele>
        <time>2017-07-28T10:14:47Z</time>
      </trkpt>
      <trkpt lat="45.96537" lon="4.78259">
        <ele>200</ele>
        <time>2017-07-28T10:14:48Z</time>
      </trkpt>
      <trkpt lat="45.96534" lon="4.78253">
        <ele>200</ele>
        <time>2017-07-28T10:14:49Z</time>
      </trkpt>
      <trkpt lat="45.96529" lon="4.78247">
        <ele>204</ele>
        <time>2017-07-28T10:14:50Z</time>
      </trkpt>
      <trkpt lat="45.96525" lon="4.78241">
        <ele>204</ele>
        <time>2017-07-28T10:14:51Z</time>
      </trkpt>
      <trkpt lat="45.96521" lon="4.78235">
        <ele>204</ele>
        <time>2017-07-28T10:14:52Z</time>
      </trkpt>
      <trkpt lat="45.96517" lon="4.78229">
        <ele>204</ele>
        <time>2017-07-28T10:14:53Z</time>
      </trkpt>
      <trkpt lat="45.96514" lon="4.78223">
        <ele>204</ele>
        <time>2017-07-28T10:14:54Z</time>
      </trkpt>
      <trkpt lat="45.9651" lon="4.78217">
        <ele>205</ele>
        <time>2017-07-28T10:14:55Z</time>
      </trkpt>
      <trkpt lat="45.96506" lon="4.78212">
        <ele>205</ele>
        <time>2017-07-28T10:14:56Z</time>
      </trkpt>
      <trkpt lat="45.96502" lon="4.78208">
        <ele>205</ele>
        <time>2017-07-28T10:14:57Z</time>
      </trkpt>
      <trkpt lat="45.96497" lon="4.78203">
        <ele>200</ele>
        <time>2017-07-28T10:14:58Z</time>
      </trkpt>
      <trkpt lat="45.96492" lon="4.78198">
        <ele>201</ele>
        <time>2017-07-28T10:14:59Z</time>
      </trkpt>
      <trkpt lat="45.96487" lon="4.78194">
        <ele>201</ele>
        <time>2017-07-28T10:15:00Z</time>
      </trkpt>
      <trkpt lat="45.9648" lon="4.7819">
        <ele>201</ele>
        <time>2017-07-28T10:15:01Z</time>
      </trkpt>
      <trkpt lat="45.96474" lon="4.78185">
        <ele>201</ele>
        <time>2017-07-28T10:15:02Z</time>
      </trkpt>
      <trkpt lat="45.96468" lon="4.78181">
        <ele>200</ele>
        <time>2017-07-28T10:15:03Z</time>
      </trkpt>
      <trkpt lat="45.96462" lon="4.78177">
        <ele>200</ele>
        <time>2017-07-28T10:15:04Z</time>
      </trkpt>
      <trkpt lat="45.96456" lon="4.78173">
        <ele>200</ele>
        <time>2017-07-28T10:15:05Z</time>
      </trkpt>
      <trkpt lat="45.9645" lon="4.78168">
        <ele>199</ele>
        <time>2017-07-28T10:15:06Z</time>
      </trkpt>
      <trkpt lat="45.96445" lon="4.78163">
        <ele>203</ele>
        <time>2017-07-28T10:15:07Z</time>
      </trkpt>
      <trkpt lat="45.96439" lon="4.78157">
        <ele>203</ele>
        <time>2017-07-28T10:15:08Z</time>
      </trkpt>
      <trkpt lat="45.96433" lon="4.78151">
        <ele>203</ele>
        <time>2017-07-28T10:15:09Z</time>
      </trkpt>
      <trkpt lat="45.96428" lon="4.78145">
        <ele>203</ele>
        <time>2017-07-28T10:15:10Z</time>
      </trkpt>
      <trkpt lat="45.96422" lon="4.7814">
        <ele>203</ele>
        <time>2017-07-28T10:15:11Z</time>
      </trkpt>
      <trkpt lat="45.96416" lon="4.78135">
        <ele>199</ele>
        <time>2017-07-28T10:15:12Z</time>
      </trkpt>
      <trkpt lat="45.9641" lon="4.7813">
        <ele>199</ele>
        <time>2017-07-28T10:15:13Z</time>
      </trkpt>
      <trkpt lat="45.96404" lon="4.78125">
        <ele>200</ele>
        <time>2017-07-28T10:15:14Z</time>
      </trkpt>
      <trkpt lat="45.96399" lon="4.7812">
        <ele>200</ele>
        <time>2017-07-28T10:15:15Z</time>
      </trkpt>
      <trkpt lat="45.96393" lon="4.78115">
        <ele>200</ele>
        <time>2017-07-28T10:15:16Z</time>
      </trkpt>
      <trkpt lat="45.96388" lon="4.78111">
        <ele>200</ele>
        <time>2017-07-28T10:15:17Z</time>
      </trkpt>
      <trkpt lat="45.96383" lon="4.78107">
        <ele>200</ele>
        <time>2017-07-28T10:15:18Z</time>
      </trkpt>
      <trkpt lat="45.96378" lon="4.78103">
        <ele>200</ele>
        <time>2017-07-28T10:15:19Z</time>
      </trkpt>
      <trkpt lat="45.96373" lon="4.78098">
        <ele>199</ele>
        <time>2017-07-28T10:15:20Z</time>
      </trkpt>
      <trkpt lat="45.96368" lon="4.78094">
        <ele>199</ele>
        <time>2017-07-28T10:15:21Z</time>
      </trkpt>
      <trkpt lat="45.96364" lon="4.78089">
        <ele>199</ele>
        <time>2017-07-28T10:15:22Z</time>
      </trkpt>
      <trkpt lat="45.96361" lon="4.78083">
        <ele>202</ele>
        <time>2017-07-28T10:15:23Z</time>
      </trkpt>
      <trkpt lat="45.96356" lon="4.78076">
        <ele>202</ele>
        <time>2017-07-28T10:15:24Z</time>
      </trkpt>
      <trkpt lat="45.96351" lon="4.78071">
        <ele>201</ele>
        <time>2017-07-28T10:15:25Z</time>
      </trkpt>
      <trkpt lat="45.96347" lon="4.78067">
        <ele>201</ele>
        <time>2017-07-28T10:15:26Z</time>
      </trkpt>
      <trkpt lat="45.96343" lon="4.78062">
        <ele>202</ele>
        <time>2017-07-28T10:15:27Z</time>
      </trkpt>
      <trkpt lat="45.96339" lon="4.78057">
        <ele>202</ele>
        <time>2017-07-28T10:15:28Z</time>
      </trkpt>
      <trkpt lat="45.96334" lon="4.78052">
        <ele>202</ele>
        <time>2017-07-28T10:15:29Z</time>
      </trkpt>
      <trkpt lat="45.9633" lon="4.78047">
        <ele>199</ele>
        <time>2017-07-28T10:15:30Z</time>
      </trkpt>
      <trkpt lat="45.96326" lon="4.78042">
        <ele>199</ele>
        <time>2017-07-28T10:15:31Z</time>
      </trkpt>
      <trkpt lat="45.96321" lon="4.78037">
        <ele>200</ele>
        <time>2017-07-28T10:15:32Z</time>
      </trkpt>
      <trkpt lat="45.96316" lon="4.78032">
        <ele>200</ele>
        <time>2017-07-28T10:15:33Z</time>
      </trkpt>
      <trkpt lat="45.96312" lon="4.78026">
        <ele>200</ele>
        <time>2017-07-28T10:15:34Z</time>
      </trkpt>
      <trkpt lat="45.96307" lon="4.78021">
        <ele>200</ele>
        <time>2017-07-28T10:15:35Z</time>
      </trkpt>
      <trkpt lat="45.96302" lon="4.78015">
        <ele>200</ele>
        <time>2017-07-28T10:15:36Z</time>
      </trkpt>
      <trkpt lat="45.96296" lon="4.7801">
        <ele>199</ele>
        <time>2017-07-28T10:15:37Z</time>
      </trkpt>
      <trkpt lat="45.96291" lon="4.78005">
        <ele>199</ele>
        <time>2017-07-28T10:15:38Z</time>
      </trkpt>
      <trkpt lat="45.96286" lon="4.78">
        <ele>199</ele>
        <time>2017-07-28T10:15:39Z</time>
      </trkpt>
      <trkpt lat="45.96281" lon="4.77995">
        <ele>203</ele>
        <time>2017-07-28T10:15:40Z</time>
      </trkpt>
      <trkpt lat="45.96275" lon="4.7799">
        <ele>203</ele>
        <time>2017-07-28T10:15:41Z</time>
      </trkpt>
      <trkpt lat="45.96269" lon="4.77985">
        <ele>202</ele>
        <time>2017-07-28T10:15:42Z</time>
      </trkpt>
      <trkpt lat="45.96264" lon="4.7798">
        <ele>203</ele>
        <time>2017-07-28T10:15:43Z</time>
      </trkpt>
      <trkpt lat="45.96258" lon="4.77974">
        <ele>203</ele>
        <time>2017-07-28T10:15:44Z</time>
      </trkpt>
      <trkpt lat="45.96252" lon="4.77968">
        <ele>203</ele>
        <time>2017-07-28T10:15:45Z</time>
      </trkpt>
      <trkpt lat="45.96248" lon="4.77963">
        <ele>199</ele>
        <time>2017-07-28T10:15:46Z</time>
      </trkpt>
      <trkpt lat="45.96243" lon="4.77959">
        <ele>199</ele>
        <time>2017-07-28T10:15:47Z</time>
      </trkpt>
      <trkpt lat="45.9624" lon="4.77954">
        <ele>200</ele>
        <time>2017-07-28T10:15:48Z</time>
      </trkpt>
      <trkpt lat="45.96235" lon="4.7795">
        <ele>200</ele>
        <time>2017-07-28T10:15:49Z</time>
      </trkpt>
      <trkpt lat="45.96231" lon="4.77944">
        <ele>200</ele>
        <time>2017-07-28T10:15:50Z</time>
      </trkpt>
      <trkpt lat="45.96227" lon="4.77938">
        <ele>200</ele>
        <time>2017-07-28T10:15:51Z</time>
      </trkpt>
      <trkpt lat="45.96223" lon="4.77931">
        <ele>200</ele>
        <time>2017-07-28T10:15:52Z</time>
      </trkpt>
      <trkpt lat="45.96218" lon="4.77923">
        <ele>200</ele>
        <time>2017-07-28T10:15:53Z</time>
      </trkpt>
      <trkpt lat="45.96213" lon="4.77916">
        <ele>203</ele>
        <time>2017-07-28T10:15:54Z</time>
      </trkpt>
      <trkpt lat="45.96209" lon="4.77906">
        <ele>202</ele>
        <time>2017-07-28T10:15:55Z</time>
      </trkpt>
      <trkpt lat="45.96204" lon="4.77898">
        <ele>202</ele>
        <time>2017-07-28T10:15:56Z</time>
      </trkpt>
      <trkpt lat="45.96199" lon="4.77891">
        <ele>202</ele>
        <time>2017-07-28T10:15:57Z</time>
      </trkpt>
      <trkpt lat="45.96194" lon="4.77885">
        <ele>202</ele>
        <time>2017-07-28T10:15:58Z</time>
      </trkpt>
      <trkpt lat="45.96191" lon="4.77879">
        <ele>202</ele>
        <time>2017-07-28T10:15:59Z</time>
      </trkpt>
      <trkpt lat="45.96187" lon="4.77873">
        <ele>202</ele>
        <time>2017-07-28T10:16:00Z</time>
      </trkpt>
      <trkpt lat="45.96184" lon="4.77867">
        <ele>201</ele>
        <time>2017-07-28T10:16:01Z</time>
      </trkpt>
      <trkpt lat="45.9618" lon="4.77862">
        <ele>201</ele>
        <time>2017-07-28T10:16:02Z</time>
      </trkpt>
      <trkpt lat="45.96176" lon="4.77857">
        <ele>201</ele>
        <time>2017-07-28T10:16:03Z</time>
      </trkpt>
      <trkpt lat="45.96173" lon="4.77852">
        <ele>201</ele>
        <time>2017-07-28T10:16:04Z</time>
      </trkpt>
      <trkpt lat="45.96169" lon="4.77846">
        <ele>200</ele>
        <time>2017-07-28T10:16:05Z</time>
      </trkpt>
      <trkpt lat="45.96165" lon="4.7784">
        <ele>198</ele>
        <time>2017-07-28T10:16:06Z</time>
      </trkpt>
      <trkpt lat="45.96161" lon="4.77834">
        <ele>198</ele>
        <time>2017-07-28T10:16:07Z</time>
      </trkpt>
      <trkpt lat="45.96158" lon="4.77828">
        <ele>198</ele>
        <time>2017-07-28T10:16:08Z</time>
      </trkpt>
      <trkpt lat="45.96154" lon="4.77822">
        <ele>198</ele>
        <time>2017-07-28T10:16:09Z</time>
      </trkpt>
      <trkpt lat="45.96151" lon="4.77816">
        <ele>198</ele>
        <time>2017-07-28T10:16:10Z</time>
      </trkpt>
      <trkpt lat="45.96147" lon="4.7781">
        <ele>198</ele>
        <time>2017-07-28T10:16:11Z</time>
      </trkpt>
      <trkpt lat="45.96143" lon="4.77804">
        <ele>198</ele>
        <time>2017-07-28T10:16:12Z</time>
      </trkpt>
      <trkpt lat="45.96139" lon="4.77799">
        <ele>198</ele>
        <time>2017-07-28T10:16:13Z</time>
      </trkpt>
      <trkpt lat="45.96136" lon="4.77794">
        <ele>198</ele>
        <time>2017-07-28T10:16:14Z</time>
      </trkpt>
      <trkpt lat="45.96133" lon="4.77788">
        <ele>198</ele>
        <time>2017-07-28T10:16:15Z</time>
      </trkpt>
      <trkpt lat="45.9613" lon="4.77783">
        <ele>198</ele>
        <time>2017-07-28T10:16:16Z</time>
      </trkpt>
      <trkpt lat="45.96127" lon="4.77778">
        <ele>198</ele>
        <time>2017-07-28T10:16:17Z</time>
      </trkpt>
      <trkpt lat="45.96123" lon="4.77773">
        <ele>197</ele>
        <time>2017-07-28T10:16:18Z</time>
      </trkpt>
      <trkpt lat="45.9612" lon="4.77767">
        <ele>197</ele>
        <time>2017-07-28T10:16:19Z</time>
      </trkpt>
      <trkpt lat="45.96116" lon="4.77761">
        <ele>197</ele>
        <time>2017-07-28T10:16:20Z</time>
      </trkpt>
      <trkpt lat="45.96112" lon="4.77755">
        <ele>197</ele>
        <time>2017-07-28T10:16:21Z</time>
      </trkpt>
      <trkpt lat="45.96108" lon="4.77749">
        <ele>199</ele>
        <time>2017-07-28T10:16:22Z</time>
      </trkpt>
      <trkpt lat="45.96105" lon="4.77742">
        <ele>198</ele>
        <time>2017-07-28T10:16:23Z</time>
      </trkpt>
      <trkpt lat="45.96101" lon="4.77736">
        <ele>198</ele>
        <time>2017-07-28T10:16:24Z</time>
      </trkpt>
      <trkpt lat="45.96097" lon="4.7773">
        <ele>199</ele>
        <time>2017-07-28T10:16:25Z</time>
      </trkpt>
      <trkpt lat="45.96094" lon="4.77724">
        <ele>199</ele>
        <time>2017-07-28T10:16:26Z</time>
      </trkpt>
      <trkpt lat="45.9609" lon="4.77718">
        <ele>199</ele>
        <time>2017-07-28T10:16:27Z</time>
      </trkpt>
      <trkpt lat="45.96086" lon="4.77712">
        <ele>200</ele>
        <time>2017-07-28T10:16:28Z</time>
      </trkpt>
      <trkpt lat="45.96083" lon="4.77706">
        <ele>197</ele>
        <time>2017-07-28T10:16:29Z</time>
      </trkpt>
      <trkpt lat="45.96079" lon="4.777">
        <ele>197</ele>
        <time>2017-07-28T10:16:30Z</time>
      </trkpt>
      <trkpt lat="45.96075" lon="4.77693">
        <ele>197</ele>
        <time>2017-07-28T10:16:31Z</time>
      </trkpt>
      <trkpt lat="45.9607" lon="4.77686">
        <ele>198</ele>
        <time>2017-07-28T10:16:32Z</time>
      </trkpt>
      <trkpt lat="45.96066" lon="4.7768">
        <ele>198</ele>
        <time>2017-07-28T10:16:33Z</time>
      </trkpt>
      <trkpt lat="45.96063" lon="4.77674">
        <ele>198</ele>
        <time>2017-07-28T10:16:34Z</time>
      </trkpt>
      <trkpt lat="45.96059" lon="4.77669">
        <ele>198</ele>
        <time>2017-07-28T10:16:35Z</time>
      </trkpt>
      <trkpt lat="45.96055" lon="4.77663">
        <ele>200</ele>
        <time>2017-07-28T10:16:36Z</time>
      </trkpt>
      <trkpt lat="45.96051" lon="4.77657">
        <ele>200</ele>
        <time>2017-07-28T10:16:37Z</time>
      </trkpt>
      <trkpt lat="45.96047" lon="4.77651">
        <ele>200</ele>
        <time>2017-07-28T10:16:38Z</time>
      </trkpt>
      <trkpt lat="45.96043" lon="4.77646">
        <ele>199</ele>
        <time>2017-07-28T10:16:39Z</time>
      </trkpt>
      <trkpt lat="45.96038" lon="4.77641">
        <ele>199</ele>
        <time>2017-07-28T10:16:40Z</time>
      </trkpt>
      <trkpt lat="45.96033" lon="4.77636">
        <ele>199</ele>
        <time>2017-07-28T10:16:41Z</time>
      </trkpt>
      <trkpt lat="45.96029" lon="4.77631">
        <ele>199</ele>
        <time>2017-07-28T10:16:42Z</time>
      </trkpt>
      <trkpt lat="45.96024" lon="4.77625">
        <ele>199</ele>
        <time>2017-07-28T10:16:43Z</time>
      </trkpt>
      <trkpt lat="45.96019" lon="4.7762">
        <ele>199</ele>
        <time>2017-07-28T10:16:44Z</time>
      </trkpt>
      <trkpt lat="45.96014" lon="4.77614">
        <ele>199</ele>
        <time>2017-07-28T10:16:45Z</time>
      </trkpt>
      <trkpt lat="45.96009" lon="4.77608">
        <ele>199</ele>
        <time>2017-07-28T10:16:46Z</time>
      </trkpt>
      <trkpt lat="45.96005" lon="4.77603">
        <ele>198</ele>
        <time>2017-07-28T10:16:47Z</time>
      </trkpt>
      <trkpt lat="45.96" lon="4.77597">
        <ele>198</ele>
        <time>2017-07-28T10:16:48Z</time>
      </trkpt>
      <trkpt lat="45.95996" lon="4.77591">
        <ele>196</ele>
        <time>2017-07-28T10:16:49Z</time>
      </trkpt>
      <trkpt lat="45.95993" lon="4.77584">
        <ele>196</ele>
        <time>2017-07-28T10:16:50Z</time>
      </trkpt>
      <trkpt lat="45.9599" lon="4.77576">
        <ele>196</ele>
        <time>2017-07-28T10:16:51Z</time>
      </trkpt>
      <trkpt lat="45.95987" lon="4.77568">
        <ele>196</ele>
        <time>2017-07-28T10:16:52Z</time>
      </trkpt>
      <trkpt lat="45.95983" lon="4.77559">
        <ele>196</ele>
        <time>2017-07-28T10:16:53Z</time>
      </trkpt>
      <trkpt lat="45.95979" lon="4.77551">
        <ele>196</ele>
        <time>2017-07-28T10:16:54Z</time>
      </trkpt>
      <trkpt lat="45.95975" lon="4.77543">
        <ele>195</ele>
        <time>2017-07-28T10:16:55Z</time>
      </trkpt>
      <trkpt lat="45.95972" lon="4.77536">
        <ele>195</ele>
        <time>2017-07-28T10:16:56Z</time>
      </trkpt>
      <trkpt lat="45.95967" lon="4.77528">
        <ele>195</ele>
        <time>2017-07-28T10:16:57Z</time>
      </trkpt>
      <trkpt lat="45.95964" lon="4.7752">
        <ele>195</ele>
        <time>2017-07-28T10:16:58Z</time>
      </trkpt>
      <trkpt lat="45.9596" lon="4.77511">
        <ele>195</ele>
        <time>2017-07-28T10:16:59Z</time>
      </trkpt>
      <trkpt lat="45.95957" lon="4.77502">
        <ele>195</ele>
        <time>2017-07-28T10:17:00Z</time>
      </trkpt>
      <trkpt lat="45.95954" lon="4.77494">
        <ele>196</ele>
        <time>2017-07-28T10:17:01Z</time>
      </trkpt>
      <trkpt lat="45.9595" lon="4.77484">
        <ele>195</ele>
        <time>2017-07-28T10:17:02Z</time>
      </trkpt>
      <trkpt lat="45.95946" lon="4.77475">
        <ele>195</ele>
        <time>2017-07-28T10:17:03Z</time>
      </trkpt>
      <trkpt lat="45.95942" lon="4.77467">
        <ele>195</ele>
        <time>2017-07-28T10:17:04Z</time>
      </trkpt>
      <trkpt lat="45.95939" lon="4.77458">
        <ele>195</ele>
        <time>2017-07-28T10:17:05Z</time>
      </trkpt>
      <trkpt lat="45.95936" lon="4.77449">
        <ele>195</ele>
        <time>2017-07-28T10:17:06Z</time>
      </trkpt>
      <trkpt lat="45.95933" lon="4.77439">
        <ele>195</ele>
        <time>2017-07-28T10:17:07Z</time>
      </trkpt>
      <trkpt lat="45.9593" lon="4.7743">
        <ele>195</ele>
        <time>2017-07-28T10:17:08Z</time>
      </trkpt>
      <trkpt lat="45.95926" lon="4.77421">
        <ele>195</ele>
        <time>2017-07-28T10:17:09Z</time>
      </trkpt>
      <trkpt lat="45.95923" lon="4.77412">
        <ele>195</ele>
        <time>2017-07-28T10:17:10Z</time>
      </trkpt>
      <trkpt lat="45.9592" lon="4.77402">
        <ele>195</ele>
        <time>2017-07-28T10:17:11Z</time>
      </trkpt>
      <trkpt lat="45.95918" lon="4.77393">
        <ele>196</ele>
        <time>2017-07-28T10:17:12Z</time>
      </trkpt>
      <trkpt lat="45.95915" lon="4.77383">
        <ele>193</ele>
        <time>2017-07-28T10:17:13Z</time>
      </trkpt>
      <trkpt lat="45.95912" lon="4.77375">
        <ele>193</ele>
        <time>2017-07-28T10:17:14Z</time>
      </trkpt>
      <trkpt lat="45.95909" lon="4.77366">
        <ele>193</ele>
        <time>2017-07-28T10:17:15Z</time>
      </trkpt>
      <trkpt lat="45.95906" lon="4.77357">
        <ele>193</ele>
        <time>2017-07-28T10:17:16Z</time>
      </trkpt>
      <trkpt lat="45.95902" lon="4.77348">
        <ele>193</ele>
        <time>2017-07-28T10:17:17Z</time>
      </trkpt>
      <trkpt lat="45.95899" lon="4.77339">
        <ele>193</ele>
        <time>2017-07-28T10:17:18Z</time>
      </trkpt>
      <trkpt lat="45.95896" lon="4.77329">
        <ele>193</ele>
        <time>2017-07-28T10:17:19Z</time>
      </trkpt>
      <trkpt lat="45.95893" lon="4.77319">
        <ele>193</ele>
        <time>2017-07-28T10:17:20Z</time>
      </trkpt>
      <trkpt lat="45.9589" lon="4.77309">
        <ele>193</ele>
        <time>2017-07-28T10:17:21Z</time>
      </trkpt>
      <trkpt lat="45.95887" lon="4.77299">
        <ele>193</ele>
        <time>2017-07-28T10:17:22Z</time>
      </trkpt>
      <trkpt lat="45.95885" lon="4.77289">
        <ele>193</ele>
        <time>2017-07-28T10:17:23Z</time>
      </trkpt>
      <trkpt lat="45.95883" lon="4.7728">
        <ele>193</ele>
        <time>2017-07-28T10:17:24Z</time>
      </trkpt>
      <trkpt lat="45.95881" lon="4.7727">
        <ele>193</ele>
        <time>2017-07-28T10:17:25Z</time>
      </trkpt>
      <trkpt lat="45.95878" lon="4.7726">
        <ele>193</ele>
        <time>2017-07-28T10:17:26Z</time>
      </trkpt>
      <trkpt lat="45.95877" lon="4.77251">
        <ele>193</ele>
        <time>2017-07-28T10:17:27Z</time>
      </trkpt>
      <trkpt lat="45.95876" lon="4.7724">
        <ele>193</ele>
        <time>2017-07-28T10:17:28Z</time>
      </trkpt>
      <trkpt lat="45.95874" lon="4.77231">
        <ele>193</ele>
        <time>2017-07-28T10:17:29Z</time>
      </trkpt>
      <trkpt lat="45.95871" lon="4.77222">
        <ele>193</ele>
        <time>2017-07-28T10:17:30Z</time>
      </trkpt>
      <trkpt lat="45.95869" lon="4.77214">
        <ele>193</ele>
        <time>2017-07-28T10:17:31Z</time>
      </trkpt>
      <trkpt lat="45.95867" lon="4.77205">
        <ele>193</ele>
        <time>2017-07-28T10:17:32Z</time>
      </trkpt>
      <trkpt lat="45.95866" lon="4.77197">
        <ele>193</ele>
        <time>2017-07-28T10:17:33Z</time>
      </trkpt>
      <trkpt lat="45.95863" lon="4.77188">
        <ele>192</ele>
        <time>2017-07-28T10:17:34Z</time>
      </trkpt>
      <trkpt lat="45.95861" lon="4.7718">
        <ele>192</ele>
        <time>2017-07-28T10:17:35Z</time>
      </trkpt>
      <trkpt lat="45.95858" lon="4.77171">
        <ele>192</ele>
        <time>2017-07-28T10:17:36Z</time>
      </trkpt>
      <trkpt lat="45.95856" lon="4.77161">
        <ele>192</ele>
        <time>2017-07-28T10:17:37Z</time>
      </trkpt>
      <trkpt lat="45.95853" lon="4.77152">
        <ele>192</ele>
        <time>2017-07-28T10:17:38Z</time>
      </trkpt>
      <trkpt lat="45.95851" lon="4.77143">
        <ele>193</ele>
        <time>2017-07-28T10:17:39Z</time>
      </trkpt>
      <trkpt lat="45.95848" lon="4.77134">
        <ele>193</ele>
        <time>2017-07-28T10:17:40Z</time>
      </trkpt>
      <trkpt lat="45.95846" lon="4.77125">
        <ele>193</ele>
        <time>2017-07-28T10:17:41Z</time>
      </trkpt>
      <trkpt lat="45.95844" lon="4.77116">
        <ele>193</ele>
        <time>2017-07-28T10:17:42Z</time>
      </trkpt>
      <trkpt lat="45.95841" lon="4.77106">
        <ele>193</ele>
        <time>2017-07-28T10:17:43Z</time>
      </trkpt>
      <trkpt lat="45.95839" lon="4.77097">
        <ele>193</ele>
        <time>2017-07-28T10:17:44Z</time>
      </trkpt>
      <trkpt lat="45.95836" lon="4.77088">
        <ele>192</ele>
        <time>2017-07-28T10:17:45Z</time>
      </trkpt>
      <trkpt lat="45.95833" lon="4.77079">
        <ele>192</ele>
        <time>2017-07-28T10:17:46Z</time>
      </trkpt>
      <trkpt lat="45.95829" lon="4.77071">
        <ele>191</ele>
        <time>2017-07-28T10:17:47Z</time>
      </trkpt>
      <trkpt lat="45.95825" lon="4.77063">
        <ele>191</ele>
        <time>2017-07-28T10:17:48Z</time>
      </trkpt>
      <trkpt lat="45.95821" lon="4.77055">
        <ele>190</ele>
        <time>2017-07-28T10:17:49Z</time>
      </trkpt>
      <trkpt lat="45.95818" lon="4.77048">
        <ele>190</ele>
        <time>2017-07-28T10:17:50Z</time>
      </trkpt>
      <trkpt lat="45.95814" lon="4.7704">
        <ele>190</ele>
        <time>2017-07-28T10:17:51Z</time>
      </trkpt>
      <trkpt lat="45.95811" lon="4.77032">
        <ele>190</ele>
        <time>2017-07-28T10:17:52Z</time>
      </trkpt>
      <trkpt lat="45.95808" lon="4.77024">
        <ele>190</ele>
        <time>2017-07-28T10:17:53Z</time>
      </trkpt>
      <trkpt lat="45.95806" lon="4.77016">
        <ele>190</ele>
        <time>2017-07-28T10:17:54Z</time>
      </trkpt>
      <trkpt lat="45.95804" lon="4.77009">
        <ele>190</ele>
        <time>2017-07-28T10:17:55Z</time>
      </trkpt>
      <trkpt lat="45.95803" lon="4.77001">
        <ele>190</ele>
        <time>2017-07-28T10:17:56Z</time>
      </trkpt>
      <trkpt lat="45.95802" lon="4.76993">
        <ele>189</ele>
        <time>2017-07-28T10:17:57Z</time>
      </trkpt>
      <trkpt lat="45.95802" lon="4.76985">
        <ele>189</ele>
        <time>2017-07-28T10:17:58Z</time>
      </trkpt>
      <trkpt lat="45.95803" lon="4.76976">
        <ele>189</ele>
        <time>2017-07-28T10:17:59Z</time>
      </trkpt>
      <trkpt lat="45.95804" lon="4.76968">
        <ele>189</ele>
        <time>2017-07-28T10:18:00Z</time>
      </trkpt>
      <trkpt lat="45.95805" lon="4.76959">
        <ele>189</ele>
        <time>2017-07-28T10:18:01Z</time>
      </trkpt>
      <trkpt lat="45.95806" lon="4.76951">
        <ele>189</ele>
        <time>2017-07-28T10:18:02Z</time>
      </trkpt>
      <trkpt lat="45.95808" lon="4.76942">
        <ele>189</ele>
        <time>2017-07-28T10:18:03Z</time>
      </trkpt>
      <trkpt lat="45.9581" lon="4.76932">
        <ele>189</ele>
        <time>2017-07-28T10:18:04Z</time>
      </trkpt>
      <trkpt lat="45.95812" lon="4.76923">
        <ele>189</ele>
        <time>2017-07-28T10:18:05Z</time>
      </trkpt>
      <trkpt lat="45.95814" lon="4.76913">
        <ele>189</ele>
        <time>2017-07-28T10:18:06Z</time>
      </trkpt>
      <trkpt lat="45.95815" lon="4.76903">
        <ele>189</ele>
        <time>2017-07-28T10:18:07Z</time>
      </trkpt>
      <trkpt lat="45.95817" lon="4.76894">
        <ele>189</ele>
        <time>2017-07-28T10:18:08Z</time>
      </trkpt>
      <trkpt lat="45.95818" lon="4.76885">
        <ele>189</ele>
        <time>2017-07-28T10:18:09Z</time>
      </trkpt>
      <trkpt lat="45.9582" lon="4.76876">
        <ele>189</ele>
        <time>2017-07-28T10:18:10Z</time>
      </trkpt>
      <trkpt lat="45.95821" lon="4.76867">
        <ele>189</ele>
        <time>2017-07-28T10:18:11Z</time>
      </trkpt>
      <trkpt lat="45.95823" lon="4.76858">
        <ele>189</ele>
        <time>2017-07-28T10:18:12Z</time>
      </trkpt>
      <trkpt lat="45.95824" lon="4.7685">
        <ele>190</ele>
        <time>2017-07-28T10:18:13Z</time>
      </trkpt>
      <trkpt lat="45.95826" lon="4.76842">
        <ele>190</ele>
        <time>2017-07-28T10:18:14Z</time>
      </trkpt>
      <trkpt lat="45.95828" lon="4.76835">
        <ele>190</ele>
        <time>2017-07-28T10:18:15Z</time>
      </trkpt>
      <trkpt lat="45.9583" lon="4.76827">
        <ele>190</ele>
        <time>2017-07-28T10:18:16Z</time>
      </trkpt>
      <trkpt lat="45.95831" lon="4.7682">
        <ele>190</ele>
        <time>2017-07-28T10:18:17Z</time>
      </trkpt>
      <trkpt lat="45.95832" lon="4.76813">
        <ele>190</ele>
        <time>2017-07-28T10:18:18Z</time>
      </trkpt>
      <trkpt lat="45.95834" lon="4.76806">
        <ele>191</ele>
        <time>2017-07-28T10:18:19Z</time>
      </trkpt>
      <trkpt lat="45.95836" lon="4.76797">
        <ele>191</ele>
        <time>2017-07-28T10:18:20Z</time>
      </trkpt>
      <trkpt lat="45.95836" lon="4.76789">
        <ele>191</ele>
        <time>2017-07-28T10:18:21Z</time>
      </trkpt>
      <trkpt lat="45.95835" lon="4.7678">
        <ele>191</ele>
        <time>2017-07-28T10:18:22Z</time>
      </trkpt>
      <trkpt lat="45.95832" lon="4.76773">
        <ele>190</ele>
        <time>2017-07-28T10:18:23Z</time>
      </trkpt>
      <trkpt lat="45.95829" lon="4.76765">
        <ele>190</ele>
        <time>2017-07-28T10:18:24Z</time>
      </trkpt>
      <trkpt lat="45.95826" lon="4.76756">
        <ele>191</ele>
        <time>2017-07-28T10:18:25Z</time>
      </trkpt>
      <trkpt lat="45.95825" lon="4.76746">
        <ele>190</ele>
        <time>2017-07-28T10:18:26Z</time>
      </trkpt>
      <trkpt lat="45.95823" lon="4.76737">
        <ele>190</ele>
        <time>2017-07-28T10:18:27Z</time>
      </trkpt>
      <trkpt lat="45.95822" lon="4.76727">
        <ele>190</ele>
        <time>2017-07-28T10:18:28Z</time>
      </trkpt>
      <trkpt lat="45.95821" lon="4.76718">
        <ele>189</ele>
        <time>2017-07-28T10:18:29Z</time>
      </trkpt>
      <trkpt lat="45.95819" lon="4.76709">
        <ele>189</ele>
        <time>2017-07-28T10:18:30Z</time>
      </trkpt>
      <trkpt lat="45.95818" lon="4.767">
        <ele>189</ele>
        <time>2017-07-28T10:18:31Z</time>
      </trkpt>
      <trkpt lat="45.95816" lon="4.76692">
        <ele>189</ele>
        <time>2017-07-28T10:18:32Z</time>
      </trkpt>
      <trkpt lat="45.95815" lon="4.76683">
        <ele>189</ele>
        <time>2017-07-28T10:18:33Z</time>
      </trkpt>
      <trkpt lat="45.95814" lon="4.76676">
        <ele>189</ele>
        <time>2017-07-28T10:18:34Z</time>
      </trkpt>
      <trkpt lat="45.95813" lon="4.76669">
        <ele>189</ele>
        <time>2017-07-28T10:18:35Z</time>
      </trkpt>
      <trkpt lat="45.95812" lon="4.76662">
        <ele>188</ele>
        <time>2017-07-28T10:18:36Z</time>
      </trkpt>
      <trkpt lat="45.9581" lon="4.76655">
        <ele>188</ele>
        <time>2017-07-28T10:18:37Z</time>
      </trkpt>
      <trkpt lat="45.95809" lon="4.76648">
        <ele>188</ele>
        <time>2017-07-28T10:18:38Z</time>
      </trkpt>
      <trkpt lat="45.95808" lon="4.76641">
        <ele>188</ele>
        <time>2017-07-28T10:18:39Z</time>
      </trkpt>
      <trkpt lat="45.95807" lon="4.76633">
        <ele>188</ele>
        <time>2017-07-28T10:18:40Z</time>
      </trkpt>
      <trkpt lat="45.95806" lon="4.76625">
        <ele>188</ele>
        <time>2017-07-28T10:18:41Z</time>
      </trkpt>
      <trkpt lat="45.95805" lon="4.76617">
        <ele>188</ele>
        <time>2017-07-28T10:18:42Z</time>
      </trkpt>
      <trkpt lat="45.95804" lon="4.76609">
        <ele>188</ele>
        <time>2017-07-28T10:18:43Z</time>
      </trkpt>
      <trkpt lat="45.95803" lon="4.76602">
        <ele>187</ele>
        <time>2017-07-28T10:18:44Z</time>
      </trkpt>
      <trkpt lat="45.95802" lon="4.76595">
        <ele>187</ele>
        <time>2017-07-28T10:18:45Z</time>
      </trkpt>
      <trkpt lat="45.95801" lon="4.76587">
        <ele>187</ele>
        <time>2017-07-28T10:18:46Z</time>
      </trkpt>
      <trkpt lat="45.95799" lon="4.7658">
        <ele>187</ele>
        <time>2017-07-28T10:18:47Z</time>
      </trkpt>
      <trkpt lat="45.95798" lon="4.76573">
        <ele>187</ele>
        <time>2017-07-28T10:18:48Z</time>
      </trkpt>
      <trkpt lat="45.95797" lon="4.76566">
        <ele>187</ele>
        <time>2017-07-28T10:18:49Z</time>
      </trkpt>
      <trkpt lat="45.95796" lon="4.76558">
        <ele>187</ele>
        <time>2017-07-28T10:18:50Z</time>
      </trkpt>
      <trkpt lat="45.95795" lon="4.76551">
        <ele>187</ele>
        <time>2017-07-28T10:18:51Z</time>
      </trkpt>
      <trkpt lat="45.95794" lon="4.76543">
        <ele>187</ele>
        <time>2017-07-28T10:18:52Z</time>
      </trkpt>
      <trkpt lat="45.95792" lon="4.76535">
        <ele>187</ele>
        <time>2017-07-28T10:18:53Z</time>
      </trkpt>
      <trkpt lat="45.95792" lon="4.76527">
        <ele>187</ele>
        <time>2017-07-28T10:18:54Z</time>
      </trkpt>
      <trkpt lat="45.95791" lon="4.76519">
        <ele>187</ele>
        <time>2017-07-28T10:18:55Z</time>
      </trkpt>
      <trkpt lat="45.95789" lon="4.76511">
        <ele>187</ele>
        <time>2017-07-28T10:18:56Z</time>
      </trkpt>
      <trkpt lat="45.95788" lon="4.76502">
        <ele>187</ele>
        <time>2017-07-28T10:18:57Z</time>
      </trkpt>
      <trkpt lat="45.95787" lon="4.76494">
        <ele>186</ele>
        <time>2017-07-28T10:18:58Z</time>
      </trkpt>
      <trkpt lat="45.95785" lon="4.76486">
        <ele>186</ele>
        <time>2017-07-28T10:18:59Z</time>
      </trkpt>
      <trkpt lat="45.95784" lon="4.76479">
        <ele>186</ele>
        <time>2017-07-28T10:19:00Z</time>
      </trkpt>
      <trkpt lat="45.95783" lon="4.76472">
        <ele>186</ele>
        <time>2017-07-28T10:19:01Z</time>
      </trkpt>
      <trkpt lat="45.95782" lon="4.76465">
        <ele>186</ele>
        <time>2017-07-28T10:19:02Z</time>
      </trkpt>
      <trkpt lat="45.95781" lon="4.76458">
        <ele>186</ele>
        <time>2017-07-28T10:19:03Z</time>
      </trkpt>
      <trkpt lat="45.9578" lon="4.76451">
        <ele>186</ele>
        <time>2017-07-28T10:19:04Z</time>
      </trkpt>
      <trkpt lat="45.95779" lon="4.76445">
        <ele>186</ele>
        <time>2017-07-28T10:19:05Z</time>
      </trkpt>
      <trkpt lat="45.95778" lon="4.76438">
        <ele>186</ele>
        <time>2017-07-28T10:19:06Z</time>
      </trkpt>
      <trkpt lat="45.95777" lon="4.76431">
        <ele>186</ele>
        <time>2017-07-28T10:19:07Z</time>
      </trkpt>
      <trkpt lat="45.95776" lon="4.76425">
        <ele>186</ele>
        <time>2017-07-28T10:19:08Z</time>
      </trkpt>
      <trkpt lat="45.95775" lon="4.76417">
        <ele>186</ele>
        <time>2017-07-28T10:19:09Z</time>
      </trkpt>
      <trkpt lat="45.95774" lon="4.76409">
        <ele>186</ele>
        <time>2017-07-28T10:19:10Z</time>
      </trkpt>
      <trkpt lat="45.95773" lon="4.76402">
        <ele>186</ele>
        <time>2017-07-28T10:19:11Z</time>
      </trkpt>
      <trkpt lat="45.95773" lon="4.76394">
        <ele>186</ele>
        <time>2017-07-28T10:19:12Z</time>
      </trkpt>
      <trkpt lat="45.95772" lon="4.76386">
        <ele>186</ele>
        <time>2017-07-28T10:19:13Z</time>
      </trkpt>
      <trkpt lat="45.95772" lon="4.76378">
        <ele>186</ele>
        <time>2017-07-28T10:19:14Z</time>
      </trkpt>
      <trkpt lat="45.95771" lon="4.7637">
        <ele>186</ele>
        <time>2017-07-28T10:19:15Z</time>
      </trkpt>
      <trkpt lat="45.95771" lon="4.76362">
        <ele>186</ele>
        <time>2017-07-28T10:19:16Z</time>
      </trkpt>
      <trkpt lat="45.9577" lon="4.76354">
        <ele>186</ele>
        <time>2017-07-28T10:19:17Z</time>
      </trkpt>
      <trkpt lat="45.9577" lon="4.76346">
        <ele>186</ele>
        <time>2017-07-28T10:19:18Z</time>
      </trkpt>
      <trkpt lat="45.95769" lon="4.76339">
        <ele>186</ele>
        <time>2017-07-28T10:19:19Z</time>
      </trkpt>
      <trkpt lat="45.95769" lon="4.76331">
        <ele>185</ele>
        <time>2017-07-28T10:19:20Z</time>
      </trkpt>
      <trkpt lat="45.95768" lon="4.76323">
        <ele>185</ele>
        <time>2017-07-28T10:19:21Z</time>
      </trkpt>
      <trkpt lat="45.95768" lon="4.76316">
        <ele>185</ele>
        <time>2017-07-28T10:19:22Z</time>
      </trkpt>
      <trkpt lat="45.95767" lon="4.76308">
        <ele>185</ele>
        <time>2017-07-28T10:19:23Z</time>
      </trkpt>
      <trkpt lat="45.95767" lon="4.76301">
        <ele>186</ele>
        <time>2017-07-28T10:19:24Z</time>
      </trkpt>
      <trkpt lat="45.95767" lon="4.76294">
        <ele>186</ele>
        <time>2017-07-28T10:19:25Z</time>
      </trkpt>
      <trkpt lat="45.95767" lon="4.76287">
        <ele>186</ele>
        <time>2017-07-28T10:19:26Z</time>
      </trkpt>
      <trkpt lat="45.95766" lon="4.76279">
        <ele>186</ele>
        <time>2017-07-28T10:19:27Z</time>
      </trkpt>
      <trkpt lat="45.95766" lon="4.76272">
        <ele>186</ele>
        <time>2017-07-28T10:19:28Z</time>
      </trkpt>
      <trkpt lat="45.95766" lon="4.76265">
        <ele>185</ele>
        <time>2017-07-28T10:19:29Z</time>
      </trkpt>
      <trkpt lat="45.95765" lon="4.76257">
        <ele>185</ele>
        <time>2017-07-28T10:19:30Z</time>
      </trkpt>
      <trkpt lat="45.95765" lon="4.7625">
        <ele>185</ele>
        <time>2017-07-28T10:19:31Z</time>
      </trkpt>
      <trkpt lat="45.95765" lon="4.76241">
        <ele>186</ele>
        <time>2017-07-28T10:19:32Z</time>
      </trkpt>
      <trkpt lat="45.95765" lon="4.76232">
        <ele>186</ele>
        <time>2017-07-28T10:19:33Z</time>
      </trkpt>
      <trkpt lat="45.95764" lon="4.76224">
        <ele>186</ele>
        <time>2017-07-28T10:19:34Z</time>
      </trkpt>
      <trkpt lat="45.95763" lon="4.76215">
        <ele>186</ele>
        <time>2017-07-28T10:19:35Z</time>
      </trkpt>
      <trkpt lat="45.95763" lon="4.76206">
        <ele>186</ele>
        <time>2017-07-28T10:19:36Z</time>
      </trkpt>
      <trkpt lat="45.95762" lon="4.76196">
        <ele>186</ele>
        <time>2017-07-28T10:19:37Z</time>
      </trkpt>
      <trkpt lat="45.95762" lon="4.76186">
        <ele>186</ele>
        <time>2017-07-28T10:19:38Z</time>
      </trkpt>
      <trkpt lat="45.95761" lon="4.76176">
        <ele>185</ele>
        <time>2017-07-28T10:19:39Z</time>
      </trkpt>
      <trkpt lat="45.9576" lon="4.76166">
        <ele>185</ele>
        <time>2017-07-28T10:19:40Z</time>
      </trkpt>
      <trkpt lat="45.9576" lon="4.76157">
        <ele>186</ele>
        <time>2017-07-28T10:19:41Z</time>
      </trkpt>
      <trkpt lat="45.95759" lon="4.76147">
        <ele>186</ele>
        <time>2017-07-28T10:19:42Z</time>
      </trkpt>
      <trkpt lat="45.95759" lon="4.76138">
        <ele>186</ele>
        <time>2017-07-28T10:19:43Z</time>
      </trkpt>
      <trkpt lat="45.95758" lon="4.76129">
        <ele>186</ele>
        <time>2017-07-28T10:19:44Z</time>
      </trkpt>
      <trkpt lat="45.95758" lon="4.76121">
        <ele>186</ele>
        <time>2017-07-28T10:19:45Z</time>
      </trkpt>
      <trkpt lat="45.95757" lon="4.76113">
        <ele>186</ele>
        <time>2017-07-28T10:19:46Z</time>
      </trkpt>
      <trkpt lat="45.95756" lon="4.76105">
        <ele>186</ele>
        <time>2017-07-28T10:19:47Z</time>
      </trkpt>
      <trkpt lat="45.95755" lon="4.76098">
        <ele>186</ele>
        <time>2017-07-28T10:19:48Z</time>
      </trkpt>
      <trkpt lat="45.95753" lon="4.7609">
        <ele>185</ele>
        <time>2017-07-28T10:19:49Z</time>
      </trkpt>
      <trkpt lat="45.95751" lon="4.76083">
        <ele>185</ele>
        <time>2017-07-28T10:19:50Z</time>
      </trkpt>
      <trkpt lat="45.95748" lon="4.76076">
        <ele>185</ele>
        <time>2017-07-28T10:19:51Z</time>
      </trkpt>
      <trkpt lat="45.95745" lon="4.76069">
        <ele>185</ele>
        <time>2017-07-28T10:19:52Z</time>
      </trkpt>
      <trkpt lat="45.95742" lon="4.76062">
        <ele>184</ele>
        <time>2017-07-28T10:19:53Z</time>
      </trkpt>
      <trkpt lat="45.95739" lon="4.76055">
        <ele>184</ele>
        <time>2017-07-28T10:19:54Z</time>
      </trkpt>
      <trkpt lat="45.95736" lon="4.76048">
        <ele>184</ele>
        <time>2017-07-28T10:19:55Z</time>
      </trkpt>
      <trkpt lat="45.95733" lon="4.76041">
        <ele>184</ele>
        <time>2017-07-28T10:19:56Z</time>
      </trkpt>
      <trkpt lat="45.9573" lon="4.76034">
        <ele>184</ele>
        <time>2017-07-28T10:19:57Z</time>
      </trkpt>
      <trkpt lat="45.95726" lon="4.76027">
        <ele>184</ele>
        <time>2017-07-28T10:19:58Z</time>
      </trkpt>
      <trkpt lat="45.95723" lon="4.7602">
        <ele>184</ele>
        <time>2017-07-28T10:19:59Z</time>
      </trkpt>
      <trkpt lat="45.95719" lon="4.76012">
        <ele>184</ele>
        <time>2017-07-28T10:20:00Z</time>
      </trkpt>
      <trkpt lat="45.95715" lon="4.76004">
        <ele>184</ele>
        <time>2017-07-28T10:20:01Z</time>
      </trkpt>
      <trkpt lat="45.95711" lon="4.75996">
        <ele>185</ele>
        <time>2017-07-28T10:20:02Z</time>
      </trkpt>
      <trkpt lat="45.95707" lon="4.75988">
        <ele>185</ele>
        <time>2017-07-28T10:20:03Z</time>
      </trkpt>
      <trkpt lat="45.95703" lon="4.75979">
        <ele>185</ele>
        <time>2017-07-28T10:20:04Z</time>
      </trkpt>
      <trkpt lat="45.95699" lon="4.75971">
        <ele>185</ele>
        <time>2017-07-28T10:20:05Z</time>
      </trkpt>
      <trkpt lat="45.95695" lon="4.75962">
        <ele>185</ele>
        <time>2017-07-28T10:20:06Z</time>
      </trkpt>
      <trkpt lat="45.95691" lon="4.75954">
        <ele>185</ele>
        <time>2017-07-28T10:20:07Z</time>
      </trkpt>
      <trkpt lat="45.95687" lon="4.75945">
        <ele>185</ele>
        <time>2017-07-28T10:20:08Z</time>
      </trkpt>
      <trkpt lat="45.95683" lon="4.75937">
        <ele>185</ele>
        <time>2017-07-28T10:20:09Z</time>
      </trkpt>
      <trkpt lat="45.95679" lon="4.75929">
        <ele>185</ele>
        <time>2017-07-28T10:20:10Z</time>
      </trkpt>
      <trkpt lat="45.95676" lon="4.7592">
        <ele>184</ele>
        <time>2017-07-28T10:20:11Z</time>
      </trkpt>
      <trkpt lat="45.95673" lon="4.75912">
        <ele>185</ele>
        <time>2017-07-28T10:20:12Z</time>
      </trkpt>
      <trkpt lat="45.9567" lon="4.75904">
        <ele>185</ele>
        <time>2017-07-28T10:20:13Z</time>
      </trkpt>
      <trkpt lat="45.95667" lon="4.75896">
        <ele>185</ele>
        <time>2017-07-28T10:20:14Z</time>
      </trkpt>
      <trkpt lat="45.95664" lon="4.75888">
        <ele>184</ele>
        <time>2017-07-28T10:20:15Z</time>
      </trkpt>
      <trkpt lat="45.95662" lon="4.7588">
        <ele>184</ele>
        <time>2017-07-28T10:20:16Z</time>
      </trkpt>
      <trkpt lat="45.95659" lon="4.75872">
        <ele>184</ele>
        <time>2017-07-28T10:20:17Z</time>
      </trkpt>
      <trkpt lat="45.95657" lon="4.75864">
        <ele>184</ele>
        <time>2017-07-28T10:20:18Z</time>
      </trkpt>
      <trkpt lat="45.95654" lon="4.75855">
        <ele>184</ele>
        <time>2017-07-28T10:20:19Z</time>
      </trkpt>
      <trkpt lat="45.95652" lon="4.75846">
        <ele>185</ele>
        <time>2017-07-28T10:20:20Z</time>
      </trkpt>
      <trkpt lat="45.9565" lon="4.75837">
        <ele>185</ele>
        <time>2017-07-28T10:20:21Z</time>
      </trkpt>
      <trkpt lat="45.95648" lon="4.75827">
        <ele>185</ele>
        <time>2017-07-28T10:20:22Z</time>
      </trkpt>
      <trkpt lat="45.95646" lon="4.75818">
        <ele>185</ele>
        <time>2017-07-28T10:20:23Z</time>
      </trkpt>
      <trkpt lat="45.95644" lon="4.75809">
        <ele>185</ele>
        <time>2017-07-28T10:20:24Z</time>
      </trkpt>
      <trkpt lat="45.95642" lon="4.758">
        <ele>185</ele>
        <time>2017-07-28T10:20:25Z</time>
      </trkpt>
      <trkpt lat="45.95641" lon="4.75792">
        <ele>185</ele>
        <time>2017-07-28T10:20:26Z</time>
      </trkpt>
      <trkpt lat="45.9564" lon="4.75783">
        <ele>185</ele>
        <time>2017-07-28T10:20:27Z</time>
      </trkpt>
      <trkpt lat="45.95639" lon="4.75775">
        <ele>186</ele>
        <time>2017-07-28T10:20:28Z</time>
      </trkpt>
      <trkpt lat="45.95638" lon="4.75768">
        <ele>186</ele>
        <time>2017-07-28T10:20:29Z</time>
      </trkpt>
      <trkpt lat="45.95637" lon="4.7576">
        <ele>186</ele>
        <time>2017-07-28T10:20:30Z</time>
      </trkpt>
      <trkpt lat="45.95636" lon="4.75752">
        <ele>186</ele>
        <time>2017-07-28T10:20:31Z</time>
      </trkpt>
      <trkpt lat="45.95635" lon="4.75744">
        <ele>187</ele>
        <time>2017-07-28T10:20:32Z</time>
      </trkpt>
      <trkpt lat="45.95633" lon="4.75736">
        <ele>187</ele>
        <time>2017-07-28T10:20:33Z</time>
      </trkpt>
      <trkpt lat="45.95632" lon="4.75727">
        <ele>187</ele>
        <time>2017-07-28T10:20:34Z</time>
      </trkpt>
      <trkpt lat="45.9563" lon="4.75718">
        <ele>187</ele>
        <time>2017-07-28T10:20:35Z</time>
      </trkpt>
      <trkpt lat="45.95629" lon="4.75709">
        <ele>187</ele>
        <time>2017-07-28T10:20:36Z</time>
      </trkpt>
      <trkpt lat="45.95628" lon="4.75701">
        <ele>187</ele>
        <time>2017-07-28T10:20:37Z</time>
      </trkpt>
      <trkpt lat="45.95627" lon="4.75693">
        <ele>187</ele>
        <time>2017-07-28T10:20:38Z</time>
      </trkpt>
      <trkpt lat="45.95625" lon="4.75684">
        <ele>187</ele>
        <time>2017-07-28T10:20:39Z</time>
      </trkpt>
      <trkpt lat="45.95624" lon="4.75676">
        <ele>187</ele>
        <time>2017-07-28T10:20:40Z</time>
      </trkpt>
      <trkpt lat="45.95622" lon="4.75669">
        <ele>187</ele>
        <time>2017-07-28T10:20:41Z</time>
      </trkpt>
      <trkpt lat="45.9562" lon="4.75661">
        <ele>188</ele>
        <time>2017-07-28T10:20:42Z</time>
      </trkpt>
      <trkpt lat="45.95618" lon="4.75654">
        <ele>188</ele>
        <time>2017-07-28T10:20:43Z</time>
      </trkpt>
      <trkpt lat="45.95617" lon="4.75647">
        <ele>188</ele>
        <time>2017-07-28T10:20:44Z</time>
      </trkpt>
      <trkpt lat="45.95615" lon="4.7564">
        <ele>188</ele>
        <time>2017-07-28T10:20:45Z</time>
      </trkpt>
      <trkpt lat="45.95613" lon="4.75633">
        <ele>188</ele>
        <time>2017-07-28T10:20:46Z</time>
      </trkpt>
      <trkpt lat="45.95611" lon="4.75626">
        <ele>188</ele>
        <time>2017-07-28T10:20:47Z</time>
      </trkpt>
      <trkpt lat="45.95609" lon="4.7562">
        <ele>188</ele>
        <time>2017-07-28T10:20:48Z</time>
      </trkpt>
      <trkpt lat="45.95607" lon="4.75613">
        <ele>188</ele>
        <time>2017-07-28T10:20:49Z</time>
      </trkpt>
      <trkpt lat="45.95604" lon="4.75606">
        <ele>187</ele>
        <time>2017-07-28T10:20:50Z</time>
      </trkpt>
      <trkpt lat="45.95602" lon="4.756">
        <ele>187</ele>
        <time>2017-07-28T10:20:51Z</time>
      </trkpt>
      <trkpt lat="45.956" lon="4.75594">
        <ele>187</ele>
        <time>2017-07-28T10:20:52Z</time>
      </trkpt>
      <trkpt lat="45.95598" lon="4.75587">
        <ele>187</ele>
        <time>2017-07-28T10:20:53Z</time>
      </trkpt>
      <trkpt lat="45.95596" lon="4.75581">
        <ele>187</ele>
        <time>2017-07-28T10:20:54Z</time>
      </trkpt>
      <trkpt lat="45.95593" lon="4.75575">
        <ele>187</ele>
        <time>2017-07-28T10:20:55Z</time>
      </trkpt>
      <trkpt lat="45.9559" lon="4.75569">
        <ele>188</ele>
        <time>2017-07-28T10:20:56Z</time>
      </trkpt>
      <trkpt lat="45.95587" lon="4.75563">
        <ele>188</ele>
        <time>2017-07-28T10:20:57Z</time>
      </trkpt>
      <trkpt lat="45.95583" lon="4.75557">
        <ele>186</ele>
        <time>2017-07-28T10:20:58Z</time>
      </trkpt>
      <trkpt lat="45.9558" lon="4.75552">
        <ele>186</ele>
        <time>2017-07-28T10:20:59Z</time>
      </trkpt>
      <trkpt lat="45.95576" lon="4.75546">
        <ele>186</ele>
        <time>2017-07-28T10:21:00Z</time>
      </trkpt>
      <trkpt lat="45.95571" lon="4.75541">
        <ele>186</ele>
        <time>2017-07-28T10:21:01Z</time>
      </trkpt>
      <trkpt lat="45.95567" lon="4.75535">
        <ele>186</ele>
        <time>2017-07-28T10:21:02Z</time>
      </trkpt>
      <trkpt lat="45.95562" lon="4.7553">
        <ele>186</ele>
        <time>2017-07-28T10:21:03Z</time>
      </trkpt>
      <trkpt lat="45.95558" lon="4.75525">
        <ele>186</ele>
        <time>2017-07-28T10:21:04Z</time>
      </trkpt>
      <trkpt lat="45.95554" lon="4.7552">
        <ele>186</ele>
        <time>2017-07-28T10:21:05Z</time>
      </trkpt>
      <trkpt lat="45.9555" lon="4.75515">
        <ele>186</ele>
        <time>2017-07-28T10:21:06Z</time>
      </trkpt>
      <trkpt lat="45.95546" lon="4.7551">
        <ele>186</ele>
        <time>2017-07-28T10:21:07Z</time>
      </trkpt>
      <trkpt lat="45.95542" lon="4.75503">
        <ele>186</ele>
        <time>2017-07-28T10:21:09Z</time>
      </trkpt>
      <trkpt lat="45.9554" lon="4.755">
        <ele>186</ele>
        <time>2017-07-28T10:21:10Z</time>
      </trkpt>
      <trkpt lat="45.95537" lon="4.7549">
        <ele>187</ele>
        <time>2017-07-28T10:21:14Z</time>
      </trkpt>
      <trkpt lat="45.95537" lon="4.75487">
        <ele>187</ele>
        <time>2017-07-28T10:21:15Z</time>
      </trkpt>
      <trkpt lat="45.95538" lon="4.75477">
        <ele>187</ele>
        <time>2017-07-28T10:21:17Z</time>
      </trkpt>
      <trkpt lat="45.95538" lon="4.75471">
        <ele>187</ele>
        <time>2017-07-28T10:21:18Z</time>
      </trkpt>
      <trkpt lat="45.95537" lon="4.75465">
        <ele>187</ele>
        <time>2017-07-28T10:21:19Z</time>
      </trkpt>
      <trkpt lat="45.95534" lon="4.75459">
        <ele>187</ele>
        <time>2017-07-28T10:21:20Z</time>
      </trkpt>
      <trkpt lat="45.9553" lon="4.75453">
        <ele>187</ele>
        <time>2017-07-28T10:21:21Z</time>
      </trkpt>
      <trkpt lat="45.95526" lon="4.75448">
        <ele>187</ele>
        <time>2017-07-28T10:21:22Z</time>
      </trkpt>
      <trkpt lat="45.95521" lon="4.75441">
        <ele>187</ele>
        <time>2017-07-28T10:21:23Z</time>
      </trkpt>
      <trkpt lat="45.95517" lon="4.75435">
        <ele>187</ele>
        <time>2017-07-28T10:21:24Z</time>
      </trkpt>
      <trkpt lat="45.95513" lon="4.75427">
        <ele>186</ele>
        <time>2017-07-28T10:21:25Z</time>
      </trkpt>
      <trkpt lat="45.95511" lon="4.7542">
        <ele>186</ele>
        <time>2017-07-28T10:21:26Z</time>
      </trkpt>
      <trkpt lat="45.95509" lon="4.75412">
        <ele>186</ele>
        <time>2017-07-28T10:21:27Z</time>
      </trkpt>
      <trkpt lat="45.95507" lon="4.75405">
        <ele>187</ele>
        <time>2017-07-28T10:21:28Z</time>
      </trkpt>
      <trkpt lat="45.95505" lon="4.75398">
        <ele>187</ele>
        <time>2017-07-28T10:21:29Z</time>
      </trkpt>
      <trkpt lat="45.95503" lon="4.75392">
        <ele>188</ele>
        <time>2017-07-28T10:21:30Z</time>
      </trkpt>
      <trkpt lat="45.955" lon="4.75386">
        <ele>185</ele>
        <time>2017-07-28T10:21:31Z</time>
      </trkpt>
      <trkpt lat="45.95497" lon="4.75379">
        <ele>185</ele>
        <time>2017-07-28T10:21:32Z</time>
      </trkpt>
      <trkpt lat="45.95494" lon="4.75373">
        <ele>185</ele>
        <time>2017-07-28T10:21:33Z</time>
      </trkpt>
      <trkpt lat="45.95491" lon="4.75367">
        <ele>186</ele>
        <time>2017-07-28T10:21:34Z</time>
      </trkpt>
      <trkpt lat="45.95488" lon="4.75361">
        <ele>186</ele>
        <time>2017-07-28T10:21:35Z</time>
      </trkpt>
      <trkpt lat="45.95484" lon="4.75354">
        <ele>186</ele>
        <time>2017-07-28T10:21:36Z</time>
      </trkpt>
      <trkpt lat="45.9548" lon="4.75348">
        <ele>186</ele>
        <time>2017-07-28T10:21:37Z</time>
      </trkpt>
      <trkpt lat="45.95476" lon="4.75341">
        <ele>186</ele>
        <time>2017-07-28T10:21:38Z</time>
      </trkpt>
      <trkpt lat="45.95473" lon="4.75335">
        <ele>186</ele>
        <time>2017-07-28T10:21:39Z</time>
      </trkpt>
      <trkpt lat="45.95469" lon="4.7533">
        <ele>188</ele>
        <time>2017-07-28T10:21:40Z</time>
      </trkpt>
      <trkpt lat="45.95466" lon="4.75324">
        <ele>188</ele>
        <time>2017-07-28T10:21:41Z</time>
      </trkpt>
      <trkpt lat="45.95463" lon="4.75319">
        <ele>188</ele>
        <time>2017-07-28T10:21:42Z</time>
      </trkpt>
      <trkpt lat="45.9546" lon="4.75313">
        <ele>188</ele>
        <time>2017-07-28T10:21:43Z</time>
      </trkpt>
      <trkpt lat="45.95457" lon="4.75308">
        <ele>188</ele>
        <time>2017-07-28T10:21:44Z</time>
      </trkpt>
      <trkpt lat="45.95454" lon="4.75302">
        <ele>188</ele>
        <time>2017-07-28T10:21:45Z</time>
      </trkpt>
      <trkpt lat="45.9545" lon="4.75296">
        <ele>188</ele>
        <time>2017-07-28T10:21:46Z</time>
      </trkpt>
      <trkpt lat="45.95447" lon="4.7529">
        <ele>188</ele>
        <time>2017-07-28T10:21:47Z</time>
      </trkpt>
      <trkpt lat="45.95443" lon="4.75283">
        <ele>188</ele>
        <time>2017-07-28T10:21:48Z</time>
      </trkpt>
      <trkpt lat="45.95439" lon="4.75277">
        <ele>188</ele>
        <time>2017-07-28T10:21:49Z</time>
      </trkpt>
      <trkpt lat="45.95435" lon="4.7527">
        <ele>189</ele>
        <time>2017-07-28T10:21:50Z</time>
      </trkpt>
      <trkpt lat="45.95432" lon="4.75263">
        <ele>189</ele>
        <time>2017-07-28T10:21:51Z</time>
      </trkpt>
      <trkpt lat="45.95428" lon="4.75256">
        <ele>189</ele>
        <time>2017-07-28T10:21:52Z</time>
      </trkpt>
      <trkpt lat="45.95425" lon="4.75249">
        <ele>190</ele>
        <time>2017-07-28T10:21:53Z</time>
      </trkpt>
      <trkpt lat="45.95421" lon="4.75242">
        <ele>190</ele>
        <time>2017-07-28T10:21:54Z</time>
      </trkpt>
      <trkpt lat="45.95418" lon="4.75236">
        <ele>190</ele>
        <time>2017-07-28T10:21:55Z</time>
      </trkpt>
      <trkpt lat="45.95416" lon="4.7523">
        <ele>189</ele>
        <time>2017-07-28T10:21:56Z</time>
      </trkpt>
      <trkpt lat="45.95413" lon="4.75224">
        <ele>189</ele>
        <time>2017-07-28T10:21:57Z</time>
      </trkpt>
      <trkpt lat="45.9541" lon="4.75218">
        <ele>189</ele>
        <time>2017-07-28T10:21:58Z</time>
      </trkpt>
      <trkpt lat="45.95407" lon="4.75213">
        <ele>189</ele>
        <time>2017-07-28T10:21:59Z</time>
      </trkpt>
      <trkpt lat="45.95404" lon="4.75207">
        <ele>189</ele>
        <time>2017-07-28T10:22:00Z</time>
      </trkpt>
      <trkpt lat="45.954" lon="4.752">
        <ele>189</ele>
        <time>2017-07-28T10:22:01Z</time>
      </trkpt>
      <trkpt lat="45.95397" lon="4.75194">
        <ele>189</ele>
        <time>2017-07-28T10:22:02Z</time>
      </trkpt>
      <trkpt lat="45.95393" lon="4.75187">
        <ele>189</ele>
        <time>2017-07-28T10:22:03Z</time>
      </trkpt>
      <trkpt lat="45.95389" lon="4.7518">
        <ele>189</ele>
        <time>2017-07-28T10:22:04Z</time>
      </trkpt>
      <trkpt lat="45.95385" lon="4.75173">
        <ele>189</ele>
        <time>2017-07-28T10:22:05Z</time>
      </trkpt>
      <trkpt lat="45.95381" lon="4.75167">
        <ele>191</ele>
        <time>2017-07-28T10:22:06Z</time>
      </trkpt>
      <trkpt lat="45.95377" lon="4.75161">
        <ele>191</ele>
        <time>2017-07-28T10:22:07Z</time>
      </trkpt>
      <trkpt lat="45.95373" lon="4.75155">
        <ele>191</ele>
        <time>2017-07-28T10:22:08Z</time>
      </trkpt>
      <trkpt lat="45.9537" lon="4.75149">
        <ele>191</ele>
        <time>2017-07-28T10:22:09Z</time>
      </trkpt>
      <trkpt lat="45.95367" lon="4.75143">
        <ele>191</ele>
        <time>2017-07-28T10:22:10Z</time>
      </trkpt>
      <trkpt lat="45.95364" lon="4.75137">
        <ele>191</ele>
        <time>2017-07-28T10:22:11Z</time>
      </trkpt>
      <trkpt lat="45.95361" lon="4.75132">
        <ele>191</ele>
        <time>2017-07-28T10:22:12Z</time>
      </trkpt>
      <trkpt lat="45.95358" lon="4.75125">
        <ele>191</ele>
        <time>2017-07-28T10:22:13Z</time>
      </trkpt>
      <trkpt lat="45.95354" lon="4.7512">
        <ele>191</ele>
        <time>2017-07-28T10:22:14Z</time>
      </trkpt>
      <trkpt lat="45.95351" lon="4.75114">
        <ele>192</ele>
        <time>2017-07-28T10:22:15Z</time>
      </trkpt>
      <trkpt lat="45.95347" lon="4.75108">
        <ele>192</ele>
        <time>2017-07-28T10:22:16Z</time>
      </trkpt>
      <trkpt lat="45.95343" lon="4.75102">
        <ele>192</ele>
        <time>2017-07-28T10:22:17Z</time>
      </trkpt>
      <trkpt lat="45.95339" lon="4.75096">
        <ele>192</ele>
        <time>2017-07-28T10:22:18Z</time>
      </trkpt>
      <trkpt lat="45.95336" lon="4.7509">
        <ele>193</ele>
        <time>2017-07-28T10:22:19Z</time>
      </trkpt>
      <trkpt lat="45.95332" lon="4.75084">
        <ele>193</ele>
        <time>2017-07-28T10:22:20Z</time>
      </trkpt>
      <trkpt lat="45.95328" lon="4.75078">
        <ele>192</ele>
        <time>2017-07-28T10:22:21Z</time>
      </trkpt>
      <trkpt lat="45.95324" lon="4.75072">
        <ele>192</ele>
        <time>2017-07-28T10:22:22Z</time>
      </trkpt>
      <trkpt lat="45.9532" lon="4.75067">
        <ele>192</ele>
        <time>2017-07-28T10:22:23Z</time>
      </trkpt>
      <trkpt lat="45.95317" lon="4.75062">
        <ele>192</ele>
        <time>2017-07-28T10:22:24Z</time>
      </trkpt>
      <trkpt lat="45.95313" lon="4.75057">
        <ele>192</ele>
        <time>2017-07-28T10:22:25Z</time>
      </trkpt>
      <trkpt lat="45.9531" lon="4.75052">
        <ele>192</ele>
        <time>2017-07-28T10:22:26Z</time>
      </trkpt>
      <trkpt lat="45.95307" lon="4.75046">
        <ele>192</ele>
        <time>2017-07-28T10:22:27Z</time>
      </trkpt>
      <trkpt lat="45.95303" lon="4.7504">
        <ele>191</ele>
        <time>2017-07-28T10:22:28Z</time>
      </trkpt>
      <trkpt lat="45.95299" lon="4.75034">
        <ele>191</ele>
        <time>2017-07-28T10:22:29Z</time>
      </trkpt>
      <trkpt lat="45.95295" lon="4.75028">
        <ele>191</ele>
        <time>2017-07-28T10:22:30Z</time>
      </trkpt>
      <trkpt lat="45.95291" lon="4.75022">
        <ele>191</ele>
        <time>2017-07-28T10:22:31Z</time>
      </trkpt>
      <trkpt lat="45.95286" lon="4.75015">
        <ele>191</ele>
        <time>2017-07-28T10:22:32Z</time>
      </trkpt>
      <trkpt lat="45.95282" lon="4.75009">
        <ele>191</ele>
        <time>2017-07-28T10:22:33Z</time>
      </trkpt>
      <trkpt lat="45.95278" lon="4.75003">
        <ele>191</ele>
        <time>2017-07-28T10:22:34Z</time>
      </trkpt>
      <trkpt lat="45.95274" lon="4.74997">
        <ele>192</ele>
        <time>2017-07-28T10:22:35Z</time>
      </trkpt>
      <trkpt lat="45.95271" lon="4.74992">
        <ele>192</ele>
        <time>2017-07-28T10:22:36Z</time>
      </trkpt>
      <trkpt lat="45.95268" lon="4.74986">
        <ele>192</ele>
        <time>2017-07-28T10:22:37Z</time>
      </trkpt>
      <trkpt lat="45.95264" lon="4.74981">
        <ele>192</ele>
        <time>2017-07-28T10:22:38Z</time>
      </trkpt>
      <trkpt lat="45.95261" lon="4.74976">
        <ele>192</ele>
        <time>2017-07-28T10:22:39Z</time>
      </trkpt>
      <trkpt lat="45.95257" lon="4.74971">
        <ele>192</ele>
        <time>2017-07-28T10:22:40Z</time>
      </trkpt>
      <trkpt lat="45.95253" lon="4.74965">
        <ele>192</ele>
        <time>2017-07-28T10:22:41Z</time>
      </trkpt>
      <trkpt lat="45.95249" lon="4.74959">
        <ele>192</ele>
        <time>2017-07-28T10:22:42Z</time>
      </trkpt>
      <trkpt lat="45.95245" lon="4.74954">
        <ele>192</ele>
        <time>2017-07-28T10:22:43Z</time>
      </trkpt>
      <trkpt lat="45.95241" lon="4.74948">
        <ele>192</ele>
        <time>2017-07-28T10:22:44Z</time>
      </trkpt>
      <trkpt lat="45.95238" lon="4.74942">
        <ele>192</ele>
        <time>2017-07-28T10:22:45Z</time>
      </trkpt>
      <trkpt lat="45.95234" lon="4.74936">
        <ele>192</ele>
        <time>2017-07-28T10:22:46Z</time>
      </trkpt>
      <trkpt lat="45.95231" lon="4.7493">
        <ele>192</ele>
        <time>2017-07-28T10:22:47Z</time>
      </trkpt>
      <trkpt lat="45.95228" lon="4.74925">
        <ele>192</ele>
        <time>2017-07-28T10:22:48Z</time>
      </trkpt>
      <trkpt lat="45.95225" lon="4.7492">
        <ele>192</ele>
        <time>2017-07-28T10:22:49Z</time>
      </trkpt>
      <trkpt lat="45.95221" lon="4.74915">
        <ele>193</ele>
        <time>2017-07-28T10:22:50Z</time>
      </trkpt>
      <trkpt lat="45.95218" lon="4.7491">
        <ele>193</ele>
        <time>2017-07-28T10:22:51Z</time>
      </trkpt>
      <trkpt lat="45.95215" lon="4.74905">
        <ele>193</ele>
        <time>2017-07-28T10:22:52Z</time>
      </trkpt>
      <trkpt lat="45.95212" lon="4.74901">
        <ele>193</ele>
        <time>2017-07-28T10:22:53Z</time>
      </trkpt>
      <trkpt lat="45.95209" lon="4.74895">
        <ele>193</ele>
        <time>2017-07-28T10:22:54Z</time>
      </trkpt>
      <trkpt lat="45.95206" lon="4.7489">
        <ele>194</ele>
        <time>2017-07-28T10:22:55Z</time>
      </trkpt>
      <trkpt lat="45.95202" lon="4.74884">
        <ele>194</ele>
        <time>2017-07-28T10:22:56Z</time>
      </trkpt>
      <trkpt lat="45.95198" lon="4.74878">
        <ele>194</ele>
        <time>2017-07-28T10:22:57Z</time>
      </trkpt>
      <trkpt lat="45.95194" lon="4.74872">
        <ele>194</ele>
        <time>2017-07-28T10:22:58Z</time>
      </trkpt>
      <trkpt lat="45.95191" lon="4.74866">
        <ele>194</ele>
        <time>2017-07-28T10:22:59Z</time>
      </trkpt>
      <trkpt lat="45.95187" lon="4.74861">
        <ele>194</ele>
        <time>2017-07-28T10:23:00Z</time>
      </trkpt>
      <trkpt lat="45.95183" lon="4.74855">
        <ele>194</ele>
        <time>2017-07-28T10:23:01Z</time>
      </trkpt>
      <trkpt lat="45.9518" lon="4.74849">
        <ele>194</ele>
        <time>2017-07-28T10:23:02Z</time>
      </trkpt>
      <trkpt lat="45.95177" lon="4.74843">
        <ele>194</ele>
        <time>2017-07-28T10:23:03Z</time>
      </trkpt>
      <trkpt lat="45.95173" lon="4.74837">
        <ele>194</ele>
        <time>2017-07-28T10:23:04Z</time>
      </trkpt>
      <trkpt lat="45.9517" lon="4.74831">
        <ele>194</ele>
        <time>2017-07-28T10:23:05Z</time>
      </trkpt>
      <trkpt lat="45.95167" lon="4.74825">
        <ele>194</ele>
        <time>2017-07-28T10:23:06Z</time>
      </trkpt>
      <trkpt lat="45.95163" lon="4.7482">
        <ele>194</ele>
        <time>2017-07-28T10:23:07Z</time>
      </trkpt>
      <trkpt lat="45.9516" lon="4.74815">
        <ele>194</ele>
        <time>2017-07-28T10:23:08Z</time>
      </trkpt>
      <trkpt lat="45.95156" lon="4.7481">
        <ele>194</ele>
        <time>2017-07-28T10:23:09Z</time>
      </trkpt>
      <trkpt lat="45.95153" lon="4.74805">
        <ele>194</ele>
        <time>2017-07-28T10:23:10Z</time>
      </trkpt>
      <trkpt lat="45.9515" lon="4.748">
        <ele>194</ele>
        <time>2017-07-28T10:23:11Z</time>
      </trkpt>
      <trkpt lat="45.95147" lon="4.74794">
        <ele>194</ele>
        <time>2017-07-28T10:23:12Z</time>
      </trkpt>
      <trkpt lat="45.95144" lon="4.74789">
        <ele>194</ele>
        <time>2017-07-28T10:23:13Z</time>
      </trkpt>
      <trkpt lat="45.95141" lon="4.74784">
        <ele>194</ele>
        <time>2017-07-28T10:23:14Z</time>
      </trkpt>
      <trkpt lat="45.95137" lon="4.74779">
        <ele>194</ele>
        <time>2017-07-28T10:23:15Z</time>
      </trkpt>
      <trkpt lat="45.95134" lon="4.74774">
        <ele>194</ele>
        <time>2017-07-28T10:23:16Z</time>
      </trkpt>
      <trkpt lat="45.9513" lon="4.74768">
        <ele>194</ele>
        <time>2017-07-28T10:23:17Z</time>
      </trkpt>
      <trkpt lat="45.95126" lon="4.74762">
        <ele>194</ele>
        <time>2017-07-28T10:23:18Z</time>
      </trkpt>
      <trkpt lat="45.95122" lon="4.74756">
        <ele>194</ele>
        <time>2017-07-28T10:23:19Z</time>
      </trkpt>
      <trkpt lat="45.95118" lon="4.74749">
        <ele>194</ele>
        <time>2017-07-28T10:23:20Z</time>
      </trkpt>
      <trkpt lat="45.95114" lon="4.74742">
        <ele>194</ele>
        <time>2017-07-28T10:23:21Z</time>
      </trkpt>
      <trkpt lat="45.95111" lon="4.74735">
        <ele>194</ele>
        <time>2017-07-28T10:23:22Z</time>
      </trkpt>
      <trkpt lat="45.95107" lon="4.74728">
        <ele>194</ele>
        <time>2017-07-28T10:23:23Z</time>
      </trkpt>
      <trkpt lat="45.95104" lon="4.74722">
        <ele>194</ele>
        <time>2017-07-28T10:23:24Z</time>
      </trkpt>
      <trkpt lat="45.95101" lon="4.74716">
        <ele>194</ele>
        <time>2017-07-28T10:23:25Z</time>
      </trkpt>
      <trkpt lat="45.95097" lon="4.7471">
        <ele>194</ele>
        <time>2017-07-28T10:23:26Z</time>
      </trkpt>
      <trkpt lat="45.95093" lon="4.74704">
        <ele>194</ele>
        <time>2017-07-28T10:23:27Z</time>
      </trkpt>
      <trkpt lat="45.95089" lon="4.74699">
        <ele>194</ele>
        <time>2017-07-28T10:23:28Z</time>
      </trkpt>
      <trkpt lat="45.95086" lon="4.74693">
        <ele>194</ele>
        <time>2017-07-28T10:23:29Z</time>
      </trkpt>
      <trkpt lat="45.95083" lon="4.74687">
        <ele>194</ele>
        <time>2017-07-28T10:23:30Z</time>
      </trkpt>
      <trkpt lat="45.95079" lon="4.74681">
        <ele>194</ele>
        <time>2017-07-28T10:23:31Z</time>
      </trkpt>
      <trkpt lat="45.95075" lon="4.74675">
        <ele>194</ele>
        <time>2017-07-28T10:23:32Z</time>
      </trkpt>
      <trkpt lat="45.95072" lon="4.74669">
        <ele>194</ele>
        <time>2017-07-28T10:23:33Z</time>
      </trkpt>
      <trkpt lat="45.95068" lon="4.74662">
        <ele>195</ele>
        <time>2017-07-28T10:23:34Z</time>
      </trkpt>
      <trkpt lat="45.95064" lon="4.74655">
        <ele>195</ele>
        <time>2017-07-28T10:23:35Z</time>
      </trkpt>
      <trkpt lat="45.9506" lon="4.74649">
        <ele>194</ele>
        <time>2017-07-28T10:23:36Z</time>
      </trkpt>
      <trkpt lat="45.95057" lon="4.74643">
        <ele>194</ele>
        <time>2017-07-28T10:23:37Z</time>
      </trkpt>
      <trkpt lat="45.95054" lon="4.74637">
        <ele>194</ele>
        <time>2017-07-28T10:23:38Z</time>
      </trkpt>
      <trkpt lat="45.95051" lon="4.7463">
        <ele>194</ele>
        <time>2017-07-28T10:23:39Z</time>
      </trkpt>
      <trkpt lat="45.95048" lon="4.74624">
        <ele>194</ele>
        <time>2017-07-28T10:23:40Z</time>
      </trkpt>
      <trkpt lat="45.95045" lon="4.74619">
        <ele>194</ele>
        <time>2017-07-28T10:23:41Z</time>
      </trkpt>
      <trkpt lat="45.95042" lon="4.74613">
        <ele>194</ele>
        <time>2017-07-28T10:23:42Z</time>
      </trkpt>
      <trkpt lat="45.95038" lon="4.74607">
        <ele>194</ele>
        <time>2017-07-28T10:23:43Z</time>
      </trkpt>
      <trkpt lat="45.95035" lon="4.74601">
        <ele>194</ele>
        <time>2017-07-28T10:23:44Z</time>
      </trkpt>
      <trkpt lat="45.95032" lon="4.74595">
        <ele>194</ele>
        <time>2017-07-28T10:23:45Z</time>
      </trkpt>
      <trkpt lat="45.95028" lon="4.74589">
        <ele>194</ele>
        <time>2017-07-28T10:23:46Z</time>
      </trkpt>
      <trkpt lat="45.95025" lon="4.74582">
        <ele>194</ele>
        <time>2017-07-28T10:23:47Z</time>
      </trkpt>
      <trkpt lat="45.95021" lon="4.74576">
        <ele>194</ele>
        <time>2017-07-28T10:23:48Z</time>
      </trkpt>
      <trkpt lat="45.95018" lon="4.74569">
        <ele>194</ele>
        <time>2017-07-28T10:23:49Z</time>
      </trkpt>
      <trkpt lat="45.95015" lon="4.74563">
        <ele>194</ele>
        <time>2017-07-28T10:23:50Z</time>
      </trkpt>
      <trkpt lat="45.95012" lon="4.74556">
        <ele>194</ele>
        <time>2017-07-28T10:23:51Z</time>
      </trkpt>
      <trkpt lat="45.95009" lon="4.7455">
        <ele>194</ele>
        <time>2017-07-28T10:23:52Z</time>
      </trkpt>
      <trkpt lat="45.95006" lon="4.74544">
        <ele>194</ele>
        <time>2017-07-28T10:23:53Z</time>
      </trkpt>
      <trkpt lat="45.95003" lon="4.74538">
        <ele>194</ele>
        <time>2017-07-28T10:23:54Z</time>
      </trkpt>
      <trkpt lat="45.95" lon="4.74531">
        <ele>193</ele>
        <time>2017-07-28T10:23:55Z</time>
      </trkpt>
      <trkpt lat="45.94997" lon="4.74526">
        <ele>193</ele>
        <time>2017-07-28T10:23:56Z</time>
      </trkpt>
      <trkpt lat="45.94993" lon="4.7452">
        <ele>193</ele>
        <time>2017-07-28T10:23:57Z</time>
      </trkpt>
      <trkpt lat="45.9499" lon="4.74514">
        <ele>193</ele>
        <time>2017-07-28T10:23:58Z</time>
      </trkpt>
      <trkpt lat="45.94987" lon="4.74509">
        <ele>193</ele>
        <time>2017-07-28T10:23:59Z</time>
      </trkpt>
      <trkpt lat="45.94984" lon="4.74503">
        <ele>193</ele>
        <time>2017-07-28T10:24:00Z</time>
      </trkpt>
      <trkpt lat="45.9498" lon="4.74497">
        <ele>193</ele>
        <time>2017-07-28T10:24:01Z</time>
      </trkpt>
      <trkpt lat="45.94977" lon="4.7449">
        <ele>193</ele>
        <time>2017-07-28T10:24:02Z</time>
      </trkpt>
      <trkpt lat="45.94974" lon="4.74483">
        <ele>193</ele>
        <time>2017-07-28T10:24:03Z</time>
      </trkpt>
      <trkpt lat="45.9497" lon="4.74476">
        <ele>193</ele>
        <time>2017-07-28T10:24:04Z</time>
      </trkpt>
      <trkpt lat="45.94966" lon="4.74468">
        <ele>193</ele>
        <time>2017-07-28T10:24:05Z</time>
      </trkpt>
      <trkpt lat="45.94963" lon="4.74461">
        <ele>193</ele>
        <time>2017-07-28T10:24:06Z</time>
      </trkpt>
      <trkpt lat="45.94959" lon="4.74454">
        <ele>192</ele>
        <time>2017-07-28T10:24:07Z</time>
      </trkpt>
      <trkpt lat="45.94955" lon="4.74447">
        <ele>192</ele>
        <time>2017-07-28T10:24:08Z</time>
      </trkpt>
      <trkpt lat="45.94952" lon="4.7444">
        <ele>192</ele>
        <time>2017-07-28T10:24:09Z</time>
      </trkpt>
      <trkpt lat="45.94948" lon="4.74433">
        <ele>192</ele>
        <time>2017-07-28T10:24:10Z</time>
      </trkpt>
      <trkpt lat="45.94945" lon="4.74426">
        <ele>192</ele>
        <time>2017-07-28T10:24:11Z</time>
      </trkpt>
      <trkpt lat="45.94941" lon="4.74419">
        <ele>192</ele>
        <time>2017-07-28T10:24:12Z</time>
      </trkpt>
      <trkpt lat="45.94938" lon="4.74411">
        <ele>192</ele>
        <time>2017-07-28T10:24:13Z</time>
      </trkpt>
      <trkpt lat="45.94935" lon="4.74404">
        <ele>192</ele>
        <time>2017-07-28T10:24:14Z</time>
      </trkpt>
      <trkpt lat="45.94932" lon="4.74397">
        <ele>192</ele>
        <time>2017-07-28T10:24:15Z</time>
      </trkpt>
      <trkpt lat="45.94928" lon="4.74391">
        <ele>192</ele>
        <time>2017-07-28T10:24:16Z</time>
      </trkpt>
      <trkpt lat="45.94925" lon="4.74384">
        <ele>192</ele>
        <time>2017-07-28T10:24:17Z</time>
      </trkpt>
      <trkpt lat="45.94921" lon="4.74377">
        <ele>192</ele>
        <time>2017-07-28T10:24:18Z</time>
      </trkpt>
      <trkpt lat="45.94917" lon="4.7437">
        <ele>192</ele>
        <time>2017-07-28T10:24:19Z</time>
      </trkpt>
      <trkpt lat="45.94914" lon="4.74363">
        <ele>191</ele>
        <time>2017-07-28T10:24:20Z</time>
      </trkpt>
      <trkpt lat="45.9491" lon="4.74356">
        <ele>191</ele>
        <time>2017-07-28T10:24:21Z</time>
      </trkpt>
      <trkpt lat="45.94907" lon="4.74349">
        <ele>191</ele>
        <time>2017-07-28T10:24:22Z</time>
      </trkpt>
      <trkpt lat="45.94904" lon="4.74342">
        <ele>191</ele>
        <time>2017-07-28T10:24:23Z</time>
      </trkpt>
      <trkpt lat="45.94901" lon="4.74335">
        <ele>191</ele>
        <time>2017-07-28T10:24:24Z</time>
      </trkpt>
      <trkpt lat="45.94897" lon="4.74329">
        <ele>191</ele>
        <time>2017-07-28T10:24:25Z</time>
      </trkpt>
      <trkpt lat="45.94894" lon="4.74323">
        <ele>191</ele>
        <time>2017-07-28T10:24:26Z</time>
      </trkpt>
      <trkpt lat="45.9489" lon="4.74317">
        <ele>191</ele>
        <time>2017-07-28T10:24:27Z</time>
      </trkpt>
      <trkpt lat="45.94886" lon="4.7431">
        <ele>191</ele>
        <time>2017-07-28T10:24:28Z</time>
      </trkpt>
      <trkpt lat="45.94883" lon="4.74304">
        <ele>191</ele>
        <time>2017-07-28T10:24:29Z</time>
      </trkpt>
      <trkpt lat="45.94879" lon="4.74298">
        <ele>191</ele>
        <time>2017-07-28T10:24:30Z</time>
      </trkpt>
      <trkpt lat="45.94875" lon="4.74291">
        <ele>191</ele>
        <time>2017-07-28T10:24:31Z</time>
      </trkpt>
      <trkpt lat="45.94871" lon="4.74283">
        <ele>191</ele>
        <time>2017-07-28T10:24:32Z</time>
      </trkpt>
      <trkpt lat="45.94866" lon="4.74275">
        <ele>191</ele>
        <time>2017-07-28T10:24:33Z</time>
      </trkpt>
      <trkpt lat="45.94862" lon="4.74267">
        <ele>190</ele>
        <time>2017-07-28T10:24:34Z</time>
      </trkpt>
      <trkpt lat="45.94858" lon="4.7426">
        <ele>190</ele>
        <time>2017-07-28T10:24:35Z</time>
      </trkpt>
      <trkpt lat="45.94855" lon="4.74252">
        <ele>190</ele>
        <time>2017-07-28T10:24:36Z</time>
      </trkpt>
      <trkpt lat="45.94851" lon="4.74244">
        <ele>190</ele>
        <time>2017-07-28T10:24:37Z</time>
      </trkpt>
      <trkpt lat="45.94848" lon="4.74237">
        <ele>190</ele>
        <time>2017-07-28T10:24:38Z</time>
      </trkpt>
      <trkpt lat="45.94844" lon="4.74229">
        <ele>190</ele>
        <time>2017-07-28T10:24:39Z</time>
      </trkpt>
      <trkpt lat="45.9484" lon="4.74222">
        <ele>190</ele>
        <time>2017-07-28T10:24:40Z</time>
      </trkpt>
      <trkpt lat="45.94836" lon="4.74215">
        <ele>190</ele>
        <time>2017-07-28T10:24:41Z</time>
      </trkpt>
      <trkpt lat="45.94832" lon="4.74209">
        <ele>189</ele>
        <time>2017-07-28T10:24:42Z</time>
      </trkpt>
      <trkpt lat="45.94828" lon="4.74203">
        <ele>189</ele>
        <time>2017-07-28T10:24:43Z</time>
      </trkpt>
      <trkpt lat="45.94825" lon="4.74197">
        <ele>189</ele>
        <time>2017-07-28T10:24:44Z</time>
      </trkpt>
      <trkpt lat="45.94821" lon="4.74191">
        <ele>189</ele>
        <time>2017-07-28T10:24:45Z</time>
      </trkpt>
      <trkpt lat="45.94818" lon="4.74185">
        <ele>189</ele>
        <time>2017-07-28T10:24:46Z</time>
      </trkpt>
      <trkpt lat="45.94814" lon="4.74179">
        <ele>189</ele>
        <time>2017-07-28T10:24:47Z</time>
      </trkpt>
      <trkpt lat="45.9481" lon="4.74173">
        <ele>189</ele>
        <time>2017-07-28T10:24:48Z</time>
      </trkpt>
      <trkpt lat="45.94806" lon="4.74167">
        <ele>189</ele>
        <time>2017-07-28T10:24:49Z</time>
      </trkpt>
      <trkpt lat="45.94802" lon="4.7416">
        <ele>189</ele>
        <time>2017-07-28T10:24:50Z</time>
      </trkpt>
      <trkpt lat="45.94797" lon="4.74153">
        <ele>189</ele>
        <time>2017-07-28T10:24:51Z</time>
      </trkpt>
      <trkpt lat="45.94793" lon="4.74146">
        <ele>189</ele>
        <time>2017-07-28T10:24:52Z</time>
      </trkpt>
      <trkpt lat="45.94789" lon="4.74138">
        <ele>189</ele>
        <time>2017-07-28T10:24:53Z</time>
      </trkpt>
      <trkpt lat="45.94785" lon="4.74132">
        <ele>189</ele>
        <time>2017-07-28T10:24:54Z</time>
      </trkpt>
      <trkpt lat="45.94781" lon="4.74125">
        <ele>189</ele>
        <time>2017-07-28T10:24:55Z</time>
      </trkpt>
      <trkpt lat="45.94777" lon="4.74119">
        <ele>189</ele>
        <time>2017-07-28T10:24:56Z</time>
      </trkpt>
      <trkpt lat="45.94772" lon="4.74113">
        <ele>189</ele>
        <time>2017-07-28T10:24:57Z</time>
      </trkpt>
      <trkpt lat="45.94769" lon="4.74107">
        <ele>189</ele>
        <time>2017-07-28T10:24:58Z</time>
      </trkpt>
      <trkpt lat="45.94765" lon="4.74101">
        <ele>189</ele>
        <time>2017-07-28T10:24:59Z</time>
      </trkpt>
      <trkpt lat="45.94761" lon="4.74096">
        <ele>189</ele>
        <time>2017-07-28T10:25:00Z</time>
      </trkpt>
      <trkpt lat="45.94757" lon="4.74091">
        <ele>189</ele>
        <time>2017-07-28T10:25:01Z</time>
      </trkpt>
      <trkpt lat="45.94753" lon="4.74086">
        <ele>189</ele>
        <time>2017-07-28T10:25:02Z</time>
      </trkpt>
      <trkpt lat="45.94749" lon="4.7408">
        <ele>189</ele>
        <time>2017-07-28T10:25:03Z</time>
      </trkpt>
      <trkpt lat="45.94745" lon="4.74075">
        <ele>188</ele>
        <time>2017-07-28T10:25:04Z</time>
      </trkpt>
      <trkpt lat="45.94741" lon="4.7407">
        <ele>188</ele>
        <time>2017-07-28T10:25:05Z</time>
      </trkpt>
      <trkpt lat="45.94737" lon="4.74065">
        <ele>188</ele>
        <time>2017-07-28T10:25:06Z</time>
      </trkpt>
      <trkpt lat="45.94733" lon="4.74059">
        <ele>188</ele>
        <time>2017-07-28T10:25:07Z</time>
      </trkpt>
      <trkpt lat="45.94729" lon="4.74054">
        <ele>188</ele>
        <time>2017-07-28T10:25:08Z</time>
      </trkpt>
      <trkpt lat="45.94725" lon="4.74048">
        <ele>188</ele>
        <time>2017-07-28T10:25:09Z</time>
      </trkpt>
      <trkpt lat="45.94722" lon="4.74043">
        <ele>187</ele>
        <time>2017-07-28T10:25:10Z</time>
      </trkpt>
      <trkpt lat="45.94718" lon="4.74037">
        <ele>187</ele>
        <time>2017-07-28T10:25:11Z</time>
      </trkpt>
      <trkpt lat="45.94714" lon="4.74032">
        <ele>187</ele>
        <time>2017-07-28T10:25:12Z</time>
      </trkpt>
      <trkpt lat="45.9471" lon="4.74026">
        <ele>187</ele>
        <time>2017-07-28T10:25:13Z</time>
      </trkpt>
      <trkpt lat="45.94707" lon="4.74021">
        <ele>187</ele>
        <time>2017-07-28T10:25:14Z</time>
      </trkpt>
      <trkpt lat="45.94703" lon="4.74016">
        <ele>187</ele>
        <time>2017-07-28T10:25:15Z</time>
      </trkpt>
      <trkpt lat="45.94699" lon="4.74011">
        <ele>187</ele>
        <time>2017-07-28T10:25:16Z</time>
      </trkpt>
      <trkpt lat="45.94696" lon="4.74006">
        <ele>187</ele>
        <time>2017-07-28T10:25:17Z</time>
      </trkpt>
      <trkpt lat="45.94692" lon="4.74001">
        <ele>187</ele>
        <time>2017-07-28T10:25:18Z</time>
      </trkpt>
      <trkpt lat="45.94688" lon="4.73995">
        <ele>187</ele>
        <time>2017-07-28T10:25:19Z</time>
      </trkpt>
      <trkpt lat="45.94684" lon="4.7399">
        <ele>187</ele>
        <time>2017-07-28T10:25:20Z</time>
      </trkpt>
      <trkpt lat="45.94679" lon="4.73985">
        <ele>187</ele>
        <time>2017-07-28T10:25:21Z</time>
      </trkpt>
      <trkpt lat="45.94675" lon="4.73979">
        <ele>187</ele>
        <time>2017-07-28T10:25:22Z</time>
      </trkpt>
      <trkpt lat="45.9467" lon="4.73973">
        <ele>187</ele>
        <time>2017-07-28T10:25:23Z</time>
      </trkpt>
      <trkpt lat="45.94666" lon="4.73967">
        <ele>187</ele>
        <time>2017-07-28T10:25:24Z</time>
      </trkpt>
      <trkpt lat="45.94661" lon="4.7396">
        <ele>187</ele>
        <time>2017-07-28T10:25:25Z</time>
      </trkpt>
      <trkpt lat="45.94657" lon="4.73954">
        <ele>187</ele>
        <time>2017-07-28T10:25:26Z</time>
      </trkpt>
      <trkpt lat="45.94653" lon="4.73949">
        <ele>187</ele>
        <time>2017-07-28T10:25:27Z</time>
      </trkpt>
      <trkpt lat="45.94649" lon="4.73943">
        <ele>187</ele>
        <time>2017-07-28T10:25:28Z</time>
      </trkpt>
      <trkpt lat="45.94645" lon="4.73937">
        <ele>187</ele>
        <time>2017-07-28T10:25:29Z</time>
      </trkpt>
      <trkpt lat="45.94641" lon="4.73931">
        <ele>187</ele>
        <time>2017-07-28T10:25:30Z</time>
      </trkpt>
      <trkpt lat="45.94637" lon="4.73926">
        <ele>187</ele>
        <time>2017-07-28T10:25:31Z</time>
      </trkpt>
      <trkpt lat="45.94632" lon="4.7392">
        <ele>187</ele>
        <time>2017-07-28T10:25:32Z</time>
      </trkpt>
      <trkpt lat="45.94628" lon="4.73914">
        <ele>187</ele>
        <time>2017-07-28T10:25:33Z</time>
      </trkpt>
      <trkpt lat="45.94623" lon="4.73909">
        <ele>187</ele>
        <time>2017-07-28T10:25:34Z</time>
      </trkpt>
      <trkpt lat="45.94618" lon="4.73904">
        <ele>187</ele>
        <time>2017-07-28T10:25:35Z</time>
      </trkpt>
      <trkpt lat="45.94614" lon="4.73898">
        <ele>187</ele>
        <time>2017-07-28T10:25:36Z</time>
      </trkpt>
      <trkpt lat="45.9461" lon="4.73893">
        <ele>187</ele>
        <time>2017-07-28T10:25:37Z</time>
      </trkpt>
      <trkpt lat="45.94606" lon="4.73888">
        <ele>187</ele>
        <time>2017-07-28T10:25:38Z</time>
      </trkpt>
      <trkpt lat="45.94602" lon="4.73883">
        <ele>187</ele>
        <time>2017-07-28T10:25:39Z</time>
      </trkpt>
      <trkpt lat="45.94598" lon="4.73878">
        <ele>187</ele>
        <time>2017-07-28T10:25:40Z</time>
      </trkpt>
      <trkpt lat="45.94593" lon="4.73873">
        <ele>187</ele>
        <time>2017-07-28T10:25:41Z</time>
      </trkpt>
      <trkpt lat="45.94589" lon="4.73868">
        <ele>187</ele>
        <time>2017-07-28T10:25:42Z</time>
      </trkpt>
      <trkpt lat="45.94584" lon="4.73863">
        <ele>187</ele>
        <time>2017-07-28T10:25:43Z</time>
      </trkpt>
      <trkpt lat="45.94579" lon="4.73858">
        <ele>186</ele>
        <time>2017-07-28T10:25:44Z</time>
      </trkpt>
      <trkpt lat="45.94574" lon="4.73853">
        <ele>186</ele>
        <time>2017-07-28T10:25:45Z</time>
      </trkpt>
      <trkpt lat="45.94569" lon="4.73846">
        <ele>186</ele>
        <time>2017-07-28T10:25:46Z</time>
      </trkpt>
      <trkpt lat="45.94563" lon="4.7384">
        <ele>186</ele>
        <time>2017-07-28T10:25:47Z</time>
      </trkpt>
      <trkpt lat="45.94558" lon="4.73835">
        <ele>186</ele>
        <time>2017-07-28T10:25:48Z</time>
      </trkpt>
      <trkpt lat="45.94552" lon="4.73829">
        <ele>186</ele>
        <time>2017-07-28T10:25:49Z</time>
      </trkpt>
      <trkpt lat="45.94547" lon="4.73824">
        <ele>186</ele>
        <time>2017-07-28T10:25:50Z</time>
      </trkpt>
      <trkpt lat="45.94542" lon="4.73819">
        <ele>186</ele>
        <time>2017-07-28T10:25:51Z</time>
      </trkpt>
      <trkpt lat="45.94536" lon="4.73814">
        <ele>186</ele>
        <time>2017-07-28T10:25:52Z</time>
      </trkpt>
      <trkpt lat="45.94531" lon="4.73809">
        <ele>186</ele>
        <time>2017-07-28T10:25:53Z</time>
      </trkpt>
      <trkpt lat="45.94526" lon="4.73804">
        <ele>186</ele>
        <time>2017-07-28T10:25:54Z</time>
      </trkpt>
      <trkpt lat="45.9452" lon="4.73799">
        <ele>186</ele>
        <time>2017-07-28T10:25:55Z</time>
      </trkpt>
      <trkpt lat="45.94515" lon="4.73794">
        <ele>186</ele>
        <time>2017-07-28T10:25:56Z</time>
      </trkpt>
      <trkpt lat="45.9451" lon="4.73789">
        <ele>186</ele>
        <time>2017-07-28T10:25:57Z</time>
      </trkpt>
      <trkpt lat="45.94506" lon="4.73784">
        <ele>186</ele>
        <time>2017-07-28T10:25:58Z</time>
      </trkpt>
      <trkpt lat="45.94501" lon="4.73778">
        <ele>186</ele>
        <time>2017-07-28T10:25:59Z</time>
      </trkpt>
      <trkpt lat="45.94497" lon="4.73773">
        <ele>186</ele>
        <time>2017-07-28T10:26:00Z</time>
      </trkpt>
      <trkpt lat="45.94493" lon="4.73766">
        <ele>186</ele>
        <time>2017-07-28T10:26:01Z</time>
      </trkpt>
      <trkpt lat="45.9449" lon="4.73759">
        <ele>186</ele>
        <time>2017-07-28T10:26:02Z</time>
      </trkpt>
      <trkpt lat="45.94488" lon="4.73753">
        <ele>186</ele>
        <time>2017-07-28T10:26:03Z</time>
      </trkpt>
      <trkpt lat="45.94486" lon="4.73745">
        <ele>186</ele>
        <time>2017-07-28T10:26:04Z</time>
      </trkpt>
      <trkpt lat="45.94485" lon="4.73737">
        <ele>186</ele>
        <time>2017-07-28T10:26:05Z</time>
      </trkpt>
      <trkpt lat="45.94486" lon="4.7373">
        <ele>186</ele>
        <time>2017-07-28T10:26:06Z</time>
      </trkpt>
      <trkpt lat="45.94487" lon="4.73722">
        <ele>186</ele>
        <time>2017-07-28T10:26:07Z</time>
      </trkpt>
      <trkpt lat="45.94488" lon="4.73714">
        <ele>186</ele>
        <time>2017-07-28T10:26:08Z</time>
      </trkpt>
      <trkpt lat="45.94489" lon="4.73706">
        <ele>186</ele>
        <time>2017-07-28T10:26:09Z</time>
      </trkpt>
      <trkpt lat="45.9449" lon="4.73696">
        <ele>186</ele>
        <time>2017-07-28T10:26:10Z</time>
      </trkpt>
      <trkpt lat="45.94491" lon="4.73687">
        <ele>186</ele>
        <time>2017-07-28T10:26:11Z</time>
      </trkpt>
      <trkpt lat="45.94493" lon="4.73677">
        <ele>185</ele>
        <time>2017-07-28T10:26:12Z</time>
      </trkpt>
      <trkpt lat="45.94494" lon="4.73668">
        <ele>185</ele>
        <time>2017-07-28T10:26:13Z</time>
      </trkpt>
      <trkpt lat="45.94495" lon="4.73661">
        <ele>185</ele>
        <time>2017-07-28T10:26:14Z</time>
      </trkpt>
      <trkpt lat="45.94497" lon="4.73655">
        <ele>185</ele>
        <time>2017-07-28T10:26:15Z</time>
      </trkpt>
      <trkpt lat="45.94498" lon="4.73647">
        <ele>185</ele>
        <time>2017-07-28T10:26:16Z</time>
      </trkpt>
      <trkpt lat="45.945" lon="4.73639">
        <ele>186</ele>
        <time>2017-07-28T10:26:17Z</time>
      </trkpt>
      <trkpt lat="45.94501" lon="4.73631">
        <ele>184</ele>
        <time>2017-07-28T10:26:18Z</time>
      </trkpt>
      <trkpt lat="45.94502" lon="4.73622">
        <ele>184</ele>
        <time>2017-07-28T10:26:19Z</time>
      </trkpt>
      <trkpt lat="45.94502" lon="4.73613">
        <ele>184</ele>
        <time>2017-07-28T10:26:20Z</time>
      </trkpt>
      <trkpt lat="45.94503" lon="4.73603">
        <ele>184</ele>
        <time>2017-07-28T10:26:21Z</time>
      </trkpt>
      <trkpt lat="45.94503" lon="4.73594">
        <ele>184</ele>
        <time>2017-07-28T10:26:22Z</time>
      </trkpt>
      <trkpt lat="45.94504" lon="4.73584">
        <ele>185</ele>
        <time>2017-07-28T10:26:23Z</time>
      </trkpt>
      <trkpt lat="45.94504" lon="4.73575">
        <ele>184</ele>
        <time>2017-07-28T10:26:24Z</time>
      </trkpt>
      <trkpt lat="45.94505" lon="4.73565">
        <ele>184</ele>
        <time>2017-07-28T10:26:25Z</time>
      </trkpt>
      <trkpt lat="45.94505" lon="4.73556">
        <ele>183</ele>
        <time>2017-07-28T10:26:26Z</time>
      </trkpt>
      <trkpt lat="45.94506" lon="4.73546">
        <ele>183</ele>
        <time>2017-07-28T10:26:27Z</time>
      </trkpt>
      <trkpt lat="45.94507" lon="4.73537">
        <ele>183</ele>
        <time>2017-07-28T10:26:28Z</time>
      </trkpt>
      <trkpt lat="45.94507" lon="4.73528">
        <ele>183</ele>
        <time>2017-07-28T10:26:29Z</time>
      </trkpt>
      <trkpt lat="45.94507" lon="4.73518">
        <ele>183</ele>
        <time>2017-07-28T10:26:30Z</time>
      </trkpt>
      <trkpt lat="45.94507" lon="4.73508">
        <ele>183</ele>
        <time>2017-07-28T10:26:31Z</time>
      </trkpt>
      <trkpt lat="45.94507" lon="4.73499">
        <ele>182</ele>
        <time>2017-07-28T10:26:32Z</time>
      </trkpt>
      <trkpt lat="45.94508" lon="4.73489">
        <ele>182</ele>
        <time>2017-07-28T10:26:33Z</time>
      </trkpt>
      <trkpt lat="45.94509" lon="4.73479">
        <ele>182</ele>
        <time>2017-07-28T10:26:34Z</time>
      </trkpt>
      <trkpt lat="45.94509" lon="4.7347">
        <ele>181</ele>
        <time>2017-07-28T10:26:35Z</time>
      </trkpt>
      <trkpt lat="45.94509" lon="4.73459">
        <ele>181</ele>
        <time>2017-07-28T10:26:36Z</time>
      </trkpt>
      <trkpt lat="45.94508" lon="4.73449">
        <ele>181</ele>
        <time>2017-07-28T10:26:37Z</time>
      </trkpt>
      <trkpt lat="45.94508" lon="4.73438">
        <ele>181</ele>
        <time>2017-07-28T10:26:38Z</time>
      </trkpt>
      <trkpt lat="45.94506" lon="4.73428">
        <ele>180</ele>
        <time>2017-07-28T10:26:39Z</time>
      </trkpt>
      <trkpt lat="45.94505" lon="4.73417">
        <ele>180</ele>
        <time>2017-07-28T10:26:40Z</time>
      </trkpt>
      <trkpt lat="45.94504" lon="4.73406">
        <ele>179</ele>
        <time>2017-07-28T10:26:41Z</time>
      </trkpt>
      <trkpt lat="45.94503" lon="4.73395">
        <ele>179</ele>
        <time>2017-07-28T10:26:42Z</time>
      </trkpt>
      <trkpt lat="45.94502" lon="4.73385">
        <ele>179</ele>
        <time>2017-07-28T10:26:43Z</time>
      </trkpt>
      <trkpt lat="45.94501" lon="4.73374">
        <ele>178</ele>
        <time>2017-07-28T10:26:44Z</time>
      </trkpt>
      <trkpt lat="45.94501" lon="4.73363">
        <ele>178</ele>
        <time>2017-07-28T10:26:45Z</time>
      </trkpt>
      <trkpt lat="45.945" lon="4.7335">
        <ele>178</ele>
        <time>2017-07-28T10:26:46Z</time>
      </trkpt>
      <trkpt lat="45.94498" lon="4.73338">
        <ele>177</ele>
        <time>2017-07-28T10:26:47Z</time>
      </trkpt>
      <trkpt lat="45.94497" lon="4.73327">
        <ele>177</ele>
        <time>2017-07-28T10:26:48Z</time>
      </trkpt>
      <trkpt lat="45.94495" lon="4.73316">
        <ele>177</ele>
        <time>2017-07-28T10:26:49Z</time>
      </trkpt>
      <trkpt lat="45.94494" lon="4.73306">
        <ele>177</ele>
        <time>2017-07-28T10:26:50Z</time>
      </trkpt>
      <trkpt lat="45.94493" lon="4.73295">
        <ele>177</ele>
        <time>2017-07-28T10:26:51Z</time>
      </trkpt>
      <trkpt lat="45.94491" lon="4.73284">
        <ele>177</ele>
        <time>2017-07-28T10:26:52Z</time>
      </trkpt>
      <trkpt lat="45.9449" lon="4.73273">
        <ele>177</ele>
        <time>2017-07-28T10:26:53Z</time>
      </trkpt>
      <trkpt lat="45.94488" lon="4.73263">
        <ele>176</ele>
        <time>2017-07-28T10:26:54Z</time>
      </trkpt>
      <trkpt lat="45.94487" lon="4.73252">
        <ele>176</ele>
        <time>2017-07-28T10:26:55Z</time>
      </trkpt>
      <trkpt lat="45.94486" lon="4.73243">
        <ele>175</ele>
        <time>2017-07-28T10:26:56Z</time>
      </trkpt>
      <trkpt lat="45.94485" lon="4.73232">
        <ele>175</ele>
        <time>2017-07-28T10:26:57Z</time>
      </trkpt>
      <trkpt lat="45.94483" lon="4.73221">
        <ele>175</ele>
        <time>2017-07-28T10:26:58Z</time>
      </trkpt>
      <trkpt lat="45.94482" lon="4.73211">
        <ele>175</ele>
        <time>2017-07-28T10:26:59Z</time>
      </trkpt>
      <trkpt lat="45.9448" lon="4.732">
        <ele>174</ele>
        <time>2017-07-28T10:27:00Z</time>
      </trkpt>
      <trkpt lat="45.94478" lon="4.7319">
        <ele>174</ele>
        <time>2017-07-28T10:27:01Z</time>
      </trkpt>
      <trkpt lat="45.94477" lon="4.73179">
        <ele>174</ele>
        <time>2017-07-28T10:27:02Z</time>
      </trkpt>
      <trkpt lat="45.94476" lon="4.73169">
        <ele>174</ele>
        <time>2017-07-28T10:27:03Z</time>
      </trkpt>
      <trkpt lat="45.94475" lon="4.7316">
        <ele>173</ele>
        <time>2017-07-28T10:27:04Z</time>
      </trkpt>
      <trkpt lat="45.94474" lon="4.7315">
        <ele>172</ele>
        <time>2017-07-28T10:27:05Z</time>
      </trkpt>
      <trkpt lat="45.94473" lon="4.73141">
        <ele>172</ele>
        <time>2017-07-28T10:27:06Z</time>
      </trkpt>
      <trkpt lat="45.94472" lon="4.73131">
        <ele>172</ele>
        <time>2017-07-28T10:27:07Z</time>
      </trkpt>
      <trkpt lat="45.9447" lon="4.73122">
        <ele>172</ele>
        <time>2017-07-28T10:27:08Z</time>
      </trkpt>
      <trkpt lat="45.9447" lon="4.73113">
        <ele>172</ele>
        <time>2017-07-28T10:27:09Z</time>
      </trkpt>
      <trkpt lat="45.94469" lon="4.73105">
        <ele>172</ele>
        <time>2017-07-28T10:27:10Z</time>
      </trkpt>
      <trkpt lat="45.94467" lon="4.73096">
        <ele>172</ele>
        <time>2017-07-28T10:27:11Z</time>
      </trkpt>
      <trkpt lat="45.94466" lon="4.73088">
        <ele>171</ele>
        <time>2017-07-28T10:27:12Z</time>
      </trkpt>
      <trkpt lat="45.94465" lon="4.7308">
        <ele>170</ele>
        <time>2017-07-28T10:27:13Z</time>
      </trkpt>
      <trkpt lat="45.94463" lon="4.73072">
        <ele>170</ele>
        <time>2017-07-28T10:27:14Z</time>
      </trkpt>
      <trkpt lat="45.94462" lon="4.73065">
        <ele>170</ele>
        <time>2017-07-28T10:27:15Z</time>
      </trkpt>
      <trkpt lat="45.94461" lon="4.73057">
        <ele>170</ele>
        <time>2017-07-28T10:27:16Z</time>
      </trkpt>
      <trkpt lat="45.9446" lon="4.7305">
        <ele>170</ele>
        <time>2017-07-28T10:27:17Z</time>
      </trkpt>
      <trkpt lat="45.94459" lon="4.73042">
        <ele>170</ele>
        <time>2017-07-28T10:27:18Z</time>
      </trkpt>
      <trkpt lat="45.94458" lon="4.73035">
        <ele>169</ele>
        <time>2017-07-28T10:27:19Z</time>
      </trkpt>
      <trkpt lat="45.94456" lon="4.73027">
        <ele>169</ele>
        <time>2017-07-28T10:27:20Z</time>
      </trkpt>
      <trkpt lat="45.94455" lon="4.7302">
        <ele>169</ele>
        <time>2017-07-28T10:27:21Z</time>
      </trkpt>
      <trkpt lat="45.94454" lon="4.73013">
        <ele>169</ele>
        <time>2017-07-28T10:27:22Z</time>
      </trkpt>
      <trkpt lat="45.94452" lon="4.73005">
        <ele>169</ele>
        <time>2017-07-28T10:27:23Z</time>
      </trkpt>
      <trkpt lat="45.94451" lon="4.72997">
        <ele>167</ele>
        <time>2017-07-28T10:27:24Z</time>
      </trkpt>
      <trkpt lat="45.94451" lon="4.72989">
        <ele>167</ele>
        <time>2017-07-28T10:27:25Z</time>
      </trkpt>
      <trkpt lat="45.9445" lon="4.72981">
        <ele>167</ele>
        <time>2017-07-28T10:27:26Z</time>
      </trkpt>
      <trkpt lat="45.94449" lon="4.72973">
        <ele>167</ele>
        <time>2017-07-28T10:27:27Z</time>
      </trkpt>
      <trkpt lat="45.94448" lon="4.72965">
        <ele>167</ele>
        <time>2017-07-28T10:27:28Z</time>
      </trkpt>
      <trkpt lat="45.94447" lon="4.72957">
        <ele>167</ele>
        <time>2017-07-28T10:27:29Z</time>
      </trkpt>
      <trkpt lat="45.94446" lon="4.72949">
        <ele>167</ele>
        <time>2017-07-28T10:27:30Z</time>
      </trkpt>
      <trkpt lat="45.94445" lon="4.7294">
        <ele>167</ele>
        <time>2017-07-28T10:27:31Z</time>
      </trkpt>
      <trkpt lat="45.94443" lon="4.72932">
        <ele>167</ele>
        <time>2017-07-28T10:27:32Z</time>
      </trkpt>
      <trkpt lat="45.94442" lon="4.72923">
        <ele>167</ele>
        <time>2017-07-28T10:27:33Z</time>
      </trkpt>
      <trkpt lat="45.9444" lon="4.72915">
        <ele>166</ele>
        <time>2017-07-28T10:27:34Z</time>
      </trkpt>
      <trkpt lat="45.94439" lon="4.72906">
        <ele>166</ele>
        <time>2017-07-28T10:27:35Z</time>
      </trkpt>
      <trkpt lat="45.94438" lon="4.72898">
        <ele>166</ele>
        <time>2017-07-28T10:27:36Z</time>
      </trkpt>
      <trkpt lat="45.94437" lon="4.7289">
        <ele>166</ele>
        <time>2017-07-28T10:27:37Z</time>
      </trkpt>
      <trkpt lat="45.94436" lon="4.72882">
        <ele>166</ele>
        <time>2017-07-28T10:27:38Z</time>
      </trkpt>
      <trkpt lat="45.94435" lon="4.72874">
        <ele>166</ele>
        <time>2017-07-28T10:27:39Z</time>
      </trkpt>
      <trkpt lat="45.94434" lon="4.72866">
        <ele>166</ele>
        <time>2017-07-28T10:27:40Z</time>
      </trkpt>
      <trkpt lat="45.94432" lon="4.72858">
        <ele>166</ele>
        <time>2017-07-28T10:27:41Z</time>
      </trkpt>
      <trkpt lat="45.94431" lon="4.7285">
        <ele>166</ele>
        <time>2017-07-28T10:27:42Z</time>
      </trkpt>
      <trkpt lat="45.9443" lon="4.72841">
        <ele>166</ele>
        <time>2017-07-28T10:27:43Z</time>
      </trkpt>
      <trkpt lat="45.94429" lon="4.72832">
        <ele>167</ele>
        <time>2017-07-28T10:27:44Z</time>
      </trkpt>
      <trkpt lat="45.94428" lon="4.72823">
        <ele>167</ele>
        <time>2017-07-28T10:27:45Z</time>
      </trkpt>
      <trkpt lat="45.94427" lon="4.72813">
        <ele>167</ele>
        <time>2017-07-28T10:27:46Z</time>
      </trkpt>
      <trkpt lat="45.94426" lon="4.72804">
        <ele>167</ele>
        <time>2017-07-28T10:27:47Z</time>
      </trkpt>
      <trkpt lat="45.94425" lon="4.72794">
        <ele>168</ele>
        <time>2017-07-28T10:27:48Z</time>
      </trkpt>
      <trkpt lat="45.94424" lon="4.72783">
        <ele>168</ele>
        <time>2017-07-28T10:27:49Z</time>
      </trkpt>
      <trkpt lat="45.94423" lon="4.72773">
        <ele>169</ele>
        <time>2017-07-28T10:27:50Z</time>
      </trkpt>
      <trkpt lat="45.94421" lon="4.72763">
        <ele>169</ele>
        <time>2017-07-28T10:27:51Z</time>
      </trkpt>
      <trkpt lat="45.9442" lon="4.72753">
        <ele>170</ele>
        <time>2017-07-28T10:27:52Z</time>
      </trkpt>
      <trkpt lat="45.94419" lon="4.72743">
        <ele>171</ele>
        <time>2017-07-28T10:27:53Z</time>
      </trkpt>
      <trkpt lat="45.94417" lon="4.72733">
        <ele>171</ele>
        <time>2017-07-28T10:27:54Z</time>
      </trkpt>
      <trkpt lat="45.94415" lon="4.72723">
        <ele>172</ele>
        <time>2017-07-28T10:27:55Z</time>
      </trkpt>
      <trkpt lat="45.94414" lon="4.72712">
        <ele>172</ele>
        <time>2017-07-28T10:27:56Z</time>
      </trkpt>
      <trkpt lat="45.94412" lon="4.72703">
        <ele>172</ele>
        <time>2017-07-28T10:27:57Z</time>
      </trkpt>
      <trkpt lat="45.94411" lon="4.72693">
        <ele>173</ele>
        <time>2017-07-28T10:27:58Z</time>
      </trkpt>
      <trkpt lat="45.94409" lon="4.72683">
        <ele>173</ele>
        <time>2017-07-28T10:27:59Z</time>
      </trkpt>
      <trkpt lat="45.94408" lon="4.72673">
        <ele>173</ele>
        <time>2017-07-28T10:28:00Z</time>
      </trkpt>
      <trkpt lat="45.94407" lon="4.72663">
        <ele>174</ele>
        <time>2017-07-28T10:28:01Z</time>
      </trkpt>
      <trkpt lat="45.94406" lon="4.72653">
        <ele>174</ele>
        <time>2017-07-28T10:28:02Z</time>
      </trkpt>
      <trkpt lat="45.94404" lon="4.72643">
        <ele>174</ele>
        <time>2017-07-28T10:28:03Z</time>
      </trkpt>
      <trkpt lat="45.94403" lon="4.72633">
        <ele>174</ele>
        <time>2017-07-28T10:28:04Z</time>
      </trkpt>
      <trkpt lat="45.94402" lon="4.72624">
        <ele>173</ele>
        <time>2017-07-28T10:28:05Z</time>
      </trkpt>
      <trkpt lat="45.94401" lon="4.72614">
        <ele>173</ele>
        <time>2017-07-28T10:28:06Z</time>
      </trkpt>
      <trkpt lat="45.944" lon="4.72605">
        <ele>173</ele>
        <time>2017-07-28T10:28:07Z</time>
      </trkpt>
      <trkpt lat="45.94399" lon="4.72596">
        <ele>173</ele>
        <time>2017-07-28T10:28:08Z</time>
      </trkpt>
      <trkpt lat="45.94397" lon="4.72587">
        <ele>173</ele>
        <time>2017-07-28T10:28:09Z</time>
      </trkpt>
      <trkpt lat="45.94396" lon="4.72579">
        <ele>173</ele>
        <time>2017-07-28T10:28:10Z</time>
      </trkpt>
      <trkpt lat="45.94394" lon="4.72571">
        <ele>173</ele>
        <time>2017-07-28T10:28:11Z</time>
      </trkpt>
      <trkpt lat="45.94392" lon="4.72563">
        <ele>173</ele>
        <time>2017-07-28T10:28:12Z</time>
      </trkpt>
      <trkpt lat="45.9439" lon="4.72555">
        <ele>173</ele>
        <time>2017-07-28T10:28:13Z</time>
      </trkpt>
      <trkpt lat="45.94389" lon="4.72548">
        <ele>173</ele>
        <time>2017-07-28T10:28:14Z</time>
      </trkpt>
      <trkpt lat="45.94387" lon="4.7254">
        <ele>174</ele>
        <time>2017-07-28T10:28:15Z</time>
      </trkpt>
      <trkpt lat="45.94385" lon="4.72534">
        <ele>174</ele>
        <time>2017-07-28T10:28:16Z</time>
      </trkpt>
      <trkpt lat="45.94383" lon="4.72528">
        <ele>174</ele>
        <time>2017-07-28T10:28:17Z</time>
      </trkpt>
      <trkpt lat="45.94381" lon="4.72522">
        <ele>174</ele>
        <time>2017-07-28T10:28:18Z</time>
      </trkpt>
      <trkpt lat="45.94379" lon="4.72515">
        <ele>174</ele>
        <time>2017-07-28T10:28:19Z</time>
      </trkpt>
      <trkpt lat="45.94376" lon="4.72509">
        <ele>174</ele>
        <time>2017-07-28T10:28:20Z</time>
      </trkpt>
      <trkpt lat="45.94373" lon="4.72498">
        <ele>173</ele>
        <time>2017-07-28T10:28:22Z</time>
      </trkpt>
      <trkpt lat="45.94371" lon="4.72492">
        <ele>173</ele>
        <time>2017-07-28T10:28:23Z</time>
      </trkpt>
      <trkpt lat="45.94369" lon="4.72486">
        <ele>173</ele>
        <time>2017-07-28T10:28:24Z</time>
      </trkpt>
      <trkpt lat="45.94366" lon="4.72479">
        <ele>173</ele>
        <time>2017-07-28T10:28:25Z</time>
      </trkpt>
      <trkpt lat="45.94363" lon="4.72472">
        <ele>173</ele>
        <time>2017-07-28T10:28:26Z</time>
      </trkpt>
      <trkpt lat="45.9436" lon="4.72465">
        <ele>173</ele>
        <time>2017-07-28T10:28:27Z</time>
      </trkpt>
      <trkpt lat="45.94358" lon="4.72457">
        <ele>173</ele>
        <time>2017-07-28T10:28:28Z</time>
      </trkpt>
      <trkpt lat="45.94355" lon="4.72449">
        <ele>173</ele>
        <time>2017-07-28T10:28:29Z</time>
      </trkpt>
      <trkpt lat="45.94351" lon="4.72441">
        <ele>173</ele>
        <time>2017-07-28T10:28:30Z</time>
      </trkpt>
      <trkpt lat="45.94348" lon="4.72433">
        <ele>173</ele>
        <time>2017-07-28T10:28:31Z</time>
      </trkpt>
      <trkpt lat="45.94345" lon="4.72426">
        <ele>173</ele>
        <time>2017-07-28T10:28:32Z</time>
      </trkpt>
      <trkpt lat="45.94342" lon="4.7242">
        <ele>173</ele>
        <time>2017-07-28T10:28:33Z</time>
      </trkpt>
      <trkpt lat="45.94339" lon="4.72412">
        <ele>173</ele>
        <time>2017-07-28T10:28:34Z</time>
      </trkpt>
      <trkpt lat="45.94336" lon="4.72405">
        <ele>173</ele>
        <time>2017-07-28T10:28:35Z</time>
      </trkpt>
      <trkpt lat="45.94334" lon="4.72399">
        <ele>172</ele>
        <time>2017-07-28T10:28:36Z</time>
      </trkpt>
      <trkpt lat="45.94331" lon="4.72392">
        <ele>172</ele>
        <time>2017-07-28T10:28:37Z</time>
      </trkpt>
      <trkpt lat="45.94329" lon="4.72386">
        <ele>172</ele>
        <time>2017-07-28T10:28:38Z</time>
      </trkpt>
      <trkpt lat="45.94326" lon="4.7238">
        <ele>172</ele>
        <time>2017-07-28T10:28:39Z</time>
      </trkpt>
      <trkpt lat="45.94323" lon="4.72374">
        <ele>172</ele>
        <time>2017-07-28T10:28:40Z</time>
      </trkpt>
      <trkpt lat="45.9432" lon="4.72368">
        <ele>172</ele>
        <time>2017-07-28T10:28:41Z</time>
      </trkpt>
      <trkpt lat="45.94317" lon="4.72361">
        <ele>172</ele>
        <time>2017-07-28T10:28:42Z</time>
      </trkpt>
      <trkpt lat="45.94313" lon="4.72355">
        <ele>172</ele>
        <time>2017-07-28T10:28:43Z</time>
      </trkpt>
      <trkpt lat="45.94309" lon="4.72348">
        <ele>172</ele>
        <time>2017-07-28T10:28:44Z</time>
      </trkpt>
      <trkpt lat="45.94305" lon="4.72341">
        <ele>172</ele>
        <time>2017-07-28T10:28:45Z</time>
      </trkpt>
      <trkpt lat="45.94302" lon="4.72334">
        <ele>172</ele>
        <time>2017-07-28T10:28:46Z</time>
      </trkpt>
      <trkpt lat="45.94298" lon="4.72326">
        <ele>171</ele>
        <time>2017-07-28T10:28:47Z</time>
      </trkpt>
      <trkpt lat="45.94294" lon="4.72318">
        <ele>171</ele>
        <time>2017-07-28T10:28:48Z</time>
      </trkpt>
      <trkpt lat="45.94291" lon="4.72309">
        <ele>171</ele>
        <time>2017-07-28T10:28:49Z</time>
      </trkpt>
      <trkpt lat="45.94288" lon="4.723">
        <ele>171</ele>
        <time>2017-07-28T10:28:50Z</time>
      </trkpt>
      <trkpt lat="45.94285" lon="4.7229">
        <ele>171</ele>
        <time>2017-07-28T10:28:51Z</time>
      </trkpt>
      <trkpt lat="45.94282" lon="4.72283">
        <ele>171</ele>
        <time>2017-07-28T10:28:52Z</time>
      </trkpt>
      <trkpt lat="45.94279" lon="4.72279">
        <ele>171</ele>
        <time>2017-07-28T10:28:53Z</time>
      </trkpt>
      <trkpt lat="45.94274" lon="4.72269">
        <ele>171</ele>
        <time>2017-07-28T10:28:58Z</time>
      </trkpt>
      <trkpt lat="45.94273" lon="4.72268">
        <ele>171</ele>
        <time>2017-07-28T10:28:59Z</time>
      </trkpt>
      <trkpt lat="45.94268" lon="4.72259">
        <ele>171</ele>
        <time>2017-07-28T10:29:05Z</time>
      </trkpt>
      <trkpt lat="45.94265" lon="4.7226">
        <ele>171</ele>
        <time>2017-07-28T10:29:06Z</time>
      </trkpt>
      <trkpt lat="45.94261" lon="4.72268">
        <ele>171</ele>
        <time>2017-07-28T10:29:08Z</time>
      </trkpt>
      <trkpt lat="45.94257" lon="4.72272">
        <ele>171</ele>
        <time>2017-07-28T10:29:09Z</time>
      </trkpt>
      <trkpt lat="45.94254" lon="4.72275">
        <ele>171</ele>
        <time>2017-07-28T10:29:10Z</time>
      </trkpt>
      <trkpt lat="45.94249" lon="4.72277">
        <ele>171</ele>
        <time>2017-07-28T10:29:11Z</time>
      </trkpt>
      <trkpt lat="45.94244" lon="4.72278">
        <ele>171</ele>
        <time>2017-07-28T10:29:12Z</time>
      </trkpt>
      <trkpt lat="45.94238" lon="4.7228">
        <ele>171</ele>
        <time>2017-07-28T10:29:13Z</time>
      </trkpt>
      <trkpt lat="45.94232" lon="4.72281">
        <ele>171</ele>
        <time>2017-07-28T10:29:14Z</time>
      </trkpt>
      <trkpt lat="45.94227" lon="4.72283">
        <ele>171</ele>
        <time>2017-07-28T10:29:15Z</time>
      </trkpt>
      <trkpt lat="45.94222" lon="4.72285">
        <ele>171</ele>
        <time>2017-07-28T10:29:16Z</time>
      </trkpt>
      <trkpt lat="45.94217" lon="4.72286">
        <ele>171</ele>
        <time>2017-07-28T10:29:17Z</time>
      </trkpt>
      <trkpt lat="45.94212" lon="4.72287">
        <ele>171</ele>
        <time>2017-07-28T10:29:18Z</time>
      </trkpt>
      <trkpt lat="45.94207" lon="4.72288">
        <ele>171</ele>
        <time>2017-07-28T10:29:19Z</time>
      </trkpt>
      <trkpt lat="45.94202" lon="4.72289">
        <ele>171</ele>
        <time>2017-07-28T10:29:20Z</time>
      </trkpt>
      <trkpt lat="45.94198" lon="4.7229">
        <ele>171</ele>
        <time>2017-07-28T10:29:21Z</time>
      </trkpt>
      <trkpt lat="45.94193" lon="4.7229">
        <ele>171</ele>
        <time>2017-07-28T10:29:22Z</time>
      </trkpt>
      <trkpt lat="45.94188" lon="4.72289">
        <ele>171</ele>
        <time>2017-07-28T10:29:23Z</time>
      </trkpt>
      <trkpt lat="45.94184" lon="4.72289">
        <ele>171</ele>
        <time>2017-07-28T10:29:24Z</time>
      </trkpt>
      <trkpt lat="45.94179" lon="4.72288">
        <ele>171</ele>
        <time>2017-07-28T10:29:25Z</time>
      </trkpt>
      <trkpt lat="45.94174" lon="4.72288">
        <ele>171</ele>
        <time>2017-07-28T10:29:26Z</time>
      </trkpt>
      <trkpt lat="45.94169" lon="4.72286">
        <ele>171</ele>
        <time>2017-07-28T10:29:27Z</time>
      </trkpt>
      <trkpt lat="45.94163" lon="4.72286">
        <ele>171</ele>
        <time>2017-07-28T10:29:28Z</time>
      </trkpt>
      <trkpt lat="45.94157" lon="4.72285">
        <ele>171</ele>
        <time>2017-07-28T10:29:29Z</time>
      </trkpt>
      <trkpt lat="45.94151" lon="4.72284">
        <ele>171</ele>
        <time>2017-07-28T10:29:30Z</time>
      </trkpt>
      <trkpt lat="45.94146" lon="4.72282">
        <ele>171</ele>
        <time>2017-07-28T10:29:31Z</time>
      </trkpt>
      <trkpt lat="45.94141" lon="4.7228">
        <ele>171</ele>
        <time>2017-07-28T10:29:32Z</time>
      </trkpt>
      <trkpt lat="45.94137" lon="4.72278">
        <ele>171</ele>
        <time>2017-07-28T10:29:33Z</time>
      </trkpt>
      <trkpt lat="45.94132" lon="4.72276">
        <ele>171</ele>
        <time>2017-07-28T10:29:34Z</time>
      </trkpt>
      <trkpt lat="45.94128" lon="4.72274">
        <ele>171</ele>
        <time>2017-07-28T10:29:35Z</time>
      </trkpt>
      <trkpt lat="45.94123" lon="4.72272">
        <ele>171</ele>
        <time>2017-07-28T10:29:36Z</time>
      </trkpt>
      <trkpt lat="45.94119" lon="4.72269">
        <ele>171</ele>
        <time>2017-07-28T10:29:37Z</time>
      </trkpt>
      <trkpt lat="45.94114" lon="4.72267">
        <ele>171</ele>
        <time>2017-07-28T10:29:38Z</time>
      </trkpt>
      <trkpt lat="45.9411" lon="4.72266">
        <ele>171</ele>
        <time>2017-07-28T10:29:39Z</time>
      </trkpt>
      <trkpt lat="45.94105" lon="4.72265">
        <ele>171</ele>
        <time>2017-07-28T10:29:40Z</time>
      </trkpt>
      <trkpt lat="45.941" lon="4.72265">
        <ele>171</ele>
        <time>2017-07-28T10:29:41Z</time>
      </trkpt>
      <trkpt lat="45.94095" lon="4.72264">
        <ele>171</ele>
        <time>2017-07-28T10:29:42Z</time>
      </trkpt>
      <trkpt lat="45.94089" lon="4.72264">
        <ele>171</ele>
        <time>2017-07-28T10:29:43Z</time>
      </trkpt>
      <trkpt lat="45.94083" lon="4.72265">
        <ele>171</ele>
        <time>2017-07-28T10:29:44Z</time>
      </trkpt>
      <trkpt lat="45.94078" lon="4.72268">
        <ele>171</ele>
        <time>2017-07-28T10:29:45Z</time>
      </trkpt>
      <trkpt lat="45.94073" lon="4.72272">
        <ele>171</ele>
        <time>2017-07-28T10:29:46Z</time>
      </trkpt>
      <trkpt lat="45.94068" lon="4.72276">
        <ele>171</ele>
        <time>2017-07-28T10:29:47Z</time>
      </trkpt>
      <trkpt lat="45.94063" lon="4.72281">
        <ele>171</ele>
        <time>2017-07-28T10:29:48Z</time>
      </trkpt>
      <trkpt lat="45.94058" lon="4.72286">
        <ele>171</ele>
        <time>2017-07-28T10:29:49Z</time>
      </trkpt>
      <trkpt lat="45.94054" lon="4.72291">
        <ele>171</ele>
        <time>2017-07-28T10:29:50Z</time>
      </trkpt>
      <trkpt lat="45.94049" lon="4.72295">
        <ele>171</ele>
        <time>2017-07-28T10:29:51Z</time>
      </trkpt>
      <trkpt lat="45.94044" lon="4.723">
        <ele>171</ele>
        <time>2017-07-28T10:29:52Z</time>
      </trkpt>
      <trkpt lat="45.9404" lon="4.72302">
        <ele>171</ele>
        <time>2017-07-28T10:29:53Z</time>
      </trkpt>
      <trkpt lat="45.94036" lon="4.72307">
        <ele>171</ele>
        <time>2017-07-28T10:29:54Z</time>
      </trkpt>
      <trkpt lat="45.94033" lon="4.72312">
        <ele>171</ele>
        <time>2017-07-28T10:29:55Z</time>
      </trkpt>
      <trkpt lat="45.94029" lon="4.72318">
        <ele>171</ele>
        <time>2017-07-28T10:29:56Z</time>
      </trkpt>
      <trkpt lat="45.94025" lon="4.72324">
        <ele>171</ele>
        <time>2017-07-28T10:29:57Z</time>
      </trkpt>
      <trkpt lat="45.9402" lon="4.7233">
        <ele>171</ele>
        <time>2017-07-28T10:29:58Z</time>
      </trkpt>
      <trkpt lat="45.94015" lon="4.72336">
        <ele>171</ele>
        <time>2017-07-28T10:29:59Z</time>
      </trkpt>
      <trkpt lat="45.9401" lon="4.72343">
        <ele>171</ele>
        <time>2017-07-28T10:30:00Z</time>
      </trkpt>
      <trkpt lat="45.94005" lon="4.72349">
        <ele>171</ele>
        <time>2017-07-28T10:30:01Z</time>
      </trkpt>
      <trkpt lat="45.94001" lon="4.72355">
        <ele>171</ele>
        <time>2017-07-28T10:30:02Z</time>
      </trkpt>
      <trkpt lat="45.93996" lon="4.72361">
        <ele>171</ele>
        <time>2017-07-28T10:30:03Z</time>
      </trkpt>
      <trkpt lat="45.93991" lon="4.72367">
        <ele>171</ele>
        <time>2017-07-28T10:30:04Z</time>
      </trkpt>
      <trkpt lat="45.93987" lon="4.72373">
        <ele>171</ele>
        <time>2017-07-28T10:30:05Z</time>
      </trkpt>
      <trkpt lat="45.93982" lon="4.72379">
        <ele>171</ele>
        <time>2017-07-28T10:30:06Z</time>
      </trkpt>
      <trkpt lat="45.93978" lon="4.72384">
        <ele>171</ele>
        <time>2017-07-28T10:30:07Z</time>
      </trkpt>
      <trkpt lat="45.93974" lon="4.7239">
        <ele>171</ele>
        <time>2017-07-28T10:30:08Z</time>
      </trkpt>
      <trkpt lat="45.9397" lon="4.72394">
        <ele>171</ele>
        <time>2017-07-28T10:30:09Z</time>
      </trkpt>
      <trkpt lat="45.93966" lon="4.72398">
        <ele>171</ele>
        <time>2017-07-28T10:30:10Z</time>
      </trkpt>
      <trkpt lat="45.93963" lon="4.72402">
        <ele>171</ele>
        <time>2017-07-28T10:30:11Z</time>
      </trkpt>
      <trkpt lat="45.93959" lon="4.72407">
        <ele>171</ele>
        <time>2017-07-28T10:30:12Z</time>
      </trkpt>
      <trkpt lat="45.93956" lon="4.72411">
        <ele>171</ele>
        <time>2017-07-28T10:30:13Z</time>
      </trkpt>
      <trkpt lat="45.93952" lon="4.72415">
        <ele>171</ele>
        <time>2017-07-28T10:30:14Z</time>
      </trkpt>
      <trkpt lat="45.93948" lon="4.7242">
        <ele>171</ele>
        <time>2017-07-28T10:30:15Z</time>
      </trkpt>
      <trkpt lat="45.93944" lon="4.72425">
        <ele>171</ele>
        <time>2017-07-28T10:30:16Z</time>
      </trkpt>
      <trkpt lat="45.9394" lon="4.72431">
        <ele>171</ele>
        <time>2017-07-28T10:30:17Z</time>
      </trkpt>
      <trkpt lat="45.93935" lon="4.72436">
        <ele>171</ele>
        <time>2017-07-28T10:30:18Z</time>
      </trkpt>
      <trkpt lat="45.93931" lon="4.72441">
        <ele>171</ele>
        <time>2017-07-28T10:30:19Z</time>
      </trkpt>
      <trkpt lat="45.93926" lon="4.72446">
        <ele>171</ele>
        <time>2017-07-28T10:30:20Z</time>
      </trkpt>
      <trkpt lat="45.93922" lon="4.72451">
        <ele>171</ele>
        <time>2017-07-28T10:30:21Z</time>
      </trkpt>
      <trkpt lat="45.93918" lon="4.72457">
        <ele>171</ele>
        <time>2017-07-28T10:30:22Z</time>
      </trkpt>
      <trkpt lat="45.93913" lon="4.72462">
        <ele>172</ele>
        <time>2017-07-28T10:30:23Z</time>
      </trkpt>
      <trkpt lat="45.93908" lon="4.72468">
        <ele>172</ele>
        <time>2017-07-28T10:30:24Z</time>
      </trkpt>
      <trkpt lat="45.93904" lon="4.72474">
        <ele>172</ele>
        <time>2017-07-28T10:30:25Z</time>
      </trkpt>
      <trkpt lat="45.93899" lon="4.72479">
        <ele>172</ele>
        <time>2017-07-28T10:30:26Z</time>
      </trkpt>
      <trkpt lat="45.93896" lon="4.72483">
        <ele>172</ele>
        <time>2017-07-28T10:30:27Z</time>
      </trkpt>
      <trkpt lat="45.9389" lon="4.72491">
        <ele>172</ele>
        <time>2017-07-28T10:30:29Z</time>
      </trkpt>
      <trkpt lat="45.93887" lon="4.72495">
        <ele>172</ele>
        <time>2017-07-28T10:30:30Z</time>
      </trkpt>
      <trkpt lat="45.93881" lon="4.72503">
        <ele>173</ele>
        <time>2017-07-28T10:30:32Z</time>
      </trkpt>
      <trkpt lat="45.93877" lon="4.72508">
        <ele>173</ele>
        <time>2017-07-28T10:30:33Z</time>
      </trkpt>
      <trkpt lat="45.93872" lon="4.72511">
        <ele>173</ele>
        <time>2017-07-28T10:30:34Z</time>
      </trkpt>
      <trkpt lat="45.93867" lon="4.72512">
        <ele>173</ele>
        <time>2017-07-28T10:30:35Z</time>
      </trkpt>
      <trkpt lat="45.93862" lon="4.72511">
        <ele>173</ele>
        <time>2017-07-28T10:30:36Z</time>
      </trkpt>
      <trkpt lat="45.93858" lon="4.72509">
        <ele>173</ele>
        <time>2017-07-28T10:30:37Z</time>
      </trkpt>
      <trkpt lat="45.9385" lon="4.72504">
        <ele>174</ele>
        <time>2017-07-28T10:30:39Z</time>
      </trkpt>
      <trkpt lat="45.93846" lon="4.72502">
        <ele>174</ele>
        <time>2017-07-28T10:30:40Z</time>
      </trkpt>
      <trkpt lat="45.93838" lon="4.72498">
        <ele>174</ele>
        <time>2017-07-28T10:30:42Z</time>
      </trkpt>
      <trkpt lat="45.93834" lon="4.72496">
        <ele>174</ele>
        <time>2017-07-28T10:30:43Z</time>
      </trkpt>
      <trkpt lat="45.93829" lon="4.72494">
        <ele>173</ele>
        <time>2017-07-28T10:30:44Z</time>
      </trkpt>
      <trkpt lat="45.9382" lon="4.72483">
        <ele>173</ele>
        <time>2017-07-28T10:30:45Z</time>
      </trkpt>
      <trkpt lat="45.93814" lon="4.72476">
        <ele>172</ele>
        <time>2017-07-28T10:30:46Z</time>
      </trkpt>
      <trkpt lat="45.93809" lon="4.72474">
        <ele>172</ele>
        <time>2017-07-28T10:30:47Z</time>
      </trkpt>
      <trkpt lat="45.93802" lon="4.72468">
        <ele>172</ele>
        <time>2017-07-28T10:30:49Z</time>
      </trkpt>
      <trkpt lat="45.93801" lon="4.72462">
        <ele>172</ele>
        <time>2017-07-28T10:30:50Z</time>
      </trkpt>
      <trkpt lat="45.93797" lon="4.72458">
        <ele>172</ele>
        <time>2017-07-28T10:30:51Z</time>
      </trkpt>
      <trkpt lat="45.93792" lon="4.72454">
        <ele>172</ele>
        <time>2017-07-28T10:30:52Z</time>
      </trkpt>
      <trkpt lat="45.93788" lon="4.72449">
        <ele>172</ele>
        <time>2017-07-28T10:30:53Z</time>
      </trkpt>
      <trkpt lat="45.93783" lon="4.72443">
        <ele>172</ele>
        <time>2017-07-28T10:30:54Z</time>
      </trkpt>
      <trkpt lat="45.93778" lon="4.72439">
        <ele>172</ele>
        <time>2017-07-28T10:30:55Z</time>
      </trkpt>
      <trkpt lat="45.93775" lon="4.72434">
        <ele>171</ele>
        <time>2017-07-28T10:30:56Z</time>
      </trkpt>
      <trkpt lat="45.9377" lon="4.7243">
        <ele>171</ele>
        <time>2017-07-28T10:30:57Z</time>
      </trkpt>
      <trkpt lat="45.93767" lon="4.72426">
        <ele>171</ele>
        <time>2017-07-28T10:30:58Z</time>
      </trkpt>
      <trkpt lat="45.93763" lon="4.72421">
        <ele>171</ele>
        <time>2017-07-28T10:30:59Z</time>
      </trkpt>
      <trkpt lat="45.9376" lon="4.72417">
        <ele>171</ele>
        <time>2017-07-28T10:31:00Z</time>
      </trkpt>
      <trkpt lat="45.93753" lon="4.72408">
        <ele>171</ele>
        <time>2017-07-28T10:31:02Z</time>
      </trkpt>
      <trkpt lat="45.9375" lon="4.72404">
        <ele>171</ele>
        <time>2017-07-28T10:31:03Z</time>
      </trkpt>
      <trkpt lat="45.93744" lon="4.72396">
        <ele>171</ele>
        <time>2017-07-28T10:31:05Z</time>
      </trkpt>
      <trkpt lat="45.9374" lon="4.72392">
        <ele>171</ele>
        <time>2017-07-28T10:31:06Z</time>
      </trkpt>
      <trkpt lat="45.93733" lon="4.72385">
        <ele>171</ele>
        <time>2017-07-28T10:31:08Z</time>
      </trkpt>
      <trkpt lat="45.93729" lon="4.72381">
        <ele>171</ele>
        <time>2017-07-28T10:31:09Z</time>
      </trkpt>
      <trkpt lat="45.93724" lon="4.72378">
        <ele>171</ele>
        <time>2017-07-28T10:31:10Z</time>
      </trkpt>
      <trkpt lat="45.9372" lon="4.72373">
        <ele>172</ele>
        <time>2017-07-28T10:31:11Z</time>
      </trkpt>
      <trkpt lat="45.93715" lon="4.72369">
        <ele>172</ele>
        <time>2017-07-28T10:31:12Z</time>
      </trkpt>
      <trkpt lat="45.9371" lon="4.72365">
        <ele>172</ele>
        <time>2017-07-28T10:31:13Z</time>
      </trkpt>
      <trkpt lat="45.93706" lon="4.72361">
        <ele>171</ele>
        <time>2017-07-28T10:31:14Z</time>
      </trkpt>
      <trkpt lat="45.93702" lon="4.72357">
        <ele>171</ele>
        <time>2017-07-28T10:31:15Z</time>
      </trkpt>
      <trkpt lat="45.93695" lon="4.7235">
        <ele>171</ele>
        <time>2017-07-28T10:31:17Z</time>
      </trkpt>
      <trkpt lat="45.93691" lon="4.72347">
        <ele>171</ele>
        <time>2017-07-28T10:31:18Z</time>
      </trkpt>
      <trkpt lat="45.93686" lon="4.72344">
        <ele>171</ele>
        <time>2017-07-28T10:31:19Z</time>
      </trkpt>
      <trkpt lat="45.93683" lon="4.72339">
        <ele>171</ele>
        <time>2017-07-28T10:31:20Z</time>
      </trkpt>
      <trkpt lat="45.9368" lon="4.72334">
        <ele>171</ele>
        <time>2017-07-28T10:31:21Z</time>
      </trkpt>
      <trkpt lat="45.93676" lon="4.7233">
        <ele>171</ele>
        <time>2017-07-28T10:31:22Z</time>
      </trkpt>
      <trkpt lat="45.93671" lon="4.72326">
        <ele>171</ele>
        <time>2017-07-28T10:31:23Z</time>
      </trkpt>
      <trkpt lat="45.93667" lon="4.72321">
        <ele>171</ele>
        <time>2017-07-28T10:31:24Z</time>
      </trkpt>
      <trkpt lat="45.93663" lon="4.72315">
        <ele>172</ele>
        <time>2017-07-28T10:31:25Z</time>
      </trkpt>
      <trkpt lat="45.93658" lon="4.7231">
        <ele>172</ele>
        <time>2017-07-28T10:31:26Z</time>
      </trkpt>
      <trkpt lat="45.93653" lon="4.72305">
        <ele>172</ele>
        <time>2017-07-28T10:31:27Z</time>
      </trkpt>
      <trkpt lat="45.93649" lon="4.72302">
        <ele>172</ele>
        <time>2017-07-28T10:31:28Z</time>
      </trkpt>
      <trkpt lat="45.93645" lon="4.72299">
        <ele>172</ele>
        <time>2017-07-28T10:31:29Z</time>
      </trkpt>
      <trkpt lat="45.93641" lon="4.72296">
        <ele>172</ele>
        <time>2017-07-28T10:31:30Z</time>
      </trkpt>
      <trkpt lat="45.93634" lon="4.7229">
        <ele>172</ele>
        <time>2017-07-28T10:31:32Z</time>
      </trkpt>
      <trkpt lat="45.9363" lon="4.72287">
        <ele>172</ele>
        <time>2017-07-28T10:31:33Z</time>
      </trkpt>
      <trkpt lat="45.93623" lon="4.7228">
        <ele>172</ele>
        <time>2017-07-28T10:31:35Z</time>
      </trkpt>
      <trkpt lat="45.93619" lon="4.72276">
        <ele>172</ele>
        <time>2017-07-28T10:31:36Z</time>
      </trkpt>
      <trkpt lat="45.93615" lon="4.72272">
        <ele>172</ele>
        <time>2017-07-28T10:31:37Z</time>
      </trkpt>
      <trkpt lat="45.93611" lon="4.72269">
        <ele>172</ele>
        <time>2017-07-28T10:31:38Z</time>
      </trkpt>
      <trkpt lat="45.93607" lon="4.72265">
        <ele>173</ele>
        <time>2017-07-28T10:31:39Z</time>
      </trkpt>
      <trkpt lat="45.93603" lon="4.72261">
        <ele>173</ele>
        <time>2017-07-28T10:31:40Z</time>
      </trkpt>
      <trkpt lat="45.93596" lon="4.72254">
        <ele>173</ele>
        <time>2017-07-28T10:31:42Z</time>
      </trkpt>
      <trkpt lat="45.93592" lon="4.7225">
        <ele>173</ele>
        <time>2017-07-28T10:31:43Z</time>
      </trkpt>
      <trkpt lat="45.93586" lon="4.72243">
        <ele>173</ele>
        <time>2017-07-28T10:31:45Z</time>
      </trkpt>
      <trkpt lat="45.93583" lon="4.7224">
        <ele>173</ele>
        <time>2017-07-28T10:31:46Z</time>
      </trkpt>
      <trkpt lat="45.93577" lon="4.72233">
        <ele>173</ele>
        <time>2017-07-28T10:31:48Z</time>
      </trkpt>
      <trkpt lat="45.93574" lon="4.7223">
        <ele>173</ele>
        <time>2017-07-28T10:31:49Z</time>
      </trkpt>
      <trkpt lat="45.93567" lon="4.72224">
        <ele>173</ele>
        <time>2017-07-28T10:31:52Z</time>
      </trkpt>
      <trkpt lat="45.93565" lon="4.72222">
        <ele>173</ele>
        <time>2017-07-28T10:31:53Z</time>
      </trkpt>
      <trkpt lat="45.93558" lon="4.72216">
        <ele>173</ele>
        <time>2017-07-28T10:31:57Z</time>
      </trkpt>
      <trkpt lat="45.93557" lon="4.72215">
        <ele>173</ele>
        <time>2017-07-28T10:31:58Z</time>
      </trkpt>
      <trkpt lat="45.93549" lon="4.72214">
        <ele>173</ele>
        <time>2017-07-28T10:32:01Z</time>
      </trkpt>
      <trkpt lat="45.93547" lon="4.72217">
        <ele>172</ele>
        <time>2017-07-28T10:32:02Z</time>
      </trkpt>
      <trkpt lat="45.93542" lon="4.72227">
        <ele>172</ele>
        <time>2017-07-28T10:32:04Z</time>
      </trkpt>
      <trkpt lat="45.93541" lon="4.72233">
        <ele>172</ele>
        <time>2017-07-28T10:32:05Z</time>
      </trkpt>
      <trkpt lat="45.93538" lon="4.72239">
        <ele>172</ele>
        <time>2017-07-28T10:32:06Z</time>
      </trkpt>
      <trkpt lat="45.93536" lon="4.72245">
        <ele>172</ele>
        <time>2017-07-28T10:32:07Z</time>
      </trkpt>
      <trkpt lat="45.93534" lon="4.7225">
        <ele>172</ele>
        <time>2017-07-28T10:32:08Z</time>
      </trkpt>
      <trkpt lat="45.93532" lon="4.72256">
        <ele>172</ele>
        <time>2017-07-28T10:32:09Z</time>
      </trkpt>
      <trkpt lat="45.93528" lon="4.72266">
        <ele>172</ele>
        <time>2017-07-28T10:32:11Z</time>
      </trkpt>
      <trkpt lat="45.93526" lon="4.72272">
        <ele>172</ele>
        <time>2017-07-28T10:32:12Z</time>
      </trkpt>
      <trkpt lat="45.93522" lon="4.72282">
        <ele>172</ele>
        <time>2017-07-28T10:32:14Z</time>
      </trkpt>
      <trkpt lat="45.9352" lon="4.72287">
        <ele>172</ele>
        <time>2017-07-28T10:32:15Z</time>
      </trkpt>
      <trkpt lat="45.93515" lon="4.72297">
        <ele>172</ele>
        <time>2017-07-28T10:32:17Z</time>
      </trkpt>
      <trkpt lat="45.93512" lon="4.72302">
        <ele>172</ele>
        <time>2017-07-28T10:32:18Z</time>
      </trkpt>
      <trkpt lat="45.93508" lon="4.72307">
        <ele>173</ele>
        <time>2017-07-28T10:32:19Z</time>
      </trkpt>
      <trkpt lat="45.93504" lon="4.72312">
        <ele>173</ele>
        <time>2017-07-28T10:32:20Z</time>
      </trkpt>
      <trkpt lat="45.935" lon="4.72317">
        <ele>173</ele>
        <time>2017-07-28T10:32:21Z</time>
      </trkpt>
      <trkpt lat="45.93496" lon="4.72322">
        <ele>173</ele>
        <time>2017-07-28T10:32:22Z</time>
      </trkpt>
      <trkpt lat="45.93492" lon="4.72328">
        <ele>173</ele>
        <time>2017-07-28T10:32:23Z</time>
      </trkpt>
      <trkpt lat="45.93489" lon="4.72333">
        <ele>173</ele>
        <time>2017-07-28T10:32:24Z</time>
      </trkpt>
      <trkpt lat="45.93485" lon="4.72338">
        <ele>173</ele>
        <time>2017-07-28T10:32:25Z</time>
      </trkpt>
      <trkpt lat="45.93481" lon="4.72344">
        <ele>173</ele>
        <time>2017-07-28T10:32:26Z</time>
      </trkpt>
      <trkpt lat="45.93477" lon="4.7235">
        <ele>173</ele>
        <time>2017-07-28T10:32:27Z</time>
      </trkpt>
      <trkpt lat="45.93473" lon="4.72356">
        <ele>173</ele>
        <time>2017-07-28T10:32:28Z</time>
      </trkpt>
      <trkpt lat="45.93469" lon="4.72361">
        <ele>173</ele>
        <time>2017-07-28T10:32:29Z</time>
      </trkpt>
      <trkpt lat="45.93465" lon="4.72366">
        <ele>173</ele>
        <time>2017-07-28T10:32:30Z</time>
      </trkpt>
      <trkpt lat="45.9346" lon="4.72371">
        <ele>173</ele>
        <time>2017-07-28T10:32:31Z</time>
      </trkpt>
      <trkpt lat="45.93456" lon="4.72377">
        <ele>173</ele>
        <time>2017-07-28T10:32:32Z</time>
      </trkpt>
      <trkpt lat="45.93452" lon="4.72381">
        <ele>173</ele>
        <time>2017-07-28T10:32:33Z</time>
      </trkpt>
      <trkpt lat="45.93447" lon="4.72385">
        <ele>173</ele>
        <time>2017-07-28T10:32:34Z</time>
      </trkpt>
      <trkpt lat="45.93444" lon="4.72389">
        <ele>173</ele>
        <time>2017-07-28T10:32:35Z</time>
      </trkpt>
      <trkpt lat="45.93439" lon="4.72392">
        <ele>173</ele>
        <time>2017-07-28T10:32:36Z</time>
      </trkpt>
      <trkpt lat="45.93435" lon="4.72395">
        <ele>173</ele>
        <time>2017-07-28T10:32:37Z</time>
      </trkpt>
      <trkpt lat="45.9343" lon="4.72398">
        <ele>174</ele>
        <time>2017-07-28T10:32:38Z</time>
      </trkpt>
      <trkpt lat="45.93425" lon="4.72401">
        <ele>174</ele>
        <time>2017-07-28T10:32:39Z</time>
      </trkpt>
      <trkpt lat="45.9342" lon="4.72403">
        <ele>174</ele>
        <time>2017-07-28T10:32:40Z</time>
      </trkpt>
      <trkpt lat="45.93415" lon="4.72405">
        <ele>174</ele>
        <time>2017-07-28T10:32:41Z</time>
      </trkpt>
      <trkpt lat="45.93411" lon="4.72407">
        <ele>174</ele>
        <time>2017-07-28T10:32:42Z</time>
      </trkpt>
      <trkpt lat="45.93402" lon="4.72406">
        <ele>174</ele>
        <time>2017-07-28T10:32:44Z</time>
      </trkpt>
      <trkpt lat="45.93397" lon="4.72404">
        <ele>174</ele>
        <time>2017-07-28T10:32:45Z</time>
      </trkpt>
      <trkpt lat="45.93389" lon="4.72405">
        <ele>174</ele>
        <time>2017-07-28T10:32:47Z</time>
      </trkpt>
      <trkpt lat="45.93385" lon="4.72409">
        <ele>174</ele>
        <time>2017-07-28T10:32:48Z</time>
      </trkpt>
      <trkpt lat="45.93382" lon="4.72415">
        <ele>174</ele>
        <time>2017-07-28T10:32:49Z</time>
      </trkpt>
      <trkpt lat="45.93382" lon="4.72421">
        <ele>173</ele>
        <time>2017-07-28T10:32:50Z</time>
      </trkpt>
      <trkpt lat="45.93383" lon="4.72428">
        <ele>173</ele>
        <time>2017-07-28T10:32:51Z</time>
      </trkpt>
      <trkpt lat="45.93386" lon="4.72435">
        <ele>173</ele>
        <time>2017-07-28T10:32:52Z</time>
      </trkpt>
      <trkpt lat="45.93388" lon="4.72441">
        <ele>173</ele>
        <time>2017-07-28T10:32:53Z</time>
      </trkpt>
      <trkpt lat="45.93389" lon="4.72448">
        <ele>173</ele>
        <time>2017-07-28T10:32:54Z</time>
      </trkpt>
      <trkpt lat="45.93389" lon="4.72455">
        <ele>173</ele>
        <time>2017-07-28T10:32:55Z</time>
      </trkpt>
      <trkpt lat="45.93388" lon="4.72461">
        <ele>173</ele>
        <time>2017-07-28T10:32:56Z</time>
      </trkpt>
      <trkpt lat="45.93385" lon="4.72467">
        <ele>173</ele>
        <time>2017-07-28T10:32:57Z</time>
      </trkpt>
      <trkpt lat="45.93381" lon="4.72472">
        <ele>173</ele>
        <time>2017-07-28T10:32:58Z</time>
      </trkpt>
      <trkpt lat="45.93374" lon="4.72479">
        <ele>173</ele>
        <time>2017-07-28T10:33:00Z</time>
      </trkpt>
      <trkpt lat="45.93371" lon="4.72483">
        <ele>173</ele>
        <time>2017-07-28T10:33:01Z</time>
      </trkpt>
      <trkpt lat="45.93367" lon="4.72488">
        <ele>173</ele>
        <time>2017-07-28T10:33:02Z</time>
      </trkpt>
      <trkpt lat="45.93362" lon="4.72492">
        <ele>173</ele>
        <time>2017-07-28T10:33:03Z</time>
      </trkpt>
      <trkpt lat="45.93358" lon="4.72498">
        <ele>173</ele>
        <time>2017-07-28T10:33:04Z</time>
      </trkpt>
      <trkpt lat="45.93354" lon="4.72504">
        <ele>172</ele>
        <time>2017-07-28T10:33:05Z</time>
      </trkpt>
      <trkpt lat="45.93349" lon="4.7251">
        <ele>172</ele>
        <time>2017-07-28T10:33:06Z</time>
      </trkpt>
      <trkpt lat="45.93344" lon="4.72515">
        <ele>172</ele>
        <time>2017-07-28T10:33:07Z</time>
      </trkpt>
      <trkpt lat="45.9334" lon="4.7252">
        <ele>172</ele>
        <time>2017-07-28T10:33:08Z</time>
      </trkpt>
      <trkpt lat="45.93335" lon="4.72525">
        <ele>172</ele>
        <time>2017-07-28T10:33:09Z</time>
      </trkpt>
      <trkpt lat="45.93331" lon="4.7253">
        <ele>172</ele>
        <time>2017-07-28T10:33:10Z</time>
      </trkpt>
      <trkpt lat="45.93327" lon="4.72535">
        <ele>172</ele>
        <time>2017-07-28T10:33:11Z</time>
      </trkpt>
      <trkpt lat="45.93323" lon="4.7254">
        <ele>172</ele>
        <time>2017-07-28T10:33:12Z</time>
      </trkpt>
      <trkpt lat="45.93319" lon="4.72544">
        <ele>172</ele>
        <time>2017-07-28T10:33:13Z</time>
      </trkpt>
      <trkpt lat="45.93315" lon="4.72549">
        <ele>172</ele>
        <time>2017-07-28T10:33:14Z</time>
      </trkpt>
      <trkpt lat="45.93311" lon="4.72553">
        <ele>172</ele>
        <time>2017-07-28T10:33:15Z</time>
      </trkpt>
      <trkpt lat="45.93308" lon="4.72558">
        <ele>172</ele>
        <time>2017-07-28T10:33:16Z</time>
      </trkpt>
      <trkpt lat="45.93303" lon="4.72562">
        <ele>172</ele>
        <time>2017-07-28T10:33:17Z</time>
      </trkpt>
      <trkpt lat="45.93299" lon="4.72567">
        <ele>172</ele>
        <time>2017-07-28T10:33:18Z</time>
      </trkpt>
      <trkpt lat="45.93295" lon="4.72572">
        <ele>171</ele>
        <time>2017-07-28T10:33:19Z</time>
      </trkpt>
      <trkpt lat="45.93291" lon="4.72577">
        <ele>171</ele>
        <time>2017-07-28T10:33:20Z</time>
      </trkpt>
      <trkpt lat="45.93286" lon="4.72582">
        <ele>171</ele>
        <time>2017-07-28T10:33:21Z</time>
      </trkpt>
      <trkpt lat="45.93281" lon="4.72587">
        <ele>170</ele>
        <time>2017-07-28T10:33:22Z</time>
      </trkpt>
      <trkpt lat="45.93277" lon="4.72593">
        <ele>170</ele>
        <time>2017-07-28T10:33:23Z</time>
      </trkpt>
      <trkpt lat="45.93273" lon="4.72598">
        <ele>170</ele>
        <time>2017-07-28T10:33:24Z</time>
      </trkpt>
      <trkpt lat="45.93268" lon="4.72603">
        <ele>170</ele>
        <time>2017-07-28T10:33:25Z</time>
      </trkpt>
      <trkpt lat="45.93264" lon="4.72607">
        <ele>170</ele>
        <time>2017-07-28T10:33:26Z</time>
      </trkpt>
      <trkpt lat="45.9326" lon="4.72612">
        <ele>170</ele>
        <time>2017-07-28T10:33:27Z</time>
      </trkpt>
      <trkpt lat="45.93257" lon="4.72616">
        <ele>170</ele>
        <time>2017-07-28T10:33:28Z</time>
      </trkpt>
      <trkpt lat="45.93253" lon="4.7262">
        <ele>170</ele>
        <time>2017-07-28T10:33:29Z</time>
      </trkpt>
      <trkpt lat="45.93249" lon="4.72624">
        <ele>170</ele>
        <time>2017-07-28T10:33:30Z</time>
      </trkpt>
      <trkpt lat="45.93245" lon="4.72629">
        <ele>170</ele>
        <time>2017-07-28T10:33:31Z</time>
      </trkpt>
      <trkpt lat="45.9324" lon="4.72634">
        <ele>170</ele>
        <time>2017-07-28T10:33:32Z</time>
      </trkpt>
      <trkpt lat="45.93235" lon="4.72639">
        <ele>170</ele>
        <time>2017-07-28T10:33:33Z</time>
      </trkpt>
      <trkpt lat="45.9323" lon="4.72645">
        <ele>170</ele>
        <time>2017-07-28T10:33:34Z</time>
      </trkpt>
      <trkpt lat="45.93226" lon="4.72651">
        <ele>170</ele>
        <time>2017-07-28T10:33:35Z</time>
      </trkpt>
      <trkpt lat="45.93221" lon="4.72656">
        <ele>170</ele>
        <time>2017-07-28T10:33:36Z</time>
      </trkpt>
      <trkpt lat="45.93217" lon="4.72661">
        <ele>170</ele>
        <time>2017-07-28T10:33:37Z</time>
      </trkpt>
      <trkpt lat="45.93213" lon="4.72666">
        <ele>170</ele>
        <time>2017-07-28T10:33:38Z</time>
      </trkpt>
      <trkpt lat="45.93209" lon="4.7267">
        <ele>169</ele>
        <time>2017-07-28T10:33:39Z</time>
      </trkpt>
      <trkpt lat="45.93205" lon="4.72675">
        <ele>169</ele>
        <time>2017-07-28T10:33:40Z</time>
      </trkpt>
      <trkpt lat="45.93201" lon="4.7268">
        <ele>169</ele>
        <time>2017-07-28T10:33:41Z</time>
      </trkpt>
      <trkpt lat="45.93197" lon="4.72685">
        <ele>169</ele>
        <time>2017-07-28T10:33:42Z</time>
      </trkpt>
      <trkpt lat="45.93192" lon="4.7269">
        <ele>169</ele>
        <time>2017-07-28T10:33:43Z</time>
      </trkpt>
      <trkpt lat="45.93188" lon="4.72695">
        <ele>169</ele>
        <time>2017-07-28T10:33:44Z</time>
      </trkpt>
      <trkpt lat="45.93184" lon="4.727">
        <ele>169</ele>
        <time>2017-07-28T10:33:45Z</time>
      </trkpt>
      <trkpt lat="45.93179" lon="4.72706">
        <ele>169</ele>
        <time>2017-07-28T10:33:46Z</time>
      </trkpt>
      <trkpt lat="45.93175" lon="4.72712">
        <ele>170</ele>
        <time>2017-07-28T10:33:47Z</time>
      </trkpt>
      <trkpt lat="45.9317" lon="4.72718">
        <ele>170</ele>
        <time>2017-07-28T10:33:48Z</time>
      </trkpt>
      <trkpt lat="45.93165" lon="4.72723">
        <ele>170</ele>
        <time>2017-07-28T10:33:49Z</time>
      </trkpt>
      <trkpt lat="45.93159" lon="4.72729">
        <ele>170</ele>
        <time>2017-07-28T10:33:50Z</time>
      </trkpt>
      <trkpt lat="45.93154" lon="4.72734">
        <ele>170</ele>
        <time>2017-07-28T10:33:51Z</time>
      </trkpt>
      <trkpt lat="45.9315" lon="4.7274">
        <ele>170</ele>
        <time>2017-07-28T10:33:52Z</time>
      </trkpt>
      <trkpt lat="45.93145" lon="4.72745">
        <ele>170</ele>
        <time>2017-07-28T10:33:53Z</time>
      </trkpt>
      <trkpt lat="45.9314" lon="4.72751">
        <ele>171</ele>
        <time>2017-07-28T10:33:54Z</time>
      </trkpt>
      <trkpt lat="45.93136" lon="4.72756">
        <ele>171</ele>
        <time>2017-07-28T10:33:55Z</time>
      </trkpt>
      <trkpt lat="45.93132" lon="4.7276">
        <ele>171</ele>
        <time>2017-07-28T10:33:56Z</time>
      </trkpt>
      <trkpt lat="45.93128" lon="4.72766">
        <ele>171</ele>
        <time>2017-07-28T10:33:57Z</time>
      </trkpt>
      <trkpt lat="45.93124" lon="4.7277">
        <ele>171</ele>
        <time>2017-07-28T10:33:58Z</time>
      </trkpt>
      <trkpt lat="45.9312" lon="4.72775">
        <ele>171</ele>
        <time>2017-07-28T10:33:59Z</time>
      </trkpt>
      <trkpt lat="45.93117" lon="4.72779">
        <ele>171</ele>
        <time>2017-07-28T10:34:00Z</time>
      </trkpt>
      <trkpt lat="45.93113" lon="4.72783">
        <ele>171</ele>
        <time>2017-07-28T10:34:01Z</time>
      </trkpt>
      <trkpt lat="45.93109" lon="4.72788">
        <ele>171</ele>
        <time>2017-07-28T10:34:02Z</time>
      </trkpt>
      <trkpt lat="45.93105" lon="4.72792">
        <ele>171</ele>
        <time>2017-07-28T10:34:03Z</time>
      </trkpt>
      <trkpt lat="45.931" lon="4.72796">
        <ele>171</ele>
        <time>2017-07-28T10:34:04Z</time>
      </trkpt>
      <trkpt lat="45.93096" lon="4.72801">
        <ele>171</ele>
        <time>2017-07-28T10:34:05Z</time>
      </trkpt>
      <trkpt lat="45.93091" lon="4.72807">
        <ele>172</ele>
        <time>2017-07-28T10:34:06Z</time>
      </trkpt>
      <trkpt lat="45.93087" lon="4.72812">
        <ele>172</ele>
        <time>2017-07-28T10:34:07Z</time>
      </trkpt>
      <trkpt lat="45.93082" lon="4.72816">
        <ele>172</ele>
        <time>2017-07-28T10:34:08Z</time>
      </trkpt>
      <trkpt lat="45.93078" lon="4.7282">
        <ele>173</ele>
        <time>2017-07-28T10:34:09Z</time>
      </trkpt>
      <trkpt lat="45.93073" lon="4.72825">
        <ele>173</ele>
        <time>2017-07-28T10:34:10Z</time>
      </trkpt>
      <trkpt lat="45.93069" lon="4.7283">
        <ele>173</ele>
        <time>2017-07-28T10:34:11Z</time>
      </trkpt>
      <trkpt lat="45.93065" lon="4.72834">
        <ele>173</ele>
        <time>2017-07-28T10:34:12Z</time>
      </trkpt>
      <trkpt lat="45.9306" lon="4.72839">
        <ele>172</ele>
        <time>2017-07-28T10:34:13Z</time>
      </trkpt>
      <trkpt lat="45.93056" lon="4.72846">
        <ele>172</ele>
        <time>2017-07-28T10:34:14Z</time>
      </trkpt>
      <trkpt lat="45.93052" lon="4.72851">
        <ele>172</ele>
        <time>2017-07-28T10:34:15Z</time>
      </trkpt>
      <trkpt lat="45.93046" lon="4.72856">
        <ele>172</ele>
        <time>2017-07-28T10:34:17Z</time>
      </trkpt>
      <trkpt lat="45.93041" lon="4.72862">
        <ele>172</ele>
        <time>2017-07-28T10:34:18Z</time>
      </trkpt>
      <trkpt lat="45.93036" lon="4.72869">
        <ele>172</ele>
        <time>2017-07-28T10:34:19Z</time>
      </trkpt>
      <trkpt lat="45.93032" lon="4.72875">
        <ele>172</ele>
        <time>2017-07-28T10:34:20Z</time>
      </trkpt>
      <trkpt lat="45.93028" lon="4.7288">
        <ele>172</ele>
        <time>2017-07-28T10:34:21Z</time>
      </trkpt>
      <trkpt lat="45.93024" lon="4.72885">
        <ele>172</ele>
        <time>2017-07-28T10:34:22Z</time>
      </trkpt>
      <trkpt lat="45.9302" lon="4.72889">
        <ele>172</ele>
        <time>2017-07-28T10:34:23Z</time>
      </trkpt>
      <trkpt lat="45.93016" lon="4.72894">
        <ele>172</ele>
        <time>2017-07-28T10:34:24Z</time>
      </trkpt>
      <trkpt lat="45.93012" lon="4.72899">
        <ele>172</ele>
        <time>2017-07-28T10:34:25Z</time>
      </trkpt>
      <trkpt lat="45.93008" lon="4.72904">
        <ele>171</ele>
        <time>2017-07-28T10:34:26Z</time>
      </trkpt>
      <trkpt lat="45.93003" lon="4.72909">
        <ele>171</ele>
        <time>2017-07-28T10:34:27Z</time>
      </trkpt>
      <trkpt lat="45.92999" lon="4.72914">
        <ele>171</ele>
        <time>2017-07-28T10:34:28Z</time>
      </trkpt>
      <trkpt lat="45.92994" lon="4.7292">
        <ele>171</ele>
        <time>2017-07-28T10:34:29Z</time>
      </trkpt>
      <trkpt lat="45.9299" lon="4.72925">
        <ele>171</ele>
        <time>2017-07-28T10:34:30Z</time>
      </trkpt>
      <trkpt lat="45.92986" lon="4.72931">
        <ele>171</ele>
        <time>2017-07-28T10:34:31Z</time>
      </trkpt>
      <trkpt lat="45.92982" lon="4.72936">
        <ele>171</ele>
        <time>2017-07-28T10:34:32Z</time>
      </trkpt>
      <trkpt lat="45.92977" lon="4.72941">
        <ele>171</ele>
        <time>2017-07-28T10:34:33Z</time>
      </trkpt>
      <trkpt lat="45.92974" lon="4.72945">
        <ele>171</ele>
        <time>2017-07-28T10:34:34Z</time>
      </trkpt>
      <trkpt lat="45.9297" lon="4.7295">
        <ele>171</ele>
        <time>2017-07-28T10:34:35Z</time>
      </trkpt>
      <trkpt lat="45.92966" lon="4.72954">
        <ele>171</ele>
        <time>2017-07-28T10:34:36Z</time>
      </trkpt>
      <trkpt lat="45.92963" lon="4.72959">
        <ele>171</ele>
        <time>2017-07-28T10:34:37Z</time>
      </trkpt>
      <trkpt lat="45.92959" lon="4.72963">
        <ele>171</ele>
        <time>2017-07-28T10:34:38Z</time>
      </trkpt>
      <trkpt lat="45.92956" lon="4.72968">
        <ele>171</ele>
        <time>2017-07-28T10:34:39Z</time>
      </trkpt>
      <trkpt lat="45.92952" lon="4.72973">
        <ele>171</ele>
        <time>2017-07-28T10:34:40Z</time>
      </trkpt>
      <trkpt lat="45.92948" lon="4.72979">
        <ele>171</ele>
        <time>2017-07-28T10:34:41Z</time>
      </trkpt>
      <trkpt lat="45.92944" lon="4.72984">
        <ele>171</ele>
        <time>2017-07-28T10:34:42Z</time>
      </trkpt>
      <trkpt lat="45.92939" lon="4.72989">
        <ele>171</ele>
        <time>2017-07-28T10:34:43Z</time>
      </trkpt>
      <trkpt lat="45.92935" lon="4.72994">
        <ele>172</ele>
        <time>2017-07-28T10:34:44Z</time>
      </trkpt>
      <trkpt lat="45.92931" lon="4.72999">
        <ele>172</ele>
        <time>2017-07-28T10:34:45Z</time>
      </trkpt>
      <trkpt lat="45.92928" lon="4.73003">
        <ele>172</ele>
        <time>2017-07-28T10:34:46Z</time>
      </trkpt>
      <trkpt lat="45.92921" lon="4.73012">
        <ele>172</ele>
        <time>2017-07-28T10:34:48Z</time>
      </trkpt>
      <trkpt lat="45.92918" lon="4.73015">
        <ele>172</ele>
        <time>2017-07-28T10:34:49Z</time>
      </trkpt>
      <trkpt lat="45.92911" lon="4.73024">
        <ele>172</ele>
        <time>2017-07-28T10:34:51Z</time>
      </trkpt>
      <trkpt lat="45.92908" lon="4.73028">
        <ele>172</ele>
        <time>2017-07-28T10:34:52Z</time>
      </trkpt>
      <trkpt lat="45.92904" lon="4.73034">
        <ele>172</ele>
        <time>2017-07-28T10:34:53Z</time>
      </trkpt>
      <trkpt lat="45.929" lon="4.73039">
        <ele>172</ele>
        <time>2017-07-28T10:34:54Z</time>
      </trkpt>
      <trkpt lat="45.92896" lon="4.73045">
        <ele>172</ele>
        <time>2017-07-28T10:34:55Z</time>
      </trkpt>
      <trkpt lat="45.92892" lon="4.73051">
        <ele>172</ele>
        <time>2017-07-28T10:34:56Z</time>
      </trkpt>
      <trkpt lat="45.92888" lon="4.73057">
        <ele>172</ele>
        <time>2017-07-28T10:34:57Z</time>
      </trkpt>
      <trkpt lat="45.92884" lon="4.73064">
        <ele>172</ele>
        <time>2017-07-28T10:34:58Z</time>
      </trkpt>
      <trkpt lat="45.92881" lon="4.73069">
        <ele>172</ele>
        <time>2017-07-28T10:34:59Z</time>
      </trkpt>
      <trkpt lat="45.92878" lon="4.73074">
        <ele>172</ele>
        <time>2017-07-28T10:35:00Z</time>
      </trkpt>
      <trkpt lat="45.92874" lon="4.7308">
        <ele>172</ele>
        <time>2017-07-28T10:35:01Z</time>
      </trkpt>
      <trkpt lat="45.92869" lon="4.73084">
        <ele>172</ele>
        <time>2017-07-28T10:35:02Z</time>
      </trkpt>
      <trkpt lat="45.92866" lon="4.73089">
        <ele>172</ele>
        <time>2017-07-28T10:35:03Z</time>
      </trkpt>
      <trkpt lat="45.92862" lon="4.73094">
        <ele>171</ele>
        <time>2017-07-28T10:35:04Z</time>
      </trkpt>
      <trkpt lat="45.92854" lon="4.731">
        <ele>171</ele>
        <time>2017-07-28T10:35:06Z</time>
      </trkpt>
      <trkpt lat="45.9285" lon="4.73101">
        <ele>171</ele>
        <time>2017-07-28T10:35:07Z</time>
      </trkpt>
      <trkpt lat="45.92847" lon="4.73094">
        <ele>171</ele>
        <time>2017-07-28T10:35:09Z</time>
      </trkpt>
      <trkpt lat="45.92846" lon="4.73088">
        <ele>171</ele>
        <time>2017-07-28T10:35:10Z</time>
      </trkpt>
      <trkpt lat="45.92846" lon="4.73082">
        <ele>171</ele>
        <time>2017-07-28T10:35:11Z</time>
      </trkpt>
      <trkpt lat="45.92845" lon="4.73075">
        <ele>171</ele>
        <time>2017-07-28T10:35:12Z</time>
      </trkpt>
      <trkpt lat="45.92843" lon="4.73068">
        <ele>171</ele>
        <time>2017-07-28T10:35:13Z</time>
      </trkpt>
      <trkpt lat="45.92842" lon="4.7306">
        <ele>171</ele>
        <time>2017-07-28T10:35:14Z</time>
      </trkpt>
      <trkpt lat="45.9284" lon="4.73053">
        <ele>171</ele>
        <time>2017-07-28T10:35:15Z</time>
      </trkpt>
      <trkpt lat="45.92839" lon="4.73045">
        <ele>171</ele>
        <time>2017-07-28T10:35:16Z</time>
      </trkpt>
      <trkpt lat="45.92838" lon="4.73038">
        <ele>171</ele>
        <time>2017-07-28T10:35:17Z</time>
      </trkpt>
      <trkpt lat="45.92837" lon="4.73031">
        <ele>171</ele>
        <time>2017-07-28T10:35:18Z</time>
      </trkpt>
      <trkpt lat="45.92836" lon="4.73024">
        <ele>171</ele>
        <time>2017-07-28T10:35:19Z</time>
      </trkpt>
      <trkpt lat="45.92834" lon="4.73018">
        <ele>171</ele>
        <time>2017-07-28T10:35:20Z</time>
      </trkpt>
      <trkpt lat="45.92833" lon="4.73011">
        <ele>170</ele>
        <time>2017-07-28T10:35:21Z</time>
      </trkpt>
      <trkpt lat="45.92832" lon="4.73004">
        <ele>170</ele>
        <time>2017-07-28T10:35:22Z</time>
      </trkpt>
      <trkpt lat="45.92831" lon="4.72998">
        <ele>170</ele>
        <time>2017-07-28T10:35:23Z</time>
      </trkpt>
      <trkpt lat="45.9283" lon="4.72991">
        <ele>170</ele>
        <time>2017-07-28T10:35:24Z</time>
      </trkpt>
      <trkpt lat="45.92829" lon="4.72985">
        <ele>170</ele>
        <time>2017-07-28T10:35:25Z</time>
      </trkpt>
      <trkpt lat="45.92829" lon="4.72978">
        <ele>170</ele>
        <time>2017-07-28T10:35:26Z</time>
      </trkpt>
      <trkpt lat="45.92828" lon="4.72972">
        <ele>170</ele>
        <time>2017-07-28T10:35:27Z</time>
      </trkpt>
      <trkpt lat="45.92828" lon="4.72965">
        <ele>170</ele>
        <time>2017-07-28T10:35:28Z</time>
      </trkpt>
      <trkpt lat="45.92827" lon="4.72958">
        <ele>170</ele>
        <time>2017-07-28T10:35:29Z</time>
      </trkpt>
      <trkpt lat="45.92827" lon="4.72951">
        <ele>170</ele>
        <time>2017-07-28T10:35:30Z</time>
      </trkpt>
      <trkpt lat="45.92826" lon="4.72944">
        <ele>170</ele>
        <time>2017-07-28T10:35:31Z</time>
      </trkpt>
      <trkpt lat="45.92826" lon="4.72936">
        <ele>170</ele>
        <time>2017-07-28T10:35:32Z</time>
      </trkpt>
      <trkpt lat="45.92825" lon="4.72929">
        <ele>170</ele>
        <time>2017-07-28T10:35:33Z</time>
      </trkpt>
      <trkpt lat="45.92824" lon="4.72921">
        <ele>170</ele>
        <time>2017-07-28T10:35:34Z</time>
      </trkpt>
      <trkpt lat="45.92823" lon="4.72912">
        <ele>170</ele>
        <time>2017-07-28T10:35:35Z</time>
      </trkpt>
      <trkpt lat="45.92821" lon="4.72904">
        <ele>170</ele>
        <time>2017-07-28T10:35:36Z</time>
      </trkpt>
      <trkpt lat="45.9282" lon="4.72896">
        <ele>170</ele>
        <time>2017-07-28T10:35:37Z</time>
      </trkpt>
      <trkpt lat="45.92819" lon="4.72889">
        <ele>170</ele>
        <time>2017-07-28T10:35:38Z</time>
      </trkpt>
      <trkpt lat="45.92817" lon="4.72881">
        <ele>170</ele>
        <time>2017-07-28T10:35:39Z</time>
      </trkpt>
      <trkpt lat="45.92815" lon="4.72875">
        <ele>170</ele>
        <time>2017-07-28T10:35:40Z</time>
      </trkpt>
      <trkpt lat="45.92814" lon="4.72868">
        <ele>170</ele>
        <time>2017-07-28T10:35:41Z</time>
      </trkpt>
      <trkpt lat="45.92812" lon="4.72861">
        <ele>170</ele>
        <time>2017-07-28T10:35:42Z</time>
      </trkpt>
      <trkpt lat="45.9281" lon="4.72854">
        <ele>170</ele>
        <time>2017-07-28T10:35:43Z</time>
      </trkpt>
      <trkpt lat="45.92809" lon="4.72848">
        <ele>170</ele>
        <time>2017-07-28T10:35:44Z</time>
      </trkpt>
      <trkpt lat="45.92808" lon="4.72841">
        <ele>170</ele>
        <time>2017-07-28T10:35:45Z</time>
      </trkpt>
      <trkpt lat="45.92807" lon="4.72835">
        <ele>170</ele>
        <time>2017-07-28T10:35:46Z</time>
      </trkpt>
      <trkpt lat="45.92805" lon="4.72822">
        <ele>171</ele>
        <time>2017-07-28T10:35:48Z</time>
      </trkpt>
      <trkpt lat="45.92803" lon="4.72816">
        <ele>171</ele>
        <time>2017-07-28T10:35:49Z</time>
      </trkpt>
      <trkpt lat="45.92801" lon="4.72804">
        <ele>171</ele>
        <time>2017-07-28T10:35:51Z</time>
      </trkpt>
      <trkpt lat="45.92801" lon="4.72798">
        <ele>171</ele>
        <time>2017-07-28T10:35:52Z</time>
      </trkpt>
      <trkpt lat="45.92797" lon="4.72787">
        <ele>171</ele>
        <time>2017-07-28T10:35:54Z</time>
      </trkpt>
      <trkpt lat="45.92792" lon="4.72787">
        <ele>171</ele>
        <time>2017-07-28T10:35:55Z</time>
      </trkpt>
      <trkpt lat="45.92784" lon="4.7279">
        <ele>170</ele>
        <time>2017-07-28T10:35:57Z</time>
      </trkpt>
      <trkpt lat="45.9278" lon="4.72792">
        <ele>170</ele>
        <time>2017-07-28T10:35:58Z</time>
      </trkpt>
      <trkpt lat="45.92776" lon="4.72795">
        <ele>170</ele>
        <time>2017-07-28T10:35:59Z</time>
      </trkpt>
      <trkpt lat="45.92772" lon="4.72798">
        <ele>170</ele>
        <time>2017-07-28T10:36:00Z</time>
      </trkpt>
      <trkpt lat="45.92768" lon="4.72802">
        <ele>170</ele>
        <time>2017-07-28T10:36:01Z</time>
      </trkpt>
      <trkpt lat="45.92763" lon="4.72806">
        <ele>170</ele>
        <time>2017-07-28T10:36:02Z</time>
      </trkpt>
      <trkpt lat="45.92759" lon="4.72809">
        <ele>170</ele>
        <time>2017-07-28T10:36:03Z</time>
      </trkpt>
      <trkpt lat="45.92754" lon="4.72814">
        <ele>170</ele>
        <time>2017-07-28T10:36:04Z</time>
      </trkpt>
      <trkpt lat="45.9275" lon="4.72818">
        <ele>169</ele>
        <time>2017-07-28T10:36:05Z</time>
      </trkpt>
      <trkpt lat="45.92745" lon="4.72822">
        <ele>169</ele>
        <time>2017-07-28T10:36:06Z</time>
      </trkpt>
      <trkpt lat="45.92741" lon="4.72826">
        <ele>169</ele>
        <time>2017-07-28T10:36:07Z</time>
      </trkpt>
      <trkpt lat="45.92737" lon="4.7283">
        <ele>169</ele>
        <time>2017-07-28T10:36:08Z</time>
      </trkpt>
      <trkpt lat="45.9273" lon="4.72835">
        <ele>169</ele>
        <time>2017-07-28T10:36:10Z</time>
      </trkpt>
      <trkpt lat="45.92725" lon="4.72838">
        <ele>169</ele>
        <time>2017-07-28T10:36:11Z</time>
      </trkpt>
      <trkpt lat="45.92721" lon="4.72841">
        <ele>169</ele>
        <time>2017-07-28T10:36:12Z</time>
      </trkpt>
      <trkpt lat="45.92716" lon="4.72845">
        <ele>169</ele>
        <time>2017-07-28T10:36:13Z</time>
      </trkpt>
      <trkpt lat="45.92712" lon="4.72849">
        <ele>169</ele>
        <time>2017-07-28T10:36:14Z</time>
      </trkpt>
      <trkpt lat="45.92707" lon="4.72852">
        <ele>169</ele>
        <time>2017-07-28T10:36:15Z</time>
      </trkpt>
      <trkpt lat="45.92702" lon="4.72856">
        <ele>169</ele>
        <time>2017-07-28T10:36:16Z</time>
      </trkpt>
      <trkpt lat="45.92697" lon="4.7286">
        <ele>169</ele>
        <time>2017-07-28T10:36:17Z</time>
      </trkpt>
      <trkpt lat="45.92692" lon="4.72864">
        <ele>169</ele>
        <time>2017-07-28T10:36:18Z</time>
      </trkpt>
      <trkpt lat="45.92687" lon="4.72868">
        <ele>169</ele>
        <time>2017-07-28T10:36:19Z</time>
      </trkpt>
      <trkpt lat="45.92682" lon="4.72872">
        <ele>169</ele>
        <time>2017-07-28T10:36:20Z</time>
      </trkpt>
      <trkpt lat="45.92677" lon="4.72876">
        <ele>170</ele>
        <time>2017-07-28T10:36:21Z</time>
      </trkpt>
      <trkpt lat="45.92672" lon="4.7288">
        <ele>170</ele>
        <time>2017-07-28T10:36:22Z</time>
      </trkpt>
      <trkpt lat="45.92667" lon="4.72884">
        <ele>170</ele>
        <time>2017-07-28T10:36:23Z</time>
      </trkpt>
      <trkpt lat="45.92663" lon="4.72887">
        <ele>169</ele>
        <time>2017-07-28T10:36:24Z</time>
      </trkpt>
      <trkpt lat="45.92659" lon="4.7289">
        <ele>169</ele>
        <time>2017-07-28T10:36:25Z</time>
      </trkpt>
      <trkpt lat="45.92655" lon="4.72894">
        <ele>169</ele>
        <time>2017-07-28T10:36:26Z</time>
      </trkpt>
      <trkpt lat="45.92651" lon="4.72897">
        <ele>169</ele>
        <time>2017-07-28T10:36:27Z</time>
      </trkpt>
      <trkpt lat="45.92644" lon="4.72903">
        <ele>169</ele>
        <time>2017-07-28T10:36:29Z</time>
      </trkpt>
      <trkpt lat="45.9264" lon="4.72906">
        <ele>169</ele>
        <time>2017-07-28T10:36:30Z</time>
      </trkpt>
      <trkpt lat="45.92632" lon="4.72913">
        <ele>169</ele>
        <time>2017-07-28T10:36:32Z</time>
      </trkpt>
      <trkpt lat="45.92629" lon="4.72916">
        <ele>169</ele>
        <time>2017-07-28T10:36:33Z</time>
      </trkpt>
      <trkpt lat="45.92622" lon="4.72922">
        <ele>169</ele>
        <time>2017-07-28T10:36:35Z</time>
      </trkpt>
      <trkpt lat="45.92618" lon="4.72925">
        <ele>169</ele>
        <time>2017-07-28T10:36:36Z</time>
      </trkpt>
      <trkpt lat="45.92614" lon="4.7293">
        <ele>169</ele>
        <time>2017-07-28T10:36:37Z</time>
      </trkpt>
      <trkpt lat="45.92609" lon="4.72935">
        <ele>169</ele>
        <time>2017-07-28T10:36:38Z</time>
      </trkpt>
      <trkpt lat="45.92604" lon="4.7294">
        <ele>169</ele>
        <time>2017-07-28T10:36:39Z</time>
      </trkpt>
      <trkpt lat="45.92599" lon="4.72945">
        <ele>169</ele>
        <time>2017-07-28T10:36:40Z</time>
      </trkpt>
      <trkpt lat="45.92594" lon="4.7295">
        <ele>169</ele>
        <time>2017-07-28T10:36:41Z</time>
      </trkpt>
      <trkpt lat="45.9259" lon="4.72955">
        <ele>169</ele>
        <time>2017-07-28T10:36:42Z</time>
      </trkpt>
      <trkpt lat="45.92586" lon="4.7296">
        <ele>169</ele>
        <time>2017-07-28T10:36:43Z</time>
      </trkpt>
      <trkpt lat="45.92582" lon="4.72964">
        <ele>169</ele>
        <time>2017-07-28T10:36:44Z</time>
      </trkpt>
      <trkpt lat="45.92578" lon="4.72968">
        <ele>169</ele>
        <time>2017-07-28T10:36:45Z</time>
      </trkpt>
      <trkpt lat="45.92574" lon="4.72972">
        <ele>169</ele>
        <time>2017-07-28T10:36:46Z</time>
      </trkpt>
      <trkpt lat="45.9257" lon="4.72976">
        <ele>169</ele>
        <time>2017-07-28T10:36:47Z</time>
      </trkpt>
      <trkpt lat="45.92566" lon="4.7298">
        <ele>169</ele>
        <time>2017-07-28T10:36:48Z</time>
      </trkpt>
      <trkpt lat="45.92559" lon="4.72987">
        <ele>169</ele>
        <time>2017-07-28T10:36:50Z</time>
      </trkpt>
      <trkpt lat="45.92555" lon="4.7299">
        <ele>169</ele>
        <time>2017-07-28T10:36:51Z</time>
      </trkpt>
      <trkpt lat="45.92551" lon="4.72994">
        <ele>169</ele>
        <time>2017-07-28T10:36:52Z</time>
      </trkpt>
      <trkpt lat="45.92548" lon="4.72997">
        <ele>169</ele>
        <time>2017-07-28T10:36:53Z</time>
      </trkpt>
      <trkpt lat="45.92544" lon="4.73001">
        <ele>169</ele>
        <time>2017-07-28T10:36:54Z</time>
      </trkpt>
      <trkpt lat="45.92539" lon="4.73006">
        <ele>169</ele>
        <time>2017-07-28T10:36:55Z</time>
      </trkpt>
      <trkpt lat="45.92534" lon="4.7301">
        <ele>169</ele>
        <time>2017-07-28T10:36:56Z</time>
      </trkpt>
      <trkpt lat="45.9253" lon="4.73015">
        <ele>169</ele>
        <time>2017-07-28T10:36:57Z</time>
      </trkpt>
      <trkpt lat="45.92525" lon="4.73019">
        <ele>169</ele>
        <time>2017-07-28T10:36:58Z</time>
      </trkpt>
      <trkpt lat="45.9252" lon="4.73024">
        <ele>169</ele>
        <time>2017-07-28T10:36:59Z</time>
      </trkpt>
      <trkpt lat="45.92515" lon="4.73029">
        <ele>169</ele>
        <time>2017-07-28T10:37:00Z</time>
      </trkpt>
      <trkpt lat="45.9251" lon="4.73033">
        <ele>169</ele>
        <time>2017-07-28T10:37:01Z</time>
      </trkpt>
      <trkpt lat="45.92506" lon="4.73037">
        <ele>169</ele>
        <time>2017-07-28T10:37:02Z</time>
      </trkpt>
      <trkpt lat="45.92501" lon="4.73042">
        <ele>169</ele>
        <time>2017-07-28T10:37:03Z</time>
      </trkpt>
      <trkpt lat="45.92497" lon="4.73045">
        <ele>170</ele>
        <time>2017-07-28T10:37:04Z</time>
      </trkpt>
      <trkpt lat="45.92493" lon="4.73049">
        <ele>170</ele>
        <time>2017-07-28T10:37:05Z</time>
      </trkpt>
      <trkpt lat="45.92488" lon="4.73053">
        <ele>170</ele>
        <time>2017-07-28T10:37:06Z</time>
      </trkpt>
      <trkpt lat="45.92484" lon="4.73056">
        <ele>170</ele>
        <time>2017-07-28T10:37:07Z</time>
      </trkpt>
      <trkpt lat="45.92476" lon="4.73062">
        <ele>170</ele>
        <time>2017-07-28T10:37:09Z</time>
      </trkpt>
      <trkpt lat="45.92472" lon="4.73064">
        <ele>170</ele>
        <time>2017-07-28T10:37:10Z</time>
      </trkpt>
      <trkpt lat="45.92468" lon="4.73067">
        <ele>170</ele>
        <time>2017-07-28T10:37:11Z</time>
      </trkpt>
      <trkpt lat="45.92464" lon="4.73071">
        <ele>170</ele>
        <time>2017-07-28T10:37:12Z</time>
      </trkpt>
      <trkpt lat="45.92457" lon="4.73077">
        <ele>170</ele>
        <time>2017-07-28T10:37:14Z</time>
      </trkpt>
      <trkpt lat="45.92454" lon="4.7308">
        <ele>170</ele>
        <time>2017-07-28T10:37:15Z</time>
      </trkpt>
      <trkpt lat="45.92449" lon="4.73087">
        <ele>170</ele>
        <time>2017-07-28T10:37:17Z</time>
      </trkpt>
      <trkpt lat="45.92445" lon="4.73089">
        <ele>170</ele>
        <time>2017-07-28T10:37:18Z</time>
      </trkpt>
      <trkpt lat="45.92437" lon="4.73096">
        <ele>171</ele>
        <time>2017-07-28T10:37:20Z</time>
      </trkpt>
      <trkpt lat="45.92433" lon="4.73099">
        <ele>171</ele>
        <time>2017-07-28T10:37:21Z</time>
      </trkpt>
      <trkpt lat="45.92429" lon="4.73102">
        <ele>171</ele>
        <time>2017-07-28T10:37:22Z</time>
      </trkpt>
      <trkpt lat="45.92425" lon="4.73105">
        <ele>171</ele>
        <time>2017-07-28T10:37:23Z</time>
      </trkpt>
      <trkpt lat="45.92417" lon="4.73112">
        <ele>170</ele>
        <time>2017-07-28T10:37:25Z</time>
      </trkpt>
      <trkpt lat="45.92414" lon="4.73115">
        <ele>171</ele>
        <time>2017-07-28T10:37:26Z</time>
      </trkpt>
      <trkpt lat="45.92408" lon="4.73125">
        <ele>171</ele>
        <time>2017-07-28T10:37:28Z</time>
      </trkpt>
      <trkpt lat="45.92407" lon="4.7313">
        <ele>171</ele>
        <time>2017-07-28T10:37:29Z</time>
      </trkpt>
      <trkpt lat="45.92406" lon="4.73142">
        <ele>171</ele>
        <time>2017-07-28T10:37:31Z</time>
      </trkpt>
      <trkpt lat="45.92406" lon="4.73148">
        <ele>171</ele>
        <time>2017-07-28T10:37:32Z</time>
      </trkpt>
      <trkpt lat="45.92406" lon="4.73155">
        <ele>171</ele>
        <time>2017-07-28T10:37:33Z</time>
      </trkpt>
      <trkpt lat="45.92406" lon="4.73162">
        <ele>170</ele>
        <time>2017-07-28T10:37:34Z</time>
      </trkpt>
      <trkpt lat="45.92406" lon="4.73169">
        <ele>170</ele>
        <time>2017-07-28T10:37:35Z</time>
      </trkpt>
      <trkpt lat="45.92406" lon="4.73176">
        <ele>171</ele>
        <time>2017-07-28T10:37:36Z</time>
      </trkpt>
      <trkpt lat="45.92406" lon="4.73183">
        <ele>171</ele>
        <time>2017-07-28T10:37:37Z</time>
      </trkpt>
      <trkpt lat="45.92407" lon="4.73191">
        <ele>171</ele>
        <time>2017-07-28T10:37:38Z</time>
      </trkpt>
      <trkpt lat="45.92407" lon="4.73198">
        <ele>171</ele>
        <time>2017-07-28T10:37:39Z</time>
      </trkpt>
      <trkpt lat="45.92407" lon="4.73205">
        <ele>171</ele>
        <time>2017-07-28T10:37:40Z</time>
      </trkpt>
      <trkpt lat="45.92408" lon="4.73212">
        <ele>171</ele>
        <time>2017-07-28T10:37:41Z</time>
      </trkpt>
      <trkpt lat="45.92408" lon="4.73219">
        <ele>171</ele>
        <time>2017-07-28T10:37:42Z</time>
      </trkpt>
      <trkpt lat="45.92409" lon="4.73226">
        <ele>171</ele>
        <time>2017-07-28T10:37:43Z</time>
      </trkpt>
      <trkpt lat="45.9241" lon="4.73233">
        <ele>171</ele>
        <time>2017-07-28T10:37:44Z</time>
      </trkpt>
      <trkpt lat="45.92411" lon="4.73245">
        <ele>171</ele>
        <time>2017-07-28T10:37:46Z</time>
      </trkpt>
      <trkpt lat="45.92411" lon="4.73251">
        <ele>171</ele>
        <time>2017-07-28T10:37:47Z</time>
      </trkpt>
      <trkpt lat="45.92411" lon="4.73264">
        <ele>171</ele>
        <time>2017-07-28T10:37:49Z</time>
      </trkpt>
      <trkpt lat="45.92412" lon="4.73271">
        <ele>171</ele>
        <time>2017-07-28T10:37:50Z</time>
      </trkpt>
      <trkpt lat="45.92413" lon="4.73283">
        <ele>171</ele>
        <time>2017-07-28T10:37:52Z</time>
      </trkpt>
      <trkpt lat="45.92413" lon="4.7329">
        <ele>171</ele>
        <time>2017-07-28T10:37:53Z</time>
      </trkpt>
      <trkpt lat="45.92414" lon="4.73297">
        <ele>171</ele>
        <time>2017-07-28T10:37:54Z</time>
      </trkpt>
      <trkpt lat="45.92414" lon="4.73304">
        <ele>171</ele>
        <time>2017-07-28T10:37:55Z</time>
      </trkpt>
      <trkpt lat="45.92415" lon="4.73312">
        <ele>171</ele>
        <time>2017-07-28T10:37:56Z</time>
      </trkpt>
      <trkpt lat="45.92415" lon="4.73319">
        <ele>171</ele>
        <time>2017-07-28T10:37:57Z</time>
      </trkpt>
      <trkpt lat="45.92416" lon="4.73327">
        <ele>171</ele>
        <time>2017-07-28T10:37:58Z</time>
      </trkpt>
      <trkpt lat="45.92417" lon="4.73335">
        <ele>171</ele>
        <time>2017-07-28T10:37:59Z</time>
      </trkpt>
      <trkpt lat="45.92418" lon="4.73342">
        <ele>171</ele>
        <time>2017-07-28T10:38:00Z</time>
      </trkpt>
      <trkpt lat="45.92419" lon="4.7335">
        <ele>171</ele>
        <time>2017-07-28T10:38:01Z</time>
      </trkpt>
      <trkpt lat="45.9242" lon="4.73358">
        <ele>171</ele>
        <time>2017-07-28T10:38:02Z</time>
      </trkpt>
      <trkpt lat="45.92421" lon="4.73366">
        <ele>172</ele>
        <time>2017-07-28T10:38:03Z</time>
      </trkpt>
      <trkpt lat="45.92422" lon="4.73373">
        <ele>172</ele>
        <time>2017-07-28T10:38:04Z</time>
      </trkpt>
      <trkpt lat="45.92423" lon="4.7338">
        <ele>172</ele>
        <time>2017-07-28T10:38:05Z</time>
      </trkpt>
      <trkpt lat="45.92425" lon="4.73387">
        <ele>172</ele>
        <time>2017-07-28T10:38:06Z</time>
      </trkpt>
      <trkpt lat="45.92426" lon="4.73393">
        <ele>172</ele>
        <time>2017-07-28T10:38:07Z</time>
      </trkpt>
      <trkpt lat="45.92429" lon="4.73404">
        <ele>172</ele>
        <time>2017-07-28T10:38:09Z</time>
      </trkpt>
      <trkpt lat="45.92432" lon="4.73408">
        <ele>172</ele>
        <time>2017-07-28T10:38:10Z</time>
      </trkpt>
      <trkpt lat="45.92439" lon="4.73415">
        <ele>172</ele>
        <time>2017-07-28T10:38:12Z</time>
      </trkpt>
      <trkpt lat="45.92443" lon="4.73418">
        <ele>173</ele>
        <time>2017-07-28T10:38:13Z</time>
      </trkpt>
      <trkpt lat="45.92449" lon="4.73423">
        <ele>173</ele>
        <time>2017-07-28T10:38:15Z</time>
      </trkpt>
      <trkpt lat="45.92452" lon="4.73426">
        <ele>173</ele>
        <time>2017-07-28T10:38:16Z</time>
      </trkpt>
      <trkpt lat="45.92458" lon="4.73433">
        <ele>173</ele>
        <time>2017-07-28T10:38:18Z</time>
      </trkpt>
      <trkpt lat="45.92461" lon="4.73436">
        <ele>173</ele>
        <time>2017-07-28T10:38:19Z</time>
      </trkpt>
      <trkpt lat="45.92465" lon="4.73445">
        <ele>173</ele>
        <time>2017-07-28T10:38:21Z</time>
      </trkpt>
      <trkpt lat="45.92466" lon="4.7345">
        <ele>173</ele>
        <time>2017-07-28T10:38:22Z</time>
      </trkpt>
      <trkpt lat="45.92468" lon="4.7346">
        <ele>173</ele>
        <time>2017-07-28T10:38:24Z</time>
      </trkpt>
      <trkpt lat="45.92468" lon="4.73466">
        <ele>173</ele>
        <time>2017-07-28T10:38:25Z</time>
      </trkpt>
      <trkpt lat="45.92468" lon="4.73472">
        <ele>173</ele>
        <time>2017-07-28T10:38:26Z</time>
      </trkpt>
      <trkpt lat="45.92468" lon="4.73479">
        <ele>173</ele>
        <time>2017-07-28T10:38:27Z</time>
      </trkpt>
      <trkpt lat="45.92467" lon="4.73486">
        <ele>173</ele>
        <time>2017-07-28T10:38:28Z</time>
      </trkpt>
      <trkpt lat="45.92467" lon="4.73493">
        <ele>173</ele>
        <time>2017-07-28T10:38:29Z</time>
      </trkpt>
      <trkpt lat="45.92467" lon="4.73501">
        <ele>174</ele>
        <time>2017-07-28T10:38:30Z</time>
      </trkpt>
      <trkpt lat="45.92467" lon="4.73508">
        <ele>174</ele>
        <time>2017-07-28T10:38:31Z</time>
      </trkpt>
      <trkpt lat="45.92467" lon="4.73521">
        <ele>174</ele>
        <time>2017-07-28T10:38:33Z</time>
      </trkpt>
      <trkpt lat="45.92466" lon="4.73527">
        <ele>174</ele>
        <time>2017-07-28T10:38:34Z</time>
      </trkpt>
      <trkpt lat="45.92465" lon="4.73537">
        <ele>174</ele>
        <time>2017-07-28T10:38:36Z</time>
      </trkpt>
      <trkpt lat="45.92465" lon="4.73541">
        <ele>174</ele>
        <time>2017-07-28T10:38:37Z</time>
      </trkpt>
      <trkpt lat="45.92464" lon="4.73551">
        <ele>173</ele>
        <time>2017-07-28T10:38:39Z</time>
      </trkpt>
      <trkpt lat="45.92465" lon="4.73558">
        <ele>173</ele>
        <time>2017-07-28T10:38:40Z</time>
      </trkpt>
      <trkpt lat="45.92466" lon="4.73564">
        <ele>173</ele>
        <time>2017-07-28T10:38:41Z</time>
      </trkpt>
      <trkpt lat="45.92466" lon="4.73572">
        <ele>173</ele>
        <time>2017-07-28T10:38:42Z</time>
      </trkpt>
      <trkpt lat="45.92466" lon="4.73579">
        <ele>173</ele>
        <time>2017-07-28T10:38:43Z</time>
      </trkpt>
      <trkpt lat="45.92466" lon="4.73586">
        <ele>174</ele>
        <time>2017-07-28T10:38:44Z</time>
      </trkpt>
      <trkpt lat="45.92466" lon="4.73594">
        <ele>174</ele>
        <time>2017-07-28T10:38:45Z</time>
      </trkpt>
      <trkpt lat="45.92467" lon="4.73601">
        <ele>174</ele>
        <time>2017-07-28T10:38:46Z</time>
      </trkpt>
      <trkpt lat="45.92467" lon="4.73609">
        <ele>174</ele>
        <time>2017-07-28T10:38:47Z</time>
      </trkpt>
      <trkpt lat="45.92468" lon="4.73617">
        <ele>174</ele>
        <time>2017-07-28T10:38:48Z</time>
      </trkpt>
      <trkpt lat="45.92468" lon="4.73625">
        <ele>174</ele>
        <time>2017-07-28T10:38:49Z</time>
      </trkpt>
      <trkpt lat="45.92469" lon="4.73632">
        <ele>174</ele>
        <time>2017-07-28T10:38:50Z</time>
      </trkpt>
      <trkpt lat="45.92469" lon="4.73638">
        <ele>174</ele>
        <time>2017-07-28T10:38:51Z</time>
      </trkpt>
      <trkpt lat="45.92469" lon="4.73645">
        <ele>174</ele>
        <time>2017-07-28T10:38:52Z</time>
      </trkpt>
      <trkpt lat="45.92468" lon="4.73657">
        <ele>174</ele>
        <time>2017-07-28T10:38:54Z</time>
      </trkpt>
      <trkpt lat="45.92468" lon="4.73663">
        <ele>174</ele>
        <time>2017-07-28T10:38:55Z</time>
      </trkpt>
      <trkpt lat="45.92466" lon="4.73674">
        <ele>174</ele>
        <time>2017-07-28T10:38:57Z</time>
      </trkpt>
      <trkpt lat="45.92466" lon="4.7368">
        <ele>174</ele>
        <time>2017-07-28T10:38:58Z</time>
      </trkpt>
      <trkpt lat="45.92465" lon="4.73691">
        <ele>174</ele>
        <time>2017-07-28T10:39:00Z</time>
      </trkpt>
      <trkpt lat="45.92464" lon="4.73696">
        <ele>174</ele>
        <time>2017-07-28T10:39:01Z</time>
      </trkpt>
      <trkpt lat="45.92462" lon="4.73702">
        <ele>174</ele>
        <time>2017-07-28T10:39:03Z</time>
      </trkpt>
      <trkpt lat="45.92461" lon="4.73703">
        <ele>174</ele>
        <time>2017-07-28T10:39:04Z</time>
      </trkpt>
      <trkpt lat="45.92458" lon="4.73706">
        <ele>174</ele>
        <time>2017-07-28T10:39:13Z</time>
      </trkpt>
      <trkpt lat="45.92458" lon="4.73706">
        <ele>174</ele>
        <time>2017-07-28T10:39:14Z</time>
      </trkpt>
      <trkpt lat="45.92456" lon="4.73708">
        <ele>174</ele>
        <time>2017-07-28T10:39:33.042Z</time>
      </trkpt>
    </trkseg>
  </trk>
</gpx>